<?xml version="1.0" encoding="UTF-8" standalone="no" ?>
<gpx xmlns="http://www.topografix.com/GPX/1/1" xmlns:xsi="http://www.w3.org/2001/XMLSchema-instance" xsi:schemaLocation="http://www.topografix.com/GPX/1/1 http://www.topografix.com/GPX/1/1/gpx.xsd" version="1.1" creator="VisuGPX - https://www.visugpx.com">
  <metadata>
    <name>Rando VTT La Chénrante 2023</name>
  </metadata>
  <trk>
    <name><![CDATA[Rando VTT La Chénrante 2023_1]]></name>
    <extensions>
      <line xmlns="http://www.topografix.com/GPX/gpx_style/0/2">
        <color>0000FF</color>
        <width>4</width>
      </line>
    </extensions>
    <trkseg>
      <trkpt lat="48.13152" lon="6.59523">
        <ele>369.8</ele>
        <time>2023-09-03T06:17:27Z</time>
      </trkpt>
      <trkpt lat="48.13152" lon="6.59524">
        <ele>376.8</ele>
        <time>2023-09-03T06:17:28Z</time>
      </trkpt>
      <trkpt lat="48.13151" lon="6.59525">
        <ele>376.8</ele>
        <time>2023-09-03T06:17:29Z</time>
      </trkpt>
      <trkpt lat="48.13152" lon="6.59527">
        <ele>376.8</ele>
        <time>2023-09-03T06:17:30Z</time>
      </trkpt>
      <trkpt lat="48.13153" lon="6.59529">
        <ele>376.8</ele>
        <time>2023-09-03T06:17:31Z</time>
      </trkpt>
      <trkpt lat="48.13154" lon="6.5953">
        <ele>376.8</ele>
        <time>2023-09-03T06:17:32Z</time>
      </trkpt>
      <trkpt lat="48.13156" lon="6.59532">
        <ele>376.8</ele>
        <time>2023-09-03T06:17:33Z</time>
      </trkpt>
      <trkpt lat="48.13157" lon="6.59534">
        <ele>376.8</ele>
        <time>2023-09-03T06:17:34Z</time>
      </trkpt>
      <trkpt lat="48.13159" lon="6.59535">
        <ele>376.8</ele>
        <time>2023-09-03T06:17:35Z</time>
      </trkpt>
      <trkpt lat="48.13161" lon="6.59537">
        <ele>376.8</ele>
        <time>2023-09-03T06:17:36Z</time>
      </trkpt>
      <trkpt lat="48.13163" lon="6.59539">
        <ele>376.8</ele>
        <time>2023-09-03T06:17:37Z</time>
      </trkpt>
      <trkpt lat="48.13166" lon="6.59541">
        <ele>376.8</ele>
        <time>2023-09-03T06:17:38Z</time>
      </trkpt>
      <trkpt lat="48.13168" lon="6.59543">
        <ele>377</ele>
        <time>2023-09-03T06:17:39Z</time>
      </trkpt>
      <trkpt lat="48.1317" lon="6.59545">
        <ele>377</ele>
        <time>2023-09-03T06:17:40Z</time>
      </trkpt>
      <trkpt lat="48.13173" lon="6.59547">
        <ele>377.2</ele>
        <time>2023-09-03T06:17:41Z</time>
      </trkpt>
      <trkpt lat="48.13175" lon="6.59548">
        <ele>377.2</ele>
        <time>2023-09-03T06:17:42Z</time>
      </trkpt>
      <trkpt lat="48.13177" lon="6.59549">
        <ele>377.4</ele>
        <time>2023-09-03T06:17:43Z</time>
      </trkpt>
      <trkpt lat="48.1318" lon="6.59551">
        <ele>377.4</ele>
        <time>2023-09-03T06:17:44Z</time>
      </trkpt>
      <trkpt lat="48.13182" lon="6.59553">
        <ele>377.4</ele>
        <time>2023-09-03T06:17:45Z</time>
      </trkpt>
      <trkpt lat="48.13184" lon="6.59556">
        <ele>377.6</ele>
        <time>2023-09-03T06:17:46Z</time>
      </trkpt>
      <trkpt lat="48.13186" lon="6.59559">
        <ele>377.6</ele>
        <time>2023-09-03T06:17:47Z</time>
      </trkpt>
      <trkpt lat="48.13189" lon="6.59562">
        <ele>377.6</ele>
        <time>2023-09-03T06:17:48Z</time>
      </trkpt>
      <trkpt lat="48.13192" lon="6.59564">
        <ele>377.6</ele>
        <time>2023-09-03T06:17:49Z</time>
      </trkpt>
      <trkpt lat="48.13194" lon="6.59566">
        <ele>377.8</ele>
        <time>2023-09-03T06:17:50Z</time>
      </trkpt>
      <trkpt lat="48.13196" lon="6.5957">
        <ele>378</ele>
        <time>2023-09-03T06:17:51Z</time>
      </trkpt>
      <trkpt lat="48.13196" lon="6.59574">
        <ele>378</ele>
        <time>2023-09-03T06:17:52Z</time>
      </trkpt>
      <trkpt lat="48.13195" lon="6.59578">
        <ele>378</ele>
        <time>2023-09-03T06:17:53Z</time>
      </trkpt>
      <trkpt lat="48.13193" lon="6.59581">
        <ele>378</ele>
        <time>2023-09-03T06:17:54Z</time>
      </trkpt>
      <trkpt lat="48.13192" lon="6.59585">
        <ele>378</ele>
        <time>2023-09-03T06:17:55Z</time>
      </trkpt>
      <trkpt lat="48.1319" lon="6.59588">
        <ele>378</ele>
        <time>2023-09-03T06:17:56Z</time>
      </trkpt>
      <trkpt lat="48.13189" lon="6.59591">
        <ele>378.2</ele>
        <time>2023-09-03T06:17:57Z</time>
      </trkpt>
      <trkpt lat="48.13187" lon="6.59594">
        <ele>378.2</ele>
        <time>2023-09-03T06:17:58Z</time>
      </trkpt>
      <trkpt lat="48.13186" lon="6.59598">
        <ele>378.2</ele>
        <time>2023-09-03T06:17:59Z</time>
      </trkpt>
      <trkpt lat="48.13184" lon="6.59601">
        <ele>378.2</ele>
        <time>2023-09-03T06:18:00Z</time>
      </trkpt>
      <trkpt lat="48.13183" lon="6.59604">
        <ele>378.2</ele>
        <time>2023-09-03T06:18:01Z</time>
      </trkpt>
      <trkpt lat="48.13181" lon="6.59607">
        <ele>378.2</ele>
        <time>2023-09-03T06:18:02Z</time>
      </trkpt>
      <trkpt lat="48.13179" lon="6.59611">
        <ele>378.2</ele>
        <time>2023-09-03T06:18:03Z</time>
      </trkpt>
      <trkpt lat="48.13178" lon="6.59615">
        <ele>378.2</ele>
        <time>2023-09-03T06:18:04Z</time>
      </trkpt>
      <trkpt lat="48.13177" lon="6.59619">
        <ele>378.2</ele>
        <time>2023-09-03T06:18:05Z</time>
      </trkpt>
      <trkpt lat="48.13176" lon="6.59622">
        <ele>378.2</ele>
        <time>2023-09-03T06:18:06Z</time>
      </trkpt>
      <trkpt lat="48.13174" lon="6.59626">
        <ele>378.2</ele>
        <time>2023-09-03T06:18:07Z</time>
      </trkpt>
      <trkpt lat="48.13173" lon="6.5963">
        <ele>378.2</ele>
        <time>2023-09-03T06:18:08Z</time>
      </trkpt>
      <trkpt lat="48.13171" lon="6.59633">
        <ele>378.2</ele>
        <time>2023-09-03T06:18:09Z</time>
      </trkpt>
      <trkpt lat="48.1317" lon="6.59637">
        <ele>378.2</ele>
        <time>2023-09-03T06:18:10Z</time>
      </trkpt>
      <trkpt lat="48.13168" lon="6.59641">
        <ele>378.2</ele>
        <time>2023-09-03T06:18:11Z</time>
      </trkpt>
      <trkpt lat="48.13166" lon="6.59645">
        <ele>378.2</ele>
        <time>2023-09-03T06:18:12Z</time>
      </trkpt>
      <trkpt lat="48.13165" lon="6.59649">
        <ele>378.2</ele>
        <time>2023-09-03T06:18:13Z</time>
      </trkpt>
      <trkpt lat="48.13163" lon="6.59653">
        <ele>378.2</ele>
        <time>2023-09-03T06:18:14Z</time>
      </trkpt>
      <trkpt lat="48.13161" lon="6.59656">
        <ele>378.2</ele>
        <time>2023-09-03T06:18:15Z</time>
      </trkpt>
      <trkpt lat="48.1316" lon="6.5966">
        <ele>378.2</ele>
        <time>2023-09-03T06:18:16Z</time>
      </trkpt>
      <trkpt lat="48.13159" lon="6.59664">
        <ele>378.2</ele>
        <time>2023-09-03T06:18:17Z</time>
      </trkpt>
      <trkpt lat="48.13157" lon="6.59667">
        <ele>378.2</ele>
        <time>2023-09-03T06:18:18Z</time>
      </trkpt>
      <trkpt lat="48.13156" lon="6.59671">
        <ele>378.2</ele>
        <time>2023-09-03T06:18:19Z</time>
      </trkpt>
      <trkpt lat="48.13156" lon="6.59675">
        <ele>378.2</ele>
        <time>2023-09-03T06:18:20Z</time>
      </trkpt>
      <trkpt lat="48.13156" lon="6.59679">
        <ele>378.2</ele>
        <time>2023-09-03T06:18:21Z</time>
      </trkpt>
      <trkpt lat="48.13156" lon="6.59683">
        <ele>378.2</ele>
        <time>2023-09-03T06:18:22Z</time>
      </trkpt>
      <trkpt lat="48.13158" lon="6.59687">
        <ele>378.2</ele>
        <time>2023-09-03T06:18:23Z</time>
      </trkpt>
      <trkpt lat="48.13158" lon="6.59692">
        <ele>378.2</ele>
        <time>2023-09-03T06:18:24Z</time>
      </trkpt>
      <trkpt lat="48.13158" lon="6.59697">
        <ele>378.2</ele>
        <time>2023-09-03T06:18:25Z</time>
      </trkpt>
      <trkpt lat="48.13157" lon="6.59701">
        <ele>378.4</ele>
        <time>2023-09-03T06:18:26Z</time>
      </trkpt>
      <trkpt lat="48.13156" lon="6.59706">
        <ele>378.4</ele>
        <time>2023-09-03T06:18:27Z</time>
      </trkpt>
      <trkpt lat="48.13155" lon="6.5971">
        <ele>378.6</ele>
        <time>2023-09-03T06:18:28Z</time>
      </trkpt>
      <trkpt lat="48.13154" lon="6.59714">
        <ele>378.6</ele>
        <time>2023-09-03T06:18:29Z</time>
      </trkpt>
      <trkpt lat="48.13152" lon="6.59718">
        <ele>378.6</ele>
        <time>2023-09-03T06:18:30Z</time>
      </trkpt>
      <trkpt lat="48.13151" lon="6.59722">
        <ele>378.6</ele>
        <time>2023-09-03T06:18:31Z</time>
      </trkpt>
      <trkpt lat="48.13149" lon="6.59725">
        <ele>378.6</ele>
        <time>2023-09-03T06:18:32Z</time>
      </trkpt>
      <trkpt lat="48.13147" lon="6.5973">
        <ele>378.6</ele>
        <time>2023-09-03T06:18:33Z</time>
      </trkpt>
      <trkpt lat="48.13146" lon="6.59734">
        <ele>378.6</ele>
        <time>2023-09-03T06:18:34Z</time>
      </trkpt>
      <trkpt lat="48.13144" lon="6.59738">
        <ele>378.6</ele>
        <time>2023-09-03T06:18:35Z</time>
      </trkpt>
      <trkpt lat="48.13142" lon="6.59742">
        <ele>378.6</ele>
        <time>2023-09-03T06:18:36Z</time>
      </trkpt>
      <trkpt lat="48.13141" lon="6.59747">
        <ele>378.6</ele>
        <time>2023-09-03T06:18:37Z</time>
      </trkpt>
      <trkpt lat="48.13139" lon="6.59751">
        <ele>378.6</ele>
        <time>2023-09-03T06:18:38Z</time>
      </trkpt>
      <trkpt lat="48.13137" lon="6.59755">
        <ele>378.6</ele>
        <time>2023-09-03T06:18:39Z</time>
      </trkpt>
      <trkpt lat="48.13136" lon="6.59759">
        <ele>378.6</ele>
        <time>2023-09-03T06:18:40Z</time>
      </trkpt>
      <trkpt lat="48.13134" lon="6.59764">
        <ele>378.6</ele>
        <time>2023-09-03T06:18:41Z</time>
      </trkpt>
      <trkpt lat="48.13132" lon="6.59767">
        <ele>378.6</ele>
        <time>2023-09-03T06:18:42Z</time>
      </trkpt>
      <trkpt lat="48.1313" lon="6.59771">
        <ele>378.6</ele>
        <time>2023-09-03T06:18:43Z</time>
      </trkpt>
      <trkpt lat="48.13129" lon="6.59775">
        <ele>378.6</ele>
        <time>2023-09-03T06:18:44Z</time>
      </trkpt>
      <trkpt lat="48.13127" lon="6.59779">
        <ele>378.6</ele>
        <time>2023-09-03T06:18:45Z</time>
      </trkpt>
      <trkpt lat="48.13125" lon="6.59782">
        <ele>378.6</ele>
        <time>2023-09-03T06:18:46Z</time>
      </trkpt>
      <trkpt lat="48.13123" lon="6.59786">
        <ele>378.6</ele>
        <time>2023-09-03T06:18:47Z</time>
      </trkpt>
      <trkpt lat="48.13121" lon="6.59789">
        <ele>378.6</ele>
        <time>2023-09-03T06:18:48Z</time>
      </trkpt>
      <trkpt lat="48.13119" lon="6.59791">
        <ele>378.6</ele>
        <time>2023-09-03T06:18:49Z</time>
      </trkpt>
      <trkpt lat="48.13118" lon="6.59793">
        <ele>378.6</ele>
        <time>2023-09-03T06:18:50Z</time>
      </trkpt>
      <trkpt lat="48.13116" lon="6.59796">
        <ele>378.6</ele>
        <time>2023-09-03T06:18:51Z</time>
      </trkpt>
      <trkpt lat="48.13114" lon="6.59799">
        <ele>378.6</ele>
        <time>2023-09-03T06:18:52Z</time>
      </trkpt>
      <trkpt lat="48.13112" lon="6.59803">
        <ele>378.6</ele>
        <time>2023-09-03T06:18:53Z</time>
      </trkpt>
      <trkpt lat="48.13111" lon="6.59807">
        <ele>378.6</ele>
        <time>2023-09-03T06:18:54Z</time>
      </trkpt>
      <trkpt lat="48.13109" lon="6.59811">
        <ele>378.6</ele>
        <time>2023-09-03T06:18:55Z</time>
      </trkpt>
      <trkpt lat="48.13108" lon="6.59815">
        <ele>378.6</ele>
        <time>2023-09-03T06:18:56Z</time>
      </trkpt>
      <trkpt lat="48.13107" lon="6.59819">
        <ele>378.6</ele>
        <time>2023-09-03T06:18:57Z</time>
      </trkpt>
      <trkpt lat="48.13107" lon="6.59822">
        <ele>378.4</ele>
        <time>2023-09-03T06:18:58Z</time>
      </trkpt>
      <trkpt lat="48.13107" lon="6.59826">
        <ele>378.4</ele>
        <time>2023-09-03T06:18:59Z</time>
      </trkpt>
      <trkpt lat="48.13107" lon="6.59829">
        <ele>378.4</ele>
        <time>2023-09-03T06:19:00Z</time>
      </trkpt>
      <trkpt lat="48.13108" lon="6.59833">
        <ele>378.4</ele>
        <time>2023-09-03T06:19:01Z</time>
      </trkpt>
      <trkpt lat="48.13109" lon="6.59837">
        <ele>378.4</ele>
        <time>2023-09-03T06:19:02Z</time>
      </trkpt>
      <trkpt lat="48.1311" lon="6.59841">
        <ele>378.4</ele>
        <time>2023-09-03T06:19:03Z</time>
      </trkpt>
      <trkpt lat="48.13111" lon="6.59844">
        <ele>378.4</ele>
        <time>2023-09-03T06:19:04Z</time>
      </trkpt>
      <trkpt lat="48.13113" lon="6.59847">
        <ele>378.4</ele>
        <time>2023-09-03T06:19:05Z</time>
      </trkpt>
      <trkpt lat="48.13115" lon="6.5985">
        <ele>378.2</ele>
        <time>2023-09-03T06:19:06Z</time>
      </trkpt>
      <trkpt lat="48.13118" lon="6.59851">
        <ele>378.4</ele>
        <time>2023-09-03T06:19:07Z</time>
      </trkpt>
      <trkpt lat="48.1312" lon="6.59853">
        <ele>378.4</ele>
        <time>2023-09-03T06:19:08Z</time>
      </trkpt>
      <trkpt lat="48.13123" lon="6.59856">
        <ele>378.4</ele>
        <time>2023-09-03T06:19:09Z</time>
      </trkpt>
      <trkpt lat="48.13126" lon="6.59857">
        <ele>378.4</ele>
        <time>2023-09-03T06:19:10Z</time>
      </trkpt>
      <trkpt lat="48.13128" lon="6.59859">
        <ele>378.2</ele>
        <time>2023-09-03T06:19:11Z</time>
      </trkpt>
      <trkpt lat="48.13131" lon="6.59861">
        <ele>378.2</ele>
        <time>2023-09-03T06:19:12Z</time>
      </trkpt>
      <trkpt lat="48.13133" lon="6.59863">
        <ele>378.2</ele>
        <time>2023-09-03T06:19:13Z</time>
      </trkpt>
      <trkpt lat="48.13135" lon="6.59866">
        <ele>378.2</ele>
        <time>2023-09-03T06:19:14Z</time>
      </trkpt>
      <trkpt lat="48.13137" lon="6.59868">
        <ele>378.2</ele>
        <time>2023-09-03T06:19:15Z</time>
      </trkpt>
      <trkpt lat="48.13139" lon="6.5987">
        <ele>378.2</ele>
        <time>2023-09-03T06:19:16Z</time>
      </trkpt>
      <trkpt lat="48.13141" lon="6.59872">
        <ele>378.2</ele>
        <time>2023-09-03T06:19:17Z</time>
      </trkpt>
      <trkpt lat="48.13143" lon="6.59874">
        <ele>378</ele>
        <time>2023-09-03T06:19:18Z</time>
      </trkpt>
      <trkpt lat="48.13146" lon="6.59876">
        <ele>378</ele>
        <time>2023-09-03T06:19:19Z</time>
      </trkpt>
      <trkpt lat="48.13148" lon="6.59878">
        <ele>377.8</ele>
        <time>2023-09-03T06:19:20Z</time>
      </trkpt>
      <trkpt lat="48.1315" lon="6.5988">
        <ele>377.8</ele>
        <time>2023-09-03T06:19:21Z</time>
      </trkpt>
      <trkpt lat="48.13151" lon="6.59882">
        <ele>377.8</ele>
        <time>2023-09-03T06:19:22Z</time>
      </trkpt>
      <trkpt lat="48.13154" lon="6.59884">
        <ele>377.8</ele>
        <time>2023-09-03T06:19:23Z</time>
      </trkpt>
      <trkpt lat="48.13156" lon="6.59886">
        <ele>377.8</ele>
        <time>2023-09-03T06:19:24Z</time>
      </trkpt>
      <trkpt lat="48.13159" lon="6.59888">
        <ele>377.8</ele>
        <time>2023-09-03T06:19:25Z</time>
      </trkpt>
      <trkpt lat="48.13161" lon="6.5989">
        <ele>377.8</ele>
        <time>2023-09-03T06:19:26Z</time>
      </trkpt>
      <trkpt lat="48.13164" lon="6.59892">
        <ele>377.8</ele>
        <time>2023-09-03T06:19:27Z</time>
      </trkpt>
      <trkpt lat="48.13166" lon="6.59894">
        <ele>378</ele>
        <time>2023-09-03T06:19:28Z</time>
      </trkpt>
      <trkpt lat="48.13168" lon="6.59895">
        <ele>378</ele>
        <time>2023-09-03T06:19:29Z</time>
      </trkpt>
      <trkpt lat="48.1317" lon="6.59897">
        <ele>378</ele>
        <time>2023-09-03T06:19:30Z</time>
      </trkpt>
      <trkpt lat="48.13172" lon="6.59899">
        <ele>378</ele>
        <time>2023-09-03T06:19:31Z</time>
      </trkpt>
      <trkpt lat="48.13175" lon="6.59901">
        <ele>378</ele>
        <time>2023-09-03T06:19:32Z</time>
      </trkpt>
      <trkpt lat="48.13177" lon="6.59904">
        <ele>378</ele>
        <time>2023-09-03T06:19:33Z</time>
      </trkpt>
      <trkpt lat="48.1318" lon="6.59906">
        <ele>378</ele>
        <time>2023-09-03T06:19:34Z</time>
      </trkpt>
      <trkpt lat="48.13183" lon="6.59909">
        <ele>378</ele>
        <time>2023-09-03T06:19:35Z</time>
      </trkpt>
      <trkpt lat="48.13187" lon="6.59912">
        <ele>378</ele>
        <time>2023-09-03T06:19:36Z</time>
      </trkpt>
      <trkpt lat="48.1319" lon="6.59915">
        <ele>378</ele>
        <time>2023-09-03T06:19:37Z</time>
      </trkpt>
      <trkpt lat="48.13193" lon="6.59918">
        <ele>378</ele>
        <time>2023-09-03T06:19:38Z</time>
      </trkpt>
      <trkpt lat="48.13196" lon="6.59921">
        <ele>378.2</ele>
        <time>2023-09-03T06:19:39Z</time>
      </trkpt>
      <trkpt lat="48.13199" lon="6.59924">
        <ele>378.2</ele>
        <time>2023-09-03T06:19:40Z</time>
      </trkpt>
      <trkpt lat="48.13203" lon="6.59927">
        <ele>378.2</ele>
        <time>2023-09-03T06:19:41Z</time>
      </trkpt>
      <trkpt lat="48.13207" lon="6.5993">
        <ele>378.2</ele>
        <time>2023-09-03T06:19:42Z</time>
      </trkpt>
      <trkpt lat="48.1321" lon="6.59932">
        <ele>378.4</ele>
        <time>2023-09-03T06:19:43Z</time>
      </trkpt>
      <trkpt lat="48.13214" lon="6.59935">
        <ele>378.6</ele>
        <time>2023-09-03T06:19:44Z</time>
      </trkpt>
      <trkpt lat="48.13218" lon="6.59939">
        <ele>378.6</ele>
        <time>2023-09-03T06:19:45Z</time>
      </trkpt>
      <trkpt lat="48.13221" lon="6.59942">
        <ele>378.8</ele>
        <time>2023-09-03T06:19:46Z</time>
      </trkpt>
      <trkpt lat="48.13225" lon="6.59946">
        <ele>378.8</ele>
        <time>2023-09-03T06:19:47Z</time>
      </trkpt>
      <trkpt lat="48.13228" lon="6.59949">
        <ele>378.8</ele>
        <time>2023-09-03T06:19:48Z</time>
      </trkpt>
      <trkpt lat="48.13232" lon="6.59952">
        <ele>378.8</ele>
        <time>2023-09-03T06:19:49Z</time>
      </trkpt>
      <trkpt lat="48.13236" lon="6.59955">
        <ele>378.8</ele>
        <time>2023-09-03T06:19:50Z</time>
      </trkpt>
      <trkpt lat="48.1324" lon="6.59958">
        <ele>378.8</ele>
        <time>2023-09-03T06:19:51Z</time>
      </trkpt>
      <trkpt lat="48.13243" lon="6.59961">
        <ele>378.8</ele>
        <time>2023-09-03T06:19:52Z</time>
      </trkpt>
      <trkpt lat="48.13247" lon="6.59964">
        <ele>378.8</ele>
        <time>2023-09-03T06:19:53Z</time>
      </trkpt>
      <trkpt lat="48.13251" lon="6.59967">
        <ele>379.2</ele>
        <time>2023-09-03T06:19:54Z</time>
      </trkpt>
      <trkpt lat="48.13254" lon="6.5997">
        <ele>379.2</ele>
        <time>2023-09-03T06:19:55Z</time>
      </trkpt>
      <trkpt lat="48.13258" lon="6.59973">
        <ele>379.2</ele>
        <time>2023-09-03T06:19:56Z</time>
      </trkpt>
      <trkpt lat="48.13262" lon="6.59977">
        <ele>379.2</ele>
        <time>2023-09-03T06:19:57Z</time>
      </trkpt>
      <trkpt lat="48.13265" lon="6.59981">
        <ele>379.2</ele>
        <time>2023-09-03T06:19:58Z</time>
      </trkpt>
      <trkpt lat="48.13269" lon="6.59984">
        <ele>379.4</ele>
        <time>2023-09-03T06:19:59Z</time>
      </trkpt>
      <trkpt lat="48.13273" lon="6.59987">
        <ele>379.2</ele>
        <time>2023-09-03T06:20:00Z</time>
      </trkpt>
      <trkpt lat="48.13276" lon="6.59991">
        <ele>379.2</ele>
        <time>2023-09-03T06:20:01Z</time>
      </trkpt>
      <trkpt lat="48.1328" lon="6.59994">
        <ele>379.2</ele>
        <time>2023-09-03T06:20:02Z</time>
      </trkpt>
      <trkpt lat="48.13284" lon="6.59997">
        <ele>379.4</ele>
        <time>2023-09-03T06:20:03Z</time>
      </trkpt>
      <trkpt lat="48.13288" lon="6.6">
        <ele>379.2</ele>
        <time>2023-09-03T06:20:04Z</time>
      </trkpt>
      <trkpt lat="48.13291" lon="6.60004">
        <ele>379.2</ele>
        <time>2023-09-03T06:20:05Z</time>
      </trkpt>
      <trkpt lat="48.13295" lon="6.60007">
        <ele>379.2</ele>
        <time>2023-09-03T06:20:06Z</time>
      </trkpt>
      <trkpt lat="48.13299" lon="6.6001">
        <ele>379.2</ele>
        <time>2023-09-03T06:20:07Z</time>
      </trkpt>
      <trkpt lat="48.13302" lon="6.60013">
        <ele>379.2</ele>
        <time>2023-09-03T06:20:08Z</time>
      </trkpt>
      <trkpt lat="48.13306" lon="6.60016">
        <ele>379.4</ele>
        <time>2023-09-03T06:20:09Z</time>
      </trkpt>
      <trkpt lat="48.1331" lon="6.6002">
        <ele>379.4</ele>
        <time>2023-09-03T06:20:10Z</time>
      </trkpt>
      <trkpt lat="48.13314" lon="6.60023">
        <ele>379.2</ele>
        <time>2023-09-03T06:20:11Z</time>
      </trkpt>
      <trkpt lat="48.13317" lon="6.60026">
        <ele>379.2</ele>
        <time>2023-09-03T06:20:12Z</time>
      </trkpt>
      <trkpt lat="48.13321" lon="6.60029">
        <ele>379.2</ele>
        <time>2023-09-03T06:20:13Z</time>
      </trkpt>
      <trkpt lat="48.13325" lon="6.60032">
        <ele>379.4</ele>
        <time>2023-09-03T06:20:14Z</time>
      </trkpt>
      <trkpt lat="48.13329" lon="6.60036">
        <ele>379.4</ele>
        <time>2023-09-03T06:20:15Z</time>
      </trkpt>
      <trkpt lat="48.13332" lon="6.60039">
        <ele>379.4</ele>
        <time>2023-09-03T06:20:16Z</time>
      </trkpt>
      <trkpt lat="48.13336" lon="6.60042">
        <ele>379.2</ele>
        <time>2023-09-03T06:20:17Z</time>
      </trkpt>
      <trkpt lat="48.13339" lon="6.60044">
        <ele>379.6</ele>
        <time>2023-09-03T06:20:18Z</time>
      </trkpt>
      <trkpt lat="48.13343" lon="6.60048">
        <ele>379.6</ele>
        <time>2023-09-03T06:20:19Z</time>
      </trkpt>
      <trkpt lat="48.13347" lon="6.60051">
        <ele>379.6</ele>
        <time>2023-09-03T06:20:20Z</time>
      </trkpt>
      <trkpt lat="48.1335" lon="6.60054">
        <ele>379.6</ele>
        <time>2023-09-03T06:20:21Z</time>
      </trkpt>
      <trkpt lat="48.13354" lon="6.60056">
        <ele>379.6</ele>
        <time>2023-09-03T06:20:22Z</time>
      </trkpt>
      <trkpt lat="48.13358" lon="6.60059">
        <ele>379.6</ele>
        <time>2023-09-03T06:20:23Z</time>
      </trkpt>
      <trkpt lat="48.13361" lon="6.60062">
        <ele>379.8</ele>
        <time>2023-09-03T06:20:24Z</time>
      </trkpt>
      <trkpt lat="48.13365" lon="6.60065">
        <ele>379.8</ele>
        <time>2023-09-03T06:20:25Z</time>
      </trkpt>
      <trkpt lat="48.13369" lon="6.60067">
        <ele>380</ele>
        <time>2023-09-03T06:20:26Z</time>
      </trkpt>
      <trkpt lat="48.13372" lon="6.6007">
        <ele>380</ele>
        <time>2023-09-03T06:20:27Z</time>
      </trkpt>
      <trkpt lat="48.13376" lon="6.60073">
        <ele>380.2</ele>
        <time>2023-09-03T06:20:28Z</time>
      </trkpt>
      <trkpt lat="48.13379" lon="6.60076">
        <ele>380.4</ele>
        <time>2023-09-03T06:20:29Z</time>
      </trkpt>
      <trkpt lat="48.13383" lon="6.60078">
        <ele>380.4</ele>
        <time>2023-09-03T06:20:30Z</time>
      </trkpt>
      <trkpt lat="48.13387" lon="6.60081">
        <ele>380.6</ele>
        <time>2023-09-03T06:20:31Z</time>
      </trkpt>
      <trkpt lat="48.1339" lon="6.60084">
        <ele>380.4</ele>
        <time>2023-09-03T06:20:32Z</time>
      </trkpt>
      <trkpt lat="48.13394" lon="6.60087">
        <ele>380.4</ele>
        <time>2023-09-03T06:20:33Z</time>
      </trkpt>
      <trkpt lat="48.13397" lon="6.6009">
        <ele>380.6</ele>
        <time>2023-09-03T06:20:34Z</time>
      </trkpt>
      <trkpt lat="48.134" lon="6.60093">
        <ele>380.6</ele>
        <time>2023-09-03T06:20:35Z</time>
      </trkpt>
      <trkpt lat="48.13404" lon="6.60097">
        <ele>380.6</ele>
        <time>2023-09-03T06:20:36Z</time>
      </trkpt>
      <trkpt lat="48.13407" lon="6.60101">
        <ele>380.6</ele>
        <time>2023-09-03T06:20:37Z</time>
      </trkpt>
      <trkpt lat="48.1341" lon="6.60105">
        <ele>380.6</ele>
        <time>2023-09-03T06:20:38Z</time>
      </trkpt>
      <trkpt lat="48.13413" lon="6.60109">
        <ele>380.6</ele>
        <time>2023-09-03T06:20:39Z</time>
      </trkpt>
      <trkpt lat="48.13416" lon="6.60112">
        <ele>380.6</ele>
        <time>2023-09-03T06:20:40Z</time>
      </trkpt>
      <trkpt lat="48.1342" lon="6.60115">
        <ele>380.6</ele>
        <time>2023-09-03T06:20:41Z</time>
      </trkpt>
      <trkpt lat="48.13423" lon="6.60119">
        <ele>380.4</ele>
        <time>2023-09-03T06:20:42Z</time>
      </trkpt>
      <trkpt lat="48.13426" lon="6.60122">
        <ele>380.4</ele>
        <time>2023-09-03T06:20:43Z</time>
      </trkpt>
      <trkpt lat="48.13429" lon="6.60125">
        <ele>380.6</ele>
        <time>2023-09-03T06:20:44Z</time>
      </trkpt>
      <trkpt lat="48.13432" lon="6.60129">
        <ele>380.8</ele>
        <time>2023-09-03T06:20:45Z</time>
      </trkpt>
      <trkpt lat="48.13435" lon="6.60132">
        <ele>380.8</ele>
        <time>2023-09-03T06:20:46Z</time>
      </trkpt>
      <trkpt lat="48.13437" lon="6.60136">
        <ele>380.8</ele>
        <time>2023-09-03T06:20:47Z</time>
      </trkpt>
      <trkpt lat="48.1344" lon="6.6014">
        <ele>380.6</ele>
        <time>2023-09-03T06:20:48Z</time>
      </trkpt>
      <trkpt lat="48.13443" lon="6.60144">
        <ele>380.8</ele>
        <time>2023-09-03T06:20:49Z</time>
      </trkpt>
      <trkpt lat="48.13446" lon="6.60149">
        <ele>380.8</ele>
        <time>2023-09-03T06:20:50Z</time>
      </trkpt>
      <trkpt lat="48.13448" lon="6.60154">
        <ele>380.8</ele>
        <time>2023-09-03T06:20:51Z</time>
      </trkpt>
      <trkpt lat="48.13451" lon="6.60159">
        <ele>380.8</ele>
        <time>2023-09-03T06:20:52Z</time>
      </trkpt>
      <trkpt lat="48.13454" lon="6.60163">
        <ele>380.8</ele>
        <time>2023-09-03T06:20:53Z</time>
      </trkpt>
      <trkpt lat="48.13457" lon="6.60168">
        <ele>381</ele>
        <time>2023-09-03T06:20:54Z</time>
      </trkpt>
      <trkpt lat="48.1346" lon="6.60172">
        <ele>381</ele>
        <time>2023-09-03T06:20:55Z</time>
      </trkpt>
      <trkpt lat="48.13462" lon="6.60177">
        <ele>381</ele>
        <time>2023-09-03T06:20:56Z</time>
      </trkpt>
      <trkpt lat="48.13465" lon="6.60182">
        <ele>381</ele>
        <time>2023-09-03T06:20:57Z</time>
      </trkpt>
      <trkpt lat="48.13468" lon="6.60186">
        <ele>381</ele>
        <time>2023-09-03T06:20:58Z</time>
      </trkpt>
      <trkpt lat="48.13471" lon="6.60191">
        <ele>381.2</ele>
        <time>2023-09-03T06:20:59Z</time>
      </trkpt>
      <trkpt lat="48.13474" lon="6.60194">
        <ele>381.2</ele>
        <time>2023-09-03T06:21:00Z</time>
      </trkpt>
      <trkpt lat="48.13476" lon="6.60198">
        <ele>381.2</ele>
        <time>2023-09-03T06:21:01Z</time>
      </trkpt>
      <trkpt lat="48.13477" lon="6.60203">
        <ele>381.2</ele>
        <time>2023-09-03T06:21:02Z</time>
      </trkpt>
      <trkpt lat="48.13477" lon="6.60209">
        <ele>381.2</ele>
        <time>2023-09-03T06:21:03Z</time>
      </trkpt>
      <trkpt lat="48.13475" lon="6.60215">
        <ele>381.2</ele>
        <time>2023-09-03T06:21:04Z</time>
      </trkpt>
      <trkpt lat="48.13474" lon="6.60221">
        <ele>381</ele>
        <time>2023-09-03T06:21:05Z</time>
      </trkpt>
      <trkpt lat="48.13474" lon="6.60228">
        <ele>381</ele>
        <time>2023-09-03T06:21:06Z</time>
      </trkpt>
      <trkpt lat="48.13474" lon="6.60234">
        <ele>381</ele>
        <time>2023-09-03T06:21:07Z</time>
      </trkpt>
      <trkpt lat="48.13475" lon="6.6024">
        <ele>381</ele>
        <time>2023-09-03T06:21:08Z</time>
      </trkpt>
      <trkpt lat="48.13476" lon="6.60246">
        <ele>381</ele>
        <time>2023-09-03T06:21:09Z</time>
      </trkpt>
      <trkpt lat="48.13477" lon="6.60251">
        <ele>381</ele>
        <time>2023-09-03T06:21:10Z</time>
      </trkpt>
      <trkpt lat="48.13478" lon="6.60257">
        <ele>381</ele>
        <time>2023-09-03T06:21:11Z</time>
      </trkpt>
      <trkpt lat="48.13479" lon="6.60263">
        <ele>380.8</ele>
        <time>2023-09-03T06:21:12Z</time>
      </trkpt>
      <trkpt lat="48.1348" lon="6.60269">
        <ele>380.8</ele>
        <time>2023-09-03T06:21:13Z</time>
      </trkpt>
      <trkpt lat="48.13482" lon="6.60275">
        <ele>380.8</ele>
        <time>2023-09-03T06:21:14Z</time>
      </trkpt>
      <trkpt lat="48.13483" lon="6.60282">
        <ele>380.8</ele>
        <time>2023-09-03T06:21:15Z</time>
      </trkpt>
      <trkpt lat="48.13485" lon="6.60289">
        <ele>380.8</ele>
        <time>2023-09-03T06:21:16Z</time>
      </trkpt>
      <trkpt lat="48.13486" lon="6.60295">
        <ele>380.8</ele>
        <time>2023-09-03T06:21:17Z</time>
      </trkpt>
      <trkpt lat="48.13486" lon="6.60302">
        <ele>380.8</ele>
        <time>2023-09-03T06:21:18Z</time>
      </trkpt>
      <trkpt lat="48.13486" lon="6.60309">
        <ele>380.8</ele>
        <time>2023-09-03T06:21:19Z</time>
      </trkpt>
      <trkpt lat="48.13486" lon="6.60316">
        <ele>380.8</ele>
        <time>2023-09-03T06:21:20Z</time>
      </trkpt>
      <trkpt lat="48.13485" lon="6.60322">
        <ele>380.8</ele>
        <time>2023-09-03T06:21:21Z</time>
      </trkpt>
      <trkpt lat="48.13483" lon="6.60328">
        <ele>380.8</ele>
        <time>2023-09-03T06:21:22Z</time>
      </trkpt>
      <trkpt lat="48.13482" lon="6.60333">
        <ele>380.6</ele>
        <time>2023-09-03T06:21:23Z</time>
      </trkpt>
      <trkpt lat="48.13481" lon="6.60338">
        <ele>380.6</ele>
        <time>2023-09-03T06:21:24Z</time>
      </trkpt>
      <trkpt lat="48.13478" lon="6.60341">
        <ele>380.4</ele>
        <time>2023-09-03T06:21:25Z</time>
      </trkpt>
      <trkpt lat="48.13475" lon="6.60343">
        <ele>380.4</ele>
        <time>2023-09-03T06:21:26Z</time>
      </trkpt>
      <trkpt lat="48.1347" lon="6.60345">
        <ele>380.4</ele>
        <time>2023-09-03T06:21:27Z</time>
      </trkpt>
      <trkpt lat="48.13466" lon="6.60346">
        <ele>380.4</ele>
        <time>2023-09-03T06:21:28Z</time>
      </trkpt>
      <trkpt lat="48.13461" lon="6.60348">
        <ele>380.6</ele>
        <time>2023-09-03T06:21:29Z</time>
      </trkpt>
      <trkpt lat="48.13456" lon="6.60349">
        <ele>380.6</ele>
        <time>2023-09-03T06:21:30Z</time>
      </trkpt>
      <trkpt lat="48.13451" lon="6.60351">
        <ele>380.4</ele>
        <time>2023-09-03T06:21:31Z</time>
      </trkpt>
      <trkpt lat="48.13447" lon="6.60352">
        <ele>380.2</ele>
        <time>2023-09-03T06:21:32Z</time>
      </trkpt>
      <trkpt lat="48.13443" lon="6.60353">
        <ele>380.4</ele>
        <time>2023-09-03T06:21:33Z</time>
      </trkpt>
      <trkpt lat="48.13438" lon="6.60355">
        <ele>380.4</ele>
        <time>2023-09-03T06:21:34Z</time>
      </trkpt>
      <trkpt lat="48.13434" lon="6.60357">
        <ele>380.4</ele>
        <time>2023-09-03T06:21:35Z</time>
      </trkpt>
      <trkpt lat="48.13429" lon="6.6036">
        <ele>380.4</ele>
        <time>2023-09-03T06:21:36Z</time>
      </trkpt>
      <trkpt lat="48.13424" lon="6.60362">
        <ele>380.4</ele>
        <time>2023-09-03T06:21:37Z</time>
      </trkpt>
      <trkpt lat="48.1342" lon="6.60365">
        <ele>380.4</ele>
        <time>2023-09-03T06:21:38Z</time>
      </trkpt>
      <trkpt lat="48.13415" lon="6.60368">
        <ele>380.4</ele>
        <time>2023-09-03T06:21:39Z</time>
      </trkpt>
      <trkpt lat="48.13411" lon="6.60371">
        <ele>380.4</ele>
        <time>2023-09-03T06:21:40Z</time>
      </trkpt>
      <trkpt lat="48.13407" lon="6.60374">
        <ele>380.4</ele>
        <time>2023-09-03T06:21:41Z</time>
      </trkpt>
      <trkpt lat="48.13403" lon="6.60378">
        <ele>380.4</ele>
        <time>2023-09-03T06:21:42Z</time>
      </trkpt>
      <trkpt lat="48.134" lon="6.60382">
        <ele>380.4</ele>
        <time>2023-09-03T06:21:43Z</time>
      </trkpt>
      <trkpt lat="48.13396" lon="6.60387">
        <ele>380.4</ele>
        <time>2023-09-03T06:21:44Z</time>
      </trkpt>
      <trkpt lat="48.13393" lon="6.60391">
        <ele>380.4</ele>
        <time>2023-09-03T06:21:45Z</time>
      </trkpt>
      <trkpt lat="48.1339" lon="6.60395">
        <ele>380.4</ele>
        <time>2023-09-03T06:21:46Z</time>
      </trkpt>
      <trkpt lat="48.13387" lon="6.604">
        <ele>380.4</ele>
        <time>2023-09-03T06:21:47Z</time>
      </trkpt>
      <trkpt lat="48.13384" lon="6.60405">
        <ele>380.6</ele>
        <time>2023-09-03T06:21:48Z</time>
      </trkpt>
      <trkpt lat="48.13381" lon="6.6041">
        <ele>380.6</ele>
        <time>2023-09-03T06:21:49Z</time>
      </trkpt>
      <trkpt lat="48.13378" lon="6.60414">
        <ele>380.6</ele>
        <time>2023-09-03T06:21:50Z</time>
      </trkpt>
      <trkpt lat="48.13375" lon="6.60419">
        <ele>380.8</ele>
        <time>2023-09-03T06:21:51Z</time>
      </trkpt>
      <trkpt lat="48.13372" lon="6.60424">
        <ele>380.8</ele>
        <time>2023-09-03T06:21:52Z</time>
      </trkpt>
      <trkpt lat="48.13369" lon="6.60429">
        <ele>381</ele>
        <time>2023-09-03T06:21:53Z</time>
      </trkpt>
      <trkpt lat="48.13366" lon="6.60434">
        <ele>381</ele>
        <time>2023-09-03T06:21:54Z</time>
      </trkpt>
      <trkpt lat="48.13363" lon="6.60439">
        <ele>380.8</ele>
        <time>2023-09-03T06:21:55Z</time>
      </trkpt>
      <trkpt lat="48.1336" lon="6.60444">
        <ele>380.8</ele>
        <time>2023-09-03T06:21:56Z</time>
      </trkpt>
      <trkpt lat="48.13359" lon="6.60451">
        <ele>381</ele>
        <time>2023-09-03T06:21:57Z</time>
      </trkpt>
      <trkpt lat="48.13359" lon="6.60457">
        <ele>380.8</ele>
        <time>2023-09-03T06:21:58Z</time>
      </trkpt>
      <trkpt lat="48.13359" lon="6.60464">
        <ele>380.8</ele>
        <time>2023-09-03T06:21:59Z</time>
      </trkpt>
      <trkpt lat="48.13361" lon="6.6047">
        <ele>381</ele>
        <time>2023-09-03T06:22:00Z</time>
      </trkpt>
      <trkpt lat="48.13364" lon="6.60475">
        <ele>381.2</ele>
        <time>2023-09-03T06:22:01Z</time>
      </trkpt>
      <trkpt lat="48.13366" lon="6.6048">
        <ele>381.2</ele>
        <time>2023-09-03T06:22:02Z</time>
      </trkpt>
      <trkpt lat="48.13368" lon="6.60486">
        <ele>381.4</ele>
        <time>2023-09-03T06:22:03Z</time>
      </trkpt>
      <trkpt lat="48.13371" lon="6.60491">
        <ele>381.4</ele>
        <time>2023-09-03T06:22:04Z</time>
      </trkpt>
      <trkpt lat="48.13374" lon="6.60496">
        <ele>381.6</ele>
        <time>2023-09-03T06:22:05Z</time>
      </trkpt>
      <trkpt lat="48.13377" lon="6.60501">
        <ele>381.8</ele>
        <time>2023-09-03T06:22:06Z</time>
      </trkpt>
      <trkpt lat="48.1338" lon="6.60506">
        <ele>382</ele>
        <time>2023-09-03T06:22:07Z</time>
      </trkpt>
      <trkpt lat="48.13383" lon="6.6051">
        <ele>382.2</ele>
        <time>2023-09-03T06:22:08Z</time>
      </trkpt>
      <trkpt lat="48.13387" lon="6.60515">
        <ele>382.2</ele>
        <time>2023-09-03T06:22:09Z</time>
      </trkpt>
      <trkpt lat="48.1339" lon="6.60519">
        <ele>382.2</ele>
        <time>2023-09-03T06:22:10Z</time>
      </trkpt>
      <trkpt lat="48.13393" lon="6.60523">
        <ele>382.2</ele>
        <time>2023-09-03T06:22:11Z</time>
      </trkpt>
      <trkpt lat="48.13396" lon="6.60527">
        <ele>382.4</ele>
        <time>2023-09-03T06:22:12Z</time>
      </trkpt>
      <trkpt lat="48.13399" lon="6.60531">
        <ele>382.4</ele>
        <time>2023-09-03T06:22:13Z</time>
      </trkpt>
      <trkpt lat="48.13402" lon="6.60535">
        <ele>382.6</ele>
        <time>2023-09-03T06:22:14Z</time>
      </trkpt>
      <trkpt lat="48.13405" lon="6.6054">
        <ele>382.6</ele>
        <time>2023-09-03T06:22:15Z</time>
      </trkpt>
      <trkpt lat="48.13407" lon="6.60544">
        <ele>382.8</ele>
        <time>2023-09-03T06:22:16Z</time>
      </trkpt>
      <trkpt lat="48.13409" lon="6.60548">
        <ele>383</ele>
        <time>2023-09-03T06:22:17Z</time>
      </trkpt>
      <trkpt lat="48.13412" lon="6.60553">
        <ele>383.2</ele>
        <time>2023-09-03T06:22:18Z</time>
      </trkpt>
      <trkpt lat="48.13414" lon="6.60557">
        <ele>383.4</ele>
        <time>2023-09-03T06:22:19Z</time>
      </trkpt>
      <trkpt lat="48.13416" lon="6.60561">
        <ele>383.8</ele>
        <time>2023-09-03T06:22:20Z</time>
      </trkpt>
      <trkpt lat="48.13418" lon="6.60565">
        <ele>384</ele>
        <time>2023-09-03T06:22:21Z</time>
      </trkpt>
      <trkpt lat="48.13419" lon="6.60569">
        <ele>384.2</ele>
        <time>2023-09-03T06:22:22Z</time>
      </trkpt>
      <trkpt lat="48.13421" lon="6.60573">
        <ele>384.6</ele>
        <time>2023-09-03T06:22:23Z</time>
      </trkpt>
      <trkpt lat="48.13423" lon="6.60577">
        <ele>384.8</ele>
        <time>2023-09-03T06:22:24Z</time>
      </trkpt>
      <trkpt lat="48.13424" lon="6.60582">
        <ele>385.2</ele>
        <time>2023-09-03T06:22:25Z</time>
      </trkpt>
      <trkpt lat="48.13425" lon="6.60587">
        <ele>385.4</ele>
        <time>2023-09-03T06:22:26Z</time>
      </trkpt>
      <trkpt lat="48.13426" lon="6.60592">
        <ele>385.8</ele>
        <time>2023-09-03T06:22:27Z</time>
      </trkpt>
      <trkpt lat="48.13427" lon="6.60595">
        <ele>386</ele>
        <time>2023-09-03T06:22:28Z</time>
      </trkpt>
      <trkpt lat="48.13428" lon="6.606">
        <ele>386.2</ele>
        <time>2023-09-03T06:22:29Z</time>
      </trkpt>
      <trkpt lat="48.13429" lon="6.60606">
        <ele>386.4</ele>
        <time>2023-09-03T06:22:30Z</time>
      </trkpt>
      <trkpt lat="48.13429" lon="6.60611">
        <ele>386.4</ele>
        <time>2023-09-03T06:22:31Z</time>
      </trkpt>
      <trkpt lat="48.1343" lon="6.60616">
        <ele>386.6</ele>
        <time>2023-09-03T06:22:32Z</time>
      </trkpt>
      <trkpt lat="48.13432" lon="6.60621">
        <ele>386.8</ele>
        <time>2023-09-03T06:22:33Z</time>
      </trkpt>
      <trkpt lat="48.13433" lon="6.60626">
        <ele>387</ele>
        <time>2023-09-03T06:22:34Z</time>
      </trkpt>
      <trkpt lat="48.13434" lon="6.60632">
        <ele>387.2</ele>
        <time>2023-09-03T06:22:35Z</time>
      </trkpt>
      <trkpt lat="48.13435" lon="6.60637">
        <ele>387.2</ele>
        <time>2023-09-03T06:22:36Z</time>
      </trkpt>
      <trkpt lat="48.13436" lon="6.60642">
        <ele>387.4</ele>
        <time>2023-09-03T06:22:37Z</time>
      </trkpt>
      <trkpt lat="48.13438" lon="6.60646">
        <ele>387.6</ele>
        <time>2023-09-03T06:22:38Z</time>
      </trkpt>
      <trkpt lat="48.1344" lon="6.60651">
        <ele>387.6</ele>
        <time>2023-09-03T06:22:39Z</time>
      </trkpt>
      <trkpt lat="48.13442" lon="6.60655">
        <ele>387.8</ele>
        <time>2023-09-03T06:22:40Z</time>
      </trkpt>
      <trkpt lat="48.13443" lon="6.60659">
        <ele>388</ele>
        <time>2023-09-03T06:22:41Z</time>
      </trkpt>
      <trkpt lat="48.13445" lon="6.60664">
        <ele>388</ele>
        <time>2023-09-03T06:22:42Z</time>
      </trkpt>
      <trkpt lat="48.13446" lon="6.60669">
        <ele>388.2</ele>
        <time>2023-09-03T06:22:43Z</time>
      </trkpt>
      <trkpt lat="48.13448" lon="6.60673">
        <ele>388.4</ele>
        <time>2023-09-03T06:22:44Z</time>
      </trkpt>
      <trkpt lat="48.1345" lon="6.60677">
        <ele>388.4</ele>
        <time>2023-09-03T06:22:45Z</time>
      </trkpt>
      <trkpt lat="48.13452" lon="6.60682">
        <ele>388.6</ele>
        <time>2023-09-03T06:22:46Z</time>
      </trkpt>
      <trkpt lat="48.13455" lon="6.60686">
        <ele>388.8</ele>
        <time>2023-09-03T06:22:47Z</time>
      </trkpt>
      <trkpt lat="48.13457" lon="6.60691">
        <ele>388.8</ele>
        <time>2023-09-03T06:22:48Z</time>
      </trkpt>
      <trkpt lat="48.13461" lon="6.60696">
        <ele>388.8</ele>
        <time>2023-09-03T06:22:49Z</time>
      </trkpt>
      <trkpt lat="48.13465" lon="6.60701">
        <ele>389</ele>
        <time>2023-09-03T06:22:50Z</time>
      </trkpt>
      <trkpt lat="48.1347" lon="6.60707">
        <ele>389</ele>
        <time>2023-09-03T06:22:51Z</time>
      </trkpt>
      <trkpt lat="48.13474" lon="6.60712">
        <ele>389</ele>
        <time>2023-09-03T06:22:52Z</time>
      </trkpt>
      <trkpt lat="48.13479" lon="6.60718">
        <ele>389</ele>
        <time>2023-09-03T06:22:53Z</time>
      </trkpt>
      <trkpt lat="48.13484" lon="6.60725">
        <ele>388.8</ele>
        <time>2023-09-03T06:22:54Z</time>
      </trkpt>
      <trkpt lat="48.13489" lon="6.60731">
        <ele>388.6</ele>
        <time>2023-09-03T06:22:55Z</time>
      </trkpt>
      <trkpt lat="48.13495" lon="6.60735">
        <ele>388.6</ele>
        <time>2023-09-03T06:22:56Z</time>
      </trkpt>
      <trkpt lat="48.13503" lon="6.60738">
        <ele>388.2</ele>
        <time>2023-09-03T06:22:57Z</time>
      </trkpt>
      <trkpt lat="48.13511" lon="6.60738">
        <ele>388.2</ele>
        <time>2023-09-03T06:22:58Z</time>
      </trkpt>
      <trkpt lat="48.13518" lon="6.6074">
        <ele>387.8</ele>
        <time>2023-09-03T06:22:59Z</time>
      </trkpt>
      <trkpt lat="48.13525" lon="6.60743">
        <ele>387.6</ele>
        <time>2023-09-03T06:23:00Z</time>
      </trkpt>
      <trkpt lat="48.13531" lon="6.60749">
        <ele>387.2</ele>
        <time>2023-09-03T06:23:01Z</time>
      </trkpt>
      <trkpt lat="48.13534" lon="6.60757">
        <ele>387</ele>
        <time>2023-09-03T06:23:02Z</time>
      </trkpt>
      <trkpt lat="48.13537" lon="6.60764">
        <ele>386</ele>
        <time>2023-09-03T06:23:03Z</time>
      </trkpt>
      <trkpt lat="48.13537" lon="6.60771">
        <ele>385.8</ele>
        <time>2023-09-03T06:23:04Z</time>
      </trkpt>
      <trkpt lat="48.13536" lon="6.60777">
        <ele>385.2</ele>
        <time>2023-09-03T06:23:05Z</time>
      </trkpt>
      <trkpt lat="48.13533" lon="6.60782">
        <ele>385.2</ele>
        <time>2023-09-03T06:23:06Z</time>
      </trkpt>
      <trkpt lat="48.1353" lon="6.60786">
        <ele>385</ele>
        <time>2023-09-03T06:23:07Z</time>
      </trkpt>
      <trkpt lat="48.13528" lon="6.60789">
        <ele>384.8</ele>
        <time>2023-09-03T06:23:08Z</time>
      </trkpt>
      <trkpt lat="48.13526" lon="6.60793">
        <ele>384.8</ele>
        <time>2023-09-03T06:23:09Z</time>
      </trkpt>
      <trkpt lat="48.13524" lon="6.60796">
        <ele>385</ele>
        <time>2023-09-03T06:23:10Z</time>
      </trkpt>
      <trkpt lat="48.13522" lon="6.60799">
        <ele>385</ele>
        <time>2023-09-03T06:23:11Z</time>
      </trkpt>
      <trkpt lat="48.1352" lon="6.60803">
        <ele>385.4</ele>
        <time>2023-09-03T06:23:12Z</time>
      </trkpt>
      <trkpt lat="48.13518" lon="6.60806">
        <ele>385.6</ele>
        <time>2023-09-03T06:23:13Z</time>
      </trkpt>
      <trkpt lat="48.13517" lon="6.60809">
        <ele>386.2</ele>
        <time>2023-09-03T06:23:14Z</time>
      </trkpt>
      <trkpt lat="48.13516" lon="6.60812">
        <ele>386.4</ele>
        <time>2023-09-03T06:23:15Z</time>
      </trkpt>
      <trkpt lat="48.13515" lon="6.60815">
        <ele>387</ele>
        <time>2023-09-03T06:23:16Z</time>
      </trkpt>
      <trkpt lat="48.13513" lon="6.60817">
        <ele>387.2</ele>
        <time>2023-09-03T06:23:17Z</time>
      </trkpt>
      <trkpt lat="48.13512" lon="6.6082">
        <ele>387.8</ele>
        <time>2023-09-03T06:23:18Z</time>
      </trkpt>
      <trkpt lat="48.1351" lon="6.60823">
        <ele>388</ele>
        <time>2023-09-03T06:23:19Z</time>
      </trkpt>
      <trkpt lat="48.13508" lon="6.60826">
        <ele>388.2</ele>
        <time>2023-09-03T06:23:20Z</time>
      </trkpt>
      <trkpt lat="48.13506" lon="6.60829">
        <ele>388.4</ele>
        <time>2023-09-03T06:23:21Z</time>
      </trkpt>
      <trkpt lat="48.13505" lon="6.60832">
        <ele>388.8</ele>
        <time>2023-09-03T06:23:22Z</time>
      </trkpt>
      <trkpt lat="48.13504" lon="6.60836">
        <ele>389.2</ele>
        <time>2023-09-03T06:23:23Z</time>
      </trkpt>
      <trkpt lat="48.13502" lon="6.60838">
        <ele>389.4</ele>
        <time>2023-09-03T06:23:24Z</time>
      </trkpt>
      <trkpt lat="48.13501" lon="6.60841">
        <ele>389.8</ele>
        <time>2023-09-03T06:23:25Z</time>
      </trkpt>
      <trkpt lat="48.135" lon="6.60843">
        <ele>389.8</ele>
        <time>2023-09-03T06:23:26Z</time>
      </trkpt>
      <trkpt lat="48.13499" lon="6.60846">
        <ele>390</ele>
        <time>2023-09-03T06:23:27Z</time>
      </trkpt>
      <trkpt lat="48.13498" lon="6.60849">
        <ele>390.2</ele>
        <time>2023-09-03T06:23:28Z</time>
      </trkpt>
      <trkpt lat="48.13496" lon="6.60852">
        <ele>390.4</ele>
        <time>2023-09-03T06:23:29Z</time>
      </trkpt>
      <trkpt lat="48.13496" lon="6.60854">
        <ele>390.6</ele>
        <time>2023-09-03T06:23:30Z</time>
      </trkpt>
      <trkpt lat="48.13495" lon="6.60857">
        <ele>391.2</ele>
        <time>2023-09-03T06:23:31Z</time>
      </trkpt>
      <trkpt lat="48.13495" lon="6.60861">
        <ele>391.4</ele>
        <time>2023-09-03T06:23:32Z</time>
      </trkpt>
      <trkpt lat="48.13494" lon="6.60864">
        <ele>391.8</ele>
        <time>2023-09-03T06:23:33Z</time>
      </trkpt>
      <trkpt lat="48.13494" lon="6.60867">
        <ele>392</ele>
        <time>2023-09-03T06:23:34Z</time>
      </trkpt>
      <trkpt lat="48.13493" lon="6.6087">
        <ele>392.2</ele>
        <time>2023-09-03T06:23:35Z</time>
      </trkpt>
      <trkpt lat="48.13493" lon="6.60873">
        <ele>392.6</ele>
        <time>2023-09-03T06:23:36Z</time>
      </trkpt>
      <trkpt lat="48.13493" lon="6.60875">
        <ele>393.2</ele>
        <time>2023-09-03T06:23:37Z</time>
      </trkpt>
      <trkpt lat="48.13492" lon="6.60878">
        <ele>393.6</ele>
        <time>2023-09-03T06:23:38Z</time>
      </trkpt>
      <trkpt lat="48.13493" lon="6.60881">
        <ele>393.8</ele>
        <time>2023-09-03T06:23:39Z</time>
      </trkpt>
      <trkpt lat="48.13493" lon="6.60884">
        <ele>394.2</ele>
        <time>2023-09-03T06:23:40Z</time>
      </trkpt>
      <trkpt lat="48.13493" lon="6.60886">
        <ele>394.2</ele>
        <time>2023-09-03T06:23:41Z</time>
      </trkpt>
      <trkpt lat="48.13494" lon="6.60889">
        <ele>394.6</ele>
        <time>2023-09-03T06:23:42Z</time>
      </trkpt>
      <trkpt lat="48.13494" lon="6.60892">
        <ele>394.6</ele>
        <time>2023-09-03T06:23:43Z</time>
      </trkpt>
      <trkpt lat="48.13495" lon="6.60894">
        <ele>394.8</ele>
        <time>2023-09-03T06:23:44Z</time>
      </trkpt>
      <trkpt lat="48.13496" lon="6.60897">
        <ele>395</ele>
        <time>2023-09-03T06:23:45Z</time>
      </trkpt>
      <trkpt lat="48.13497" lon="6.609">
        <ele>395.6</ele>
        <time>2023-09-03T06:23:46Z</time>
      </trkpt>
      <trkpt lat="48.13498" lon="6.60903">
        <ele>395.8</ele>
        <time>2023-09-03T06:23:47Z</time>
      </trkpt>
      <trkpt lat="48.13499" lon="6.60906">
        <ele>396</ele>
        <time>2023-09-03T06:23:48Z</time>
      </trkpt>
      <trkpt lat="48.13501" lon="6.60908">
        <ele>396.2</ele>
        <time>2023-09-03T06:23:49Z</time>
      </trkpt>
      <trkpt lat="48.13502" lon="6.6091">
        <ele>396.4</ele>
        <time>2023-09-03T06:23:50Z</time>
      </trkpt>
      <trkpt lat="48.13504" lon="6.60912">
        <ele>396.4</ele>
        <time>2023-09-03T06:23:51Z</time>
      </trkpt>
      <trkpt lat="48.13506" lon="6.60914">
        <ele>396.6</ele>
        <time>2023-09-03T06:23:52Z</time>
      </trkpt>
      <trkpt lat="48.13508" lon="6.60917">
        <ele>396.8</ele>
        <time>2023-09-03T06:23:53Z</time>
      </trkpt>
      <trkpt lat="48.13509" lon="6.60919">
        <ele>396.8</ele>
        <time>2023-09-03T06:23:54Z</time>
      </trkpt>
      <trkpt lat="48.13511" lon="6.6092">
        <ele>397.2</ele>
        <time>2023-09-03T06:23:55Z</time>
      </trkpt>
      <trkpt lat="48.13512" lon="6.60923">
        <ele>397.2</ele>
        <time>2023-09-03T06:23:56Z</time>
      </trkpt>
      <trkpt lat="48.13514" lon="6.60925">
        <ele>397.6</ele>
        <time>2023-09-03T06:23:57Z</time>
      </trkpt>
      <trkpt lat="48.13515" lon="6.60927">
        <ele>397.6</ele>
        <time>2023-09-03T06:23:58Z</time>
      </trkpt>
      <trkpt lat="48.13517" lon="6.60928">
        <ele>397.8</ele>
        <time>2023-09-03T06:23:59Z</time>
      </trkpt>
      <trkpt lat="48.13519" lon="6.6093">
        <ele>398</ele>
        <time>2023-09-03T06:24:00Z</time>
      </trkpt>
      <trkpt lat="48.13521" lon="6.60932">
        <ele>398.2</ele>
        <time>2023-09-03T06:24:01Z</time>
      </trkpt>
      <trkpt lat="48.13523" lon="6.60934">
        <ele>398.4</ele>
        <time>2023-09-03T06:24:02Z</time>
      </trkpt>
      <trkpt lat="48.13525" lon="6.60935">
        <ele>398.8</ele>
        <time>2023-09-03T06:24:03Z</time>
      </trkpt>
      <trkpt lat="48.13527" lon="6.60937">
        <ele>398.8</ele>
        <time>2023-09-03T06:24:04Z</time>
      </trkpt>
      <trkpt lat="48.13529" lon="6.60939">
        <ele>399</ele>
        <time>2023-09-03T06:24:05Z</time>
      </trkpt>
      <trkpt lat="48.1353" lon="6.60941">
        <ele>399.2</ele>
        <time>2023-09-03T06:24:06Z</time>
      </trkpt>
      <trkpt lat="48.13532" lon="6.60942">
        <ele>399.4</ele>
        <time>2023-09-03T06:24:07Z</time>
      </trkpt>
      <trkpt lat="48.13534" lon="6.60944">
        <ele>399.6</ele>
        <time>2023-09-03T06:24:08Z</time>
      </trkpt>
      <trkpt lat="48.13536" lon="6.60946">
        <ele>400</ele>
        <time>2023-09-03T06:24:09Z</time>
      </trkpt>
      <trkpt lat="48.13538" lon="6.60948">
        <ele>400.4</ele>
        <time>2023-09-03T06:24:10Z</time>
      </trkpt>
      <trkpt lat="48.1354" lon="6.6095">
        <ele>400.6</ele>
        <time>2023-09-03T06:24:11Z</time>
      </trkpt>
      <trkpt lat="48.13541" lon="6.60951">
        <ele>400.8</ele>
        <time>2023-09-03T06:24:12Z</time>
      </trkpt>
      <trkpt lat="48.13543" lon="6.60953">
        <ele>401</ele>
        <time>2023-09-03T06:24:13Z</time>
      </trkpt>
      <trkpt lat="48.13545" lon="6.60955">
        <ele>401.2</ele>
        <time>2023-09-03T06:24:14Z</time>
      </trkpt>
      <trkpt lat="48.13546" lon="6.60958">
        <ele>401.2</ele>
        <time>2023-09-03T06:24:15Z</time>
      </trkpt>
      <trkpt lat="48.13548" lon="6.6096">
        <ele>401.6</ele>
        <time>2023-09-03T06:24:16Z</time>
      </trkpt>
      <trkpt lat="48.13549" lon="6.60962">
        <ele>401.8</ele>
        <time>2023-09-03T06:24:17Z</time>
      </trkpt>
      <trkpt lat="48.1355" lon="6.60965">
        <ele>402</ele>
        <time>2023-09-03T06:24:18Z</time>
      </trkpt>
      <trkpt lat="48.13552" lon="6.60967">
        <ele>402.2</ele>
        <time>2023-09-03T06:24:19Z</time>
      </trkpt>
      <trkpt lat="48.13553" lon="6.60968">
        <ele>402.4</ele>
        <time>2023-09-03T06:24:20Z</time>
      </trkpt>
      <trkpt lat="48.13555" lon="6.6097">
        <ele>402.6</ele>
        <time>2023-09-03T06:24:21Z</time>
      </trkpt>
      <trkpt lat="48.13556" lon="6.60973">
        <ele>402.8</ele>
        <time>2023-09-03T06:24:22Z</time>
      </trkpt>
      <trkpt lat="48.13558" lon="6.60975">
        <ele>403</ele>
        <time>2023-09-03T06:24:23Z</time>
      </trkpt>
      <trkpt lat="48.1356" lon="6.60977">
        <ele>403.4</ele>
        <time>2023-09-03T06:24:24Z</time>
      </trkpt>
      <trkpt lat="48.13562" lon="6.6098">
        <ele>403.6</ele>
        <time>2023-09-03T06:24:25Z</time>
      </trkpt>
      <trkpt lat="48.13563" lon="6.60982">
        <ele>403.6</ele>
        <time>2023-09-03T06:24:26Z</time>
      </trkpt>
      <trkpt lat="48.13565" lon="6.60984">
        <ele>403.8</ele>
        <time>2023-09-03T06:24:27Z</time>
      </trkpt>
      <trkpt lat="48.13567" lon="6.60986">
        <ele>404.2</ele>
        <time>2023-09-03T06:24:28Z</time>
      </trkpt>
      <trkpt lat="48.13568" lon="6.60988">
        <ele>404.4</ele>
        <time>2023-09-03T06:24:29Z</time>
      </trkpt>
      <trkpt lat="48.1357" lon="6.6099">
        <ele>404.4</ele>
        <time>2023-09-03T06:24:30Z</time>
      </trkpt>
      <trkpt lat="48.13572" lon="6.60992">
        <ele>405</ele>
        <time>2023-09-03T06:24:31Z</time>
      </trkpt>
      <trkpt lat="48.13574" lon="6.60994">
        <ele>405</ele>
        <time>2023-09-03T06:24:32Z</time>
      </trkpt>
      <trkpt lat="48.13575" lon="6.60997">
        <ele>405.2</ele>
        <time>2023-09-03T06:24:33Z</time>
      </trkpt>
      <trkpt lat="48.13577" lon="6.60999">
        <ele>405.2</ele>
        <time>2023-09-03T06:24:34Z</time>
      </trkpt>
      <trkpt lat="48.13578" lon="6.61001">
        <ele>405.6</ele>
        <time>2023-09-03T06:24:35Z</time>
      </trkpt>
      <trkpt lat="48.1358" lon="6.61003">
        <ele>405.6</ele>
        <time>2023-09-03T06:24:36Z</time>
      </trkpt>
      <trkpt lat="48.13581" lon="6.61005">
        <ele>405.8</ele>
        <time>2023-09-03T06:24:37Z</time>
      </trkpt>
      <trkpt lat="48.13583" lon="6.61007">
        <ele>405.8</ele>
        <time>2023-09-03T06:24:38Z</time>
      </trkpt>
      <trkpt lat="48.13584" lon="6.61009">
        <ele>405.8</ele>
        <time>2023-09-03T06:24:39Z</time>
      </trkpt>
      <trkpt lat="48.13586" lon="6.61011">
        <ele>405.8</ele>
        <time>2023-09-03T06:24:40Z</time>
      </trkpt>
      <trkpt lat="48.13587" lon="6.61013">
        <ele>406.2</ele>
        <time>2023-09-03T06:24:41Z</time>
      </trkpt>
      <trkpt lat="48.13588" lon="6.61015">
        <ele>406.4</ele>
        <time>2023-09-03T06:24:42Z</time>
      </trkpt>
      <trkpt lat="48.1359" lon="6.61017">
        <ele>406.4</ele>
        <time>2023-09-03T06:24:43Z</time>
      </trkpt>
      <trkpt lat="48.13591" lon="6.61019">
        <ele>406.8</ele>
        <time>2023-09-03T06:24:44Z</time>
      </trkpt>
      <trkpt lat="48.13592" lon="6.61021">
        <ele>407</ele>
        <time>2023-09-03T06:24:45Z</time>
      </trkpt>
      <trkpt lat="48.13594" lon="6.61023">
        <ele>407</ele>
        <time>2023-09-03T06:24:46Z</time>
      </trkpt>
      <trkpt lat="48.13595" lon="6.61025">
        <ele>407</ele>
        <time>2023-09-03T06:24:47Z</time>
      </trkpt>
      <trkpt lat="48.13596" lon="6.61027">
        <ele>407.6</ele>
        <time>2023-09-03T06:24:48Z</time>
      </trkpt>
      <trkpt lat="48.13598" lon="6.61029">
        <ele>407.6</ele>
        <time>2023-09-03T06:24:49Z</time>
      </trkpt>
      <trkpt lat="48.13599" lon="6.61031">
        <ele>407.6</ele>
        <time>2023-09-03T06:24:50Z</time>
      </trkpt>
      <trkpt lat="48.136" lon="6.61033">
        <ele>408</ele>
        <time>2023-09-03T06:24:51Z</time>
      </trkpt>
      <trkpt lat="48.13602" lon="6.61036">
        <ele>408.2</ele>
        <time>2023-09-03T06:24:52Z</time>
      </trkpt>
      <trkpt lat="48.13604" lon="6.61038">
        <ele>408.4</ele>
        <time>2023-09-03T06:24:53Z</time>
      </trkpt>
      <trkpt lat="48.13606" lon="6.6104">
        <ele>408.6</ele>
        <time>2023-09-03T06:24:54Z</time>
      </trkpt>
      <trkpt lat="48.13608" lon="6.61043">
        <ele>408.6</ele>
        <time>2023-09-03T06:24:55Z</time>
      </trkpt>
      <trkpt lat="48.1361" lon="6.61045">
        <ele>408.8</ele>
        <time>2023-09-03T06:24:56Z</time>
      </trkpt>
      <trkpt lat="48.13612" lon="6.61047">
        <ele>409</ele>
        <time>2023-09-03T06:24:57Z</time>
      </trkpt>
      <trkpt lat="48.13613" lon="6.6105">
        <ele>409</ele>
        <time>2023-09-03T06:24:58Z</time>
      </trkpt>
      <trkpt lat="48.13615" lon="6.61052">
        <ele>409</ele>
        <time>2023-09-03T06:24:59Z</time>
      </trkpt>
      <trkpt lat="48.13617" lon="6.61054">
        <ele>409</ele>
        <time>2023-09-03T06:25:00Z</time>
      </trkpt>
      <trkpt lat="48.13619" lon="6.61057">
        <ele>409.2</ele>
        <time>2023-09-03T06:25:01Z</time>
      </trkpt>
      <trkpt lat="48.13621" lon="6.61059">
        <ele>409.2</ele>
        <time>2023-09-03T06:25:02Z</time>
      </trkpt>
      <trkpt lat="48.13623" lon="6.61062">
        <ele>409.4</ele>
        <time>2023-09-03T06:25:03Z</time>
      </trkpt>
      <trkpt lat="48.13624" lon="6.61064">
        <ele>409.4</ele>
        <time>2023-09-03T06:25:04Z</time>
      </trkpt>
      <trkpt lat="48.13626" lon="6.61067">
        <ele>409.6</ele>
        <time>2023-09-03T06:25:05Z</time>
      </trkpt>
      <trkpt lat="48.13627" lon="6.6107">
        <ele>409.6</ele>
        <time>2023-09-03T06:25:06Z</time>
      </trkpt>
      <trkpt lat="48.13629" lon="6.61073">
        <ele>410</ele>
        <time>2023-09-03T06:25:07Z</time>
      </trkpt>
      <trkpt lat="48.1363" lon="6.61076">
        <ele>410</ele>
        <time>2023-09-03T06:25:08Z</time>
      </trkpt>
      <trkpt lat="48.13631" lon="6.61079">
        <ele>410.2</ele>
        <time>2023-09-03T06:25:09Z</time>
      </trkpt>
      <trkpt lat="48.13632" lon="6.61083">
        <ele>410.2</ele>
        <time>2023-09-03T06:25:10Z</time>
      </trkpt>
      <trkpt lat="48.13632" lon="6.61087">
        <ele>410.2</ele>
        <time>2023-09-03T06:25:11Z</time>
      </trkpt>
      <trkpt lat="48.13633" lon="6.6109">
        <ele>410.4</ele>
        <time>2023-09-03T06:25:12Z</time>
      </trkpt>
      <trkpt lat="48.13633" lon="6.61094">
        <ele>410.4</ele>
        <time>2023-09-03T06:25:13Z</time>
      </trkpt>
      <trkpt lat="48.13633" lon="6.61098">
        <ele>410.4</ele>
        <time>2023-09-03T06:25:14Z</time>
      </trkpt>
      <trkpt lat="48.13633" lon="6.61102">
        <ele>410.4</ele>
        <time>2023-09-03T06:25:15Z</time>
      </trkpt>
      <trkpt lat="48.13633" lon="6.61105">
        <ele>410.6</ele>
        <time>2023-09-03T06:25:16Z</time>
      </trkpt>
      <trkpt lat="48.13633" lon="6.6111">
        <ele>410.6</ele>
        <time>2023-09-03T06:25:17Z</time>
      </trkpt>
      <trkpt lat="48.13633" lon="6.61113">
        <ele>410.8</ele>
        <time>2023-09-03T06:25:18Z</time>
      </trkpt>
      <trkpt lat="48.13634" lon="6.61118">
        <ele>410.8</ele>
        <time>2023-09-03T06:25:19Z</time>
      </trkpt>
      <trkpt lat="48.13634" lon="6.61122">
        <ele>411</ele>
        <time>2023-09-03T06:25:20Z</time>
      </trkpt>
      <trkpt lat="48.13634" lon="6.61125">
        <ele>411</ele>
        <time>2023-09-03T06:25:21Z</time>
      </trkpt>
      <trkpt lat="48.13634" lon="6.61129">
        <ele>411</ele>
        <time>2023-09-03T06:25:22Z</time>
      </trkpt>
      <trkpt lat="48.13634" lon="6.61133">
        <ele>411</ele>
        <time>2023-09-03T06:25:23Z</time>
      </trkpt>
      <trkpt lat="48.13634" lon="6.61137">
        <ele>411</ele>
        <time>2023-09-03T06:25:24Z</time>
      </trkpt>
      <trkpt lat="48.13634" lon="6.61141">
        <ele>411.4</ele>
        <time>2023-09-03T06:25:25Z</time>
      </trkpt>
      <trkpt lat="48.13634" lon="6.61145">
        <ele>411.6</ele>
        <time>2023-09-03T06:25:26Z</time>
      </trkpt>
      <trkpt lat="48.13634" lon="6.61149">
        <ele>411.6</ele>
        <time>2023-09-03T06:25:27Z</time>
      </trkpt>
      <trkpt lat="48.13635" lon="6.61153">
        <ele>412</ele>
        <time>2023-09-03T06:25:28Z</time>
      </trkpt>
      <trkpt lat="48.13635" lon="6.61157">
        <ele>412.2</ele>
        <time>2023-09-03T06:25:29Z</time>
      </trkpt>
      <trkpt lat="48.13635" lon="6.61161">
        <ele>412.2</ele>
        <time>2023-09-03T06:25:30Z</time>
      </trkpt>
      <trkpt lat="48.13635" lon="6.61165">
        <ele>412.4</ele>
        <time>2023-09-03T06:25:31Z</time>
      </trkpt>
      <trkpt lat="48.13635" lon="6.61169">
        <ele>412.4</ele>
        <time>2023-09-03T06:25:32Z</time>
      </trkpt>
      <trkpt lat="48.13635" lon="6.61173">
        <ele>412.6</ele>
        <time>2023-09-03T06:25:33Z</time>
      </trkpt>
      <trkpt lat="48.13635" lon="6.61177">
        <ele>412.6</ele>
        <time>2023-09-03T06:25:34Z</time>
      </trkpt>
      <trkpt lat="48.13634" lon="6.61181">
        <ele>412.8</ele>
        <time>2023-09-03T06:25:35Z</time>
      </trkpt>
      <trkpt lat="48.13634" lon="6.61185">
        <ele>413</ele>
        <time>2023-09-03T06:25:36Z</time>
      </trkpt>
      <trkpt lat="48.13634" lon="6.6119">
        <ele>413.2</ele>
        <time>2023-09-03T06:25:37Z</time>
      </trkpt>
      <trkpt lat="48.13634" lon="6.61193">
        <ele>413.2</ele>
        <time>2023-09-03T06:25:38Z</time>
      </trkpt>
      <trkpt lat="48.13634" lon="6.61197">
        <ele>413.4</ele>
        <time>2023-09-03T06:25:39Z</time>
      </trkpt>
      <trkpt lat="48.13633" lon="6.61201">
        <ele>413.4</ele>
        <time>2023-09-03T06:25:40Z</time>
      </trkpt>
      <trkpt lat="48.13633" lon="6.61205">
        <ele>413.6</ele>
        <time>2023-09-03T06:25:41Z</time>
      </trkpt>
      <trkpt lat="48.13633" lon="6.61209">
        <ele>413.8</ele>
        <time>2023-09-03T06:25:42Z</time>
      </trkpt>
      <trkpt lat="48.13632" lon="6.61213">
        <ele>414.2</ele>
        <time>2023-09-03T06:25:43Z</time>
      </trkpt>
      <trkpt lat="48.13632" lon="6.61217">
        <ele>414.6</ele>
        <time>2023-09-03T06:25:44Z</time>
      </trkpt>
      <trkpt lat="48.13631" lon="6.61221">
        <ele>414.6</ele>
        <time>2023-09-03T06:25:45Z</time>
      </trkpt>
      <trkpt lat="48.13631" lon="6.61225">
        <ele>414.8</ele>
        <time>2023-09-03T06:25:46Z</time>
      </trkpt>
      <trkpt lat="48.1363" lon="6.61229">
        <ele>415</ele>
        <time>2023-09-03T06:25:47Z</time>
      </trkpt>
      <trkpt lat="48.1363" lon="6.61233">
        <ele>415.2</ele>
        <time>2023-09-03T06:25:48Z</time>
      </trkpt>
      <trkpt lat="48.1363" lon="6.61236">
        <ele>415.2</ele>
        <time>2023-09-03T06:25:49Z</time>
      </trkpt>
      <trkpt lat="48.13629" lon="6.6124">
        <ele>415.4</ele>
        <time>2023-09-03T06:25:50Z</time>
      </trkpt>
      <trkpt lat="48.13629" lon="6.61244">
        <ele>415.4</ele>
        <time>2023-09-03T06:25:51Z</time>
      </trkpt>
      <trkpt lat="48.13629" lon="6.61247">
        <ele>415.6</ele>
        <time>2023-09-03T06:25:52Z</time>
      </trkpt>
      <trkpt lat="48.13628" lon="6.61251">
        <ele>415.8</ele>
        <time>2023-09-03T06:25:53Z</time>
      </trkpt>
      <trkpt lat="48.13628" lon="6.61255">
        <ele>416</ele>
        <time>2023-09-03T06:25:54Z</time>
      </trkpt>
      <trkpt lat="48.13628" lon="6.61258">
        <ele>416.2</ele>
        <time>2023-09-03T06:25:55Z</time>
      </trkpt>
      <trkpt lat="48.13628" lon="6.61262">
        <ele>416.6</ele>
        <time>2023-09-03T06:25:56Z</time>
      </trkpt>
      <trkpt lat="48.13628" lon="6.61266">
        <ele>416.8</ele>
        <time>2023-09-03T06:25:57Z</time>
      </trkpt>
      <trkpt lat="48.13628" lon="6.61269">
        <ele>417</ele>
        <time>2023-09-03T06:25:58Z</time>
      </trkpt>
      <trkpt lat="48.13629" lon="6.61273">
        <ele>417.2</ele>
        <time>2023-09-03T06:25:59Z</time>
      </trkpt>
      <trkpt lat="48.13629" lon="6.61277">
        <ele>417.4</ele>
        <time>2023-09-03T06:26:00Z</time>
      </trkpt>
      <trkpt lat="48.13629" lon="6.6128">
        <ele>417.6</ele>
        <time>2023-09-03T06:26:01Z</time>
      </trkpt>
      <trkpt lat="48.13629" lon="6.61284">
        <ele>417.6</ele>
        <time>2023-09-03T06:26:02Z</time>
      </trkpt>
      <trkpt lat="48.1363" lon="6.61288">
        <ele>417.8</ele>
        <time>2023-09-03T06:26:03Z</time>
      </trkpt>
      <trkpt lat="48.1363" lon="6.61292">
        <ele>417.8</ele>
        <time>2023-09-03T06:26:04Z</time>
      </trkpt>
      <trkpt lat="48.1363" lon="6.61295">
        <ele>418.2</ele>
        <time>2023-09-03T06:26:05Z</time>
      </trkpt>
      <trkpt lat="48.13631" lon="6.61299">
        <ele>418.4</ele>
        <time>2023-09-03T06:26:06Z</time>
      </trkpt>
      <trkpt lat="48.13633" lon="6.61302">
        <ele>418.6</ele>
        <time>2023-09-03T06:26:07Z</time>
      </trkpt>
      <trkpt lat="48.13636" lon="6.61304">
        <ele>418.8</ele>
        <time>2023-09-03T06:26:08Z</time>
      </trkpt>
      <trkpt lat="48.13639" lon="6.61306">
        <ele>419</ele>
        <time>2023-09-03T06:26:09Z</time>
      </trkpt>
      <trkpt lat="48.13642" lon="6.61308">
        <ele>419.2</ele>
        <time>2023-09-03T06:26:10Z</time>
      </trkpt>
      <trkpt lat="48.13645" lon="6.6131">
        <ele>419.4</ele>
        <time>2023-09-03T06:26:11Z</time>
      </trkpt>
      <trkpt lat="48.13648" lon="6.61312">
        <ele>419.4</ele>
        <time>2023-09-03T06:26:12Z</time>
      </trkpt>
      <trkpt lat="48.13651" lon="6.61315">
        <ele>419.6</ele>
        <time>2023-09-03T06:26:13Z</time>
      </trkpt>
      <trkpt lat="48.13654" lon="6.61317">
        <ele>419.8</ele>
        <time>2023-09-03T06:26:14Z</time>
      </trkpt>
      <trkpt lat="48.13657" lon="6.61319">
        <ele>419.8</ele>
        <time>2023-09-03T06:26:15Z</time>
      </trkpt>
      <trkpt lat="48.13661" lon="6.6132">
        <ele>420</ele>
        <time>2023-09-03T06:26:16Z</time>
      </trkpt>
      <trkpt lat="48.13664" lon="6.61321">
        <ele>420</ele>
        <time>2023-09-03T06:26:17Z</time>
      </trkpt>
      <trkpt lat="48.13668" lon="6.61322">
        <ele>420.2</ele>
        <time>2023-09-03T06:26:18Z</time>
      </trkpt>
      <trkpt lat="48.13672" lon="6.61323">
        <ele>420.2</ele>
        <time>2023-09-03T06:26:19Z</time>
      </trkpt>
      <trkpt lat="48.13676" lon="6.61323">
        <ele>420.2</ele>
        <time>2023-09-03T06:26:20Z</time>
      </trkpt>
      <trkpt lat="48.1368" lon="6.61324">
        <ele>420.2</ele>
        <time>2023-09-03T06:26:21Z</time>
      </trkpt>
      <trkpt lat="48.13684" lon="6.61324">
        <ele>420.2</ele>
        <time>2023-09-03T06:26:22Z</time>
      </trkpt>
      <trkpt lat="48.13688" lon="6.61324">
        <ele>420.2</ele>
        <time>2023-09-03T06:26:23Z</time>
      </trkpt>
      <trkpt lat="48.13692" lon="6.61324">
        <ele>420.2</ele>
        <time>2023-09-03T06:26:24Z</time>
      </trkpt>
      <trkpt lat="48.13697" lon="6.61324">
        <ele>420.2</ele>
        <time>2023-09-03T06:26:25Z</time>
      </trkpt>
      <trkpt lat="48.13701" lon="6.61325">
        <ele>420.2</ele>
        <time>2023-09-03T06:26:26Z</time>
      </trkpt>
      <trkpt lat="48.13706" lon="6.61325">
        <ele>420.2</ele>
        <time>2023-09-03T06:26:27Z</time>
      </trkpt>
      <trkpt lat="48.13711" lon="6.61325">
        <ele>420.2</ele>
        <time>2023-09-03T06:26:28Z</time>
      </trkpt>
      <trkpt lat="48.13715" lon="6.61325">
        <ele>420.2</ele>
        <time>2023-09-03T06:26:29Z</time>
      </trkpt>
      <trkpt lat="48.1372" lon="6.61324">
        <ele>420.2</ele>
        <time>2023-09-03T06:26:30Z</time>
      </trkpt>
      <trkpt lat="48.13725" lon="6.61324">
        <ele>420.2</ele>
        <time>2023-09-03T06:26:31Z</time>
      </trkpt>
      <trkpt lat="48.1373" lon="6.61323">
        <ele>420.2</ele>
        <time>2023-09-03T06:26:32Z</time>
      </trkpt>
      <trkpt lat="48.13735" lon="6.61322">
        <ele>420.2</ele>
        <time>2023-09-03T06:26:33Z</time>
      </trkpt>
      <trkpt lat="48.1374" lon="6.61321">
        <ele>420.2</ele>
        <time>2023-09-03T06:26:34Z</time>
      </trkpt>
      <trkpt lat="48.13745" lon="6.61321">
        <ele>420.2</ele>
        <time>2023-09-03T06:26:35Z</time>
      </trkpt>
      <trkpt lat="48.13751" lon="6.6132">
        <ele>420.2</ele>
        <time>2023-09-03T06:26:36Z</time>
      </trkpt>
      <trkpt lat="48.13756" lon="6.61319">
        <ele>420</ele>
        <time>2023-09-03T06:26:37Z</time>
      </trkpt>
      <trkpt lat="48.13761" lon="6.61318">
        <ele>420</ele>
        <time>2023-09-03T06:26:38Z</time>
      </trkpt>
      <trkpt lat="48.13766" lon="6.61317">
        <ele>419.8</ele>
        <time>2023-09-03T06:26:39Z</time>
      </trkpt>
      <trkpt lat="48.13772" lon="6.61316">
        <ele>419.6</ele>
        <time>2023-09-03T06:26:40Z</time>
      </trkpt>
      <trkpt lat="48.13777" lon="6.61315">
        <ele>419.4</ele>
        <time>2023-09-03T06:26:41Z</time>
      </trkpt>
      <trkpt lat="48.13784" lon="6.61315">
        <ele>419.4</ele>
        <time>2023-09-03T06:26:42Z</time>
      </trkpt>
      <trkpt lat="48.13791" lon="6.61315">
        <ele>419.4</ele>
        <time>2023-09-03T06:26:43Z</time>
      </trkpt>
      <trkpt lat="48.13798" lon="6.61317">
        <ele>419.2</ele>
        <time>2023-09-03T06:26:44Z</time>
      </trkpt>
      <trkpt lat="48.13806" lon="6.6132">
        <ele>418.8</ele>
        <time>2023-09-03T06:26:45Z</time>
      </trkpt>
      <trkpt lat="48.13814" lon="6.61323">
        <ele>418.6</ele>
        <time>2023-09-03T06:26:46Z</time>
      </trkpt>
      <trkpt lat="48.13823" lon="6.61325">
        <ele>418.4</ele>
        <time>2023-09-03T06:26:47Z</time>
      </trkpt>
      <trkpt lat="48.13832" lon="6.61326">
        <ele>418</ele>
        <time>2023-09-03T06:26:48Z</time>
      </trkpt>
      <trkpt lat="48.13842" lon="6.61326">
        <ele>417.8</ele>
        <time>2023-09-03T06:26:49Z</time>
      </trkpt>
      <trkpt lat="48.13851" lon="6.61327">
        <ele>417.2</ele>
        <time>2023-09-03T06:26:50Z</time>
      </trkpt>
      <trkpt lat="48.13861" lon="6.61329">
        <ele>416.8</ele>
        <time>2023-09-03T06:26:51Z</time>
      </trkpt>
      <trkpt lat="48.1387" lon="6.61332">
        <ele>416</ele>
        <time>2023-09-03T06:26:52Z</time>
      </trkpt>
      <trkpt lat="48.13879" lon="6.61335">
        <ele>415.6</ele>
        <time>2023-09-03T06:26:53Z</time>
      </trkpt>
      <trkpt lat="48.13889" lon="6.61338">
        <ele>414.6</ele>
        <time>2023-09-03T06:26:54Z</time>
      </trkpt>
      <trkpt lat="48.13898" lon="6.6134">
        <ele>414.2</ele>
        <time>2023-09-03T06:26:55Z</time>
      </trkpt>
      <trkpt lat="48.13907" lon="6.6134">
        <ele>413.4</ele>
        <time>2023-09-03T06:26:56Z</time>
      </trkpt>
      <trkpt lat="48.13916" lon="6.61339">
        <ele>413</ele>
        <time>2023-09-03T06:26:57Z</time>
      </trkpt>
      <trkpt lat="48.13925" lon="6.61335">
        <ele>412.4</ele>
        <time>2023-09-03T06:26:58Z</time>
      </trkpt>
      <trkpt lat="48.13933" lon="6.61329">
        <ele>411.6</ele>
        <time>2023-09-03T06:26:59Z</time>
      </trkpt>
      <trkpt lat="48.1394" lon="6.61321">
        <ele>409.8</ele>
        <time>2023-09-03T06:27:00Z</time>
      </trkpt>
      <trkpt lat="48.13947" lon="6.6131">
        <ele>409.4</ele>
        <time>2023-09-03T06:27:01Z</time>
      </trkpt>
      <trkpt lat="48.13953" lon="6.61297">
        <ele>407.4</ele>
        <time>2023-09-03T06:27:02Z</time>
      </trkpt>
      <trkpt lat="48.13958" lon="6.61284">
        <ele>406</ele>
        <time>2023-09-03T06:27:03Z</time>
      </trkpt>
      <trkpt lat="48.13964" lon="6.61272">
        <ele>405.4</ele>
        <time>2023-09-03T06:27:04Z</time>
      </trkpt>
      <trkpt lat="48.1397" lon="6.61262">
        <ele>404.2</ele>
        <time>2023-09-03T06:27:05Z</time>
      </trkpt>
      <trkpt lat="48.13978" lon="6.61253">
        <ele>403.6</ele>
        <time>2023-09-03T06:27:06Z</time>
      </trkpt>
      <trkpt lat="48.13989" lon="6.61246">
        <ele>402.2</ele>
        <time>2023-09-03T06:27:07Z</time>
      </trkpt>
      <trkpt lat="48.14" lon="6.61248">
        <ele>401.4</ele>
        <time>2023-09-03T06:27:08Z</time>
      </trkpt>
      <trkpt lat="48.14011" lon="6.6125">
        <ele>399.4</ele>
        <time>2023-09-03T06:27:09Z</time>
      </trkpt>
      <trkpt lat="48.14023" lon="6.61252">
        <ele>398.2</ele>
        <time>2023-09-03T06:27:10Z</time>
      </trkpt>
      <trkpt lat="48.14033" lon="6.61253">
        <ele>396.2</ele>
        <time>2023-09-03T06:27:11Z</time>
      </trkpt>
      <trkpt lat="48.14042" lon="6.61254">
        <ele>395.4</ele>
        <time>2023-09-03T06:27:12Z</time>
      </trkpt>
      <trkpt lat="48.14052" lon="6.61255">
        <ele>394.4</ele>
        <time>2023-09-03T06:27:13Z</time>
      </trkpt>
      <trkpt lat="48.14063" lon="6.61256">
        <ele>394</ele>
        <time>2023-09-03T06:27:14Z</time>
      </trkpt>
      <trkpt lat="48.14073" lon="6.61257">
        <ele>393.2</ele>
        <time>2023-09-03T06:27:15Z</time>
      </trkpt>
      <trkpt lat="48.14082" lon="6.61258">
        <ele>393</ele>
        <time>2023-09-03T06:27:16Z</time>
      </trkpt>
      <trkpt lat="48.14092" lon="6.61259">
        <ele>392.2</ele>
        <time>2023-09-03T06:27:17Z</time>
      </trkpt>
      <trkpt lat="48.141" lon="6.61259">
        <ele>392</ele>
        <time>2023-09-03T06:27:18Z</time>
      </trkpt>
      <trkpt lat="48.14108" lon="6.61259">
        <ele>391.8</ele>
        <time>2023-09-03T06:27:19Z</time>
      </trkpt>
      <trkpt lat="48.14116" lon="6.61258">
        <ele>391.6</ele>
        <time>2023-09-03T06:27:20Z</time>
      </trkpt>
      <trkpt lat="48.14124" lon="6.61257">
        <ele>391.4</ele>
        <time>2023-09-03T06:27:21Z</time>
      </trkpt>
      <trkpt lat="48.14133" lon="6.61254">
        <ele>391</ele>
        <time>2023-09-03T06:27:22Z</time>
      </trkpt>
      <trkpt lat="48.14141" lon="6.61251">
        <ele>391</ele>
        <time>2023-09-03T06:27:23Z</time>
      </trkpt>
      <trkpt lat="48.14148" lon="6.61247">
        <ele>390.6</ele>
        <time>2023-09-03T06:27:24Z</time>
      </trkpt>
      <trkpt lat="48.14156" lon="6.61243">
        <ele>390.4</ele>
        <time>2023-09-03T06:27:25Z</time>
      </trkpt>
      <trkpt lat="48.14164" lon="6.61239">
        <ele>390</ele>
        <time>2023-09-03T06:27:26Z</time>
      </trkpt>
      <trkpt lat="48.14172" lon="6.61235">
        <ele>390</ele>
        <time>2023-09-03T06:27:27Z</time>
      </trkpt>
      <trkpt lat="48.1418" lon="6.61233">
        <ele>389.6</ele>
        <time>2023-09-03T06:27:28Z</time>
      </trkpt>
      <trkpt lat="48.14188" lon="6.61231">
        <ele>389.4</ele>
        <time>2023-09-03T06:27:29Z</time>
      </trkpt>
      <trkpt lat="48.14196" lon="6.61232">
        <ele>389.2</ele>
        <time>2023-09-03T06:27:30Z</time>
      </trkpt>
      <trkpt lat="48.14204" lon="6.61234">
        <ele>389.2</ele>
        <time>2023-09-03T06:27:31Z</time>
      </trkpt>
      <trkpt lat="48.14212" lon="6.61238">
        <ele>388.8</ele>
        <time>2023-09-03T06:27:32Z</time>
      </trkpt>
      <trkpt lat="48.14219" lon="6.61245">
        <ele>388.8</ele>
        <time>2023-09-03T06:27:33Z</time>
      </trkpt>
      <trkpt lat="48.14225" lon="6.61253">
        <ele>388.8</ele>
        <time>2023-09-03T06:27:34Z</time>
      </trkpt>
      <trkpt lat="48.14231" lon="6.61262">
        <ele>388.4</ele>
        <time>2023-09-03T06:27:35Z</time>
      </trkpt>
      <trkpt lat="48.14237" lon="6.61272">
        <ele>388.2</ele>
        <time>2023-09-03T06:27:36Z</time>
      </trkpt>
      <trkpt lat="48.14242" lon="6.61281">
        <ele>388</ele>
        <time>2023-09-03T06:27:37Z</time>
      </trkpt>
      <trkpt lat="48.14246" lon="6.61291">
        <ele>388</ele>
        <time>2023-09-03T06:27:38Z</time>
      </trkpt>
      <trkpt lat="48.1425" lon="6.613">
        <ele>387.8</ele>
        <time>2023-09-03T06:27:39Z</time>
      </trkpt>
      <trkpt lat="48.14253" lon="6.6131">
        <ele>387.6</ele>
        <time>2023-09-03T06:27:40Z</time>
      </trkpt>
      <trkpt lat="48.14256" lon="6.6132">
        <ele>387.4</ele>
        <time>2023-09-03T06:27:41Z</time>
      </trkpt>
      <trkpt lat="48.14259" lon="6.6133">
        <ele>387.4</ele>
        <time>2023-09-03T06:27:42Z</time>
      </trkpt>
      <trkpt lat="48.14261" lon="6.61341">
        <ele>387.2</ele>
        <time>2023-09-03T06:27:43Z</time>
      </trkpt>
      <trkpt lat="48.14263" lon="6.61351">
        <ele>387.2</ele>
        <time>2023-09-03T06:27:44Z</time>
      </trkpt>
      <trkpt lat="48.14264" lon="6.61361">
        <ele>387.2</ele>
        <time>2023-09-03T06:27:45Z</time>
      </trkpt>
      <trkpt lat="48.14265" lon="6.6137">
        <ele>387.2</ele>
        <time>2023-09-03T06:27:46Z</time>
      </trkpt>
      <trkpt lat="48.14265" lon="6.61379">
        <ele>387.2</ele>
        <time>2023-09-03T06:27:47Z</time>
      </trkpt>
      <trkpt lat="48.14264" lon="6.61386">
        <ele>387.2</ele>
        <time>2023-09-03T06:27:48Z</time>
      </trkpt>
      <trkpt lat="48.14263" lon="6.61393">
        <ele>387.2</ele>
        <time>2023-09-03T06:27:49Z</time>
      </trkpt>
      <trkpt lat="48.14262" lon="6.61398">
        <ele>387.2</ele>
        <time>2023-09-03T06:27:50Z</time>
      </trkpt>
      <trkpt lat="48.14261" lon="6.61402">
        <ele>387.2</ele>
        <time>2023-09-03T06:27:51Z</time>
      </trkpt>
      <trkpt lat="48.14262" lon="6.61407">
        <ele>387.2</ele>
        <time>2023-09-03T06:27:52Z</time>
      </trkpt>
      <trkpt lat="48.14264" lon="6.61412">
        <ele>387.2</ele>
        <time>2023-09-03T06:27:53Z</time>
      </trkpt>
      <trkpt lat="48.14267" lon="6.61418">
        <ele>387.2</ele>
        <time>2023-09-03T06:27:54Z</time>
      </trkpt>
      <trkpt lat="48.14271" lon="6.61425">
        <ele>387.2</ele>
        <time>2023-09-03T06:27:55Z</time>
      </trkpt>
      <trkpt lat="48.14275" lon="6.61432">
        <ele>387.2</ele>
        <time>2023-09-03T06:27:56Z</time>
      </trkpt>
      <trkpt lat="48.1428" lon="6.6144">
        <ele>387.2</ele>
        <time>2023-09-03T06:27:57Z</time>
      </trkpt>
      <trkpt lat="48.14284" lon="6.61448">
        <ele>386.8</ele>
        <time>2023-09-03T06:27:58Z</time>
      </trkpt>
      <trkpt lat="48.14287" lon="6.61455">
        <ele>386.8</ele>
        <time>2023-09-03T06:27:59Z</time>
      </trkpt>
      <trkpt lat="48.14291" lon="6.61462">
        <ele>386.4</ele>
        <time>2023-09-03T06:28:00Z</time>
      </trkpt>
      <trkpt lat="48.14294" lon="6.61468">
        <ele>386.2</ele>
        <time>2023-09-03T06:28:01Z</time>
      </trkpt>
      <trkpt lat="48.14298" lon="6.61475">
        <ele>385.6</ele>
        <time>2023-09-03T06:28:02Z</time>
      </trkpt>
      <trkpt lat="48.14301" lon="6.6148">
        <ele>385.4</ele>
        <time>2023-09-03T06:28:03Z</time>
      </trkpt>
      <trkpt lat="48.14305" lon="6.61487">
        <ele>385</ele>
        <time>2023-09-03T06:28:04Z</time>
      </trkpt>
      <trkpt lat="48.14308" lon="6.61493">
        <ele>384.8</ele>
        <time>2023-09-03T06:28:05Z</time>
      </trkpt>
      <trkpt lat="48.14313" lon="6.61501">
        <ele>384.6</ele>
        <time>2023-09-03T06:28:06Z</time>
      </trkpt>
      <trkpt lat="48.14317" lon="6.61508">
        <ele>384.6</ele>
        <time>2023-09-03T06:28:07Z</time>
      </trkpt>
      <trkpt lat="48.14321" lon="6.61514">
        <ele>384.6</ele>
        <time>2023-09-03T06:28:08Z</time>
      </trkpt>
      <trkpt lat="48.14325" lon="6.6152">
        <ele>384.4</ele>
        <time>2023-09-03T06:28:09Z</time>
      </trkpt>
      <trkpt lat="48.14329" lon="6.61526">
        <ele>384.4</ele>
        <time>2023-09-03T06:28:10Z</time>
      </trkpt>
      <trkpt lat="48.14334" lon="6.61531">
        <ele>384.4</ele>
        <time>2023-09-03T06:28:11Z</time>
      </trkpt>
      <trkpt lat="48.14338" lon="6.61537">
        <ele>384.4</ele>
        <time>2023-09-03T06:28:12Z</time>
      </trkpt>
      <trkpt lat="48.14342" lon="6.61545">
        <ele>384.4</ele>
        <time>2023-09-03T06:28:13Z</time>
      </trkpt>
      <trkpt lat="48.14345" lon="6.61553">
        <ele>384.2</ele>
        <time>2023-09-03T06:28:14Z</time>
      </trkpt>
      <trkpt lat="48.14349" lon="6.61561">
        <ele>384.2</ele>
        <time>2023-09-03T06:28:15Z</time>
      </trkpt>
      <trkpt lat="48.14353" lon="6.61569">
        <ele>384.2</ele>
        <time>2023-09-03T06:28:16Z</time>
      </trkpt>
      <trkpt lat="48.14356" lon="6.61577">
        <ele>384.2</ele>
        <time>2023-09-03T06:28:17Z</time>
      </trkpt>
      <trkpt lat="48.14359" lon="6.61585">
        <ele>384.4</ele>
        <time>2023-09-03T06:28:18Z</time>
      </trkpt>
      <trkpt lat="48.14363" lon="6.61592">
        <ele>384.4</ele>
        <time>2023-09-03T06:28:19Z</time>
      </trkpt>
      <trkpt lat="48.14365" lon="6.616">
        <ele>384.4</ele>
        <time>2023-09-03T06:28:20Z</time>
      </trkpt>
      <trkpt lat="48.14368" lon="6.61608">
        <ele>384.4</ele>
        <time>2023-09-03T06:28:21Z</time>
      </trkpt>
      <trkpt lat="48.1437" lon="6.61615">
        <ele>384.4</ele>
        <time>2023-09-03T06:28:22Z</time>
      </trkpt>
      <trkpt lat="48.14372" lon="6.61622">
        <ele>384.4</ele>
        <time>2023-09-03T06:28:23Z</time>
      </trkpt>
      <trkpt lat="48.14374" lon="6.61628">
        <ele>384.2</ele>
        <time>2023-09-03T06:28:24Z</time>
      </trkpt>
      <trkpt lat="48.14376" lon="6.61635">
        <ele>384.2</ele>
        <time>2023-09-03T06:28:25Z</time>
      </trkpt>
      <trkpt lat="48.1438" lon="6.61641">
        <ele>384.2</ele>
        <time>2023-09-03T06:28:26Z</time>
      </trkpt>
      <trkpt lat="48.14383" lon="6.61647">
        <ele>384.2</ele>
        <time>2023-09-03T06:28:27Z</time>
      </trkpt>
      <trkpt lat="48.14388" lon="6.61653">
        <ele>384.2</ele>
        <time>2023-09-03T06:28:28Z</time>
      </trkpt>
      <trkpt lat="48.1439" lon="6.61658">
        <ele>384.4</ele>
        <time>2023-09-03T06:28:29Z</time>
      </trkpt>
      <trkpt lat="48.14392" lon="6.61663">
        <ele>384.4</ele>
        <time>2023-09-03T06:28:30Z</time>
      </trkpt>
      <trkpt lat="48.14396" lon="6.61668">
        <ele>384.6</ele>
        <time>2023-09-03T06:28:31Z</time>
      </trkpt>
      <trkpt lat="48.144" lon="6.61672">
        <ele>384.8</ele>
        <time>2023-09-03T06:28:32Z</time>
      </trkpt>
      <trkpt lat="48.14404" lon="6.61677">
        <ele>384.6</ele>
        <time>2023-09-03T06:28:33Z</time>
      </trkpt>
      <trkpt lat="48.14408" lon="6.61681">
        <ele>384.8</ele>
        <time>2023-09-03T06:28:34Z</time>
      </trkpt>
      <trkpt lat="48.14412" lon="6.61685">
        <ele>385</ele>
        <time>2023-09-03T06:28:35Z</time>
      </trkpt>
      <trkpt lat="48.14415" lon="6.61689">
        <ele>385</ele>
        <time>2023-09-03T06:28:36Z</time>
      </trkpt>
      <trkpt lat="48.14418" lon="6.61693">
        <ele>385.2</ele>
        <time>2023-09-03T06:28:37Z</time>
      </trkpt>
      <trkpt lat="48.14421" lon="6.61696">
        <ele>385.2</ele>
        <time>2023-09-03T06:28:38Z</time>
      </trkpt>
      <trkpt lat="48.14425" lon="6.617">
        <ele>385.2</ele>
        <time>2023-09-03T06:28:39Z</time>
      </trkpt>
      <trkpt lat="48.14427" lon="6.61704">
        <ele>385.2</ele>
        <time>2023-09-03T06:28:40Z</time>
      </trkpt>
      <trkpt lat="48.14427" lon="6.61708">
        <ele>385.2</ele>
        <time>2023-09-03T06:28:41Z</time>
      </trkpt>
      <trkpt lat="48.14426" lon="6.61713">
        <ele>385.2</ele>
        <time>2023-09-03T06:28:42Z</time>
      </trkpt>
      <trkpt lat="48.14425" lon="6.61718">
        <ele>385.2</ele>
        <time>2023-09-03T06:28:43Z</time>
      </trkpt>
      <trkpt lat="48.14423" lon="6.61723">
        <ele>385.2</ele>
        <time>2023-09-03T06:28:44Z</time>
      </trkpt>
      <trkpt lat="48.14422" lon="6.61728">
        <ele>385.4</ele>
        <time>2023-09-03T06:28:45Z</time>
      </trkpt>
      <trkpt lat="48.14421" lon="6.61733">
        <ele>385.4</ele>
        <time>2023-09-03T06:28:46Z</time>
      </trkpt>
      <trkpt lat="48.14419" lon="6.61738">
        <ele>385.4</ele>
        <time>2023-09-03T06:28:47Z</time>
      </trkpt>
      <trkpt lat="48.14419" lon="6.61742">
        <ele>385.4</ele>
        <time>2023-09-03T06:28:48Z</time>
      </trkpt>
      <trkpt lat="48.14418" lon="6.61747">
        <ele>385.8</ele>
        <time>2023-09-03T06:28:49Z</time>
      </trkpt>
      <trkpt lat="48.14417" lon="6.61751">
        <ele>386</ele>
        <time>2023-09-03T06:28:50Z</time>
      </trkpt>
      <trkpt lat="48.14417" lon="6.61754">
        <ele>386.4</ele>
        <time>2023-09-03T06:28:51Z</time>
      </trkpt>
      <trkpt lat="48.14419" lon="6.61758">
        <ele>386.8</ele>
        <time>2023-09-03T06:28:52Z</time>
      </trkpt>
      <trkpt lat="48.14422" lon="6.61761">
        <ele>386.8</ele>
        <time>2023-09-03T06:28:53Z</time>
      </trkpt>
      <trkpt lat="48.14426" lon="6.61763">
        <ele>387</ele>
        <time>2023-09-03T06:28:54Z</time>
      </trkpt>
      <trkpt lat="48.1443" lon="6.61765">
        <ele>387.2</ele>
        <time>2023-09-03T06:28:55Z</time>
      </trkpt>
      <trkpt lat="48.14434" lon="6.61767">
        <ele>387.2</ele>
        <time>2023-09-03T06:28:56Z</time>
      </trkpt>
      <trkpt lat="48.14438" lon="6.61768">
        <ele>387.2</ele>
        <time>2023-09-03T06:28:57Z</time>
      </trkpt>
      <trkpt lat="48.14442" lon="6.61769">
        <ele>387.4</ele>
        <time>2023-09-03T06:28:58Z</time>
      </trkpt>
      <trkpt lat="48.14447" lon="6.61768">
        <ele>387.4</ele>
        <time>2023-09-03T06:28:59Z</time>
      </trkpt>
      <trkpt lat="48.14451" lon="6.61768">
        <ele>387.6</ele>
        <time>2023-09-03T06:29:00Z</time>
      </trkpt>
      <trkpt lat="48.14456" lon="6.61768">
        <ele>387.6</ele>
        <time>2023-09-03T06:29:01Z</time>
      </trkpt>
      <trkpt lat="48.14461" lon="6.6177">
        <ele>387.6</ele>
        <time>2023-09-03T06:29:02Z</time>
      </trkpt>
      <trkpt lat="48.14466" lon="6.61771">
        <ele>387.8</ele>
        <time>2023-09-03T06:29:03Z</time>
      </trkpt>
      <trkpt lat="48.1447" lon="6.61772">
        <ele>387.8</ele>
        <time>2023-09-03T06:29:04Z</time>
      </trkpt>
      <trkpt lat="48.14475" lon="6.61774">
        <ele>387.8</ele>
        <time>2023-09-03T06:29:05Z</time>
      </trkpt>
      <trkpt lat="48.1448" lon="6.61776">
        <ele>387.6</ele>
        <time>2023-09-03T06:29:06Z</time>
      </trkpt>
      <trkpt lat="48.14485" lon="6.61777">
        <ele>387.6</ele>
        <time>2023-09-03T06:29:07Z</time>
      </trkpt>
      <trkpt lat="48.14489" lon="6.61779">
        <ele>387.8</ele>
        <time>2023-09-03T06:29:08Z</time>
      </trkpt>
      <trkpt lat="48.14494" lon="6.61781">
        <ele>387.8</ele>
        <time>2023-09-03T06:29:09Z</time>
      </trkpt>
      <trkpt lat="48.14499" lon="6.61783">
        <ele>387.8</ele>
        <time>2023-09-03T06:29:10Z</time>
      </trkpt>
      <trkpt lat="48.14504" lon="6.61785">
        <ele>387.8</ele>
        <time>2023-09-03T06:29:11Z</time>
      </trkpt>
      <trkpt lat="48.14509" lon="6.61788">
        <ele>387.8</ele>
        <time>2023-09-03T06:29:12Z</time>
      </trkpt>
      <trkpt lat="48.14514" lon="6.6179">
        <ele>387.6</ele>
        <time>2023-09-03T06:29:13Z</time>
      </trkpt>
      <trkpt lat="48.14519" lon="6.61792">
        <ele>387.6</ele>
        <time>2023-09-03T06:29:14Z</time>
      </trkpt>
      <trkpt lat="48.14524" lon="6.61794">
        <ele>387.6</ele>
        <time>2023-09-03T06:29:15Z</time>
      </trkpt>
      <trkpt lat="48.14528" lon="6.61796">
        <ele>387.6</ele>
        <time>2023-09-03T06:29:16Z</time>
      </trkpt>
      <trkpt lat="48.14533" lon="6.61798">
        <ele>387.6</ele>
        <time>2023-09-03T06:29:17Z</time>
      </trkpt>
      <trkpt lat="48.14537" lon="6.61801">
        <ele>387.6</ele>
        <time>2023-09-03T06:29:18Z</time>
      </trkpt>
      <trkpt lat="48.14541" lon="6.61805">
        <ele>387.4</ele>
        <time>2023-09-03T06:29:19Z</time>
      </trkpt>
      <trkpt lat="48.14545" lon="6.61809">
        <ele>387.4</ele>
        <time>2023-09-03T06:29:20Z</time>
      </trkpt>
      <trkpt lat="48.14549" lon="6.61812">
        <ele>387.4</ele>
        <time>2023-09-03T06:29:21Z</time>
      </trkpt>
      <trkpt lat="48.14552" lon="6.61816">
        <ele>387.4</ele>
        <time>2023-09-03T06:29:22Z</time>
      </trkpt>
      <trkpt lat="48.14557" lon="6.6182">
        <ele>387.4</ele>
        <time>2023-09-03T06:29:23Z</time>
      </trkpt>
      <trkpt lat="48.14561" lon="6.61824">
        <ele>387.2</ele>
        <time>2023-09-03T06:29:24Z</time>
      </trkpt>
      <trkpt lat="48.14566" lon="6.61828">
        <ele>387.2</ele>
        <time>2023-09-03T06:29:25Z</time>
      </trkpt>
      <trkpt lat="48.14569" lon="6.61832">
        <ele>387.2</ele>
        <time>2023-09-03T06:29:26Z</time>
      </trkpt>
      <trkpt lat="48.14573" lon="6.61836">
        <ele>387.2</ele>
        <time>2023-09-03T06:29:27Z</time>
      </trkpt>
      <trkpt lat="48.14576" lon="6.6184">
        <ele>387.2</ele>
        <time>2023-09-03T06:29:28Z</time>
      </trkpt>
      <trkpt lat="48.1458" lon="6.61844">
        <ele>387.2</ele>
        <time>2023-09-03T06:29:29Z</time>
      </trkpt>
      <trkpt lat="48.14584" lon="6.61848">
        <ele>387.2</ele>
        <time>2023-09-03T06:29:30Z</time>
      </trkpt>
      <trkpt lat="48.14588" lon="6.61852">
        <ele>387.2</ele>
        <time>2023-09-03T06:29:31Z</time>
      </trkpt>
      <trkpt lat="48.14592" lon="6.61855">
        <ele>387.2</ele>
        <time>2023-09-03T06:29:32Z</time>
      </trkpt>
      <trkpt lat="48.14596" lon="6.61858">
        <ele>387.2</ele>
        <time>2023-09-03T06:29:33Z</time>
      </trkpt>
      <trkpt lat="48.14601" lon="6.61861">
        <ele>387.2</ele>
        <time>2023-09-03T06:29:34Z</time>
      </trkpt>
      <trkpt lat="48.14605" lon="6.61863">
        <ele>387.2</ele>
        <time>2023-09-03T06:29:35Z</time>
      </trkpt>
      <trkpt lat="48.14609" lon="6.61865">
        <ele>387.2</ele>
        <time>2023-09-03T06:29:36Z</time>
      </trkpt>
      <trkpt lat="48.14613" lon="6.61866">
        <ele>387.2</ele>
        <time>2023-09-03T06:29:37Z</time>
      </trkpt>
      <trkpt lat="48.14617" lon="6.61868">
        <ele>387.2</ele>
        <time>2023-09-03T06:29:38Z</time>
      </trkpt>
      <trkpt lat="48.14622" lon="6.6187">
        <ele>387.2</ele>
        <time>2023-09-03T06:29:39Z</time>
      </trkpt>
      <trkpt lat="48.14626" lon="6.61872">
        <ele>387.2</ele>
        <time>2023-09-03T06:29:40Z</time>
      </trkpt>
      <trkpt lat="48.1463" lon="6.61875">
        <ele>387.2</ele>
        <time>2023-09-03T06:29:41Z</time>
      </trkpt>
      <trkpt lat="48.14634" lon="6.61877">
        <ele>387.2</ele>
        <time>2023-09-03T06:29:42Z</time>
      </trkpt>
      <trkpt lat="48.14638" lon="6.61878">
        <ele>387.2</ele>
        <time>2023-09-03T06:29:43Z</time>
      </trkpt>
      <trkpt lat="48.14643" lon="6.61878">
        <ele>387.2</ele>
        <time>2023-09-03T06:29:44Z</time>
      </trkpt>
      <trkpt lat="48.14647" lon="6.61879">
        <ele>387.2</ele>
        <time>2023-09-03T06:29:45Z</time>
      </trkpt>
      <trkpt lat="48.14651" lon="6.61881">
        <ele>387.2</ele>
        <time>2023-09-03T06:29:46Z</time>
      </trkpt>
      <trkpt lat="48.14655" lon="6.61883">
        <ele>387.4</ele>
        <time>2023-09-03T06:29:47Z</time>
      </trkpt>
      <trkpt lat="48.1466" lon="6.61886">
        <ele>387.2</ele>
        <time>2023-09-03T06:29:48Z</time>
      </trkpt>
      <trkpt lat="48.14664" lon="6.61891">
        <ele>387.4</ele>
        <time>2023-09-03T06:29:49Z</time>
      </trkpt>
      <trkpt lat="48.14668" lon="6.61895">
        <ele>387.4</ele>
        <time>2023-09-03T06:29:50Z</time>
      </trkpt>
      <trkpt lat="48.14672" lon="6.619">
        <ele>387.4</ele>
        <time>2023-09-03T06:29:51Z</time>
      </trkpt>
      <trkpt lat="48.14675" lon="6.61904">
        <ele>387.4</ele>
        <time>2023-09-03T06:29:52Z</time>
      </trkpt>
      <trkpt lat="48.14678" lon="6.61908">
        <ele>387.4</ele>
        <time>2023-09-03T06:29:53Z</time>
      </trkpt>
      <trkpt lat="48.14682" lon="6.61912">
        <ele>387.6</ele>
        <time>2023-09-03T06:29:54Z</time>
      </trkpt>
      <trkpt lat="48.14685" lon="6.61917">
        <ele>387.6</ele>
        <time>2023-09-03T06:29:55Z</time>
      </trkpt>
      <trkpt lat="48.14688" lon="6.61921">
        <ele>387.6</ele>
        <time>2023-09-03T06:29:56Z</time>
      </trkpt>
      <trkpt lat="48.14691" lon="6.61925">
        <ele>387.8</ele>
        <time>2023-09-03T06:29:57Z</time>
      </trkpt>
      <trkpt lat="48.14694" lon="6.61929">
        <ele>387.8</ele>
        <time>2023-09-03T06:29:58Z</time>
      </trkpt>
      <trkpt lat="48.14697" lon="6.61934">
        <ele>387.8</ele>
        <time>2023-09-03T06:29:59Z</time>
      </trkpt>
      <trkpt lat="48.147" lon="6.61939">
        <ele>388</ele>
        <time>2023-09-03T06:30:00Z</time>
      </trkpt>
      <trkpt lat="48.14704" lon="6.61943">
        <ele>388</ele>
        <time>2023-09-03T06:30:01Z</time>
      </trkpt>
      <trkpt lat="48.14707" lon="6.61948">
        <ele>388</ele>
        <time>2023-09-03T06:30:02Z</time>
      </trkpt>
      <trkpt lat="48.14711" lon="6.61951">
        <ele>388.2</ele>
        <time>2023-09-03T06:30:03Z</time>
      </trkpt>
      <trkpt lat="48.14714" lon="6.61954">
        <ele>388.2</ele>
        <time>2023-09-03T06:30:04Z</time>
      </trkpt>
      <trkpt lat="48.14717" lon="6.61957">
        <ele>388.4</ele>
        <time>2023-09-03T06:30:05Z</time>
      </trkpt>
      <trkpt lat="48.14721" lon="6.6196">
        <ele>388.4</ele>
        <time>2023-09-03T06:30:06Z</time>
      </trkpt>
      <trkpt lat="48.14725" lon="6.61963">
        <ele>388.8</ele>
        <time>2023-09-03T06:30:07Z</time>
      </trkpt>
      <trkpt lat="48.14729" lon="6.61966">
        <ele>389</ele>
        <time>2023-09-03T06:30:08Z</time>
      </trkpt>
      <trkpt lat="48.14733" lon="6.6197">
        <ele>389</ele>
        <time>2023-09-03T06:30:09Z</time>
      </trkpt>
      <trkpt lat="48.14737" lon="6.61973">
        <ele>389</ele>
        <time>2023-09-03T06:30:10Z</time>
      </trkpt>
      <trkpt lat="48.1474" lon="6.61977">
        <ele>389.2</ele>
        <time>2023-09-03T06:30:11Z</time>
      </trkpt>
      <trkpt lat="48.14744" lon="6.61981">
        <ele>389.2</ele>
        <time>2023-09-03T06:30:12Z</time>
      </trkpt>
      <trkpt lat="48.14747" lon="6.61984">
        <ele>389.4</ele>
        <time>2023-09-03T06:30:13Z</time>
      </trkpt>
      <trkpt lat="48.14751" lon="6.61988">
        <ele>389.6</ele>
        <time>2023-09-03T06:30:14Z</time>
      </trkpt>
      <trkpt lat="48.14754" lon="6.61992">
        <ele>389.6</ele>
        <time>2023-09-03T06:30:15Z</time>
      </trkpt>
      <trkpt lat="48.14757" lon="6.61996">
        <ele>389.8</ele>
        <time>2023-09-03T06:30:16Z</time>
      </trkpt>
      <trkpt lat="48.14761" lon="6.62">
        <ele>390</ele>
        <time>2023-09-03T06:30:17Z</time>
      </trkpt>
      <trkpt lat="48.14764" lon="6.62005">
        <ele>390</ele>
        <time>2023-09-03T06:30:18Z</time>
      </trkpt>
      <trkpt lat="48.14768" lon="6.6201">
        <ele>390.2</ele>
        <time>2023-09-03T06:30:19Z</time>
      </trkpt>
      <trkpt lat="48.14772" lon="6.62014">
        <ele>390.2</ele>
        <time>2023-09-03T06:30:20Z</time>
      </trkpt>
      <trkpt lat="48.14776" lon="6.62019">
        <ele>390.4</ele>
        <time>2023-09-03T06:30:21Z</time>
      </trkpt>
      <trkpt lat="48.1478" lon="6.62023">
        <ele>390.4</ele>
        <time>2023-09-03T06:30:22Z</time>
      </trkpt>
      <trkpt lat="48.14784" lon="6.62027">
        <ele>390.4</ele>
        <time>2023-09-03T06:30:23Z</time>
      </trkpt>
      <trkpt lat="48.14787" lon="6.62031">
        <ele>390.6</ele>
        <time>2023-09-03T06:30:24Z</time>
      </trkpt>
      <trkpt lat="48.1479" lon="6.62036">
        <ele>390.6</ele>
        <time>2023-09-03T06:30:25Z</time>
      </trkpt>
      <trkpt lat="48.14793" lon="6.62041">
        <ele>390.8</ele>
        <time>2023-09-03T06:30:26Z</time>
      </trkpt>
      <trkpt lat="48.14796" lon="6.62047">
        <ele>390.8</ele>
        <time>2023-09-03T06:30:27Z</time>
      </trkpt>
      <trkpt lat="48.14799" lon="6.62052">
        <ele>390.8</ele>
        <time>2023-09-03T06:30:28Z</time>
      </trkpt>
      <trkpt lat="48.148" lon="6.62058">
        <ele>391</ele>
        <time>2023-09-03T06:30:29Z</time>
      </trkpt>
      <trkpt lat="48.14802" lon="6.62063">
        <ele>391</ele>
        <time>2023-09-03T06:30:30Z</time>
      </trkpt>
      <trkpt lat="48.14805" lon="6.62069">
        <ele>391.2</ele>
        <time>2023-09-03T06:30:31Z</time>
      </trkpt>
      <trkpt lat="48.14808" lon="6.62074">
        <ele>391.4</ele>
        <time>2023-09-03T06:30:32Z</time>
      </trkpt>
      <trkpt lat="48.1481" lon="6.6208">
        <ele>391.6</ele>
        <time>2023-09-03T06:30:33Z</time>
      </trkpt>
      <trkpt lat="48.14813" lon="6.62085">
        <ele>391.8</ele>
        <time>2023-09-03T06:30:34Z</time>
      </trkpt>
      <trkpt lat="48.14815" lon="6.6209">
        <ele>392</ele>
        <time>2023-09-03T06:30:35Z</time>
      </trkpt>
      <trkpt lat="48.14817" lon="6.62095">
        <ele>392.6</ele>
        <time>2023-09-03T06:30:36Z</time>
      </trkpt>
      <trkpt lat="48.14819" lon="6.62101">
        <ele>392.8</ele>
        <time>2023-09-03T06:30:37Z</time>
      </trkpt>
      <trkpt lat="48.14821" lon="6.62106">
        <ele>393.2</ele>
        <time>2023-09-03T06:30:38Z</time>
      </trkpt>
      <trkpt lat="48.14823" lon="6.62112">
        <ele>393.4</ele>
        <time>2023-09-03T06:30:39Z</time>
      </trkpt>
      <trkpt lat="48.14825" lon="6.62117">
        <ele>393.6</ele>
        <time>2023-09-03T06:30:40Z</time>
      </trkpt>
      <trkpt lat="48.14827" lon="6.62122">
        <ele>393.6</ele>
        <time>2023-09-03T06:30:41Z</time>
      </trkpt>
      <trkpt lat="48.14829" lon="6.62128">
        <ele>394.2</ele>
        <time>2023-09-03T06:30:42Z</time>
      </trkpt>
      <trkpt lat="48.14831" lon="6.62133">
        <ele>394.4</ele>
        <time>2023-09-03T06:30:43Z</time>
      </trkpt>
      <trkpt lat="48.14833" lon="6.62139">
        <ele>394.6</ele>
        <time>2023-09-03T06:30:44Z</time>
      </trkpt>
      <trkpt lat="48.14835" lon="6.62145">
        <ele>395.2</ele>
        <time>2023-09-03T06:30:45Z</time>
      </trkpt>
      <trkpt lat="48.14837" lon="6.62151">
        <ele>395.2</ele>
        <time>2023-09-03T06:30:46Z</time>
      </trkpt>
      <trkpt lat="48.14838" lon="6.62155">
        <ele>395.6</ele>
        <time>2023-09-03T06:30:47Z</time>
      </trkpt>
      <trkpt lat="48.1484" lon="6.62162">
        <ele>395.6</ele>
        <time>2023-09-03T06:30:48Z</time>
      </trkpt>
      <trkpt lat="48.14842" lon="6.62168">
        <ele>395.8</ele>
        <time>2023-09-03T06:30:49Z</time>
      </trkpt>
      <trkpt lat="48.14844" lon="6.62174">
        <ele>396</ele>
        <time>2023-09-03T06:30:50Z</time>
      </trkpt>
      <trkpt lat="48.14846" lon="6.6218">
        <ele>396.2</ele>
        <time>2023-09-03T06:30:51Z</time>
      </trkpt>
      <trkpt lat="48.14848" lon="6.62186">
        <ele>396.2</ele>
        <time>2023-09-03T06:30:52Z</time>
      </trkpt>
      <trkpt lat="48.1485" lon="6.62192">
        <ele>396.4</ele>
        <time>2023-09-03T06:30:53Z</time>
      </trkpt>
      <trkpt lat="48.14852" lon="6.62199">
        <ele>396.6</ele>
        <time>2023-09-03T06:30:54Z</time>
      </trkpt>
      <trkpt lat="48.14854" lon="6.62205">
        <ele>396.6</ele>
        <time>2023-09-03T06:30:55Z</time>
      </trkpt>
      <trkpt lat="48.14857" lon="6.62211">
        <ele>396.6</ele>
        <time>2023-09-03T06:30:56Z</time>
      </trkpt>
      <trkpt lat="48.14859" lon="6.62218">
        <ele>396.6</ele>
        <time>2023-09-03T06:30:57Z</time>
      </trkpt>
      <trkpt lat="48.14861" lon="6.62225">
        <ele>396.6</ele>
        <time>2023-09-03T06:30:58Z</time>
      </trkpt>
      <trkpt lat="48.14863" lon="6.62232">
        <ele>397</ele>
        <time>2023-09-03T06:30:59Z</time>
      </trkpt>
      <trkpt lat="48.14866" lon="6.62239">
        <ele>396.8</ele>
        <time>2023-09-03T06:31:00Z</time>
      </trkpt>
      <trkpt lat="48.14868" lon="6.62246">
        <ele>396.6</ele>
        <time>2023-09-03T06:31:01Z</time>
      </trkpt>
      <trkpt lat="48.1487" lon="6.62253">
        <ele>396.6</ele>
        <time>2023-09-03T06:31:02Z</time>
      </trkpt>
      <trkpt lat="48.14872" lon="6.62261">
        <ele>396.6</ele>
        <time>2023-09-03T06:31:03Z</time>
      </trkpt>
      <trkpt lat="48.14874" lon="6.62269">
        <ele>396.6</ele>
        <time>2023-09-03T06:31:04Z</time>
      </trkpt>
      <trkpt lat="48.14877" lon="6.62276">
        <ele>396.6</ele>
        <time>2023-09-03T06:31:05Z</time>
      </trkpt>
      <trkpt lat="48.14879" lon="6.62284">
        <ele>396.4</ele>
        <time>2023-09-03T06:31:06Z</time>
      </trkpt>
      <trkpt lat="48.14881" lon="6.62292">
        <ele>396.4</ele>
        <time>2023-09-03T06:31:07Z</time>
      </trkpt>
      <trkpt lat="48.14883" lon="6.623">
        <ele>396.2</ele>
        <time>2023-09-03T06:31:08Z</time>
      </trkpt>
      <trkpt lat="48.14885" lon="6.62309">
        <ele>396.2</ele>
        <time>2023-09-03T06:31:09Z</time>
      </trkpt>
      <trkpt lat="48.14887" lon="6.62318">
        <ele>396</ele>
        <time>2023-09-03T06:31:10Z</time>
      </trkpt>
      <trkpt lat="48.14889" lon="6.62326">
        <ele>396</ele>
        <time>2023-09-03T06:31:11Z</time>
      </trkpt>
      <trkpt lat="48.14891" lon="6.62335">
        <ele>396.2</ele>
        <time>2023-09-03T06:31:12Z</time>
      </trkpt>
      <trkpt lat="48.14892" lon="6.62344">
        <ele>396</ele>
        <time>2023-09-03T06:31:13Z</time>
      </trkpt>
      <trkpt lat="48.14894" lon="6.62353">
        <ele>396</ele>
        <time>2023-09-03T06:31:14Z</time>
      </trkpt>
      <trkpt lat="48.14896" lon="6.62363">
        <ele>396</ele>
        <time>2023-09-03T06:31:15Z</time>
      </trkpt>
      <trkpt lat="48.14897" lon="6.62372">
        <ele>395.8</ele>
        <time>2023-09-03T06:31:16Z</time>
      </trkpt>
      <trkpt lat="48.14898" lon="6.62381">
        <ele>395.8</ele>
        <time>2023-09-03T06:31:17Z</time>
      </trkpt>
      <trkpt lat="48.14899" lon="6.62391">
        <ele>395.8</ele>
        <time>2023-09-03T06:31:18Z</time>
      </trkpt>
      <trkpt lat="48.14901" lon="6.624">
        <ele>395.8</ele>
        <time>2023-09-03T06:31:19Z</time>
      </trkpt>
      <trkpt lat="48.14902" lon="6.6241">
        <ele>395.6</ele>
        <time>2023-09-03T06:31:20Z</time>
      </trkpt>
      <trkpt lat="48.14903" lon="6.62419">
        <ele>395.4</ele>
        <time>2023-09-03T06:31:21Z</time>
      </trkpt>
      <trkpt lat="48.14905" lon="6.62429">
        <ele>395.2</ele>
        <time>2023-09-03T06:31:22Z</time>
      </trkpt>
      <trkpt lat="48.14906" lon="6.62438">
        <ele>395</ele>
        <time>2023-09-03T06:31:23Z</time>
      </trkpt>
      <trkpt lat="48.14907" lon="6.62448">
        <ele>394.8</ele>
        <time>2023-09-03T06:31:24Z</time>
      </trkpt>
      <trkpt lat="48.14909" lon="6.62458">
        <ele>394.6</ele>
        <time>2023-09-03T06:31:25Z</time>
      </trkpt>
      <trkpt lat="48.1491" lon="6.62468">
        <ele>394.6</ele>
        <time>2023-09-03T06:31:26Z</time>
      </trkpt>
      <trkpt lat="48.14911" lon="6.62477">
        <ele>394.4</ele>
        <time>2023-09-03T06:31:27Z</time>
      </trkpt>
      <trkpt lat="48.14913" lon="6.62487">
        <ele>394.4</ele>
        <time>2023-09-03T06:31:28Z</time>
      </trkpt>
      <trkpt lat="48.14915" lon="6.62496">
        <ele>394.2</ele>
        <time>2023-09-03T06:31:29Z</time>
      </trkpt>
      <trkpt lat="48.14917" lon="6.62505">
        <ele>394.2</ele>
        <time>2023-09-03T06:31:30Z</time>
      </trkpt>
      <trkpt lat="48.14918" lon="6.62514">
        <ele>394</ele>
        <time>2023-09-03T06:31:31Z</time>
      </trkpt>
      <trkpt lat="48.1492" lon="6.62523">
        <ele>394</ele>
        <time>2023-09-03T06:31:32Z</time>
      </trkpt>
      <trkpt lat="48.14922" lon="6.62531">
        <ele>393.8</ele>
        <time>2023-09-03T06:31:33Z</time>
      </trkpt>
      <trkpt lat="48.14923" lon="6.6254">
        <ele>393.8</ele>
        <time>2023-09-03T06:31:34Z</time>
      </trkpt>
      <trkpt lat="48.14924" lon="6.62548">
        <ele>393.8</ele>
        <time>2023-09-03T06:31:35Z</time>
      </trkpt>
      <trkpt lat="48.14925" lon="6.62556">
        <ele>393.8</ele>
        <time>2023-09-03T06:31:36Z</time>
      </trkpt>
      <trkpt lat="48.14928" lon="6.62564">
        <ele>393.8</ele>
        <time>2023-09-03T06:31:37Z</time>
      </trkpt>
      <trkpt lat="48.1493" lon="6.62571">
        <ele>393.8</ele>
        <time>2023-09-03T06:31:38Z</time>
      </trkpt>
      <trkpt lat="48.14932" lon="6.62577">
        <ele>393.8</ele>
        <time>2023-09-03T06:31:39Z</time>
      </trkpt>
      <trkpt lat="48.14935" lon="6.62584">
        <ele>393.8</ele>
        <time>2023-09-03T06:31:40Z</time>
      </trkpt>
      <trkpt lat="48.14938" lon="6.62589">
        <ele>393.8</ele>
        <time>2023-09-03T06:31:41Z</time>
      </trkpt>
      <trkpt lat="48.14941" lon="6.62595">
        <ele>393.8</ele>
        <time>2023-09-03T06:31:42Z</time>
      </trkpt>
      <trkpt lat="48.14945" lon="6.62599">
        <ele>394</ele>
        <time>2023-09-03T06:31:43Z</time>
      </trkpt>
      <trkpt lat="48.14948" lon="6.62605">
        <ele>394.2</ele>
        <time>2023-09-03T06:31:44Z</time>
      </trkpt>
      <trkpt lat="48.14948" lon="6.62611">
        <ele>394.2</ele>
        <time>2023-09-03T06:31:45Z</time>
      </trkpt>
      <trkpt lat="48.14947" lon="6.62618">
        <ele>394.2</ele>
        <time>2023-09-03T06:31:46Z</time>
      </trkpt>
      <trkpt lat="48.14947" lon="6.62625">
        <ele>394.2</ele>
        <time>2023-09-03T06:31:47Z</time>
      </trkpt>
      <trkpt lat="48.14946" lon="6.62631">
        <ele>394.2</ele>
        <time>2023-09-03T06:31:48Z</time>
      </trkpt>
      <trkpt lat="48.14945" lon="6.62638">
        <ele>394.2</ele>
        <time>2023-09-03T06:31:49Z</time>
      </trkpt>
      <trkpt lat="48.14943" lon="6.62646">
        <ele>394.2</ele>
        <time>2023-09-03T06:31:50Z</time>
      </trkpt>
      <trkpt lat="48.14941" lon="6.62652">
        <ele>394.2</ele>
        <time>2023-09-03T06:31:51Z</time>
      </trkpt>
      <trkpt lat="48.14939" lon="6.62658">
        <ele>394.2</ele>
        <time>2023-09-03T06:31:52Z</time>
      </trkpt>
      <trkpt lat="48.14936" lon="6.62665">
        <ele>394</ele>
        <time>2023-09-03T06:31:53Z</time>
      </trkpt>
      <trkpt lat="48.14932" lon="6.62671">
        <ele>393.8</ele>
        <time>2023-09-03T06:31:54Z</time>
      </trkpt>
      <trkpt lat="48.14928" lon="6.62677">
        <ele>393.6</ele>
        <time>2023-09-03T06:31:55Z</time>
      </trkpt>
      <trkpt lat="48.14923" lon="6.62682">
        <ele>393.6</ele>
        <time>2023-09-03T06:31:56Z</time>
      </trkpt>
      <trkpt lat="48.1492" lon="6.62686">
        <ele>393.6</ele>
        <time>2023-09-03T06:31:57Z</time>
      </trkpt>
      <trkpt lat="48.14914" lon="6.6269">
        <ele>393.4</ele>
        <time>2023-09-03T06:31:58Z</time>
      </trkpt>
      <trkpt lat="48.14909" lon="6.62693">
        <ele>393.4</ele>
        <time>2023-09-03T06:31:59Z</time>
      </trkpt>
      <trkpt lat="48.14905" lon="6.62696">
        <ele>393.6</ele>
        <time>2023-09-03T06:32:00Z</time>
      </trkpt>
      <trkpt lat="48.14901" lon="6.62699">
        <ele>393.6</ele>
        <time>2023-09-03T06:32:01Z</time>
      </trkpt>
      <trkpt lat="48.14897" lon="6.62701">
        <ele>393.8</ele>
        <time>2023-09-03T06:32:02Z</time>
      </trkpt>
      <trkpt lat="48.14893" lon="6.62702">
        <ele>393.8</ele>
        <time>2023-09-03T06:32:03Z</time>
      </trkpt>
      <trkpt lat="48.1489" lon="6.62704">
        <ele>394.2</ele>
        <time>2023-09-03T06:32:04Z</time>
      </trkpt>
      <trkpt lat="48.14887" lon="6.62705">
        <ele>394.2</ele>
        <time>2023-09-03T06:32:05Z</time>
      </trkpt>
      <trkpt lat="48.14884" lon="6.62706">
        <ele>394.4</ele>
        <time>2023-09-03T06:32:06Z</time>
      </trkpt>
      <trkpt lat="48.14882" lon="6.62707">
        <ele>394.6</ele>
        <time>2023-09-03T06:32:07Z</time>
      </trkpt>
      <trkpt lat="48.14879" lon="6.62709">
        <ele>395</ele>
        <time>2023-09-03T06:32:08Z</time>
      </trkpt>
      <trkpt lat="48.14876" lon="6.6271">
        <ele>395.2</ele>
        <time>2023-09-03T06:32:09Z</time>
      </trkpt>
      <trkpt lat="48.14873" lon="6.62711">
        <ele>396</ele>
        <time>2023-09-03T06:32:10Z</time>
      </trkpt>
      <trkpt lat="48.14871" lon="6.62711">
        <ele>396.4</ele>
        <time>2023-09-03T06:32:11Z</time>
      </trkpt>
      <trkpt lat="48.14868" lon="6.62712">
        <ele>396.6</ele>
        <time>2023-09-03T06:32:12Z</time>
      </trkpt>
      <trkpt lat="48.14866" lon="6.62712">
        <ele>396.8</ele>
        <time>2023-09-03T06:32:13Z</time>
      </trkpt>
      <trkpt lat="48.14863" lon="6.62713">
        <ele>397.2</ele>
        <time>2023-09-03T06:32:14Z</time>
      </trkpt>
      <trkpt lat="48.14861" lon="6.62714">
        <ele>397.4</ele>
        <time>2023-09-03T06:32:15Z</time>
      </trkpt>
      <trkpt lat="48.14858" lon="6.62715">
        <ele>397.6</ele>
        <time>2023-09-03T06:32:16Z</time>
      </trkpt>
      <trkpt lat="48.14856" lon="6.62717">
        <ele>397.6</ele>
        <time>2023-09-03T06:32:17Z</time>
      </trkpt>
      <trkpt lat="48.14853" lon="6.62718">
        <ele>397.8</ele>
        <time>2023-09-03T06:32:18Z</time>
      </trkpt>
      <trkpt lat="48.14851" lon="6.62719">
        <ele>398.2</ele>
        <time>2023-09-03T06:32:19Z</time>
      </trkpt>
      <trkpt lat="48.14848" lon="6.6272">
        <ele>398.4</ele>
        <time>2023-09-03T06:32:20Z</time>
      </trkpt>
      <trkpt lat="48.14846" lon="6.62722">
        <ele>398.6</ele>
        <time>2023-09-03T06:32:21Z</time>
      </trkpt>
      <trkpt lat="48.14843" lon="6.62723">
        <ele>398.8</ele>
        <time>2023-09-03T06:32:22Z</time>
      </trkpt>
      <trkpt lat="48.14841" lon="6.62725">
        <ele>399.4</ele>
        <time>2023-09-03T06:32:23Z</time>
      </trkpt>
      <trkpt lat="48.14838" lon="6.62726">
        <ele>399.6</ele>
        <time>2023-09-03T06:32:24Z</time>
      </trkpt>
      <trkpt lat="48.14836" lon="6.62726">
        <ele>400</ele>
        <time>2023-09-03T06:32:25Z</time>
      </trkpt>
      <trkpt lat="48.14833" lon="6.62727">
        <ele>400.2</ele>
        <time>2023-09-03T06:32:26Z</time>
      </trkpt>
      <trkpt lat="48.14831" lon="6.62727">
        <ele>400.4</ele>
        <time>2023-09-03T06:32:27Z</time>
      </trkpt>
      <trkpt lat="48.14828" lon="6.62727">
        <ele>400.6</ele>
        <time>2023-09-03T06:32:28Z</time>
      </trkpt>
      <trkpt lat="48.14826" lon="6.62727">
        <ele>401</ele>
        <time>2023-09-03T06:32:29Z</time>
      </trkpt>
      <trkpt lat="48.14824" lon="6.62727">
        <ele>401.2</ele>
        <time>2023-09-03T06:32:30Z</time>
      </trkpt>
      <trkpt lat="48.14822" lon="6.62728">
        <ele>401.4</ele>
        <time>2023-09-03T06:32:31Z</time>
      </trkpt>
      <trkpt lat="48.1482" lon="6.62728">
        <ele>401.6</ele>
        <time>2023-09-03T06:32:32Z</time>
      </trkpt>
      <trkpt lat="48.14818" lon="6.62727">
        <ele>402.2</ele>
        <time>2023-09-03T06:32:33Z</time>
      </trkpt>
      <trkpt lat="48.14816" lon="6.62727">
        <ele>402.4</ele>
        <time>2023-09-03T06:32:34Z</time>
      </trkpt>
      <trkpt lat="48.14813" lon="6.62727">
        <ele>402.8</ele>
        <time>2023-09-03T06:32:35Z</time>
      </trkpt>
      <trkpt lat="48.14811" lon="6.62727">
        <ele>403.2</ele>
        <time>2023-09-03T06:32:36Z</time>
      </trkpt>
      <trkpt lat="48.14809" lon="6.62726">
        <ele>403.2</ele>
        <time>2023-09-03T06:32:37Z</time>
      </trkpt>
      <trkpt lat="48.14807" lon="6.62726">
        <ele>403.8</ele>
        <time>2023-09-03T06:32:38Z</time>
      </trkpt>
      <trkpt lat="48.14805" lon="6.62725">
        <ele>404</ele>
        <time>2023-09-03T06:32:39Z</time>
      </trkpt>
      <trkpt lat="48.14802" lon="6.62724">
        <ele>404.2</ele>
        <time>2023-09-03T06:32:40Z</time>
      </trkpt>
      <trkpt lat="48.148" lon="6.62723">
        <ele>404.2</ele>
        <time>2023-09-03T06:32:41Z</time>
      </trkpt>
      <trkpt lat="48.14798" lon="6.62723">
        <ele>404.6</ele>
        <time>2023-09-03T06:32:42Z</time>
      </trkpt>
      <trkpt lat="48.14796" lon="6.62722">
        <ele>404.8</ele>
        <time>2023-09-03T06:32:43Z</time>
      </trkpt>
      <trkpt lat="48.14794" lon="6.62721">
        <ele>405.2</ele>
        <time>2023-09-03T06:32:44Z</time>
      </trkpt>
      <trkpt lat="48.14791" lon="6.6272">
        <ele>405.6</ele>
        <time>2023-09-03T06:32:45Z</time>
      </trkpt>
      <trkpt lat="48.14789" lon="6.62719">
        <ele>406</ele>
        <time>2023-09-03T06:32:46Z</time>
      </trkpt>
      <trkpt lat="48.14787" lon="6.62719">
        <ele>406</ele>
        <time>2023-09-03T06:32:47Z</time>
      </trkpt>
      <trkpt lat="48.14785" lon="6.62719">
        <ele>406.4</ele>
        <time>2023-09-03T06:32:48Z</time>
      </trkpt>
      <trkpt lat="48.14783" lon="6.62719">
        <ele>406.6</ele>
        <time>2023-09-03T06:32:49Z</time>
      </trkpt>
      <trkpt lat="48.14781" lon="6.62719">
        <ele>406.8</ele>
        <time>2023-09-03T06:32:50Z</time>
      </trkpt>
      <trkpt lat="48.14779" lon="6.6272">
        <ele>407</ele>
        <time>2023-09-03T06:32:51Z</time>
      </trkpt>
      <trkpt lat="48.14777" lon="6.62722">
        <ele>407.2</ele>
        <time>2023-09-03T06:32:52Z</time>
      </trkpt>
      <trkpt lat="48.14775" lon="6.62723">
        <ele>407.4</ele>
        <time>2023-09-03T06:32:53Z</time>
      </trkpt>
      <trkpt lat="48.14772" lon="6.62724">
        <ele>407.6</ele>
        <time>2023-09-03T06:32:54Z</time>
      </trkpt>
      <trkpt lat="48.1477" lon="6.62726">
        <ele>408</ele>
        <time>2023-09-03T06:32:55Z</time>
      </trkpt>
      <trkpt lat="48.14768" lon="6.62727">
        <ele>408.2</ele>
        <time>2023-09-03T06:32:56Z</time>
      </trkpt>
      <trkpt lat="48.14766" lon="6.62729">
        <ele>408.6</ele>
        <time>2023-09-03T06:32:57Z</time>
      </trkpt>
      <trkpt lat="48.14765" lon="6.62731">
        <ele>408.6</ele>
        <time>2023-09-03T06:32:58Z</time>
      </trkpt>
      <trkpt lat="48.14763" lon="6.62733">
        <ele>408.6</ele>
        <time>2023-09-03T06:32:59Z</time>
      </trkpt>
      <trkpt lat="48.14761" lon="6.62735">
        <ele>408.8</ele>
        <time>2023-09-03T06:33:00Z</time>
      </trkpt>
      <trkpt lat="48.1476" lon="6.62737">
        <ele>408.8</ele>
        <time>2023-09-03T06:33:01Z</time>
      </trkpt>
      <trkpt lat="48.14758" lon="6.62739">
        <ele>409</ele>
        <time>2023-09-03T06:33:02Z</time>
      </trkpt>
      <trkpt lat="48.14757" lon="6.6274">
        <ele>409.2</ele>
        <time>2023-09-03T06:33:03Z</time>
      </trkpt>
      <trkpt lat="48.14755" lon="6.62742">
        <ele>409.4</ele>
        <time>2023-09-03T06:33:04Z</time>
      </trkpt>
      <trkpt lat="48.14753" lon="6.62744">
        <ele>410</ele>
        <time>2023-09-03T06:33:05Z</time>
      </trkpt>
      <trkpt lat="48.14752" lon="6.62747">
        <ele>410</ele>
        <time>2023-09-03T06:33:06Z</time>
      </trkpt>
      <trkpt lat="48.14751" lon="6.6275">
        <ele>410.2</ele>
        <time>2023-09-03T06:33:07Z</time>
      </trkpt>
      <trkpt lat="48.1475" lon="6.62752">
        <ele>410.4</ele>
        <time>2023-09-03T06:33:08Z</time>
      </trkpt>
      <trkpt lat="48.14748" lon="6.62754">
        <ele>410.8</ele>
        <time>2023-09-03T06:33:09Z</time>
      </trkpt>
      <trkpt lat="48.14747" lon="6.62756">
        <ele>411.2</ele>
        <time>2023-09-03T06:33:10Z</time>
      </trkpt>
      <trkpt lat="48.14745" lon="6.62758">
        <ele>411.4</ele>
        <time>2023-09-03T06:33:11Z</time>
      </trkpt>
      <trkpt lat="48.14743" lon="6.6276">
        <ele>411.6</ele>
        <time>2023-09-03T06:33:12Z</time>
      </trkpt>
      <trkpt lat="48.14741" lon="6.62761">
        <ele>411.6</ele>
        <time>2023-09-03T06:33:13Z</time>
      </trkpt>
      <trkpt lat="48.14739" lon="6.62763">
        <ele>412</ele>
        <time>2023-09-03T06:33:14Z</time>
      </trkpt>
      <trkpt lat="48.14738" lon="6.62765">
        <ele>412</ele>
        <time>2023-09-03T06:33:15Z</time>
      </trkpt>
      <trkpt lat="48.14736" lon="6.62766">
        <ele>412.2</ele>
        <time>2023-09-03T06:33:16Z</time>
      </trkpt>
      <trkpt lat="48.14734" lon="6.62768">
        <ele>412.4</ele>
        <time>2023-09-03T06:33:17Z</time>
      </trkpt>
      <trkpt lat="48.14732" lon="6.62769">
        <ele>412.6</ele>
        <time>2023-09-03T06:33:18Z</time>
      </trkpt>
      <trkpt lat="48.1473" lon="6.62771">
        <ele>412.6</ele>
        <time>2023-09-03T06:33:19Z</time>
      </trkpt>
      <trkpt lat="48.14728" lon="6.62772">
        <ele>413</ele>
        <time>2023-09-03T06:33:20Z</time>
      </trkpt>
      <trkpt lat="48.14726" lon="6.62774">
        <ele>413</ele>
        <time>2023-09-03T06:33:21Z</time>
      </trkpt>
      <trkpt lat="48.14724" lon="6.62775">
        <ele>413.2</ele>
        <time>2023-09-03T06:33:22Z</time>
      </trkpt>
      <trkpt lat="48.14722" lon="6.62777">
        <ele>413.4</ele>
        <time>2023-09-03T06:33:23Z</time>
      </trkpt>
      <trkpt lat="48.1472" lon="6.62779">
        <ele>413.6</ele>
        <time>2023-09-03T06:33:24Z</time>
      </trkpt>
      <trkpt lat="48.14718" lon="6.62781">
        <ele>413.8</ele>
        <time>2023-09-03T06:33:25Z</time>
      </trkpt>
      <trkpt lat="48.14716" lon="6.62783">
        <ele>414</ele>
        <time>2023-09-03T06:33:26Z</time>
      </trkpt>
      <trkpt lat="48.14714" lon="6.62785">
        <ele>414.2</ele>
        <time>2023-09-03T06:33:27Z</time>
      </trkpt>
      <trkpt lat="48.14712" lon="6.62787">
        <ele>414.2</ele>
        <time>2023-09-03T06:33:28Z</time>
      </trkpt>
      <trkpt lat="48.1471" lon="6.62789">
        <ele>414.4</ele>
        <time>2023-09-03T06:33:29Z</time>
      </trkpt>
      <trkpt lat="48.14707" lon="6.62792">
        <ele>414.4</ele>
        <time>2023-09-03T06:33:30Z</time>
      </trkpt>
      <trkpt lat="48.14705" lon="6.62794">
        <ele>414.6</ele>
        <time>2023-09-03T06:33:31Z</time>
      </trkpt>
      <trkpt lat="48.14702" lon="6.62796">
        <ele>414.6</ele>
        <time>2023-09-03T06:33:32Z</time>
      </trkpt>
      <trkpt lat="48.147" lon="6.62799">
        <ele>414.8</ele>
        <time>2023-09-03T06:33:33Z</time>
      </trkpt>
      <trkpt lat="48.14697" lon="6.62801">
        <ele>414.8</ele>
        <time>2023-09-03T06:33:34Z</time>
      </trkpt>
      <trkpt lat="48.14695" lon="6.62804">
        <ele>415</ele>
        <time>2023-09-03T06:33:35Z</time>
      </trkpt>
      <trkpt lat="48.14692" lon="6.62806">
        <ele>415</ele>
        <time>2023-09-03T06:33:36Z</time>
      </trkpt>
      <trkpt lat="48.14689" lon="6.62809">
        <ele>415</ele>
        <time>2023-09-03T06:33:37Z</time>
      </trkpt>
      <trkpt lat="48.14687" lon="6.62812">
        <ele>415.2</ele>
        <time>2023-09-03T06:33:38Z</time>
      </trkpt>
      <trkpt lat="48.14684" lon="6.62815">
        <ele>415.4</ele>
        <time>2023-09-03T06:33:39Z</time>
      </trkpt>
      <trkpt lat="48.14681" lon="6.62818">
        <ele>415.6</ele>
        <time>2023-09-03T06:33:40Z</time>
      </trkpt>
      <trkpt lat="48.14679" lon="6.6282">
        <ele>415.6</ele>
        <time>2023-09-03T06:33:41Z</time>
      </trkpt>
      <trkpt lat="48.14676" lon="6.62824">
        <ele>415.6</ele>
        <time>2023-09-03T06:33:42Z</time>
      </trkpt>
      <trkpt lat="48.14673" lon="6.62827">
        <ele>415.6</ele>
        <time>2023-09-03T06:33:43Z</time>
      </trkpt>
      <trkpt lat="48.14671" lon="6.6283">
        <ele>415.8</ele>
        <time>2023-09-03T06:33:44Z</time>
      </trkpt>
      <trkpt lat="48.14668" lon="6.62832">
        <ele>415.8</ele>
        <time>2023-09-03T06:33:45Z</time>
      </trkpt>
      <trkpt lat="48.14665" lon="6.62835">
        <ele>416</ele>
        <time>2023-09-03T06:33:46Z</time>
      </trkpt>
      <trkpt lat="48.14662" lon="6.62839">
        <ele>416</ele>
        <time>2023-09-03T06:33:47Z</time>
      </trkpt>
      <trkpt lat="48.14658" lon="6.62842">
        <ele>416.2</ele>
        <time>2023-09-03T06:33:48Z</time>
      </trkpt>
      <trkpt lat="48.14655" lon="6.62845">
        <ele>416.2</ele>
        <time>2023-09-03T06:33:49Z</time>
      </trkpt>
      <trkpt lat="48.14652" lon="6.62848">
        <ele>416.6</ele>
        <time>2023-09-03T06:33:50Z</time>
      </trkpt>
      <trkpt lat="48.14649" lon="6.62851">
        <ele>416.8</ele>
        <time>2023-09-03T06:33:51Z</time>
      </trkpt>
      <trkpt lat="48.14646" lon="6.62855">
        <ele>417</ele>
        <time>2023-09-03T06:33:52Z</time>
      </trkpt>
      <trkpt lat="48.14642" lon="6.62858">
        <ele>417</ele>
        <time>2023-09-03T06:33:53Z</time>
      </trkpt>
      <trkpt lat="48.1464" lon="6.62861">
        <ele>417.2</ele>
        <time>2023-09-03T06:33:54Z</time>
      </trkpt>
      <trkpt lat="48.14636" lon="6.62864">
        <ele>417.2</ele>
        <time>2023-09-03T06:33:55Z</time>
      </trkpt>
      <trkpt lat="48.14632" lon="6.62868">
        <ele>417.2</ele>
        <time>2023-09-03T06:33:56Z</time>
      </trkpt>
      <trkpt lat="48.14629" lon="6.62872">
        <ele>417.2</ele>
        <time>2023-09-03T06:33:57Z</time>
      </trkpt>
      <trkpt lat="48.14626" lon="6.62874">
        <ele>417.4</ele>
        <time>2023-09-03T06:33:58Z</time>
      </trkpt>
      <trkpt lat="48.14622" lon="6.62879">
        <ele>417.4</ele>
        <time>2023-09-03T06:33:59Z</time>
      </trkpt>
      <trkpt lat="48.14619" lon="6.62882">
        <ele>417.6</ele>
        <time>2023-09-03T06:34:00Z</time>
      </trkpt>
      <trkpt lat="48.14616" lon="6.62885">
        <ele>417.6</ele>
        <time>2023-09-03T06:34:01Z</time>
      </trkpt>
      <trkpt lat="48.14612" lon="6.6289">
        <ele>417.6</ele>
        <time>2023-09-03T06:34:02Z</time>
      </trkpt>
      <trkpt lat="48.14609" lon="6.62893">
        <ele>417.8</ele>
        <time>2023-09-03T06:34:03Z</time>
      </trkpt>
      <trkpt lat="48.14605" lon="6.62897">
        <ele>417.8</ele>
        <time>2023-09-03T06:34:04Z</time>
      </trkpt>
      <trkpt lat="48.14602" lon="6.62901">
        <ele>417.8</ele>
        <time>2023-09-03T06:34:05Z</time>
      </trkpt>
      <trkpt lat="48.14598" lon="6.62905">
        <ele>418</ele>
        <time>2023-09-03T06:34:06Z</time>
      </trkpt>
      <trkpt lat="48.14595" lon="6.62908">
        <ele>418.2</ele>
        <time>2023-09-03T06:34:07Z</time>
      </trkpt>
      <trkpt lat="48.14592" lon="6.62912">
        <ele>418.4</ele>
        <time>2023-09-03T06:34:08Z</time>
      </trkpt>
      <trkpt lat="48.14589" lon="6.62916">
        <ele>418.6</ele>
        <time>2023-09-03T06:34:09Z</time>
      </trkpt>
      <trkpt lat="48.14585" lon="6.6292">
        <ele>418.4</ele>
        <time>2023-09-03T06:34:10Z</time>
      </trkpt>
      <trkpt lat="48.14582" lon="6.62923">
        <ele>418.6</ele>
        <time>2023-09-03T06:34:11Z</time>
      </trkpt>
      <trkpt lat="48.14579" lon="6.62926">
        <ele>418.6</ele>
        <time>2023-09-03T06:34:12Z</time>
      </trkpt>
      <trkpt lat="48.14574" lon="6.62931">
        <ele>418.6</ele>
        <time>2023-09-03T06:34:13Z</time>
      </trkpt>
      <trkpt lat="48.14571" lon="6.62934">
        <ele>418.6</ele>
        <time>2023-09-03T06:34:14Z</time>
      </trkpt>
      <trkpt lat="48.14567" lon="6.62938">
        <ele>418.6</ele>
        <time>2023-09-03T06:34:15Z</time>
      </trkpt>
      <trkpt lat="48.14564" lon="6.62941">
        <ele>418.8</ele>
        <time>2023-09-03T06:34:16Z</time>
      </trkpt>
      <trkpt lat="48.1456" lon="6.62945">
        <ele>418.8</ele>
        <time>2023-09-03T06:34:17Z</time>
      </trkpt>
      <trkpt lat="48.14556" lon="6.62948">
        <ele>418.8</ele>
        <time>2023-09-03T06:34:18Z</time>
      </trkpt>
      <trkpt lat="48.14552" lon="6.62952">
        <ele>418.8</ele>
        <time>2023-09-03T06:34:19Z</time>
      </trkpt>
      <trkpt lat="48.14549" lon="6.62956">
        <ele>418.8</ele>
        <time>2023-09-03T06:34:20Z</time>
      </trkpt>
      <trkpt lat="48.14546" lon="6.6296">
        <ele>418.8</ele>
        <time>2023-09-03T06:34:21Z</time>
      </trkpt>
      <trkpt lat="48.14545" lon="6.62965">
        <ele>418.8</ele>
        <time>2023-09-03T06:34:22Z</time>
      </trkpt>
      <trkpt lat="48.14546" lon="6.62969">
        <ele>418.6</ele>
        <time>2023-09-03T06:34:23Z</time>
      </trkpt>
      <trkpt lat="48.14548" lon="6.62972">
        <ele>418.8</ele>
        <time>2023-09-03T06:34:24Z</time>
      </trkpt>
      <trkpt lat="48.1455" lon="6.62976">
        <ele>418.6</ele>
        <time>2023-09-03T06:34:25Z</time>
      </trkpt>
      <trkpt lat="48.14553" lon="6.6298">
        <ele>418.6</ele>
        <time>2023-09-03T06:34:26Z</time>
      </trkpt>
      <trkpt lat="48.14555" lon="6.62984">
        <ele>418.6</ele>
        <time>2023-09-03T06:34:27Z</time>
      </trkpt>
      <trkpt lat="48.14558" lon="6.62987">
        <ele>418.8</ele>
        <time>2023-09-03T06:34:28Z</time>
      </trkpt>
      <trkpt lat="48.1456" lon="6.6299">
        <ele>418.8</ele>
        <time>2023-09-03T06:34:29Z</time>
      </trkpt>
      <trkpt lat="48.14563" lon="6.62993">
        <ele>418.8</ele>
        <time>2023-09-03T06:34:30Z</time>
      </trkpt>
      <trkpt lat="48.14565" lon="6.62996">
        <ele>419</ele>
        <time>2023-09-03T06:34:31Z</time>
      </trkpt>
      <trkpt lat="48.14567" lon="6.62999">
        <ele>419</ele>
        <time>2023-09-03T06:34:32Z</time>
      </trkpt>
      <trkpt lat="48.14569" lon="6.63001">
        <ele>419.4</ele>
        <time>2023-09-03T06:34:33Z</time>
      </trkpt>
      <trkpt lat="48.14571" lon="6.63003">
        <ele>419.4</ele>
        <time>2023-09-03T06:34:34Z</time>
      </trkpt>
      <trkpt lat="48.14573" lon="6.63005">
        <ele>419.8</ele>
        <time>2023-09-03T06:34:35Z</time>
      </trkpt>
      <trkpt lat="48.14575" lon="6.63006">
        <ele>420.2</ele>
        <time>2023-09-03T06:34:36Z</time>
      </trkpt>
      <trkpt lat="48.14577" lon="6.63008">
        <ele>420.6</ele>
        <time>2023-09-03T06:34:37Z</time>
      </trkpt>
      <trkpt lat="48.14579" lon="6.6301">
        <ele>420.8</ele>
        <time>2023-09-03T06:34:38Z</time>
      </trkpt>
      <trkpt lat="48.14581" lon="6.63013">
        <ele>421.4</ele>
        <time>2023-09-03T06:34:39Z</time>
      </trkpt>
      <trkpt lat="48.14582" lon="6.63016">
        <ele>421.8</ele>
        <time>2023-09-03T06:34:40Z</time>
      </trkpt>
      <trkpt lat="48.14584" lon="6.63018">
        <ele>422.2</ele>
        <time>2023-09-03T06:34:41Z</time>
      </trkpt>
      <trkpt lat="48.14585" lon="6.6302">
        <ele>422.4</ele>
        <time>2023-09-03T06:34:42Z</time>
      </trkpt>
      <trkpt lat="48.14586" lon="6.63022">
        <ele>422.6</ele>
        <time>2023-09-03T06:34:43Z</time>
      </trkpt>
      <trkpt lat="48.14587" lon="6.63023">
        <ele>422.8</ele>
        <time>2023-09-03T06:34:44Z</time>
      </trkpt>
      <trkpt lat="48.14587" lon="6.63024">
        <ele>423.4</ele>
        <time>2023-09-03T06:34:45Z</time>
      </trkpt>
      <trkpt lat="48.14588" lon="6.63026">
        <ele>424.2</ele>
        <time>2023-09-03T06:34:46Z</time>
      </trkpt>
      <trkpt lat="48.1459" lon="6.63028">
        <ele>424.4</ele>
        <time>2023-09-03T06:34:47Z</time>
      </trkpt>
      <trkpt lat="48.14592" lon="6.63029">
        <ele>425</ele>
        <time>2023-09-03T06:34:48Z</time>
      </trkpt>
      <trkpt lat="48.14593" lon="6.6303">
        <ele>425.4</ele>
        <time>2023-09-03T06:34:49Z</time>
      </trkpt>
      <trkpt lat="48.14593" lon="6.63031">
        <ele>426</ele>
        <time>2023-09-03T06:34:50Z</time>
      </trkpt>
      <trkpt lat="48.14594" lon="6.63033">
        <ele>426.2</ele>
        <time>2023-09-03T06:34:51Z</time>
      </trkpt>
      <trkpt lat="48.14595" lon="6.63035">
        <ele>426.6</ele>
        <time>2023-09-03T06:34:52Z</time>
      </trkpt>
      <trkpt lat="48.14596" lon="6.63036">
        <ele>427.2</ele>
        <time>2023-09-03T06:34:53Z</time>
      </trkpt>
      <trkpt lat="48.14596" lon="6.63037">
        <ele>427.8</ele>
        <time>2023-09-03T06:34:54Z</time>
      </trkpt>
      <trkpt lat="48.14596" lon="6.63039">
        <ele>428</ele>
        <time>2023-09-03T06:34:55Z</time>
      </trkpt>
      <trkpt lat="48.14597" lon="6.63041">
        <ele>428.6</ele>
        <time>2023-09-03T06:34:56Z</time>
      </trkpt>
      <trkpt lat="48.14596" lon="6.63043">
        <ele>428.8</ele>
        <time>2023-09-03T06:34:57Z</time>
      </trkpt>
      <trkpt lat="48.14597" lon="6.63045">
        <ele>429.4</ele>
        <time>2023-09-03T06:34:58Z</time>
      </trkpt>
      <trkpt lat="48.14599" lon="6.63048">
        <ele>429.8</ele>
        <time>2023-09-03T06:34:59Z</time>
      </trkpt>
      <trkpt lat="48.146" lon="6.63051">
        <ele>430.2</ele>
        <time>2023-09-03T06:35:00Z</time>
      </trkpt>
      <trkpt lat="48.14601" lon="6.63053">
        <ele>430.4</ele>
        <time>2023-09-03T06:35:01Z</time>
      </trkpt>
      <trkpt lat="48.14601" lon="6.63055">
        <ele>430.8</ele>
        <time>2023-09-03T06:35:02Z</time>
      </trkpt>
      <trkpt lat="48.14601" lon="6.63057">
        <ele>431.2</ele>
        <time>2023-09-03T06:35:03Z</time>
      </trkpt>
      <trkpt lat="48.14602" lon="6.63059">
        <ele>431.4</ele>
        <time>2023-09-03T06:35:04Z</time>
      </trkpt>
      <trkpt lat="48.14603" lon="6.63062">
        <ele>431.6</ele>
        <time>2023-09-03T06:35:05Z</time>
      </trkpt>
      <trkpt lat="48.14604" lon="6.63064">
        <ele>432</ele>
        <time>2023-09-03T06:35:06Z</time>
      </trkpt>
      <trkpt lat="48.14604" lon="6.63067">
        <ele>432.4</ele>
        <time>2023-09-03T06:35:07Z</time>
      </trkpt>
      <trkpt lat="48.14606" lon="6.63069">
        <ele>432.8</ele>
        <time>2023-09-03T06:35:08Z</time>
      </trkpt>
      <trkpt lat="48.14608" lon="6.63072">
        <ele>433</ele>
        <time>2023-09-03T06:35:09Z</time>
      </trkpt>
      <trkpt lat="48.1461" lon="6.63076">
        <ele>433.2</ele>
        <time>2023-09-03T06:35:10Z</time>
      </trkpt>
      <trkpt lat="48.14611" lon="6.63078">
        <ele>433.8</ele>
        <time>2023-09-03T06:35:11Z</time>
      </trkpt>
      <trkpt lat="48.14613" lon="6.6308">
        <ele>434</ele>
        <time>2023-09-03T06:35:12Z</time>
      </trkpt>
      <trkpt lat="48.14614" lon="6.63081">
        <ele>434.4</ele>
        <time>2023-09-03T06:35:13Z</time>
      </trkpt>
      <trkpt lat="48.14612" lon="6.63083">
        <ele>434.6</ele>
        <time>2023-09-03T06:35:14Z</time>
      </trkpt>
      <trkpt lat="48.14612" lon="6.63086">
        <ele>435</ele>
        <time>2023-09-03T06:35:15Z</time>
      </trkpt>
      <trkpt lat="48.14612" lon="6.6309">
        <ele>435.2</ele>
        <time>2023-09-03T06:35:16Z</time>
      </trkpt>
      <trkpt lat="48.14613" lon="6.63094">
        <ele>435.8</ele>
        <time>2023-09-03T06:35:17Z</time>
      </trkpt>
      <trkpt lat="48.14613" lon="6.63097">
        <ele>436.2</ele>
        <time>2023-09-03T06:35:18Z</time>
      </trkpt>
      <trkpt lat="48.14614" lon="6.631">
        <ele>436.6</ele>
        <time>2023-09-03T06:35:19Z</time>
      </trkpt>
      <trkpt lat="48.14613" lon="6.63103">
        <ele>437</ele>
        <time>2023-09-03T06:35:20Z</time>
      </trkpt>
      <trkpt lat="48.14613" lon="6.63105">
        <ele>437.2</ele>
        <time>2023-09-03T06:35:21Z</time>
      </trkpt>
      <trkpt lat="48.14613" lon="6.63108">
        <ele>437.6</ele>
        <time>2023-09-03T06:35:22Z</time>
      </trkpt>
      <trkpt lat="48.14614" lon="6.6311">
        <ele>437.8</ele>
        <time>2023-09-03T06:35:23Z</time>
      </trkpt>
      <trkpt lat="48.14616" lon="6.63111">
        <ele>438.4</ele>
        <time>2023-09-03T06:35:24Z</time>
      </trkpt>
      <trkpt lat="48.14618" lon="6.63112">
        <ele>438.4</ele>
        <time>2023-09-03T06:35:25Z</time>
      </trkpt>
      <trkpt lat="48.14619" lon="6.63113">
        <ele>439.2</ele>
        <time>2023-09-03T06:35:26Z</time>
      </trkpt>
      <trkpt lat="48.1462" lon="6.63114">
        <ele>439.4</ele>
        <time>2023-09-03T06:35:27Z</time>
      </trkpt>
      <trkpt lat="48.14621" lon="6.63115">
        <ele>439.6</ele>
        <time>2023-09-03T06:35:28Z</time>
      </trkpt>
      <trkpt lat="48.14622" lon="6.63115">
        <ele>439.8</ele>
        <time>2023-09-03T06:35:29Z</time>
      </trkpt>
      <trkpt lat="48.14622" lon="6.63115">
        <ele>440</ele>
        <time>2023-09-03T06:35:30Z</time>
      </trkpt>
      <trkpt lat="48.14623" lon="6.63115">
        <ele>440.2</ele>
        <time>2023-09-03T06:35:31Z</time>
      </trkpt>
      <trkpt lat="48.14625" lon="6.63116">
        <ele>440.4</ele>
        <time>2023-09-03T06:35:32Z</time>
      </trkpt>
      <trkpt lat="48.14626" lon="6.63116">
        <ele>440.6</ele>
        <time>2023-09-03T06:35:33Z</time>
      </trkpt>
      <trkpt lat="48.14627" lon="6.63117">
        <ele>440.8</ele>
        <time>2023-09-03T06:35:34Z</time>
      </trkpt>
      <trkpt lat="48.14629" lon="6.63117">
        <ele>441</ele>
        <time>2023-09-03T06:35:35Z</time>
      </trkpt>
      <trkpt lat="48.1463" lon="6.63116">
        <ele>441</ele>
        <time>2023-09-03T06:35:36Z</time>
      </trkpt>
      <trkpt lat="48.14631" lon="6.63115">
        <ele>441.2</ele>
        <time>2023-09-03T06:35:37Z</time>
      </trkpt>
      <trkpt lat="48.14633" lon="6.63114">
        <ele>441.4</ele>
        <time>2023-09-03T06:35:38Z</time>
      </trkpt>
      <trkpt lat="48.14635" lon="6.63114">
        <ele>441.6</ele>
        <time>2023-09-03T06:35:39Z</time>
      </trkpt>
      <trkpt lat="48.1464" lon="6.63115">
        <ele>441.6</ele>
        <time>2023-09-03T06:35:40Z</time>
      </trkpt>
      <trkpt lat="48.1464" lon="6.63115">
        <ele>441.8</ele>
        <time>2023-09-03T06:35:41Z</time>
      </trkpt>
      <trkpt lat="48.14641" lon="6.63116">
        <ele>441.8</ele>
        <time>2023-09-03T06:35:42Z</time>
      </trkpt>
      <trkpt lat="48.14642" lon="6.63117">
        <ele>442</ele>
        <time>2023-09-03T06:35:43Z</time>
      </trkpt>
      <trkpt lat="48.14644" lon="6.63119">
        <ele>442</ele>
        <time>2023-09-03T06:35:44Z</time>
      </trkpt>
      <trkpt lat="48.14646" lon="6.63121">
        <ele>442</ele>
        <time>2023-09-03T06:35:45Z</time>
      </trkpt>
      <trkpt lat="48.14648" lon="6.63123">
        <ele>442.2</ele>
        <time>2023-09-03T06:35:46Z</time>
      </trkpt>
      <trkpt lat="48.14649" lon="6.63127">
        <ele>442.2</ele>
        <time>2023-09-03T06:35:47Z</time>
      </trkpt>
      <trkpt lat="48.1465" lon="6.63129">
        <ele>442.2</ele>
        <time>2023-09-03T06:35:48Z</time>
      </trkpt>
      <trkpt lat="48.14651" lon="6.63132">
        <ele>442.4</ele>
        <time>2023-09-03T06:35:49Z</time>
      </trkpt>
      <trkpt lat="48.14653" lon="6.63136">
        <ele>442.4</ele>
        <time>2023-09-03T06:35:50Z</time>
      </trkpt>
      <trkpt lat="48.14654" lon="6.6314">
        <ele>442.6</ele>
        <time>2023-09-03T06:35:51Z</time>
      </trkpt>
      <trkpt lat="48.14654" lon="6.63141">
        <ele>442.8</ele>
        <time>2023-09-03T06:35:52Z</time>
      </trkpt>
      <trkpt lat="48.14653" lon="6.63143">
        <ele>443</ele>
        <time>2023-09-03T06:35:53Z</time>
      </trkpt>
      <trkpt lat="48.1465" lon="6.63145">
        <ele>443.2</ele>
        <time>2023-09-03T06:35:54Z</time>
      </trkpt>
      <trkpt lat="48.14647" lon="6.63147">
        <ele>443.2</ele>
        <time>2023-09-03T06:35:55Z</time>
      </trkpt>
      <trkpt lat="48.14645" lon="6.63149">
        <ele>443.4</ele>
        <time>2023-09-03T06:35:56Z</time>
      </trkpt>
      <trkpt lat="48.14644" lon="6.63151">
        <ele>443.4</ele>
        <time>2023-09-03T06:35:57Z</time>
      </trkpt>
      <trkpt lat="48.14643" lon="6.63151">
        <ele>443.6</ele>
        <time>2023-09-03T06:35:58Z</time>
      </trkpt>
      <trkpt lat="48.14641" lon="6.63153">
        <ele>443.6</ele>
        <time>2023-09-03T06:35:59Z</time>
      </trkpt>
      <trkpt lat="48.14639" lon="6.63154">
        <ele>443.6</ele>
        <time>2023-09-03T06:36:00Z</time>
      </trkpt>
      <trkpt lat="48.14637" lon="6.63156">
        <ele>443.6</ele>
        <time>2023-09-03T06:36:01Z</time>
      </trkpt>
      <trkpt lat="48.14636" lon="6.63158">
        <ele>443.6</ele>
        <time>2023-09-03T06:36:02Z</time>
      </trkpt>
      <trkpt lat="48.14634" lon="6.6316">
        <ele>443.8</ele>
        <time>2023-09-03T06:36:03Z</time>
      </trkpt>
      <trkpt lat="48.14631" lon="6.63162">
        <ele>444</ele>
        <time>2023-09-03T06:36:04Z</time>
      </trkpt>
      <trkpt lat="48.1463" lon="6.63163">
        <ele>444</ele>
        <time>2023-09-03T06:36:05Z</time>
      </trkpt>
      <trkpt lat="48.14627" lon="6.63165">
        <ele>444.2</ele>
        <time>2023-09-03T06:36:06Z</time>
      </trkpt>
      <trkpt lat="48.14625" lon="6.63167">
        <ele>444.2</ele>
        <time>2023-09-03T06:36:07Z</time>
      </trkpt>
      <trkpt lat="48.14623" lon="6.63169">
        <ele>444.4</ele>
        <time>2023-09-03T06:36:08Z</time>
      </trkpt>
      <trkpt lat="48.14621" lon="6.63171">
        <ele>444.6</ele>
        <time>2023-09-03T06:36:09Z</time>
      </trkpt>
      <trkpt lat="48.14619" lon="6.63173">
        <ele>444.6</ele>
        <time>2023-09-03T06:36:10Z</time>
      </trkpt>
      <trkpt lat="48.14616" lon="6.63176">
        <ele>444.6</ele>
        <time>2023-09-03T06:36:11Z</time>
      </trkpt>
      <trkpt lat="48.14614" lon="6.63179">
        <ele>444.6</ele>
        <time>2023-09-03T06:36:12Z</time>
      </trkpt>
      <trkpt lat="48.1461" lon="6.63182">
        <ele>444.8</ele>
        <time>2023-09-03T06:36:13Z</time>
      </trkpt>
      <trkpt lat="48.14607" lon="6.63185">
        <ele>444.8</ele>
        <time>2023-09-03T06:36:14Z</time>
      </trkpt>
      <trkpt lat="48.14604" lon="6.63188">
        <ele>444.8</ele>
        <time>2023-09-03T06:36:15Z</time>
      </trkpt>
      <trkpt lat="48.146" lon="6.63191">
        <ele>444.8</ele>
        <time>2023-09-03T06:36:16Z</time>
      </trkpt>
      <trkpt lat="48.14596" lon="6.63194">
        <ele>444.8</ele>
        <time>2023-09-03T06:36:17Z</time>
      </trkpt>
      <trkpt lat="48.14592" lon="6.63198">
        <ele>444.8</ele>
        <time>2023-09-03T06:36:18Z</time>
      </trkpt>
      <trkpt lat="48.14588" lon="6.63202">
        <ele>444.8</ele>
        <time>2023-09-03T06:36:19Z</time>
      </trkpt>
      <trkpt lat="48.14585" lon="6.63206">
        <ele>444.8</ele>
        <time>2023-09-03T06:36:20Z</time>
      </trkpt>
      <trkpt lat="48.1458" lon="6.6321">
        <ele>444.8</ele>
        <time>2023-09-03T06:36:21Z</time>
      </trkpt>
      <trkpt lat="48.14576" lon="6.63215">
        <ele>444.8</ele>
        <time>2023-09-03T06:36:22Z</time>
      </trkpt>
      <trkpt lat="48.14571" lon="6.63222">
        <ele>444.8</ele>
        <time>2023-09-03T06:36:23Z</time>
      </trkpt>
      <trkpt lat="48.14566" lon="6.6323">
        <ele>444.2</ele>
        <time>2023-09-03T06:36:24Z</time>
      </trkpt>
      <trkpt lat="48.14561" lon="6.63238">
        <ele>444</ele>
        <time>2023-09-03T06:36:25Z</time>
      </trkpt>
      <trkpt lat="48.14556" lon="6.63247">
        <ele>443.6</ele>
        <time>2023-09-03T06:36:26Z</time>
      </trkpt>
      <trkpt lat="48.1455" lon="6.63256">
        <ele>443.6</ele>
        <time>2023-09-03T06:36:27Z</time>
      </trkpt>
      <trkpt lat="48.14545" lon="6.63265">
        <ele>443.4</ele>
        <time>2023-09-03T06:36:28Z</time>
      </trkpt>
      <trkpt lat="48.1454" lon="6.63273">
        <ele>443.2</ele>
        <time>2023-09-03T06:36:29Z</time>
      </trkpt>
      <trkpt lat="48.14536" lon="6.6328">
        <ele>443.2</ele>
        <time>2023-09-03T06:36:30Z</time>
      </trkpt>
      <trkpt lat="48.14531" lon="6.63285">
        <ele>443.2</ele>
        <time>2023-09-03T06:36:31Z</time>
      </trkpt>
      <trkpt lat="48.14526" lon="6.6329">
        <ele>443.2</ele>
        <time>2023-09-03T06:36:32Z</time>
      </trkpt>
      <trkpt lat="48.14521" lon="6.63295">
        <ele>443.2</ele>
        <time>2023-09-03T06:36:33Z</time>
      </trkpt>
      <trkpt lat="48.14516" lon="6.63302">
        <ele>443</ele>
        <time>2023-09-03T06:36:34Z</time>
      </trkpt>
      <trkpt lat="48.14511" lon="6.63309">
        <ele>443</ele>
        <time>2023-09-03T06:36:35Z</time>
      </trkpt>
      <trkpt lat="48.14504" lon="6.63318">
        <ele>443</ele>
        <time>2023-09-03T06:36:36Z</time>
      </trkpt>
      <trkpt lat="48.14498" lon="6.63327">
        <ele>443</ele>
        <time>2023-09-03T06:36:37Z</time>
      </trkpt>
      <trkpt lat="48.14491" lon="6.63338">
        <ele>442.8</ele>
        <time>2023-09-03T06:36:38Z</time>
      </trkpt>
      <trkpt lat="48.14482" lon="6.63344">
        <ele>442.6</ele>
        <time>2023-09-03T06:36:39Z</time>
      </trkpt>
      <trkpt lat="48.14473" lon="6.63351">
        <ele>441.8</ele>
        <time>2023-09-03T06:36:40Z</time>
      </trkpt>
      <trkpt lat="48.14465" lon="6.63356">
        <ele>441.4</ele>
        <time>2023-09-03T06:36:41Z</time>
      </trkpt>
      <trkpt lat="48.14457" lon="6.63363">
        <ele>441</ele>
        <time>2023-09-03T06:36:42Z</time>
      </trkpt>
      <trkpt lat="48.14449" lon="6.63371">
        <ele>440.2</ele>
        <time>2023-09-03T06:36:43Z</time>
      </trkpt>
      <trkpt lat="48.1444" lon="6.6338">
        <ele>439.8</ele>
        <time>2023-09-03T06:36:44Z</time>
      </trkpt>
      <trkpt lat="48.14433" lon="6.63388">
        <ele>439.4</ele>
        <time>2023-09-03T06:36:45Z</time>
      </trkpt>
      <trkpt lat="48.14428" lon="6.63396">
        <ele>439.2</ele>
        <time>2023-09-03T06:36:46Z</time>
      </trkpt>
      <trkpt lat="48.14419" lon="6.63405">
        <ele>438.8</ele>
        <time>2023-09-03T06:36:47Z</time>
      </trkpt>
      <trkpt lat="48.14411" lon="6.63412">
        <ele>438.4</ele>
        <time>2023-09-03T06:36:48Z</time>
      </trkpt>
      <trkpt lat="48.14403" lon="6.63419">
        <ele>437.4</ele>
        <time>2023-09-03T06:36:49Z</time>
      </trkpt>
      <trkpt lat="48.14394" lon="6.63426">
        <ele>436.8</ele>
        <time>2023-09-03T06:36:50Z</time>
      </trkpt>
      <trkpt lat="48.14384" lon="6.63435">
        <ele>436.2</ele>
        <time>2023-09-03T06:36:51Z</time>
      </trkpt>
      <trkpt lat="48.14375" lon="6.63444">
        <ele>435.6</ele>
        <time>2023-09-03T06:36:52Z</time>
      </trkpt>
      <trkpt lat="48.14369" lon="6.63452">
        <ele>434.2</ele>
        <time>2023-09-03T06:36:53Z</time>
      </trkpt>
      <trkpt lat="48.14364" lon="6.63461">
        <ele>434</ele>
        <time>2023-09-03T06:36:54Z</time>
      </trkpt>
      <trkpt lat="48.14361" lon="6.63469">
        <ele>432</ele>
        <time>2023-09-03T06:36:55Z</time>
      </trkpt>
      <trkpt lat="48.1436" lon="6.63476">
        <ele>431.2</ele>
        <time>2023-09-03T06:36:56Z</time>
      </trkpt>
      <trkpt lat="48.14359" lon="6.63481">
        <ele>430.6</ele>
        <time>2023-09-03T06:36:57Z</time>
      </trkpt>
      <trkpt lat="48.14356" lon="6.63487">
        <ele>430.2</ele>
        <time>2023-09-03T06:36:58Z</time>
      </trkpt>
      <trkpt lat="48.14353" lon="6.63492">
        <ele>429.6</ele>
        <time>2023-09-03T06:36:59Z</time>
      </trkpt>
      <trkpt lat="48.14351" lon="6.63496">
        <ele>429</ele>
        <time>2023-09-03T06:37:00Z</time>
      </trkpt>
      <trkpt lat="48.14348" lon="6.63501">
        <ele>428.6</ele>
        <time>2023-09-03T06:37:01Z</time>
      </trkpt>
      <trkpt lat="48.14344" lon="6.63507">
        <ele>428.2</ele>
        <time>2023-09-03T06:37:02Z</time>
      </trkpt>
      <trkpt lat="48.14342" lon="6.63514">
        <ele>428</ele>
        <time>2023-09-03T06:37:03Z</time>
      </trkpt>
      <trkpt lat="48.1434" lon="6.6352">
        <ele>428</ele>
        <time>2023-09-03T06:37:04Z</time>
      </trkpt>
      <trkpt lat="48.14338" lon="6.63525">
        <ele>427.8</ele>
        <time>2023-09-03T06:37:05Z</time>
      </trkpt>
      <trkpt lat="48.14335" lon="6.6353">
        <ele>427.6</ele>
        <time>2023-09-03T06:37:06Z</time>
      </trkpt>
      <trkpt lat="48.14332" lon="6.63536">
        <ele>427.6</ele>
        <time>2023-09-03T06:37:07Z</time>
      </trkpt>
      <trkpt lat="48.1433" lon="6.63542">
        <ele>427.4</ele>
        <time>2023-09-03T06:37:08Z</time>
      </trkpt>
      <trkpt lat="48.14328" lon="6.63547">
        <ele>427.4</ele>
        <time>2023-09-03T06:37:09Z</time>
      </trkpt>
      <trkpt lat="48.14326" lon="6.63553">
        <ele>427.2</ele>
        <time>2023-09-03T06:37:10Z</time>
      </trkpt>
      <trkpt lat="48.14323" lon="6.63559">
        <ele>427.2</ele>
        <time>2023-09-03T06:37:11Z</time>
      </trkpt>
      <trkpt lat="48.1432" lon="6.63565">
        <ele>427.2</ele>
        <time>2023-09-03T06:37:12Z</time>
      </trkpt>
      <trkpt lat="48.14316" lon="6.63571">
        <ele>427.2</ele>
        <time>2023-09-03T06:37:13Z</time>
      </trkpt>
      <trkpt lat="48.14313" lon="6.63577">
        <ele>427.2</ele>
        <time>2023-09-03T06:37:14Z</time>
      </trkpt>
      <trkpt lat="48.14308" lon="6.63584">
        <ele>427.2</ele>
        <time>2023-09-03T06:37:15Z</time>
      </trkpt>
      <trkpt lat="48.14304" lon="6.63591">
        <ele>427.2</ele>
        <time>2023-09-03T06:37:16Z</time>
      </trkpt>
      <trkpt lat="48.143" lon="6.63599">
        <ele>427.2</ele>
        <time>2023-09-03T06:37:17Z</time>
      </trkpt>
      <trkpt lat="48.14295" lon="6.63606">
        <ele>427.2</ele>
        <time>2023-09-03T06:37:18Z</time>
      </trkpt>
      <trkpt lat="48.14292" lon="6.63614">
        <ele>427</ele>
        <time>2023-09-03T06:37:19Z</time>
      </trkpt>
      <trkpt lat="48.14288" lon="6.63622">
        <ele>426.8</ele>
        <time>2023-09-03T06:37:20Z</time>
      </trkpt>
      <trkpt lat="48.14284" lon="6.63628">
        <ele>426.8</ele>
        <time>2023-09-03T06:37:21Z</time>
      </trkpt>
      <trkpt lat="48.1428" lon="6.63635">
        <ele>427.2</ele>
        <time>2023-09-03T06:37:22Z</time>
      </trkpt>
      <trkpt lat="48.14277" lon="6.6364">
        <ele>427.4</ele>
        <time>2023-09-03T06:37:23Z</time>
      </trkpt>
      <trkpt lat="48.14274" lon="6.63646">
        <ele>427.6</ele>
        <time>2023-09-03T06:37:24Z</time>
      </trkpt>
      <trkpt lat="48.14271" lon="6.63654">
        <ele>427.6</ele>
        <time>2023-09-03T06:37:25Z</time>
      </trkpt>
      <trkpt lat="48.1427" lon="6.63661">
        <ele>427.6</ele>
        <time>2023-09-03T06:37:26Z</time>
      </trkpt>
      <trkpt lat="48.14269" lon="6.63668">
        <ele>427.8</ele>
        <time>2023-09-03T06:37:27Z</time>
      </trkpt>
      <trkpt lat="48.14268" lon="6.63675">
        <ele>428.2</ele>
        <time>2023-09-03T06:37:28Z</time>
      </trkpt>
      <trkpt lat="48.14267" lon="6.63683">
        <ele>428.4</ele>
        <time>2023-09-03T06:37:29Z</time>
      </trkpt>
      <trkpt lat="48.14265" lon="6.63692">
        <ele>428.4</ele>
        <time>2023-09-03T06:37:30Z</time>
      </trkpt>
      <trkpt lat="48.14262" lon="6.63701">
        <ele>428.6</ele>
        <time>2023-09-03T06:37:31Z</time>
      </trkpt>
      <trkpt lat="48.14258" lon="6.63711">
        <ele>428.6</ele>
        <time>2023-09-03T06:37:32Z</time>
      </trkpt>
      <trkpt lat="48.14255" lon="6.6372">
        <ele>428.8</ele>
        <time>2023-09-03T06:37:33Z</time>
      </trkpt>
      <trkpt lat="48.14254" lon="6.63728">
        <ele>428.8</ele>
        <time>2023-09-03T06:37:34Z</time>
      </trkpt>
      <trkpt lat="48.14252" lon="6.63736">
        <ele>429</ele>
        <time>2023-09-03T06:37:35Z</time>
      </trkpt>
      <trkpt lat="48.14249" lon="6.63745">
        <ele>429</ele>
        <time>2023-09-03T06:37:36Z</time>
      </trkpt>
      <trkpt lat="48.14246" lon="6.63753">
        <ele>429</ele>
        <time>2023-09-03T06:37:37Z</time>
      </trkpt>
      <trkpt lat="48.14243" lon="6.63762">
        <ele>428.8</ele>
        <time>2023-09-03T06:37:38Z</time>
      </trkpt>
      <trkpt lat="48.1424" lon="6.63771">
        <ele>428.8</ele>
        <time>2023-09-03T06:37:39Z</time>
      </trkpt>
      <trkpt lat="48.14238" lon="6.63779">
        <ele>428.6</ele>
        <time>2023-09-03T06:37:40Z</time>
      </trkpt>
      <trkpt lat="48.14236" lon="6.63787">
        <ele>428.4</ele>
        <time>2023-09-03T06:37:41Z</time>
      </trkpt>
      <trkpt lat="48.14234" lon="6.63795">
        <ele>428.4</ele>
        <time>2023-09-03T06:37:42Z</time>
      </trkpt>
      <trkpt lat="48.14232" lon="6.63802">
        <ele>428.2</ele>
        <time>2023-09-03T06:37:43Z</time>
      </trkpt>
      <trkpt lat="48.1423" lon="6.63811">
        <ele>428</ele>
        <time>2023-09-03T06:37:44Z</time>
      </trkpt>
      <trkpt lat="48.14228" lon="6.63818">
        <ele>428</ele>
        <time>2023-09-03T06:37:45Z</time>
      </trkpt>
      <trkpt lat="48.14225" lon="6.63825">
        <ele>428</ele>
        <time>2023-09-03T06:37:46Z</time>
      </trkpt>
      <trkpt lat="48.14221" lon="6.63832">
        <ele>427.8</ele>
        <time>2023-09-03T06:37:47Z</time>
      </trkpt>
      <trkpt lat="48.14218" lon="6.63839">
        <ele>428</ele>
        <time>2023-09-03T06:37:48Z</time>
      </trkpt>
      <trkpt lat="48.14216" lon="6.63846">
        <ele>428</ele>
        <time>2023-09-03T06:37:49Z</time>
      </trkpt>
      <trkpt lat="48.14214" lon="6.63853">
        <ele>428</ele>
        <time>2023-09-03T06:37:50Z</time>
      </trkpt>
      <trkpt lat="48.14212" lon="6.6386">
        <ele>428</ele>
        <time>2023-09-03T06:37:51Z</time>
      </trkpt>
      <trkpt lat="48.1421" lon="6.63866">
        <ele>428</ele>
        <time>2023-09-03T06:37:52Z</time>
      </trkpt>
      <trkpt lat="48.14207" lon="6.63872">
        <ele>428</ele>
        <time>2023-09-03T06:37:53Z</time>
      </trkpt>
      <trkpt lat="48.14206" lon="6.63877">
        <ele>428</ele>
        <time>2023-09-03T06:37:54Z</time>
      </trkpt>
      <trkpt lat="48.14205" lon="6.63881">
        <ele>428.2</ele>
        <time>2023-09-03T06:37:55Z</time>
      </trkpt>
      <trkpt lat="48.14204" lon="6.63885">
        <ele>428.2</ele>
        <time>2023-09-03T06:37:56Z</time>
      </trkpt>
      <trkpt lat="48.14202" lon="6.6389">
        <ele>428.2</ele>
        <time>2023-09-03T06:37:57Z</time>
      </trkpt>
      <trkpt lat="48.14199" lon="6.63894">
        <ele>428.2</ele>
        <time>2023-09-03T06:37:58Z</time>
      </trkpt>
      <trkpt lat="48.14197" lon="6.63898">
        <ele>428.2</ele>
        <time>2023-09-03T06:37:59Z</time>
      </trkpt>
      <trkpt lat="48.14194" lon="6.63902">
        <ele>428.2</ele>
        <time>2023-09-03T06:38:00Z</time>
      </trkpt>
      <trkpt lat="48.14192" lon="6.63906">
        <ele>428.2</ele>
        <time>2023-09-03T06:38:01Z</time>
      </trkpt>
      <trkpt lat="48.1419" lon="6.6391">
        <ele>428.4</ele>
        <time>2023-09-03T06:38:02Z</time>
      </trkpt>
      <trkpt lat="48.14188" lon="6.63916">
        <ele>428.4</ele>
        <time>2023-09-03T06:38:03Z</time>
      </trkpt>
      <trkpt lat="48.14187" lon="6.63921">
        <ele>428.4</ele>
        <time>2023-09-03T06:38:04Z</time>
      </trkpt>
      <trkpt lat="48.14184" lon="6.63928">
        <ele>428.6</ele>
        <time>2023-09-03T06:38:05Z</time>
      </trkpt>
      <trkpt lat="48.14182" lon="6.63935">
        <ele>428.6</ele>
        <time>2023-09-03T06:38:06Z</time>
      </trkpt>
      <trkpt lat="48.14181" lon="6.63943">
        <ele>428.8</ele>
        <time>2023-09-03T06:38:07Z</time>
      </trkpt>
      <trkpt lat="48.14181" lon="6.63949">
        <ele>429.4</ele>
        <time>2023-09-03T06:38:08Z</time>
      </trkpt>
      <trkpt lat="48.14181" lon="6.63957">
        <ele>429.4</ele>
        <time>2023-09-03T06:38:09Z</time>
      </trkpt>
      <trkpt lat="48.14182" lon="6.63964">
        <ele>429.6</ele>
        <time>2023-09-03T06:38:10Z</time>
      </trkpt>
      <trkpt lat="48.14182" lon="6.6397">
        <ele>429.6</ele>
        <time>2023-09-03T06:38:11Z</time>
      </trkpt>
      <trkpt lat="48.14181" lon="6.63977">
        <ele>429.6</ele>
        <time>2023-09-03T06:38:12Z</time>
      </trkpt>
      <trkpt lat="48.14179" lon="6.63983">
        <ele>429.8</ele>
        <time>2023-09-03T06:38:13Z</time>
      </trkpt>
      <trkpt lat="48.14179" lon="6.63988">
        <ele>429.8</ele>
        <time>2023-09-03T06:38:14Z</time>
      </trkpt>
      <trkpt lat="48.14179" lon="6.63994">
        <ele>429.8</ele>
        <time>2023-09-03T06:38:15Z</time>
      </trkpt>
      <trkpt lat="48.14175" lon="6.64">
        <ele>429.4</ele>
        <time>2023-09-03T06:38:16Z</time>
      </trkpt>
      <trkpt lat="48.14174" lon="6.64003">
        <ele>429.2</ele>
        <time>2023-09-03T06:38:17Z</time>
      </trkpt>
      <trkpt lat="48.14174" lon="6.64009">
        <ele>429.4</ele>
        <time>2023-09-03T06:38:18Z</time>
      </trkpt>
      <trkpt lat="48.14177" lon="6.64016">
        <ele>429.4</ele>
        <time>2023-09-03T06:38:19Z</time>
      </trkpt>
      <trkpt lat="48.14177" lon="6.64022">
        <ele>429.4</ele>
        <time>2023-09-03T06:38:20Z</time>
      </trkpt>
      <trkpt lat="48.14179" lon="6.64027">
        <ele>429.4</ele>
        <time>2023-09-03T06:38:21Z</time>
      </trkpt>
      <trkpt lat="48.14179" lon="6.64032">
        <ele>429.4</ele>
        <time>2023-09-03T06:38:22Z</time>
      </trkpt>
      <trkpt lat="48.14177" lon="6.64038">
        <ele>429.6</ele>
        <time>2023-09-03T06:38:23Z</time>
      </trkpt>
      <trkpt lat="48.14177" lon="6.64044">
        <ele>429.6</ele>
        <time>2023-09-03T06:38:24Z</time>
      </trkpt>
      <trkpt lat="48.14179" lon="6.6405">
        <ele>429.6</ele>
        <time>2023-09-03T06:38:25Z</time>
      </trkpt>
      <trkpt lat="48.14179" lon="6.64055">
        <ele>429.8</ele>
        <time>2023-09-03T06:38:26Z</time>
      </trkpt>
      <trkpt lat="48.14179" lon="6.6406">
        <ele>429.8</ele>
        <time>2023-09-03T06:38:27Z</time>
      </trkpt>
      <trkpt lat="48.14176" lon="6.64065">
        <ele>430</ele>
        <time>2023-09-03T06:38:28Z</time>
      </trkpt>
      <trkpt lat="48.14175" lon="6.6407">
        <ele>430.2</ele>
        <time>2023-09-03T06:38:29Z</time>
      </trkpt>
      <trkpt lat="48.14176" lon="6.64075">
        <ele>430.6</ele>
        <time>2023-09-03T06:38:30Z</time>
      </trkpt>
      <trkpt lat="48.14178" lon="6.64082">
        <ele>431</ele>
        <time>2023-09-03T06:38:31Z</time>
      </trkpt>
      <trkpt lat="48.14176" lon="6.64088">
        <ele>431.2</ele>
        <time>2023-09-03T06:38:32Z</time>
      </trkpt>
      <trkpt lat="48.14175" lon="6.64093">
        <ele>431.6</ele>
        <time>2023-09-03T06:38:33Z</time>
      </trkpt>
      <trkpt lat="48.14176" lon="6.64099">
        <ele>431.8</ele>
        <time>2023-09-03T06:38:34Z</time>
      </trkpt>
      <trkpt lat="48.14177" lon="6.64106">
        <ele>431.8</ele>
        <time>2023-09-03T06:38:35Z</time>
      </trkpt>
      <trkpt lat="48.1418" lon="6.64112">
        <ele>432</ele>
        <time>2023-09-03T06:38:36Z</time>
      </trkpt>
      <trkpt lat="48.14179" lon="6.64118">
        <ele>432</ele>
        <time>2023-09-03T06:38:37Z</time>
      </trkpt>
      <trkpt lat="48.14176" lon="6.64124">
        <ele>432.2</ele>
        <time>2023-09-03T06:38:38Z</time>
      </trkpt>
      <trkpt lat="48.14175" lon="6.64131">
        <ele>432.2</ele>
        <time>2023-09-03T06:38:39Z</time>
      </trkpt>
      <trkpt lat="48.14177" lon="6.64138">
        <ele>432.2</ele>
        <time>2023-09-03T06:38:40Z</time>
      </trkpt>
      <trkpt lat="48.14178" lon="6.64146">
        <ele>432</ele>
        <time>2023-09-03T06:38:41Z</time>
      </trkpt>
      <trkpt lat="48.14179" lon="6.64153">
        <ele>432</ele>
        <time>2023-09-03T06:38:42Z</time>
      </trkpt>
      <trkpt lat="48.14179" lon="6.64158">
        <ele>432.2</ele>
        <time>2023-09-03T06:38:43Z</time>
      </trkpt>
      <trkpt lat="48.14179" lon="6.64163">
        <ele>432.2</ele>
        <time>2023-09-03T06:38:44Z</time>
      </trkpt>
      <trkpt lat="48.14178" lon="6.64168">
        <ele>432.2</ele>
        <time>2023-09-03T06:38:45Z</time>
      </trkpt>
      <trkpt lat="48.14177" lon="6.64174">
        <ele>432.4</ele>
        <time>2023-09-03T06:38:46Z</time>
      </trkpt>
      <trkpt lat="48.14177" lon="6.64178">
        <ele>432.2</ele>
        <time>2023-09-03T06:38:47Z</time>
      </trkpt>
      <trkpt lat="48.14176" lon="6.64183">
        <ele>432.6</ele>
        <time>2023-09-03T06:38:48Z</time>
      </trkpt>
      <trkpt lat="48.14175" lon="6.64188">
        <ele>432.6</ele>
        <time>2023-09-03T06:38:49Z</time>
      </trkpt>
      <trkpt lat="48.14175" lon="6.64194">
        <ele>432.8</ele>
        <time>2023-09-03T06:38:50Z</time>
      </trkpt>
      <trkpt lat="48.14174" lon="6.64198">
        <ele>432.8</ele>
        <time>2023-09-03T06:38:51Z</time>
      </trkpt>
      <trkpt lat="48.14173" lon="6.64202">
        <ele>433</ele>
        <time>2023-09-03T06:38:52Z</time>
      </trkpt>
      <trkpt lat="48.14172" lon="6.64206">
        <ele>433.4</ele>
        <time>2023-09-03T06:38:53Z</time>
      </trkpt>
      <trkpt lat="48.14174" lon="6.6421">
        <ele>433.6</ele>
        <time>2023-09-03T06:38:54Z</time>
      </trkpt>
      <trkpt lat="48.14174" lon="6.64213">
        <ele>433.8</ele>
        <time>2023-09-03T06:38:55Z</time>
      </trkpt>
      <trkpt lat="48.14174" lon="6.64216">
        <ele>434</ele>
        <time>2023-09-03T06:38:56Z</time>
      </trkpt>
      <trkpt lat="48.14175" lon="6.64221">
        <ele>434</ele>
        <time>2023-09-03T06:38:57Z</time>
      </trkpt>
      <trkpt lat="48.14175" lon="6.64228">
        <ele>434</ele>
        <time>2023-09-03T06:38:58Z</time>
      </trkpt>
      <trkpt lat="48.14175" lon="6.64236">
        <ele>434.2</ele>
        <time>2023-09-03T06:38:59Z</time>
      </trkpt>
      <trkpt lat="48.14173" lon="6.64242">
        <ele>434.2</ele>
        <time>2023-09-03T06:39:00Z</time>
      </trkpt>
      <trkpt lat="48.1417" lon="6.64248">
        <ele>434.2</ele>
        <time>2023-09-03T06:39:01Z</time>
      </trkpt>
      <trkpt lat="48.14168" lon="6.64254">
        <ele>434.2</ele>
        <time>2023-09-03T06:39:02Z</time>
      </trkpt>
      <trkpt lat="48.14169" lon="6.64261">
        <ele>434.2</ele>
        <time>2023-09-03T06:39:03Z</time>
      </trkpt>
      <trkpt lat="48.14169" lon="6.64269">
        <ele>434.2</ele>
        <time>2023-09-03T06:39:04Z</time>
      </trkpt>
      <trkpt lat="48.14169" lon="6.64276">
        <ele>434.4</ele>
        <time>2023-09-03T06:39:05Z</time>
      </trkpt>
      <trkpt lat="48.14169" lon="6.64282">
        <ele>434.4</ele>
        <time>2023-09-03T06:39:06Z</time>
      </trkpt>
      <trkpt lat="48.14167" lon="6.64287">
        <ele>434.6</ele>
        <time>2023-09-03T06:39:07Z</time>
      </trkpt>
      <trkpt lat="48.14166" lon="6.64292">
        <ele>434.6</ele>
        <time>2023-09-03T06:39:08Z</time>
      </trkpt>
      <trkpt lat="48.14162" lon="6.64297">
        <ele>434.6</ele>
        <time>2023-09-03T06:39:09Z</time>
      </trkpt>
      <trkpt lat="48.1416" lon="6.64304">
        <ele>434.6</ele>
        <time>2023-09-03T06:39:10Z</time>
      </trkpt>
      <trkpt lat="48.1416" lon="6.6431">
        <ele>434.8</ele>
        <time>2023-09-03T06:39:11Z</time>
      </trkpt>
      <trkpt lat="48.1416" lon="6.64317">
        <ele>434.8</ele>
        <time>2023-09-03T06:39:12Z</time>
      </trkpt>
      <trkpt lat="48.14161" lon="6.64325">
        <ele>434.8</ele>
        <time>2023-09-03T06:39:13Z</time>
      </trkpt>
      <trkpt lat="48.14158" lon="6.64332">
        <ele>434.8</ele>
        <time>2023-09-03T06:39:14Z</time>
      </trkpt>
      <trkpt lat="48.14156" lon="6.64338">
        <ele>434.8</ele>
        <time>2023-09-03T06:39:15Z</time>
      </trkpt>
      <trkpt lat="48.14157" lon="6.64345">
        <ele>435</ele>
        <time>2023-09-03T06:39:16Z</time>
      </trkpt>
      <trkpt lat="48.14157" lon="6.64352">
        <ele>435.2</ele>
        <time>2023-09-03T06:39:17Z</time>
      </trkpt>
      <trkpt lat="48.14158" lon="6.64359">
        <ele>435.4</ele>
        <time>2023-09-03T06:39:18Z</time>
      </trkpt>
      <trkpt lat="48.14157" lon="6.64366">
        <ele>435.4</ele>
        <time>2023-09-03T06:39:19Z</time>
      </trkpt>
      <trkpt lat="48.14156" lon="6.64371">
        <ele>435.8</ele>
        <time>2023-09-03T06:39:20Z</time>
      </trkpt>
      <trkpt lat="48.14155" lon="6.64375">
        <ele>436</ele>
        <time>2023-09-03T06:39:21Z</time>
      </trkpt>
      <trkpt lat="48.14153" lon="6.6438">
        <ele>436.4</ele>
        <time>2023-09-03T06:39:22Z</time>
      </trkpt>
      <trkpt lat="48.14154" lon="6.64384">
        <ele>436.8</ele>
        <time>2023-09-03T06:39:23Z</time>
      </trkpt>
      <trkpt lat="48.14154" lon="6.64388">
        <ele>437</ele>
        <time>2023-09-03T06:39:24Z</time>
      </trkpt>
      <trkpt lat="48.14155" lon="6.64392">
        <ele>437.4</ele>
        <time>2023-09-03T06:39:25Z</time>
      </trkpt>
      <trkpt lat="48.14157" lon="6.64395">
        <ele>437.6</ele>
        <time>2023-09-03T06:39:26Z</time>
      </trkpt>
      <trkpt lat="48.14158" lon="6.64398">
        <ele>437.6</ele>
        <time>2023-09-03T06:39:27Z</time>
      </trkpt>
      <trkpt lat="48.14158" lon="6.64401">
        <ele>437.8</ele>
        <time>2023-09-03T06:39:28Z</time>
      </trkpt>
      <trkpt lat="48.14158" lon="6.64405">
        <ele>438</ele>
        <time>2023-09-03T06:39:29Z</time>
      </trkpt>
      <trkpt lat="48.14157" lon="6.64408">
        <ele>438.2</ele>
        <time>2023-09-03T06:39:30Z</time>
      </trkpt>
      <trkpt lat="48.14157" lon="6.64411">
        <ele>438.2</ele>
        <time>2023-09-03T06:39:31Z</time>
      </trkpt>
      <trkpt lat="48.14156" lon="6.64414">
        <ele>438.4</ele>
        <time>2023-09-03T06:39:32Z</time>
      </trkpt>
      <trkpt lat="48.14157" lon="6.64418">
        <ele>438.6</ele>
        <time>2023-09-03T06:39:33Z</time>
      </trkpt>
      <trkpt lat="48.14158" lon="6.64423">
        <ele>438.8</ele>
        <time>2023-09-03T06:39:34Z</time>
      </trkpt>
      <trkpt lat="48.14158" lon="6.64428">
        <ele>438.8</ele>
        <time>2023-09-03T06:39:35Z</time>
      </trkpt>
      <trkpt lat="48.14158" lon="6.64432">
        <ele>439</ele>
        <time>2023-09-03T06:39:36Z</time>
      </trkpt>
      <trkpt lat="48.14156" lon="6.64438">
        <ele>439.2</ele>
        <time>2023-09-03T06:39:37Z</time>
      </trkpt>
      <trkpt lat="48.14156" lon="6.64442">
        <ele>439.4</ele>
        <time>2023-09-03T06:39:38Z</time>
      </trkpt>
      <trkpt lat="48.14156" lon="6.64447">
        <ele>439.6</ele>
        <time>2023-09-03T06:39:39Z</time>
      </trkpt>
      <trkpt lat="48.14154" lon="6.64451">
        <ele>439.8</ele>
        <time>2023-09-03T06:39:40Z</time>
      </trkpt>
      <trkpt lat="48.14153" lon="6.64455">
        <ele>439.8</ele>
        <time>2023-09-03T06:39:41Z</time>
      </trkpt>
      <trkpt lat="48.14153" lon="6.64458">
        <ele>440</ele>
        <time>2023-09-03T06:39:42Z</time>
      </trkpt>
      <trkpt lat="48.14151" lon="6.64463">
        <ele>440</ele>
        <time>2023-09-03T06:39:43Z</time>
      </trkpt>
      <trkpt lat="48.14151" lon="6.64468">
        <ele>440.2</ele>
        <time>2023-09-03T06:39:44Z</time>
      </trkpt>
      <trkpt lat="48.14152" lon="6.64472">
        <ele>440.4</ele>
        <time>2023-09-03T06:39:45Z</time>
      </trkpt>
      <trkpt lat="48.14152" lon="6.64478">
        <ele>440.6</ele>
        <time>2023-09-03T06:39:46Z</time>
      </trkpt>
      <trkpt lat="48.14151" lon="6.64484">
        <ele>440.8</ele>
        <time>2023-09-03T06:39:47Z</time>
      </trkpt>
      <trkpt lat="48.14151" lon="6.64489">
        <ele>441.2</ele>
        <time>2023-09-03T06:39:48Z</time>
      </trkpt>
      <trkpt lat="48.1415" lon="6.64494">
        <ele>441.4</ele>
        <time>2023-09-03T06:39:49Z</time>
      </trkpt>
      <trkpt lat="48.14151" lon="6.64501">
        <ele>441.6</ele>
        <time>2023-09-03T06:39:50Z</time>
      </trkpt>
      <trkpt lat="48.14151" lon="6.64508">
        <ele>441.8</ele>
        <time>2023-09-03T06:39:51Z</time>
      </trkpt>
      <trkpt lat="48.14151" lon="6.64514">
        <ele>442</ele>
        <time>2023-09-03T06:39:52Z</time>
      </trkpt>
      <trkpt lat="48.14151" lon="6.64521">
        <ele>442.2</ele>
        <time>2023-09-03T06:39:53Z</time>
      </trkpt>
      <trkpt lat="48.1415" lon="6.64528">
        <ele>442.6</ele>
        <time>2023-09-03T06:39:54Z</time>
      </trkpt>
      <trkpt lat="48.14151" lon="6.64535">
        <ele>442.6</ele>
        <time>2023-09-03T06:39:55Z</time>
      </trkpt>
      <trkpt lat="48.14153" lon="6.64542">
        <ele>442.8</ele>
        <time>2023-09-03T06:39:56Z</time>
      </trkpt>
      <trkpt lat="48.14155" lon="6.64549">
        <ele>443</ele>
        <time>2023-09-03T06:39:57Z</time>
      </trkpt>
      <trkpt lat="48.14154" lon="6.64557">
        <ele>443</ele>
        <time>2023-09-03T06:39:58Z</time>
      </trkpt>
      <trkpt lat="48.14153" lon="6.64564">
        <ele>443.2</ele>
        <time>2023-09-03T06:39:59Z</time>
      </trkpt>
      <trkpt lat="48.14152" lon="6.64571">
        <ele>443.2</ele>
        <time>2023-09-03T06:40:00Z</time>
      </trkpt>
      <trkpt lat="48.14148" lon="6.64579">
        <ele>443.2</ele>
        <time>2023-09-03T06:40:01Z</time>
      </trkpt>
      <trkpt lat="48.14146" lon="6.64586">
        <ele>443.2</ele>
        <time>2023-09-03T06:40:02Z</time>
      </trkpt>
      <trkpt lat="48.14146" lon="6.64593">
        <ele>443</ele>
        <time>2023-09-03T06:40:03Z</time>
      </trkpt>
      <trkpt lat="48.14144" lon="6.646">
        <ele>443</ele>
        <time>2023-09-03T06:40:04Z</time>
      </trkpt>
      <trkpt lat="48.1414" lon="6.64606">
        <ele>443</ele>
        <time>2023-09-03T06:40:05Z</time>
      </trkpt>
      <trkpt lat="48.14139" lon="6.64612">
        <ele>443</ele>
        <time>2023-09-03T06:40:06Z</time>
      </trkpt>
      <trkpt lat="48.14138" lon="6.64621">
        <ele>443</ele>
        <time>2023-09-03T06:40:07Z</time>
      </trkpt>
      <trkpt lat="48.14135" lon="6.6463">
        <ele>443</ele>
        <time>2023-09-03T06:40:08Z</time>
      </trkpt>
      <trkpt lat="48.14134" lon="6.64638">
        <ele>443.2</ele>
        <time>2023-09-03T06:40:09Z</time>
      </trkpt>
      <trkpt lat="48.14134" lon="6.64645">
        <ele>443.2</ele>
        <time>2023-09-03T06:40:10Z</time>
      </trkpt>
      <trkpt lat="48.14133" lon="6.64653">
        <ele>443</ele>
        <time>2023-09-03T06:40:11Z</time>
      </trkpt>
      <trkpt lat="48.14133" lon="6.64661">
        <ele>443.2</ele>
        <time>2023-09-03T06:40:12Z</time>
      </trkpt>
      <trkpt lat="48.14133" lon="6.64669">
        <ele>443</ele>
        <time>2023-09-03T06:40:13Z</time>
      </trkpt>
      <trkpt lat="48.14133" lon="6.64677">
        <ele>443</ele>
        <time>2023-09-03T06:40:14Z</time>
      </trkpt>
      <trkpt lat="48.14133" lon="6.64685">
        <ele>443</ele>
        <time>2023-09-03T06:40:15Z</time>
      </trkpt>
      <trkpt lat="48.14132" lon="6.64692">
        <ele>443</ele>
        <time>2023-09-03T06:40:16Z</time>
      </trkpt>
      <trkpt lat="48.1413" lon="6.64698">
        <ele>443</ele>
        <time>2023-09-03T06:40:17Z</time>
      </trkpt>
      <trkpt lat="48.1413" lon="6.64704">
        <ele>442.8</ele>
        <time>2023-09-03T06:40:18Z</time>
      </trkpt>
      <trkpt lat="48.14129" lon="6.6471">
        <ele>442.8</ele>
        <time>2023-09-03T06:40:19Z</time>
      </trkpt>
      <trkpt lat="48.14129" lon="6.64717">
        <ele>442.8</ele>
        <time>2023-09-03T06:40:20Z</time>
      </trkpt>
      <trkpt lat="48.14128" lon="6.64721">
        <ele>443</ele>
        <time>2023-09-03T06:40:21Z</time>
      </trkpt>
      <trkpt lat="48.14127" lon="6.64726">
        <ele>443</ele>
        <time>2023-09-03T06:40:22Z</time>
      </trkpt>
      <trkpt lat="48.14126" lon="6.64731">
        <ele>443.2</ele>
        <time>2023-09-03T06:40:23Z</time>
      </trkpt>
      <trkpt lat="48.14124" lon="6.64737">
        <ele>443.6</ele>
        <time>2023-09-03T06:40:24Z</time>
      </trkpt>
      <trkpt lat="48.14122" lon="6.64744">
        <ele>443.4</ele>
        <time>2023-09-03T06:40:25Z</time>
      </trkpt>
      <trkpt lat="48.1412" lon="6.6475">
        <ele>443.6</ele>
        <time>2023-09-03T06:40:26Z</time>
      </trkpt>
      <trkpt lat="48.14118" lon="6.64757">
        <ele>444</ele>
        <time>2023-09-03T06:40:27Z</time>
      </trkpt>
      <trkpt lat="48.14117" lon="6.64765">
        <ele>444</ele>
        <time>2023-09-03T06:40:28Z</time>
      </trkpt>
      <trkpt lat="48.14116" lon="6.6477">
        <ele>444</ele>
        <time>2023-09-03T06:40:29Z</time>
      </trkpt>
      <trkpt lat="48.14114" lon="6.64777">
        <ele>444.2</ele>
        <time>2023-09-03T06:40:30Z</time>
      </trkpt>
      <trkpt lat="48.14112" lon="6.64784">
        <ele>444.2</ele>
        <time>2023-09-03T06:40:31Z</time>
      </trkpt>
      <trkpt lat="48.14109" lon="6.64792">
        <ele>444.2</ele>
        <time>2023-09-03T06:40:32Z</time>
      </trkpt>
      <trkpt lat="48.14108" lon="6.64799">
        <ele>444.2</ele>
        <time>2023-09-03T06:40:33Z</time>
      </trkpt>
      <trkpt lat="48.14106" lon="6.64806">
        <ele>444.2</ele>
        <time>2023-09-03T06:40:34Z</time>
      </trkpt>
      <trkpt lat="48.14105" lon="6.64813">
        <ele>444.2</ele>
        <time>2023-09-03T06:40:35Z</time>
      </trkpt>
      <trkpt lat="48.14103" lon="6.6482">
        <ele>444.2</ele>
        <time>2023-09-03T06:40:36Z</time>
      </trkpt>
      <trkpt lat="48.14102" lon="6.64827">
        <ele>444.2</ele>
        <time>2023-09-03T06:40:37Z</time>
      </trkpt>
      <trkpt lat="48.14101" lon="6.64834">
        <ele>444.4</ele>
        <time>2023-09-03T06:40:38Z</time>
      </trkpt>
      <trkpt lat="48.141" lon="6.64841">
        <ele>444.4</ele>
        <time>2023-09-03T06:40:39Z</time>
      </trkpt>
      <trkpt lat="48.14099" lon="6.64847">
        <ele>444.4</ele>
        <time>2023-09-03T06:40:40Z</time>
      </trkpt>
      <trkpt lat="48.14097" lon="6.64854">
        <ele>444.4</ele>
        <time>2023-09-03T06:40:41Z</time>
      </trkpt>
      <trkpt lat="48.14097" lon="6.6486">
        <ele>444.4</ele>
        <time>2023-09-03T06:40:42Z</time>
      </trkpt>
      <trkpt lat="48.14096" lon="6.64867">
        <ele>444.8</ele>
        <time>2023-09-03T06:40:43Z</time>
      </trkpt>
      <trkpt lat="48.14096" lon="6.64874">
        <ele>445.2</ele>
        <time>2023-09-03T06:40:44Z</time>
      </trkpt>
      <trkpt lat="48.14096" lon="6.6488">
        <ele>445.2</ele>
        <time>2023-09-03T06:40:45Z</time>
      </trkpt>
      <trkpt lat="48.14096" lon="6.64887">
        <ele>445.6</ele>
        <time>2023-09-03T06:40:46Z</time>
      </trkpt>
      <trkpt lat="48.14096" lon="6.64893">
        <ele>445.8</ele>
        <time>2023-09-03T06:40:47Z</time>
      </trkpt>
      <trkpt lat="48.14096" lon="6.64899">
        <ele>446</ele>
        <time>2023-09-03T06:40:48Z</time>
      </trkpt>
      <trkpt lat="48.14097" lon="6.64905">
        <ele>446</ele>
        <time>2023-09-03T06:40:49Z</time>
      </trkpt>
      <trkpt lat="48.14099" lon="6.64911">
        <ele>446</ele>
        <time>2023-09-03T06:40:50Z</time>
      </trkpt>
      <trkpt lat="48.14099" lon="6.64917">
        <ele>446.2</ele>
        <time>2023-09-03T06:40:51Z</time>
      </trkpt>
      <trkpt lat="48.141" lon="6.64923">
        <ele>446.4</ele>
        <time>2023-09-03T06:40:52Z</time>
      </trkpt>
      <trkpt lat="48.14101" lon="6.6493">
        <ele>446.6</ele>
        <time>2023-09-03T06:40:53Z</time>
      </trkpt>
      <trkpt lat="48.14102" lon="6.64937">
        <ele>446.6</ele>
        <time>2023-09-03T06:40:54Z</time>
      </trkpt>
      <trkpt lat="48.14103" lon="6.64944">
        <ele>446.8</ele>
        <time>2023-09-03T06:40:55Z</time>
      </trkpt>
      <trkpt lat="48.14104" lon="6.64951">
        <ele>447</ele>
        <time>2023-09-03T06:40:56Z</time>
      </trkpt>
      <trkpt lat="48.14105" lon="6.64958">
        <ele>447</ele>
        <time>2023-09-03T06:40:57Z</time>
      </trkpt>
      <trkpt lat="48.14106" lon="6.64966">
        <ele>447</ele>
        <time>2023-09-03T06:40:58Z</time>
      </trkpt>
      <trkpt lat="48.14107" lon="6.64973">
        <ele>447</ele>
        <time>2023-09-03T06:40:59Z</time>
      </trkpt>
      <trkpt lat="48.14107" lon="6.6498">
        <ele>447.2</ele>
        <time>2023-09-03T06:41:00Z</time>
      </trkpt>
      <trkpt lat="48.14108" lon="6.64987">
        <ele>447.2</ele>
        <time>2023-09-03T06:41:01Z</time>
      </trkpt>
      <trkpt lat="48.14108" lon="6.64994">
        <ele>447.2</ele>
        <time>2023-09-03T06:41:02Z</time>
      </trkpt>
      <trkpt lat="48.14109" lon="6.65001">
        <ele>447.2</ele>
        <time>2023-09-03T06:41:03Z</time>
      </trkpt>
      <trkpt lat="48.14109" lon="6.65007">
        <ele>447.2</ele>
        <time>2023-09-03T06:41:04Z</time>
      </trkpt>
      <trkpt lat="48.1411" lon="6.65014">
        <ele>447.6</ele>
        <time>2023-09-03T06:41:05Z</time>
      </trkpt>
      <trkpt lat="48.1411" lon="6.6502">
        <ele>447.8</ele>
        <time>2023-09-03T06:41:06Z</time>
      </trkpt>
      <trkpt lat="48.14111" lon="6.65026">
        <ele>448.2</ele>
        <time>2023-09-03T06:41:07Z</time>
      </trkpt>
      <trkpt lat="48.14112" lon="6.65032">
        <ele>448.2</ele>
        <time>2023-09-03T06:41:08Z</time>
      </trkpt>
      <trkpt lat="48.14112" lon="6.65038">
        <ele>448.6</ele>
        <time>2023-09-03T06:41:09Z</time>
      </trkpt>
      <trkpt lat="48.14112" lon="6.65044">
        <ele>448.6</ele>
        <time>2023-09-03T06:41:10Z</time>
      </trkpt>
      <trkpt lat="48.14112" lon="6.6505">
        <ele>449</ele>
        <time>2023-09-03T06:41:11Z</time>
      </trkpt>
      <trkpt lat="48.14112" lon="6.65056">
        <ele>449</ele>
        <time>2023-09-03T06:41:12Z</time>
      </trkpt>
      <trkpt lat="48.14112" lon="6.65062">
        <ele>449.2</ele>
        <time>2023-09-03T06:41:13Z</time>
      </trkpt>
      <trkpt lat="48.14112" lon="6.65068">
        <ele>449.4</ele>
        <time>2023-09-03T06:41:14Z</time>
      </trkpt>
      <trkpt lat="48.14111" lon="6.65074">
        <ele>449.4</ele>
        <time>2023-09-03T06:41:15Z</time>
      </trkpt>
      <trkpt lat="48.14111" lon="6.6508">
        <ele>449.6</ele>
        <time>2023-09-03T06:41:16Z</time>
      </trkpt>
      <trkpt lat="48.14111" lon="6.65086">
        <ele>449.8</ele>
        <time>2023-09-03T06:41:17Z</time>
      </trkpt>
      <trkpt lat="48.1411" lon="6.65093">
        <ele>449.8</ele>
        <time>2023-09-03T06:41:18Z</time>
      </trkpt>
      <trkpt lat="48.1411" lon="6.65099">
        <ele>450</ele>
        <time>2023-09-03T06:41:19Z</time>
      </trkpt>
      <trkpt lat="48.1411" lon="6.65105">
        <ele>450.2</ele>
        <time>2023-09-03T06:41:20Z</time>
      </trkpt>
      <trkpt lat="48.14109" lon="6.65112">
        <ele>450.2</ele>
        <time>2023-09-03T06:41:21Z</time>
      </trkpt>
      <trkpt lat="48.14108" lon="6.65117">
        <ele>450.4</ele>
        <time>2023-09-03T06:41:22Z</time>
      </trkpt>
      <trkpt lat="48.14106" lon="6.65123">
        <ele>450.4</ele>
        <time>2023-09-03T06:41:23Z</time>
      </trkpt>
      <trkpt lat="48.14105" lon="6.65129">
        <ele>450.6</ele>
        <time>2023-09-03T06:41:24Z</time>
      </trkpt>
      <trkpt lat="48.14103" lon="6.65134">
        <ele>450.8</ele>
        <time>2023-09-03T06:41:25Z</time>
      </trkpt>
      <trkpt lat="48.14102" lon="6.6514">
        <ele>450.8</ele>
        <time>2023-09-03T06:41:26Z</time>
      </trkpt>
      <trkpt lat="48.14101" lon="6.65145">
        <ele>451</ele>
        <time>2023-09-03T06:41:27Z</time>
      </trkpt>
      <trkpt lat="48.141" lon="6.6515">
        <ele>451.2</ele>
        <time>2023-09-03T06:41:28Z</time>
      </trkpt>
      <trkpt lat="48.14099" lon="6.65155">
        <ele>451.4</ele>
        <time>2023-09-03T06:41:29Z</time>
      </trkpt>
      <trkpt lat="48.14098" lon="6.65161">
        <ele>451.6</ele>
        <time>2023-09-03T06:41:30Z</time>
      </trkpt>
      <trkpt lat="48.14097" lon="6.65166">
        <ele>451.6</ele>
        <time>2023-09-03T06:41:31Z</time>
      </trkpt>
      <trkpt lat="48.14097" lon="6.65172">
        <ele>452</ele>
        <time>2023-09-03T06:41:32Z</time>
      </trkpt>
      <trkpt lat="48.14096" lon="6.65178">
        <ele>452.2</ele>
        <time>2023-09-03T06:41:33Z</time>
      </trkpt>
      <trkpt lat="48.14095" lon="6.65184">
        <ele>452.2</ele>
        <time>2023-09-03T06:41:34Z</time>
      </trkpt>
      <trkpt lat="48.14093" lon="6.6519">
        <ele>452.2</ele>
        <time>2023-09-03T06:41:35Z</time>
      </trkpt>
      <trkpt lat="48.14091" lon="6.65196">
        <ele>452.2</ele>
        <time>2023-09-03T06:41:36Z</time>
      </trkpt>
      <trkpt lat="48.1409" lon="6.65203">
        <ele>452.4</ele>
        <time>2023-09-03T06:41:37Z</time>
      </trkpt>
      <trkpt lat="48.14087" lon="6.6521">
        <ele>452.4</ele>
        <time>2023-09-03T06:41:38Z</time>
      </trkpt>
      <trkpt lat="48.14086" lon="6.65216">
        <ele>452.4</ele>
        <time>2023-09-03T06:41:39Z</time>
      </trkpt>
      <trkpt lat="48.14086" lon="6.65222">
        <ele>452.4</ele>
        <time>2023-09-03T06:41:40Z</time>
      </trkpt>
      <trkpt lat="48.14084" lon="6.65227">
        <ele>452.2</ele>
        <time>2023-09-03T06:41:41Z</time>
      </trkpt>
      <trkpt lat="48.14082" lon="6.65233">
        <ele>452.2</ele>
        <time>2023-09-03T06:41:42Z</time>
      </trkpt>
      <trkpt lat="48.1408" lon="6.6524">
        <ele>452.2</ele>
        <time>2023-09-03T06:41:43Z</time>
      </trkpt>
      <trkpt lat="48.14079" lon="6.65247">
        <ele>452.2</ele>
        <time>2023-09-03T06:41:44Z</time>
      </trkpt>
      <trkpt lat="48.14076" lon="6.65254">
        <ele>452</ele>
        <time>2023-09-03T06:41:45Z</time>
      </trkpt>
      <trkpt lat="48.14074" lon="6.65261">
        <ele>452</ele>
        <time>2023-09-03T06:41:46Z</time>
      </trkpt>
      <trkpt lat="48.14072" lon="6.65268">
        <ele>452.2</ele>
        <time>2023-09-03T06:41:47Z</time>
      </trkpt>
      <trkpt lat="48.14069" lon="6.65274">
        <ele>452.4</ele>
        <time>2023-09-03T06:41:48Z</time>
      </trkpt>
      <trkpt lat="48.14067" lon="6.65279">
        <ele>452.4</ele>
        <time>2023-09-03T06:41:49Z</time>
      </trkpt>
      <trkpt lat="48.14063" lon="6.65285">
        <ele>452.4</ele>
        <time>2023-09-03T06:41:50Z</time>
      </trkpt>
      <trkpt lat="48.1406" lon="6.65291">
        <ele>452.4</ele>
        <time>2023-09-03T06:41:51Z</time>
      </trkpt>
      <trkpt lat="48.14057" lon="6.65297">
        <ele>452.6</ele>
        <time>2023-09-03T06:41:52Z</time>
      </trkpt>
      <trkpt lat="48.14055" lon="6.65303">
        <ele>452.6</ele>
        <time>2023-09-03T06:41:53Z</time>
      </trkpt>
      <trkpt lat="48.14053" lon="6.65309">
        <ele>452.6</ele>
        <time>2023-09-03T06:41:54Z</time>
      </trkpt>
      <trkpt lat="48.14051" lon="6.65316">
        <ele>452.6</ele>
        <time>2023-09-03T06:41:55Z</time>
      </trkpt>
      <trkpt lat="48.14049" lon="6.65323">
        <ele>452.6</ele>
        <time>2023-09-03T06:41:56Z</time>
      </trkpt>
      <trkpt lat="48.14048" lon="6.65329">
        <ele>452.6</ele>
        <time>2023-09-03T06:41:57Z</time>
      </trkpt>
      <trkpt lat="48.14046" lon="6.65336">
        <ele>452.6</ele>
        <time>2023-09-03T06:41:58Z</time>
      </trkpt>
      <trkpt lat="48.14046" lon="6.65343">
        <ele>452.6</ele>
        <time>2023-09-03T06:41:59Z</time>
      </trkpt>
      <trkpt lat="48.14045" lon="6.6535">
        <ele>452.8</ele>
        <time>2023-09-03T06:42:00Z</time>
      </trkpt>
      <trkpt lat="48.14044" lon="6.65357">
        <ele>452.8</ele>
        <time>2023-09-03T06:42:01Z</time>
      </trkpt>
      <trkpt lat="48.14044" lon="6.65363">
        <ele>452.8</ele>
        <time>2023-09-03T06:42:02Z</time>
      </trkpt>
      <trkpt lat="48.14044" lon="6.6537">
        <ele>453</ele>
        <time>2023-09-03T06:42:03Z</time>
      </trkpt>
      <trkpt lat="48.14043" lon="6.65376">
        <ele>453</ele>
        <time>2023-09-03T06:42:04Z</time>
      </trkpt>
      <trkpt lat="48.14043" lon="6.65383">
        <ele>453</ele>
        <time>2023-09-03T06:42:05Z</time>
      </trkpt>
      <trkpt lat="48.14043" lon="6.65389">
        <ele>453.2</ele>
        <time>2023-09-03T06:42:06Z</time>
      </trkpt>
      <trkpt lat="48.14043" lon="6.65395">
        <ele>453.4</ele>
        <time>2023-09-03T06:42:07Z</time>
      </trkpt>
      <trkpt lat="48.14042" lon="6.65401">
        <ele>453.4</ele>
        <time>2023-09-03T06:42:08Z</time>
      </trkpt>
      <trkpt lat="48.14042" lon="6.65407">
        <ele>453.6</ele>
        <time>2023-09-03T06:42:09Z</time>
      </trkpt>
      <trkpt lat="48.14042" lon="6.65413">
        <ele>453.8</ele>
        <time>2023-09-03T06:42:10Z</time>
      </trkpt>
      <trkpt lat="48.14041" lon="6.65419">
        <ele>453.8</ele>
        <time>2023-09-03T06:42:11Z</time>
      </trkpt>
      <trkpt lat="48.14041" lon="6.65424">
        <ele>454</ele>
        <time>2023-09-03T06:42:12Z</time>
      </trkpt>
      <trkpt lat="48.14041" lon="6.6543">
        <ele>454.2</ele>
        <time>2023-09-03T06:42:13Z</time>
      </trkpt>
      <trkpt lat="48.14041" lon="6.65435">
        <ele>454.4</ele>
        <time>2023-09-03T06:42:14Z</time>
      </trkpt>
      <trkpt lat="48.1404" lon="6.6544">
        <ele>454.8</ele>
        <time>2023-09-03T06:42:15Z</time>
      </trkpt>
      <trkpt lat="48.14039" lon="6.65446">
        <ele>454.8</ele>
        <time>2023-09-03T06:42:16Z</time>
      </trkpt>
      <trkpt lat="48.14039" lon="6.65452">
        <ele>455</ele>
        <time>2023-09-03T06:42:17Z</time>
      </trkpt>
      <trkpt lat="48.14038" lon="6.65457">
        <ele>455.2</ele>
        <time>2023-09-03T06:42:18Z</time>
      </trkpt>
      <trkpt lat="48.14037" lon="6.65462">
        <ele>455.4</ele>
        <time>2023-09-03T06:42:19Z</time>
      </trkpt>
      <trkpt lat="48.14037" lon="6.65467">
        <ele>455.8</ele>
        <time>2023-09-03T06:42:20Z</time>
      </trkpt>
      <trkpt lat="48.14037" lon="6.65472">
        <ele>456</ele>
        <time>2023-09-03T06:42:21Z</time>
      </trkpt>
      <trkpt lat="48.14036" lon="6.65477">
        <ele>456.2</ele>
        <time>2023-09-03T06:42:22Z</time>
      </trkpt>
      <trkpt lat="48.14036" lon="6.65482">
        <ele>456.2</ele>
        <time>2023-09-03T06:42:23Z</time>
      </trkpt>
      <trkpt lat="48.14035" lon="6.65487">
        <ele>456.4</ele>
        <time>2023-09-03T06:42:24Z</time>
      </trkpt>
      <trkpt lat="48.14035" lon="6.65492">
        <ele>456.8</ele>
        <time>2023-09-03T06:42:25Z</time>
      </trkpt>
      <trkpt lat="48.14035" lon="6.65498">
        <ele>457.2</ele>
        <time>2023-09-03T06:42:26Z</time>
      </trkpt>
      <trkpt lat="48.14034" lon="6.65503">
        <ele>457.4</ele>
        <time>2023-09-03T06:42:27Z</time>
      </trkpt>
      <trkpt lat="48.14034" lon="6.65508">
        <ele>457.8</ele>
        <time>2023-09-03T06:42:28Z</time>
      </trkpt>
      <trkpt lat="48.14033" lon="6.65513">
        <ele>458</ele>
        <time>2023-09-03T06:42:29Z</time>
      </trkpt>
      <trkpt lat="48.14033" lon="6.65518">
        <ele>458.4</ele>
        <time>2023-09-03T06:42:30Z</time>
      </trkpt>
      <trkpt lat="48.14033" lon="6.65524">
        <ele>458.6</ele>
        <time>2023-09-03T06:42:31Z</time>
      </trkpt>
      <trkpt lat="48.14032" lon="6.65529">
        <ele>459</ele>
        <time>2023-09-03T06:42:32Z</time>
      </trkpt>
      <trkpt lat="48.14032" lon="6.65534">
        <ele>459.2</ele>
        <time>2023-09-03T06:42:33Z</time>
      </trkpt>
      <trkpt lat="48.14031" lon="6.6554">
        <ele>459.2</ele>
        <time>2023-09-03T06:42:34Z</time>
      </trkpt>
      <trkpt lat="48.1403" lon="6.65546">
        <ele>459.4</ele>
        <time>2023-09-03T06:42:35Z</time>
      </trkpt>
      <trkpt lat="48.14029" lon="6.65553">
        <ele>459.4</ele>
        <time>2023-09-03T06:42:36Z</time>
      </trkpt>
      <trkpt lat="48.14028" lon="6.65559">
        <ele>459.8</ele>
        <time>2023-09-03T06:42:37Z</time>
      </trkpt>
      <trkpt lat="48.14027" lon="6.65565">
        <ele>459.8</ele>
        <time>2023-09-03T06:42:38Z</time>
      </trkpt>
      <trkpt lat="48.14026" lon="6.65571">
        <ele>460</ele>
        <time>2023-09-03T06:42:39Z</time>
      </trkpt>
      <trkpt lat="48.14025" lon="6.65578">
        <ele>460.2</ele>
        <time>2023-09-03T06:42:40Z</time>
      </trkpt>
      <trkpt lat="48.14024" lon="6.65585">
        <ele>460.4</ele>
        <time>2023-09-03T06:42:41Z</time>
      </trkpt>
      <trkpt lat="48.14023" lon="6.65592">
        <ele>460.4</ele>
        <time>2023-09-03T06:42:42Z</time>
      </trkpt>
      <trkpt lat="48.14022" lon="6.65599">
        <ele>460.4</ele>
        <time>2023-09-03T06:42:43Z</time>
      </trkpt>
      <trkpt lat="48.14021" lon="6.65606">
        <ele>460.4</ele>
        <time>2023-09-03T06:42:44Z</time>
      </trkpt>
      <trkpt lat="48.1402" lon="6.65613">
        <ele>460.6</ele>
        <time>2023-09-03T06:42:45Z</time>
      </trkpt>
      <trkpt lat="48.14019" lon="6.6562">
        <ele>460.6</ele>
        <time>2023-09-03T06:42:46Z</time>
      </trkpt>
      <trkpt lat="48.14018" lon="6.65627">
        <ele>460.6</ele>
        <time>2023-09-03T06:42:47Z</time>
      </trkpt>
      <trkpt lat="48.14017" lon="6.65635">
        <ele>460.6</ele>
        <time>2023-09-03T06:42:48Z</time>
      </trkpt>
      <trkpt lat="48.14016" lon="6.65642">
        <ele>460.6</ele>
        <time>2023-09-03T06:42:49Z</time>
      </trkpt>
      <trkpt lat="48.14016" lon="6.65649">
        <ele>460.6</ele>
        <time>2023-09-03T06:42:50Z</time>
      </trkpt>
      <trkpt lat="48.14015" lon="6.65656">
        <ele>460.6</ele>
        <time>2023-09-03T06:42:51Z</time>
      </trkpt>
      <trkpt lat="48.14014" lon="6.65664">
        <ele>460.6</ele>
        <time>2023-09-03T06:42:52Z</time>
      </trkpt>
      <trkpt lat="48.14013" lon="6.65671">
        <ele>460.6</ele>
        <time>2023-09-03T06:42:53Z</time>
      </trkpt>
      <trkpt lat="48.14012" lon="6.65678">
        <ele>460.4</ele>
        <time>2023-09-03T06:42:54Z</time>
      </trkpt>
      <trkpt lat="48.14012" lon="6.65686">
        <ele>460.4</ele>
        <time>2023-09-03T06:42:55Z</time>
      </trkpt>
      <trkpt lat="48.14011" lon="6.65693">
        <ele>460.4</ele>
        <time>2023-09-03T06:42:56Z</time>
      </trkpt>
      <trkpt lat="48.14011" lon="6.65701">
        <ele>460.4</ele>
        <time>2023-09-03T06:42:57Z</time>
      </trkpt>
      <trkpt lat="48.1401" lon="6.6571">
        <ele>460.2</ele>
        <time>2023-09-03T06:42:58Z</time>
      </trkpt>
      <trkpt lat="48.1401" lon="6.65718">
        <ele>460.2</ele>
        <time>2023-09-03T06:42:59Z</time>
      </trkpt>
      <trkpt lat="48.14009" lon="6.65727">
        <ele>460</ele>
        <time>2023-09-03T06:43:00Z</time>
      </trkpt>
      <trkpt lat="48.14009" lon="6.65736">
        <ele>460</ele>
        <time>2023-09-03T06:43:01Z</time>
      </trkpt>
      <trkpt lat="48.14009" lon="6.65746">
        <ele>459.8</ele>
        <time>2023-09-03T06:43:02Z</time>
      </trkpt>
      <trkpt lat="48.14009" lon="6.65755">
        <ele>459.8</ele>
        <time>2023-09-03T06:43:03Z</time>
      </trkpt>
      <trkpt lat="48.1401" lon="6.65765">
        <ele>459.6</ele>
        <time>2023-09-03T06:43:04Z</time>
      </trkpt>
      <trkpt lat="48.14011" lon="6.65774">
        <ele>459.4</ele>
        <time>2023-09-03T06:43:05Z</time>
      </trkpt>
      <trkpt lat="48.14011" lon="6.65783">
        <ele>459.2</ele>
        <time>2023-09-03T06:43:06Z</time>
      </trkpt>
      <trkpt lat="48.14012" lon="6.65792">
        <ele>458.8</ele>
        <time>2023-09-03T06:43:07Z</time>
      </trkpt>
      <trkpt lat="48.14014" lon="6.658">
        <ele>458.8</ele>
        <time>2023-09-03T06:43:08Z</time>
      </trkpt>
      <trkpt lat="48.14015" lon="6.65809">
        <ele>458.4</ele>
        <time>2023-09-03T06:43:09Z</time>
      </trkpt>
      <trkpt lat="48.14016" lon="6.65817">
        <ele>458.4</ele>
        <time>2023-09-03T06:43:10Z</time>
      </trkpt>
      <trkpt lat="48.14017" lon="6.65826">
        <ele>458.2</ele>
        <time>2023-09-03T06:43:11Z</time>
      </trkpt>
      <trkpt lat="48.14018" lon="6.65834">
        <ele>458.2</ele>
        <time>2023-09-03T06:43:12Z</time>
      </trkpt>
      <trkpt lat="48.14019" lon="6.65843">
        <ele>458.2</ele>
        <time>2023-09-03T06:43:13Z</time>
      </trkpt>
      <trkpt lat="48.1402" lon="6.65851">
        <ele>458</ele>
        <time>2023-09-03T06:43:14Z</time>
      </trkpt>
      <trkpt lat="48.14021" lon="6.65859">
        <ele>458</ele>
        <time>2023-09-03T06:43:15Z</time>
      </trkpt>
      <trkpt lat="48.14022" lon="6.65868">
        <ele>458</ele>
        <time>2023-09-03T06:43:16Z</time>
      </trkpt>
      <trkpt lat="48.14023" lon="6.65876">
        <ele>458</ele>
        <time>2023-09-03T06:43:17Z</time>
      </trkpt>
      <trkpt lat="48.14024" lon="6.65883">
        <ele>458</ele>
        <time>2023-09-03T06:43:18Z</time>
      </trkpt>
      <trkpt lat="48.14025" lon="6.65891">
        <ele>457.8</ele>
        <time>2023-09-03T06:43:19Z</time>
      </trkpt>
      <trkpt lat="48.14026" lon="6.65899">
        <ele>457.8</ele>
        <time>2023-09-03T06:43:20Z</time>
      </trkpt>
      <trkpt lat="48.14027" lon="6.65906">
        <ele>457.8</ele>
        <time>2023-09-03T06:43:21Z</time>
      </trkpt>
      <trkpt lat="48.14029" lon="6.65913">
        <ele>457.8</ele>
        <time>2023-09-03T06:43:22Z</time>
      </trkpt>
      <trkpt lat="48.1403" lon="6.6592">
        <ele>457.8</ele>
        <time>2023-09-03T06:43:23Z</time>
      </trkpt>
      <trkpt lat="48.14031" lon="6.65928">
        <ele>457.8</ele>
        <time>2023-09-03T06:43:24Z</time>
      </trkpt>
      <trkpt lat="48.14032" lon="6.65935">
        <ele>458</ele>
        <time>2023-09-03T06:43:25Z</time>
      </trkpt>
      <trkpt lat="48.14033" lon="6.65942">
        <ele>458.2</ele>
        <time>2023-09-03T06:43:26Z</time>
      </trkpt>
      <trkpt lat="48.14035" lon="6.65949">
        <ele>458.2</ele>
        <time>2023-09-03T06:43:27Z</time>
      </trkpt>
      <trkpt lat="48.14037" lon="6.65955">
        <ele>458.2</ele>
        <time>2023-09-03T06:43:28Z</time>
      </trkpt>
      <trkpt lat="48.14038" lon="6.65962">
        <ele>458.2</ele>
        <time>2023-09-03T06:43:29Z</time>
      </trkpt>
      <trkpt lat="48.1404" lon="6.65969">
        <ele>458.6</ele>
        <time>2023-09-03T06:43:30Z</time>
      </trkpt>
      <trkpt lat="48.14041" lon="6.65975">
        <ele>458.6</ele>
        <time>2023-09-03T06:43:31Z</time>
      </trkpt>
      <trkpt lat="48.14043" lon="6.65982">
        <ele>458.8</ele>
        <time>2023-09-03T06:43:32Z</time>
      </trkpt>
      <trkpt lat="48.14045" lon="6.65989">
        <ele>458.8</ele>
        <time>2023-09-03T06:43:33Z</time>
      </trkpt>
      <trkpt lat="48.14047" lon="6.65997">
        <ele>459</ele>
        <time>2023-09-03T06:43:34Z</time>
      </trkpt>
      <trkpt lat="48.14049" lon="6.66004">
        <ele>459.2</ele>
        <time>2023-09-03T06:43:35Z</time>
      </trkpt>
      <trkpt lat="48.1405" lon="6.66011">
        <ele>459.2</ele>
        <time>2023-09-03T06:43:36Z</time>
      </trkpt>
      <trkpt lat="48.14052" lon="6.66018">
        <ele>459.2</ele>
        <time>2023-09-03T06:43:37Z</time>
      </trkpt>
      <trkpt lat="48.14054" lon="6.66025">
        <ele>459.4</ele>
        <time>2023-09-03T06:43:38Z</time>
      </trkpt>
      <trkpt lat="48.14055" lon="6.66032">
        <ele>459.4</ele>
        <time>2023-09-03T06:43:39Z</time>
      </trkpt>
      <trkpt lat="48.14057" lon="6.66038">
        <ele>459.4</ele>
        <time>2023-09-03T06:43:40Z</time>
      </trkpt>
      <trkpt lat="48.14059" lon="6.66045">
        <ele>459.4</ele>
        <time>2023-09-03T06:43:41Z</time>
      </trkpt>
      <trkpt lat="48.14061" lon="6.66051">
        <ele>459.4</ele>
        <time>2023-09-03T06:43:42Z</time>
      </trkpt>
      <trkpt lat="48.14062" lon="6.66057">
        <ele>459.6</ele>
        <time>2023-09-03T06:43:43Z</time>
      </trkpt>
      <trkpt lat="48.14064" lon="6.66063">
        <ele>459.6</ele>
        <time>2023-09-03T06:43:44Z</time>
      </trkpt>
      <trkpt lat="48.14065" lon="6.6607">
        <ele>459.8</ele>
        <time>2023-09-03T06:43:45Z</time>
      </trkpt>
      <trkpt lat="48.14067" lon="6.66076">
        <ele>459.8</ele>
        <time>2023-09-03T06:43:46Z</time>
      </trkpt>
      <trkpt lat="48.14069" lon="6.66082">
        <ele>460</ele>
        <time>2023-09-03T06:43:47Z</time>
      </trkpt>
      <trkpt lat="48.1407" lon="6.66087">
        <ele>460</ele>
        <time>2023-09-03T06:43:48Z</time>
      </trkpt>
      <trkpt lat="48.14072" lon="6.66093">
        <ele>460.2</ele>
        <time>2023-09-03T06:43:49Z</time>
      </trkpt>
      <trkpt lat="48.14073" lon="6.66099">
        <ele>460.4</ele>
        <time>2023-09-03T06:43:50Z</time>
      </trkpt>
      <trkpt lat="48.14075" lon="6.66104">
        <ele>460.4</ele>
        <time>2023-09-03T06:43:51Z</time>
      </trkpt>
      <trkpt lat="48.14077" lon="6.66109">
        <ele>460.6</ele>
        <time>2023-09-03T06:43:52Z</time>
      </trkpt>
      <trkpt lat="48.1408" lon="6.66112">
        <ele>460.6</ele>
        <time>2023-09-03T06:43:53Z</time>
      </trkpt>
      <trkpt lat="48.14084" lon="6.66113">
        <ele>460.8</ele>
        <time>2023-09-03T06:43:54Z</time>
      </trkpt>
      <trkpt lat="48.14087" lon="6.66111">
        <ele>460.8</ele>
        <time>2023-09-03T06:43:55Z</time>
      </trkpt>
      <trkpt lat="48.1409" lon="6.66109">
        <ele>460.8</ele>
        <time>2023-09-03T06:43:56Z</time>
      </trkpt>
      <trkpt lat="48.14092" lon="6.66106">
        <ele>461</ele>
        <time>2023-09-03T06:43:57Z</time>
      </trkpt>
      <trkpt lat="48.14094" lon="6.66104">
        <ele>461.4</ele>
        <time>2023-09-03T06:43:58Z</time>
      </trkpt>
      <trkpt lat="48.14096" lon="6.66102">
        <ele>461.6</ele>
        <time>2023-09-03T06:43:59Z</time>
      </trkpt>
      <trkpt lat="48.14098" lon="6.661">
        <ele>462.2</ele>
        <time>2023-09-03T06:44:00Z</time>
      </trkpt>
      <trkpt lat="48.141" lon="6.66098">
        <ele>462.4</ele>
        <time>2023-09-03T06:44:01Z</time>
      </trkpt>
      <trkpt lat="48.14102" lon="6.66097">
        <ele>462.6</ele>
        <time>2023-09-03T06:44:02Z</time>
      </trkpt>
      <trkpt lat="48.14104" lon="6.66095">
        <ele>462.8</ele>
        <time>2023-09-03T06:44:03Z</time>
      </trkpt>
      <trkpt lat="48.14107" lon="6.66094">
        <ele>462.8</ele>
        <time>2023-09-03T06:44:04Z</time>
      </trkpt>
      <trkpt lat="48.14109" lon="6.66092">
        <ele>463.2</ele>
        <time>2023-09-03T06:44:05Z</time>
      </trkpt>
      <trkpt lat="48.14111" lon="6.6609">
        <ele>463.4</ele>
        <time>2023-09-03T06:44:06Z</time>
      </trkpt>
      <trkpt lat="48.14113" lon="6.66089">
        <ele>463.8</ele>
        <time>2023-09-03T06:44:07Z</time>
      </trkpt>
      <trkpt lat="48.14115" lon="6.66087">
        <ele>464</ele>
        <time>2023-09-03T06:44:08Z</time>
      </trkpt>
      <trkpt lat="48.14118" lon="6.66086">
        <ele>464.4</ele>
        <time>2023-09-03T06:44:09Z</time>
      </trkpt>
      <trkpt lat="48.1412" lon="6.66085">
        <ele>464.4</ele>
        <time>2023-09-03T06:44:10Z</time>
      </trkpt>
      <trkpt lat="48.14122" lon="6.66084">
        <ele>465</ele>
        <time>2023-09-03T06:44:11Z</time>
      </trkpt>
      <trkpt lat="48.14124" lon="6.66083">
        <ele>465.2</ele>
        <time>2023-09-03T06:44:12Z</time>
      </trkpt>
      <trkpt lat="48.14126" lon="6.66082">
        <ele>465.8</ele>
        <time>2023-09-03T06:44:13Z</time>
      </trkpt>
      <trkpt lat="48.14128" lon="6.66082">
        <ele>466</ele>
        <time>2023-09-03T06:44:14Z</time>
      </trkpt>
      <trkpt lat="48.1413" lon="6.66081">
        <ele>466.4</ele>
        <time>2023-09-03T06:44:15Z</time>
      </trkpt>
      <trkpt lat="48.14132" lon="6.66081">
        <ele>466.6</ele>
        <time>2023-09-03T06:44:16Z</time>
      </trkpt>
      <trkpt lat="48.14134" lon="6.66082">
        <ele>466.8</ele>
        <time>2023-09-03T06:44:17Z</time>
      </trkpt>
      <trkpt lat="48.14136" lon="6.66082">
        <ele>467</ele>
        <time>2023-09-03T06:44:18Z</time>
      </trkpt>
      <trkpt lat="48.14137" lon="6.66083">
        <ele>467.2</ele>
        <time>2023-09-03T06:44:19Z</time>
      </trkpt>
      <trkpt lat="48.14139" lon="6.66084">
        <ele>467.8</ele>
        <time>2023-09-03T06:44:20Z</time>
      </trkpt>
      <trkpt lat="48.14141" lon="6.66085">
        <ele>468.2</ele>
        <time>2023-09-03T06:44:21Z</time>
      </trkpt>
      <trkpt lat="48.14142" lon="6.66086">
        <ele>468.6</ele>
        <time>2023-09-03T06:44:22Z</time>
      </trkpt>
      <trkpt lat="48.14144" lon="6.66088">
        <ele>468.8</ele>
        <time>2023-09-03T06:44:23Z</time>
      </trkpt>
      <trkpt lat="48.14146" lon="6.66089">
        <ele>469.2</ele>
        <time>2023-09-03T06:44:24Z</time>
      </trkpt>
      <trkpt lat="48.14147" lon="6.6609">
        <ele>469.4</ele>
        <time>2023-09-03T06:44:25Z</time>
      </trkpt>
      <trkpt lat="48.14149" lon="6.66091">
        <ele>470</ele>
        <time>2023-09-03T06:44:26Z</time>
      </trkpt>
      <trkpt lat="48.1415" lon="6.66093">
        <ele>470.4</ele>
        <time>2023-09-03T06:44:27Z</time>
      </trkpt>
      <trkpt lat="48.14152" lon="6.66094">
        <ele>471</ele>
        <time>2023-09-03T06:44:28Z</time>
      </trkpt>
      <trkpt lat="48.14154" lon="6.66095">
        <ele>471.2</ele>
        <time>2023-09-03T06:44:29Z</time>
      </trkpt>
      <trkpt lat="48.14155" lon="6.66097">
        <ele>471.6</ele>
        <time>2023-09-03T06:44:30Z</time>
      </trkpt>
      <trkpt lat="48.14157" lon="6.66098">
        <ele>471.8</ele>
        <time>2023-09-03T06:44:31Z</time>
      </trkpt>
      <trkpt lat="48.14158" lon="6.66098">
        <ele>471.8</ele>
        <time>2023-09-03T06:44:32Z</time>
      </trkpt>
      <trkpt lat="48.1416" lon="6.66099">
        <ele>472.2</ele>
        <time>2023-09-03T06:44:33Z</time>
      </trkpt>
      <trkpt lat="48.14161" lon="6.661">
        <ele>472.4</ele>
        <time>2023-09-03T06:44:34Z</time>
      </trkpt>
      <trkpt lat="48.14163" lon="6.661">
        <ele>472.6</ele>
        <time>2023-09-03T06:44:35Z</time>
      </trkpt>
      <trkpt lat="48.14165" lon="6.661">
        <ele>472.8</ele>
        <time>2023-09-03T06:44:36Z</time>
      </trkpt>
      <trkpt lat="48.14166" lon="6.661">
        <ele>473.4</ele>
        <time>2023-09-03T06:44:37Z</time>
      </trkpt>
      <trkpt lat="48.14167" lon="6.66099">
        <ele>473.6</ele>
        <time>2023-09-03T06:44:38Z</time>
      </trkpt>
      <trkpt lat="48.14168" lon="6.66098">
        <ele>474</ele>
        <time>2023-09-03T06:44:39Z</time>
      </trkpt>
      <trkpt lat="48.14169" lon="6.66097">
        <ele>474.2</ele>
        <time>2023-09-03T06:44:40Z</time>
      </trkpt>
      <trkpt lat="48.1417" lon="6.66096">
        <ele>474.4</ele>
        <time>2023-09-03T06:44:41Z</time>
      </trkpt>
      <trkpt lat="48.14171" lon="6.66094">
        <ele>474.6</ele>
        <time>2023-09-03T06:44:42Z</time>
      </trkpt>
      <trkpt lat="48.14173" lon="6.66093">
        <ele>475</ele>
        <time>2023-09-03T06:44:43Z</time>
      </trkpt>
      <trkpt lat="48.14174" lon="6.66092">
        <ele>475.2</ele>
        <time>2023-09-03T06:44:44Z</time>
      </trkpt>
      <trkpt lat="48.14175" lon="6.66089">
        <ele>475.6</ele>
        <time>2023-09-03T06:44:45Z</time>
      </trkpt>
      <trkpt lat="48.14176" lon="6.66087">
        <ele>475.8</ele>
        <time>2023-09-03T06:44:46Z</time>
      </trkpt>
      <trkpt lat="48.14178" lon="6.66085">
        <ele>476.2</ele>
        <time>2023-09-03T06:44:47Z</time>
      </trkpt>
      <trkpt lat="48.14179" lon="6.66082">
        <ele>476.6</ele>
        <time>2023-09-03T06:44:48Z</time>
      </trkpt>
      <trkpt lat="48.1418" lon="6.66081">
        <ele>476.8</ele>
        <time>2023-09-03T06:44:49Z</time>
      </trkpt>
      <trkpt lat="48.14181" lon="6.66079">
        <ele>477.2</ele>
        <time>2023-09-03T06:44:50Z</time>
      </trkpt>
      <trkpt lat="48.14182" lon="6.66078">
        <ele>477.4</ele>
        <time>2023-09-03T06:44:51Z</time>
      </trkpt>
      <trkpt lat="48.14183" lon="6.66076">
        <ele>478</ele>
        <time>2023-09-03T06:44:52Z</time>
      </trkpt>
      <trkpt lat="48.14184" lon="6.66076">
        <ele>478.2</ele>
        <time>2023-09-03T06:44:53Z</time>
      </trkpt>
      <trkpt lat="48.14185" lon="6.66075">
        <ele>478.4</ele>
        <time>2023-09-03T06:44:54Z</time>
      </trkpt>
      <trkpt lat="48.14186" lon="6.66074">
        <ele>478.6</ele>
        <time>2023-09-03T06:44:55Z</time>
      </trkpt>
      <trkpt lat="48.14188" lon="6.66073">
        <ele>478.8</ele>
        <time>2023-09-03T06:44:56Z</time>
      </trkpt>
      <trkpt lat="48.14189" lon="6.66072">
        <ele>479</ele>
        <time>2023-09-03T06:44:57Z</time>
      </trkpt>
      <trkpt lat="48.14191" lon="6.66072">
        <ele>479.4</ele>
        <time>2023-09-03T06:44:58Z</time>
      </trkpt>
      <trkpt lat="48.14193" lon="6.66072">
        <ele>480</ele>
        <time>2023-09-03T06:44:59Z</time>
      </trkpt>
      <trkpt lat="48.14195" lon="6.66072">
        <ele>480.4</ele>
        <time>2023-09-03T06:45:00Z</time>
      </trkpt>
      <trkpt lat="48.14196" lon="6.66072">
        <ele>480.8</ele>
        <time>2023-09-03T06:45:01Z</time>
      </trkpt>
      <trkpt lat="48.14197" lon="6.66072">
        <ele>481</ele>
        <time>2023-09-03T06:45:02Z</time>
      </trkpt>
      <trkpt lat="48.14198" lon="6.66072">
        <ele>481.2</ele>
        <time>2023-09-03T06:45:03Z</time>
      </trkpt>
      <trkpt lat="48.142" lon="6.66072">
        <ele>481.4</ele>
        <time>2023-09-03T06:45:04Z</time>
      </trkpt>
      <trkpt lat="48.14201" lon="6.66072">
        <ele>482</ele>
        <time>2023-09-03T06:45:05Z</time>
      </trkpt>
      <trkpt lat="48.14202" lon="6.66071">
        <ele>482.2</ele>
        <time>2023-09-03T06:45:06Z</time>
      </trkpt>
      <trkpt lat="48.14203" lon="6.66071">
        <ele>482.6</ele>
        <time>2023-09-03T06:45:07Z</time>
      </trkpt>
      <trkpt lat="48.14204" lon="6.66071">
        <ele>482.8</ele>
        <time>2023-09-03T06:45:08Z</time>
      </trkpt>
      <trkpt lat="48.14205" lon="6.66072">
        <ele>483</ele>
        <time>2023-09-03T06:45:09Z</time>
      </trkpt>
      <trkpt lat="48.14206" lon="6.66071">
        <ele>483.2</ele>
        <time>2023-09-03T06:45:10Z</time>
      </trkpt>
      <trkpt lat="48.14207" lon="6.66071">
        <ele>483.4</ele>
        <time>2023-09-03T06:45:11Z</time>
      </trkpt>
      <trkpt lat="48.14208" lon="6.66073">
        <ele>483.4</ele>
        <time>2023-09-03T06:45:12Z</time>
      </trkpt>
      <trkpt lat="48.14208" lon="6.66075">
        <ele>483.8</ele>
        <time>2023-09-03T06:45:13Z</time>
      </trkpt>
      <trkpt lat="48.14208" lon="6.66077">
        <ele>484.4</ele>
        <time>2023-09-03T06:45:14Z</time>
      </trkpt>
      <trkpt lat="48.14209" lon="6.66079">
        <ele>484.8</ele>
        <time>2023-09-03T06:45:15Z</time>
      </trkpt>
      <trkpt lat="48.14209" lon="6.66081">
        <ele>485</ele>
        <time>2023-09-03T06:45:16Z</time>
      </trkpt>
      <trkpt lat="48.1421" lon="6.66084">
        <ele>485.2</ele>
        <time>2023-09-03T06:45:17Z</time>
      </trkpt>
      <trkpt lat="48.1421" lon="6.66086">
        <ele>485.4</ele>
        <time>2023-09-03T06:45:18Z</time>
      </trkpt>
      <trkpt lat="48.14209" lon="6.66089">
        <ele>485.4</ele>
        <time>2023-09-03T06:45:19Z</time>
      </trkpt>
      <trkpt lat="48.14209" lon="6.66092">
        <ele>486</ele>
        <time>2023-09-03T06:45:20Z</time>
      </trkpt>
      <trkpt lat="48.14209" lon="6.66093">
        <ele>486.2</ele>
        <time>2023-09-03T06:45:21Z</time>
      </trkpt>
      <trkpt lat="48.14208" lon="6.66094">
        <ele>486.6</ele>
        <time>2023-09-03T06:45:22Z</time>
      </trkpt>
      <trkpt lat="48.14209" lon="6.66096">
        <ele>486.8</ele>
        <time>2023-09-03T06:45:23Z</time>
      </trkpt>
      <trkpt lat="48.1421" lon="6.66099">
        <ele>487.4</ele>
        <time>2023-09-03T06:45:24Z</time>
      </trkpt>
      <trkpt lat="48.14212" lon="6.66101">
        <ele>487.6</ele>
        <time>2023-09-03T06:45:25Z</time>
      </trkpt>
      <trkpt lat="48.14212" lon="6.66103">
        <ele>488</ele>
        <time>2023-09-03T06:45:26Z</time>
      </trkpt>
      <trkpt lat="48.14213" lon="6.66106">
        <ele>488.2</ele>
        <time>2023-09-03T06:45:27Z</time>
      </trkpt>
      <trkpt lat="48.14214" lon="6.66108">
        <ele>488.2</ele>
        <time>2023-09-03T06:45:28Z</time>
      </trkpt>
      <trkpt lat="48.14214" lon="6.6611">
        <ele>488.6</ele>
        <time>2023-09-03T06:45:29Z</time>
      </trkpt>
      <trkpt lat="48.14214" lon="6.66112">
        <ele>488.6</ele>
        <time>2023-09-03T06:45:30Z</time>
      </trkpt>
      <trkpt lat="48.14214" lon="6.66115">
        <ele>489</ele>
        <time>2023-09-03T06:45:31Z</time>
      </trkpt>
      <trkpt lat="48.14215" lon="6.66117">
        <ele>489.2</ele>
        <time>2023-09-03T06:45:32Z</time>
      </trkpt>
      <trkpt lat="48.14216" lon="6.66119">
        <ele>489.6</ele>
        <time>2023-09-03T06:45:33Z</time>
      </trkpt>
      <trkpt lat="48.14216" lon="6.66121">
        <ele>489.6</ele>
        <time>2023-09-03T06:45:34Z</time>
      </trkpt>
      <trkpt lat="48.14216" lon="6.66123">
        <ele>490</ele>
        <time>2023-09-03T06:45:35Z</time>
      </trkpt>
      <trkpt lat="48.14216" lon="6.66124">
        <ele>490.2</ele>
        <time>2023-09-03T06:45:36Z</time>
      </trkpt>
      <trkpt lat="48.14216" lon="6.66127">
        <ele>490.6</ele>
        <time>2023-09-03T06:45:37Z</time>
      </trkpt>
      <trkpt lat="48.14216" lon="6.66129">
        <ele>490.8</ele>
        <time>2023-09-03T06:45:38Z</time>
      </trkpt>
      <trkpt lat="48.14216" lon="6.66131">
        <ele>491</ele>
        <time>2023-09-03T06:45:39Z</time>
      </trkpt>
      <trkpt lat="48.14216" lon="6.66134">
        <ele>491.4</ele>
        <time>2023-09-03T06:45:40Z</time>
      </trkpt>
      <trkpt lat="48.14216" lon="6.66136">
        <ele>491.8</ele>
        <time>2023-09-03T06:45:41Z</time>
      </trkpt>
      <trkpt lat="48.14216" lon="6.66139">
        <ele>492.2</ele>
        <time>2023-09-03T06:45:42Z</time>
      </trkpt>
      <trkpt lat="48.14215" lon="6.66142">
        <ele>492.2</ele>
        <time>2023-09-03T06:45:43Z</time>
      </trkpt>
      <trkpt lat="48.14214" lon="6.66145">
        <ele>492.6</ele>
        <time>2023-09-03T06:45:44Z</time>
      </trkpt>
      <trkpt lat="48.14213" lon="6.66148">
        <ele>492.8</ele>
        <time>2023-09-03T06:45:45Z</time>
      </trkpt>
      <trkpt lat="48.14212" lon="6.66152">
        <ele>493</ele>
        <time>2023-09-03T06:45:46Z</time>
      </trkpt>
      <trkpt lat="48.14211" lon="6.66155">
        <ele>493.2</ele>
        <time>2023-09-03T06:45:47Z</time>
      </trkpt>
      <trkpt lat="48.14209" lon="6.66159">
        <ele>493.4</ele>
        <time>2023-09-03T06:45:48Z</time>
      </trkpt>
      <trkpt lat="48.14209" lon="6.66163">
        <ele>493.4</ele>
        <time>2023-09-03T06:45:49Z</time>
      </trkpt>
      <trkpt lat="48.14208" lon="6.66167">
        <ele>493.4</ele>
        <time>2023-09-03T06:45:50Z</time>
      </trkpt>
      <trkpt lat="48.14206" lon="6.66171">
        <ele>493.6</ele>
        <time>2023-09-03T06:45:51Z</time>
      </trkpt>
      <trkpt lat="48.14205" lon="6.66175">
        <ele>493.6</ele>
        <time>2023-09-03T06:45:52Z</time>
      </trkpt>
      <trkpt lat="48.14204" lon="6.6618">
        <ele>493.6</ele>
        <time>2023-09-03T06:45:53Z</time>
      </trkpt>
      <trkpt lat="48.14203" lon="6.66185">
        <ele>493.6</ele>
        <time>2023-09-03T06:45:54Z</time>
      </trkpt>
      <trkpt lat="48.14202" lon="6.66191">
        <ele>493.6</ele>
        <time>2023-09-03T06:45:55Z</time>
      </trkpt>
      <trkpt lat="48.14202" lon="6.66197">
        <ele>493.6</ele>
        <time>2023-09-03T06:45:56Z</time>
      </trkpt>
      <trkpt lat="48.14201" lon="6.66203">
        <ele>493.6</ele>
        <time>2023-09-03T06:45:57Z</time>
      </trkpt>
      <trkpt lat="48.142" lon="6.66209">
        <ele>493.6</ele>
        <time>2023-09-03T06:45:58Z</time>
      </trkpt>
      <trkpt lat="48.142" lon="6.66215">
        <ele>493.6</ele>
        <time>2023-09-03T06:45:59Z</time>
      </trkpt>
      <trkpt lat="48.14199" lon="6.66221">
        <ele>493.6</ele>
        <time>2023-09-03T06:46:00Z</time>
      </trkpt>
      <trkpt lat="48.14197" lon="6.66227">
        <ele>493.6</ele>
        <time>2023-09-03T06:46:01Z</time>
      </trkpt>
      <trkpt lat="48.14197" lon="6.66233">
        <ele>493.6</ele>
        <time>2023-09-03T06:46:02Z</time>
      </trkpt>
      <trkpt lat="48.14196" lon="6.6624">
        <ele>493.4</ele>
        <time>2023-09-03T06:46:03Z</time>
      </trkpt>
      <trkpt lat="48.14195" lon="6.66246">
        <ele>493.4</ele>
        <time>2023-09-03T06:46:04Z</time>
      </trkpt>
      <trkpt lat="48.14194" lon="6.66253">
        <ele>493.2</ele>
        <time>2023-09-03T06:46:05Z</time>
      </trkpt>
      <trkpt lat="48.14193" lon="6.66259">
        <ele>493.2</ele>
        <time>2023-09-03T06:46:06Z</time>
      </trkpt>
      <trkpt lat="48.14193" lon="6.66266">
        <ele>493</ele>
        <time>2023-09-03T06:46:07Z</time>
      </trkpt>
      <trkpt lat="48.14192" lon="6.66273">
        <ele>493</ele>
        <time>2023-09-03T06:46:08Z</time>
      </trkpt>
      <trkpt lat="48.14191" lon="6.66279">
        <ele>492.8</ele>
        <time>2023-09-03T06:46:09Z</time>
      </trkpt>
      <trkpt lat="48.1419" lon="6.66285">
        <ele>492.6</ele>
        <time>2023-09-03T06:46:10Z</time>
      </trkpt>
      <trkpt lat="48.14189" lon="6.66291">
        <ele>492.4</ele>
        <time>2023-09-03T06:46:11Z</time>
      </trkpt>
      <trkpt lat="48.14187" lon="6.66298">
        <ele>492.2</ele>
        <time>2023-09-03T06:46:12Z</time>
      </trkpt>
      <trkpt lat="48.14186" lon="6.66304">
        <ele>492.2</ele>
        <time>2023-09-03T06:46:13Z</time>
      </trkpt>
      <trkpt lat="48.14185" lon="6.6631">
        <ele>492.2</ele>
        <time>2023-09-03T06:46:14Z</time>
      </trkpt>
      <trkpt lat="48.14184" lon="6.66316">
        <ele>492.2</ele>
        <time>2023-09-03T06:46:15Z</time>
      </trkpt>
      <trkpt lat="48.14183" lon="6.66323">
        <ele>492.2</ele>
        <time>2023-09-03T06:46:16Z</time>
      </trkpt>
      <trkpt lat="48.14182" lon="6.6633">
        <ele>492.2</ele>
        <time>2023-09-03T06:46:17Z</time>
      </trkpt>
      <trkpt lat="48.14181" lon="6.66337">
        <ele>492.2</ele>
        <time>2023-09-03T06:46:18Z</time>
      </trkpt>
      <trkpt lat="48.1418" lon="6.66344">
        <ele>492</ele>
        <time>2023-09-03T06:46:19Z</time>
      </trkpt>
      <trkpt lat="48.14179" lon="6.66352">
        <ele>492</ele>
        <time>2023-09-03T06:46:20Z</time>
      </trkpt>
      <trkpt lat="48.14178" lon="6.66359">
        <ele>492</ele>
        <time>2023-09-03T06:46:21Z</time>
      </trkpt>
      <trkpt lat="48.14177" lon="6.66365">
        <ele>492</ele>
        <time>2023-09-03T06:46:22Z</time>
      </trkpt>
      <trkpt lat="48.14176" lon="6.66372">
        <ele>491.8</ele>
        <time>2023-09-03T06:46:23Z</time>
      </trkpt>
      <trkpt lat="48.14175" lon="6.66378">
        <ele>491.8</ele>
        <time>2023-09-03T06:46:24Z</time>
      </trkpt>
      <trkpt lat="48.14175" lon="6.66385">
        <ele>491.8</ele>
        <time>2023-09-03T06:46:25Z</time>
      </trkpt>
      <trkpt lat="48.14174" lon="6.66391">
        <ele>491.8</ele>
        <time>2023-09-03T06:46:26Z</time>
      </trkpt>
      <trkpt lat="48.14173" lon="6.66397">
        <ele>491.8</ele>
        <time>2023-09-03T06:46:27Z</time>
      </trkpt>
      <trkpt lat="48.14173" lon="6.66403">
        <ele>491.6</ele>
        <time>2023-09-03T06:46:28Z</time>
      </trkpt>
      <trkpt lat="48.14173" lon="6.66408">
        <ele>491.6</ele>
        <time>2023-09-03T06:46:29Z</time>
      </trkpt>
      <trkpt lat="48.14172" lon="6.66413">
        <ele>491.6</ele>
        <time>2023-09-03T06:46:30Z</time>
      </trkpt>
      <trkpt lat="48.14172" lon="6.66419">
        <ele>491.4</ele>
        <time>2023-09-03T06:46:31Z</time>
      </trkpt>
      <trkpt lat="48.14172" lon="6.66425">
        <ele>491.4</ele>
        <time>2023-09-03T06:46:32Z</time>
      </trkpt>
      <trkpt lat="48.14171" lon="6.66431">
        <ele>491.4</ele>
        <time>2023-09-03T06:46:33Z</time>
      </trkpt>
      <trkpt lat="48.1417" lon="6.66438">
        <ele>491.4</ele>
        <time>2023-09-03T06:46:34Z</time>
      </trkpt>
      <trkpt lat="48.1417" lon="6.66444">
        <ele>491.2</ele>
        <time>2023-09-03T06:46:35Z</time>
      </trkpt>
      <trkpt lat="48.14169" lon="6.6645">
        <ele>491</ele>
        <time>2023-09-03T06:46:36Z</time>
      </trkpt>
      <trkpt lat="48.14169" lon="6.66455">
        <ele>490.8</ele>
        <time>2023-09-03T06:46:37Z</time>
      </trkpt>
      <trkpt lat="48.14169" lon="6.66461">
        <ele>490.6</ele>
        <time>2023-09-03T06:46:38Z</time>
      </trkpt>
      <trkpt lat="48.14167" lon="6.66471">
        <ele>490.6</ele>
        <time>2023-09-03T06:46:39Z</time>
      </trkpt>
      <trkpt lat="48.14167" lon="6.66471">
        <ele>490.6</ele>
        <time>2023-09-03T06:46:40Z</time>
      </trkpt>
      <trkpt lat="48.14166" lon="6.66476">
        <ele>490.8</ele>
        <time>2023-09-03T06:46:41Z</time>
      </trkpt>
      <trkpt lat="48.14165" lon="6.66482">
        <ele>490.6</ele>
        <time>2023-09-03T06:46:42Z</time>
      </trkpt>
      <trkpt lat="48.14166" lon="6.66488">
        <ele>490.6</ele>
        <time>2023-09-03T06:46:43Z</time>
      </trkpt>
      <trkpt lat="48.14164" lon="6.66496">
        <ele>490.4</ele>
        <time>2023-09-03T06:46:44Z</time>
      </trkpt>
      <trkpt lat="48.14161" lon="6.66504">
        <ele>490.4</ele>
        <time>2023-09-03T06:46:45Z</time>
      </trkpt>
      <trkpt lat="48.1416" lon="6.66511">
        <ele>490.2</ele>
        <time>2023-09-03T06:46:46Z</time>
      </trkpt>
      <trkpt lat="48.14159" lon="6.6652">
        <ele>490.2</ele>
        <time>2023-09-03T06:46:47Z</time>
      </trkpt>
      <trkpt lat="48.14158" lon="6.66528">
        <ele>490</ele>
        <time>2023-09-03T06:46:48Z</time>
      </trkpt>
      <trkpt lat="48.14156" lon="6.66538">
        <ele>490</ele>
        <time>2023-09-03T06:46:49Z</time>
      </trkpt>
      <trkpt lat="48.14155" lon="6.66548">
        <ele>489.8</ele>
        <time>2023-09-03T06:46:50Z</time>
      </trkpt>
      <trkpt lat="48.14156" lon="6.6656">
        <ele>489.6</ele>
        <time>2023-09-03T06:46:51Z</time>
      </trkpt>
      <trkpt lat="48.14157" lon="6.6657">
        <ele>489.6</ele>
        <time>2023-09-03T06:46:52Z</time>
      </trkpt>
      <trkpt lat="48.14157" lon="6.66587">
        <ele>489.4</ele>
        <time>2023-09-03T06:46:53Z</time>
      </trkpt>
      <trkpt lat="48.14156" lon="6.66606">
        <ele>489.4</ele>
        <time>2023-09-03T06:46:54Z</time>
      </trkpt>
      <trkpt lat="48.14156" lon="6.66622">
        <ele>489.4</ele>
        <time>2023-09-03T06:46:55Z</time>
      </trkpt>
      <trkpt lat="48.14155" lon="6.66636">
        <ele>489.4</ele>
        <time>2023-09-03T06:46:56Z</time>
      </trkpt>
      <trkpt lat="48.14156" lon="6.6665">
        <ele>489</ele>
        <time>2023-09-03T06:46:57Z</time>
      </trkpt>
      <trkpt lat="48.14155" lon="6.66665">
        <ele>488.8</ele>
        <time>2023-09-03T06:46:58Z</time>
      </trkpt>
      <trkpt lat="48.14154" lon="6.66679">
        <ele>488</ele>
        <time>2023-09-03T06:46:59Z</time>
      </trkpt>
      <trkpt lat="48.1415" lon="6.66697">
        <ele>487.8</ele>
        <time>2023-09-03T06:47:00Z</time>
      </trkpt>
      <trkpt lat="48.14144" lon="6.66714">
        <ele>487.6</ele>
        <time>2023-09-03T06:47:01Z</time>
      </trkpt>
      <trkpt lat="48.14142" lon="6.66725">
        <ele>487.4</ele>
        <time>2023-09-03T06:47:02Z</time>
      </trkpt>
      <trkpt lat="48.14142" lon="6.66736">
        <ele>486.8</ele>
        <time>2023-09-03T06:47:03Z</time>
      </trkpt>
      <trkpt lat="48.14144" lon="6.66746">
        <ele>486.4</ele>
        <time>2023-09-03T06:47:04Z</time>
      </trkpt>
      <trkpt lat="48.14146" lon="6.66756">
        <ele>486.2</ele>
        <time>2023-09-03T06:47:05Z</time>
      </trkpt>
      <trkpt lat="48.14147" lon="6.66767">
        <ele>485.8</ele>
        <time>2023-09-03T06:47:06Z</time>
      </trkpt>
      <trkpt lat="48.14148" lon="6.6678">
        <ele>485.6</ele>
        <time>2023-09-03T06:47:07Z</time>
      </trkpt>
      <trkpt lat="48.14148" lon="6.66792">
        <ele>485.2</ele>
        <time>2023-09-03T06:47:08Z</time>
      </trkpt>
      <trkpt lat="48.14148" lon="6.66801">
        <ele>485</ele>
        <time>2023-09-03T06:47:09Z</time>
      </trkpt>
      <trkpt lat="48.14148" lon="6.6681">
        <ele>484.8</ele>
        <time>2023-09-03T06:47:10Z</time>
      </trkpt>
      <trkpt lat="48.14148" lon="6.66819">
        <ele>484.6</ele>
        <time>2023-09-03T06:47:11Z</time>
      </trkpt>
      <trkpt lat="48.14148" lon="6.66828">
        <ele>484.2</ele>
        <time>2023-09-03T06:47:12Z</time>
      </trkpt>
      <trkpt lat="48.14147" lon="6.66837">
        <ele>484</ele>
        <time>2023-09-03T06:47:13Z</time>
      </trkpt>
      <trkpt lat="48.14147" lon="6.66855">
        <ele>483.8</ele>
        <time>2023-09-03T06:47:14Z</time>
      </trkpt>
      <trkpt lat="48.14146" lon="6.66863">
        <ele>483.8</ele>
        <time>2023-09-03T06:47:15Z</time>
      </trkpt>
      <trkpt lat="48.14146" lon="6.66872">
        <ele>483.8</ele>
        <time>2023-09-03T06:47:16Z</time>
      </trkpt>
      <trkpt lat="48.14146" lon="6.66872">
        <ele>483.6</ele>
        <time>2023-09-03T06:47:17Z</time>
      </trkpt>
      <trkpt lat="48.14145" lon="6.66889">
        <ele>483.6</ele>
        <time>2023-09-03T06:47:18Z</time>
      </trkpt>
      <trkpt lat="48.14145" lon="6.66898">
        <ele>483.6</ele>
        <time>2023-09-03T06:47:19Z</time>
      </trkpt>
      <trkpt lat="48.14145" lon="6.66906">
        <ele>483.6</ele>
        <time>2023-09-03T06:47:20Z</time>
      </trkpt>
      <trkpt lat="48.14144" lon="6.66915">
        <ele>483.4</ele>
        <time>2023-09-03T06:47:21Z</time>
      </trkpt>
      <trkpt lat="48.14144" lon="6.66923">
        <ele>483.4</ele>
        <time>2023-09-03T06:47:22Z</time>
      </trkpt>
      <trkpt lat="48.14144" lon="6.66932">
        <ele>483.2</ele>
        <time>2023-09-03T06:47:23Z</time>
      </trkpt>
      <trkpt lat="48.14144" lon="6.6694">
        <ele>483</ele>
        <time>2023-09-03T06:47:24Z</time>
      </trkpt>
      <trkpt lat="48.14144" lon="6.6694">
        <ele>483</ele>
        <time>2023-09-03T06:47:25Z</time>
      </trkpt>
      <trkpt lat="48.14144" lon="6.66958">
        <ele>482.8</ele>
        <time>2023-09-03T06:47:26Z</time>
      </trkpt>
      <trkpt lat="48.14144" lon="6.66968">
        <ele>482.6</ele>
        <time>2023-09-03T06:47:27Z</time>
      </trkpt>
      <trkpt lat="48.14144" lon="6.66977">
        <ele>482.6</ele>
        <time>2023-09-03T06:47:28Z</time>
      </trkpt>
      <trkpt lat="48.14143" lon="6.66987">
        <ele>482.4</ele>
        <time>2023-09-03T06:47:29Z</time>
      </trkpt>
      <trkpt lat="48.14142" lon="6.66994">
        <ele>482.4</ele>
        <time>2023-09-03T06:47:30Z</time>
      </trkpt>
      <trkpt lat="48.14141" lon="6.67">
        <ele>482.2</ele>
        <time>2023-09-03T06:47:31Z</time>
      </trkpt>
      <trkpt lat="48.14137" lon="6.67006">
        <ele>482</ele>
        <time>2023-09-03T06:47:32Z</time>
      </trkpt>
      <trkpt lat="48.14137" lon="6.67006">
        <ele>481.6</ele>
        <time>2023-09-03T06:47:33Z</time>
      </trkpt>
      <trkpt lat="48.14128" lon="6.67017">
        <ele>480.8</ele>
        <time>2023-09-03T06:47:34Z</time>
      </trkpt>
      <trkpt lat="48.14123" lon="6.67021">
        <ele>480.6</ele>
        <time>2023-09-03T06:47:35Z</time>
      </trkpt>
      <trkpt lat="48.14118" lon="6.67022">
        <ele>480</ele>
        <time>2023-09-03T06:47:36Z</time>
      </trkpt>
      <trkpt lat="48.14114" lon="6.67023">
        <ele>479.8</ele>
        <time>2023-09-03T06:47:37Z</time>
      </trkpt>
      <trkpt lat="48.14112" lon="6.67023">
        <ele>479</ele>
        <time>2023-09-03T06:47:38Z</time>
      </trkpt>
      <trkpt lat="48.1411" lon="6.67022">
        <ele>478.8</ele>
        <time>2023-09-03T06:47:39Z</time>
      </trkpt>
      <trkpt lat="48.1411" lon="6.67019">
        <ele>478</ele>
        <time>2023-09-03T06:47:40Z</time>
      </trkpt>
      <trkpt lat="48.14111" lon="6.67017">
        <ele>477.4</ele>
        <time>2023-09-03T06:47:41Z</time>
      </trkpt>
      <trkpt lat="48.14112" lon="6.67016">
        <ele>476.2</ele>
        <time>2023-09-03T06:47:42Z</time>
      </trkpt>
      <trkpt lat="48.14112" lon="6.67017">
        <ele>475.8</ele>
        <time>2023-09-03T06:47:43Z</time>
      </trkpt>
      <trkpt lat="48.14112" lon="6.6702">
        <ele>475.2</ele>
        <time>2023-09-03T06:47:44Z</time>
      </trkpt>
      <trkpt lat="48.14111" lon="6.67025">
        <ele>474.6</ele>
        <time>2023-09-03T06:47:45Z</time>
      </trkpt>
      <trkpt lat="48.1411" lon="6.6703">
        <ele>474.4</ele>
        <time>2023-09-03T06:47:46Z</time>
      </trkpt>
      <trkpt lat="48.1411" lon="6.6703">
        <ele>474.2</ele>
        <time>2023-09-03T06:47:47Z</time>
      </trkpt>
      <trkpt lat="48.14108" lon="6.6704">
        <ele>474.2</ele>
        <time>2023-09-03T06:47:48Z</time>
      </trkpt>
      <trkpt lat="48.14107" lon="6.67047">
        <ele>474</ele>
        <time>2023-09-03T06:47:49Z</time>
      </trkpt>
      <trkpt lat="48.14106" lon="6.67054">
        <ele>474</ele>
        <time>2023-09-03T06:47:50Z</time>
      </trkpt>
      <trkpt lat="48.14106" lon="6.67054">
        <ele>474.4</ele>
        <time>2023-09-03T06:47:51Z</time>
      </trkpt>
      <trkpt lat="48.14103" lon="6.67068">
        <ele>474.6</ele>
        <time>2023-09-03T06:47:52Z</time>
      </trkpt>
      <trkpt lat="48.14102" lon="6.67075">
        <ele>475</ele>
        <time>2023-09-03T06:47:53Z</time>
      </trkpt>
      <trkpt lat="48.14101" lon="6.67082">
        <ele>475</ele>
        <time>2023-09-03T06:47:54Z</time>
      </trkpt>
      <trkpt lat="48.14101" lon="6.67082">
        <ele>475.4</ele>
        <time>2023-09-03T06:47:55Z</time>
      </trkpt>
      <trkpt lat="48.14098" lon="6.67095">
        <ele>475.6</ele>
        <time>2023-09-03T06:47:56Z</time>
      </trkpt>
      <trkpt lat="48.14097" lon="6.67101">
        <ele>476</ele>
        <time>2023-09-03T06:47:57Z</time>
      </trkpt>
      <trkpt lat="48.14096" lon="6.67106">
        <ele>476.4</ele>
        <time>2023-09-03T06:47:58Z</time>
      </trkpt>
      <trkpt lat="48.14095" lon="6.6711">
        <ele>476.6</ele>
        <time>2023-09-03T06:47:59Z</time>
      </trkpt>
      <trkpt lat="48.14095" lon="6.67114">
        <ele>477.2</ele>
        <time>2023-09-03T06:48:00Z</time>
      </trkpt>
      <trkpt lat="48.14094" lon="6.67119">
        <ele>477.6</ele>
        <time>2023-09-03T06:48:01Z</time>
      </trkpt>
      <trkpt lat="48.14093" lon="6.67124">
        <ele>477.8</ele>
        <time>2023-09-03T06:48:02Z</time>
      </trkpt>
      <trkpt lat="48.14093" lon="6.67124">
        <ele>478</ele>
        <time>2023-09-03T06:48:03Z</time>
      </trkpt>
      <trkpt lat="48.14092" lon="6.67128">
        <ele>478.2</ele>
        <time>2023-09-03T06:48:04Z</time>
      </trkpt>
      <trkpt lat="48.14092" lon="6.67133">
        <ele>478.2</ele>
        <time>2023-09-03T06:48:05Z</time>
      </trkpt>
      <trkpt lat="48.14091" lon="6.67138">
        <ele>478.4</ele>
        <time>2023-09-03T06:48:06Z</time>
      </trkpt>
      <trkpt lat="48.1409" lon="6.67142">
        <ele>478.4</ele>
        <time>2023-09-03T06:48:07Z</time>
      </trkpt>
      <trkpt lat="48.14089" lon="6.67146">
        <ele>479</ele>
        <time>2023-09-03T06:48:08Z</time>
      </trkpt>
      <trkpt lat="48.14087" lon="6.67155">
        <ele>479</ele>
        <time>2023-09-03T06:48:09Z</time>
      </trkpt>
      <trkpt lat="48.14087" lon="6.67155">
        <ele>479.4</ele>
        <time>2023-09-03T06:48:10Z</time>
      </trkpt>
      <trkpt lat="48.14085" lon="6.67164">
        <ele>479.4</ele>
        <time>2023-09-03T06:48:11Z</time>
      </trkpt>
      <trkpt lat="48.14085" lon="6.67164">
        <ele>479.6</ele>
        <time>2023-09-03T06:48:12Z</time>
      </trkpt>
      <trkpt lat="48.14082" lon="6.67173">
        <ele>479.8</ele>
        <time>2023-09-03T06:48:13Z</time>
      </trkpt>
      <trkpt lat="48.14081" lon="6.67177">
        <ele>480.2</ele>
        <time>2023-09-03T06:48:14Z</time>
      </trkpt>
      <trkpt lat="48.14081" lon="6.67181">
        <ele>480.6</ele>
        <time>2023-09-03T06:48:15Z</time>
      </trkpt>
      <trkpt lat="48.1408" lon="6.67185">
        <ele>480.8</ele>
        <time>2023-09-03T06:48:16Z</time>
      </trkpt>
      <trkpt lat="48.1408" lon="6.67185">
        <ele>481</ele>
        <time>2023-09-03T06:48:17Z</time>
      </trkpt>
      <trkpt lat="48.1408" lon="6.67188">
        <ele>481.2</ele>
        <time>2023-09-03T06:48:18Z</time>
      </trkpt>
      <trkpt lat="48.1408" lon="6.67196">
        <ele>481.4</ele>
        <time>2023-09-03T06:48:19Z</time>
      </trkpt>
      <trkpt lat="48.14079" lon="6.672">
        <ele>481.4</ele>
        <time>2023-09-03T06:48:20Z</time>
      </trkpt>
      <trkpt lat="48.14078" lon="6.67204">
        <ele>481.6</ele>
        <time>2023-09-03T06:48:21Z</time>
      </trkpt>
      <trkpt lat="48.14077" lon="6.67208">
        <ele>481.6</ele>
        <time>2023-09-03T06:48:22Z</time>
      </trkpt>
      <trkpt lat="48.14077" lon="6.67212">
        <ele>481.8</ele>
        <time>2023-09-03T06:48:23Z</time>
      </trkpt>
      <trkpt lat="48.14077" lon="6.67212">
        <ele>482</ele>
        <time>2023-09-03T06:48:24Z</time>
      </trkpt>
      <trkpt lat="48.14075" lon="6.6722">
        <ele>482</ele>
        <time>2023-09-03T06:48:25Z</time>
      </trkpt>
      <trkpt lat="48.14073" lon="6.67224">
        <ele>482.6</ele>
        <time>2023-09-03T06:48:26Z</time>
      </trkpt>
      <trkpt lat="48.14071" lon="6.67229">
        <ele>482.8</ele>
        <time>2023-09-03T06:48:27Z</time>
      </trkpt>
      <trkpt lat="48.14069" lon="6.67234">
        <ele>483</ele>
        <time>2023-09-03T06:48:28Z</time>
      </trkpt>
      <trkpt lat="48.14069" lon="6.67234">
        <ele>483.2</ele>
        <time>2023-09-03T06:48:29Z</time>
      </trkpt>
      <trkpt lat="48.14066" lon="6.67243">
        <ele>483.6</ele>
        <time>2023-09-03T06:48:30Z</time>
      </trkpt>
      <trkpt lat="48.14064" lon="6.67248">
        <ele>483.6</ele>
        <time>2023-09-03T06:48:31Z</time>
      </trkpt>
      <trkpt lat="48.14063" lon="6.67253">
        <ele>483.8</ele>
        <time>2023-09-03T06:48:32Z</time>
      </trkpt>
      <trkpt lat="48.14063" lon="6.67253">
        <ele>484</ele>
        <time>2023-09-03T06:48:33Z</time>
      </trkpt>
      <trkpt lat="48.1406" lon="6.67261">
        <ele>484.2</ele>
        <time>2023-09-03T06:48:34Z</time>
      </trkpt>
      <trkpt lat="48.14059" lon="6.67265">
        <ele>484.4</ele>
        <time>2023-09-03T06:48:35Z</time>
      </trkpt>
      <trkpt lat="48.14058" lon="6.67269">
        <ele>484.6</ele>
        <time>2023-09-03T06:48:36Z</time>
      </trkpt>
      <trkpt lat="48.14057" lon="6.67273">
        <ele>484.8</ele>
        <time>2023-09-03T06:48:37Z</time>
      </trkpt>
      <trkpt lat="48.14057" lon="6.67273">
        <ele>485.2</ele>
        <time>2023-09-03T06:48:38Z</time>
      </trkpt>
      <trkpt lat="48.14055" lon="6.67281">
        <ele>485.6</ele>
        <time>2023-09-03T06:48:39Z</time>
      </trkpt>
      <trkpt lat="48.14054" lon="6.67285">
        <ele>485.8</ele>
        <time>2023-09-03T06:48:40Z</time>
      </trkpt>
      <trkpt lat="48.14052" lon="6.67289">
        <ele>486.2</ele>
        <time>2023-09-03T06:48:41Z</time>
      </trkpt>
      <trkpt lat="48.14052" lon="6.67289">
        <ele>486.4</ele>
        <time>2023-09-03T06:48:42Z</time>
      </trkpt>
      <trkpt lat="48.14051" lon="6.67298">
        <ele>486.6</ele>
        <time>2023-09-03T06:48:43Z</time>
      </trkpt>
      <trkpt lat="48.14051" lon="6.67298">
        <ele>486.8</ele>
        <time>2023-09-03T06:48:44Z</time>
      </trkpt>
      <trkpt lat="48.1405" lon="6.67306">
        <ele>487</ele>
        <time>2023-09-03T06:48:45Z</time>
      </trkpt>
      <trkpt lat="48.1405" lon="6.67306">
        <ele>487</ele>
        <time>2023-09-03T06:48:46Z</time>
      </trkpt>
      <trkpt lat="48.14048" lon="6.67315">
        <ele>487.2</ele>
        <time>2023-09-03T06:48:47Z</time>
      </trkpt>
      <trkpt lat="48.14048" lon="6.67315">
        <ele>487.4</ele>
        <time>2023-09-03T06:48:48Z</time>
      </trkpt>
      <trkpt lat="48.14047" lon="6.67319">
        <ele>487.6</ele>
        <time>2023-09-03T06:48:49Z</time>
      </trkpt>
      <trkpt lat="48.14046" lon="6.67324">
        <ele>487.6</ele>
        <time>2023-09-03T06:48:50Z</time>
      </trkpt>
      <trkpt lat="48.14045" lon="6.67328">
        <ele>487.8</ele>
        <time>2023-09-03T06:48:51Z</time>
      </trkpt>
      <trkpt lat="48.14043" lon="6.67337">
        <ele>487.8</ele>
        <time>2023-09-03T06:48:52Z</time>
      </trkpt>
      <trkpt lat="48.14042" lon="6.67342">
        <ele>488</ele>
        <time>2023-09-03T06:48:53Z</time>
      </trkpt>
      <trkpt lat="48.14041" lon="6.67347">
        <ele>488.2</ele>
        <time>2023-09-03T06:48:54Z</time>
      </trkpt>
      <trkpt lat="48.1404" lon="6.67351">
        <ele>488.4</ele>
        <time>2023-09-03T06:48:55Z</time>
      </trkpt>
      <trkpt lat="48.1404" lon="6.67351">
        <ele>488.6</ele>
        <time>2023-09-03T06:48:56Z</time>
      </trkpt>
      <trkpt lat="48.14038" lon="6.6736">
        <ele>488.6</ele>
        <time>2023-09-03T06:48:57Z</time>
      </trkpt>
      <trkpt lat="48.14036" lon="6.67364">
        <ele>488.8</ele>
        <time>2023-09-03T06:48:58Z</time>
      </trkpt>
      <trkpt lat="48.14035" lon="6.67368">
        <ele>488.8</ele>
        <time>2023-09-03T06:48:59Z</time>
      </trkpt>
      <trkpt lat="48.14035" lon="6.67368">
        <ele>489</ele>
        <time>2023-09-03T06:49:00Z</time>
      </trkpt>
      <trkpt lat="48.14034" lon="6.67377">
        <ele>489</ele>
        <time>2023-09-03T06:49:01Z</time>
      </trkpt>
      <trkpt lat="48.14034" lon="6.67377">
        <ele>489</ele>
        <time>2023-09-03T06:49:02Z</time>
      </trkpt>
      <trkpt lat="48.14033" lon="6.67381">
        <ele>489</ele>
        <time>2023-09-03T06:49:03Z</time>
      </trkpt>
      <trkpt lat="48.14032" lon="6.67386">
        <ele>489</ele>
        <time>2023-09-03T06:49:04Z</time>
      </trkpt>
      <trkpt lat="48.14031" lon="6.6739">
        <ele>489.2</ele>
        <time>2023-09-03T06:49:05Z</time>
      </trkpt>
      <trkpt lat="48.14029" lon="6.67398">
        <ele>489.2</ele>
        <time>2023-09-03T06:49:06Z</time>
      </trkpt>
      <trkpt lat="48.14028" lon="6.67402">
        <ele>489.4</ele>
        <time>2023-09-03T06:49:07Z</time>
      </trkpt>
      <trkpt lat="48.14027" lon="6.67406">
        <ele>489.6</ele>
        <time>2023-09-03T06:49:08Z</time>
      </trkpt>
      <trkpt lat="48.14025" lon="6.67411">
        <ele>489.8</ele>
        <time>2023-09-03T06:49:09Z</time>
      </trkpt>
      <trkpt lat="48.14024" lon="6.67415">
        <ele>489.8</ele>
        <time>2023-09-03T06:49:10Z</time>
      </trkpt>
      <trkpt lat="48.14024" lon="6.67419">
        <ele>490</ele>
        <time>2023-09-03T06:49:11Z</time>
      </trkpt>
      <trkpt lat="48.14022" lon="6.67424">
        <ele>490.2</ele>
        <time>2023-09-03T06:49:12Z</time>
      </trkpt>
      <trkpt lat="48.14022" lon="6.67424">
        <ele>490.2</ele>
        <time>2023-09-03T06:49:13Z</time>
      </trkpt>
      <trkpt lat="48.1402" lon="6.67433">
        <ele>490.2</ele>
        <time>2023-09-03T06:49:14Z</time>
      </trkpt>
      <trkpt lat="48.1402" lon="6.67433">
        <ele>490.4</ele>
        <time>2023-09-03T06:49:15Z</time>
      </trkpt>
      <trkpt lat="48.1402" lon="6.67443">
        <ele>490.6</ele>
        <time>2023-09-03T06:49:16Z</time>
      </trkpt>
      <trkpt lat="48.1402" lon="6.67447">
        <ele>490.6</ele>
        <time>2023-09-03T06:49:17Z</time>
      </trkpt>
      <trkpt lat="48.1402" lon="6.67451">
        <ele>490.8</ele>
        <time>2023-09-03T06:49:18Z</time>
      </trkpt>
      <trkpt lat="48.1402" lon="6.67455">
        <ele>490.8</ele>
        <time>2023-09-03T06:49:19Z</time>
      </trkpt>
      <trkpt lat="48.1402" lon="6.67459">
        <ele>491</ele>
        <time>2023-09-03T06:49:20Z</time>
      </trkpt>
      <trkpt lat="48.1402" lon="6.67463">
        <ele>491.2</ele>
        <time>2023-09-03T06:49:21Z</time>
      </trkpt>
      <trkpt lat="48.1402" lon="6.67467">
        <ele>491.6</ele>
        <time>2023-09-03T06:49:22Z</time>
      </trkpt>
      <trkpt lat="48.1402" lon="6.67472">
        <ele>491.6</ele>
        <time>2023-09-03T06:49:23Z</time>
      </trkpt>
      <trkpt lat="48.14021" lon="6.67476">
        <ele>491.8</ele>
        <time>2023-09-03T06:49:24Z</time>
      </trkpt>
      <trkpt lat="48.14021" lon="6.6748">
        <ele>492</ele>
        <time>2023-09-03T06:49:25Z</time>
      </trkpt>
      <trkpt lat="48.14021" lon="6.67484">
        <ele>492.2</ele>
        <time>2023-09-03T06:49:26Z</time>
      </trkpt>
      <trkpt lat="48.14021" lon="6.67489">
        <ele>492.4</ele>
        <time>2023-09-03T06:49:27Z</time>
      </trkpt>
      <trkpt lat="48.14021" lon="6.67492">
        <ele>492.6</ele>
        <time>2023-09-03T06:49:28Z</time>
      </trkpt>
      <trkpt lat="48.14022" lon="6.67496">
        <ele>492.8</ele>
        <time>2023-09-03T06:49:29Z</time>
      </trkpt>
      <trkpt lat="48.14023" lon="6.675">
        <ele>493.2</ele>
        <time>2023-09-03T06:49:30Z</time>
      </trkpt>
      <trkpt lat="48.14024" lon="6.67504">
        <ele>493.4</ele>
        <time>2023-09-03T06:49:31Z</time>
      </trkpt>
      <trkpt lat="48.14024" lon="6.67508">
        <ele>493.8</ele>
        <time>2023-09-03T06:49:32Z</time>
      </trkpt>
      <trkpt lat="48.14025" lon="6.67511">
        <ele>494.2</ele>
        <time>2023-09-03T06:49:33Z</time>
      </trkpt>
      <trkpt lat="48.14026" lon="6.67514">
        <ele>494.4</ele>
        <time>2023-09-03T06:49:34Z</time>
      </trkpt>
      <trkpt lat="48.14027" lon="6.67518">
        <ele>494.6</ele>
        <time>2023-09-03T06:49:35Z</time>
      </trkpt>
      <trkpt lat="48.14027" lon="6.67521">
        <ele>494.8</ele>
        <time>2023-09-03T06:49:36Z</time>
      </trkpt>
      <trkpt lat="48.14029" lon="6.67523">
        <ele>495</ele>
        <time>2023-09-03T06:49:37Z</time>
      </trkpt>
      <trkpt lat="48.1403" lon="6.67525">
        <ele>495.2</ele>
        <time>2023-09-03T06:49:38Z</time>
      </trkpt>
      <trkpt lat="48.14031" lon="6.67527">
        <ele>495.6</ele>
        <time>2023-09-03T06:49:39Z</time>
      </trkpt>
      <trkpt lat="48.14032" lon="6.6753">
        <ele>495.8</ele>
        <time>2023-09-03T06:49:40Z</time>
      </trkpt>
      <trkpt lat="48.14033" lon="6.67532">
        <ele>496</ele>
        <time>2023-09-03T06:49:41Z</time>
      </trkpt>
      <trkpt lat="48.14035" lon="6.67534">
        <ele>496.2</ele>
        <time>2023-09-03T06:49:42Z</time>
      </trkpt>
      <trkpt lat="48.14036" lon="6.67536">
        <ele>496.8</ele>
        <time>2023-09-03T06:49:43Z</time>
      </trkpt>
      <trkpt lat="48.14037" lon="6.67537">
        <ele>497</ele>
        <time>2023-09-03T06:49:44Z</time>
      </trkpt>
      <trkpt lat="48.14038" lon="6.67539">
        <ele>497.4</ele>
        <time>2023-09-03T06:49:45Z</time>
      </trkpt>
      <trkpt lat="48.14039" lon="6.6754">
        <ele>497.6</ele>
        <time>2023-09-03T06:49:46Z</time>
      </trkpt>
      <trkpt lat="48.1404" lon="6.67542">
        <ele>497.8</ele>
        <time>2023-09-03T06:49:47Z</time>
      </trkpt>
      <trkpt lat="48.14042" lon="6.67544">
        <ele>498.4</ele>
        <time>2023-09-03T06:49:48Z</time>
      </trkpt>
      <trkpt lat="48.14042" lon="6.67544">
        <ele>498.6</ele>
        <time>2023-09-03T06:49:49Z</time>
      </trkpt>
      <trkpt lat="48.14045" lon="6.67546">
        <ele>499</ele>
        <time>2023-09-03T06:49:50Z</time>
      </trkpt>
      <trkpt lat="48.14046" lon="6.67547">
        <ele>499</ele>
        <time>2023-09-03T06:49:51Z</time>
      </trkpt>
      <trkpt lat="48.14047" lon="6.67549">
        <ele>499.6</ele>
        <time>2023-09-03T06:49:52Z</time>
      </trkpt>
      <trkpt lat="48.14048" lon="6.6755">
        <ele>499.8</ele>
        <time>2023-09-03T06:49:53Z</time>
      </trkpt>
      <trkpt lat="48.14049" lon="6.67551">
        <ele>500</ele>
        <time>2023-09-03T06:49:54Z</time>
      </trkpt>
      <trkpt lat="48.1405" lon="6.67553">
        <ele>500.2</ele>
        <time>2023-09-03T06:49:55Z</time>
      </trkpt>
      <trkpt lat="48.1405" lon="6.67555">
        <ele>500.6</ele>
        <time>2023-09-03T06:49:56Z</time>
      </trkpt>
      <trkpt lat="48.14051" lon="6.67557">
        <ele>500.6</ele>
        <time>2023-09-03T06:49:57Z</time>
      </trkpt>
      <trkpt lat="48.14051" lon="6.6756">
        <ele>501.6</ele>
        <time>2023-09-03T06:49:58Z</time>
      </trkpt>
      <trkpt lat="48.14052" lon="6.67561">
        <ele>502</ele>
        <time>2023-09-03T06:49:59Z</time>
      </trkpt>
      <trkpt lat="48.14052" lon="6.67561">
        <ele>502.8</ele>
        <time>2023-09-03T06:50:00Z</time>
      </trkpt>
      <trkpt lat="48.14052" lon="6.67565">
        <ele>503.6</ele>
        <time>2023-09-03T06:50:01Z</time>
      </trkpt>
      <trkpt lat="48.14053" lon="6.67568">
        <ele>503.8</ele>
        <time>2023-09-03T06:50:02Z</time>
      </trkpt>
      <trkpt lat="48.14053" lon="6.67568">
        <ele>504.6</ele>
        <time>2023-09-03T06:50:03Z</time>
      </trkpt>
      <trkpt lat="48.14055" lon="6.67573">
        <ele>504.8</ele>
        <time>2023-09-03T06:50:04Z</time>
      </trkpt>
      <trkpt lat="48.14054" lon="6.67581">
        <ele>505.2</ele>
        <time>2023-09-03T06:50:05Z</time>
      </trkpt>
      <trkpt lat="48.14054" lon="6.67584">
        <ele>505.4</ele>
        <time>2023-09-03T06:50:06Z</time>
      </trkpt>
      <trkpt lat="48.14053" lon="6.67588">
        <ele>505.6</ele>
        <time>2023-09-03T06:50:07Z</time>
      </trkpt>
      <trkpt lat="48.14052" lon="6.67592">
        <ele>505.6</ele>
        <time>2023-09-03T06:50:08Z</time>
      </trkpt>
      <trkpt lat="48.14052" lon="6.67596">
        <ele>505.8</ele>
        <time>2023-09-03T06:50:09Z</time>
      </trkpt>
      <trkpt lat="48.14051" lon="6.67601">
        <ele>505.8</ele>
        <time>2023-09-03T06:50:10Z</time>
      </trkpt>
      <trkpt lat="48.1405" lon="6.67606">
        <ele>506</ele>
        <time>2023-09-03T06:50:11Z</time>
      </trkpt>
      <trkpt lat="48.14049" lon="6.67611">
        <ele>506</ele>
        <time>2023-09-03T06:50:12Z</time>
      </trkpt>
      <trkpt lat="48.14049" lon="6.67616">
        <ele>506.2</ele>
        <time>2023-09-03T06:50:13Z</time>
      </trkpt>
      <trkpt lat="48.14048" lon="6.67621">
        <ele>506.2</ele>
        <time>2023-09-03T06:50:14Z</time>
      </trkpt>
      <trkpt lat="48.14048" lon="6.67626">
        <ele>506.4</ele>
        <time>2023-09-03T06:50:15Z</time>
      </trkpt>
      <trkpt lat="48.14047" lon="6.67631">
        <ele>506.4</ele>
        <time>2023-09-03T06:50:16Z</time>
      </trkpt>
      <trkpt lat="48.14048" lon="6.67635">
        <ele>506.4</ele>
        <time>2023-09-03T06:50:17Z</time>
      </trkpt>
      <trkpt lat="48.14047" lon="6.67638">
        <ele>506.4</ele>
        <time>2023-09-03T06:50:18Z</time>
      </trkpt>
      <trkpt lat="48.14047" lon="6.67638">
        <ele>506.4</ele>
        <time>2023-09-03T06:50:19Z</time>
      </trkpt>
      <trkpt lat="48.14047" lon="6.67644">
        <ele>506.6</ele>
        <time>2023-09-03T06:50:20Z</time>
      </trkpt>
      <trkpt lat="48.14047" lon="6.67647">
        <ele>506.8</ele>
        <time>2023-09-03T06:50:21Z</time>
      </trkpt>
      <trkpt lat="48.14047" lon="6.67647">
        <ele>507</ele>
        <time>2023-09-03T06:50:22Z</time>
      </trkpt>
      <trkpt lat="48.14046" lon="6.67651">
        <ele>507</ele>
        <time>2023-09-03T06:50:23Z</time>
      </trkpt>
      <trkpt lat="48.14045" lon="6.67654">
        <ele>507.2</ele>
        <time>2023-09-03T06:50:24Z</time>
      </trkpt>
      <trkpt lat="48.14044" lon="6.67657">
        <ele>507.2</ele>
        <time>2023-09-03T06:50:25Z</time>
      </trkpt>
      <trkpt lat="48.14042" lon="6.6766">
        <ele>507.4</ele>
        <time>2023-09-03T06:50:26Z</time>
      </trkpt>
      <trkpt lat="48.1404" lon="6.67664">
        <ele>507.4</ele>
        <time>2023-09-03T06:50:27Z</time>
      </trkpt>
      <trkpt lat="48.14035" lon="6.67669">
        <ele>507.6</ele>
        <time>2023-09-03T06:50:28Z</time>
      </trkpt>
      <trkpt lat="48.14033" lon="6.67675">
        <ele>507.6</ele>
        <time>2023-09-03T06:50:29Z</time>
      </trkpt>
      <trkpt lat="48.14031" lon="6.67681">
        <ele>507.8</ele>
        <time>2023-09-03T06:50:30Z</time>
      </trkpt>
      <trkpt lat="48.14027" lon="6.67687">
        <ele>507.8</ele>
        <time>2023-09-03T06:50:31Z</time>
      </trkpt>
      <trkpt lat="48.14022" lon="6.67694">
        <ele>507.8</ele>
        <time>2023-09-03T06:50:32Z</time>
      </trkpt>
      <trkpt lat="48.14018" lon="6.67701">
        <ele>507.8</ele>
        <time>2023-09-03T06:50:33Z</time>
      </trkpt>
      <trkpt lat="48.14014" lon="6.67707">
        <ele>507.8</ele>
        <time>2023-09-03T06:50:34Z</time>
      </trkpt>
      <trkpt lat="48.14014" lon="6.67713">
        <ele>508</ele>
        <time>2023-09-03T06:50:35Z</time>
      </trkpt>
      <trkpt lat="48.14009" lon="6.67723">
        <ele>508</ele>
        <time>2023-09-03T06:50:36Z</time>
      </trkpt>
      <trkpt lat="48.14007" lon="6.6773">
        <ele>508.2</ele>
        <time>2023-09-03T06:50:37Z</time>
      </trkpt>
      <trkpt lat="48.14003" lon="6.67738">
        <ele>508.2</ele>
        <time>2023-09-03T06:50:38Z</time>
      </trkpt>
      <trkpt lat="48.14" lon="6.67744">
        <ele>508.2</ele>
        <time>2023-09-03T06:50:39Z</time>
      </trkpt>
      <trkpt lat="48.13996" lon="6.6775">
        <ele>508.2</ele>
        <time>2023-09-03T06:50:40Z</time>
      </trkpt>
      <trkpt lat="48.13993" lon="6.67757">
        <ele>508</ele>
        <time>2023-09-03T06:50:41Z</time>
      </trkpt>
      <trkpt lat="48.13988" lon="6.67764">
        <ele>507.8</ele>
        <time>2023-09-03T06:50:42Z</time>
      </trkpt>
      <trkpt lat="48.13985" lon="6.6777">
        <ele>507.8</ele>
        <time>2023-09-03T06:50:43Z</time>
      </trkpt>
      <trkpt lat="48.13981" lon="6.67777">
        <ele>507.8</ele>
        <time>2023-09-03T06:50:44Z</time>
      </trkpt>
      <trkpt lat="48.13978" lon="6.67784">
        <ele>507.8</ele>
        <time>2023-09-03T06:50:45Z</time>
      </trkpt>
      <trkpt lat="48.13976" lon="6.67789">
        <ele>507.8</ele>
        <time>2023-09-03T06:50:46Z</time>
      </trkpt>
      <trkpt lat="48.13971" lon="6.67796">
        <ele>507.6</ele>
        <time>2023-09-03T06:50:47Z</time>
      </trkpt>
      <trkpt lat="48.13965" lon="6.67804">
        <ele>507.2</ele>
        <time>2023-09-03T06:50:48Z</time>
      </trkpt>
      <trkpt lat="48.1396" lon="6.67811">
        <ele>507</ele>
        <time>2023-09-03T06:50:49Z</time>
      </trkpt>
      <trkpt lat="48.13956" lon="6.67817">
        <ele>506.8</ele>
        <time>2023-09-03T06:50:50Z</time>
      </trkpt>
      <trkpt lat="48.13953" lon="6.67822">
        <ele>506.8</ele>
        <time>2023-09-03T06:50:51Z</time>
      </trkpt>
      <trkpt lat="48.1395" lon="6.6783">
        <ele>506.6</ele>
        <time>2023-09-03T06:50:52Z</time>
      </trkpt>
      <trkpt lat="48.13946" lon="6.67837">
        <ele>506.6</ele>
        <time>2023-09-03T06:50:53Z</time>
      </trkpt>
      <trkpt lat="48.1394" lon="6.67845">
        <ele>506.4</ele>
        <time>2023-09-03T06:50:54Z</time>
      </trkpt>
      <trkpt lat="48.13934" lon="6.67852">
        <ele>506.4</ele>
        <time>2023-09-03T06:50:55Z</time>
      </trkpt>
      <trkpt lat="48.13929" lon="6.67859">
        <ele>506.4</ele>
        <time>2023-09-03T06:50:56Z</time>
      </trkpt>
      <trkpt lat="48.13925" lon="6.67867">
        <ele>506.4</ele>
        <time>2023-09-03T06:50:57Z</time>
      </trkpt>
      <trkpt lat="48.1392" lon="6.67875">
        <ele>506.4</ele>
        <time>2023-09-03T06:50:58Z</time>
      </trkpt>
      <trkpt lat="48.13916" lon="6.67883">
        <ele>506.4</ele>
        <time>2023-09-03T06:50:59Z</time>
      </trkpt>
      <trkpt lat="48.13911" lon="6.67892">
        <ele>506.4</ele>
        <time>2023-09-03T06:51:00Z</time>
      </trkpt>
      <trkpt lat="48.13906" lon="6.67901">
        <ele>506.4</ele>
        <time>2023-09-03T06:51:01Z</time>
      </trkpt>
      <trkpt lat="48.139" lon="6.67911">
        <ele>506.4</ele>
        <time>2023-09-03T06:51:02Z</time>
      </trkpt>
      <trkpt lat="48.13896" lon="6.67919">
        <ele>506</ele>
        <time>2023-09-03T06:51:03Z</time>
      </trkpt>
      <trkpt lat="48.13892" lon="6.67926">
        <ele>505.8</ele>
        <time>2023-09-03T06:51:04Z</time>
      </trkpt>
      <trkpt lat="48.13888" lon="6.67934">
        <ele>505.8</ele>
        <time>2023-09-03T06:51:05Z</time>
      </trkpt>
      <trkpt lat="48.13888" lon="6.67934">
        <ele>505.8</ele>
        <time>2023-09-03T06:51:06Z</time>
      </trkpt>
      <trkpt lat="48.13879" lon="6.67953">
        <ele>505.6</ele>
        <time>2023-09-03T06:51:07Z</time>
      </trkpt>
      <trkpt lat="48.13879" lon="6.67953">
        <ele>505.6</ele>
        <time>2023-09-03T06:51:08Z</time>
      </trkpt>
      <trkpt lat="48.13872" lon="6.67973">
        <ele>505.6</ele>
        <time>2023-09-03T06:51:09Z</time>
      </trkpt>
      <trkpt lat="48.13869" lon="6.67982">
        <ele>505.6</ele>
        <time>2023-09-03T06:51:10Z</time>
      </trkpt>
      <trkpt lat="48.13869" lon="6.67982">
        <ele>505.6</ele>
        <time>2023-09-03T06:51:11Z</time>
      </trkpt>
      <trkpt lat="48.13868" lon="6.68002">
        <ele>505.4</ele>
        <time>2023-09-03T06:51:12Z</time>
      </trkpt>
      <trkpt lat="48.13867" lon="6.68009">
        <ele>505.2</ele>
        <time>2023-09-03T06:51:13Z</time>
      </trkpt>
      <trkpt lat="48.13864" lon="6.68013">
        <ele>505</ele>
        <time>2023-09-03T06:51:14Z</time>
      </trkpt>
      <trkpt lat="48.13861" lon="6.68013">
        <ele>504.4</ele>
        <time>2023-09-03T06:51:15Z</time>
      </trkpt>
      <trkpt lat="48.13859" lon="6.68009">
        <ele>503.6</ele>
        <time>2023-09-03T06:51:16Z</time>
      </trkpt>
      <trkpt lat="48.13858" lon="6.68003">
        <ele>503.2</ele>
        <time>2023-09-03T06:51:17Z</time>
      </trkpt>
      <trkpt lat="48.13857" lon="6.67996">
        <ele>502.6</ele>
        <time>2023-09-03T06:51:18Z</time>
      </trkpt>
      <trkpt lat="48.13856" lon="6.67988">
        <ele>502.2</ele>
        <time>2023-09-03T06:51:19Z</time>
      </trkpt>
      <trkpt lat="48.13855" lon="6.6798">
        <ele>501.2</ele>
        <time>2023-09-03T06:51:20Z</time>
      </trkpt>
      <trkpt lat="48.13854" lon="6.67973">
        <ele>500.6</ele>
        <time>2023-09-03T06:51:21Z</time>
      </trkpt>
      <trkpt lat="48.13854" lon="6.67973">
        <ele>499</ele>
        <time>2023-09-03T06:51:22Z</time>
      </trkpt>
      <trkpt lat="48.13852" lon="6.67956">
        <ele>498.4</ele>
        <time>2023-09-03T06:51:23Z</time>
      </trkpt>
      <trkpt lat="48.13851" lon="6.67948">
        <ele>498</ele>
        <time>2023-09-03T06:51:24Z</time>
      </trkpt>
      <trkpt lat="48.13848" lon="6.67939">
        <ele>497.8</ele>
        <time>2023-09-03T06:51:25Z</time>
      </trkpt>
      <trkpt lat="48.13845" lon="6.67931">
        <ele>497.6</ele>
        <time>2023-09-03T06:51:26Z</time>
      </trkpt>
      <trkpt lat="48.1384" lon="6.67924">
        <ele>497.4</ele>
        <time>2023-09-03T06:51:27Z</time>
      </trkpt>
      <trkpt lat="48.13834" lon="6.67918">
        <ele>497.2</ele>
        <time>2023-09-03T06:51:28Z</time>
      </trkpt>
      <trkpt lat="48.13828" lon="6.67912">
        <ele>496.8</ele>
        <time>2023-09-03T06:51:29Z</time>
      </trkpt>
      <trkpt lat="48.13823" lon="6.67905">
        <ele>496.2</ele>
        <time>2023-09-03T06:51:30Z</time>
      </trkpt>
      <trkpt lat="48.13819" lon="6.67898">
        <ele>495.6</ele>
        <time>2023-09-03T06:51:31Z</time>
      </trkpt>
      <trkpt lat="48.13815" lon="6.67891">
        <ele>495.4</ele>
        <time>2023-09-03T06:51:32Z</time>
      </trkpt>
      <trkpt lat="48.13812" lon="6.67884">
        <ele>495</ele>
        <time>2023-09-03T06:51:33Z</time>
      </trkpt>
      <trkpt lat="48.13808" lon="6.67876">
        <ele>494.4</ele>
        <time>2023-09-03T06:51:34Z</time>
      </trkpt>
      <trkpt lat="48.13802" lon="6.67869">
        <ele>493.8</ele>
        <time>2023-09-03T06:51:35Z</time>
      </trkpt>
      <trkpt lat="48.13797" lon="6.67861">
        <ele>493.4</ele>
        <time>2023-09-03T06:51:36Z</time>
      </trkpt>
      <trkpt lat="48.13791" lon="6.67852">
        <ele>493.2</ele>
        <time>2023-09-03T06:51:37Z</time>
      </trkpt>
      <trkpt lat="48.13785" lon="6.67841">
        <ele>492.8</ele>
        <time>2023-09-03T06:51:38Z</time>
      </trkpt>
      <trkpt lat="48.1378" lon="6.67831">
        <ele>492.8</ele>
        <time>2023-09-03T06:51:39Z</time>
      </trkpt>
      <trkpt lat="48.13774" lon="6.67822">
        <ele>492</ele>
        <time>2023-09-03T06:51:40Z</time>
      </trkpt>
      <trkpt lat="48.1377" lon="6.67813">
        <ele>491.6</ele>
        <time>2023-09-03T06:51:41Z</time>
      </trkpt>
      <trkpt lat="48.13767" lon="6.67804">
        <ele>490.6</ele>
        <time>2023-09-03T06:51:42Z</time>
      </trkpt>
      <trkpt lat="48.13763" lon="6.67796">
        <ele>489.4</ele>
        <time>2023-09-03T06:51:43Z</time>
      </trkpt>
      <trkpt lat="48.13759" lon="6.67789">
        <ele>487</ele>
        <time>2023-09-03T06:51:44Z</time>
      </trkpt>
      <trkpt lat="48.13755" lon="6.67783">
        <ele>485.4</ele>
        <time>2023-09-03T06:51:45Z</time>
      </trkpt>
      <trkpt lat="48.1375" lon="6.67779">
        <ele>483.2</ele>
        <time>2023-09-03T06:51:46Z</time>
      </trkpt>
      <trkpt lat="48.13745" lon="6.67776">
        <ele>482</ele>
        <time>2023-09-03T06:51:47Z</time>
      </trkpt>
      <trkpt lat="48.1374" lon="6.67774">
        <ele>480.2</ele>
        <time>2023-09-03T06:51:48Z</time>
      </trkpt>
      <trkpt lat="48.13734" lon="6.67773">
        <ele>479.6</ele>
        <time>2023-09-03T06:51:49Z</time>
      </trkpt>
      <trkpt lat="48.13728" lon="6.67773">
        <ele>478.8</ele>
        <time>2023-09-03T06:51:50Z</time>
      </trkpt>
      <trkpt lat="48.13722" lon="6.67774">
        <ele>478</ele>
        <time>2023-09-03T06:51:51Z</time>
      </trkpt>
      <trkpt lat="48.13717" lon="6.67775">
        <ele>477.6</ele>
        <time>2023-09-03T06:51:52Z</time>
      </trkpt>
      <trkpt lat="48.13711" lon="6.67777">
        <ele>476</ele>
        <time>2023-09-03T06:51:53Z</time>
      </trkpt>
      <trkpt lat="48.13704" lon="6.67779">
        <ele>475.4</ele>
        <time>2023-09-03T06:51:54Z</time>
      </trkpt>
      <trkpt lat="48.13698" lon="6.67781">
        <ele>474.4</ele>
        <time>2023-09-03T06:51:55Z</time>
      </trkpt>
      <trkpt lat="48.13692" lon="6.67785">
        <ele>474</ele>
        <time>2023-09-03T06:51:56Z</time>
      </trkpt>
      <trkpt lat="48.13686" lon="6.6779">
        <ele>473.2</ele>
        <time>2023-09-03T06:51:57Z</time>
      </trkpt>
      <trkpt lat="48.13686" lon="6.6779">
        <ele>472.6</ele>
        <time>2023-09-03T06:51:58Z</time>
      </trkpt>
      <trkpt lat="48.13675" lon="6.678">
        <ele>471.6</ele>
        <time>2023-09-03T06:51:59Z</time>
      </trkpt>
      <trkpt lat="48.13669" lon="6.67806">
        <ele>471.2</ele>
        <time>2023-09-03T06:52:00Z</time>
      </trkpt>
      <trkpt lat="48.13664" lon="6.67813">
        <ele>470.6</ele>
        <time>2023-09-03T06:52:01Z</time>
      </trkpt>
      <trkpt lat="48.13659" lon="6.6782">
        <ele>470.2</ele>
        <time>2023-09-03T06:52:02Z</time>
      </trkpt>
      <trkpt lat="48.13655" lon="6.67827">
        <ele>469.6</ele>
        <time>2023-09-03T06:52:03Z</time>
      </trkpt>
      <trkpt lat="48.13652" lon="6.67834">
        <ele>469.4</ele>
        <time>2023-09-03T06:52:04Z</time>
      </trkpt>
      <trkpt lat="48.13649" lon="6.67842">
        <ele>468.6</ele>
        <time>2023-09-03T06:52:05Z</time>
      </trkpt>
      <trkpt lat="48.13646" lon="6.67848">
        <ele>467.2</ele>
        <time>2023-09-03T06:52:06Z</time>
      </trkpt>
      <trkpt lat="48.13645" lon="6.67854">
        <ele>466.8</ele>
        <time>2023-09-03T06:52:07Z</time>
      </trkpt>
      <trkpt lat="48.13645" lon="6.67859">
        <ele>466.2</ele>
        <time>2023-09-03T06:52:08Z</time>
      </trkpt>
      <trkpt lat="48.13644" lon="6.67864">
        <ele>465.8</ele>
        <time>2023-09-03T06:52:09Z</time>
      </trkpt>
      <trkpt lat="48.13645" lon="6.67869">
        <ele>464.2</ele>
        <time>2023-09-03T06:52:10Z</time>
      </trkpt>
      <trkpt lat="48.13646" lon="6.67874">
        <ele>463.4</ele>
        <time>2023-09-03T06:52:11Z</time>
      </trkpt>
      <trkpt lat="48.13647" lon="6.67879">
        <ele>462.6</ele>
        <time>2023-09-03T06:52:12Z</time>
      </trkpt>
      <trkpt lat="48.13646" lon="6.67884">
        <ele>462.2</ele>
        <time>2023-09-03T06:52:13Z</time>
      </trkpt>
      <trkpt lat="48.13645" lon="6.67885">
        <ele>461.4</ele>
        <time>2023-09-03T06:52:14Z</time>
      </trkpt>
      <trkpt lat="48.13646" lon="6.67883">
        <ele>461</ele>
        <time>2023-09-03T06:52:15Z</time>
      </trkpt>
      <trkpt lat="48.13646" lon="6.6788">
        <ele>460.6</ele>
        <time>2023-09-03T06:52:16Z</time>
      </trkpt>
      <trkpt lat="48.13646" lon="6.67873">
        <ele>460.4</ele>
        <time>2023-09-03T06:52:17Z</time>
      </trkpt>
      <trkpt lat="48.13645" lon="6.67865">
        <ele>460.4</ele>
        <time>2023-09-03T06:52:18Z</time>
      </trkpt>
      <trkpt lat="48.13644" lon="6.67855">
        <ele>460.2</ele>
        <time>2023-09-03T06:52:19Z</time>
      </trkpt>
      <trkpt lat="48.13643" lon="6.67844">
        <ele>460</ele>
        <time>2023-09-03T06:52:20Z</time>
      </trkpt>
      <trkpt lat="48.13641" lon="6.67834">
        <ele>460</ele>
        <time>2023-09-03T06:52:21Z</time>
      </trkpt>
      <trkpt lat="48.1364" lon="6.67826">
        <ele>459.8</ele>
        <time>2023-09-03T06:52:22Z</time>
      </trkpt>
      <trkpt lat="48.13639" lon="6.6782">
        <ele>459.2</ele>
        <time>2023-09-03T06:52:23Z</time>
      </trkpt>
      <trkpt lat="48.13638" lon="6.67815">
        <ele>458.6</ele>
        <time>2023-09-03T06:52:24Z</time>
      </trkpt>
      <trkpt lat="48.13636" lon="6.67813">
        <ele>457.8</ele>
        <time>2023-09-03T06:52:25Z</time>
      </trkpt>
      <trkpt lat="48.13634" lon="6.67813">
        <ele>457.4</ele>
        <time>2023-09-03T06:52:26Z</time>
      </trkpt>
      <trkpt lat="48.13631" lon="6.67815">
        <ele>456</ele>
        <time>2023-09-03T06:52:27Z</time>
      </trkpt>
      <trkpt lat="48.13629" lon="6.67818">
        <ele>455.4</ele>
        <time>2023-09-03T06:52:28Z</time>
      </trkpt>
      <trkpt lat="48.13627" lon="6.67824">
        <ele>454.6</ele>
        <time>2023-09-03T06:52:29Z</time>
      </trkpt>
      <trkpt lat="48.13626" lon="6.6783">
        <ele>454.2</ele>
        <time>2023-09-03T06:52:30Z</time>
      </trkpt>
      <trkpt lat="48.13625" lon="6.67836">
        <ele>453.4</ele>
        <time>2023-09-03T06:52:31Z</time>
      </trkpt>
      <trkpt lat="48.13624" lon="6.67842">
        <ele>452.8</ele>
        <time>2023-09-03T06:52:32Z</time>
      </trkpt>
      <trkpt lat="48.13622" lon="6.67848">
        <ele>452.6</ele>
        <time>2023-09-03T06:52:33Z</time>
      </trkpt>
      <trkpt lat="48.13622" lon="6.67855">
        <ele>452.6</ele>
        <time>2023-09-03T06:52:34Z</time>
      </trkpt>
      <trkpt lat="48.13622" lon="6.67861">
        <ele>452.4</ele>
        <time>2023-09-03T06:52:35Z</time>
      </trkpt>
      <trkpt lat="48.13622" lon="6.67869">
        <ele>452.2</ele>
        <time>2023-09-03T06:52:36Z</time>
      </trkpt>
      <trkpt lat="48.13621" lon="6.67878">
        <ele>452.2</ele>
        <time>2023-09-03T06:52:37Z</time>
      </trkpt>
      <trkpt lat="48.13622" lon="6.67888">
        <ele>452</ele>
        <time>2023-09-03T06:52:38Z</time>
      </trkpt>
      <trkpt lat="48.13622" lon="6.67898">
        <ele>452</ele>
        <time>2023-09-03T06:52:39Z</time>
      </trkpt>
      <trkpt lat="48.13621" lon="6.67908">
        <ele>451.4</ele>
        <time>2023-09-03T06:52:40Z</time>
      </trkpt>
      <trkpt lat="48.1362" lon="6.67919">
        <ele>451.2</ele>
        <time>2023-09-03T06:52:41Z</time>
      </trkpt>
      <trkpt lat="48.13618" lon="6.67929">
        <ele>451</ele>
        <time>2023-09-03T06:52:42Z</time>
      </trkpt>
      <trkpt lat="48.13615" lon="6.6794">
        <ele>450.8</ele>
        <time>2023-09-03T06:52:43Z</time>
      </trkpt>
      <trkpt lat="48.13611" lon="6.67951">
        <ele>450.8</ele>
        <time>2023-09-03T06:52:44Z</time>
      </trkpt>
      <trkpt lat="48.13605" lon="6.67963">
        <ele>450.8</ele>
        <time>2023-09-03T06:52:45Z</time>
      </trkpt>
      <trkpt lat="48.13598" lon="6.67973">
        <ele>450.4</ele>
        <time>2023-09-03T06:52:46Z</time>
      </trkpt>
      <trkpt lat="48.1359" lon="6.6798">
        <ele>448.6</ele>
        <time>2023-09-03T06:52:47Z</time>
      </trkpt>
      <trkpt lat="48.13582" lon="6.67984">
        <ele>448.2</ele>
        <time>2023-09-03T06:52:48Z</time>
      </trkpt>
      <trkpt lat="48.13573" lon="6.67987">
        <ele>447</ele>
        <time>2023-09-03T06:52:49Z</time>
      </trkpt>
      <trkpt lat="48.13565" lon="6.67988">
        <ele>446.6</ele>
        <time>2023-09-03T06:52:50Z</time>
      </trkpt>
      <trkpt lat="48.13557" lon="6.67989">
        <ele>445.4</ele>
        <time>2023-09-03T06:52:51Z</time>
      </trkpt>
      <trkpt lat="48.13549" lon="6.67991">
        <ele>445.2</ele>
        <time>2023-09-03T06:52:52Z</time>
      </trkpt>
      <trkpt lat="48.13549" lon="6.67991">
        <ele>444.8</ele>
        <time>2023-09-03T06:52:53Z</time>
      </trkpt>
      <trkpt lat="48.13535" lon="6.67995">
        <ele>444.6</ele>
        <time>2023-09-03T06:52:54Z</time>
      </trkpt>
      <trkpt lat="48.13529" lon="6.67998">
        <ele>443.8</ele>
        <time>2023-09-03T06:52:55Z</time>
      </trkpt>
      <trkpt lat="48.13524" lon="6.68">
        <ele>443.4</ele>
        <time>2023-09-03T06:52:56Z</time>
      </trkpt>
      <trkpt lat="48.13518" lon="6.68002">
        <ele>443</ele>
        <time>2023-09-03T06:52:57Z</time>
      </trkpt>
      <trkpt lat="48.13513" lon="6.68005">
        <ele>442.8</ele>
        <time>2023-09-03T06:52:58Z</time>
      </trkpt>
      <trkpt lat="48.13509" lon="6.68009">
        <ele>442.2</ele>
        <time>2023-09-03T06:52:59Z</time>
      </trkpt>
      <trkpt lat="48.13507" lon="6.68013">
        <ele>441.8</ele>
        <time>2023-09-03T06:53:00Z</time>
      </trkpt>
      <trkpt lat="48.13506" lon="6.68016">
        <ele>441.8</ele>
        <time>2023-09-03T06:53:01Z</time>
      </trkpt>
      <trkpt lat="48.13504" lon="6.6802">
        <ele>441.6</ele>
        <time>2023-09-03T06:53:02Z</time>
      </trkpt>
      <trkpt lat="48.13503" lon="6.68024">
        <ele>441.6</ele>
        <time>2023-09-03T06:53:03Z</time>
      </trkpt>
      <trkpt lat="48.13504" lon="6.68028">
        <ele>441.6</ele>
        <time>2023-09-03T06:53:04Z</time>
      </trkpt>
      <trkpt lat="48.13505" lon="6.68032">
        <ele>441.6</ele>
        <time>2023-09-03T06:53:05Z</time>
      </trkpt>
      <trkpt lat="48.13505" lon="6.68036">
        <ele>441.6</ele>
        <time>2023-09-03T06:53:06Z</time>
      </trkpt>
      <trkpt lat="48.13504" lon="6.68039">
        <ele>441.8</ele>
        <time>2023-09-03T06:53:07Z</time>
      </trkpt>
      <trkpt lat="48.13501" lon="6.68046">
        <ele>442</ele>
        <time>2023-09-03T06:53:08Z</time>
      </trkpt>
      <trkpt lat="48.13498" lon="6.6805">
        <ele>442</ele>
        <time>2023-09-03T06:53:09Z</time>
      </trkpt>
      <trkpt lat="48.13496" lon="6.68053">
        <ele>442.6</ele>
        <time>2023-09-03T06:53:10Z</time>
      </trkpt>
      <trkpt lat="48.13495" lon="6.68056">
        <ele>443</ele>
        <time>2023-09-03T06:53:11Z</time>
      </trkpt>
      <trkpt lat="48.13493" lon="6.68059">
        <ele>443.6</ele>
        <time>2023-09-03T06:53:12Z</time>
      </trkpt>
      <trkpt lat="48.13493" lon="6.68062">
        <ele>444.2</ele>
        <time>2023-09-03T06:53:13Z</time>
      </trkpt>
      <trkpt lat="48.13491" lon="6.68065">
        <ele>444.4</ele>
        <time>2023-09-03T06:53:14Z</time>
      </trkpt>
      <trkpt lat="48.13489" lon="6.6807">
        <ele>445</ele>
        <time>2023-09-03T06:53:15Z</time>
      </trkpt>
      <trkpt lat="48.13486" lon="6.68073">
        <ele>445.2</ele>
        <time>2023-09-03T06:53:16Z</time>
      </trkpt>
      <trkpt lat="48.13485" lon="6.68076">
        <ele>446.2</ele>
        <time>2023-09-03T06:53:17Z</time>
      </trkpt>
      <trkpt lat="48.13483" lon="6.68081">
        <ele>446.4</ele>
        <time>2023-09-03T06:53:18Z</time>
      </trkpt>
      <trkpt lat="48.13481" lon="6.68083">
        <ele>447</ele>
        <time>2023-09-03T06:53:19Z</time>
      </trkpt>
      <trkpt lat="48.13478" lon="6.68084">
        <ele>447</ele>
        <time>2023-09-03T06:53:20Z</time>
      </trkpt>
      <trkpt lat="48.13478" lon="6.68086">
        <ele>447.4</ele>
        <time>2023-09-03T06:53:21Z</time>
      </trkpt>
      <trkpt lat="48.13478" lon="6.68089">
        <ele>447.6</ele>
        <time>2023-09-03T06:53:22Z</time>
      </trkpt>
      <trkpt lat="48.1348" lon="6.68093">
        <ele>447.8</ele>
        <time>2023-09-03T06:53:23Z</time>
      </trkpt>
      <trkpt lat="48.13481" lon="6.681">
        <ele>448</ele>
        <time>2023-09-03T06:53:24Z</time>
      </trkpt>
      <trkpt lat="48.13481" lon="6.68105">
        <ele>448.2</ele>
        <time>2023-09-03T06:53:25Z</time>
      </trkpt>
      <trkpt lat="48.1348" lon="6.68109">
        <ele>448.4</ele>
        <time>2023-09-03T06:53:26Z</time>
      </trkpt>
      <trkpt lat="48.13479" lon="6.68113">
        <ele>448.6</ele>
        <time>2023-09-03T06:53:27Z</time>
      </trkpt>
      <trkpt lat="48.13478" lon="6.68118">
        <ele>449</ele>
        <time>2023-09-03T06:53:28Z</time>
      </trkpt>
      <trkpt lat="48.13479" lon="6.68123">
        <ele>449.2</ele>
        <time>2023-09-03T06:53:29Z</time>
      </trkpt>
      <trkpt lat="48.13478" lon="6.68126">
        <ele>449.4</ele>
        <time>2023-09-03T06:53:30Z</time>
      </trkpt>
      <trkpt lat="48.13477" lon="6.6813">
        <ele>449.6</ele>
        <time>2023-09-03T06:53:31Z</time>
      </trkpt>
      <trkpt lat="48.13477" lon="6.68134">
        <ele>449.8</ele>
        <time>2023-09-03T06:53:32Z</time>
      </trkpt>
      <trkpt lat="48.13477" lon="6.68139">
        <ele>449.8</ele>
        <time>2023-09-03T06:53:33Z</time>
      </trkpt>
      <trkpt lat="48.13476" lon="6.68145">
        <ele>449.8</ele>
        <time>2023-09-03T06:53:34Z</time>
      </trkpt>
      <trkpt lat="48.13475" lon="6.68152">
        <ele>450.2</ele>
        <time>2023-09-03T06:53:35Z</time>
      </trkpt>
      <trkpt lat="48.13474" lon="6.6816">
        <ele>450</ele>
        <time>2023-09-03T06:53:36Z</time>
      </trkpt>
      <trkpt lat="48.13474" lon="6.68166">
        <ele>450.4</ele>
        <time>2023-09-03T06:53:37Z</time>
      </trkpt>
      <trkpt lat="48.13477" lon="6.68171">
        <ele>450.4</ele>
        <time>2023-09-03T06:53:38Z</time>
      </trkpt>
      <trkpt lat="48.13479" lon="6.68177">
        <ele>450.4</ele>
        <time>2023-09-03T06:53:39Z</time>
      </trkpt>
      <trkpt lat="48.13478" lon="6.68183">
        <ele>451</ele>
        <time>2023-09-03T06:53:40Z</time>
      </trkpt>
      <trkpt lat="48.13478" lon="6.68188">
        <ele>451</ele>
        <time>2023-09-03T06:53:41Z</time>
      </trkpt>
      <trkpt lat="48.13477" lon="6.68194">
        <ele>451</ele>
        <time>2023-09-03T06:53:42Z</time>
      </trkpt>
      <trkpt lat="48.13477" lon="6.68199">
        <ele>451</ele>
        <time>2023-09-03T06:53:43Z</time>
      </trkpt>
      <trkpt lat="48.13476" lon="6.68205">
        <ele>450.8</ele>
        <time>2023-09-03T06:53:44Z</time>
      </trkpt>
      <trkpt lat="48.13474" lon="6.68212">
        <ele>451</ele>
        <time>2023-09-03T06:53:45Z</time>
      </trkpt>
      <trkpt lat="48.13473" lon="6.68217">
        <ele>451</ele>
        <time>2023-09-03T06:53:46Z</time>
      </trkpt>
      <trkpt lat="48.13475" lon="6.68223">
        <ele>451.2</ele>
        <time>2023-09-03T06:53:47Z</time>
      </trkpt>
      <trkpt lat="48.13476" lon="6.68229">
        <ele>451.2</ele>
        <time>2023-09-03T06:53:48Z</time>
      </trkpt>
      <trkpt lat="48.13476" lon="6.68235">
        <ele>451.2</ele>
        <time>2023-09-03T06:53:49Z</time>
      </trkpt>
      <trkpt lat="48.13477" lon="6.68241">
        <ele>451.2</ele>
        <time>2023-09-03T06:53:50Z</time>
      </trkpt>
      <trkpt lat="48.13476" lon="6.68245">
        <ele>451.2</ele>
        <time>2023-09-03T06:53:51Z</time>
      </trkpt>
      <trkpt lat="48.13475" lon="6.6825">
        <ele>451.2</ele>
        <time>2023-09-03T06:53:52Z</time>
      </trkpt>
      <trkpt lat="48.13476" lon="6.68254">
        <ele>451.2</ele>
        <time>2023-09-03T06:53:53Z</time>
      </trkpt>
      <trkpt lat="48.13477" lon="6.68258">
        <ele>451.2</ele>
        <time>2023-09-03T06:53:54Z</time>
      </trkpt>
      <trkpt lat="48.13477" lon="6.68262">
        <ele>451.2</ele>
        <time>2023-09-03T06:53:55Z</time>
      </trkpt>
      <trkpt lat="48.13476" lon="6.68264">
        <ele>451</ele>
        <time>2023-09-03T06:53:56Z</time>
      </trkpt>
      <trkpt lat="48.13476" lon="6.68268">
        <ele>451</ele>
        <time>2023-09-03T06:53:57Z</time>
      </trkpt>
      <trkpt lat="48.13476" lon="6.68268">
        <ele>451</ele>
        <time>2023-09-03T06:53:58Z</time>
      </trkpt>
      <trkpt lat="48.13479" lon="6.68276">
        <ele>451</ele>
        <time>2023-09-03T06:53:59Z</time>
      </trkpt>
      <trkpt lat="48.1348" lon="6.68279">
        <ele>451</ele>
        <time>2023-09-03T06:54:00Z</time>
      </trkpt>
      <trkpt lat="48.13482" lon="6.68282">
        <ele>451</ele>
        <time>2023-09-03T06:54:01Z</time>
      </trkpt>
      <trkpt lat="48.13483" lon="6.68284">
        <ele>451</ele>
        <time>2023-09-03T06:54:02Z</time>
      </trkpt>
      <trkpt lat="48.13483" lon="6.68286">
        <ele>451</ele>
        <time>2023-09-03T06:54:03Z</time>
      </trkpt>
      <trkpt lat="48.13484" lon="6.68289">
        <ele>451</ele>
        <time>2023-09-03T06:54:04Z</time>
      </trkpt>
      <trkpt lat="48.13486" lon="6.68292">
        <ele>451</ele>
        <time>2023-09-03T06:54:05Z</time>
      </trkpt>
      <trkpt lat="48.13487" lon="6.68295">
        <ele>450.8</ele>
        <time>2023-09-03T06:54:06Z</time>
      </trkpt>
      <trkpt lat="48.13489" lon="6.68298">
        <ele>451</ele>
        <time>2023-09-03T06:54:07Z</time>
      </trkpt>
      <trkpt lat="48.1349" lon="6.683">
        <ele>451</ele>
        <time>2023-09-03T06:54:08Z</time>
      </trkpt>
      <trkpt lat="48.13491" lon="6.68302">
        <ele>451</ele>
        <time>2023-09-03T06:54:09Z</time>
      </trkpt>
      <trkpt lat="48.13492" lon="6.68304">
        <ele>451</ele>
        <time>2023-09-03T06:54:10Z</time>
      </trkpt>
      <trkpt lat="48.13493" lon="6.68307">
        <ele>451</ele>
        <time>2023-09-03T06:54:11Z</time>
      </trkpt>
      <trkpt lat="48.13494" lon="6.68309">
        <ele>451</ele>
        <time>2023-09-03T06:54:12Z</time>
      </trkpt>
      <trkpt lat="48.13495" lon="6.68313">
        <ele>451</ele>
        <time>2023-09-03T06:54:13Z</time>
      </trkpt>
      <trkpt lat="48.13496" lon="6.68316">
        <ele>451</ele>
        <time>2023-09-03T06:54:14Z</time>
      </trkpt>
      <trkpt lat="48.13497" lon="6.68319">
        <ele>451</ele>
        <time>2023-09-03T06:54:15Z</time>
      </trkpt>
      <trkpt lat="48.13498" lon="6.68323">
        <ele>451.2</ele>
        <time>2023-09-03T06:54:16Z</time>
      </trkpt>
      <trkpt lat="48.13499" lon="6.68327">
        <ele>451.2</ele>
        <time>2023-09-03T06:54:17Z</time>
      </trkpt>
      <trkpt lat="48.13501" lon="6.68332">
        <ele>451.2</ele>
        <time>2023-09-03T06:54:18Z</time>
      </trkpt>
      <trkpt lat="48.135" lon="6.68335">
        <ele>451.6</ele>
        <time>2023-09-03T06:54:19Z</time>
      </trkpt>
      <trkpt lat="48.135" lon="6.68338">
        <ele>451.8</ele>
        <time>2023-09-03T06:54:20Z</time>
      </trkpt>
      <trkpt lat="48.13499" lon="6.68341">
        <ele>451.8</ele>
        <time>2023-09-03T06:54:21Z</time>
      </trkpt>
      <trkpt lat="48.13498" lon="6.68345">
        <ele>452.2</ele>
        <time>2023-09-03T06:54:22Z</time>
      </trkpt>
      <trkpt lat="48.13497" lon="6.68349">
        <ele>452.4</ele>
        <time>2023-09-03T06:54:23Z</time>
      </trkpt>
      <trkpt lat="48.13496" lon="6.68353">
        <ele>452.8</ele>
        <time>2023-09-03T06:54:24Z</time>
      </trkpt>
      <trkpt lat="48.13494" lon="6.68357">
        <ele>453</ele>
        <time>2023-09-03T06:54:25Z</time>
      </trkpt>
      <trkpt lat="48.13493" lon="6.6836">
        <ele>453.4</ele>
        <time>2023-09-03T06:54:26Z</time>
      </trkpt>
      <trkpt lat="48.13492" lon="6.68363">
        <ele>453.4</ele>
        <time>2023-09-03T06:54:27Z</time>
      </trkpt>
      <trkpt lat="48.1349" lon="6.68367">
        <ele>453.6</ele>
        <time>2023-09-03T06:54:28Z</time>
      </trkpt>
      <trkpt lat="48.13489" lon="6.68371">
        <ele>453.8</ele>
        <time>2023-09-03T06:54:29Z</time>
      </trkpt>
      <trkpt lat="48.13487" lon="6.68375">
        <ele>454</ele>
        <time>2023-09-03T06:54:30Z</time>
      </trkpt>
      <trkpt lat="48.13485" lon="6.68378">
        <ele>454</ele>
        <time>2023-09-03T06:54:31Z</time>
      </trkpt>
      <trkpt lat="48.13483" lon="6.68382">
        <ele>454.4</ele>
        <time>2023-09-03T06:54:32Z</time>
      </trkpt>
      <trkpt lat="48.13481" lon="6.68384">
        <ele>454.6</ele>
        <time>2023-09-03T06:54:33Z</time>
      </trkpt>
      <trkpt lat="48.1348" lon="6.68388">
        <ele>455.2</ele>
        <time>2023-09-03T06:54:34Z</time>
      </trkpt>
      <trkpt lat="48.13478" lon="6.68391">
        <ele>455.6</ele>
        <time>2023-09-03T06:54:35Z</time>
      </trkpt>
      <trkpt lat="48.13476" lon="6.68394">
        <ele>455.8</ele>
        <time>2023-09-03T06:54:36Z</time>
      </trkpt>
      <trkpt lat="48.13473" lon="6.68398">
        <ele>456.2</ele>
        <time>2023-09-03T06:54:37Z</time>
      </trkpt>
      <trkpt lat="48.13471" lon="6.68401">
        <ele>456.4</ele>
        <time>2023-09-03T06:54:38Z</time>
      </trkpt>
      <trkpt lat="48.13469" lon="6.68405">
        <ele>456.6</ele>
        <time>2023-09-03T06:54:39Z</time>
      </trkpt>
      <trkpt lat="48.13467" lon="6.68408">
        <ele>456.6</ele>
        <time>2023-09-03T06:54:40Z</time>
      </trkpt>
      <trkpt lat="48.13465" lon="6.68411">
        <ele>456.8</ele>
        <time>2023-09-03T06:54:41Z</time>
      </trkpt>
      <trkpt lat="48.13463" lon="6.68414">
        <ele>456.8</ele>
        <time>2023-09-03T06:54:42Z</time>
      </trkpt>
      <trkpt lat="48.13461" lon="6.68417">
        <ele>457.2</ele>
        <time>2023-09-03T06:54:43Z</time>
      </trkpt>
      <trkpt lat="48.13459" lon="6.68419">
        <ele>457.2</ele>
        <time>2023-09-03T06:54:44Z</time>
      </trkpt>
      <trkpt lat="48.13457" lon="6.68422">
        <ele>457.4</ele>
        <time>2023-09-03T06:54:45Z</time>
      </trkpt>
      <trkpt lat="48.13455" lon="6.68423">
        <ele>457.6</ele>
        <time>2023-09-03T06:54:46Z</time>
      </trkpt>
      <trkpt lat="48.13452" lon="6.68426">
        <ele>458</ele>
        <time>2023-09-03T06:54:47Z</time>
      </trkpt>
      <trkpt lat="48.1345" lon="6.68428">
        <ele>458.2</ele>
        <time>2023-09-03T06:54:48Z</time>
      </trkpt>
      <trkpt lat="48.13448" lon="6.68431">
        <ele>458.4</ele>
        <time>2023-09-03T06:54:49Z</time>
      </trkpt>
      <trkpt lat="48.13445" lon="6.68433">
        <ele>458.4</ele>
        <time>2023-09-03T06:54:50Z</time>
      </trkpt>
      <trkpt lat="48.13443" lon="6.68435">
        <ele>458.6</ele>
        <time>2023-09-03T06:54:51Z</time>
      </trkpt>
      <trkpt lat="48.13441" lon="6.68438">
        <ele>458.8</ele>
        <time>2023-09-03T06:54:52Z</time>
      </trkpt>
      <trkpt lat="48.13439" lon="6.6844">
        <ele>458.8</ele>
        <time>2023-09-03T06:54:53Z</time>
      </trkpt>
      <trkpt lat="48.13437" lon="6.68443">
        <ele>459</ele>
        <time>2023-09-03T06:54:54Z</time>
      </trkpt>
      <trkpt lat="48.13435" lon="6.68445">
        <ele>459.2</ele>
        <time>2023-09-03T06:54:55Z</time>
      </trkpt>
      <trkpt lat="48.13433" lon="6.68448">
        <ele>459.4</ele>
        <time>2023-09-03T06:54:56Z</time>
      </trkpt>
      <trkpt lat="48.13431" lon="6.6845">
        <ele>459.4</ele>
        <time>2023-09-03T06:54:57Z</time>
      </trkpt>
      <trkpt lat="48.13429" lon="6.68452">
        <ele>459.8</ele>
        <time>2023-09-03T06:54:58Z</time>
      </trkpt>
      <trkpt lat="48.13427" lon="6.68455">
        <ele>459.8</ele>
        <time>2023-09-03T06:54:59Z</time>
      </trkpt>
      <trkpt lat="48.13425" lon="6.68458">
        <ele>460</ele>
        <time>2023-09-03T06:55:00Z</time>
      </trkpt>
      <trkpt lat="48.13423" lon="6.6846">
        <ele>460</ele>
        <time>2023-09-03T06:55:01Z</time>
      </trkpt>
      <trkpt lat="48.13421" lon="6.68463">
        <ele>460.2</ele>
        <time>2023-09-03T06:55:02Z</time>
      </trkpt>
      <trkpt lat="48.13418" lon="6.68465">
        <ele>460.4</ele>
        <time>2023-09-03T06:55:03Z</time>
      </trkpt>
      <trkpt lat="48.13416" lon="6.68467">
        <ele>460.4</ele>
        <time>2023-09-03T06:55:04Z</time>
      </trkpt>
      <trkpt lat="48.13414" lon="6.6847">
        <ele>460.6</ele>
        <time>2023-09-03T06:55:05Z</time>
      </trkpt>
      <trkpt lat="48.13412" lon="6.68472">
        <ele>460.8</ele>
        <time>2023-09-03T06:55:06Z</time>
      </trkpt>
      <trkpt lat="48.13409" lon="6.68475">
        <ele>461</ele>
        <time>2023-09-03T06:55:07Z</time>
      </trkpt>
      <trkpt lat="48.13407" lon="6.68478">
        <ele>461</ele>
        <time>2023-09-03T06:55:08Z</time>
      </trkpt>
      <trkpt lat="48.13405" lon="6.6848">
        <ele>461.4</ele>
        <time>2023-09-03T06:55:09Z</time>
      </trkpt>
      <trkpt lat="48.13403" lon="6.68483">
        <ele>461.4</ele>
        <time>2023-09-03T06:55:10Z</time>
      </trkpt>
      <trkpt lat="48.13401" lon="6.68486">
        <ele>461.8</ele>
        <time>2023-09-03T06:55:11Z</time>
      </trkpt>
      <trkpt lat="48.134" lon="6.68489">
        <ele>461.8</ele>
        <time>2023-09-03T06:55:12Z</time>
      </trkpt>
      <trkpt lat="48.13398" lon="6.68492">
        <ele>462.2</ele>
        <time>2023-09-03T06:55:13Z</time>
      </trkpt>
      <trkpt lat="48.13396" lon="6.68495">
        <ele>462.2</ele>
        <time>2023-09-03T06:55:14Z</time>
      </trkpt>
      <trkpt lat="48.13393" lon="6.68498">
        <ele>462.6</ele>
        <time>2023-09-03T06:55:15Z</time>
      </trkpt>
      <trkpt lat="48.13391" lon="6.68502">
        <ele>463</ele>
        <time>2023-09-03T06:55:16Z</time>
      </trkpt>
      <trkpt lat="48.13388" lon="6.68504">
        <ele>463</ele>
        <time>2023-09-03T06:55:17Z</time>
      </trkpt>
      <trkpt lat="48.13386" lon="6.68506">
        <ele>463.4</ele>
        <time>2023-09-03T06:55:18Z</time>
      </trkpt>
      <trkpt lat="48.13383" lon="6.68508">
        <ele>463.4</ele>
        <time>2023-09-03T06:55:19Z</time>
      </trkpt>
      <trkpt lat="48.13381" lon="6.68509">
        <ele>463.8</ele>
        <time>2023-09-03T06:55:20Z</time>
      </trkpt>
      <trkpt lat="48.13378" lon="6.6851">
        <ele>463.8</ele>
        <time>2023-09-03T06:55:21Z</time>
      </trkpt>
      <trkpt lat="48.13375" lon="6.68511">
        <ele>464</ele>
        <time>2023-09-03T06:55:22Z</time>
      </trkpt>
      <trkpt lat="48.13372" lon="6.68512">
        <ele>464.2</ele>
        <time>2023-09-03T06:55:23Z</time>
      </trkpt>
      <trkpt lat="48.13369" lon="6.68513">
        <ele>464.4</ele>
        <time>2023-09-03T06:55:24Z</time>
      </trkpt>
      <trkpt lat="48.13366" lon="6.68513">
        <ele>464.4</ele>
        <time>2023-09-03T06:55:25Z</time>
      </trkpt>
      <trkpt lat="48.13363" lon="6.68512">
        <ele>464.6</ele>
        <time>2023-09-03T06:55:26Z</time>
      </trkpt>
      <trkpt lat="48.1336" lon="6.68512">
        <ele>464.6</ele>
        <time>2023-09-03T06:55:27Z</time>
      </trkpt>
      <trkpt lat="48.13356" lon="6.68511">
        <ele>464.8</ele>
        <time>2023-09-03T06:55:28Z</time>
      </trkpt>
      <trkpt lat="48.13353" lon="6.6851">
        <ele>465</ele>
        <time>2023-09-03T06:55:29Z</time>
      </trkpt>
      <trkpt lat="48.1335" lon="6.68507">
        <ele>465.2</ele>
        <time>2023-09-03T06:55:30Z</time>
      </trkpt>
      <trkpt lat="48.13347" lon="6.68505">
        <ele>465.4</ele>
        <time>2023-09-03T06:55:31Z</time>
      </trkpt>
      <trkpt lat="48.13344" lon="6.68501">
        <ele>465.6</ele>
        <time>2023-09-03T06:55:32Z</time>
      </trkpt>
      <trkpt lat="48.13341" lon="6.68498">
        <ele>465.8</ele>
        <time>2023-09-03T06:55:33Z</time>
      </trkpt>
      <trkpt lat="48.13339" lon="6.68495">
        <ele>466</ele>
        <time>2023-09-03T06:55:34Z</time>
      </trkpt>
      <trkpt lat="48.13336" lon="6.68492">
        <ele>466.2</ele>
        <time>2023-09-03T06:55:35Z</time>
      </trkpt>
      <trkpt lat="48.13333" lon="6.68488">
        <ele>466.2</ele>
        <time>2023-09-03T06:55:36Z</time>
      </trkpt>
      <trkpt lat="48.1333" lon="6.68485">
        <ele>466.2</ele>
        <time>2023-09-03T06:55:37Z</time>
      </trkpt>
      <trkpt lat="48.13326" lon="6.68482">
        <ele>466.4</ele>
        <time>2023-09-03T06:55:38Z</time>
      </trkpt>
      <trkpt lat="48.13323" lon="6.68479">
        <ele>466.4</ele>
        <time>2023-09-03T06:55:39Z</time>
      </trkpt>
      <trkpt lat="48.1332" lon="6.68475">
        <ele>466.6</ele>
        <time>2023-09-03T06:55:40Z</time>
      </trkpt>
      <trkpt lat="48.13316" lon="6.68472">
        <ele>466.8</ele>
        <time>2023-09-03T06:55:41Z</time>
      </trkpt>
      <trkpt lat="48.13313" lon="6.68469">
        <ele>466.8</ele>
        <time>2023-09-03T06:55:42Z</time>
      </trkpt>
      <trkpt lat="48.13309" lon="6.68466">
        <ele>466.8</ele>
        <time>2023-09-03T06:55:43Z</time>
      </trkpt>
      <trkpt lat="48.13306" lon="6.68463">
        <ele>466.8</ele>
        <time>2023-09-03T06:55:44Z</time>
      </trkpt>
      <trkpt lat="48.13302" lon="6.68459">
        <ele>466.8</ele>
        <time>2023-09-03T06:55:45Z</time>
      </trkpt>
      <trkpt lat="48.13299" lon="6.68456">
        <ele>467</ele>
        <time>2023-09-03T06:55:46Z</time>
      </trkpt>
      <trkpt lat="48.13296" lon="6.68453">
        <ele>467</ele>
        <time>2023-09-03T06:55:47Z</time>
      </trkpt>
      <trkpt lat="48.13292" lon="6.6845">
        <ele>467.2</ele>
        <time>2023-09-03T06:55:48Z</time>
      </trkpt>
      <trkpt lat="48.13289" lon="6.68446">
        <ele>467.2</ele>
        <time>2023-09-03T06:55:49Z</time>
      </trkpt>
      <trkpt lat="48.13286" lon="6.68442">
        <ele>467.2</ele>
        <time>2023-09-03T06:55:50Z</time>
      </trkpt>
      <trkpt lat="48.13284" lon="6.68437">
        <ele>467.2</ele>
        <time>2023-09-03T06:55:51Z</time>
      </trkpt>
      <trkpt lat="48.13282" lon="6.6843">
        <ele>467.4</ele>
        <time>2023-09-03T06:55:52Z</time>
      </trkpt>
      <trkpt lat="48.13281" lon="6.68423">
        <ele>467.4</ele>
        <time>2023-09-03T06:55:53Z</time>
      </trkpt>
      <trkpt lat="48.1328" lon="6.68416">
        <ele>467.6</ele>
        <time>2023-09-03T06:55:54Z</time>
      </trkpt>
      <trkpt lat="48.1328" lon="6.68408">
        <ele>467.6</ele>
        <time>2023-09-03T06:55:55Z</time>
      </trkpt>
      <trkpt lat="48.1328" lon="6.68401">
        <ele>468</ele>
        <time>2023-09-03T06:55:56Z</time>
      </trkpt>
      <trkpt lat="48.1328" lon="6.68393">
        <ele>468</ele>
        <time>2023-09-03T06:55:57Z</time>
      </trkpt>
      <trkpt lat="48.1328" lon="6.68385">
        <ele>468</ele>
        <time>2023-09-03T06:55:58Z</time>
      </trkpt>
      <trkpt lat="48.1328" lon="6.68385">
        <ele>468</ele>
        <time>2023-09-03T06:55:59Z</time>
      </trkpt>
      <trkpt lat="48.13281" lon="6.68369">
        <ele>467.8</ele>
        <time>2023-09-03T06:56:00Z</time>
      </trkpt>
      <trkpt lat="48.13281" lon="6.68361">
        <ele>467.8</ele>
        <time>2023-09-03T06:56:01Z</time>
      </trkpt>
      <trkpt lat="48.1328" lon="6.68353">
        <ele>467.8</ele>
        <time>2023-09-03T06:56:02Z</time>
      </trkpt>
      <trkpt lat="48.1328" lon="6.68344">
        <ele>467.6</ele>
        <time>2023-09-03T06:56:03Z</time>
      </trkpt>
      <trkpt lat="48.13279" lon="6.68336">
        <ele>467.6</ele>
        <time>2023-09-03T06:56:04Z</time>
      </trkpt>
      <trkpt lat="48.13278" lon="6.68328">
        <ele>467.4</ele>
        <time>2023-09-03T06:56:05Z</time>
      </trkpt>
      <trkpt lat="48.13277" lon="6.68321">
        <ele>467.4</ele>
        <time>2023-09-03T06:56:06Z</time>
      </trkpt>
      <trkpt lat="48.13276" lon="6.68314">
        <ele>467.4</ele>
        <time>2023-09-03T06:56:07Z</time>
      </trkpt>
      <trkpt lat="48.13274" lon="6.68307">
        <ele>467.4</ele>
        <time>2023-09-03T06:56:08Z</time>
      </trkpt>
      <trkpt lat="48.13272" lon="6.68301">
        <ele>467.4</ele>
        <time>2023-09-03T06:56:09Z</time>
      </trkpt>
      <trkpt lat="48.1327" lon="6.68294">
        <ele>467.4</ele>
        <time>2023-09-03T06:56:10Z</time>
      </trkpt>
      <trkpt lat="48.13268" lon="6.68287">
        <ele>467.2</ele>
        <time>2023-09-03T06:56:11Z</time>
      </trkpt>
      <trkpt lat="48.13265" lon="6.6828">
        <ele>467.2</ele>
        <time>2023-09-03T06:56:12Z</time>
      </trkpt>
      <trkpt lat="48.13263" lon="6.68274">
        <ele>467.2</ele>
        <time>2023-09-03T06:56:13Z</time>
      </trkpt>
      <trkpt lat="48.1326" lon="6.68267">
        <ele>467.2</ele>
        <time>2023-09-03T06:56:14Z</time>
      </trkpt>
      <trkpt lat="48.13258" lon="6.68259">
        <ele>467.2</ele>
        <time>2023-09-03T06:56:15Z</time>
      </trkpt>
      <trkpt lat="48.13256" lon="6.68252">
        <ele>467.2</ele>
        <time>2023-09-03T06:56:16Z</time>
      </trkpt>
      <trkpt lat="48.13253" lon="6.68244">
        <ele>467.2</ele>
        <time>2023-09-03T06:56:17Z</time>
      </trkpt>
      <trkpt lat="48.13251" lon="6.68236">
        <ele>467.2</ele>
        <time>2023-09-03T06:56:18Z</time>
      </trkpt>
      <trkpt lat="48.13248" lon="6.68228">
        <ele>467.2</ele>
        <time>2023-09-03T06:56:19Z</time>
      </trkpt>
      <trkpt lat="48.13246" lon="6.6822">
        <ele>467.2</ele>
        <time>2023-09-03T06:56:20Z</time>
      </trkpt>
      <trkpt lat="48.13243" lon="6.68213">
        <ele>467.2</ele>
        <time>2023-09-03T06:56:21Z</time>
      </trkpt>
      <trkpt lat="48.1324" lon="6.68204">
        <ele>467.2</ele>
        <time>2023-09-03T06:56:22Z</time>
      </trkpt>
      <trkpt lat="48.13237" lon="6.68197">
        <ele>466.8</ele>
        <time>2023-09-03T06:56:23Z</time>
      </trkpt>
      <trkpt lat="48.13233" lon="6.68192">
        <ele>466.8</ele>
        <time>2023-09-03T06:56:24Z</time>
      </trkpt>
      <trkpt lat="48.13228" lon="6.68189">
        <ele>466.4</ele>
        <time>2023-09-03T06:56:25Z</time>
      </trkpt>
      <trkpt lat="48.13223" lon="6.68189">
        <ele>466.4</ele>
        <time>2023-09-03T06:56:26Z</time>
      </trkpt>
      <trkpt lat="48.13217" lon="6.68188">
        <ele>466</ele>
        <time>2023-09-03T06:56:27Z</time>
      </trkpt>
      <trkpt lat="48.13212" lon="6.68188">
        <ele>465.8</ele>
        <time>2023-09-03T06:56:28Z</time>
      </trkpt>
      <trkpt lat="48.13207" lon="6.68187">
        <ele>465.8</ele>
        <time>2023-09-03T06:56:29Z</time>
      </trkpt>
      <trkpt lat="48.13203" lon="6.68185">
        <ele>465.6</ele>
        <time>2023-09-03T06:56:30Z</time>
      </trkpt>
      <trkpt lat="48.13198" lon="6.68184">
        <ele>465.6</ele>
        <time>2023-09-03T06:56:31Z</time>
      </trkpt>
      <trkpt lat="48.13193" lon="6.68183">
        <ele>465.6</ele>
        <time>2023-09-03T06:56:32Z</time>
      </trkpt>
      <trkpt lat="48.13187" lon="6.68182">
        <ele>465.6</ele>
        <time>2023-09-03T06:56:33Z</time>
      </trkpt>
      <trkpt lat="48.13183" lon="6.68181">
        <ele>465.6</ele>
        <time>2023-09-03T06:56:34Z</time>
      </trkpt>
      <trkpt lat="48.13177" lon="6.6818">
        <ele>465.6</ele>
        <time>2023-09-03T06:56:35Z</time>
      </trkpt>
      <trkpt lat="48.13172" lon="6.68179">
        <ele>465.6</ele>
        <time>2023-09-03T06:56:36Z</time>
      </trkpt>
      <trkpt lat="48.13167" lon="6.68178">
        <ele>465.6</ele>
        <time>2023-09-03T06:56:37Z</time>
      </trkpt>
      <trkpt lat="48.13163" lon="6.68178">
        <ele>465.8</ele>
        <time>2023-09-03T06:56:38Z</time>
      </trkpt>
      <trkpt lat="48.13158" lon="6.68178">
        <ele>466</ele>
        <time>2023-09-03T06:56:39Z</time>
      </trkpt>
      <trkpt lat="48.13154" lon="6.68178">
        <ele>466.2</ele>
        <time>2023-09-03T06:56:40Z</time>
      </trkpt>
      <trkpt lat="48.13151" lon="6.68178">
        <ele>466.4</ele>
        <time>2023-09-03T06:56:41Z</time>
      </trkpt>
      <trkpt lat="48.13147" lon="6.68178">
        <ele>466.6</ele>
        <time>2023-09-03T06:56:42Z</time>
      </trkpt>
      <trkpt lat="48.13144" lon="6.68179">
        <ele>466.6</ele>
        <time>2023-09-03T06:56:43Z</time>
      </trkpt>
      <trkpt lat="48.1314" lon="6.6818">
        <ele>466.8</ele>
        <time>2023-09-03T06:56:44Z</time>
      </trkpt>
      <trkpt lat="48.13137" lon="6.68181">
        <ele>467</ele>
        <time>2023-09-03T06:56:45Z</time>
      </trkpt>
      <trkpt lat="48.13133" lon="6.68182">
        <ele>467.2</ele>
        <time>2023-09-03T06:56:46Z</time>
      </trkpt>
      <trkpt lat="48.1313" lon="6.68183">
        <ele>467.4</ele>
        <time>2023-09-03T06:56:47Z</time>
      </trkpt>
      <trkpt lat="48.13126" lon="6.68185">
        <ele>468</ele>
        <time>2023-09-03T06:56:48Z</time>
      </trkpt>
      <trkpt lat="48.13123" lon="6.68186">
        <ele>468.4</ele>
        <time>2023-09-03T06:56:49Z</time>
      </trkpt>
      <trkpt lat="48.13119" lon="6.68188">
        <ele>468.4</ele>
        <time>2023-09-03T06:56:50Z</time>
      </trkpt>
      <trkpt lat="48.13116" lon="6.6819">
        <ele>469</ele>
        <time>2023-09-03T06:56:51Z</time>
      </trkpt>
      <trkpt lat="48.13112" lon="6.68192">
        <ele>469.2</ele>
        <time>2023-09-03T06:56:52Z</time>
      </trkpt>
      <trkpt lat="48.13109" lon="6.68195">
        <ele>469.6</ele>
        <time>2023-09-03T06:56:53Z</time>
      </trkpt>
      <trkpt lat="48.13105" lon="6.68198">
        <ele>469.8</ele>
        <time>2023-09-03T06:56:54Z</time>
      </trkpt>
      <trkpt lat="48.13102" lon="6.68201">
        <ele>470.2</ele>
        <time>2023-09-03T06:56:55Z</time>
      </trkpt>
      <trkpt lat="48.13099" lon="6.68204">
        <ele>470.2</ele>
        <time>2023-09-03T06:56:56Z</time>
      </trkpt>
      <trkpt lat="48.13096" lon="6.68207">
        <ele>470.6</ele>
        <time>2023-09-03T06:56:57Z</time>
      </trkpt>
      <trkpt lat="48.13094" lon="6.68211">
        <ele>470.6</ele>
        <time>2023-09-03T06:56:58Z</time>
      </trkpt>
      <trkpt lat="48.13091" lon="6.68215">
        <ele>470.8</ele>
        <time>2023-09-03T06:56:59Z</time>
      </trkpt>
      <trkpt lat="48.13089" lon="6.6822">
        <ele>470.8</ele>
        <time>2023-09-03T06:57:00Z</time>
      </trkpt>
      <trkpt lat="48.13087" lon="6.68225">
        <ele>471</ele>
        <time>2023-09-03T06:57:01Z</time>
      </trkpt>
      <trkpt lat="48.13085" lon="6.68229">
        <ele>471.2</ele>
        <time>2023-09-03T06:57:02Z</time>
      </trkpt>
      <trkpt lat="48.13083" lon="6.68233">
        <ele>471.4</ele>
        <time>2023-09-03T06:57:03Z</time>
      </trkpt>
      <trkpt lat="48.13081" lon="6.68237">
        <ele>471.8</ele>
        <time>2023-09-03T06:57:04Z</time>
      </trkpt>
      <trkpt lat="48.13079" lon="6.68241">
        <ele>471.8</ele>
        <time>2023-09-03T06:57:05Z</time>
      </trkpt>
      <trkpt lat="48.13076" lon="6.68244">
        <ele>472.2</ele>
        <time>2023-09-03T06:57:06Z</time>
      </trkpt>
      <trkpt lat="48.13074" lon="6.68247">
        <ele>472.4</ele>
        <time>2023-09-03T06:57:07Z</time>
      </trkpt>
      <trkpt lat="48.13072" lon="6.68251">
        <ele>472.8</ele>
        <time>2023-09-03T06:57:08Z</time>
      </trkpt>
      <trkpt lat="48.1307" lon="6.68255">
        <ele>473</ele>
        <time>2023-09-03T06:57:09Z</time>
      </trkpt>
      <trkpt lat="48.13069" lon="6.68259">
        <ele>473.4</ele>
        <time>2023-09-03T06:57:10Z</time>
      </trkpt>
      <trkpt lat="48.13067" lon="6.68264">
        <ele>473.6</ele>
        <time>2023-09-03T06:57:11Z</time>
      </trkpt>
      <trkpt lat="48.13067" lon="6.68268">
        <ele>473.8</ele>
        <time>2023-09-03T06:57:12Z</time>
      </trkpt>
      <trkpt lat="48.13066" lon="6.68273">
        <ele>474</ele>
        <time>2023-09-03T06:57:13Z</time>
      </trkpt>
      <trkpt lat="48.13065" lon="6.68278">
        <ele>474.4</ele>
        <time>2023-09-03T06:57:14Z</time>
      </trkpt>
      <trkpt lat="48.13065" lon="6.68282">
        <ele>474.6</ele>
        <time>2023-09-03T06:57:15Z</time>
      </trkpt>
      <trkpt lat="48.13064" lon="6.68287">
        <ele>474.8</ele>
        <time>2023-09-03T06:57:16Z</time>
      </trkpt>
      <trkpt lat="48.13064" lon="6.68291">
        <ele>475</ele>
        <time>2023-09-03T06:57:17Z</time>
      </trkpt>
      <trkpt lat="48.13064" lon="6.68296">
        <ele>475</ele>
        <time>2023-09-03T06:57:18Z</time>
      </trkpt>
      <trkpt lat="48.13064" lon="6.683">
        <ele>475.6</ele>
        <time>2023-09-03T06:57:19Z</time>
      </trkpt>
      <trkpt lat="48.13064" lon="6.68304">
        <ele>475.8</ele>
        <time>2023-09-03T06:57:20Z</time>
      </trkpt>
      <trkpt lat="48.13065" lon="6.68308">
        <ele>476.2</ele>
        <time>2023-09-03T06:57:21Z</time>
      </trkpt>
      <trkpt lat="48.13065" lon="6.68312">
        <ele>476.4</ele>
        <time>2023-09-03T06:57:22Z</time>
      </trkpt>
      <trkpt lat="48.13066" lon="6.68316">
        <ele>476.8</ele>
        <time>2023-09-03T06:57:23Z</time>
      </trkpt>
      <trkpt lat="48.13066" lon="6.68321">
        <ele>477</ele>
        <time>2023-09-03T06:57:24Z</time>
      </trkpt>
      <trkpt lat="48.13066" lon="6.68325">
        <ele>477.4</ele>
        <time>2023-09-03T06:57:25Z</time>
      </trkpt>
      <trkpt lat="48.13065" lon="6.68329">
        <ele>477.6</ele>
        <time>2023-09-03T06:57:26Z</time>
      </trkpt>
      <trkpt lat="48.13063" lon="6.68333">
        <ele>478</ele>
        <time>2023-09-03T06:57:27Z</time>
      </trkpt>
      <trkpt lat="48.13062" lon="6.68338">
        <ele>478</ele>
        <time>2023-09-03T06:57:28Z</time>
      </trkpt>
      <trkpt lat="48.1306" lon="6.68342">
        <ele>478.6</ele>
        <time>2023-09-03T06:57:29Z</time>
      </trkpt>
      <trkpt lat="48.13058" lon="6.68345">
        <ele>478.8</ele>
        <time>2023-09-03T06:57:30Z</time>
      </trkpt>
      <trkpt lat="48.13057" lon="6.68349">
        <ele>479</ele>
        <time>2023-09-03T06:57:31Z</time>
      </trkpt>
      <trkpt lat="48.13055" lon="6.68353">
        <ele>479.2</ele>
        <time>2023-09-03T06:57:32Z</time>
      </trkpt>
      <trkpt lat="48.13053" lon="6.68356">
        <ele>479.2</ele>
        <time>2023-09-03T06:57:33Z</time>
      </trkpt>
      <trkpt lat="48.13051" lon="6.6836">
        <ele>479.4</ele>
        <time>2023-09-03T06:57:34Z</time>
      </trkpt>
      <trkpt lat="48.13049" lon="6.68363">
        <ele>479.8</ele>
        <time>2023-09-03T06:57:35Z</time>
      </trkpt>
      <trkpt lat="48.13047" lon="6.68367">
        <ele>480.2</ele>
        <time>2023-09-03T06:57:36Z</time>
      </trkpt>
      <trkpt lat="48.13045" lon="6.6837">
        <ele>480.4</ele>
        <time>2023-09-03T06:57:37Z</time>
      </trkpt>
      <trkpt lat="48.13043" lon="6.68373">
        <ele>480.8</ele>
        <time>2023-09-03T06:57:38Z</time>
      </trkpt>
      <trkpt lat="48.13041" lon="6.68375">
        <ele>480.8</ele>
        <time>2023-09-03T06:57:39Z</time>
      </trkpt>
      <trkpt lat="48.13039" lon="6.68378">
        <ele>481.2</ele>
        <time>2023-09-03T06:57:40Z</time>
      </trkpt>
      <trkpt lat="48.13036" lon="6.6838">
        <ele>481.4</ele>
        <time>2023-09-03T06:57:41Z</time>
      </trkpt>
      <trkpt lat="48.13034" lon="6.68382">
        <ele>481.8</ele>
        <time>2023-09-03T06:57:42Z</time>
      </trkpt>
      <trkpt lat="48.13032" lon="6.68383">
        <ele>482.2</ele>
        <time>2023-09-03T06:57:43Z</time>
      </trkpt>
      <trkpt lat="48.1303" lon="6.68385">
        <ele>482.4</ele>
        <time>2023-09-03T06:57:44Z</time>
      </trkpt>
      <trkpt lat="48.13028" lon="6.68387">
        <ele>483</ele>
        <time>2023-09-03T06:57:45Z</time>
      </trkpt>
      <trkpt lat="48.13026" lon="6.68389">
        <ele>483.2</ele>
        <time>2023-09-03T06:57:46Z</time>
      </trkpt>
      <trkpt lat="48.13024" lon="6.68392">
        <ele>483.4</ele>
        <time>2023-09-03T06:57:47Z</time>
      </trkpt>
      <trkpt lat="48.13021" lon="6.68394">
        <ele>483.4</ele>
        <time>2023-09-03T06:57:48Z</time>
      </trkpt>
      <trkpt lat="48.13019" lon="6.68396">
        <ele>483.8</ele>
        <time>2023-09-03T06:57:49Z</time>
      </trkpt>
      <trkpt lat="48.13017" lon="6.68398">
        <ele>484</ele>
        <time>2023-09-03T06:57:50Z</time>
      </trkpt>
      <trkpt lat="48.13014" lon="6.68401">
        <ele>484.2</ele>
        <time>2023-09-03T06:57:51Z</time>
      </trkpt>
      <trkpt lat="48.13012" lon="6.68403">
        <ele>484.4</ele>
        <time>2023-09-03T06:57:52Z</time>
      </trkpt>
      <trkpt lat="48.1301" lon="6.68405">
        <ele>484.6</ele>
        <time>2023-09-03T06:57:53Z</time>
      </trkpt>
      <trkpt lat="48.13008" lon="6.68407">
        <ele>484.8</ele>
        <time>2023-09-03T06:57:54Z</time>
      </trkpt>
      <trkpt lat="48.13006" lon="6.6841">
        <ele>485</ele>
        <time>2023-09-03T06:57:55Z</time>
      </trkpt>
      <trkpt lat="48.13004" lon="6.68412">
        <ele>485.2</ele>
        <time>2023-09-03T06:57:56Z</time>
      </trkpt>
      <trkpt lat="48.13002" lon="6.68415">
        <ele>485.4</ele>
        <time>2023-09-03T06:57:57Z</time>
      </trkpt>
      <trkpt lat="48.13" lon="6.68418">
        <ele>485.6</ele>
        <time>2023-09-03T06:57:58Z</time>
      </trkpt>
      <trkpt lat="48.12997" lon="6.6842">
        <ele>485.8</ele>
        <time>2023-09-03T06:57:59Z</time>
      </trkpt>
      <trkpt lat="48.12995" lon="6.68422">
        <ele>486.2</ele>
        <time>2023-09-03T06:58:00Z</time>
      </trkpt>
      <trkpt lat="48.12992" lon="6.68425">
        <ele>486.2</ele>
        <time>2023-09-03T06:58:01Z</time>
      </trkpt>
      <trkpt lat="48.1299" lon="6.68427">
        <ele>486.4</ele>
        <time>2023-09-03T06:58:02Z</time>
      </trkpt>
      <trkpt lat="48.12988" lon="6.68429">
        <ele>486.6</ele>
        <time>2023-09-03T06:58:03Z</time>
      </trkpt>
      <trkpt lat="48.12985" lon="6.6843">
        <ele>486.8</ele>
        <time>2023-09-03T06:58:04Z</time>
      </trkpt>
      <trkpt lat="48.12983" lon="6.68431">
        <ele>486.8</ele>
        <time>2023-09-03T06:58:05Z</time>
      </trkpt>
      <trkpt lat="48.12981" lon="6.68433">
        <ele>487</ele>
        <time>2023-09-03T06:58:06Z</time>
      </trkpt>
      <trkpt lat="48.12979" lon="6.68434">
        <ele>487.2</ele>
        <time>2023-09-03T06:58:07Z</time>
      </trkpt>
      <trkpt lat="48.12978" lon="6.68436">
        <ele>487.2</ele>
        <time>2023-09-03T06:58:08Z</time>
      </trkpt>
      <trkpt lat="48.12977" lon="6.68437">
        <ele>487.6</ele>
        <time>2023-09-03T06:58:09Z</time>
      </trkpt>
      <trkpt lat="48.12975" lon="6.68439">
        <ele>487.8</ele>
        <time>2023-09-03T06:58:10Z</time>
      </trkpt>
      <trkpt lat="48.12974" lon="6.6844">
        <ele>488.2</ele>
        <time>2023-09-03T06:58:11Z</time>
      </trkpt>
      <trkpt lat="48.12973" lon="6.68441">
        <ele>488.2</ele>
        <time>2023-09-03T06:58:12Z</time>
      </trkpt>
      <trkpt lat="48.12971" lon="6.68442">
        <ele>488.8</ele>
        <time>2023-09-03T06:58:13Z</time>
      </trkpt>
      <trkpt lat="48.12969" lon="6.68442">
        <ele>489</ele>
        <time>2023-09-03T06:58:14Z</time>
      </trkpt>
      <trkpt lat="48.12968" lon="6.68443">
        <ele>489</ele>
        <time>2023-09-03T06:58:15Z</time>
      </trkpt>
      <trkpt lat="48.12966" lon="6.68444">
        <ele>489.2</ele>
        <time>2023-09-03T06:58:16Z</time>
      </trkpt>
      <trkpt lat="48.12965" lon="6.68445">
        <ele>489.8</ele>
        <time>2023-09-03T06:58:17Z</time>
      </trkpt>
      <trkpt lat="48.12963" lon="6.68446">
        <ele>490</ele>
        <time>2023-09-03T06:58:18Z</time>
      </trkpt>
      <trkpt lat="48.1296" lon="6.68448">
        <ele>490.6</ele>
        <time>2023-09-03T06:58:19Z</time>
      </trkpt>
      <trkpt lat="48.12958" lon="6.68449">
        <ele>491</ele>
        <time>2023-09-03T06:58:20Z</time>
      </trkpt>
      <trkpt lat="48.12955" lon="6.6845">
        <ele>491.4</ele>
        <time>2023-09-03T06:58:21Z</time>
      </trkpt>
      <trkpt lat="48.12953" lon="6.68452">
        <ele>491.8</ele>
        <time>2023-09-03T06:58:22Z</time>
      </trkpt>
      <trkpt lat="48.12951" lon="6.68453">
        <ele>492</ele>
        <time>2023-09-03T06:58:23Z</time>
      </trkpt>
      <trkpt lat="48.12948" lon="6.68453">
        <ele>492</ele>
        <time>2023-09-03T06:58:24Z</time>
      </trkpt>
      <trkpt lat="48.12946" lon="6.68453">
        <ele>492.2</ele>
        <time>2023-09-03T06:58:25Z</time>
      </trkpt>
      <trkpt lat="48.12943" lon="6.68454">
        <ele>492.4</ele>
        <time>2023-09-03T06:58:26Z</time>
      </trkpt>
      <trkpt lat="48.12941" lon="6.68454">
        <ele>492.4</ele>
        <time>2023-09-03T06:58:27Z</time>
      </trkpt>
      <trkpt lat="48.12939" lon="6.68455">
        <ele>493.4</ele>
        <time>2023-09-03T06:58:28Z</time>
      </trkpt>
      <trkpt lat="48.12936" lon="6.68456">
        <ele>493.8</ele>
        <time>2023-09-03T06:58:29Z</time>
      </trkpt>
      <trkpt lat="48.12932" lon="6.68457">
        <ele>494.2</ele>
        <time>2023-09-03T06:58:30Z</time>
      </trkpt>
      <trkpt lat="48.12929" lon="6.68457">
        <ele>494.2</ele>
        <time>2023-09-03T06:58:31Z</time>
      </trkpt>
      <trkpt lat="48.12927" lon="6.68457">
        <ele>494.4</ele>
        <time>2023-09-03T06:58:32Z</time>
      </trkpt>
      <trkpt lat="48.12924" lon="6.68457">
        <ele>494.4</ele>
        <time>2023-09-03T06:58:33Z</time>
      </trkpt>
      <trkpt lat="48.12922" lon="6.68457">
        <ele>494.6</ele>
        <time>2023-09-03T06:58:34Z</time>
      </trkpt>
      <trkpt lat="48.12919" lon="6.68456">
        <ele>494.6</ele>
        <time>2023-09-03T06:58:35Z</time>
      </trkpt>
      <trkpt lat="48.12916" lon="6.68456">
        <ele>494.8</ele>
        <time>2023-09-03T06:58:36Z</time>
      </trkpt>
      <trkpt lat="48.12913" lon="6.68457">
        <ele>495</ele>
        <time>2023-09-03T06:58:37Z</time>
      </trkpt>
      <trkpt lat="48.1291" lon="6.68459">
        <ele>495</ele>
        <time>2023-09-03T06:58:38Z</time>
      </trkpt>
      <trkpt lat="48.12907" lon="6.6846">
        <ele>495</ele>
        <time>2023-09-03T06:58:39Z</time>
      </trkpt>
      <trkpt lat="48.12904" lon="6.6846">
        <ele>495.2</ele>
        <time>2023-09-03T06:58:40Z</time>
      </trkpt>
      <trkpt lat="48.12903" lon="6.68461">
        <ele>495.6</ele>
        <time>2023-09-03T06:58:41Z</time>
      </trkpt>
      <trkpt lat="48.129" lon="6.68462">
        <ele>495.6</ele>
        <time>2023-09-03T06:58:42Z</time>
      </trkpt>
      <trkpt lat="48.12897" lon="6.68463">
        <ele>496</ele>
        <time>2023-09-03T06:58:43Z</time>
      </trkpt>
      <trkpt lat="48.12894" lon="6.68464">
        <ele>496</ele>
        <time>2023-09-03T06:58:44Z</time>
      </trkpt>
      <trkpt lat="48.12891" lon="6.68465">
        <ele>496.6</ele>
        <time>2023-09-03T06:58:45Z</time>
      </trkpt>
      <trkpt lat="48.12889" lon="6.68465">
        <ele>496.8</ele>
        <time>2023-09-03T06:58:46Z</time>
      </trkpt>
      <trkpt lat="48.12887" lon="6.68466">
        <ele>497.2</ele>
        <time>2023-09-03T06:58:47Z</time>
      </trkpt>
      <trkpt lat="48.12884" lon="6.68468">
        <ele>497.2</ele>
        <time>2023-09-03T06:58:48Z</time>
      </trkpt>
      <trkpt lat="48.12881" lon="6.68471">
        <ele>497.4</ele>
        <time>2023-09-03T06:58:49Z</time>
      </trkpt>
      <trkpt lat="48.12879" lon="6.68473">
        <ele>497.6</ele>
        <time>2023-09-03T06:58:50Z</time>
      </trkpt>
      <trkpt lat="48.12879" lon="6.68473">
        <ele>497.6</ele>
        <time>2023-09-03T06:58:51Z</time>
      </trkpt>
      <trkpt lat="48.12877" lon="6.68473">
        <ele>498</ele>
        <time>2023-09-03T06:58:52Z</time>
      </trkpt>
      <trkpt lat="48.12874" lon="6.68473">
        <ele>498.2</ele>
        <time>2023-09-03T06:58:53Z</time>
      </trkpt>
      <trkpt lat="48.12872" lon="6.68473">
        <ele>498.2</ele>
        <time>2023-09-03T06:58:54Z</time>
      </trkpt>
      <trkpt lat="48.1287" lon="6.68474">
        <ele>498.4</ele>
        <time>2023-09-03T06:58:55Z</time>
      </trkpt>
      <trkpt lat="48.12869" lon="6.68474">
        <ele>498.6</ele>
        <time>2023-09-03T06:58:56Z</time>
      </trkpt>
      <trkpt lat="48.12868" lon="6.68474">
        <ele>498.8</ele>
        <time>2023-09-03T06:58:57Z</time>
      </trkpt>
      <trkpt lat="48.12866" lon="6.68477">
        <ele>499</ele>
        <time>2023-09-03T06:58:58Z</time>
      </trkpt>
      <trkpt lat="48.12863" lon="6.68479">
        <ele>499.2</ele>
        <time>2023-09-03T06:58:59Z</time>
      </trkpt>
      <trkpt lat="48.1286" lon="6.68481">
        <ele>499.6</ele>
        <time>2023-09-03T06:59:00Z</time>
      </trkpt>
      <trkpt lat="48.12858" lon="6.68482">
        <ele>499.8</ele>
        <time>2023-09-03T06:59:01Z</time>
      </trkpt>
      <trkpt lat="48.12857" lon="6.68482">
        <ele>500</ele>
        <time>2023-09-03T06:59:02Z</time>
      </trkpt>
      <trkpt lat="48.12856" lon="6.68483">
        <ele>500.2</ele>
        <time>2023-09-03T06:59:03Z</time>
      </trkpt>
      <trkpt lat="48.12853" lon="6.68484">
        <ele>500.4</ele>
        <time>2023-09-03T06:59:04Z</time>
      </trkpt>
      <trkpt lat="48.12851" lon="6.68487">
        <ele>500.8</ele>
        <time>2023-09-03T06:59:05Z</time>
      </trkpt>
      <trkpt lat="48.12849" lon="6.68487">
        <ele>501</ele>
        <time>2023-09-03T06:59:06Z</time>
      </trkpt>
      <trkpt lat="48.12848" lon="6.6849">
        <ele>501.8</ele>
        <time>2023-09-03T06:59:07Z</time>
      </trkpt>
      <trkpt lat="48.12848" lon="6.68492">
        <ele>502</ele>
        <time>2023-09-03T06:59:08Z</time>
      </trkpt>
      <trkpt lat="48.12848" lon="6.68492">
        <ele>502.4</ele>
        <time>2023-09-03T06:59:09Z</time>
      </trkpt>
      <trkpt lat="48.12848" lon="6.68492">
        <ele>502.6</ele>
        <time>2023-09-03T06:59:10Z</time>
      </trkpt>
      <trkpt lat="48.12848" lon="6.68492">
        <ele>503</ele>
        <time>2023-09-03T06:59:11Z</time>
      </trkpt>
      <trkpt lat="48.12846" lon="6.68493">
        <ele>503.2</ele>
        <time>2023-09-03T06:59:12Z</time>
      </trkpt>
      <trkpt lat="48.12844" lon="6.68494">
        <ele>503.4</ele>
        <time>2023-09-03T06:59:13Z</time>
      </trkpt>
      <trkpt lat="48.12844" lon="6.68495">
        <ele>503.8</ele>
        <time>2023-09-03T06:59:14Z</time>
      </trkpt>
      <trkpt lat="48.12844" lon="6.68495">
        <ele>504</ele>
        <time>2023-09-03T06:59:15Z</time>
      </trkpt>
      <trkpt lat="48.12844" lon="6.68495">
        <ele>504.6</ele>
        <time>2023-09-03T06:59:16Z</time>
      </trkpt>
      <trkpt lat="48.12844" lon="6.68495">
        <ele>504.6</ele>
        <time>2023-09-03T06:59:17Z</time>
      </trkpt>
      <trkpt lat="48.12844" lon="6.68495">
        <ele>505</ele>
        <time>2023-09-03T06:59:18Z</time>
      </trkpt>
      <trkpt lat="48.12843" lon="6.68496">
        <ele>505.2</ele>
        <time>2023-09-03T06:59:19Z</time>
      </trkpt>
      <trkpt lat="48.12842" lon="6.68496">
        <ele>505.6</ele>
        <time>2023-09-03T06:59:20Z</time>
      </trkpt>
      <trkpt lat="48.12838" lon="6.68499">
        <ele>505.8</ele>
        <time>2023-09-03T06:59:21Z</time>
      </trkpt>
      <trkpt lat="48.12833" lon="6.68503">
        <ele>506.2</ele>
        <time>2023-09-03T06:59:22Z</time>
      </trkpt>
      <trkpt lat="48.12831" lon="6.68504">
        <ele>506.4</ele>
        <time>2023-09-03T06:59:23Z</time>
      </trkpt>
      <trkpt lat="48.12829" lon="6.68505">
        <ele>506.8</ele>
        <time>2023-09-03T06:59:24Z</time>
      </trkpt>
      <trkpt lat="48.12827" lon="6.68505">
        <ele>507</ele>
        <time>2023-09-03T06:59:25Z</time>
      </trkpt>
      <trkpt lat="48.12826" lon="6.68505">
        <ele>507.6</ele>
        <time>2023-09-03T06:59:26Z</time>
      </trkpt>
      <trkpt lat="48.12826" lon="6.68505">
        <ele>508</ele>
        <time>2023-09-03T06:59:27Z</time>
      </trkpt>
      <trkpt lat="48.12826" lon="6.68505">
        <ele>508.4</ele>
        <time>2023-09-03T06:59:28Z</time>
      </trkpt>
      <trkpt lat="48.12826" lon="6.68505">
        <ele>508.8</ele>
        <time>2023-09-03T06:59:29Z</time>
      </trkpt>
      <trkpt lat="48.12825" lon="6.68505">
        <ele>509</ele>
        <time>2023-09-03T06:59:30Z</time>
      </trkpt>
      <trkpt lat="48.12822" lon="6.68507">
        <ele>509.4</ele>
        <time>2023-09-03T06:59:31Z</time>
      </trkpt>
      <trkpt lat="48.12819" lon="6.6851">
        <ele>509.4</ele>
        <time>2023-09-03T06:59:32Z</time>
      </trkpt>
      <trkpt lat="48.12816" lon="6.68514">
        <ele>509.6</ele>
        <time>2023-09-03T06:59:33Z</time>
      </trkpt>
      <trkpt lat="48.12813" lon="6.68517">
        <ele>510</ele>
        <time>2023-09-03T06:59:34Z</time>
      </trkpt>
      <trkpt lat="48.12812" lon="6.68517">
        <ele>510.6</ele>
        <time>2023-09-03T06:59:35Z</time>
      </trkpt>
      <trkpt lat="48.12811" lon="6.68517">
        <ele>510.8</ele>
        <time>2023-09-03T06:59:36Z</time>
      </trkpt>
      <trkpt lat="48.12809" lon="6.68517">
        <ele>511.2</ele>
        <time>2023-09-03T06:59:37Z</time>
      </trkpt>
      <trkpt lat="48.12809" lon="6.68517">
        <ele>511.2</ele>
        <time>2023-09-03T06:59:38Z</time>
      </trkpt>
      <trkpt lat="48.12809" lon="6.68517">
        <ele>511.8</ele>
        <time>2023-09-03T06:59:39Z</time>
      </trkpt>
      <trkpt lat="48.12809" lon="6.68517">
        <ele>512.2</ele>
        <time>2023-09-03T06:59:40Z</time>
      </trkpt>
      <trkpt lat="48.12809" lon="6.68518">
        <ele>512.6</ele>
        <time>2023-09-03T06:59:41Z</time>
      </trkpt>
      <trkpt lat="48.12809" lon="6.68518">
        <ele>513</ele>
        <time>2023-09-03T06:59:42Z</time>
      </trkpt>
      <trkpt lat="48.12809" lon="6.68518">
        <ele>513.2</ele>
        <time>2023-09-03T06:59:43Z</time>
      </trkpt>
      <trkpt lat="48.12809" lon="6.68518">
        <ele>513.4</ele>
        <time>2023-09-03T06:59:44Z</time>
      </trkpt>
      <trkpt lat="48.12808" lon="6.68517">
        <ele>513.6</ele>
        <time>2023-09-03T06:59:45Z</time>
      </trkpt>
      <trkpt lat="48.12808" lon="6.68518">
        <ele>513.8</ele>
        <time>2023-09-03T06:59:46Z</time>
      </trkpt>
      <trkpt lat="48.12807" lon="6.68517">
        <ele>513.8</ele>
        <time>2023-09-03T06:59:47Z</time>
      </trkpt>
      <trkpt lat="48.12806" lon="6.68518">
        <ele>514.2</ele>
        <time>2023-09-03T06:59:48Z</time>
      </trkpt>
      <trkpt lat="48.12805" lon="6.68518">
        <ele>514.4</ele>
        <time>2023-09-03T06:59:49Z</time>
      </trkpt>
      <trkpt lat="48.12803" lon="6.68518">
        <ele>514.6</ele>
        <time>2023-09-03T06:59:50Z</time>
      </trkpt>
      <trkpt lat="48.12801" lon="6.68519">
        <ele>514.8</ele>
        <time>2023-09-03T06:59:51Z</time>
      </trkpt>
      <trkpt lat="48.12799" lon="6.68521">
        <ele>515.2</ele>
        <time>2023-09-03T06:59:52Z</time>
      </trkpt>
      <trkpt lat="48.12799" lon="6.68521">
        <ele>515.4</ele>
        <time>2023-09-03T06:59:53Z</time>
      </trkpt>
      <trkpt lat="48.12799" lon="6.68521">
        <ele>515.6</ele>
        <time>2023-09-03T06:59:54Z</time>
      </trkpt>
      <trkpt lat="48.12797" lon="6.68522">
        <ele>516</ele>
        <time>2023-09-03T06:59:55Z</time>
      </trkpt>
      <trkpt lat="48.12795" lon="6.68523">
        <ele>516.2</ele>
        <time>2023-09-03T06:59:56Z</time>
      </trkpt>
      <trkpt lat="48.12793" lon="6.68523">
        <ele>516.6</ele>
        <time>2023-09-03T06:59:57Z</time>
      </trkpt>
      <trkpt lat="48.12791" lon="6.68524">
        <ele>516.8</ele>
        <time>2023-09-03T06:59:58Z</time>
      </trkpt>
      <trkpt lat="48.12788" lon="6.68525">
        <ele>517.2</ele>
        <time>2023-09-03T06:59:59Z</time>
      </trkpt>
      <trkpt lat="48.12785" lon="6.68527">
        <ele>517.4</ele>
        <time>2023-09-03T07:00:00Z</time>
      </trkpt>
      <trkpt lat="48.12785" lon="6.68527">
        <ele>517.8</ele>
        <time>2023-09-03T07:00:01Z</time>
      </trkpt>
      <trkpt lat="48.12784" lon="6.68527">
        <ele>518</ele>
        <time>2023-09-03T07:00:02Z</time>
      </trkpt>
      <trkpt lat="48.12783" lon="6.68527">
        <ele>518.2</ele>
        <time>2023-09-03T07:00:03Z</time>
      </trkpt>
      <trkpt lat="48.12783" lon="6.68527">
        <ele>518.4</ele>
        <time>2023-09-03T07:00:04Z</time>
      </trkpt>
      <trkpt lat="48.12781" lon="6.68529">
        <ele>518.8</ele>
        <time>2023-09-03T07:00:05Z</time>
      </trkpt>
      <trkpt lat="48.12781" lon="6.68529">
        <ele>519.4</ele>
        <time>2023-09-03T07:00:06Z</time>
      </trkpt>
      <trkpt lat="48.1278" lon="6.68529">
        <ele>519.6</ele>
        <time>2023-09-03T07:00:07Z</time>
      </trkpt>
      <trkpt lat="48.12778" lon="6.6853">
        <ele>520.2</ele>
        <time>2023-09-03T07:00:08Z</time>
      </trkpt>
      <trkpt lat="48.12778" lon="6.6853">
        <ele>520.4</ele>
        <time>2023-09-03T07:00:09Z</time>
      </trkpt>
      <trkpt lat="48.12778" lon="6.6853">
        <ele>521</ele>
        <time>2023-09-03T07:00:10Z</time>
      </trkpt>
      <trkpt lat="48.12776" lon="6.68532">
        <ele>521.2</ele>
        <time>2023-09-03T07:00:11Z</time>
      </trkpt>
      <trkpt lat="48.12776" lon="6.68533">
        <ele>521.6</ele>
        <time>2023-09-03T07:00:12Z</time>
      </trkpt>
      <trkpt lat="48.12776" lon="6.68533">
        <ele>521.8</ele>
        <time>2023-09-03T07:00:13Z</time>
      </trkpt>
      <trkpt lat="48.12769" lon="6.68537">
        <ele>523</ele>
        <time>2023-09-03T07:00:16Z</time>
      </trkpt>
      <trkpt lat="48.12768" lon="6.68538">
        <ele>523.2</ele>
        <time>2023-09-03T07:00:17Z</time>
      </trkpt>
      <trkpt lat="48.12768" lon="6.68538">
        <ele>523.6</ele>
        <time>2023-09-03T07:00:18Z</time>
      </trkpt>
      <trkpt lat="48.12766" lon="6.68536">
        <ele>524</ele>
        <time>2023-09-03T07:00:19Z</time>
      </trkpt>
      <trkpt lat="48.12766" lon="6.68536">
        <ele>524</ele>
        <time>2023-09-03T07:00:20Z</time>
      </trkpt>
      <trkpt lat="48.12766" lon="6.68536">
        <ele>524.2</ele>
        <time>2023-09-03T07:00:21Z</time>
      </trkpt>
      <trkpt lat="48.12766" lon="6.68536">
        <ele>524.2</ele>
        <time>2023-09-03T07:00:22Z</time>
      </trkpt>
      <trkpt lat="48.12765" lon="6.68537">
        <ele>524.6</ele>
        <time>2023-09-03T07:00:23Z</time>
      </trkpt>
      <trkpt lat="48.12762" lon="6.68539">
        <ele>524.8</ele>
        <time>2023-09-03T07:00:24Z</time>
      </trkpt>
      <trkpt lat="48.12762" lon="6.68539">
        <ele>525</ele>
        <time>2023-09-03T07:00:25Z</time>
      </trkpt>
      <trkpt lat="48.12762" lon="6.68539">
        <ele>525.2</ele>
        <time>2023-09-03T07:00:26Z</time>
      </trkpt>
      <trkpt lat="48.12762" lon="6.68539">
        <ele>525.2</ele>
        <time>2023-09-03T07:00:27Z</time>
      </trkpt>
      <trkpt lat="48.12761" lon="6.68541">
        <ele>525.4</ele>
        <time>2023-09-03T07:00:28Z</time>
      </trkpt>
      <trkpt lat="48.1276" lon="6.68541">
        <ele>525.6</ele>
        <time>2023-09-03T07:00:29Z</time>
      </trkpt>
      <trkpt lat="48.1276" lon="6.68541">
        <ele>526</ele>
        <time>2023-09-03T07:00:30Z</time>
      </trkpt>
      <trkpt lat="48.12759" lon="6.68541">
        <ele>526.4</ele>
        <time>2023-09-03T07:00:31Z</time>
      </trkpt>
      <trkpt lat="48.12757" lon="6.68542">
        <ele>526.6</ele>
        <time>2023-09-03T07:00:32Z</time>
      </trkpt>
      <trkpt lat="48.12755" lon="6.68543">
        <ele>526.8</ele>
        <time>2023-09-03T07:00:33Z</time>
      </trkpt>
      <trkpt lat="48.12753" lon="6.68543">
        <ele>527</ele>
        <time>2023-09-03T07:00:34Z</time>
      </trkpt>
      <trkpt lat="48.12751" lon="6.68544">
        <ele>527.2</ele>
        <time>2023-09-03T07:00:35Z</time>
      </trkpt>
      <trkpt lat="48.12754" lon="6.68546">
        <ele>527.4</ele>
        <time>2023-09-03T07:00:36Z</time>
      </trkpt>
      <trkpt lat="48.12754" lon="6.68546">
        <ele>527.6</ele>
        <time>2023-09-03T07:00:37Z</time>
      </trkpt>
      <trkpt lat="48.12754" lon="6.68546">
        <ele>527.8</ele>
        <time>2023-09-03T07:00:38Z</time>
      </trkpt>
      <trkpt lat="48.12754" lon="6.68546">
        <ele>528</ele>
        <time>2023-09-03T07:00:39Z</time>
      </trkpt>
      <trkpt lat="48.12754" lon="6.68546">
        <ele>528.6</ele>
        <time>2023-09-03T07:00:40Z</time>
      </trkpt>
      <trkpt lat="48.12754" lon="6.68546">
        <ele>528.6</ele>
        <time>2023-09-03T07:00:41Z</time>
      </trkpt>
      <trkpt lat="48.12754" lon="6.68546">
        <ele>529.2</ele>
        <time>2023-09-03T07:00:42Z</time>
      </trkpt>
      <trkpt lat="48.12754" lon="6.68546">
        <ele>529.4</ele>
        <time>2023-09-03T07:00:43Z</time>
      </trkpt>
      <trkpt lat="48.12754" lon="6.68546">
        <ele>529.6</ele>
        <time>2023-09-03T07:00:44Z</time>
      </trkpt>
      <trkpt lat="48.12754" lon="6.68546">
        <ele>529.8</ele>
        <time>2023-09-03T07:00:45Z</time>
      </trkpt>
      <trkpt lat="48.12752" lon="6.68547">
        <ele>530</ele>
        <time>2023-09-03T07:00:46Z</time>
      </trkpt>
      <trkpt lat="48.12751" lon="6.68547">
        <ele>530.4</ele>
        <time>2023-09-03T07:00:47Z</time>
      </trkpt>
      <trkpt lat="48.12751" lon="6.68547">
        <ele>530.6</ele>
        <time>2023-09-03T07:00:48Z</time>
      </trkpt>
      <trkpt lat="48.12751" lon="6.68547">
        <ele>531</ele>
        <time>2023-09-03T07:00:49Z</time>
      </trkpt>
      <trkpt lat="48.12751" lon="6.68547">
        <ele>531.2</ele>
        <time>2023-09-03T07:00:50Z</time>
      </trkpt>
      <trkpt lat="48.12751" lon="6.68547">
        <ele>531.6</ele>
        <time>2023-09-03T07:00:51Z</time>
      </trkpt>
      <trkpt lat="48.12751" lon="6.68547">
        <ele>531.6</ele>
        <time>2023-09-03T07:00:52Z</time>
      </trkpt>
      <trkpt lat="48.1275" lon="6.68547">
        <ele>532</ele>
        <time>2023-09-03T07:00:53Z</time>
      </trkpt>
      <trkpt lat="48.12748" lon="6.68547">
        <ele>532.2</ele>
        <time>2023-09-03T07:00:54Z</time>
      </trkpt>
      <trkpt lat="48.12747" lon="6.68547">
        <ele>532.6</ele>
        <time>2023-09-03T07:00:55Z</time>
      </trkpt>
      <trkpt lat="48.12747" lon="6.68547">
        <ele>532.8</ele>
        <time>2023-09-03T07:00:56Z</time>
      </trkpt>
      <trkpt lat="48.12747" lon="6.68547">
        <ele>532.8</ele>
        <time>2023-09-03T07:00:57Z</time>
      </trkpt>
      <trkpt lat="48.12746" lon="6.68547">
        <ele>533.2</ele>
        <time>2023-09-03T07:00:58Z</time>
      </trkpt>
      <trkpt lat="48.12743" lon="6.68549">
        <ele>533.4</ele>
        <time>2023-09-03T07:00:59Z</time>
      </trkpt>
      <trkpt lat="48.12741" lon="6.68549">
        <ele>533.6</ele>
        <time>2023-09-03T07:01:00Z</time>
      </trkpt>
      <trkpt lat="48.12739" lon="6.68551">
        <ele>533.8</ele>
        <time>2023-09-03T07:01:01Z</time>
      </trkpt>
      <trkpt lat="48.12737" lon="6.68553">
        <ele>534</ele>
        <time>2023-09-03T07:01:02Z</time>
      </trkpt>
      <trkpt lat="48.12735" lon="6.68555">
        <ele>534.2</ele>
        <time>2023-09-03T07:01:03Z</time>
      </trkpt>
      <trkpt lat="48.12733" lon="6.68557">
        <ele>534.6</ele>
        <time>2023-09-03T07:01:04Z</time>
      </trkpt>
      <trkpt lat="48.12733" lon="6.68557">
        <ele>534.8</ele>
        <time>2023-09-03T07:01:05Z</time>
      </trkpt>
      <trkpt lat="48.12731" lon="6.68558">
        <ele>535.2</ele>
        <time>2023-09-03T07:01:06Z</time>
      </trkpt>
      <trkpt lat="48.12729" lon="6.68559">
        <ele>535.4</ele>
        <time>2023-09-03T07:01:07Z</time>
      </trkpt>
      <trkpt lat="48.12728" lon="6.6856">
        <ele>535.8</ele>
        <time>2023-09-03T07:01:08Z</time>
      </trkpt>
      <trkpt lat="48.12728" lon="6.6856">
        <ele>536</ele>
        <time>2023-09-03T07:01:09Z</time>
      </trkpt>
      <trkpt lat="48.12728" lon="6.6856">
        <ele>536.4</ele>
        <time>2023-09-03T07:01:10Z</time>
      </trkpt>
      <trkpt lat="48.12728" lon="6.6856">
        <ele>536.4</ele>
        <time>2023-09-03T07:01:11Z</time>
      </trkpt>
      <trkpt lat="48.12726" lon="6.68561">
        <ele>536.8</ele>
        <time>2023-09-03T07:01:12Z</time>
      </trkpt>
      <trkpt lat="48.12726" lon="6.68561">
        <ele>537</ele>
        <time>2023-09-03T07:01:13Z</time>
      </trkpt>
      <trkpt lat="48.12724" lon="6.68565">
        <ele>537.2</ele>
        <time>2023-09-03T07:01:14Z</time>
      </trkpt>
      <trkpt lat="48.12724" lon="6.68567">
        <ele>537.6</ele>
        <time>2023-09-03T07:01:15Z</time>
      </trkpt>
      <trkpt lat="48.12723" lon="6.68568">
        <ele>537.8</ele>
        <time>2023-09-03T07:01:16Z</time>
      </trkpt>
      <trkpt lat="48.12722" lon="6.6857">
        <ele>538.2</ele>
        <time>2023-09-03T07:01:17Z</time>
      </trkpt>
      <trkpt lat="48.12722" lon="6.6857">
        <ele>538.2</ele>
        <time>2023-09-03T07:01:18Z</time>
      </trkpt>
      <trkpt lat="48.12722" lon="6.6857">
        <ele>538.4</ele>
        <time>2023-09-03T07:01:19Z</time>
      </trkpt>
      <trkpt lat="48.12719" lon="6.68573">
        <ele>538.6</ele>
        <time>2023-09-03T07:01:20Z</time>
      </trkpt>
      <trkpt lat="48.12717" lon="6.68575">
        <ele>538.8</ele>
        <time>2023-09-03T07:01:21Z</time>
      </trkpt>
      <trkpt lat="48.12717" lon="6.68575">
        <ele>538.8</ele>
        <time>2023-09-03T07:01:22Z</time>
      </trkpt>
      <trkpt lat="48.12717" lon="6.68575">
        <ele>539.2</ele>
        <time>2023-09-03T07:01:23Z</time>
      </trkpt>
      <trkpt lat="48.12717" lon="6.68575">
        <ele>539.6</ele>
        <time>2023-09-03T07:01:24Z</time>
      </trkpt>
      <trkpt lat="48.12715" lon="6.68579">
        <ele>539.8</ele>
        <time>2023-09-03T07:01:25Z</time>
      </trkpt>
      <trkpt lat="48.12712" lon="6.6858">
        <ele>540.2</ele>
        <time>2023-09-03T07:01:26Z</time>
      </trkpt>
      <trkpt lat="48.12711" lon="6.68581">
        <ele>540.4</ele>
        <time>2023-09-03T07:01:27Z</time>
      </trkpt>
      <trkpt lat="48.12711" lon="6.68582">
        <ele>540.8</ele>
        <time>2023-09-03T07:01:28Z</time>
      </trkpt>
      <trkpt lat="48.12711" lon="6.68584">
        <ele>541</ele>
        <time>2023-09-03T07:01:29Z</time>
      </trkpt>
      <trkpt lat="48.1271" lon="6.68585">
        <ele>541.2</ele>
        <time>2023-09-03T07:01:30Z</time>
      </trkpt>
      <trkpt lat="48.12709" lon="6.68586">
        <ele>541.2</ele>
        <time>2023-09-03T07:01:31Z</time>
      </trkpt>
      <trkpt lat="48.12707" lon="6.68588">
        <ele>541.4</ele>
        <time>2023-09-03T07:01:32Z</time>
      </trkpt>
      <trkpt lat="48.12707" lon="6.6859">
        <ele>541.6</ele>
        <time>2023-09-03T07:01:33Z</time>
      </trkpt>
      <trkpt lat="48.12707" lon="6.6859">
        <ele>541.8</ele>
        <time>2023-09-03T07:01:34Z</time>
      </trkpt>
      <trkpt lat="48.12707" lon="6.68594">
        <ele>542</ele>
        <time>2023-09-03T07:01:35Z</time>
      </trkpt>
      <trkpt lat="48.12705" lon="6.68594">
        <ele>542.2</ele>
        <time>2023-09-03T07:01:36Z</time>
      </trkpt>
      <trkpt lat="48.12704" lon="6.68595">
        <ele>542.4</ele>
        <time>2023-09-03T07:01:37Z</time>
      </trkpt>
      <trkpt lat="48.12704" lon="6.68595">
        <ele>542.6</ele>
        <time>2023-09-03T07:01:38Z</time>
      </trkpt>
      <trkpt lat="48.12703" lon="6.68594">
        <ele>542.6</ele>
        <time>2023-09-03T07:01:39Z</time>
      </trkpt>
      <trkpt lat="48.12702" lon="6.68594">
        <ele>542.8</ele>
        <time>2023-09-03T07:01:40Z</time>
      </trkpt>
      <trkpt lat="48.12702" lon="6.68594">
        <ele>543.2</ele>
        <time>2023-09-03T07:01:41Z</time>
      </trkpt>
      <trkpt lat="48.12702" lon="6.68594">
        <ele>543.2</ele>
        <time>2023-09-03T07:01:42Z</time>
      </trkpt>
      <trkpt lat="48.12702" lon="6.68594">
        <ele>543.6</ele>
        <time>2023-09-03T07:01:43Z</time>
      </trkpt>
      <trkpt lat="48.12703" lon="6.68599">
        <ele>543.6</ele>
        <time>2023-09-03T07:01:44Z</time>
      </trkpt>
      <trkpt lat="48.12703" lon="6.686">
        <ele>544</ele>
        <time>2023-09-03T07:01:45Z</time>
      </trkpt>
      <trkpt lat="48.12703" lon="6.686">
        <ele>544.2</ele>
        <time>2023-09-03T07:01:46Z</time>
      </trkpt>
      <trkpt lat="48.12703" lon="6.686">
        <ele>544.4</ele>
        <time>2023-09-03T07:01:47Z</time>
      </trkpt>
      <trkpt lat="48.12703" lon="6.686">
        <ele>544.4</ele>
        <time>2023-09-03T07:01:48Z</time>
      </trkpt>
      <trkpt lat="48.12703" lon="6.686">
        <ele>544.6</ele>
        <time>2023-09-03T07:01:49Z</time>
      </trkpt>
      <trkpt lat="48.12702" lon="6.68601">
        <ele>545.2</ele>
        <time>2023-09-03T07:01:50Z</time>
      </trkpt>
      <trkpt lat="48.12701" lon="6.68602">
        <ele>545.4</ele>
        <time>2023-09-03T07:01:51Z</time>
      </trkpt>
      <trkpt lat="48.127" lon="6.68602">
        <ele>545.6</ele>
        <time>2023-09-03T07:01:52Z</time>
      </trkpt>
      <trkpt lat="48.127" lon="6.68602">
        <ele>545.6</ele>
        <time>2023-09-03T07:01:53Z</time>
      </trkpt>
      <trkpt lat="48.127" lon="6.68602">
        <ele>546</ele>
        <time>2023-09-03T07:01:54Z</time>
      </trkpt>
      <trkpt lat="48.127" lon="6.68602">
        <ele>546.2</ele>
        <time>2023-09-03T07:01:55Z</time>
      </trkpt>
      <trkpt lat="48.127" lon="6.68602">
        <ele>546.4</ele>
        <time>2023-09-03T07:01:56Z</time>
      </trkpt>
      <trkpt lat="48.127" lon="6.68602">
        <ele>546.4</ele>
        <time>2023-09-03T07:01:57Z</time>
      </trkpt>
      <trkpt lat="48.127" lon="6.68603">
        <ele>546.8</ele>
        <time>2023-09-03T07:01:58Z</time>
      </trkpt>
      <trkpt lat="48.12699" lon="6.68603">
        <ele>547</ele>
        <time>2023-09-03T07:01:59Z</time>
      </trkpt>
      <trkpt lat="48.12698" lon="6.68605">
        <ele>547.2</ele>
        <time>2023-09-03T07:02:00Z</time>
      </trkpt>
      <trkpt lat="48.12698" lon="6.68606">
        <ele>547.4</ele>
        <time>2023-09-03T07:02:01Z</time>
      </trkpt>
      <trkpt lat="48.12697" lon="6.68608">
        <ele>547.6</ele>
        <time>2023-09-03T07:02:02Z</time>
      </trkpt>
      <trkpt lat="48.12696" lon="6.68608">
        <ele>547.8</ele>
        <time>2023-09-03T07:02:03Z</time>
      </trkpt>
      <trkpt lat="48.12696" lon="6.68608">
        <ele>548.2</ele>
        <time>2023-09-03T07:02:04Z</time>
      </trkpt>
      <trkpt lat="48.12695" lon="6.68609">
        <ele>548.2</ele>
        <time>2023-09-03T07:02:05Z</time>
      </trkpt>
      <trkpt lat="48.12695" lon="6.6861">
        <ele>548.4</ele>
        <time>2023-09-03T07:02:06Z</time>
      </trkpt>
      <trkpt lat="48.12693" lon="6.68612">
        <ele>548.8</ele>
        <time>2023-09-03T07:02:10Z</time>
      </trkpt>
      <trkpt lat="48.12692" lon="6.68612">
        <ele>549</ele>
        <time>2023-09-03T07:02:11Z</time>
      </trkpt>
      <trkpt lat="48.12692" lon="6.68613">
        <ele>549</ele>
        <time>2023-09-03T07:02:12Z</time>
      </trkpt>
      <trkpt lat="48.12691" lon="6.68613">
        <ele>549</ele>
        <time>2023-09-03T07:02:13Z</time>
      </trkpt>
      <trkpt lat="48.1269" lon="6.68614">
        <ele>549.2</ele>
        <time>2023-09-03T07:02:14Z</time>
      </trkpt>
      <trkpt lat="48.12689" lon="6.68614">
        <ele>549.4</ele>
        <time>2023-09-03T07:02:15Z</time>
      </trkpt>
      <trkpt lat="48.12687" lon="6.68615">
        <ele>549.4</ele>
        <time>2023-09-03T07:02:16Z</time>
      </trkpt>
      <trkpt lat="48.12685" lon="6.68615">
        <ele>549.6</ele>
        <time>2023-09-03T07:02:17Z</time>
      </trkpt>
      <trkpt lat="48.12684" lon="6.68616">
        <ele>549.8</ele>
        <time>2023-09-03T07:02:18Z</time>
      </trkpt>
      <trkpt lat="48.12681" lon="6.68616">
        <ele>549.8</ele>
        <time>2023-09-03T07:02:19Z</time>
      </trkpt>
      <trkpt lat="48.12679" lon="6.68617">
        <ele>549.8</ele>
        <time>2023-09-03T07:02:20Z</time>
      </trkpt>
      <trkpt lat="48.12678" lon="6.68618">
        <ele>549.8</ele>
        <time>2023-09-03T07:02:21Z</time>
      </trkpt>
      <trkpt lat="48.12675" lon="6.68619">
        <ele>550</ele>
        <time>2023-09-03T07:02:22Z</time>
      </trkpt>
      <trkpt lat="48.12673" lon="6.6862">
        <ele>550</ele>
        <time>2023-09-03T07:02:23Z</time>
      </trkpt>
      <trkpt lat="48.1267" lon="6.6862">
        <ele>550.2</ele>
        <time>2023-09-03T07:02:24Z</time>
      </trkpt>
      <trkpt lat="48.1267" lon="6.6862">
        <ele>550.2</ele>
        <time>2023-09-03T07:02:25Z</time>
      </trkpt>
      <trkpt lat="48.1267" lon="6.6862">
        <ele>550.4</ele>
        <time>2023-09-03T07:02:26Z</time>
      </trkpt>
      <trkpt lat="48.12669" lon="6.6862">
        <ele>550.4</ele>
        <time>2023-09-03T07:02:27Z</time>
      </trkpt>
      <trkpt lat="48.12667" lon="6.68621">
        <ele>550.6</ele>
        <time>2023-09-03T07:02:28Z</time>
      </trkpt>
      <trkpt lat="48.12666" lon="6.6862">
        <ele>550.8</ele>
        <time>2023-09-03T07:02:29Z</time>
      </trkpt>
      <trkpt lat="48.12666" lon="6.6862">
        <ele>550.8</ele>
        <time>2023-09-03T07:02:30Z</time>
      </trkpt>
      <trkpt lat="48.12663" lon="6.6862">
        <ele>551.2</ele>
        <time>2023-09-03T07:02:31Z</time>
      </trkpt>
      <trkpt lat="48.12662" lon="6.6862">
        <ele>551.2</ele>
        <time>2023-09-03T07:02:32Z</time>
      </trkpt>
      <trkpt lat="48.12659" lon="6.68622">
        <ele>551.6</ele>
        <time>2023-09-03T07:02:33Z</time>
      </trkpt>
      <trkpt lat="48.12657" lon="6.68623">
        <ele>551.8</ele>
        <time>2023-09-03T07:02:34Z</time>
      </trkpt>
      <trkpt lat="48.12655" lon="6.68623">
        <ele>552.2</ele>
        <time>2023-09-03T07:02:35Z</time>
      </trkpt>
      <trkpt lat="48.12653" lon="6.68624">
        <ele>552.4</ele>
        <time>2023-09-03T07:02:36Z</time>
      </trkpt>
      <trkpt lat="48.12652" lon="6.68625">
        <ele>552.6</ele>
        <time>2023-09-03T07:02:37Z</time>
      </trkpt>
      <trkpt lat="48.1265" lon="6.68625">
        <ele>552.8</ele>
        <time>2023-09-03T07:02:38Z</time>
      </trkpt>
      <trkpt lat="48.12647" lon="6.68627">
        <ele>553.2</ele>
        <time>2023-09-03T07:02:39Z</time>
      </trkpt>
      <trkpt lat="48.12645" lon="6.68627">
        <ele>553.4</ele>
        <time>2023-09-03T07:02:40Z</time>
      </trkpt>
      <trkpt lat="48.12642" lon="6.68627">
        <ele>553.8</ele>
        <time>2023-09-03T07:02:41Z</time>
      </trkpt>
      <trkpt lat="48.1264" lon="6.68626">
        <ele>554</ele>
        <time>2023-09-03T07:02:42Z</time>
      </trkpt>
      <trkpt lat="48.12638" lon="6.68627">
        <ele>554.2</ele>
        <time>2023-09-03T07:02:43Z</time>
      </trkpt>
      <trkpt lat="48.12636" lon="6.68627">
        <ele>554.4</ele>
        <time>2023-09-03T07:02:44Z</time>
      </trkpt>
      <trkpt lat="48.12634" lon="6.68627">
        <ele>554.4</ele>
        <time>2023-09-03T07:02:45Z</time>
      </trkpt>
      <trkpt lat="48.12631" lon="6.68629">
        <ele>554.6</ele>
        <time>2023-09-03T07:02:46Z</time>
      </trkpt>
      <trkpt lat="48.12629" lon="6.6863">
        <ele>554.6</ele>
        <time>2023-09-03T07:02:47Z</time>
      </trkpt>
      <trkpt lat="48.12626" lon="6.68631">
        <ele>554.8</ele>
        <time>2023-09-03T07:02:48Z</time>
      </trkpt>
      <trkpt lat="48.12624" lon="6.68632">
        <ele>554.8</ele>
        <time>2023-09-03T07:02:49Z</time>
      </trkpt>
      <trkpt lat="48.12622" lon="6.68634">
        <ele>554.8</ele>
        <time>2023-09-03T07:02:50Z</time>
      </trkpt>
      <trkpt lat="48.12619" lon="6.68635">
        <ele>554.8</ele>
        <time>2023-09-03T07:02:51Z</time>
      </trkpt>
      <trkpt lat="48.12617" lon="6.68636">
        <ele>555</ele>
        <time>2023-09-03T07:02:52Z</time>
      </trkpt>
      <trkpt lat="48.12615" lon="6.68636">
        <ele>555</ele>
        <time>2023-09-03T07:02:53Z</time>
      </trkpt>
      <trkpt lat="48.12612" lon="6.68637">
        <ele>555.4</ele>
        <time>2023-09-03T07:02:54Z</time>
      </trkpt>
      <trkpt lat="48.12609" lon="6.68637">
        <ele>555.4</ele>
        <time>2023-09-03T07:02:55Z</time>
      </trkpt>
      <trkpt lat="48.12606" lon="6.68637">
        <ele>555.6</ele>
        <time>2023-09-03T07:02:56Z</time>
      </trkpt>
      <trkpt lat="48.12603" lon="6.68638">
        <ele>555.8</ele>
        <time>2023-09-03T07:02:57Z</time>
      </trkpt>
      <trkpt lat="48.12601" lon="6.68639">
        <ele>555.8</ele>
        <time>2023-09-03T07:02:58Z</time>
      </trkpt>
      <trkpt lat="48.12599" lon="6.68639">
        <ele>556</ele>
        <time>2023-09-03T07:02:59Z</time>
      </trkpt>
      <trkpt lat="48.12596" lon="6.68641">
        <ele>556.2</ele>
        <time>2023-09-03T07:03:00Z</time>
      </trkpt>
      <trkpt lat="48.12593" lon="6.68642">
        <ele>556.4</ele>
        <time>2023-09-03T07:03:01Z</time>
      </trkpt>
      <trkpt lat="48.12591" lon="6.68642">
        <ele>556.6</ele>
        <time>2023-09-03T07:03:02Z</time>
      </trkpt>
      <trkpt lat="48.12588" lon="6.68643">
        <ele>556.8</ele>
        <time>2023-09-03T07:03:03Z</time>
      </trkpt>
      <trkpt lat="48.12586" lon="6.68645">
        <ele>556.8</ele>
        <time>2023-09-03T07:03:04Z</time>
      </trkpt>
      <trkpt lat="48.12583" lon="6.68646">
        <ele>557.2</ele>
        <time>2023-09-03T07:03:05Z</time>
      </trkpt>
      <trkpt lat="48.1258" lon="6.68647">
        <ele>557.2</ele>
        <time>2023-09-03T07:03:06Z</time>
      </trkpt>
      <trkpt lat="48.12578" lon="6.68647">
        <ele>557.4</ele>
        <time>2023-09-03T07:03:07Z</time>
      </trkpt>
      <trkpt lat="48.12575" lon="6.68648">
        <ele>557.8</ele>
        <time>2023-09-03T07:03:08Z</time>
      </trkpt>
      <trkpt lat="48.12573" lon="6.6865">
        <ele>558</ele>
        <time>2023-09-03T07:03:09Z</time>
      </trkpt>
      <trkpt lat="48.12571" lon="6.68651">
        <ele>558.2</ele>
        <time>2023-09-03T07:03:10Z</time>
      </trkpt>
      <trkpt lat="48.12569" lon="6.68652">
        <ele>558.2</ele>
        <time>2023-09-03T07:03:11Z</time>
      </trkpt>
      <trkpt lat="48.12568" lon="6.68653">
        <ele>558.4</ele>
        <time>2023-09-03T07:03:12Z</time>
      </trkpt>
      <trkpt lat="48.12566" lon="6.68654">
        <ele>558.6</ele>
        <time>2023-09-03T07:03:13Z</time>
      </trkpt>
      <trkpt lat="48.12563" lon="6.68656">
        <ele>558.8</ele>
        <time>2023-09-03T07:03:14Z</time>
      </trkpt>
      <trkpt lat="48.12561" lon="6.68657">
        <ele>559</ele>
        <time>2023-09-03T07:03:15Z</time>
      </trkpt>
      <trkpt lat="48.12559" lon="6.68658">
        <ele>559.4</ele>
        <time>2023-09-03T07:03:16Z</time>
      </trkpt>
      <trkpt lat="48.12557" lon="6.68658">
        <ele>559.6</ele>
        <time>2023-09-03T07:03:17Z</time>
      </trkpt>
      <trkpt lat="48.12555" lon="6.68659">
        <ele>560</ele>
        <time>2023-09-03T07:03:18Z</time>
      </trkpt>
      <trkpt lat="48.12553" lon="6.6866">
        <ele>560</ele>
        <time>2023-09-03T07:03:19Z</time>
      </trkpt>
      <trkpt lat="48.12551" lon="6.68661">
        <ele>560.4</ele>
        <time>2023-09-03T07:03:20Z</time>
      </trkpt>
      <trkpt lat="48.12549" lon="6.68662">
        <ele>560.6</ele>
        <time>2023-09-03T07:03:21Z</time>
      </trkpt>
      <trkpt lat="48.12546" lon="6.68663">
        <ele>561</ele>
        <time>2023-09-03T07:03:22Z</time>
      </trkpt>
      <trkpt lat="48.12544" lon="6.68664">
        <ele>561.2</ele>
        <time>2023-09-03T07:03:23Z</time>
      </trkpt>
      <trkpt lat="48.12541" lon="6.68665">
        <ele>561.4</ele>
        <time>2023-09-03T07:03:24Z</time>
      </trkpt>
      <trkpt lat="48.12539" lon="6.68666">
        <ele>561.6</ele>
        <time>2023-09-03T07:03:25Z</time>
      </trkpt>
      <trkpt lat="48.12537" lon="6.68667">
        <ele>561.8</ele>
        <time>2023-09-03T07:03:26Z</time>
      </trkpt>
      <trkpt lat="48.12535" lon="6.68668">
        <ele>562.2</ele>
        <time>2023-09-03T07:03:27Z</time>
      </trkpt>
      <trkpt lat="48.12532" lon="6.68669">
        <ele>562.4</ele>
        <time>2023-09-03T07:03:28Z</time>
      </trkpt>
      <trkpt lat="48.1253" lon="6.6867">
        <ele>562.6</ele>
        <time>2023-09-03T07:03:29Z</time>
      </trkpt>
      <trkpt lat="48.12528" lon="6.68671">
        <ele>562.8</ele>
        <time>2023-09-03T07:03:30Z</time>
      </trkpt>
      <trkpt lat="48.12525" lon="6.68672">
        <ele>563</ele>
        <time>2023-09-03T07:03:31Z</time>
      </trkpt>
      <trkpt lat="48.12523" lon="6.68674">
        <ele>563.2</ele>
        <time>2023-09-03T07:03:32Z</time>
      </trkpt>
      <trkpt lat="48.12521" lon="6.68674">
        <ele>563.4</ele>
        <time>2023-09-03T07:03:33Z</time>
      </trkpt>
      <trkpt lat="48.12519" lon="6.68675">
        <ele>563.4</ele>
        <time>2023-09-03T07:03:34Z</time>
      </trkpt>
      <trkpt lat="48.12516" lon="6.68676">
        <ele>563.8</ele>
        <time>2023-09-03T07:03:35Z</time>
      </trkpt>
      <trkpt lat="48.12514" lon="6.68678">
        <ele>564</ele>
        <time>2023-09-03T07:03:36Z</time>
      </trkpt>
      <trkpt lat="48.12512" lon="6.68679">
        <ele>564</ele>
        <time>2023-09-03T07:03:37Z</time>
      </trkpt>
      <trkpt lat="48.12509" lon="6.6868">
        <ele>564.2</ele>
        <time>2023-09-03T07:03:38Z</time>
      </trkpt>
      <trkpt lat="48.12507" lon="6.68681">
        <ele>564.4</ele>
        <time>2023-09-03T07:03:39Z</time>
      </trkpt>
      <trkpt lat="48.12505" lon="6.68682">
        <ele>564.6</ele>
        <time>2023-09-03T07:03:40Z</time>
      </trkpt>
      <trkpt lat="48.12503" lon="6.68683">
        <ele>564.6</ele>
        <time>2023-09-03T07:03:41Z</time>
      </trkpt>
      <trkpt lat="48.12501" lon="6.68683">
        <ele>564.8</ele>
        <time>2023-09-03T07:03:42Z</time>
      </trkpt>
      <trkpt lat="48.12498" lon="6.68684">
        <ele>565</ele>
        <time>2023-09-03T07:03:43Z</time>
      </trkpt>
      <trkpt lat="48.12496" lon="6.68685">
        <ele>565.2</ele>
        <time>2023-09-03T07:03:44Z</time>
      </trkpt>
      <trkpt lat="48.12494" lon="6.68686">
        <ele>565.4</ele>
        <time>2023-09-03T07:03:45Z</time>
      </trkpt>
      <trkpt lat="48.12491" lon="6.68687">
        <ele>565.8</ele>
        <time>2023-09-03T07:03:46Z</time>
      </trkpt>
      <trkpt lat="48.12489" lon="6.68689">
        <ele>566</ele>
        <time>2023-09-03T07:03:47Z</time>
      </trkpt>
      <trkpt lat="48.12487" lon="6.6869">
        <ele>566.2</ele>
        <time>2023-09-03T07:03:48Z</time>
      </trkpt>
      <trkpt lat="48.12485" lon="6.68692">
        <ele>566.4</ele>
        <time>2023-09-03T07:03:49Z</time>
      </trkpt>
      <trkpt lat="48.12483" lon="6.68693">
        <ele>566.4</ele>
        <time>2023-09-03T07:03:50Z</time>
      </trkpt>
      <trkpt lat="48.12481" lon="6.68695">
        <ele>566.8</ele>
        <time>2023-09-03T07:03:51Z</time>
      </trkpt>
      <trkpt lat="48.12479" lon="6.68697">
        <ele>567</ele>
        <time>2023-09-03T07:03:52Z</time>
      </trkpt>
      <trkpt lat="48.12477" lon="6.68698">
        <ele>567</ele>
        <time>2023-09-03T07:03:53Z</time>
      </trkpt>
      <trkpt lat="48.12474" lon="6.687">
        <ele>567.2</ele>
        <time>2023-09-03T07:03:54Z</time>
      </trkpt>
      <trkpt lat="48.12472" lon="6.68701">
        <ele>567.4</ele>
        <time>2023-09-03T07:03:55Z</time>
      </trkpt>
      <trkpt lat="48.1247" lon="6.68702">
        <ele>567.4</ele>
        <time>2023-09-03T07:03:56Z</time>
      </trkpt>
      <trkpt lat="48.12468" lon="6.68702">
        <ele>567.8</ele>
        <time>2023-09-03T07:03:57Z</time>
      </trkpt>
      <trkpt lat="48.12466" lon="6.68703">
        <ele>568</ele>
        <time>2023-09-03T07:03:58Z</time>
      </trkpt>
      <trkpt lat="48.12464" lon="6.68704">
        <ele>568.4</ele>
        <time>2023-09-03T07:03:59Z</time>
      </trkpt>
      <trkpt lat="48.12462" lon="6.68704">
        <ele>568.4</ele>
        <time>2023-09-03T07:04:00Z</time>
      </trkpt>
      <trkpt lat="48.12459" lon="6.68705">
        <ele>568.8</ele>
        <time>2023-09-03T07:04:01Z</time>
      </trkpt>
      <trkpt lat="48.12457" lon="6.68706">
        <ele>568.8</ele>
        <time>2023-09-03T07:04:02Z</time>
      </trkpt>
      <trkpt lat="48.12454" lon="6.68706">
        <ele>569</ele>
        <time>2023-09-03T07:04:03Z</time>
      </trkpt>
      <trkpt lat="48.12452" lon="6.68706">
        <ele>569.4</ele>
        <time>2023-09-03T07:04:04Z</time>
      </trkpt>
      <trkpt lat="48.12449" lon="6.68706">
        <ele>569.6</ele>
        <time>2023-09-03T07:04:05Z</time>
      </trkpt>
      <trkpt lat="48.12446" lon="6.68707">
        <ele>570</ele>
        <time>2023-09-03T07:04:06Z</time>
      </trkpt>
      <trkpt lat="48.12444" lon="6.68707">
        <ele>570.2</ele>
        <time>2023-09-03T07:04:07Z</time>
      </trkpt>
      <trkpt lat="48.12441" lon="6.68707">
        <ele>570.4</ele>
        <time>2023-09-03T07:04:08Z</time>
      </trkpt>
      <trkpt lat="48.12439" lon="6.68706">
        <ele>570.4</ele>
        <time>2023-09-03T07:04:09Z</time>
      </trkpt>
      <trkpt lat="48.12436" lon="6.68706">
        <ele>570.8</ele>
        <time>2023-09-03T07:04:10Z</time>
      </trkpt>
      <trkpt lat="48.12433" lon="6.68706">
        <ele>570.8</ele>
        <time>2023-09-03T07:04:11Z</time>
      </trkpt>
      <trkpt lat="48.12429" lon="6.68705">
        <ele>571.2</ele>
        <time>2023-09-03T07:04:12Z</time>
      </trkpt>
      <trkpt lat="48.12426" lon="6.68705">
        <ele>571.4</ele>
        <time>2023-09-03T07:04:13Z</time>
      </trkpt>
      <trkpt lat="48.12424" lon="6.68704">
        <ele>571.6</ele>
        <time>2023-09-03T07:04:14Z</time>
      </trkpt>
      <trkpt lat="48.12421" lon="6.68704">
        <ele>571.6</ele>
        <time>2023-09-03T07:04:15Z</time>
      </trkpt>
      <trkpt lat="48.12418" lon="6.68703">
        <ele>571.8</ele>
        <time>2023-09-03T07:04:16Z</time>
      </trkpt>
      <trkpt lat="48.12415" lon="6.68703">
        <ele>571.8</ele>
        <time>2023-09-03T07:04:17Z</time>
      </trkpt>
      <trkpt lat="48.12412" lon="6.68702">
        <ele>572</ele>
        <time>2023-09-03T07:04:18Z</time>
      </trkpt>
      <trkpt lat="48.1241" lon="6.68702">
        <ele>572.2</ele>
        <time>2023-09-03T07:04:19Z</time>
      </trkpt>
      <trkpt lat="48.12408" lon="6.68703">
        <ele>572.2</ele>
        <time>2023-09-03T07:04:20Z</time>
      </trkpt>
      <trkpt lat="48.12406" lon="6.68703">
        <ele>572.4</ele>
        <time>2023-09-03T07:04:21Z</time>
      </trkpt>
      <trkpt lat="48.12404" lon="6.68704">
        <ele>572.6</ele>
        <time>2023-09-03T07:04:22Z</time>
      </trkpt>
      <trkpt lat="48.12401" lon="6.68704">
        <ele>573</ele>
        <time>2023-09-03T07:04:23Z</time>
      </trkpt>
      <trkpt lat="48.12398" lon="6.68703">
        <ele>573</ele>
        <time>2023-09-03T07:04:24Z</time>
      </trkpt>
      <trkpt lat="48.12394" lon="6.68703">
        <ele>573.2</ele>
        <time>2023-09-03T07:04:25Z</time>
      </trkpt>
      <trkpt lat="48.1239" lon="6.68702">
        <ele>573.4</ele>
        <time>2023-09-03T07:04:26Z</time>
      </trkpt>
      <trkpt lat="48.12387" lon="6.68702">
        <ele>573.6</ele>
        <time>2023-09-03T07:04:27Z</time>
      </trkpt>
      <trkpt lat="48.12384" lon="6.68703">
        <ele>573.6</ele>
        <time>2023-09-03T07:04:28Z</time>
      </trkpt>
      <trkpt lat="48.12384" lon="6.68703">
        <ele>574</ele>
        <time>2023-09-03T07:04:29Z</time>
      </trkpt>
      <trkpt lat="48.1238" lon="6.68704">
        <ele>574.2</ele>
        <time>2023-09-03T07:04:30Z</time>
      </trkpt>
      <trkpt lat="48.12377" lon="6.68703">
        <ele>574.4</ele>
        <time>2023-09-03T07:04:31Z</time>
      </trkpt>
      <trkpt lat="48.12373" lon="6.68702">
        <ele>574.6</ele>
        <time>2023-09-03T07:04:32Z</time>
      </trkpt>
      <trkpt lat="48.1237" lon="6.68704">
        <ele>575</ele>
        <time>2023-09-03T07:04:33Z</time>
      </trkpt>
      <trkpt lat="48.12367" lon="6.68705">
        <ele>575.2</ele>
        <time>2023-09-03T07:04:34Z</time>
      </trkpt>
      <trkpt lat="48.12365" lon="6.68706">
        <ele>575.4</ele>
        <time>2023-09-03T07:04:35Z</time>
      </trkpt>
      <trkpt lat="48.12362" lon="6.68707">
        <ele>575.6</ele>
        <time>2023-09-03T07:04:36Z</time>
      </trkpt>
      <trkpt lat="48.12359" lon="6.68706">
        <ele>575.6</ele>
        <time>2023-09-03T07:04:37Z</time>
      </trkpt>
      <trkpt lat="48.12356" lon="6.68705">
        <ele>575.8</ele>
        <time>2023-09-03T07:04:38Z</time>
      </trkpt>
      <trkpt lat="48.12353" lon="6.68704">
        <ele>576</ele>
        <time>2023-09-03T07:04:39Z</time>
      </trkpt>
      <trkpt lat="48.1235" lon="6.68705">
        <ele>576.4</ele>
        <time>2023-09-03T07:04:40Z</time>
      </trkpt>
      <trkpt lat="48.12347" lon="6.68705">
        <ele>576.4</ele>
        <time>2023-09-03T07:04:41Z</time>
      </trkpt>
      <trkpt lat="48.12345" lon="6.68706">
        <ele>576.8</ele>
        <time>2023-09-03T07:04:42Z</time>
      </trkpt>
      <trkpt lat="48.12343" lon="6.68707">
        <ele>576.8</ele>
        <time>2023-09-03T07:04:43Z</time>
      </trkpt>
      <trkpt lat="48.1234" lon="6.68708">
        <ele>577</ele>
        <time>2023-09-03T07:04:44Z</time>
      </trkpt>
      <trkpt lat="48.12338" lon="6.68708">
        <ele>577.2</ele>
        <time>2023-09-03T07:04:45Z</time>
      </trkpt>
      <trkpt lat="48.12336" lon="6.6871">
        <ele>577.4</ele>
        <time>2023-09-03T07:04:46Z</time>
      </trkpt>
      <trkpt lat="48.12334" lon="6.68711">
        <ele>577.6</ele>
        <time>2023-09-03T07:04:47Z</time>
      </trkpt>
      <trkpt lat="48.12331" lon="6.68712">
        <ele>577.8</ele>
        <time>2023-09-03T07:04:48Z</time>
      </trkpt>
      <trkpt lat="48.12329" lon="6.68712">
        <ele>578</ele>
        <time>2023-09-03T07:04:49Z</time>
      </trkpt>
      <trkpt lat="48.12327" lon="6.68713">
        <ele>578.2</ele>
        <time>2023-09-03T07:04:50Z</time>
      </trkpt>
      <trkpt lat="48.12325" lon="6.68714">
        <ele>578.6</ele>
        <time>2023-09-03T07:04:51Z</time>
      </trkpt>
      <trkpt lat="48.12322" lon="6.68715">
        <ele>578.6</ele>
        <time>2023-09-03T07:04:52Z</time>
      </trkpt>
      <trkpt lat="48.1232" lon="6.68716">
        <ele>579</ele>
        <time>2023-09-03T07:04:53Z</time>
      </trkpt>
      <trkpt lat="48.12317" lon="6.68717">
        <ele>579</ele>
        <time>2023-09-03T07:04:54Z</time>
      </trkpt>
      <trkpt lat="48.12315" lon="6.68717">
        <ele>579.2</ele>
        <time>2023-09-03T07:04:55Z</time>
      </trkpt>
      <trkpt lat="48.12313" lon="6.68718">
        <ele>579.2</ele>
        <time>2023-09-03T07:04:56Z</time>
      </trkpt>
      <trkpt lat="48.1231" lon="6.68719">
        <ele>579.4</ele>
        <time>2023-09-03T07:04:57Z</time>
      </trkpt>
      <trkpt lat="48.12308" lon="6.6872">
        <ele>579.6</ele>
        <time>2023-09-03T07:04:58Z</time>
      </trkpt>
      <trkpt lat="48.12306" lon="6.68722">
        <ele>580</ele>
        <time>2023-09-03T07:04:59Z</time>
      </trkpt>
      <trkpt lat="48.12304" lon="6.68722">
        <ele>580.2</ele>
        <time>2023-09-03T07:05:00Z</time>
      </trkpt>
      <trkpt lat="48.12301" lon="6.68723">
        <ele>580.6</ele>
        <time>2023-09-03T07:05:01Z</time>
      </trkpt>
      <trkpt lat="48.12299" lon="6.68724">
        <ele>580.8</ele>
        <time>2023-09-03T07:05:02Z</time>
      </trkpt>
      <trkpt lat="48.12297" lon="6.68725">
        <ele>580.8</ele>
        <time>2023-09-03T07:05:03Z</time>
      </trkpt>
      <trkpt lat="48.12294" lon="6.68726">
        <ele>581.2</ele>
        <time>2023-09-03T07:05:04Z</time>
      </trkpt>
      <trkpt lat="48.12292" lon="6.68726">
        <ele>581.4</ele>
        <time>2023-09-03T07:05:05Z</time>
      </trkpt>
      <trkpt lat="48.1229" lon="6.68727">
        <ele>581.6</ele>
        <time>2023-09-03T07:05:06Z</time>
      </trkpt>
      <trkpt lat="48.12288" lon="6.68728">
        <ele>581.6</ele>
        <time>2023-09-03T07:05:07Z</time>
      </trkpt>
      <trkpt lat="48.12286" lon="6.68729">
        <ele>582</ele>
        <time>2023-09-03T07:05:08Z</time>
      </trkpt>
      <trkpt lat="48.12283" lon="6.6873">
        <ele>582.2</ele>
        <time>2023-09-03T07:05:09Z</time>
      </trkpt>
      <trkpt lat="48.12281" lon="6.68731">
        <ele>582.4</ele>
        <time>2023-09-03T07:05:10Z</time>
      </trkpt>
      <trkpt lat="48.12279" lon="6.68731">
        <ele>582.6</ele>
        <time>2023-09-03T07:05:11Z</time>
      </trkpt>
      <trkpt lat="48.12278" lon="6.68733">
        <ele>582.8</ele>
        <time>2023-09-03T07:05:12Z</time>
      </trkpt>
      <trkpt lat="48.12276" lon="6.68733">
        <ele>583</ele>
        <time>2023-09-03T07:05:13Z</time>
      </trkpt>
      <trkpt lat="48.12275" lon="6.68734">
        <ele>583.4</ele>
        <time>2023-09-03T07:05:14Z</time>
      </trkpt>
      <trkpt lat="48.12273" lon="6.68735">
        <ele>583.8</ele>
        <time>2023-09-03T07:05:15Z</time>
      </trkpt>
      <trkpt lat="48.12271" lon="6.68736">
        <ele>584</ele>
        <time>2023-09-03T07:05:16Z</time>
      </trkpt>
      <trkpt lat="48.12269" lon="6.68736">
        <ele>584.2</ele>
        <time>2023-09-03T07:05:17Z</time>
      </trkpt>
      <trkpt lat="48.12268" lon="6.68737">
        <ele>584.4</ele>
        <time>2023-09-03T07:05:18Z</time>
      </trkpt>
      <trkpt lat="48.12266" lon="6.68738">
        <ele>584.6</ele>
        <time>2023-09-03T07:05:19Z</time>
      </trkpt>
      <trkpt lat="48.12265" lon="6.68738">
        <ele>584.8</ele>
        <time>2023-09-03T07:05:20Z</time>
      </trkpt>
      <trkpt lat="48.12263" lon="6.68738">
        <ele>585</ele>
        <time>2023-09-03T07:05:21Z</time>
      </trkpt>
      <trkpt lat="48.12261" lon="6.68738">
        <ele>585</ele>
        <time>2023-09-03T07:05:22Z</time>
      </trkpt>
      <trkpt lat="48.12259" lon="6.68738">
        <ele>585.2</ele>
        <time>2023-09-03T07:05:23Z</time>
      </trkpt>
      <trkpt lat="48.12257" lon="6.68738">
        <ele>585.4</ele>
        <time>2023-09-03T07:05:24Z</time>
      </trkpt>
      <trkpt lat="48.12256" lon="6.68739">
        <ele>586</ele>
        <time>2023-09-03T07:05:25Z</time>
      </trkpt>
      <trkpt lat="48.12254" lon="6.68739">
        <ele>586.2</ele>
        <time>2023-09-03T07:05:26Z</time>
      </trkpt>
      <trkpt lat="48.12253" lon="6.68739">
        <ele>586.6</ele>
        <time>2023-09-03T07:05:27Z</time>
      </trkpt>
      <trkpt lat="48.12252" lon="6.68739">
        <ele>587</ele>
        <time>2023-09-03T07:05:28Z</time>
      </trkpt>
      <trkpt lat="48.12251" lon="6.68739">
        <ele>587.2</ele>
        <time>2023-09-03T07:05:29Z</time>
      </trkpt>
      <trkpt lat="48.12251" lon="6.6874">
        <ele>587.4</ele>
        <time>2023-09-03T07:05:30Z</time>
      </trkpt>
      <trkpt lat="48.12249" lon="6.68741">
        <ele>587.6</ele>
        <time>2023-09-03T07:05:31Z</time>
      </trkpt>
      <trkpt lat="48.12247" lon="6.68741">
        <ele>588</ele>
        <time>2023-09-03T07:05:32Z</time>
      </trkpt>
      <trkpt lat="48.12243" lon="6.68742">
        <ele>588.2</ele>
        <time>2023-09-03T07:05:33Z</time>
      </trkpt>
      <trkpt lat="48.12239" lon="6.68743">
        <ele>588.6</ele>
        <time>2023-09-03T07:05:34Z</time>
      </trkpt>
      <trkpt lat="48.12236" lon="6.68743">
        <ele>588.8</ele>
        <time>2023-09-03T07:05:35Z</time>
      </trkpt>
      <trkpt lat="48.12231" lon="6.68744">
        <ele>589</ele>
        <time>2023-09-03T07:05:36Z</time>
      </trkpt>
      <trkpt lat="48.12227" lon="6.68745">
        <ele>589.2</ele>
        <time>2023-09-03T07:05:37Z</time>
      </trkpt>
      <trkpt lat="48.12222" lon="6.68746">
        <ele>589.6</ele>
        <time>2023-09-03T07:05:38Z</time>
      </trkpt>
      <trkpt lat="48.12219" lon="6.68747">
        <ele>589.8</ele>
        <time>2023-09-03T07:05:39Z</time>
      </trkpt>
      <trkpt lat="48.12216" lon="6.68748">
        <ele>590</ele>
        <time>2023-09-03T07:05:40Z</time>
      </trkpt>
      <trkpt lat="48.12213" lon="6.6875">
        <ele>590.2</ele>
        <time>2023-09-03T07:05:41Z</time>
      </trkpt>
      <trkpt lat="48.1221" lon="6.68751">
        <ele>590.2</ele>
        <time>2023-09-03T07:05:42Z</time>
      </trkpt>
      <trkpt lat="48.12208" lon="6.68752">
        <ele>590.4</ele>
        <time>2023-09-03T07:05:43Z</time>
      </trkpt>
      <trkpt lat="48.12206" lon="6.68753">
        <ele>590.8</ele>
        <time>2023-09-03T07:05:44Z</time>
      </trkpt>
      <trkpt lat="48.12205" lon="6.68754">
        <ele>591.2</ele>
        <time>2023-09-03T07:05:45Z</time>
      </trkpt>
      <trkpt lat="48.12204" lon="6.68755">
        <ele>591.2</ele>
        <time>2023-09-03T07:05:46Z</time>
      </trkpt>
      <trkpt lat="48.12203" lon="6.68756">
        <ele>591.4</ele>
        <time>2023-09-03T07:05:47Z</time>
      </trkpt>
      <trkpt lat="48.12203" lon="6.68756">
        <ele>591.6</ele>
        <time>2023-09-03T07:05:48Z</time>
      </trkpt>
      <trkpt lat="48.12203" lon="6.68757">
        <ele>591.8</ele>
        <time>2023-09-03T07:05:49Z</time>
      </trkpt>
      <trkpt lat="48.122" lon="6.68758">
        <ele>591.8</ele>
        <time>2023-09-03T07:05:50Z</time>
      </trkpt>
      <trkpt lat="48.12198" lon="6.68759">
        <ele>592</ele>
        <time>2023-09-03T07:05:51Z</time>
      </trkpt>
      <trkpt lat="48.12196" lon="6.68759">
        <ele>592</ele>
        <time>2023-09-03T07:05:52Z</time>
      </trkpt>
      <trkpt lat="48.12194" lon="6.6876">
        <ele>592.2</ele>
        <time>2023-09-03T07:05:53Z</time>
      </trkpt>
      <trkpt lat="48.12191" lon="6.6876">
        <ele>592.2</ele>
        <time>2023-09-03T07:05:54Z</time>
      </trkpt>
      <trkpt lat="48.12189" lon="6.68761">
        <ele>592.2</ele>
        <time>2023-09-03T07:05:55Z</time>
      </trkpt>
      <trkpt lat="48.12187" lon="6.68762">
        <ele>592.2</ele>
        <time>2023-09-03T07:05:56Z</time>
      </trkpt>
      <trkpt lat="48.12184" lon="6.68763">
        <ele>592.2</ele>
        <time>2023-09-03T07:05:57Z</time>
      </trkpt>
      <trkpt lat="48.12181" lon="6.68764">
        <ele>592.2</ele>
        <time>2023-09-03T07:05:58Z</time>
      </trkpt>
      <trkpt lat="48.12177" lon="6.68766">
        <ele>592.4</ele>
        <time>2023-09-03T07:05:59Z</time>
      </trkpt>
      <trkpt lat="48.12174" lon="6.68767">
        <ele>592.2</ele>
        <time>2023-09-03T07:06:00Z</time>
      </trkpt>
      <trkpt lat="48.1217" lon="6.68769">
        <ele>592.2</ele>
        <time>2023-09-03T07:06:01Z</time>
      </trkpt>
      <trkpt lat="48.12166" lon="6.68769">
        <ele>592.4</ele>
        <time>2023-09-03T07:06:02Z</time>
      </trkpt>
      <trkpt lat="48.12162" lon="6.6877">
        <ele>592.2</ele>
        <time>2023-09-03T07:06:03Z</time>
      </trkpt>
      <trkpt lat="48.12157" lon="6.6877">
        <ele>592.2</ele>
        <time>2023-09-03T07:06:04Z</time>
      </trkpt>
      <trkpt lat="48.12153" lon="6.6877">
        <ele>592</ele>
        <time>2023-09-03T07:06:05Z</time>
      </trkpt>
      <trkpt lat="48.12149" lon="6.68771">
        <ele>592</ele>
        <time>2023-09-03T07:06:06Z</time>
      </trkpt>
      <trkpt lat="48.12144" lon="6.68773">
        <ele>592</ele>
        <time>2023-09-03T07:06:07Z</time>
      </trkpt>
      <trkpt lat="48.12139" lon="6.68776">
        <ele>592</ele>
        <time>2023-09-03T07:06:08Z</time>
      </trkpt>
      <trkpt lat="48.12132" lon="6.6878">
        <ele>592</ele>
        <time>2023-09-03T07:06:09Z</time>
      </trkpt>
      <trkpt lat="48.12126" lon="6.68785">
        <ele>591.8</ele>
        <time>2023-09-03T07:06:10Z</time>
      </trkpt>
      <trkpt lat="48.1212" lon="6.68791">
        <ele>591.6</ele>
        <time>2023-09-03T07:06:11Z</time>
      </trkpt>
      <trkpt lat="48.12113" lon="6.68797">
        <ele>591.6</ele>
        <time>2023-09-03T07:06:12Z</time>
      </trkpt>
      <trkpt lat="48.12106" lon="6.68805">
        <ele>591</ele>
        <time>2023-09-03T07:06:13Z</time>
      </trkpt>
      <trkpt lat="48.12098" lon="6.68811">
        <ele>590.6</ele>
        <time>2023-09-03T07:06:14Z</time>
      </trkpt>
      <trkpt lat="48.1209" lon="6.68819">
        <ele>589.8</ele>
        <time>2023-09-03T07:06:15Z</time>
      </trkpt>
      <trkpt lat="48.12082" lon="6.68826">
        <ele>589.6</ele>
        <time>2023-09-03T07:06:16Z</time>
      </trkpt>
      <trkpt lat="48.12074" lon="6.68836">
        <ele>588.8</ele>
        <time>2023-09-03T07:06:17Z</time>
      </trkpt>
      <trkpt lat="48.12066" lon="6.68846">
        <ele>588.4</ele>
        <time>2023-09-03T07:06:18Z</time>
      </trkpt>
      <trkpt lat="48.12058" lon="6.68855">
        <ele>588</ele>
        <time>2023-09-03T07:06:19Z</time>
      </trkpt>
      <trkpt lat="48.12051" lon="6.68865">
        <ele>587.6</ele>
        <time>2023-09-03T07:06:20Z</time>
      </trkpt>
      <trkpt lat="48.12044" lon="6.68874">
        <ele>587.2</ele>
        <time>2023-09-03T07:06:21Z</time>
      </trkpt>
      <trkpt lat="48.1204" lon="6.68881">
        <ele>587</ele>
        <time>2023-09-03T07:06:22Z</time>
      </trkpt>
      <trkpt lat="48.12034" lon="6.6889">
        <ele>586.8</ele>
        <time>2023-09-03T07:06:23Z</time>
      </trkpt>
      <trkpt lat="48.1203" lon="6.689">
        <ele>586.4</ele>
        <time>2023-09-03T07:06:24Z</time>
      </trkpt>
      <trkpt lat="48.12024" lon="6.68911">
        <ele>586.2</ele>
        <time>2023-09-03T07:06:25Z</time>
      </trkpt>
      <trkpt lat="48.1202" lon="6.6892">
        <ele>586</ele>
        <time>2023-09-03T07:06:26Z</time>
      </trkpt>
      <trkpt lat="48.12015" lon="6.68928">
        <ele>585.6</ele>
        <time>2023-09-03T07:06:27Z</time>
      </trkpt>
      <trkpt lat="48.1201" lon="6.68934">
        <ele>585.2</ele>
        <time>2023-09-03T07:06:28Z</time>
      </trkpt>
      <trkpt lat="48.12007" lon="6.68941">
        <ele>585.2</ele>
        <time>2023-09-03T07:06:29Z</time>
      </trkpt>
      <trkpt lat="48.12004" lon="6.68947">
        <ele>585</ele>
        <time>2023-09-03T07:06:30Z</time>
      </trkpt>
      <trkpt lat="48.12001" lon="6.68955">
        <ele>584.8</ele>
        <time>2023-09-03T07:06:31Z</time>
      </trkpt>
      <trkpt lat="48.11996" lon="6.68964">
        <ele>584.4</ele>
        <time>2023-09-03T07:06:32Z</time>
      </trkpt>
      <trkpt lat="48.11992" lon="6.68972">
        <ele>584.4</ele>
        <time>2023-09-03T07:06:33Z</time>
      </trkpt>
      <trkpt lat="48.11986" lon="6.68982">
        <ele>584.6</ele>
        <time>2023-09-03T07:06:34Z</time>
      </trkpt>
      <trkpt lat="48.11981" lon="6.68991">
        <ele>584.4</ele>
        <time>2023-09-03T07:06:35Z</time>
      </trkpt>
      <trkpt lat="48.11976" lon="6.68996">
        <ele>584.2</ele>
        <time>2023-09-03T07:06:36Z</time>
      </trkpt>
      <trkpt lat="48.11972" lon="6.69001">
        <ele>584.2</ele>
        <time>2023-09-03T07:06:37Z</time>
      </trkpt>
      <trkpt lat="48.11968" lon="6.69005">
        <ele>584</ele>
        <time>2023-09-03T07:06:38Z</time>
      </trkpt>
      <trkpt lat="48.11963" lon="6.69009">
        <ele>584.2</ele>
        <time>2023-09-03T07:06:39Z</time>
      </trkpt>
      <trkpt lat="48.1196" lon="6.69012">
        <ele>584.2</ele>
        <time>2023-09-03T07:06:40Z</time>
      </trkpt>
      <trkpt lat="48.11959" lon="6.69015">
        <ele>584.2</ele>
        <time>2023-09-03T07:06:41Z</time>
      </trkpt>
      <trkpt lat="48.11956" lon="6.69019">
        <ele>584.2</ele>
        <time>2023-09-03T07:06:42Z</time>
      </trkpt>
      <trkpt lat="48.11951" lon="6.69024">
        <ele>584.4</ele>
        <time>2023-09-03T07:06:43Z</time>
      </trkpt>
      <trkpt lat="48.11948" lon="6.69028">
        <ele>584.4</ele>
        <time>2023-09-03T07:06:44Z</time>
      </trkpt>
      <trkpt lat="48.11946" lon="6.69031">
        <ele>584.8</ele>
        <time>2023-09-03T07:06:45Z</time>
      </trkpt>
      <trkpt lat="48.11943" lon="6.69034">
        <ele>584.8</ele>
        <time>2023-09-03T07:06:46Z</time>
      </trkpt>
      <trkpt lat="48.11941" lon="6.69037">
        <ele>584.8</ele>
        <time>2023-09-03T07:06:47Z</time>
      </trkpt>
      <trkpt lat="48.11938" lon="6.69039">
        <ele>585</ele>
        <time>2023-09-03T07:06:48Z</time>
      </trkpt>
      <trkpt lat="48.11936" lon="6.69042">
        <ele>585.2</ele>
        <time>2023-09-03T07:06:49Z</time>
      </trkpt>
      <trkpt lat="48.11935" lon="6.69045">
        <ele>585.4</ele>
        <time>2023-09-03T07:06:50Z</time>
      </trkpt>
      <trkpt lat="48.11933" lon="6.69048">
        <ele>585.6</ele>
        <time>2023-09-03T07:06:51Z</time>
      </trkpt>
      <trkpt lat="48.1193" lon="6.69051">
        <ele>585.8</ele>
        <time>2023-09-03T07:06:52Z</time>
      </trkpt>
      <trkpt lat="48.11929" lon="6.69054">
        <ele>586</ele>
        <time>2023-09-03T07:06:53Z</time>
      </trkpt>
      <trkpt lat="48.11926" lon="6.69057">
        <ele>586.2</ele>
        <time>2023-09-03T07:06:54Z</time>
      </trkpt>
      <trkpt lat="48.11925" lon="6.69059">
        <ele>586.4</ele>
        <time>2023-09-03T07:06:55Z</time>
      </trkpt>
      <trkpt lat="48.11924" lon="6.6906">
        <ele>586.6</ele>
        <time>2023-09-03T07:06:56Z</time>
      </trkpt>
      <trkpt lat="48.11923" lon="6.69062">
        <ele>586.8</ele>
        <time>2023-09-03T07:06:57Z</time>
      </trkpt>
      <trkpt lat="48.11922" lon="6.69065">
        <ele>587</ele>
        <time>2023-09-03T07:06:58Z</time>
      </trkpt>
      <trkpt lat="48.1192" lon="6.69068">
        <ele>587.2</ele>
        <time>2023-09-03T07:06:59Z</time>
      </trkpt>
      <trkpt lat="48.11918" lon="6.69071">
        <ele>587.6</ele>
        <time>2023-09-03T07:07:00Z</time>
      </trkpt>
      <trkpt lat="48.11916" lon="6.69076">
        <ele>587.6</ele>
        <time>2023-09-03T07:07:01Z</time>
      </trkpt>
      <trkpt lat="48.11912" lon="6.69079">
        <ele>588.2</ele>
        <time>2023-09-03T07:07:02Z</time>
      </trkpt>
      <trkpt lat="48.11909" lon="6.69085">
        <ele>588.6</ele>
        <time>2023-09-03T07:07:03Z</time>
      </trkpt>
      <trkpt lat="48.11908" lon="6.69088">
        <ele>588.8</ele>
        <time>2023-09-03T07:07:04Z</time>
      </trkpt>
      <trkpt lat="48.11907" lon="6.69092">
        <ele>589</ele>
        <time>2023-09-03T07:07:05Z</time>
      </trkpt>
      <trkpt lat="48.11907" lon="6.69094">
        <ele>589.2</ele>
        <time>2023-09-03T07:07:06Z</time>
      </trkpt>
      <trkpt lat="48.11905" lon="6.69097">
        <ele>589.4</ele>
        <time>2023-09-03T07:07:07Z</time>
      </trkpt>
      <trkpt lat="48.11904" lon="6.69099">
        <ele>589.4</ele>
        <time>2023-09-03T07:07:08Z</time>
      </trkpt>
      <trkpt lat="48.11902" lon="6.69102">
        <ele>589.8</ele>
        <time>2023-09-03T07:07:09Z</time>
      </trkpt>
      <trkpt lat="48.11901" lon="6.69105">
        <ele>590</ele>
        <time>2023-09-03T07:07:10Z</time>
      </trkpt>
      <trkpt lat="48.11898" lon="6.6911">
        <ele>590.2</ele>
        <time>2023-09-03T07:07:11Z</time>
      </trkpt>
      <trkpt lat="48.11896" lon="6.69115">
        <ele>590.4</ele>
        <time>2023-09-03T07:07:12Z</time>
      </trkpt>
      <trkpt lat="48.11894" lon="6.69121">
        <ele>590.8</ele>
        <time>2023-09-03T07:07:13Z</time>
      </trkpt>
      <trkpt lat="48.11891" lon="6.69127">
        <ele>590.8</ele>
        <time>2023-09-03T07:07:14Z</time>
      </trkpt>
      <trkpt lat="48.11888" lon="6.69131">
        <ele>591.2</ele>
        <time>2023-09-03T07:07:15Z</time>
      </trkpt>
      <trkpt lat="48.11887" lon="6.69135">
        <ele>591.2</ele>
        <time>2023-09-03T07:07:16Z</time>
      </trkpt>
      <trkpt lat="48.11886" lon="6.69139">
        <ele>591.4</ele>
        <time>2023-09-03T07:07:17Z</time>
      </trkpt>
      <trkpt lat="48.11884" lon="6.69144">
        <ele>591.4</ele>
        <time>2023-09-03T07:07:18Z</time>
      </trkpt>
      <trkpt lat="48.11882" lon="6.69147">
        <ele>591.4</ele>
        <time>2023-09-03T07:07:19Z</time>
      </trkpt>
      <trkpt lat="48.11881" lon="6.69151">
        <ele>591.8</ele>
        <time>2023-09-03T07:07:20Z</time>
      </trkpt>
      <trkpt lat="48.11879" lon="6.69156">
        <ele>592</ele>
        <time>2023-09-03T07:07:21Z</time>
      </trkpt>
      <trkpt lat="48.11878" lon="6.6916">
        <ele>592.2</ele>
        <time>2023-09-03T07:07:22Z</time>
      </trkpt>
      <trkpt lat="48.11876" lon="6.69167">
        <ele>592.2</ele>
        <time>2023-09-03T07:07:23Z</time>
      </trkpt>
      <trkpt lat="48.11874" lon="6.69171">
        <ele>592.2</ele>
        <time>2023-09-03T07:07:24Z</time>
      </trkpt>
      <trkpt lat="48.1187" lon="6.69177">
        <ele>592.2</ele>
        <time>2023-09-03T07:07:25Z</time>
      </trkpt>
      <trkpt lat="48.11868" lon="6.69182">
        <ele>592.2</ele>
        <time>2023-09-03T07:07:26Z</time>
      </trkpt>
      <trkpt lat="48.11865" lon="6.6919">
        <ele>592.2</ele>
        <time>2023-09-03T07:07:27Z</time>
      </trkpt>
      <trkpt lat="48.11864" lon="6.69194">
        <ele>592.2</ele>
        <time>2023-09-03T07:07:28Z</time>
      </trkpt>
      <trkpt lat="48.11863" lon="6.692">
        <ele>592.2</ele>
        <time>2023-09-03T07:07:29Z</time>
      </trkpt>
      <trkpt lat="48.1186" lon="6.69203">
        <ele>592.4</ele>
        <time>2023-09-03T07:07:30Z</time>
      </trkpt>
      <trkpt lat="48.11856" lon="6.69208">
        <ele>592.4</ele>
        <time>2023-09-03T07:07:31Z</time>
      </trkpt>
      <trkpt lat="48.11854" lon="6.69213">
        <ele>592.4</ele>
        <time>2023-09-03T07:07:32Z</time>
      </trkpt>
      <trkpt lat="48.11854" lon="6.69218">
        <ele>592.4</ele>
        <time>2023-09-03T07:07:33Z</time>
      </trkpt>
      <trkpt lat="48.11853" lon="6.69223">
        <ele>592.4</ele>
        <time>2023-09-03T07:07:34Z</time>
      </trkpt>
      <trkpt lat="48.11851" lon="6.69226">
        <ele>592.4</ele>
        <time>2023-09-03T07:07:35Z</time>
      </trkpt>
      <trkpt lat="48.11849" lon="6.69229">
        <ele>592.4</ele>
        <time>2023-09-03T07:07:36Z</time>
      </trkpt>
      <trkpt lat="48.11848" lon="6.69231">
        <ele>592.6</ele>
        <time>2023-09-03T07:07:37Z</time>
      </trkpt>
      <trkpt lat="48.11847" lon="6.69233">
        <ele>592.6</ele>
        <time>2023-09-03T07:07:38Z</time>
      </trkpt>
      <trkpt lat="48.11845" lon="6.69234">
        <ele>592.8</ele>
        <time>2023-09-03T07:07:39Z</time>
      </trkpt>
      <trkpt lat="48.11842" lon="6.69236">
        <ele>593</ele>
        <time>2023-09-03T07:07:40Z</time>
      </trkpt>
      <trkpt lat="48.11842" lon="6.69236">
        <ele>593</ele>
        <time>2023-09-03T07:07:41Z</time>
      </trkpt>
      <trkpt lat="48.1184" lon="6.69239">
        <ele>593</ele>
        <time>2023-09-03T07:07:42Z</time>
      </trkpt>
      <trkpt lat="48.1184" lon="6.69242">
        <ele>593.2</ele>
        <time>2023-09-03T07:07:43Z</time>
      </trkpt>
      <trkpt lat="48.1184" lon="6.69242">
        <ele>593.4</ele>
        <time>2023-09-03T07:07:44Z</time>
      </trkpt>
      <trkpt lat="48.11837" lon="6.69246">
        <ele>593.4</ele>
        <time>2023-09-03T07:07:45Z</time>
      </trkpt>
      <trkpt lat="48.11836" lon="6.69248">
        <ele>593.6</ele>
        <time>2023-09-03T07:07:46Z</time>
      </trkpt>
      <trkpt lat="48.11835" lon="6.69248">
        <ele>593.8</ele>
        <time>2023-09-03T07:07:47Z</time>
      </trkpt>
      <trkpt lat="48.11834" lon="6.69249">
        <ele>593.8</ele>
        <time>2023-09-03T07:07:48Z</time>
      </trkpt>
      <trkpt lat="48.11834" lon="6.69249">
        <ele>594</ele>
        <time>2023-09-03T07:07:49Z</time>
      </trkpt>
      <trkpt lat="48.11833" lon="6.6925">
        <ele>594.4</ele>
        <time>2023-09-03T07:07:50Z</time>
      </trkpt>
      <trkpt lat="48.11831" lon="6.69252">
        <ele>594.6</ele>
        <time>2023-09-03T07:07:51Z</time>
      </trkpt>
      <trkpt lat="48.11828" lon="6.69256">
        <ele>594.8</ele>
        <time>2023-09-03T07:07:52Z</time>
      </trkpt>
      <trkpt lat="48.11826" lon="6.69256">
        <ele>594.8</ele>
        <time>2023-09-03T07:07:53Z</time>
      </trkpt>
      <trkpt lat="48.11822" lon="6.69254">
        <ele>595</ele>
        <time>2023-09-03T07:07:54Z</time>
      </trkpt>
      <trkpt lat="48.1182" lon="6.69253">
        <ele>595.2</ele>
        <time>2023-09-03T07:07:55Z</time>
      </trkpt>
      <trkpt lat="48.11818" lon="6.69252">
        <ele>595.6</ele>
        <time>2023-09-03T07:07:56Z</time>
      </trkpt>
      <trkpt lat="48.11816" lon="6.69252">
        <ele>595.6</ele>
        <time>2023-09-03T07:07:57Z</time>
      </trkpt>
      <trkpt lat="48.11814" lon="6.69252">
        <ele>595.6</ele>
        <time>2023-09-03T07:07:58Z</time>
      </trkpt>
      <trkpt lat="48.11812" lon="6.69253">
        <ele>595.8</ele>
        <time>2023-09-03T07:07:59Z</time>
      </trkpt>
      <trkpt lat="48.1181" lon="6.69253">
        <ele>596.4</ele>
        <time>2023-09-03T07:08:00Z</time>
      </trkpt>
      <trkpt lat="48.11807" lon="6.69256">
        <ele>596.6</ele>
        <time>2023-09-03T07:08:01Z</time>
      </trkpt>
      <trkpt lat="48.11805" lon="6.69257">
        <ele>597</ele>
        <time>2023-09-03T07:08:02Z</time>
      </trkpt>
      <trkpt lat="48.11804" lon="6.69257">
        <ele>597.2</ele>
        <time>2023-09-03T07:08:03Z</time>
      </trkpt>
      <trkpt lat="48.11802" lon="6.69257">
        <ele>597.4</ele>
        <time>2023-09-03T07:08:04Z</time>
      </trkpt>
      <trkpt lat="48.11801" lon="6.69256">
        <ele>597.6</ele>
        <time>2023-09-03T07:08:05Z</time>
      </trkpt>
      <trkpt lat="48.118" lon="6.69256">
        <ele>597.8</ele>
        <time>2023-09-03T07:08:06Z</time>
      </trkpt>
      <trkpt lat="48.11799" lon="6.69256">
        <ele>598.6</ele>
        <time>2023-09-03T07:08:07Z</time>
      </trkpt>
      <trkpt lat="48.11796" lon="6.69258">
        <ele>598.8</ele>
        <time>2023-09-03T07:08:08Z</time>
      </trkpt>
      <trkpt lat="48.11795" lon="6.69258">
        <ele>599</ele>
        <time>2023-09-03T07:08:09Z</time>
      </trkpt>
      <trkpt lat="48.11792" lon="6.6926">
        <ele>599.4</ele>
        <time>2023-09-03T07:08:10Z</time>
      </trkpt>
      <trkpt lat="48.11791" lon="6.6926">
        <ele>599.8</ele>
        <time>2023-09-03T07:08:11Z</time>
      </trkpt>
      <trkpt lat="48.1179" lon="6.6926">
        <ele>600</ele>
        <time>2023-09-03T07:08:12Z</time>
      </trkpt>
      <trkpt lat="48.11789" lon="6.69259">
        <ele>600.4</ele>
        <time>2023-09-03T07:08:13Z</time>
      </trkpt>
      <trkpt lat="48.11789" lon="6.69258">
        <ele>600.4</ele>
        <time>2023-09-03T07:08:14Z</time>
      </trkpt>
      <trkpt lat="48.11789" lon="6.69258">
        <ele>600.6</ele>
        <time>2023-09-03T07:08:15Z</time>
      </trkpt>
      <trkpt lat="48.11789" lon="6.69258">
        <ele>600.4</ele>
        <time>2023-09-03T07:08:16Z</time>
      </trkpt>
      <trkpt lat="48.11789" lon="6.69258">
        <ele>600.4</ele>
        <time>2023-09-03T07:08:17Z</time>
      </trkpt>
      <trkpt lat="48.11785" lon="6.69254">
        <ele>600.4</ele>
        <time>2023-09-03T07:08:18Z</time>
      </trkpt>
      <trkpt lat="48.11781" lon="6.6925">
        <ele>600.4</ele>
        <time>2023-09-03T07:08:19Z</time>
      </trkpt>
      <trkpt lat="48.11777" lon="6.69247">
        <ele>600.4</ele>
        <time>2023-09-03T07:08:20Z</time>
      </trkpt>
      <trkpt lat="48.11772" lon="6.69245">
        <ele>600.4</ele>
        <time>2023-09-03T07:08:21Z</time>
      </trkpt>
      <trkpt lat="48.11766" lon="6.69243">
        <ele>599.6</ele>
        <time>2023-09-03T07:08:22Z</time>
      </trkpt>
      <trkpt lat="48.1176" lon="6.69242">
        <ele>598.6</ele>
        <time>2023-09-03T07:08:23Z</time>
      </trkpt>
      <trkpt lat="48.11754" lon="6.69242">
        <ele>596.6</ele>
        <time>2023-09-03T07:08:24Z</time>
      </trkpt>
      <trkpt lat="48.11748" lon="6.69242">
        <ele>595.4</ele>
        <time>2023-09-03T07:08:25Z</time>
      </trkpt>
      <trkpt lat="48.1174" lon="6.69242">
        <ele>594.4</ele>
        <time>2023-09-03T07:08:26Z</time>
      </trkpt>
      <trkpt lat="48.11734" lon="6.69242">
        <ele>594</ele>
        <time>2023-09-03T07:08:27Z</time>
      </trkpt>
      <trkpt lat="48.11729" lon="6.69242">
        <ele>593.4</ele>
        <time>2023-09-03T07:08:28Z</time>
      </trkpt>
      <trkpt lat="48.11728" lon="6.69242">
        <ele>592.8</ele>
        <time>2023-09-03T07:08:29Z</time>
      </trkpt>
      <trkpt lat="48.11728" lon="6.69242">
        <ele>592.6</ele>
        <time>2023-09-03T07:08:30Z</time>
      </trkpt>
      <trkpt lat="48.11725" lon="6.69241">
        <ele>592</ele>
        <time>2023-09-03T07:08:31Z</time>
      </trkpt>
      <trkpt lat="48.11721" lon="6.69236">
        <ele>591.8</ele>
        <time>2023-09-03T07:08:32Z</time>
      </trkpt>
      <trkpt lat="48.1172" lon="6.69231">
        <ele>591.4</ele>
        <time>2023-09-03T07:08:33Z</time>
      </trkpt>
      <trkpt lat="48.11719" lon="6.69225">
        <ele>590.6</ele>
        <time>2023-09-03T07:08:34Z</time>
      </trkpt>
      <trkpt lat="48.11718" lon="6.69217">
        <ele>589.4</ele>
        <time>2023-09-03T07:08:35Z</time>
      </trkpt>
      <trkpt lat="48.11717" lon="6.69208">
        <ele>589</ele>
        <time>2023-09-03T07:08:36Z</time>
      </trkpt>
      <trkpt lat="48.11715" lon="6.69199">
        <ele>588.6</ele>
        <time>2023-09-03T07:08:37Z</time>
      </trkpt>
      <trkpt lat="48.11712" lon="6.69188">
        <ele>588.4</ele>
        <time>2023-09-03T07:08:38Z</time>
      </trkpt>
      <trkpt lat="48.11709" lon="6.69178">
        <ele>588.2</ele>
        <time>2023-09-03T07:08:39Z</time>
      </trkpt>
      <trkpt lat="48.11709" lon="6.69168">
        <ele>588</ele>
        <time>2023-09-03T07:08:40Z</time>
      </trkpt>
      <trkpt lat="48.11709" lon="6.69158">
        <ele>587.8</ele>
        <time>2023-09-03T07:08:41Z</time>
      </trkpt>
      <trkpt lat="48.11709" lon="6.69149">
        <ele>587.6</ele>
        <time>2023-09-03T07:08:42Z</time>
      </trkpt>
      <trkpt lat="48.11708" lon="6.69141">
        <ele>587.4</ele>
        <time>2023-09-03T07:08:43Z</time>
      </trkpt>
      <trkpt lat="48.11707" lon="6.69133">
        <ele>587</ele>
        <time>2023-09-03T07:08:44Z</time>
      </trkpt>
      <trkpt lat="48.11705" lon="6.69126">
        <ele>586.8</ele>
        <time>2023-09-03T07:08:45Z</time>
      </trkpt>
      <trkpt lat="48.117" lon="6.69117">
        <ele>586.4</ele>
        <time>2023-09-03T07:08:46Z</time>
      </trkpt>
      <trkpt lat="48.11694" lon="6.69107">
        <ele>586.4</ele>
        <time>2023-09-03T07:08:47Z</time>
      </trkpt>
      <trkpt lat="48.1169" lon="6.69095">
        <ele>585.6</ele>
        <time>2023-09-03T07:08:48Z</time>
      </trkpt>
      <trkpt lat="48.11688" lon="6.69082">
        <ele>585.4</ele>
        <time>2023-09-03T07:08:49Z</time>
      </trkpt>
      <trkpt lat="48.11685" lon="6.69071">
        <ele>584.8</ele>
        <time>2023-09-03T07:08:50Z</time>
      </trkpt>
      <trkpt lat="48.11683" lon="6.69063">
        <ele>584.6</ele>
        <time>2023-09-03T07:08:51Z</time>
      </trkpt>
      <trkpt lat="48.11681" lon="6.69055">
        <ele>583.8</ele>
        <time>2023-09-03T07:08:52Z</time>
      </trkpt>
      <trkpt lat="48.11683" lon="6.69047">
        <ele>583.6</ele>
        <time>2023-09-03T07:08:53Z</time>
      </trkpt>
      <trkpt lat="48.11681" lon="6.69042">
        <ele>583.6</ele>
        <time>2023-09-03T07:08:54Z</time>
      </trkpt>
      <trkpt lat="48.11677" lon="6.69038">
        <ele>583.2</ele>
        <time>2023-09-03T07:08:55Z</time>
      </trkpt>
      <trkpt lat="48.11667" lon="6.69033">
        <ele>583</ele>
        <time>2023-09-03T07:08:56Z</time>
      </trkpt>
      <trkpt lat="48.11664" lon="6.69031">
        <ele>582.8</ele>
        <time>2023-09-03T07:08:57Z</time>
      </trkpt>
      <trkpt lat="48.11659" lon="6.69026">
        <ele>582.8</ele>
        <time>2023-09-03T07:08:58Z</time>
      </trkpt>
      <trkpt lat="48.1165" lon="6.69017">
        <ele>582.4</ele>
        <time>2023-09-03T07:08:59Z</time>
      </trkpt>
      <trkpt lat="48.11643" lon="6.69008">
        <ele>582.2</ele>
        <time>2023-09-03T07:09:00Z</time>
      </trkpt>
      <trkpt lat="48.11637" lon="6.68997">
        <ele>581.6</ele>
        <time>2023-09-03T07:09:01Z</time>
      </trkpt>
      <trkpt lat="48.11632" lon="6.68984">
        <ele>581.2</ele>
        <time>2023-09-03T07:09:02Z</time>
      </trkpt>
      <trkpt lat="48.11626" lon="6.68972">
        <ele>580.4</ele>
        <time>2023-09-03T07:09:03Z</time>
      </trkpt>
      <trkpt lat="48.11622" lon="6.6896">
        <ele>580.2</ele>
        <time>2023-09-03T07:09:04Z</time>
      </trkpt>
      <trkpt lat="48.11621" lon="6.6895">
        <ele>578.2</ele>
        <time>2023-09-03T07:09:05Z</time>
      </trkpt>
      <trkpt lat="48.11621" lon="6.6894">
        <ele>577.2</ele>
        <time>2023-09-03T07:09:06Z</time>
      </trkpt>
      <trkpt lat="48.11623" lon="6.68931">
        <ele>575.8</ele>
        <time>2023-09-03T07:09:07Z</time>
      </trkpt>
      <trkpt lat="48.11625" lon="6.6892">
        <ele>575.4</ele>
        <time>2023-09-03T07:09:08Z</time>
      </trkpt>
      <trkpt lat="48.11626" lon="6.68907">
        <ele>575</ele>
        <time>2023-09-03T07:09:09Z</time>
      </trkpt>
      <trkpt lat="48.11627" lon="6.68893">
        <ele>574.8</ele>
        <time>2023-09-03T07:09:10Z</time>
      </trkpt>
      <trkpt lat="48.11629" lon="6.68879">
        <ele>574.4</ele>
        <time>2023-09-03T07:09:11Z</time>
      </trkpt>
      <trkpt lat="48.1163" lon="6.68868">
        <ele>574.2</ele>
        <time>2023-09-03T07:09:12Z</time>
      </trkpt>
      <trkpt lat="48.11632" lon="6.68857">
        <ele>573.6</ele>
        <time>2023-09-03T07:09:13Z</time>
      </trkpt>
      <trkpt lat="48.11635" lon="6.68848">
        <ele>572.2</ele>
        <time>2023-09-03T07:09:14Z</time>
      </trkpt>
      <trkpt lat="48.1164" lon="6.6884">
        <ele>571.4</ele>
        <time>2023-09-03T07:09:15Z</time>
      </trkpt>
      <trkpt lat="48.11644" lon="6.68834">
        <ele>570.2</ele>
        <time>2023-09-03T07:09:16Z</time>
      </trkpt>
      <trkpt lat="48.1165" lon="6.68827">
        <ele>569.8</ele>
        <time>2023-09-03T07:09:17Z</time>
      </trkpt>
      <trkpt lat="48.11656" lon="6.68821">
        <ele>568.6</ele>
        <time>2023-09-03T07:09:18Z</time>
      </trkpt>
      <trkpt lat="48.11663" lon="6.68815">
        <ele>567.8</ele>
        <time>2023-09-03T07:09:19Z</time>
      </trkpt>
      <trkpt lat="48.1167" lon="6.68809">
        <ele>566.6</ele>
        <time>2023-09-03T07:09:20Z</time>
      </trkpt>
      <trkpt lat="48.11677" lon="6.688">
        <ele>566.4</ele>
        <time>2023-09-03T07:09:21Z</time>
      </trkpt>
      <trkpt lat="48.11683" lon="6.68789">
        <ele>564.8</ele>
        <time>2023-09-03T07:09:22Z</time>
      </trkpt>
      <trkpt lat="48.11689" lon="6.68776">
        <ele>563.8</ele>
        <time>2023-09-03T07:09:23Z</time>
      </trkpt>
      <trkpt lat="48.11693" lon="6.68763">
        <ele>561.8</ele>
        <time>2023-09-03T07:09:24Z</time>
      </trkpt>
      <trkpt lat="48.11698" lon="6.68749">
        <ele>560.6</ele>
        <time>2023-09-03T07:09:25Z</time>
      </trkpt>
      <trkpt lat="48.11703" lon="6.68735">
        <ele>558</ele>
        <time>2023-09-03T07:09:26Z</time>
      </trkpt>
      <trkpt lat="48.11706" lon="6.6872">
        <ele>556.8</ele>
        <time>2023-09-03T07:09:27Z</time>
      </trkpt>
      <trkpt lat="48.11708" lon="6.68706">
        <ele>556.2</ele>
        <time>2023-09-03T07:09:28Z</time>
      </trkpt>
      <trkpt lat="48.11711" lon="6.68692">
        <ele>555.6</ele>
        <time>2023-09-03T07:09:29Z</time>
      </trkpt>
      <trkpt lat="48.11716" lon="6.6868">
        <ele>555.4</ele>
        <time>2023-09-03T07:09:30Z</time>
      </trkpt>
      <trkpt lat="48.11721" lon="6.68668">
        <ele>554.6</ele>
        <time>2023-09-03T07:09:31Z</time>
      </trkpt>
      <trkpt lat="48.11727" lon="6.68658">
        <ele>554</ele>
        <time>2023-09-03T07:09:32Z</time>
      </trkpt>
      <trkpt lat="48.11731" lon="6.68648">
        <ele>551.8</ele>
        <time>2023-09-03T07:09:33Z</time>
      </trkpt>
      <trkpt lat="48.11735" lon="6.68639">
        <ele>551</ele>
        <time>2023-09-03T07:09:34Z</time>
      </trkpt>
      <trkpt lat="48.11738" lon="6.68626">
        <ele>549.8</ele>
        <time>2023-09-03T07:09:35Z</time>
      </trkpt>
      <trkpt lat="48.11742" lon="6.68617">
        <ele>549.2</ele>
        <time>2023-09-03T07:09:36Z</time>
      </trkpt>
      <trkpt lat="48.11746" lon="6.68606">
        <ele>548.2</ele>
        <time>2023-09-03T07:09:37Z</time>
      </trkpt>
      <trkpt lat="48.11749" lon="6.68594">
        <ele>547.6</ele>
        <time>2023-09-03T07:09:38Z</time>
      </trkpt>
      <trkpt lat="48.11751" lon="6.68581">
        <ele>546.4</ele>
        <time>2023-09-03T07:09:39Z</time>
      </trkpt>
      <trkpt lat="48.11752" lon="6.68569">
        <ele>546</ele>
        <time>2023-09-03T07:09:40Z</time>
      </trkpt>
      <trkpt lat="48.11751" lon="6.68558">
        <ele>545.2</ele>
        <time>2023-09-03T07:09:41Z</time>
      </trkpt>
      <trkpt lat="48.1175" lon="6.68545">
        <ele>544.4</ele>
        <time>2023-09-03T07:09:42Z</time>
      </trkpt>
      <trkpt lat="48.1175" lon="6.68532">
        <ele>544.2</ele>
        <time>2023-09-03T07:09:43Z</time>
      </trkpt>
      <trkpt lat="48.11751" lon="6.68518">
        <ele>543.4</ele>
        <time>2023-09-03T07:09:44Z</time>
      </trkpt>
      <trkpt lat="48.11751" lon="6.68505">
        <ele>543</ele>
        <time>2023-09-03T07:09:45Z</time>
      </trkpt>
      <trkpt lat="48.11753" lon="6.68492">
        <ele>542.2</ele>
        <time>2023-09-03T07:09:46Z</time>
      </trkpt>
      <trkpt lat="48.11754" lon="6.6848">
        <ele>541.8</ele>
        <time>2023-09-03T07:09:47Z</time>
      </trkpt>
      <trkpt lat="48.11756" lon="6.68468">
        <ele>541.2</ele>
        <time>2023-09-03T07:09:48Z</time>
      </trkpt>
      <trkpt lat="48.11758" lon="6.68456">
        <ele>541</ele>
        <time>2023-09-03T07:09:49Z</time>
      </trkpt>
      <trkpt lat="48.1176" lon="6.68444">
        <ele>540.8</ele>
        <time>2023-09-03T07:09:50Z</time>
      </trkpt>
      <trkpt lat="48.11763" lon="6.68432">
        <ele>540.6</ele>
        <time>2023-09-03T07:09:51Z</time>
      </trkpt>
      <trkpt lat="48.11765" lon="6.68421">
        <ele>539.8</ele>
        <time>2023-09-03T07:09:52Z</time>
      </trkpt>
      <trkpt lat="48.11765" lon="6.68411">
        <ele>539.6</ele>
        <time>2023-09-03T07:09:53Z</time>
      </trkpt>
      <trkpt lat="48.11763" lon="6.684">
        <ele>539</ele>
        <time>2023-09-03T07:09:54Z</time>
      </trkpt>
      <trkpt lat="48.11759" lon="6.68389">
        <ele>538.4</ele>
        <time>2023-09-03T07:09:55Z</time>
      </trkpt>
      <trkpt lat="48.11753" lon="6.68379">
        <ele>538</ele>
        <time>2023-09-03T07:09:56Z</time>
      </trkpt>
      <trkpt lat="48.1175" lon="6.68369">
        <ele>537.4</ele>
        <time>2023-09-03T07:09:57Z</time>
      </trkpt>
      <trkpt lat="48.11746" lon="6.68357">
        <ele>537.2</ele>
        <time>2023-09-03T07:09:58Z</time>
      </trkpt>
      <trkpt lat="48.11742" lon="6.68346">
        <ele>536</ele>
        <time>2023-09-03T07:09:59Z</time>
      </trkpt>
      <trkpt lat="48.11738" lon="6.68337">
        <ele>535</ele>
        <time>2023-09-03T07:10:00Z</time>
      </trkpt>
      <trkpt lat="48.11733" lon="6.68327">
        <ele>534</ele>
        <time>2023-09-03T07:10:01Z</time>
      </trkpt>
      <trkpt lat="48.11726" lon="6.68316">
        <ele>533.4</ele>
        <time>2023-09-03T07:10:02Z</time>
      </trkpt>
      <trkpt lat="48.1172" lon="6.68307">
        <ele>532</ele>
        <time>2023-09-03T07:10:03Z</time>
      </trkpt>
      <trkpt lat="48.11716" lon="6.683">
        <ele>531.4</ele>
        <time>2023-09-03T07:10:04Z</time>
      </trkpt>
      <trkpt lat="48.11712" lon="6.68291">
        <ele>530.6</ele>
        <time>2023-09-03T07:10:05Z</time>
      </trkpt>
      <trkpt lat="48.11709" lon="6.68281">
        <ele>530.4</ele>
        <time>2023-09-03T07:10:06Z</time>
      </trkpt>
      <trkpt lat="48.11702" lon="6.68268">
        <ele>529.6</ele>
        <time>2023-09-03T07:10:07Z</time>
      </trkpt>
      <trkpt lat="48.11694" lon="6.68256">
        <ele>529.4</ele>
        <time>2023-09-03T07:10:08Z</time>
      </trkpt>
      <trkpt lat="48.11686" lon="6.68244">
        <ele>528</ele>
        <time>2023-09-03T07:10:09Z</time>
      </trkpt>
      <trkpt lat="48.1168" lon="6.68234">
        <ele>527.2</ele>
        <time>2023-09-03T07:10:10Z</time>
      </trkpt>
      <trkpt lat="48.11674" lon="6.68224">
        <ele>526.6</ele>
        <time>2023-09-03T07:10:11Z</time>
      </trkpt>
      <trkpt lat="48.11669" lon="6.68213">
        <ele>525.4</ele>
        <time>2023-09-03T07:10:12Z</time>
      </trkpt>
      <trkpt lat="48.11662" lon="6.682">
        <ele>524.8</ele>
        <time>2023-09-03T07:10:13Z</time>
      </trkpt>
      <trkpt lat="48.11655" lon="6.68187">
        <ele>523.8</ele>
        <time>2023-09-03T07:10:14Z</time>
      </trkpt>
      <trkpt lat="48.11648" lon="6.68172">
        <ele>523.4</ele>
        <time>2023-09-03T07:10:15Z</time>
      </trkpt>
      <trkpt lat="48.11642" lon="6.68159">
        <ele>522.4</ele>
        <time>2023-09-03T07:10:16Z</time>
      </trkpt>
      <trkpt lat="48.11634" lon="6.68148">
        <ele>521.8</ele>
        <time>2023-09-03T07:10:17Z</time>
      </trkpt>
      <trkpt lat="48.11626" lon="6.68137">
        <ele>520.8</ele>
        <time>2023-09-03T07:10:18Z</time>
      </trkpt>
      <trkpt lat="48.11619" lon="6.68129">
        <ele>520.4</ele>
        <time>2023-09-03T07:10:19Z</time>
      </trkpt>
      <trkpt lat="48.11611" lon="6.68121">
        <ele>519.8</ele>
        <time>2023-09-03T07:10:20Z</time>
      </trkpt>
      <trkpt lat="48.11603" lon="6.68112">
        <ele>519.6</ele>
        <time>2023-09-03T07:10:21Z</time>
      </trkpt>
      <trkpt lat="48.11595" lon="6.68103">
        <ele>519</ele>
        <time>2023-09-03T07:10:22Z</time>
      </trkpt>
      <trkpt lat="48.11587" lon="6.68094">
        <ele>517.8</ele>
        <time>2023-09-03T07:10:23Z</time>
      </trkpt>
      <trkpt lat="48.11579" lon="6.68087">
        <ele>517.4</ele>
        <time>2023-09-03T07:10:24Z</time>
      </trkpt>
      <trkpt lat="48.11569" lon="6.6808">
        <ele>516.8</ele>
        <time>2023-09-03T07:10:25Z</time>
      </trkpt>
      <trkpt lat="48.11558" lon="6.68072">
        <ele>516.4</ele>
        <time>2023-09-03T07:10:26Z</time>
      </trkpt>
      <trkpt lat="48.11548" lon="6.68065">
        <ele>514.8</ele>
        <time>2023-09-03T07:10:27Z</time>
      </trkpt>
      <trkpt lat="48.1154" lon="6.68059">
        <ele>514</ele>
        <time>2023-09-03T07:10:28Z</time>
      </trkpt>
      <trkpt lat="48.11535" lon="6.68053">
        <ele>512.8</ele>
        <time>2023-09-03T07:10:29Z</time>
      </trkpt>
      <trkpt lat="48.11531" lon="6.68049">
        <ele>512.4</ele>
        <time>2023-09-03T07:10:30Z</time>
      </trkpt>
      <trkpt lat="48.11527" lon="6.68046">
        <ele>511.6</ele>
        <time>2023-09-03T07:10:31Z</time>
      </trkpt>
      <trkpt lat="48.11518" lon="6.68045">
        <ele>511.4</ele>
        <time>2023-09-03T07:10:32Z</time>
      </trkpt>
      <trkpt lat="48.11509" lon="6.68044">
        <ele>510.2</ele>
        <time>2023-09-03T07:10:33Z</time>
      </trkpt>
      <trkpt lat="48.115" lon="6.68042">
        <ele>509.4</ele>
        <time>2023-09-03T07:10:34Z</time>
      </trkpt>
      <trkpt lat="48.11492" lon="6.68039">
        <ele>508.4</ele>
        <time>2023-09-03T07:10:35Z</time>
      </trkpt>
      <trkpt lat="48.11482" lon="6.68037">
        <ele>508.2</ele>
        <time>2023-09-03T07:10:36Z</time>
      </trkpt>
      <trkpt lat="48.11472" lon="6.68035">
        <ele>507.2</ele>
        <time>2023-09-03T07:10:37Z</time>
      </trkpt>
      <trkpt lat="48.11467" lon="6.68036">
        <ele>505.8</ele>
        <time>2023-09-03T07:10:38Z</time>
      </trkpt>
      <trkpt lat="48.11464" lon="6.6804">
        <ele>505.2</ele>
        <time>2023-09-03T07:10:39Z</time>
      </trkpt>
      <trkpt lat="48.11455" lon="6.68042">
        <ele>504</ele>
        <time>2023-09-03T07:10:40Z</time>
      </trkpt>
      <trkpt lat="48.11451" lon="6.68046">
        <ele>503.8</ele>
        <time>2023-09-03T07:10:41Z</time>
      </trkpt>
      <trkpt lat="48.11442" lon="6.68049">
        <ele>503.4</ele>
        <time>2023-09-03T07:10:42Z</time>
      </trkpt>
      <trkpt lat="48.11431" lon="6.68051">
        <ele>503</ele>
        <time>2023-09-03T07:10:43Z</time>
      </trkpt>
      <trkpt lat="48.1142" lon="6.68053">
        <ele>502.2</ele>
        <time>2023-09-03T07:10:44Z</time>
      </trkpt>
      <trkpt lat="48.11411" lon="6.68056">
        <ele>501.8</ele>
        <time>2023-09-03T07:10:45Z</time>
      </trkpt>
      <trkpt lat="48.11404" lon="6.68059">
        <ele>501.6</ele>
        <time>2023-09-03T07:10:46Z</time>
      </trkpt>
      <trkpt lat="48.11396" lon="6.68062">
        <ele>501.4</ele>
        <time>2023-09-03T07:10:47Z</time>
      </trkpt>
      <trkpt lat="48.11389" lon="6.68065">
        <ele>501</ele>
        <time>2023-09-03T07:10:48Z</time>
      </trkpt>
      <trkpt lat="48.11382" lon="6.68067">
        <ele>501</ele>
        <time>2023-09-03T07:10:49Z</time>
      </trkpt>
      <trkpt lat="48.11378" lon="6.68068">
        <ele>500.4</ele>
        <time>2023-09-03T07:10:50Z</time>
      </trkpt>
      <trkpt lat="48.11375" lon="6.68067">
        <ele>500</ele>
        <time>2023-09-03T07:10:51Z</time>
      </trkpt>
      <trkpt lat="48.11373" lon="6.68065">
        <ele>499.8</ele>
        <time>2023-09-03T07:10:52Z</time>
      </trkpt>
      <trkpt lat="48.11372" lon="6.68063">
        <ele>499.2</ele>
        <time>2023-09-03T07:10:53Z</time>
      </trkpt>
      <trkpt lat="48.11372" lon="6.68061">
        <ele>498.8</ele>
        <time>2023-09-03T07:10:54Z</time>
      </trkpt>
      <trkpt lat="48.11371" lon="6.6806">
        <ele>498.2</ele>
        <time>2023-09-03T07:10:55Z</time>
      </trkpt>
      <trkpt lat="48.11371" lon="6.68058">
        <ele>498</ele>
        <time>2023-09-03T07:10:56Z</time>
      </trkpt>
      <trkpt lat="48.1137" lon="6.68056">
        <ele>497.4</ele>
        <time>2023-09-03T07:10:57Z</time>
      </trkpt>
      <trkpt lat="48.1137" lon="6.68054">
        <ele>497.2</ele>
        <time>2023-09-03T07:10:58Z</time>
      </trkpt>
      <trkpt lat="48.11369" lon="6.68053">
        <ele>496.8</ele>
        <time>2023-09-03T07:10:59Z</time>
      </trkpt>
      <trkpt lat="48.11369" lon="6.68051">
        <ele>495.6</ele>
        <time>2023-09-03T07:11:06Z</time>
      </trkpt>
      <trkpt lat="48.11368" lon="6.68049">
        <ele>495.4</ele>
        <time>2023-09-03T07:11:07Z</time>
      </trkpt>
      <trkpt lat="48.1137" lon="6.68043">
        <ele>495.6</ele>
        <time>2023-09-03T07:11:08Z</time>
      </trkpt>
      <trkpt lat="48.11371" lon="6.68035">
        <ele>495.6</ele>
        <time>2023-09-03T07:11:09Z</time>
      </trkpt>
      <trkpt lat="48.11373" lon="6.68026">
        <ele>495.4</ele>
        <time>2023-09-03T07:11:10Z</time>
      </trkpt>
      <trkpt lat="48.11375" lon="6.68017">
        <ele>495.2</ele>
        <time>2023-09-03T07:11:11Z</time>
      </trkpt>
      <trkpt lat="48.11378" lon="6.68007">
        <ele>495.4</ele>
        <time>2023-09-03T07:11:12Z</time>
      </trkpt>
      <trkpt lat="48.11381" lon="6.67996">
        <ele>495.4</ele>
        <time>2023-09-03T07:11:13Z</time>
      </trkpt>
      <trkpt lat="48.11386" lon="6.67985">
        <ele>495.2</ele>
        <time>2023-09-03T07:11:14Z</time>
      </trkpt>
      <trkpt lat="48.11392" lon="6.67976">
        <ele>495</ele>
        <time>2023-09-03T07:11:15Z</time>
      </trkpt>
      <trkpt lat="48.11398" lon="6.67967">
        <ele>494.4</ele>
        <time>2023-09-03T07:11:16Z</time>
      </trkpt>
      <trkpt lat="48.11406" lon="6.6796">
        <ele>494.2</ele>
        <time>2023-09-03T07:11:17Z</time>
      </trkpt>
      <trkpt lat="48.11415" lon="6.67953">
        <ele>493.4</ele>
        <time>2023-09-03T07:11:18Z</time>
      </trkpt>
      <trkpt lat="48.11424" lon="6.67947">
        <ele>492.8</ele>
        <time>2023-09-03T07:11:19Z</time>
      </trkpt>
      <trkpt lat="48.11433" lon="6.6794">
        <ele>492.4</ele>
        <time>2023-09-03T07:11:20Z</time>
      </trkpt>
      <trkpt lat="48.11442" lon="6.67933">
        <ele>491.2</ele>
        <time>2023-09-03T07:11:21Z</time>
      </trkpt>
      <trkpt lat="48.11451" lon="6.67925">
        <ele>491</ele>
        <time>2023-09-03T07:11:22Z</time>
      </trkpt>
      <trkpt lat="48.11459" lon="6.67918">
        <ele>490.6</ele>
        <time>2023-09-03T07:11:23Z</time>
      </trkpt>
      <trkpt lat="48.11468" lon="6.67909">
        <ele>490.6</ele>
        <time>2023-09-03T07:11:24Z</time>
      </trkpt>
      <trkpt lat="48.11475" lon="6.67901">
        <ele>490.2</ele>
        <time>2023-09-03T07:11:25Z</time>
      </trkpt>
      <trkpt lat="48.11483" lon="6.67892">
        <ele>490</ele>
        <time>2023-09-03T07:11:26Z</time>
      </trkpt>
      <trkpt lat="48.1149" lon="6.67883">
        <ele>489</ele>
        <time>2023-09-03T07:11:27Z</time>
      </trkpt>
      <trkpt lat="48.11497" lon="6.67874">
        <ele>488.4</ele>
        <time>2023-09-03T07:11:28Z</time>
      </trkpt>
      <trkpt lat="48.11504" lon="6.67863">
        <ele>487.2</ele>
        <time>2023-09-03T07:11:29Z</time>
      </trkpt>
      <trkpt lat="48.1151" lon="6.67853">
        <ele>486.6</ele>
        <time>2023-09-03T07:11:30Z</time>
      </trkpt>
      <trkpt lat="48.11517" lon="6.67842">
        <ele>485.8</ele>
        <time>2023-09-03T07:11:31Z</time>
      </trkpt>
      <trkpt lat="48.11521" lon="6.67833">
        <ele>485.4</ele>
        <time>2023-09-03T07:11:32Z</time>
      </trkpt>
      <trkpt lat="48.11524" lon="6.67824">
        <ele>483.8</ele>
        <time>2023-09-03T07:11:33Z</time>
      </trkpt>
      <trkpt lat="48.11525" lon="6.67817">
        <ele>482.8</ele>
        <time>2023-09-03T07:11:34Z</time>
      </trkpt>
      <trkpt lat="48.11525" lon="6.67813">
        <ele>482.2</ele>
        <time>2023-09-03T07:11:35Z</time>
      </trkpt>
      <trkpt lat="48.11523" lon="6.67813">
        <ele>481.4</ele>
        <time>2023-09-03T07:11:36Z</time>
      </trkpt>
      <trkpt lat="48.11521" lon="6.67815">
        <ele>481.2</ele>
        <time>2023-09-03T07:11:37Z</time>
      </trkpt>
      <trkpt lat="48.11519" lon="6.67817">
        <ele>480</ele>
        <time>2023-09-03T07:11:38Z</time>
      </trkpt>
      <trkpt lat="48.11515" lon="6.67819">
        <ele>479.4</ele>
        <time>2023-09-03T07:11:39Z</time>
      </trkpt>
      <trkpt lat="48.11511" lon="6.67822">
        <ele>478.2</ele>
        <time>2023-09-03T07:11:40Z</time>
      </trkpt>
      <trkpt lat="48.11506" lon="6.67824">
        <ele>477.6</ele>
        <time>2023-09-03T07:11:41Z</time>
      </trkpt>
      <trkpt lat="48.115" lon="6.67826">
        <ele>476.6</ele>
        <time>2023-09-03T07:11:42Z</time>
      </trkpt>
      <trkpt lat="48.11494" lon="6.67827">
        <ele>476.2</ele>
        <time>2023-09-03T07:11:43Z</time>
      </trkpt>
      <trkpt lat="48.11488" lon="6.67827">
        <ele>475.2</ele>
        <time>2023-09-03T07:11:44Z</time>
      </trkpt>
      <trkpt lat="48.11481" lon="6.67828">
        <ele>474.8</ele>
        <time>2023-09-03T07:11:45Z</time>
      </trkpt>
      <trkpt lat="48.11476" lon="6.67829">
        <ele>474.2</ele>
        <time>2023-09-03T07:11:46Z</time>
      </trkpt>
      <trkpt lat="48.1147" lon="6.6783">
        <ele>474</ele>
        <time>2023-09-03T07:11:47Z</time>
      </trkpt>
      <trkpt lat="48.11464" lon="6.67832">
        <ele>473.8</ele>
        <time>2023-09-03T07:11:48Z</time>
      </trkpt>
      <trkpt lat="48.11458" lon="6.67835">
        <ele>473.8</ele>
        <time>2023-09-03T07:11:49Z</time>
      </trkpt>
      <trkpt lat="48.11452" lon="6.67838">
        <ele>473.6</ele>
        <time>2023-09-03T07:11:50Z</time>
      </trkpt>
      <trkpt lat="48.11446" lon="6.67842">
        <ele>473.6</ele>
        <time>2023-09-03T07:11:51Z</time>
      </trkpt>
      <trkpt lat="48.1144" lon="6.67846">
        <ele>473.8</ele>
        <time>2023-09-03T07:11:52Z</time>
      </trkpt>
      <trkpt lat="48.11434" lon="6.67849">
        <ele>473.8</ele>
        <time>2023-09-03T07:11:53Z</time>
      </trkpt>
      <trkpt lat="48.11428" lon="6.67851">
        <ele>474</ele>
        <time>2023-09-03T07:11:54Z</time>
      </trkpt>
      <trkpt lat="48.11422" lon="6.67853">
        <ele>474.2</ele>
        <time>2023-09-03T07:11:55Z</time>
      </trkpt>
      <trkpt lat="48.11416" lon="6.67854">
        <ele>474.2</ele>
        <time>2023-09-03T07:11:56Z</time>
      </trkpt>
      <trkpt lat="48.11411" lon="6.67855">
        <ele>474.2</ele>
        <time>2023-09-03T07:11:57Z</time>
      </trkpt>
      <trkpt lat="48.11405" lon="6.67855">
        <ele>474.2</ele>
        <time>2023-09-03T07:11:58Z</time>
      </trkpt>
      <trkpt lat="48.11399" lon="6.67857">
        <ele>474.2</ele>
        <time>2023-09-03T07:11:59Z</time>
      </trkpt>
      <trkpt lat="48.11393" lon="6.67859">
        <ele>474.2</ele>
        <time>2023-09-03T07:12:00Z</time>
      </trkpt>
      <trkpt lat="48.11386" lon="6.67862">
        <ele>473.8</ele>
        <time>2023-09-03T07:12:01Z</time>
      </trkpt>
      <trkpt lat="48.11378" lon="6.67865">
        <ele>473.8</ele>
        <time>2023-09-03T07:12:02Z</time>
      </trkpt>
      <trkpt lat="48.11371" lon="6.67868">
        <ele>473.4</ele>
        <time>2023-09-03T07:12:03Z</time>
      </trkpt>
      <trkpt lat="48.11365" lon="6.6787">
        <ele>473</ele>
        <time>2023-09-03T07:12:04Z</time>
      </trkpt>
      <trkpt lat="48.11359" lon="6.67872">
        <ele>473</ele>
        <time>2023-09-03T07:12:05Z</time>
      </trkpt>
      <trkpt lat="48.11352" lon="6.67874">
        <ele>472.8</ele>
        <time>2023-09-03T07:12:06Z</time>
      </trkpt>
      <trkpt lat="48.11344" lon="6.67878">
        <ele>472.8</ele>
        <time>2023-09-03T07:12:07Z</time>
      </trkpt>
      <trkpt lat="48.11338" lon="6.67884">
        <ele>472.6</ele>
        <time>2023-09-03T07:12:08Z</time>
      </trkpt>
      <trkpt lat="48.11334" lon="6.6789">
        <ele>472.8</ele>
        <time>2023-09-03T07:12:09Z</time>
      </trkpt>
      <trkpt lat="48.11329" lon="6.67895">
        <ele>473</ele>
        <time>2023-09-03T07:12:10Z</time>
      </trkpt>
      <trkpt lat="48.11324" lon="6.67901">
        <ele>473</ele>
        <time>2023-09-03T07:12:11Z</time>
      </trkpt>
      <trkpt lat="48.11319" lon="6.67906">
        <ele>473</ele>
        <time>2023-09-03T07:12:12Z</time>
      </trkpt>
      <trkpt lat="48.11315" lon="6.67911">
        <ele>473</ele>
        <time>2023-09-03T07:12:13Z</time>
      </trkpt>
      <trkpt lat="48.11311" lon="6.67916">
        <ele>473</ele>
        <time>2023-09-03T07:12:14Z</time>
      </trkpt>
      <trkpt lat="48.11307" lon="6.67921">
        <ele>473</ele>
        <time>2023-09-03T07:12:15Z</time>
      </trkpt>
      <trkpt lat="48.11303" lon="6.67926">
        <ele>473</ele>
        <time>2023-09-03T07:12:16Z</time>
      </trkpt>
      <trkpt lat="48.11299" lon="6.67932">
        <ele>473</ele>
        <time>2023-09-03T07:12:17Z</time>
      </trkpt>
      <trkpt lat="48.11295" lon="6.67937">
        <ele>473</ele>
        <time>2023-09-03T07:12:18Z</time>
      </trkpt>
      <trkpt lat="48.11291" lon="6.67942">
        <ele>473</ele>
        <time>2023-09-03T07:12:19Z</time>
      </trkpt>
      <trkpt lat="48.11287" lon="6.67946">
        <ele>473</ele>
        <time>2023-09-03T07:12:20Z</time>
      </trkpt>
      <trkpt lat="48.11283" lon="6.6795">
        <ele>473</ele>
        <time>2023-09-03T07:12:21Z</time>
      </trkpt>
      <trkpt lat="48.1128" lon="6.67952">
        <ele>473</ele>
        <time>2023-09-03T07:12:22Z</time>
      </trkpt>
      <trkpt lat="48.11277" lon="6.67954">
        <ele>473</ele>
        <time>2023-09-03T07:12:23Z</time>
      </trkpt>
      <trkpt lat="48.11275" lon="6.67957">
        <ele>473.2</ele>
        <time>2023-09-03T07:12:24Z</time>
      </trkpt>
      <trkpt lat="48.11273" lon="6.67958">
        <ele>473.2</ele>
        <time>2023-09-03T07:12:25Z</time>
      </trkpt>
      <trkpt lat="48.11271" lon="6.67959">
        <ele>473.2</ele>
        <time>2023-09-03T07:12:26Z</time>
      </trkpt>
      <trkpt lat="48.11267" lon="6.67961">
        <ele>473.4</ele>
        <time>2023-09-03T07:12:27Z</time>
      </trkpt>
      <trkpt lat="48.11263" lon="6.67962">
        <ele>473.4</ele>
        <time>2023-09-03T07:12:28Z</time>
      </trkpt>
      <trkpt lat="48.1126" lon="6.67964">
        <ele>473</ele>
        <time>2023-09-03T07:12:29Z</time>
      </trkpt>
      <trkpt lat="48.11258" lon="6.67966">
        <ele>473</ele>
        <time>2023-09-03T07:12:30Z</time>
      </trkpt>
      <trkpt lat="48.11256" lon="6.67968">
        <ele>473.2</ele>
        <time>2023-09-03T07:12:31Z</time>
      </trkpt>
      <trkpt lat="48.11254" lon="6.6797">
        <ele>473.2</ele>
        <time>2023-09-03T07:12:32Z</time>
      </trkpt>
      <trkpt lat="48.11252" lon="6.67972">
        <ele>473.4</ele>
        <time>2023-09-03T07:12:33Z</time>
      </trkpt>
      <trkpt lat="48.1125" lon="6.67973">
        <ele>474</ele>
        <time>2023-09-03T07:12:34Z</time>
      </trkpt>
      <trkpt lat="48.11248" lon="6.67973">
        <ele>474.2</ele>
        <time>2023-09-03T07:12:35Z</time>
      </trkpt>
      <trkpt lat="48.11247" lon="6.67974">
        <ele>474.6</ele>
        <time>2023-09-03T07:12:36Z</time>
      </trkpt>
      <trkpt lat="48.11246" lon="6.67976">
        <ele>474.6</ele>
        <time>2023-09-03T07:12:37Z</time>
      </trkpt>
      <trkpt lat="48.11242" lon="6.67979">
        <ele>475.2</ele>
        <time>2023-09-03T07:12:38Z</time>
      </trkpt>
      <trkpt lat="48.11237" lon="6.67983">
        <ele>475.6</ele>
        <time>2023-09-03T07:12:39Z</time>
      </trkpt>
      <trkpt lat="48.11235" lon="6.67986">
        <ele>476.2</ele>
        <time>2023-09-03T07:12:40Z</time>
      </trkpt>
      <trkpt lat="48.11233" lon="6.67987">
        <ele>476.4</ele>
        <time>2023-09-03T07:12:41Z</time>
      </trkpt>
      <trkpt lat="48.11231" lon="6.67988">
        <ele>476.6</ele>
        <time>2023-09-03T07:12:42Z</time>
      </trkpt>
      <trkpt lat="48.11229" lon="6.67991">
        <ele>476.6</ele>
        <time>2023-09-03T07:12:43Z</time>
      </trkpt>
      <trkpt lat="48.11227" lon="6.67995">
        <ele>477</ele>
        <time>2023-09-03T07:12:44Z</time>
      </trkpt>
      <trkpt lat="48.11224" lon="6.67999">
        <ele>477.2</ele>
        <time>2023-09-03T07:12:45Z</time>
      </trkpt>
      <trkpt lat="48.11223" lon="6.68">
        <ele>477.2</ele>
        <time>2023-09-03T07:12:46Z</time>
      </trkpt>
      <trkpt lat="48.11222" lon="6.68001">
        <ele>477.4</ele>
        <time>2023-09-03T07:12:47Z</time>
      </trkpt>
      <trkpt lat="48.11221" lon="6.68002">
        <ele>477.6</ele>
        <time>2023-09-03T07:12:48Z</time>
      </trkpt>
      <trkpt lat="48.11219" lon="6.68003">
        <ele>477.6</ele>
        <time>2023-09-03T07:12:49Z</time>
      </trkpt>
      <trkpt lat="48.11214" lon="6.68003">
        <ele>477.6</ele>
        <time>2023-09-03T07:12:50Z</time>
      </trkpt>
      <trkpt lat="48.11211" lon="6.68003">
        <ele>477.8</ele>
        <time>2023-09-03T07:12:51Z</time>
      </trkpt>
      <trkpt lat="48.11208" lon="6.68004">
        <ele>477.8</ele>
        <time>2023-09-03T07:12:52Z</time>
      </trkpt>
      <trkpt lat="48.11207" lon="6.68006">
        <ele>478.6</ele>
        <time>2023-09-03T07:12:53Z</time>
      </trkpt>
      <trkpt lat="48.11205" lon="6.68008">
        <ele>479.2</ele>
        <time>2023-09-03T07:12:54Z</time>
      </trkpt>
      <trkpt lat="48.11203" lon="6.6801">
        <ele>479.8</ele>
        <time>2023-09-03T07:12:55Z</time>
      </trkpt>
      <trkpt lat="48.11202" lon="6.68011">
        <ele>480</ele>
        <time>2023-09-03T07:12:56Z</time>
      </trkpt>
      <trkpt lat="48.112" lon="6.68012">
        <ele>480.2</ele>
        <time>2023-09-03T07:12:57Z</time>
      </trkpt>
      <trkpt lat="48.11197" lon="6.68015">
        <ele>480.2</ele>
        <time>2023-09-03T07:12:58Z</time>
      </trkpt>
      <trkpt lat="48.11196" lon="6.68019">
        <ele>480.4</ele>
        <time>2023-09-03T07:12:59Z</time>
      </trkpt>
      <trkpt lat="48.11195" lon="6.68023">
        <ele>480.6</ele>
        <time>2023-09-03T07:13:00Z</time>
      </trkpt>
      <trkpt lat="48.11191" lon="6.68026">
        <ele>480.6</ele>
        <time>2023-09-03T07:13:01Z</time>
      </trkpt>
      <trkpt lat="48.11188" lon="6.6803">
        <ele>480.8</ele>
        <time>2023-09-03T07:13:02Z</time>
      </trkpt>
      <trkpt lat="48.11186" lon="6.68031">
        <ele>480.8</ele>
        <time>2023-09-03T07:13:03Z</time>
      </trkpt>
      <trkpt lat="48.11179" lon="6.68033">
        <ele>480.8</ele>
        <time>2023-09-03T07:13:04Z</time>
      </trkpt>
      <trkpt lat="48.11176" lon="6.68035">
        <ele>480.8</ele>
        <time>2023-09-03T07:13:05Z</time>
      </trkpt>
      <trkpt lat="48.11176" lon="6.68043">
        <ele>481.2</ele>
        <time>2023-09-03T07:13:06Z</time>
      </trkpt>
      <trkpt lat="48.11175" lon="6.68046">
        <ele>481.4</ele>
        <time>2023-09-03T07:13:07Z</time>
      </trkpt>
      <trkpt lat="48.11175" lon="6.68049">
        <ele>481.4</ele>
        <time>2023-09-03T07:13:08Z</time>
      </trkpt>
      <trkpt lat="48.11174" lon="6.6805">
        <ele>481.4</ele>
        <time>2023-09-03T07:13:09Z</time>
      </trkpt>
      <trkpt lat="48.11174" lon="6.68051">
        <ele>481.6</ele>
        <time>2023-09-03T07:13:10Z</time>
      </trkpt>
      <trkpt lat="48.1117" lon="6.68054">
        <ele>481.6</ele>
        <time>2023-09-03T07:13:11Z</time>
      </trkpt>
      <trkpt lat="48.11167" lon="6.68056">
        <ele>481.8</ele>
        <time>2023-09-03T07:13:12Z</time>
      </trkpt>
      <trkpt lat="48.11165" lon="6.68058">
        <ele>481.8</ele>
        <time>2023-09-03T07:13:13Z</time>
      </trkpt>
      <trkpt lat="48.11163" lon="6.68061">
        <ele>481.8</ele>
        <time>2023-09-03T07:13:14Z</time>
      </trkpt>
      <trkpt lat="48.11162" lon="6.68064">
        <ele>482</ele>
        <time>2023-09-03T07:13:15Z</time>
      </trkpt>
      <trkpt lat="48.1116" lon="6.68066">
        <ele>482</ele>
        <time>2023-09-03T07:13:16Z</time>
      </trkpt>
      <trkpt lat="48.11159" lon="6.68067">
        <ele>482.2</ele>
        <time>2023-09-03T07:13:17Z</time>
      </trkpt>
      <trkpt lat="48.11157" lon="6.6807">
        <ele>482.4</ele>
        <time>2023-09-03T07:13:18Z</time>
      </trkpt>
      <trkpt lat="48.11156" lon="6.68071">
        <ele>483</ele>
        <time>2023-09-03T07:13:19Z</time>
      </trkpt>
      <trkpt lat="48.11157" lon="6.68074">
        <ele>483.2</ele>
        <time>2023-09-03T07:13:20Z</time>
      </trkpt>
      <trkpt lat="48.11156" lon="6.68073">
        <ele>483.6</ele>
        <time>2023-09-03T07:13:21Z</time>
      </trkpt>
      <trkpt lat="48.11152" lon="6.6807">
        <ele>483.6</ele>
        <time>2023-09-03T07:13:22Z</time>
      </trkpt>
      <trkpt lat="48.11149" lon="6.68068">
        <ele>484</ele>
        <time>2023-09-03T07:13:23Z</time>
      </trkpt>
      <trkpt lat="48.11147" lon="6.68068">
        <ele>484</ele>
        <time>2023-09-03T07:13:24Z</time>
      </trkpt>
      <trkpt lat="48.11145" lon="6.68068">
        <ele>484.4</ele>
        <time>2023-09-03T07:13:25Z</time>
      </trkpt>
      <trkpt lat="48.11144" lon="6.68068">
        <ele>484.8</ele>
        <time>2023-09-03T07:13:26Z</time>
      </trkpt>
      <trkpt lat="48.11143" lon="6.68068">
        <ele>485.2</ele>
        <time>2023-09-03T07:13:27Z</time>
      </trkpt>
      <trkpt lat="48.11143" lon="6.68068">
        <ele>485.4</ele>
        <time>2023-09-03T07:13:28Z</time>
      </trkpt>
      <trkpt lat="48.11141" lon="6.68068">
        <ele>485.6</ele>
        <time>2023-09-03T07:13:29Z</time>
      </trkpt>
      <trkpt lat="48.1114" lon="6.68068">
        <ele>486</ele>
        <time>2023-09-03T07:13:30Z</time>
      </trkpt>
      <trkpt lat="48.11138" lon="6.68068">
        <ele>486.2</ele>
        <time>2023-09-03T07:13:31Z</time>
      </trkpt>
      <trkpt lat="48.11137" lon="6.68067">
        <ele>486.6</ele>
        <time>2023-09-03T07:13:32Z</time>
      </trkpt>
      <trkpt lat="48.11136" lon="6.68067">
        <ele>486.8</ele>
        <time>2023-09-03T07:13:33Z</time>
      </trkpt>
      <trkpt lat="48.11134" lon="6.68067">
        <ele>487</ele>
        <time>2023-09-03T07:13:34Z</time>
      </trkpt>
      <trkpt lat="48.11133" lon="6.68067">
        <ele>487.2</ele>
        <time>2023-09-03T07:13:35Z</time>
      </trkpt>
      <trkpt lat="48.11131" lon="6.68068">
        <ele>487.8</ele>
        <time>2023-09-03T07:13:36Z</time>
      </trkpt>
      <trkpt lat="48.1113" lon="6.68068">
        <ele>488.2</ele>
        <time>2023-09-03T07:13:37Z</time>
      </trkpt>
      <trkpt lat="48.1113" lon="6.68068">
        <ele>488.6</ele>
        <time>2023-09-03T07:13:38Z</time>
      </trkpt>
      <trkpt lat="48.1113" lon="6.68068">
        <ele>488.6</ele>
        <time>2023-09-03T07:13:39Z</time>
      </trkpt>
      <trkpt lat="48.1113" lon="6.68068">
        <ele>488.8</ele>
        <time>2023-09-03T07:13:40Z</time>
      </trkpt>
      <trkpt lat="48.11129" lon="6.68068">
        <ele>489</ele>
        <time>2023-09-03T07:13:41Z</time>
      </trkpt>
      <trkpt lat="48.11128" lon="6.68068">
        <ele>489.4</ele>
        <time>2023-09-03T07:13:42Z</time>
      </trkpt>
      <trkpt lat="48.11128" lon="6.68068">
        <ele>489.8</ele>
        <time>2023-09-03T07:13:43Z</time>
      </trkpt>
      <trkpt lat="48.11126" lon="6.68066">
        <ele>490</ele>
        <time>2023-09-03T07:13:44Z</time>
      </trkpt>
      <trkpt lat="48.11124" lon="6.68065">
        <ele>490.2</ele>
        <time>2023-09-03T07:13:45Z</time>
      </trkpt>
      <trkpt lat="48.11123" lon="6.68064">
        <ele>490.4</ele>
        <time>2023-09-03T07:13:46Z</time>
      </trkpt>
      <trkpt lat="48.11123" lon="6.68064">
        <ele>490.6</ele>
        <time>2023-09-03T07:13:47Z</time>
      </trkpt>
      <trkpt lat="48.11123" lon="6.68064">
        <ele>490.8</ele>
        <time>2023-09-03T07:13:48Z</time>
      </trkpt>
      <trkpt lat="48.11123" lon="6.68064">
        <ele>491</ele>
        <time>2023-09-03T07:13:49Z</time>
      </trkpt>
      <trkpt lat="48.11123" lon="6.68064">
        <ele>491.4</ele>
        <time>2023-09-03T07:13:50Z</time>
      </trkpt>
      <trkpt lat="48.11123" lon="6.68064">
        <ele>492.2</ele>
        <time>2023-09-03T07:13:51Z</time>
      </trkpt>
      <trkpt lat="48.11123" lon="6.68064">
        <ele>492.6</ele>
        <time>2023-09-03T07:13:52Z</time>
      </trkpt>
      <trkpt lat="48.11121" lon="6.68063">
        <ele>492.8</ele>
        <time>2023-09-03T07:13:53Z</time>
      </trkpt>
      <trkpt lat="48.11121" lon="6.68063">
        <ele>493</ele>
        <time>2023-09-03T07:13:54Z</time>
      </trkpt>
      <trkpt lat="48.11117" lon="6.68063">
        <ele>493.2</ele>
        <time>2023-09-03T07:13:55Z</time>
      </trkpt>
      <trkpt lat="48.11113" lon="6.68062">
        <ele>493.4</ele>
        <time>2023-09-03T07:13:56Z</time>
      </trkpt>
      <trkpt lat="48.1111" lon="6.68062">
        <ele>493.6</ele>
        <time>2023-09-03T07:13:57Z</time>
      </trkpt>
      <trkpt lat="48.11109" lon="6.68062">
        <ele>493.8</ele>
        <time>2023-09-03T07:13:58Z</time>
      </trkpt>
      <trkpt lat="48.11108" lon="6.68062">
        <ele>493.8</ele>
        <time>2023-09-03T07:13:59Z</time>
      </trkpt>
      <trkpt lat="48.11105" lon="6.68061">
        <ele>494.2</ele>
        <time>2023-09-03T07:14:00Z</time>
      </trkpt>
      <trkpt lat="48.11103" lon="6.6806">
        <ele>494.4</ele>
        <time>2023-09-03T07:14:01Z</time>
      </trkpt>
      <trkpt lat="48.11101" lon="6.68059">
        <ele>494.6</ele>
        <time>2023-09-03T07:14:02Z</time>
      </trkpt>
      <trkpt lat="48.11099" lon="6.68059">
        <ele>494.8</ele>
        <time>2023-09-03T07:14:03Z</time>
      </trkpt>
      <trkpt lat="48.11096" lon="6.68062">
        <ele>495</ele>
        <time>2023-09-03T07:14:04Z</time>
      </trkpt>
      <trkpt lat="48.11094" lon="6.68064">
        <ele>495.2</ele>
        <time>2023-09-03T07:14:05Z</time>
      </trkpt>
      <trkpt lat="48.11091" lon="6.68065">
        <ele>495.4</ele>
        <time>2023-09-03T07:14:06Z</time>
      </trkpt>
      <trkpt lat="48.11088" lon="6.68065">
        <ele>495.4</ele>
        <time>2023-09-03T07:14:07Z</time>
      </trkpt>
      <trkpt lat="48.11082" lon="6.6807">
        <ele>495.4</ele>
        <time>2023-09-03T07:14:08Z</time>
      </trkpt>
      <trkpt lat="48.11079" lon="6.68071">
        <ele>495.6</ele>
        <time>2023-09-03T07:14:09Z</time>
      </trkpt>
      <trkpt lat="48.11076" lon="6.68072">
        <ele>495.8</ele>
        <time>2023-09-03T07:14:10Z</time>
      </trkpt>
      <trkpt lat="48.11073" lon="6.68072">
        <ele>496</ele>
        <time>2023-09-03T07:14:11Z</time>
      </trkpt>
      <trkpt lat="48.11072" lon="6.68072">
        <ele>496</ele>
        <time>2023-09-03T07:14:12Z</time>
      </trkpt>
      <trkpt lat="48.11071" lon="6.68072">
        <ele>496.2</ele>
        <time>2023-09-03T07:14:13Z</time>
      </trkpt>
      <trkpt lat="48.11071" lon="6.68072">
        <ele>496.2</ele>
        <time>2023-09-03T07:14:14Z</time>
      </trkpt>
      <trkpt lat="48.1107" lon="6.68073">
        <ele>496.4</ele>
        <time>2023-09-03T07:14:15Z</time>
      </trkpt>
      <trkpt lat="48.11069" lon="6.68073">
        <ele>496.4</ele>
        <time>2023-09-03T07:14:16Z</time>
      </trkpt>
      <trkpt lat="48.11068" lon="6.68074">
        <ele>496.6</ele>
        <time>2023-09-03T07:14:17Z</time>
      </trkpt>
      <trkpt lat="48.11069" lon="6.68075">
        <ele>496.6</ele>
        <time>2023-09-03T07:14:18Z</time>
      </trkpt>
      <trkpt lat="48.11067" lon="6.68078">
        <ele>496.8</ele>
        <time>2023-09-03T07:14:19Z</time>
      </trkpt>
      <trkpt lat="48.11067" lon="6.68078">
        <ele>497</ele>
        <time>2023-09-03T07:14:20Z</time>
      </trkpt>
      <trkpt lat="48.11067" lon="6.68078">
        <ele>497.2</ele>
        <time>2023-09-03T07:14:21Z</time>
      </trkpt>
      <trkpt lat="48.11065" lon="6.68082">
        <ele>497.4</ele>
        <time>2023-09-03T07:14:22Z</time>
      </trkpt>
      <trkpt lat="48.11065" lon="6.68082">
        <ele>498</ele>
        <time>2023-09-03T07:14:23Z</time>
      </trkpt>
      <trkpt lat="48.11064" lon="6.68084">
        <ele>498.2</ele>
        <time>2023-09-03T07:14:24Z</time>
      </trkpt>
      <trkpt lat="48.11063" lon="6.68084">
        <ele>498.4</ele>
        <time>2023-09-03T07:14:25Z</time>
      </trkpt>
      <trkpt lat="48.1106" lon="6.68083">
        <ele>498.6</ele>
        <time>2023-09-03T07:14:26Z</time>
      </trkpt>
      <trkpt lat="48.11057" lon="6.68083">
        <ele>498.8</ele>
        <time>2023-09-03T07:14:27Z</time>
      </trkpt>
      <trkpt lat="48.11057" lon="6.68083">
        <ele>499</ele>
        <time>2023-09-03T07:14:28Z</time>
      </trkpt>
      <trkpt lat="48.11057" lon="6.68083">
        <ele>499.4</ele>
        <time>2023-09-03T07:14:54Z</time>
      </trkpt>
      <trkpt lat="48.11057" lon="6.68083">
        <ele>499.4</ele>
        <time>2023-09-03T07:14:55Z</time>
      </trkpt>
      <trkpt lat="48.11056" lon="6.68083">
        <ele>499.4</ele>
        <time>2023-09-03T07:14:56Z</time>
      </trkpt>
      <trkpt lat="48.11056" lon="6.68083">
        <ele>499.4</ele>
        <time>2023-09-03T07:14:57Z</time>
      </trkpt>
      <trkpt lat="48.11056" lon="6.68083">
        <ele>499.6</ele>
        <time>2023-09-03T07:14:58Z</time>
      </trkpt>
      <trkpt lat="48.11055" lon="6.68083">
        <ele>499.6</ele>
        <time>2023-09-03T07:14:59Z</time>
      </trkpt>
      <trkpt lat="48.11055" lon="6.68083">
        <ele>499.6</ele>
        <time>2023-09-03T07:15:00Z</time>
      </trkpt>
      <trkpt lat="48.11055" lon="6.68083">
        <ele>499.8</ele>
        <time>2023-09-03T07:15:01Z</time>
      </trkpt>
      <trkpt lat="48.11055" lon="6.68083">
        <ele>499.8</ele>
        <time>2023-09-03T07:15:02Z</time>
      </trkpt>
      <trkpt lat="48.11055" lon="6.68083">
        <ele>499.8</ele>
        <time>2023-09-03T07:15:03Z</time>
      </trkpt>
      <trkpt lat="48.11054" lon="6.68082">
        <ele>500</ele>
        <time>2023-09-03T07:15:04Z</time>
      </trkpt>
      <trkpt lat="48.11054" lon="6.68082">
        <ele>500</ele>
        <time>2023-09-03T07:15:05Z</time>
      </trkpt>
      <trkpt lat="48.11048" lon="6.68081">
        <ele>500</ele>
        <time>2023-09-03T07:26:35Z</time>
      </trkpt>
      <trkpt lat="48.11048" lon="6.68081">
        <ele>500</ele>
        <time>2023-09-03T07:26:36Z</time>
      </trkpt>
      <trkpt lat="48.11048" lon="6.68081">
        <ele>500</ele>
        <time>2023-09-03T07:26:37Z</time>
      </trkpt>
      <trkpt lat="48.11048" lon="6.68081">
        <ele>500</ele>
        <time>2023-09-03T07:26:38Z</time>
      </trkpt>
      <trkpt lat="48.11048" lon="6.68081">
        <ele>500</ele>
        <time>2023-09-03T07:26:39Z</time>
      </trkpt>
      <trkpt lat="48.11047" lon="6.68081">
        <ele>500</ele>
        <time>2023-09-03T07:26:40Z</time>
      </trkpt>
      <trkpt lat="48.11046" lon="6.68082">
        <ele>500</ele>
        <time>2023-09-03T07:26:41Z</time>
      </trkpt>
      <trkpt lat="48.11044" lon="6.68083">
        <ele>500</ele>
        <time>2023-09-03T07:26:42Z</time>
      </trkpt>
      <trkpt lat="48.11042" lon="6.68084">
        <ele>500.2</ele>
        <time>2023-09-03T07:26:43Z</time>
      </trkpt>
      <trkpt lat="48.1104" lon="6.68085">
        <ele>500.2</ele>
        <time>2023-09-03T07:26:44Z</time>
      </trkpt>
      <trkpt lat="48.11037" lon="6.68085">
        <ele>500.2</ele>
        <time>2023-09-03T07:26:45Z</time>
      </trkpt>
      <trkpt lat="48.11034" lon="6.68085">
        <ele>500.2</ele>
        <time>2023-09-03T07:26:46Z</time>
      </trkpt>
      <trkpt lat="48.11031" lon="6.68085">
        <ele>500.2</ele>
        <time>2023-09-03T07:26:47Z</time>
      </trkpt>
      <trkpt lat="48.11026" lon="6.68086">
        <ele>500</ele>
        <time>2023-09-03T07:26:48Z</time>
      </trkpt>
      <trkpt lat="48.1102" lon="6.68089">
        <ele>500</ele>
        <time>2023-09-03T07:26:49Z</time>
      </trkpt>
      <trkpt lat="48.11014" lon="6.68094">
        <ele>499.8</ele>
        <time>2023-09-03T07:26:50Z</time>
      </trkpt>
      <trkpt lat="48.11007" lon="6.68102">
        <ele>499.8</ele>
        <time>2023-09-03T07:26:51Z</time>
      </trkpt>
      <trkpt lat="48.10999" lon="6.6811">
        <ele>499.4</ele>
        <time>2023-09-03T07:26:52Z</time>
      </trkpt>
      <trkpt lat="48.10993" lon="6.68116">
        <ele>499.2</ele>
        <time>2023-09-03T07:26:53Z</time>
      </trkpt>
      <trkpt lat="48.10987" lon="6.6812">
        <ele>498.8</ele>
        <time>2023-09-03T07:26:54Z</time>
      </trkpt>
      <trkpt lat="48.10983" lon="6.68123">
        <ele>498.6</ele>
        <time>2023-09-03T07:26:55Z</time>
      </trkpt>
      <trkpt lat="48.10979" lon="6.68126">
        <ele>498.6</ele>
        <time>2023-09-03T07:26:56Z</time>
      </trkpt>
      <trkpt lat="48.10976" lon="6.68129">
        <ele>498.4</ele>
        <time>2023-09-03T07:26:57Z</time>
      </trkpt>
      <trkpt lat="48.10974" lon="6.68134">
        <ele>498.4</ele>
        <time>2023-09-03T07:26:58Z</time>
      </trkpt>
      <trkpt lat="48.10971" lon="6.68141">
        <ele>498.2</ele>
        <time>2023-09-03T07:26:59Z</time>
      </trkpt>
      <trkpt lat="48.10969" lon="6.68147">
        <ele>498.2</ele>
        <time>2023-09-03T07:27:00Z</time>
      </trkpt>
      <trkpt lat="48.10968" lon="6.68153">
        <ele>498.4</ele>
        <time>2023-09-03T07:27:01Z</time>
      </trkpt>
      <trkpt lat="48.10966" lon="6.68158">
        <ele>498.6</ele>
        <time>2023-09-03T07:27:02Z</time>
      </trkpt>
      <trkpt lat="48.10963" lon="6.68162">
        <ele>498.8</ele>
        <time>2023-09-03T07:27:03Z</time>
      </trkpt>
      <trkpt lat="48.10962" lon="6.68167">
        <ele>498.8</ele>
        <time>2023-09-03T07:27:04Z</time>
      </trkpt>
      <trkpt lat="48.10959" lon="6.6817">
        <ele>499.2</ele>
        <time>2023-09-03T07:27:05Z</time>
      </trkpt>
      <trkpt lat="48.10957" lon="6.68174">
        <ele>499.4</ele>
        <time>2023-09-03T07:27:06Z</time>
      </trkpt>
      <trkpt lat="48.10955" lon="6.68177">
        <ele>500.2</ele>
        <time>2023-09-03T07:27:07Z</time>
      </trkpt>
      <trkpt lat="48.10953" lon="6.68181">
        <ele>500.4</ele>
        <time>2023-09-03T07:27:08Z</time>
      </trkpt>
      <trkpt lat="48.10952" lon="6.68185">
        <ele>500.6</ele>
        <time>2023-09-03T07:27:09Z</time>
      </trkpt>
      <trkpt lat="48.1095" lon="6.68189">
        <ele>500.6</ele>
        <time>2023-09-03T07:27:10Z</time>
      </trkpt>
      <trkpt lat="48.10949" lon="6.68192">
        <ele>501</ele>
        <time>2023-09-03T07:27:11Z</time>
      </trkpt>
      <trkpt lat="48.10949" lon="6.68196">
        <ele>501.4</ele>
        <time>2023-09-03T07:27:12Z</time>
      </trkpt>
      <trkpt lat="48.10947" lon="6.68199">
        <ele>501.4</ele>
        <time>2023-09-03T07:27:13Z</time>
      </trkpt>
      <trkpt lat="48.10947" lon="6.68202">
        <ele>501.6</ele>
        <time>2023-09-03T07:27:14Z</time>
      </trkpt>
      <trkpt lat="48.10945" lon="6.68205">
        <ele>501.8</ele>
        <time>2023-09-03T07:27:15Z</time>
      </trkpt>
      <trkpt lat="48.10943" lon="6.68207">
        <ele>501.8</ele>
        <time>2023-09-03T07:27:16Z</time>
      </trkpt>
      <trkpt lat="48.10942" lon="6.68211">
        <ele>502</ele>
        <time>2023-09-03T07:27:17Z</time>
      </trkpt>
      <trkpt lat="48.10941" lon="6.68214">
        <ele>502.2</ele>
        <time>2023-09-03T07:27:18Z</time>
      </trkpt>
      <trkpt lat="48.1094" lon="6.68216">
        <ele>502.4</ele>
        <time>2023-09-03T07:27:19Z</time>
      </trkpt>
      <trkpt lat="48.1094" lon="6.68219">
        <ele>502.8</ele>
        <time>2023-09-03T07:27:20Z</time>
      </trkpt>
      <trkpt lat="48.10939" lon="6.68222">
        <ele>503</ele>
        <time>2023-09-03T07:27:21Z</time>
      </trkpt>
      <trkpt lat="48.10938" lon="6.68225">
        <ele>503.6</ele>
        <time>2023-09-03T07:27:22Z</time>
      </trkpt>
      <trkpt lat="48.10937" lon="6.68228">
        <ele>503.8</ele>
        <time>2023-09-03T07:27:23Z</time>
      </trkpt>
      <trkpt lat="48.10937" lon="6.6823">
        <ele>504.2</ele>
        <time>2023-09-03T07:27:24Z</time>
      </trkpt>
      <trkpt lat="48.10936" lon="6.68233">
        <ele>504.4</ele>
        <time>2023-09-03T07:27:25Z</time>
      </trkpt>
      <trkpt lat="48.10935" lon="6.68236">
        <ele>505</ele>
        <time>2023-09-03T07:27:26Z</time>
      </trkpt>
      <trkpt lat="48.10935" lon="6.68239">
        <ele>505.4</ele>
        <time>2023-09-03T07:27:27Z</time>
      </trkpt>
      <trkpt lat="48.10934" lon="6.68242">
        <ele>505.6</ele>
        <time>2023-09-03T07:27:28Z</time>
      </trkpt>
      <trkpt lat="48.10933" lon="6.68244">
        <ele>505.8</ele>
        <time>2023-09-03T07:27:29Z</time>
      </trkpt>
      <trkpt lat="48.10933" lon="6.68247">
        <ele>506</ele>
        <time>2023-09-03T07:27:30Z</time>
      </trkpt>
      <trkpt lat="48.10933" lon="6.6825">
        <ele>506.4</ele>
        <time>2023-09-03T07:27:31Z</time>
      </trkpt>
      <trkpt lat="48.10933" lon="6.68253">
        <ele>506.8</ele>
        <time>2023-09-03T07:27:32Z</time>
      </trkpt>
      <trkpt lat="48.10932" lon="6.68256">
        <ele>507.2</ele>
        <time>2023-09-03T07:27:33Z</time>
      </trkpt>
      <trkpt lat="48.10932" lon="6.6826">
        <ele>507.2</ele>
        <time>2023-09-03T07:27:34Z</time>
      </trkpt>
      <trkpt lat="48.10932" lon="6.68263">
        <ele>507.6</ele>
        <time>2023-09-03T07:27:35Z</time>
      </trkpt>
      <trkpt lat="48.10932" lon="6.68267">
        <ele>507.6</ele>
        <time>2023-09-03T07:27:36Z</time>
      </trkpt>
      <trkpt lat="48.10933" lon="6.68271">
        <ele>507.8</ele>
        <time>2023-09-03T07:27:37Z</time>
      </trkpt>
      <trkpt lat="48.10933" lon="6.68275">
        <ele>508</ele>
        <time>2023-09-03T07:27:38Z</time>
      </trkpt>
      <trkpt lat="48.10934" lon="6.68279">
        <ele>508.2</ele>
        <time>2023-09-03T07:27:39Z</time>
      </trkpt>
      <trkpt lat="48.10934" lon="6.68284">
        <ele>508.2</ele>
        <time>2023-09-03T07:27:40Z</time>
      </trkpt>
      <trkpt lat="48.10935" lon="6.68288">
        <ele>508.4</ele>
        <time>2023-09-03T07:27:41Z</time>
      </trkpt>
      <trkpt lat="48.10936" lon="6.68292">
        <ele>508.4</ele>
        <time>2023-09-03T07:27:42Z</time>
      </trkpt>
      <trkpt lat="48.10936" lon="6.68298">
        <ele>508.6</ele>
        <time>2023-09-03T07:27:43Z</time>
      </trkpt>
      <trkpt lat="48.10935" lon="6.68304">
        <ele>508.6</ele>
        <time>2023-09-03T07:27:44Z</time>
      </trkpt>
      <trkpt lat="48.10931" lon="6.68307">
        <ele>508.6</ele>
        <time>2023-09-03T07:27:45Z</time>
      </trkpt>
      <trkpt lat="48.10926" lon="6.68309">
        <ele>508.6</ele>
        <time>2023-09-03T07:27:46Z</time>
      </trkpt>
      <trkpt lat="48.10922" lon="6.68311">
        <ele>508.6</ele>
        <time>2023-09-03T07:27:47Z</time>
      </trkpt>
      <trkpt lat="48.10917" lon="6.68312">
        <ele>508.4</ele>
        <time>2023-09-03T07:27:48Z</time>
      </trkpt>
      <trkpt lat="48.10913" lon="6.68313">
        <ele>508.4</ele>
        <time>2023-09-03T07:27:49Z</time>
      </trkpt>
      <trkpt lat="48.10909" lon="6.68314">
        <ele>508.2</ele>
        <time>2023-09-03T07:27:50Z</time>
      </trkpt>
      <trkpt lat="48.10905" lon="6.68317">
        <ele>508.2</ele>
        <time>2023-09-03T07:27:51Z</time>
      </trkpt>
      <trkpt lat="48.10901" lon="6.68319">
        <ele>508.2</ele>
        <time>2023-09-03T07:27:52Z</time>
      </trkpt>
      <trkpt lat="48.10897" lon="6.68322">
        <ele>508.2</ele>
        <time>2023-09-03T07:27:53Z</time>
      </trkpt>
      <trkpt lat="48.10892" lon="6.68325">
        <ele>508.2</ele>
        <time>2023-09-03T07:27:54Z</time>
      </trkpt>
      <trkpt lat="48.10888" lon="6.68328">
        <ele>508</ele>
        <time>2023-09-03T07:27:55Z</time>
      </trkpt>
      <trkpt lat="48.10884" lon="6.68331">
        <ele>508</ele>
        <time>2023-09-03T07:27:56Z</time>
      </trkpt>
      <trkpt lat="48.10881" lon="6.68334">
        <ele>508.2</ele>
        <time>2023-09-03T07:27:57Z</time>
      </trkpt>
      <trkpt lat="48.10878" lon="6.68337">
        <ele>508.2</ele>
        <time>2023-09-03T07:27:58Z</time>
      </trkpt>
      <trkpt lat="48.10875" lon="6.6834">
        <ele>508.2</ele>
        <time>2023-09-03T07:27:59Z</time>
      </trkpt>
      <trkpt lat="48.10873" lon="6.68343">
        <ele>508.4</ele>
        <time>2023-09-03T07:28:00Z</time>
      </trkpt>
      <trkpt lat="48.10872" lon="6.68347">
        <ele>508.4</ele>
        <time>2023-09-03T07:28:01Z</time>
      </trkpt>
      <trkpt lat="48.10871" lon="6.6835">
        <ele>508.8</ele>
        <time>2023-09-03T07:28:02Z</time>
      </trkpt>
      <trkpt lat="48.1087" lon="6.68354">
        <ele>509.4</ele>
        <time>2023-09-03T07:28:03Z</time>
      </trkpt>
      <trkpt lat="48.1087" lon="6.68357">
        <ele>509.6</ele>
        <time>2023-09-03T07:28:04Z</time>
      </trkpt>
      <trkpt lat="48.10868" lon="6.6836">
        <ele>509.8</ele>
        <time>2023-09-03T07:28:05Z</time>
      </trkpt>
      <trkpt lat="48.10867" lon="6.68364">
        <ele>510</ele>
        <time>2023-09-03T07:28:06Z</time>
      </trkpt>
      <trkpt lat="48.10864" lon="6.68368">
        <ele>510.4</ele>
        <time>2023-09-03T07:28:07Z</time>
      </trkpt>
      <trkpt lat="48.10861" lon="6.68373">
        <ele>510.4</ele>
        <time>2023-09-03T07:28:08Z</time>
      </trkpt>
      <trkpt lat="48.10859" lon="6.68379">
        <ele>510.6</ele>
        <time>2023-09-03T07:28:09Z</time>
      </trkpt>
      <trkpt lat="48.10858" lon="6.68385">
        <ele>510.6</ele>
        <time>2023-09-03T07:28:10Z</time>
      </trkpt>
      <trkpt lat="48.10856" lon="6.68393">
        <ele>510.6</ele>
        <time>2023-09-03T07:28:11Z</time>
      </trkpt>
      <trkpt lat="48.10853" lon="6.68399">
        <ele>510.6</ele>
        <time>2023-09-03T07:28:12Z</time>
      </trkpt>
      <trkpt lat="48.10849" lon="6.68405">
        <ele>510.6</ele>
        <time>2023-09-03T07:28:13Z</time>
      </trkpt>
      <trkpt lat="48.10847" lon="6.68411">
        <ele>510.6</ele>
        <time>2023-09-03T07:28:14Z</time>
      </trkpt>
      <trkpt lat="48.10845" lon="6.68419">
        <ele>510.6</ele>
        <time>2023-09-03T07:28:15Z</time>
      </trkpt>
      <trkpt lat="48.10843" lon="6.68426">
        <ele>510.6</ele>
        <time>2023-09-03T07:28:16Z</time>
      </trkpt>
      <trkpt lat="48.10841" lon="6.68433">
        <ele>510.6</ele>
        <time>2023-09-03T07:28:17Z</time>
      </trkpt>
      <trkpt lat="48.10836" lon="6.68441">
        <ele>510.2</ele>
        <time>2023-09-03T07:28:18Z</time>
      </trkpt>
      <trkpt lat="48.10832" lon="6.68451">
        <ele>510.2</ele>
        <time>2023-09-03T07:28:19Z</time>
      </trkpt>
      <trkpt lat="48.10828" lon="6.68458">
        <ele>510</ele>
        <time>2023-09-03T07:28:20Z</time>
      </trkpt>
      <trkpt lat="48.10825" lon="6.68463">
        <ele>510</ele>
        <time>2023-09-03T07:28:21Z</time>
      </trkpt>
      <trkpt lat="48.10821" lon="6.68467">
        <ele>509.8</ele>
        <time>2023-09-03T07:28:22Z</time>
      </trkpt>
      <trkpt lat="48.10816" lon="6.68471">
        <ele>510</ele>
        <time>2023-09-03T07:28:23Z</time>
      </trkpt>
      <trkpt lat="48.10815" lon="6.68481">
        <ele>510</ele>
        <time>2023-09-03T07:28:24Z</time>
      </trkpt>
      <trkpt lat="48.10815" lon="6.68488">
        <ele>510</ele>
        <time>2023-09-03T07:28:25Z</time>
      </trkpt>
      <trkpt lat="48.10812" lon="6.68499">
        <ele>510</ele>
        <time>2023-09-03T07:28:26Z</time>
      </trkpt>
      <trkpt lat="48.10809" lon="6.68507">
        <ele>510</ele>
        <time>2023-09-03T07:28:27Z</time>
      </trkpt>
      <trkpt lat="48.10806" lon="6.68516">
        <ele>510</ele>
        <time>2023-09-03T07:28:28Z</time>
      </trkpt>
      <trkpt lat="48.10803" lon="6.68524">
        <ele>510</ele>
        <time>2023-09-03T07:28:29Z</time>
      </trkpt>
      <trkpt lat="48.10802" lon="6.68531">
        <ele>510.2</ele>
        <time>2023-09-03T07:28:30Z</time>
      </trkpt>
      <trkpt lat="48.10802" lon="6.68539">
        <ele>510.4</ele>
        <time>2023-09-03T07:28:31Z</time>
      </trkpt>
      <trkpt lat="48.108" lon="6.68548">
        <ele>510.6</ele>
        <time>2023-09-03T07:28:32Z</time>
      </trkpt>
      <trkpt lat="48.10797" lon="6.68552">
        <ele>510.8</ele>
        <time>2023-09-03T07:28:33Z</time>
      </trkpt>
      <trkpt lat="48.10794" lon="6.68556">
        <ele>510.8</ele>
        <time>2023-09-03T07:28:34Z</time>
      </trkpt>
      <trkpt lat="48.10793" lon="6.68563">
        <ele>511.4</ele>
        <time>2023-09-03T07:28:35Z</time>
      </trkpt>
      <trkpt lat="48.10791" lon="6.6857">
        <ele>511.6</ele>
        <time>2023-09-03T07:28:36Z</time>
      </trkpt>
      <trkpt lat="48.10788" lon="6.68576">
        <ele>511.8</ele>
        <time>2023-09-03T07:28:37Z</time>
      </trkpt>
      <trkpt lat="48.10786" lon="6.6858">
        <ele>512</ele>
        <time>2023-09-03T07:28:38Z</time>
      </trkpt>
      <trkpt lat="48.10782" lon="6.68582">
        <ele>512.2</ele>
        <time>2023-09-03T07:28:39Z</time>
      </trkpt>
      <trkpt lat="48.1078" lon="6.68584">
        <ele>512.2</ele>
        <time>2023-09-03T07:28:40Z</time>
      </trkpt>
      <trkpt lat="48.10779" lon="6.68591">
        <ele>512.2</ele>
        <time>2023-09-03T07:28:41Z</time>
      </trkpt>
      <trkpt lat="48.10778" lon="6.68598">
        <ele>512.4</ele>
        <time>2023-09-03T07:28:42Z</time>
      </trkpt>
      <trkpt lat="48.10777" lon="6.68604">
        <ele>512.4</ele>
        <time>2023-09-03T07:28:43Z</time>
      </trkpt>
      <trkpt lat="48.10775" lon="6.68611">
        <ele>512.6</ele>
        <time>2023-09-03T07:28:44Z</time>
      </trkpt>
      <trkpt lat="48.10773" lon="6.68614">
        <ele>512.8</ele>
        <time>2023-09-03T07:28:45Z</time>
      </trkpt>
      <trkpt lat="48.10769" lon="6.68618">
        <ele>513</ele>
        <time>2023-09-03T07:28:46Z</time>
      </trkpt>
      <trkpt lat="48.10765" lon="6.68621">
        <ele>513</ele>
        <time>2023-09-03T07:28:47Z</time>
      </trkpt>
      <trkpt lat="48.10763" lon="6.68627">
        <ele>513.2</ele>
        <time>2023-09-03T07:28:48Z</time>
      </trkpt>
      <trkpt lat="48.10758" lon="6.68633">
        <ele>513.2</ele>
        <time>2023-09-03T07:28:49Z</time>
      </trkpt>
      <trkpt lat="48.10755" lon="6.68636">
        <ele>513.4</ele>
        <time>2023-09-03T07:28:50Z</time>
      </trkpt>
      <trkpt lat="48.10752" lon="6.68639">
        <ele>513.4</ele>
        <time>2023-09-03T07:28:51Z</time>
      </trkpt>
      <trkpt lat="48.10749" lon="6.68643">
        <ele>513.6</ele>
        <time>2023-09-03T07:28:52Z</time>
      </trkpt>
      <trkpt lat="48.10745" lon="6.68646">
        <ele>513.6</ele>
        <time>2023-09-03T07:28:53Z</time>
      </trkpt>
      <trkpt lat="48.10742" lon="6.68649">
        <ele>513.6</ele>
        <time>2023-09-03T07:28:54Z</time>
      </trkpt>
      <trkpt lat="48.10739" lon="6.68651">
        <ele>513.6</ele>
        <time>2023-09-03T07:28:55Z</time>
      </trkpt>
      <trkpt lat="48.10736" lon="6.68655">
        <ele>513.6</ele>
        <time>2023-09-03T07:28:56Z</time>
      </trkpt>
      <trkpt lat="48.10733" lon="6.68659">
        <ele>513.6</ele>
        <time>2023-09-03T07:28:57Z</time>
      </trkpt>
      <trkpt lat="48.1073" lon="6.68662">
        <ele>513.6</ele>
        <time>2023-09-03T07:28:58Z</time>
      </trkpt>
      <trkpt lat="48.10728" lon="6.68666">
        <ele>513.6</ele>
        <time>2023-09-03T07:28:59Z</time>
      </trkpt>
      <trkpt lat="48.10727" lon="6.68669">
        <ele>513.8</ele>
        <time>2023-09-03T07:29:00Z</time>
      </trkpt>
      <trkpt lat="48.10725" lon="6.68671">
        <ele>513.8</ele>
        <time>2023-09-03T07:29:01Z</time>
      </trkpt>
      <trkpt lat="48.10723" lon="6.68673">
        <ele>513.8</ele>
        <time>2023-09-03T07:29:02Z</time>
      </trkpt>
      <trkpt lat="48.10722" lon="6.68678">
        <ele>514</ele>
        <time>2023-09-03T07:29:03Z</time>
      </trkpt>
      <trkpt lat="48.10722" lon="6.68683">
        <ele>514.2</ele>
        <time>2023-09-03T07:29:04Z</time>
      </trkpt>
      <trkpt lat="48.10722" lon="6.68687">
        <ele>514.6</ele>
        <time>2023-09-03T07:29:05Z</time>
      </trkpt>
      <trkpt lat="48.10721" lon="6.6869">
        <ele>515</ele>
        <time>2023-09-03T07:29:06Z</time>
      </trkpt>
      <trkpt lat="48.10718" lon="6.68693">
        <ele>515.2</ele>
        <time>2023-09-03T07:29:07Z</time>
      </trkpt>
      <trkpt lat="48.10717" lon="6.68696">
        <ele>515.4</ele>
        <time>2023-09-03T07:29:08Z</time>
      </trkpt>
      <trkpt lat="48.10718" lon="6.68702">
        <ele>515.6</ele>
        <time>2023-09-03T07:29:09Z</time>
      </trkpt>
      <trkpt lat="48.10718" lon="6.6871">
        <ele>515.8</ele>
        <time>2023-09-03T07:29:10Z</time>
      </trkpt>
      <trkpt lat="48.10717" lon="6.68713">
        <ele>516</ele>
        <time>2023-09-03T07:29:11Z</time>
      </trkpt>
      <trkpt lat="48.10716" lon="6.68714">
        <ele>516</ele>
        <time>2023-09-03T07:29:12Z</time>
      </trkpt>
      <trkpt lat="48.10715" lon="6.68716">
        <ele>516.2</ele>
        <time>2023-09-03T07:29:13Z</time>
      </trkpt>
      <trkpt lat="48.10715" lon="6.68718">
        <ele>516.2</ele>
        <time>2023-09-03T07:29:14Z</time>
      </trkpt>
      <trkpt lat="48.10715" lon="6.68718">
        <ele>516.4</ele>
        <time>2023-09-03T07:29:15Z</time>
      </trkpt>
      <trkpt lat="48.10715" lon="6.68718">
        <ele>516.6</ele>
        <time>2023-09-03T07:29:16Z</time>
      </trkpt>
      <trkpt lat="48.10715" lon="6.68718">
        <ele>516.6</ele>
        <time>2023-09-03T07:29:17Z</time>
      </trkpt>
      <trkpt lat="48.10712" lon="6.68724">
        <ele>516.8</ele>
        <time>2023-09-03T07:29:18Z</time>
      </trkpt>
      <trkpt lat="48.10709" lon="6.68732">
        <ele>517</ele>
        <time>2023-09-03T07:29:19Z</time>
      </trkpt>
      <trkpt lat="48.10708" lon="6.68742">
        <ele>517.2</ele>
        <time>2023-09-03T07:29:20Z</time>
      </trkpt>
      <trkpt lat="48.10708" lon="6.68751">
        <ele>517.2</ele>
        <time>2023-09-03T07:29:21Z</time>
      </trkpt>
      <trkpt lat="48.10707" lon="6.68757">
        <ele>517.2</ele>
        <time>2023-09-03T07:29:22Z</time>
      </trkpt>
      <trkpt lat="48.10706" lon="6.68763">
        <ele>517.4</ele>
        <time>2023-09-03T07:29:23Z</time>
      </trkpt>
      <trkpt lat="48.10704" lon="6.68771">
        <ele>517.4</ele>
        <time>2023-09-03T07:29:24Z</time>
      </trkpt>
      <trkpt lat="48.10703" lon="6.68778">
        <ele>517.6</ele>
        <time>2023-09-03T07:29:25Z</time>
      </trkpt>
      <trkpt lat="48.10703" lon="6.68787">
        <ele>517.6</ele>
        <time>2023-09-03T07:29:26Z</time>
      </trkpt>
      <trkpt lat="48.10701" lon="6.68795">
        <ele>517.8</ele>
        <time>2023-09-03T07:29:27Z</time>
      </trkpt>
      <trkpt lat="48.10699" lon="6.68801">
        <ele>517.8</ele>
        <time>2023-09-03T07:29:28Z</time>
      </trkpt>
      <trkpt lat="48.10697" lon="6.68804">
        <ele>518.2</ele>
        <time>2023-09-03T07:29:29Z</time>
      </trkpt>
      <trkpt lat="48.10694" lon="6.68805">
        <ele>518.4</ele>
        <time>2023-09-03T07:29:30Z</time>
      </trkpt>
      <trkpt lat="48.10691" lon="6.68805">
        <ele>518.6</ele>
        <time>2023-09-03T07:29:31Z</time>
      </trkpt>
      <trkpt lat="48.1069" lon="6.68807">
        <ele>518.6</ele>
        <time>2023-09-03T07:29:32Z</time>
      </trkpt>
      <trkpt lat="48.10689" lon="6.68807">
        <ele>518.8</ele>
        <time>2023-09-03T07:29:33Z</time>
      </trkpt>
      <trkpt lat="48.10689" lon="6.68807">
        <ele>519.2</ele>
        <time>2023-09-03T07:29:34Z</time>
      </trkpt>
      <trkpt lat="48.10689" lon="6.68807">
        <ele>519.4</ele>
        <time>2023-09-03T07:29:35Z</time>
      </trkpt>
      <trkpt lat="48.10687" lon="6.68809">
        <ele>519.6</ele>
        <time>2023-09-03T07:29:36Z</time>
      </trkpt>
      <trkpt lat="48.10683" lon="6.68814">
        <ele>519.8</ele>
        <time>2023-09-03T07:29:37Z</time>
      </trkpt>
      <trkpt lat="48.10681" lon="6.6882">
        <ele>520</ele>
        <time>2023-09-03T07:29:38Z</time>
      </trkpt>
      <trkpt lat="48.10677" lon="6.68826">
        <ele>520.2</ele>
        <time>2023-09-03T07:29:39Z</time>
      </trkpt>
      <trkpt lat="48.10675" lon="6.68827">
        <ele>520.6</ele>
        <time>2023-09-03T07:29:40Z</time>
      </trkpt>
      <trkpt lat="48.10674" lon="6.68827">
        <ele>520.8</ele>
        <time>2023-09-03T07:29:41Z</time>
      </trkpt>
      <trkpt lat="48.10671" lon="6.68827">
        <ele>521</ele>
        <time>2023-09-03T07:29:42Z</time>
      </trkpt>
      <trkpt lat="48.10669" lon="6.68826">
        <ele>521.2</ele>
        <time>2023-09-03T07:29:43Z</time>
      </trkpt>
      <trkpt lat="48.10667" lon="6.68826">
        <ele>521.6</ele>
        <time>2023-09-03T07:29:44Z</time>
      </trkpt>
      <trkpt lat="48.10663" lon="6.68828">
        <ele>521.8</ele>
        <time>2023-09-03T07:29:45Z</time>
      </trkpt>
      <trkpt lat="48.10661" lon="6.6883">
        <ele>522.2</ele>
        <time>2023-09-03T07:29:46Z</time>
      </trkpt>
      <trkpt lat="48.1066" lon="6.68831">
        <ele>522.4</ele>
        <time>2023-09-03T07:29:47Z</time>
      </trkpt>
      <trkpt lat="48.1066" lon="6.68834">
        <ele>522.4</ele>
        <time>2023-09-03T07:29:48Z</time>
      </trkpt>
      <trkpt lat="48.1066" lon="6.68836">
        <ele>522.8</ele>
        <time>2023-09-03T07:29:49Z</time>
      </trkpt>
      <trkpt lat="48.10659" lon="6.68836">
        <ele>523</ele>
        <time>2023-09-03T07:29:50Z</time>
      </trkpt>
      <trkpt lat="48.10658" lon="6.68837">
        <ele>523.2</ele>
        <time>2023-09-03T07:29:51Z</time>
      </trkpt>
      <trkpt lat="48.10656" lon="6.68837">
        <ele>523.2</ele>
        <time>2023-09-03T07:29:52Z</time>
      </trkpt>
      <trkpt lat="48.10654" lon="6.68836">
        <ele>523.6</ele>
        <time>2023-09-03T07:29:53Z</time>
      </trkpt>
      <trkpt lat="48.10652" lon="6.68836">
        <ele>523.8</ele>
        <time>2023-09-03T07:29:54Z</time>
      </trkpt>
      <trkpt lat="48.10649" lon="6.68836">
        <ele>524.2</ele>
        <time>2023-09-03T07:29:55Z</time>
      </trkpt>
      <trkpt lat="48.10646" lon="6.68837">
        <ele>524.4</ele>
        <time>2023-09-03T07:29:56Z</time>
      </trkpt>
      <trkpt lat="48.10645" lon="6.68842">
        <ele>524.6</ele>
        <time>2023-09-03T07:29:57Z</time>
      </trkpt>
      <trkpt lat="48.10645" lon="6.68847">
        <ele>524.8</ele>
        <time>2023-09-03T07:29:58Z</time>
      </trkpt>
      <trkpt lat="48.10649" lon="6.68854">
        <ele>525.4</ele>
        <time>2023-09-03T07:29:59Z</time>
      </trkpt>
      <trkpt lat="48.10649" lon="6.68854">
        <ele>525.6</ele>
        <time>2023-09-03T07:30:00Z</time>
      </trkpt>
      <trkpt lat="48.10649" lon="6.68854">
        <ele>526</ele>
        <time>2023-09-03T07:30:01Z</time>
      </trkpt>
      <trkpt lat="48.1065" lon="6.68859">
        <ele>526.4</ele>
        <time>2023-09-03T07:30:02Z</time>
      </trkpt>
      <trkpt lat="48.1065" lon="6.68866">
        <ele>526.8</ele>
        <time>2023-09-03T07:30:03Z</time>
      </trkpt>
      <trkpt lat="48.10648" lon="6.68867">
        <ele>527</ele>
        <time>2023-09-03T07:30:04Z</time>
      </trkpt>
      <trkpt lat="48.10645" lon="6.68868">
        <ele>527</ele>
        <time>2023-09-03T07:30:05Z</time>
      </trkpt>
      <trkpt lat="48.10644" lon="6.68872">
        <ele>527.4</ele>
        <time>2023-09-03T07:30:06Z</time>
      </trkpt>
      <trkpt lat="48.10643" lon="6.68874">
        <ele>527.6</ele>
        <time>2023-09-03T07:30:07Z</time>
      </trkpt>
      <trkpt lat="48.10641" lon="6.68877">
        <ele>528</ele>
        <time>2023-09-03T07:30:08Z</time>
      </trkpt>
      <trkpt lat="48.10641" lon="6.68884">
        <ele>528.2</ele>
        <time>2023-09-03T07:30:09Z</time>
      </trkpt>
      <trkpt lat="48.10642" lon="6.68889">
        <ele>528.6</ele>
        <time>2023-09-03T07:30:10Z</time>
      </trkpt>
      <trkpt lat="48.10641" lon="6.68894">
        <ele>528.6</ele>
        <time>2023-09-03T07:30:11Z</time>
      </trkpt>
      <trkpt lat="48.1064" lon="6.68896">
        <ele>529</ele>
        <time>2023-09-03T07:30:12Z</time>
      </trkpt>
      <trkpt lat="48.10639" lon="6.68898">
        <ele>529.2</ele>
        <time>2023-09-03T07:30:13Z</time>
      </trkpt>
      <trkpt lat="48.10638" lon="6.68899">
        <ele>529.4</ele>
        <time>2023-09-03T07:30:14Z</time>
      </trkpt>
      <trkpt lat="48.10637" lon="6.68901">
        <ele>529.6</ele>
        <time>2023-09-03T07:30:15Z</time>
      </trkpt>
      <trkpt lat="48.10636" lon="6.68901">
        <ele>530</ele>
        <time>2023-09-03T07:30:16Z</time>
      </trkpt>
      <trkpt lat="48.10635" lon="6.68906">
        <ele>530</ele>
        <time>2023-09-03T07:30:17Z</time>
      </trkpt>
      <trkpt lat="48.10635" lon="6.68909">
        <ele>530.2</ele>
        <time>2023-09-03T07:30:18Z</time>
      </trkpt>
      <trkpt lat="48.10633" lon="6.68914">
        <ele>530.6</ele>
        <time>2023-09-03T07:30:19Z</time>
      </trkpt>
      <trkpt lat="48.10632" lon="6.68917">
        <ele>530.6</ele>
        <time>2023-09-03T07:30:20Z</time>
      </trkpt>
      <trkpt lat="48.1063" lon="6.68923">
        <ele>531</ele>
        <time>2023-09-03T07:30:21Z</time>
      </trkpt>
      <trkpt lat="48.10628" lon="6.68927">
        <ele>531.4</ele>
        <time>2023-09-03T07:30:22Z</time>
      </trkpt>
      <trkpt lat="48.10627" lon="6.68929">
        <ele>531.6</ele>
        <time>2023-09-03T07:30:23Z</time>
      </trkpt>
      <trkpt lat="48.10627" lon="6.6893">
        <ele>531.8</ele>
        <time>2023-09-03T07:30:24Z</time>
      </trkpt>
      <trkpt lat="48.10627" lon="6.6893">
        <ele>532.2</ele>
        <time>2023-09-03T07:30:25Z</time>
      </trkpt>
      <trkpt lat="48.10627" lon="6.68931">
        <ele>532.2</ele>
        <time>2023-09-03T07:30:26Z</time>
      </trkpt>
      <trkpt lat="48.10626" lon="6.68934">
        <ele>532.6</ele>
        <time>2023-09-03T07:30:27Z</time>
      </trkpt>
      <trkpt lat="48.10625" lon="6.68934">
        <ele>532.6</ele>
        <time>2023-09-03T07:30:28Z</time>
      </trkpt>
      <trkpt lat="48.10624" lon="6.68936">
        <ele>533</ele>
        <time>2023-09-03T07:30:29Z</time>
      </trkpt>
      <trkpt lat="48.10623" lon="6.6894">
        <ele>533.2</ele>
        <time>2023-09-03T07:30:30Z</time>
      </trkpt>
      <trkpt lat="48.10622" lon="6.68943">
        <ele>533.4</ele>
        <time>2023-09-03T07:30:31Z</time>
      </trkpt>
      <trkpt lat="48.10623" lon="6.68947">
        <ele>533.6</ele>
        <time>2023-09-03T07:30:32Z</time>
      </trkpt>
      <trkpt lat="48.10622" lon="6.68947">
        <ele>533.6</ele>
        <time>2023-09-03T07:30:33Z</time>
      </trkpt>
      <trkpt lat="48.10621" lon="6.68948">
        <ele>533.8</ele>
        <time>2023-09-03T07:30:34Z</time>
      </trkpt>
      <trkpt lat="48.1062" lon="6.68954">
        <ele>533.8</ele>
        <time>2023-09-03T07:30:35Z</time>
      </trkpt>
      <trkpt lat="48.1062" lon="6.68959">
        <ele>534</ele>
        <time>2023-09-03T07:30:36Z</time>
      </trkpt>
      <trkpt lat="48.10618" lon="6.68961">
        <ele>534</ele>
        <time>2023-09-03T07:30:37Z</time>
      </trkpt>
      <trkpt lat="48.10615" lon="6.68962">
        <ele>534</ele>
        <time>2023-09-03T07:30:38Z</time>
      </trkpt>
      <trkpt lat="48.10615" lon="6.68962">
        <ele>534</ele>
        <time>2023-09-03T07:30:39Z</time>
      </trkpt>
      <trkpt lat="48.10613" lon="6.68963">
        <ele>534.2</ele>
        <time>2023-09-03T07:30:40Z</time>
      </trkpt>
      <trkpt lat="48.10611" lon="6.68965">
        <ele>534.4</ele>
        <time>2023-09-03T07:30:41Z</time>
      </trkpt>
      <trkpt lat="48.10607" lon="6.68967">
        <ele>534.8</ele>
        <time>2023-09-03T07:30:42Z</time>
      </trkpt>
      <trkpt lat="48.10604" lon="6.68969">
        <ele>534.8</ele>
        <time>2023-09-03T07:30:43Z</time>
      </trkpt>
      <trkpt lat="48.10601" lon="6.68971">
        <ele>535</ele>
        <time>2023-09-03T07:30:44Z</time>
      </trkpt>
      <trkpt lat="48.10598" lon="6.68977">
        <ele>535.2</ele>
        <time>2023-09-03T07:30:45Z</time>
      </trkpt>
      <trkpt lat="48.10597" lon="6.68979">
        <ele>535.4</ele>
        <time>2023-09-03T07:30:46Z</time>
      </trkpt>
      <trkpt lat="48.10596" lon="6.68979">
        <ele>535.4</ele>
        <time>2023-09-03T07:30:47Z</time>
      </trkpt>
      <trkpt lat="48.10595" lon="6.68982">
        <ele>535.4</ele>
        <time>2023-09-03T07:30:48Z</time>
      </trkpt>
      <trkpt lat="48.10591" lon="6.68989">
        <ele>535.6</ele>
        <time>2023-09-03T07:30:49Z</time>
      </trkpt>
      <trkpt lat="48.1059" lon="6.68989">
        <ele>535.6</ele>
        <time>2023-09-03T07:30:50Z</time>
      </trkpt>
      <trkpt lat="48.10594" lon="6.68992">
        <ele>536</ele>
        <time>2023-09-03T07:30:51Z</time>
      </trkpt>
      <trkpt lat="48.10594" lon="6.68996">
        <ele>536</ele>
        <time>2023-09-03T07:30:52Z</time>
      </trkpt>
      <trkpt lat="48.10588" lon="6.69002">
        <ele>536.2</ele>
        <time>2023-09-03T07:30:53Z</time>
      </trkpt>
      <trkpt lat="48.10584" lon="6.6901">
        <ele>536.2</ele>
        <time>2023-09-03T07:30:54Z</time>
      </trkpt>
      <trkpt lat="48.10582" lon="6.69018">
        <ele>536.4</ele>
        <time>2023-09-03T07:30:55Z</time>
      </trkpt>
      <trkpt lat="48.10581" lon="6.69021">
        <ele>536.4</ele>
        <time>2023-09-03T07:30:56Z</time>
      </trkpt>
      <trkpt lat="48.10579" lon="6.69023">
        <ele>536.4</ele>
        <time>2023-09-03T07:30:57Z</time>
      </trkpt>
      <trkpt lat="48.10576" lon="6.69024">
        <ele>536.4</ele>
        <time>2023-09-03T07:30:58Z</time>
      </trkpt>
      <trkpt lat="48.10573" lon="6.69025">
        <ele>536.6</ele>
        <time>2023-09-03T07:30:59Z</time>
      </trkpt>
      <trkpt lat="48.1057" lon="6.69027">
        <ele>536.6</ele>
        <time>2023-09-03T07:31:00Z</time>
      </trkpt>
      <trkpt lat="48.10566" lon="6.69031">
        <ele>536.6</ele>
        <time>2023-09-03T07:31:01Z</time>
      </trkpt>
      <trkpt lat="48.10564" lon="6.69034">
        <ele>537</ele>
        <time>2023-09-03T07:31:02Z</time>
      </trkpt>
      <trkpt lat="48.10562" lon="6.69034">
        <ele>537.2</ele>
        <time>2023-09-03T07:31:03Z</time>
      </trkpt>
      <trkpt lat="48.10559" lon="6.69033">
        <ele>537.4</ele>
        <time>2023-09-03T07:31:04Z</time>
      </trkpt>
      <trkpt lat="48.10559" lon="6.69034">
        <ele>537.6</ele>
        <time>2023-09-03T07:31:05Z</time>
      </trkpt>
      <trkpt lat="48.10561" lon="6.69038">
        <ele>538</ele>
        <time>2023-09-03T07:31:06Z</time>
      </trkpt>
      <trkpt lat="48.1056" lon="6.6904">
        <ele>538.2</ele>
        <time>2023-09-03T07:31:07Z</time>
      </trkpt>
      <trkpt lat="48.10561" lon="6.69046">
        <ele>538.6</ele>
        <time>2023-09-03T07:31:08Z</time>
      </trkpt>
      <trkpt lat="48.10561" lon="6.69047">
        <ele>538.8</ele>
        <time>2023-09-03T07:31:09Z</time>
      </trkpt>
      <trkpt lat="48.10561" lon="6.6905">
        <ele>539.2</ele>
        <time>2023-09-03T07:31:10Z</time>
      </trkpt>
      <trkpt lat="48.10563" lon="6.69053">
        <ele>539.6</ele>
        <time>2023-09-03T07:31:11Z</time>
      </trkpt>
      <trkpt lat="48.10564" lon="6.69058">
        <ele>540</ele>
        <time>2023-09-03T07:31:12Z</time>
      </trkpt>
      <trkpt lat="48.10561" lon="6.69065">
        <ele>540.4</ele>
        <time>2023-09-03T07:31:13Z</time>
      </trkpt>
      <trkpt lat="48.10559" lon="6.6907">
        <ele>540.6</ele>
        <time>2023-09-03T07:31:14Z</time>
      </trkpt>
      <trkpt lat="48.10558" lon="6.69072">
        <ele>540.8</ele>
        <time>2023-09-03T07:31:15Z</time>
      </trkpt>
      <trkpt lat="48.10556" lon="6.69073">
        <ele>541</ele>
        <time>2023-09-03T07:31:16Z</time>
      </trkpt>
      <trkpt lat="48.10553" lon="6.69075">
        <ele>541.4</ele>
        <time>2023-09-03T07:31:17Z</time>
      </trkpt>
      <trkpt lat="48.10553" lon="6.69076">
        <ele>541.6</ele>
        <time>2023-09-03T07:31:18Z</time>
      </trkpt>
      <trkpt lat="48.10552" lon="6.69079">
        <ele>542</ele>
        <time>2023-09-03T07:31:19Z</time>
      </trkpt>
      <trkpt lat="48.10552" lon="6.69082">
        <ele>542</ele>
        <time>2023-09-03T07:31:20Z</time>
      </trkpt>
      <trkpt lat="48.10551" lon="6.69084">
        <ele>542.4</ele>
        <time>2023-09-03T07:31:21Z</time>
      </trkpt>
      <trkpt lat="48.1055" lon="6.69087">
        <ele>542.6</ele>
        <time>2023-09-03T07:31:22Z</time>
      </trkpt>
      <trkpt lat="48.1055" lon="6.6909">
        <ele>543.2</ele>
        <time>2023-09-03T07:31:23Z</time>
      </trkpt>
      <trkpt lat="48.1055" lon="6.69091">
        <ele>543.4</ele>
        <time>2023-09-03T07:31:24Z</time>
      </trkpt>
      <trkpt lat="48.10549" lon="6.69092">
        <ele>543.4</ele>
        <time>2023-09-03T07:31:25Z</time>
      </trkpt>
      <trkpt lat="48.10548" lon="6.69094">
        <ele>543.6</ele>
        <time>2023-09-03T07:31:26Z</time>
      </trkpt>
      <trkpt lat="48.10547" lon="6.69097">
        <ele>543.8</ele>
        <time>2023-09-03T07:31:27Z</time>
      </trkpt>
      <trkpt lat="48.10543" lon="6.69101">
        <ele>544.2</ele>
        <time>2023-09-03T07:31:28Z</time>
      </trkpt>
      <trkpt lat="48.10539" lon="6.69103">
        <ele>544.4</ele>
        <time>2023-09-03T07:31:29Z</time>
      </trkpt>
      <trkpt lat="48.10537" lon="6.69107">
        <ele>544.6</ele>
        <time>2023-09-03T07:31:30Z</time>
      </trkpt>
      <trkpt lat="48.10535" lon="6.69111">
        <ele>544.8</ele>
        <time>2023-09-03T07:31:31Z</time>
      </trkpt>
      <trkpt lat="48.10536" lon="6.69118">
        <ele>545</ele>
        <time>2023-09-03T07:31:32Z</time>
      </trkpt>
      <trkpt lat="48.10536" lon="6.69121">
        <ele>545</ele>
        <time>2023-09-03T07:31:33Z</time>
      </trkpt>
      <trkpt lat="48.10536" lon="6.69123">
        <ele>545.2</ele>
        <time>2023-09-03T07:31:34Z</time>
      </trkpt>
      <trkpt lat="48.10536" lon="6.69125">
        <ele>545.4</ele>
        <time>2023-09-03T07:31:35Z</time>
      </trkpt>
      <trkpt lat="48.10535" lon="6.69127">
        <ele>545.6</ele>
        <time>2023-09-03T07:31:36Z</time>
      </trkpt>
      <trkpt lat="48.10533" lon="6.69129">
        <ele>545.8</ele>
        <time>2023-09-03T07:31:37Z</time>
      </trkpt>
      <trkpt lat="48.10533" lon="6.69131">
        <ele>546.2</ele>
        <time>2023-09-03T07:31:38Z</time>
      </trkpt>
      <trkpt lat="48.10532" lon="6.69133">
        <ele>546.4</ele>
        <time>2023-09-03T07:31:39Z</time>
      </trkpt>
      <trkpt lat="48.1053" lon="6.69135">
        <ele>546.8</ele>
        <time>2023-09-03T07:31:40Z</time>
      </trkpt>
      <trkpt lat="48.1053" lon="6.69139">
        <ele>547.2</ele>
        <time>2023-09-03T07:31:41Z</time>
      </trkpt>
      <trkpt lat="48.10529" lon="6.69141">
        <ele>547.6</ele>
        <time>2023-09-03T07:31:42Z</time>
      </trkpt>
      <trkpt lat="48.10528" lon="6.69142">
        <ele>548</ele>
        <time>2023-09-03T07:31:43Z</time>
      </trkpt>
      <trkpt lat="48.10526" lon="6.69144">
        <ele>548.2</ele>
        <time>2023-09-03T07:31:44Z</time>
      </trkpt>
      <trkpt lat="48.10525" lon="6.69146">
        <ele>548.4</ele>
        <time>2023-09-03T07:31:45Z</time>
      </trkpt>
      <trkpt lat="48.10524" lon="6.69148">
        <ele>548.6</ele>
        <time>2023-09-03T07:31:46Z</time>
      </trkpt>
      <trkpt lat="48.10523" lon="6.6915">
        <ele>548.8</ele>
        <time>2023-09-03T07:31:47Z</time>
      </trkpt>
      <trkpt lat="48.10521" lon="6.69151">
        <ele>549</ele>
        <time>2023-09-03T07:31:48Z</time>
      </trkpt>
      <trkpt lat="48.1052" lon="6.69153">
        <ele>549.2</ele>
        <time>2023-09-03T07:31:49Z</time>
      </trkpt>
      <trkpt lat="48.10519" lon="6.69154">
        <ele>549.4</ele>
        <time>2023-09-03T07:31:50Z</time>
      </trkpt>
      <trkpt lat="48.10517" lon="6.69154">
        <ele>549.8</ele>
        <time>2023-09-03T07:31:51Z</time>
      </trkpt>
      <trkpt lat="48.10516" lon="6.69155">
        <ele>550</ele>
        <time>2023-09-03T07:31:52Z</time>
      </trkpt>
      <trkpt lat="48.10515" lon="6.69157">
        <ele>550</ele>
        <time>2023-09-03T07:31:53Z</time>
      </trkpt>
      <trkpt lat="48.10514" lon="6.69158">
        <ele>550.2</ele>
        <time>2023-09-03T07:31:54Z</time>
      </trkpt>
      <trkpt lat="48.10513" lon="6.6916">
        <ele>550.6</ele>
        <time>2023-09-03T07:31:55Z</time>
      </trkpt>
      <trkpt lat="48.10512" lon="6.69161">
        <ele>550.8</ele>
        <time>2023-09-03T07:31:56Z</time>
      </trkpt>
      <trkpt lat="48.10511" lon="6.69164">
        <ele>550.8</ele>
        <time>2023-09-03T07:31:57Z</time>
      </trkpt>
      <trkpt lat="48.1051" lon="6.69166">
        <ele>551.2</ele>
        <time>2023-09-03T07:31:58Z</time>
      </trkpt>
      <trkpt lat="48.1051" lon="6.69168">
        <ele>551.6</ele>
        <time>2023-09-03T07:31:59Z</time>
      </trkpt>
      <trkpt lat="48.10509" lon="6.6917">
        <ele>552</ele>
        <time>2023-09-03T07:32:00Z</time>
      </trkpt>
      <trkpt lat="48.10508" lon="6.69172">
        <ele>552</ele>
        <time>2023-09-03T07:32:01Z</time>
      </trkpt>
      <trkpt lat="48.10507" lon="6.69174">
        <ele>552.4</ele>
        <time>2023-09-03T07:32:02Z</time>
      </trkpt>
      <trkpt lat="48.10506" lon="6.69175">
        <ele>552.4</ele>
        <time>2023-09-03T07:32:03Z</time>
      </trkpt>
      <trkpt lat="48.10505" lon="6.69177">
        <ele>552.8</ele>
        <time>2023-09-03T07:32:04Z</time>
      </trkpt>
      <trkpt lat="48.10504" lon="6.69179">
        <ele>552.8</ele>
        <time>2023-09-03T07:32:05Z</time>
      </trkpt>
      <trkpt lat="48.10503" lon="6.69182">
        <ele>553</ele>
        <time>2023-09-03T07:32:06Z</time>
      </trkpt>
      <trkpt lat="48.10502" lon="6.69184">
        <ele>553.2</ele>
        <time>2023-09-03T07:32:07Z</time>
      </trkpt>
      <trkpt lat="48.10501" lon="6.69186">
        <ele>553.4</ele>
        <time>2023-09-03T07:32:08Z</time>
      </trkpt>
      <trkpt lat="48.105" lon="6.69188">
        <ele>553.6</ele>
        <time>2023-09-03T07:32:09Z</time>
      </trkpt>
      <trkpt lat="48.10499" lon="6.69189">
        <ele>553.8</ele>
        <time>2023-09-03T07:32:10Z</time>
      </trkpt>
      <trkpt lat="48.10498" lon="6.69191">
        <ele>554.2</ele>
        <time>2023-09-03T07:32:11Z</time>
      </trkpt>
      <trkpt lat="48.10498" lon="6.69192">
        <ele>554.4</ele>
        <time>2023-09-03T07:32:12Z</time>
      </trkpt>
      <trkpt lat="48.10497" lon="6.69194">
        <ele>554.4</ele>
        <time>2023-09-03T07:32:13Z</time>
      </trkpt>
      <trkpt lat="48.10497" lon="6.69195">
        <ele>554.6</ele>
        <time>2023-09-03T07:32:14Z</time>
      </trkpt>
      <trkpt lat="48.10496" lon="6.69197">
        <ele>555</ele>
        <time>2023-09-03T07:32:15Z</time>
      </trkpt>
      <trkpt lat="48.10495" lon="6.69199">
        <ele>555</ele>
        <time>2023-09-03T07:32:16Z</time>
      </trkpt>
      <trkpt lat="48.10494" lon="6.69201">
        <ele>555.4</ele>
        <time>2023-09-03T07:32:17Z</time>
      </trkpt>
      <trkpt lat="48.10494" lon="6.69204">
        <ele>555.4</ele>
        <time>2023-09-03T07:32:18Z</time>
      </trkpt>
      <trkpt lat="48.10493" lon="6.69205">
        <ele>555.6</ele>
        <time>2023-09-03T07:32:19Z</time>
      </trkpt>
      <trkpt lat="48.10492" lon="6.69207">
        <ele>555.8</ele>
        <time>2023-09-03T07:32:20Z</time>
      </trkpt>
      <trkpt lat="48.10491" lon="6.69209">
        <ele>556.2</ele>
        <time>2023-09-03T07:32:21Z</time>
      </trkpt>
      <trkpt lat="48.1049" lon="6.69209">
        <ele>556.4</ele>
        <time>2023-09-03T07:32:22Z</time>
      </trkpt>
      <trkpt lat="48.1049" lon="6.69212">
        <ele>556.6</ele>
        <time>2023-09-03T07:32:23Z</time>
      </trkpt>
      <trkpt lat="48.1049" lon="6.69214">
        <ele>556.6</ele>
        <time>2023-09-03T07:32:24Z</time>
      </trkpt>
      <trkpt lat="48.10489" lon="6.69216">
        <ele>556.8</ele>
        <time>2023-09-03T07:32:25Z</time>
      </trkpt>
      <trkpt lat="48.10489" lon="6.6922">
        <ele>557</ele>
        <time>2023-09-03T07:32:26Z</time>
      </trkpt>
      <trkpt lat="48.10487" lon="6.69223">
        <ele>557.2</ele>
        <time>2023-09-03T07:32:27Z</time>
      </trkpt>
      <trkpt lat="48.10486" lon="6.69225">
        <ele>557.4</ele>
        <time>2023-09-03T07:32:28Z</time>
      </trkpt>
      <trkpt lat="48.10484" lon="6.69228">
        <ele>557.4</ele>
        <time>2023-09-03T07:32:29Z</time>
      </trkpt>
      <trkpt lat="48.10483" lon="6.6923">
        <ele>557.8</ele>
        <time>2023-09-03T07:32:30Z</time>
      </trkpt>
      <trkpt lat="48.10481" lon="6.69232">
        <ele>557.8</ele>
        <time>2023-09-03T07:32:31Z</time>
      </trkpt>
      <trkpt lat="48.1048" lon="6.69234">
        <ele>558.2</ele>
        <time>2023-09-03T07:32:32Z</time>
      </trkpt>
      <trkpt lat="48.10478" lon="6.69236">
        <ele>558.2</ele>
        <time>2023-09-03T07:32:33Z</time>
      </trkpt>
      <trkpt lat="48.10476" lon="6.69239">
        <ele>558.4</ele>
        <time>2023-09-03T07:32:34Z</time>
      </trkpt>
      <trkpt lat="48.10474" lon="6.69243">
        <ele>558.6</ele>
        <time>2023-09-03T07:32:35Z</time>
      </trkpt>
      <trkpt lat="48.10472" lon="6.69249">
        <ele>558.6</ele>
        <time>2023-09-03T07:32:36Z</time>
      </trkpt>
      <trkpt lat="48.1047" lon="6.69253">
        <ele>559</ele>
        <time>2023-09-03T07:32:37Z</time>
      </trkpt>
      <trkpt lat="48.10468" lon="6.69257">
        <ele>559.2</ele>
        <time>2023-09-03T07:32:38Z</time>
      </trkpt>
      <trkpt lat="48.10466" lon="6.69259">
        <ele>559.4</ele>
        <time>2023-09-03T07:32:39Z</time>
      </trkpt>
      <trkpt lat="48.10464" lon="6.69263">
        <ele>559.4</ele>
        <time>2023-09-03T07:32:40Z</time>
      </trkpt>
      <trkpt lat="48.10462" lon="6.69266">
        <ele>559.6</ele>
        <time>2023-09-03T07:32:41Z</time>
      </trkpt>
      <trkpt lat="48.10461" lon="6.69269">
        <ele>559.6</ele>
        <time>2023-09-03T07:32:42Z</time>
      </trkpt>
      <trkpt lat="48.10458" lon="6.69278">
        <ele>559.8</ele>
        <time>2023-09-03T07:32:43Z</time>
      </trkpt>
      <trkpt lat="48.10458" lon="6.69281">
        <ele>559.8</ele>
        <time>2023-09-03T07:32:44Z</time>
      </trkpt>
      <trkpt lat="48.10457" lon="6.69291">
        <ele>560</ele>
        <time>2023-09-03T07:32:45Z</time>
      </trkpt>
      <trkpt lat="48.10456" lon="6.693">
        <ele>560</ele>
        <time>2023-09-03T07:32:46Z</time>
      </trkpt>
      <trkpt lat="48.10454" lon="6.69306">
        <ele>560.2</ele>
        <time>2023-09-03T07:32:47Z</time>
      </trkpt>
      <trkpt lat="48.10453" lon="6.69301">
        <ele>560.4</ele>
        <time>2023-09-03T07:32:48Z</time>
      </trkpt>
      <trkpt lat="48.10452" lon="6.69296">
        <ele>560.4</ele>
        <time>2023-09-03T07:32:49Z</time>
      </trkpt>
      <trkpt lat="48.10451" lon="6.69287">
        <ele>560.6</ele>
        <time>2023-09-03T07:32:50Z</time>
      </trkpt>
      <trkpt lat="48.10449" lon="6.69287">
        <ele>560.6</ele>
        <time>2023-09-03T07:32:51Z</time>
      </trkpt>
      <trkpt lat="48.10448" lon="6.69289">
        <ele>560.8</ele>
        <time>2023-09-03T07:32:52Z</time>
      </trkpt>
      <trkpt lat="48.10446" lon="6.69292">
        <ele>560.8</ele>
        <time>2023-09-03T07:32:53Z</time>
      </trkpt>
      <trkpt lat="48.10445" lon="6.69294">
        <ele>561</ele>
        <time>2023-09-03T07:32:54Z</time>
      </trkpt>
      <trkpt lat="48.10445" lon="6.69297">
        <ele>561</ele>
        <time>2023-09-03T07:32:55Z</time>
      </trkpt>
      <trkpt lat="48.10444" lon="6.693">
        <ele>561.2</ele>
        <time>2023-09-03T07:32:56Z</time>
      </trkpt>
      <trkpt lat="48.10443" lon="6.69303">
        <ele>561.4</ele>
        <time>2023-09-03T07:32:57Z</time>
      </trkpt>
      <trkpt lat="48.10441" lon="6.69305">
        <ele>561.4</ele>
        <time>2023-09-03T07:32:58Z</time>
      </trkpt>
      <trkpt lat="48.1044" lon="6.69307">
        <ele>561.6</ele>
        <time>2023-09-03T07:32:59Z</time>
      </trkpt>
      <trkpt lat="48.10439" lon="6.6931">
        <ele>561.8</ele>
        <time>2023-09-03T07:33:00Z</time>
      </trkpt>
      <trkpt lat="48.10438" lon="6.69312">
        <ele>562</ele>
        <time>2023-09-03T07:33:01Z</time>
      </trkpt>
      <trkpt lat="48.10438" lon="6.69314">
        <ele>562.2</ele>
        <time>2023-09-03T07:33:02Z</time>
      </trkpt>
      <trkpt lat="48.10437" lon="6.69316">
        <ele>562.4</ele>
        <time>2023-09-03T07:33:03Z</time>
      </trkpt>
      <trkpt lat="48.10436" lon="6.69318">
        <ele>562.6</ele>
        <time>2023-09-03T07:33:04Z</time>
      </trkpt>
      <trkpt lat="48.10436" lon="6.6932">
        <ele>562.6</ele>
        <time>2023-09-03T07:33:05Z</time>
      </trkpt>
      <trkpt lat="48.10435" lon="6.69323">
        <ele>562.8</ele>
        <time>2023-09-03T07:33:06Z</time>
      </trkpt>
      <trkpt lat="48.10435" lon="6.69325">
        <ele>563.2</ele>
        <time>2023-09-03T07:33:07Z</time>
      </trkpt>
      <trkpt lat="48.10434" lon="6.69328">
        <ele>563.2</ele>
        <time>2023-09-03T07:33:08Z</time>
      </trkpt>
      <trkpt lat="48.10433" lon="6.69331">
        <ele>563.6</ele>
        <time>2023-09-03T07:33:09Z</time>
      </trkpt>
      <trkpt lat="48.10432" lon="6.69334">
        <ele>563.6</ele>
        <time>2023-09-03T07:33:10Z</time>
      </trkpt>
      <trkpt lat="48.1043" lon="6.69337">
        <ele>563.8</ele>
        <time>2023-09-03T07:33:11Z</time>
      </trkpt>
      <trkpt lat="48.10429" lon="6.69341">
        <ele>564</ele>
        <time>2023-09-03T07:33:12Z</time>
      </trkpt>
      <trkpt lat="48.10428" lon="6.69344">
        <ele>564</ele>
        <time>2023-09-03T07:33:13Z</time>
      </trkpt>
      <trkpt lat="48.10427" lon="6.69347">
        <ele>564</ele>
        <time>2023-09-03T07:33:14Z</time>
      </trkpt>
      <trkpt lat="48.10426" lon="6.6935">
        <ele>564</ele>
        <time>2023-09-03T07:33:15Z</time>
      </trkpt>
      <trkpt lat="48.10426" lon="6.69354">
        <ele>564.2</ele>
        <time>2023-09-03T07:33:16Z</time>
      </trkpt>
      <trkpt lat="48.10425" lon="6.69357">
        <ele>564.4</ele>
        <time>2023-09-03T07:33:17Z</time>
      </trkpt>
      <trkpt lat="48.10425" lon="6.6936">
        <ele>564.4</ele>
        <time>2023-09-03T07:33:18Z</time>
      </trkpt>
      <trkpt lat="48.10424" lon="6.69363">
        <ele>564.6</ele>
        <time>2023-09-03T07:33:19Z</time>
      </trkpt>
      <trkpt lat="48.10422" lon="6.69366">
        <ele>564.6</ele>
        <time>2023-09-03T07:33:20Z</time>
      </trkpt>
      <trkpt lat="48.10421" lon="6.6937">
        <ele>564.6</ele>
        <time>2023-09-03T07:33:21Z</time>
      </trkpt>
      <trkpt lat="48.10419" lon="6.69373">
        <ele>564.6</ele>
        <time>2023-09-03T07:33:22Z</time>
      </trkpt>
      <trkpt lat="48.10419" lon="6.69377">
        <ele>564.8</ele>
        <time>2023-09-03T07:33:23Z</time>
      </trkpt>
      <trkpt lat="48.10419" lon="6.6938">
        <ele>565</ele>
        <time>2023-09-03T07:33:24Z</time>
      </trkpt>
      <trkpt lat="48.10419" lon="6.69382">
        <ele>565</ele>
        <time>2023-09-03T07:33:25Z</time>
      </trkpt>
      <trkpt lat="48.10418" lon="6.69385">
        <ele>565</ele>
        <time>2023-09-03T07:33:26Z</time>
      </trkpt>
      <trkpt lat="48.10416" lon="6.69389">
        <ele>565.2</ele>
        <time>2023-09-03T07:33:27Z</time>
      </trkpt>
      <trkpt lat="48.10415" lon="6.69393">
        <ele>565.4</ele>
        <time>2023-09-03T07:33:28Z</time>
      </trkpt>
      <trkpt lat="48.10414" lon="6.69397">
        <ele>565.6</ele>
        <time>2023-09-03T07:33:29Z</time>
      </trkpt>
      <trkpt lat="48.10414" lon="6.69402">
        <ele>565.6</ele>
        <time>2023-09-03T07:33:30Z</time>
      </trkpt>
      <trkpt lat="48.10414" lon="6.69406">
        <ele>565.6</ele>
        <time>2023-09-03T07:33:31Z</time>
      </trkpt>
      <trkpt lat="48.10413" lon="6.6941">
        <ele>565.6</ele>
        <time>2023-09-03T07:33:32Z</time>
      </trkpt>
      <trkpt lat="48.10413" lon="6.69415">
        <ele>565.6</ele>
        <time>2023-09-03T07:33:33Z</time>
      </trkpt>
      <trkpt lat="48.10413" lon="6.6942">
        <ele>565.8</ele>
        <time>2023-09-03T07:33:34Z</time>
      </trkpt>
      <trkpt lat="48.10413" lon="6.69424">
        <ele>565.8</ele>
        <time>2023-09-03T07:33:35Z</time>
      </trkpt>
      <trkpt lat="48.10412" lon="6.69429">
        <ele>565.8</ele>
        <time>2023-09-03T07:33:36Z</time>
      </trkpt>
      <trkpt lat="48.10412" lon="6.69434">
        <ele>565.8</ele>
        <time>2023-09-03T07:33:37Z</time>
      </trkpt>
      <trkpt lat="48.10411" lon="6.69437">
        <ele>566</ele>
        <time>2023-09-03T07:33:38Z</time>
      </trkpt>
      <trkpt lat="48.10411" lon="6.6944">
        <ele>566.2</ele>
        <time>2023-09-03T07:33:39Z</time>
      </trkpt>
      <trkpt lat="48.10411" lon="6.69443">
        <ele>566.2</ele>
        <time>2023-09-03T07:33:40Z</time>
      </trkpt>
      <trkpt lat="48.10411" lon="6.69446">
        <ele>566.2</ele>
        <time>2023-09-03T07:33:41Z</time>
      </trkpt>
      <trkpt lat="48.1041" lon="6.6945">
        <ele>566.2</ele>
        <time>2023-09-03T07:33:42Z</time>
      </trkpt>
      <trkpt lat="48.10407" lon="6.69454">
        <ele>566.4</ele>
        <time>2023-09-03T07:33:43Z</time>
      </trkpt>
      <trkpt lat="48.10405" lon="6.69455">
        <ele>566.4</ele>
        <time>2023-09-03T07:33:44Z</time>
      </trkpt>
      <trkpt lat="48.10401" lon="6.6946">
        <ele>566.6</ele>
        <time>2023-09-03T07:33:45Z</time>
      </trkpt>
      <trkpt lat="48.10398" lon="6.69466">
        <ele>566.8</ele>
        <time>2023-09-03T07:33:46Z</time>
      </trkpt>
      <trkpt lat="48.10398" lon="6.6947">
        <ele>567</ele>
        <time>2023-09-03T07:33:47Z</time>
      </trkpt>
      <trkpt lat="48.10397" lon="6.69473">
        <ele>567</ele>
        <time>2023-09-03T07:33:48Z</time>
      </trkpt>
      <trkpt lat="48.10396" lon="6.69476">
        <ele>567.2</ele>
        <time>2023-09-03T07:33:49Z</time>
      </trkpt>
      <trkpt lat="48.10395" lon="6.69479">
        <ele>567.2</ele>
        <time>2023-09-03T07:33:50Z</time>
      </trkpt>
      <trkpt lat="48.10392" lon="6.69482">
        <ele>567.4</ele>
        <time>2023-09-03T07:33:51Z</time>
      </trkpt>
      <trkpt lat="48.10387" lon="6.69485">
        <ele>567.6</ele>
        <time>2023-09-03T07:33:52Z</time>
      </trkpt>
      <trkpt lat="48.10383" lon="6.69489">
        <ele>567.8</ele>
        <time>2023-09-03T07:33:53Z</time>
      </trkpt>
      <trkpt lat="48.10382" lon="6.69492">
        <ele>568.2</ele>
        <time>2023-09-03T07:33:54Z</time>
      </trkpt>
      <trkpt lat="48.1038" lon="6.69494">
        <ele>568.2</ele>
        <time>2023-09-03T07:33:55Z</time>
      </trkpt>
      <trkpt lat="48.10377" lon="6.69498">
        <ele>568.4</ele>
        <time>2023-09-03T07:33:56Z</time>
      </trkpt>
      <trkpt lat="48.10375" lon="6.695">
        <ele>568.6</ele>
        <time>2023-09-03T07:33:57Z</time>
      </trkpt>
      <trkpt lat="48.10372" lon="6.69501">
        <ele>569</ele>
        <time>2023-09-03T07:33:58Z</time>
      </trkpt>
      <trkpt lat="48.10368" lon="6.69507">
        <ele>569.2</ele>
        <time>2023-09-03T07:33:59Z</time>
      </trkpt>
      <trkpt lat="48.10367" lon="6.69511">
        <ele>569.4</ele>
        <time>2023-09-03T07:34:00Z</time>
      </trkpt>
      <trkpt lat="48.10366" lon="6.69513">
        <ele>569.4</ele>
        <time>2023-09-03T07:34:01Z</time>
      </trkpt>
      <trkpt lat="48.10365" lon="6.69515">
        <ele>569.8</ele>
        <time>2023-09-03T07:34:02Z</time>
      </trkpt>
      <trkpt lat="48.10366" lon="6.6952">
        <ele>569.8</ele>
        <time>2023-09-03T07:34:03Z</time>
      </trkpt>
      <trkpt lat="48.10365" lon="6.69526">
        <ele>570</ele>
        <time>2023-09-03T07:34:04Z</time>
      </trkpt>
      <trkpt lat="48.10364" lon="6.69531">
        <ele>570</ele>
        <time>2023-09-03T07:34:05Z</time>
      </trkpt>
      <trkpt lat="48.10363" lon="6.69534">
        <ele>570</ele>
        <time>2023-09-03T07:34:06Z</time>
      </trkpt>
      <trkpt lat="48.10362" lon="6.69538">
        <ele>570</ele>
        <time>2023-09-03T07:34:07Z</time>
      </trkpt>
      <trkpt lat="48.10361" lon="6.69544">
        <ele>570</ele>
        <time>2023-09-03T07:34:08Z</time>
      </trkpt>
      <trkpt lat="48.1036" lon="6.69548">
        <ele>570.2</ele>
        <time>2023-09-03T07:34:09Z</time>
      </trkpt>
      <trkpt lat="48.1036" lon="6.69551">
        <ele>570.4</ele>
        <time>2023-09-03T07:34:10Z</time>
      </trkpt>
      <trkpt lat="48.10359" lon="6.69554">
        <ele>570.6</ele>
        <time>2023-09-03T07:34:11Z</time>
      </trkpt>
      <trkpt lat="48.10361" lon="6.69557">
        <ele>570.6</ele>
        <time>2023-09-03T07:34:12Z</time>
      </trkpt>
      <trkpt lat="48.10361" lon="6.6956">
        <ele>570.8</ele>
        <time>2023-09-03T07:34:13Z</time>
      </trkpt>
      <trkpt lat="48.10359" lon="6.69563">
        <ele>570.8</ele>
        <time>2023-09-03T07:34:14Z</time>
      </trkpt>
      <trkpt lat="48.10358" lon="6.69565">
        <ele>571.2</ele>
        <time>2023-09-03T07:34:15Z</time>
      </trkpt>
      <trkpt lat="48.10356" lon="6.69567">
        <ele>571.6</ele>
        <time>2023-09-03T07:34:16Z</time>
      </trkpt>
      <trkpt lat="48.10353" lon="6.6957">
        <ele>571.8</ele>
        <time>2023-09-03T07:34:17Z</time>
      </trkpt>
      <trkpt lat="48.10352" lon="6.69572">
        <ele>572.2</ele>
        <time>2023-09-03T07:34:18Z</time>
      </trkpt>
      <trkpt lat="48.10351" lon="6.69574">
        <ele>572.6</ele>
        <time>2023-09-03T07:34:19Z</time>
      </trkpt>
      <trkpt lat="48.10348" lon="6.69576">
        <ele>572.6</ele>
        <time>2023-09-03T07:34:20Z</time>
      </trkpt>
      <trkpt lat="48.10344" lon="6.69577">
        <ele>572.8</ele>
        <time>2023-09-03T07:34:21Z</time>
      </trkpt>
      <trkpt lat="48.1034" lon="6.69578">
        <ele>573.2</ele>
        <time>2023-09-03T07:34:22Z</time>
      </trkpt>
      <trkpt lat="48.10338" lon="6.69581">
        <ele>573.4</ele>
        <time>2023-09-03T07:34:23Z</time>
      </trkpt>
      <trkpt lat="48.10337" lon="6.69583">
        <ele>573.6</ele>
        <time>2023-09-03T07:34:24Z</time>
      </trkpt>
      <trkpt lat="48.10334" lon="6.69584">
        <ele>573.8</ele>
        <time>2023-09-03T07:34:25Z</time>
      </trkpt>
      <trkpt lat="48.10331" lon="6.69588">
        <ele>574</ele>
        <time>2023-09-03T07:34:26Z</time>
      </trkpt>
      <trkpt lat="48.10328" lon="6.69591">
        <ele>574</ele>
        <time>2023-09-03T07:34:27Z</time>
      </trkpt>
      <trkpt lat="48.10327" lon="6.69593">
        <ele>574.2</ele>
        <time>2023-09-03T07:34:28Z</time>
      </trkpt>
      <trkpt lat="48.10325" lon="6.69596">
        <ele>574.2</ele>
        <time>2023-09-03T07:34:29Z</time>
      </trkpt>
      <trkpt lat="48.10325" lon="6.69596">
        <ele>574.2</ele>
        <time>2023-09-03T07:34:30Z</time>
      </trkpt>
      <trkpt lat="48.10325" lon="6.69596">
        <ele>574.4</ele>
        <time>2023-09-03T07:34:31Z</time>
      </trkpt>
      <trkpt lat="48.10325" lon="6.69596">
        <ele>574.2</ele>
        <time>2023-09-03T07:34:32Z</time>
      </trkpt>
      <trkpt lat="48.10324" lon="6.69597">
        <ele>574.4</ele>
        <time>2023-09-03T07:34:33Z</time>
      </trkpt>
      <trkpt lat="48.10324" lon="6.69597">
        <ele>574.6</ele>
        <time>2023-09-03T07:34:34Z</time>
      </trkpt>
      <trkpt lat="48.10324" lon="6.69597">
        <ele>574.6</ele>
        <time>2023-09-03T07:34:35Z</time>
      </trkpt>
      <trkpt lat="48.10324" lon="6.69597">
        <ele>574.6</ele>
        <time>2023-09-03T07:34:36Z</time>
      </trkpt>
      <trkpt lat="48.10324" lon="6.69597">
        <ele>574.8</ele>
        <time>2023-09-03T07:34:37Z</time>
      </trkpt>
      <trkpt lat="48.10324" lon="6.69597">
        <ele>575</ele>
        <time>2023-09-03T07:34:42Z</time>
      </trkpt>
      <trkpt lat="48.10323" lon="6.69598">
        <ele>575</ele>
        <time>2023-09-03T07:34:43Z</time>
      </trkpt>
      <trkpt lat="48.10322" lon="6.69599">
        <ele>575.2</ele>
        <time>2023-09-03T07:34:44Z</time>
      </trkpt>
      <trkpt lat="48.10321" lon="6.696">
        <ele>575.2</ele>
        <time>2023-09-03T07:34:45Z</time>
      </trkpt>
      <trkpt lat="48.1032" lon="6.69602">
        <ele>575.2</ele>
        <time>2023-09-03T07:34:46Z</time>
      </trkpt>
      <trkpt lat="48.10318" lon="6.69603">
        <ele>575.2</ele>
        <time>2023-09-03T07:34:47Z</time>
      </trkpt>
      <trkpt lat="48.10316" lon="6.69604">
        <ele>575.4</ele>
        <time>2023-09-03T07:34:48Z</time>
      </trkpt>
      <trkpt lat="48.10316" lon="6.69607">
        <ele>575.4</ele>
        <time>2023-09-03T07:34:49Z</time>
      </trkpt>
      <trkpt lat="48.10315" lon="6.69609">
        <ele>575.4</ele>
        <time>2023-09-03T07:34:50Z</time>
      </trkpt>
      <trkpt lat="48.10314" lon="6.69611">
        <ele>575.4</ele>
        <time>2023-09-03T07:34:51Z</time>
      </trkpt>
      <trkpt lat="48.10311" lon="6.69614">
        <ele>575.6</ele>
        <time>2023-09-03T07:34:52Z</time>
      </trkpt>
      <trkpt lat="48.1031" lon="6.69617">
        <ele>575.6</ele>
        <time>2023-09-03T07:34:53Z</time>
      </trkpt>
      <trkpt lat="48.10309" lon="6.6962">
        <ele>575.6</ele>
        <time>2023-09-03T07:34:54Z</time>
      </trkpt>
      <trkpt lat="48.10308" lon="6.69622">
        <ele>575.8</ele>
        <time>2023-09-03T07:34:55Z</time>
      </trkpt>
      <trkpt lat="48.10307" lon="6.69624">
        <ele>576</ele>
        <time>2023-09-03T07:34:56Z</time>
      </trkpt>
      <trkpt lat="48.10305" lon="6.69625">
        <ele>576</ele>
        <time>2023-09-03T07:34:57Z</time>
      </trkpt>
      <trkpt lat="48.10305" lon="6.69627">
        <ele>576.4</ele>
        <time>2023-09-03T07:34:58Z</time>
      </trkpt>
      <trkpt lat="48.10304" lon="6.6963">
        <ele>576.6</ele>
        <time>2023-09-03T07:34:59Z</time>
      </trkpt>
      <trkpt lat="48.10304" lon="6.69633">
        <ele>576.8</ele>
        <time>2023-09-03T07:35:00Z</time>
      </trkpt>
      <trkpt lat="48.10303" lon="6.69636">
        <ele>577.4</ele>
        <time>2023-09-03T07:35:01Z</time>
      </trkpt>
      <trkpt lat="48.10302" lon="6.6964">
        <ele>577.6</ele>
        <time>2023-09-03T07:35:02Z</time>
      </trkpt>
      <trkpt lat="48.10302" lon="6.69645">
        <ele>578</ele>
        <time>2023-09-03T07:35:03Z</time>
      </trkpt>
      <trkpt lat="48.10302" lon="6.69647">
        <ele>578.2</ele>
        <time>2023-09-03T07:35:04Z</time>
      </trkpt>
      <trkpt lat="48.103" lon="6.6965">
        <ele>578.6</ele>
        <time>2023-09-03T07:35:05Z</time>
      </trkpt>
      <trkpt lat="48.10299" lon="6.69655">
        <ele>578.8</ele>
        <time>2023-09-03T07:35:06Z</time>
      </trkpt>
      <trkpt lat="48.10296" lon="6.6966">
        <ele>579</ele>
        <time>2023-09-03T07:35:07Z</time>
      </trkpt>
      <trkpt lat="48.10295" lon="6.69663">
        <ele>579.2</ele>
        <time>2023-09-03T07:35:08Z</time>
      </trkpt>
      <trkpt lat="48.10294" lon="6.69667">
        <ele>579.2</ele>
        <time>2023-09-03T07:35:09Z</time>
      </trkpt>
      <trkpt lat="48.10292" lon="6.69669">
        <ele>579.4</ele>
        <time>2023-09-03T07:35:10Z</time>
      </trkpt>
      <trkpt lat="48.1029" lon="6.69671">
        <ele>579.6</ele>
        <time>2023-09-03T07:35:11Z</time>
      </trkpt>
      <trkpt lat="48.1029" lon="6.69673">
        <ele>579.8</ele>
        <time>2023-09-03T07:35:12Z</time>
      </trkpt>
      <trkpt lat="48.1029" lon="6.69674">
        <ele>580.2</ele>
        <time>2023-09-03T07:35:13Z</time>
      </trkpt>
      <trkpt lat="48.10289" lon="6.69678">
        <ele>580.6</ele>
        <time>2023-09-03T07:35:14Z</time>
      </trkpt>
      <trkpt lat="48.10288" lon="6.6968">
        <ele>580.8</ele>
        <time>2023-09-03T07:35:15Z</time>
      </trkpt>
      <trkpt lat="48.10289" lon="6.69685">
        <ele>581</ele>
        <time>2023-09-03T07:35:16Z</time>
      </trkpt>
      <trkpt lat="48.10288" lon="6.69687">
        <ele>581.2</ele>
        <time>2023-09-03T07:35:17Z</time>
      </trkpt>
      <trkpt lat="48.10288" lon="6.69688">
        <ele>581.4</ele>
        <time>2023-09-03T07:35:18Z</time>
      </trkpt>
      <trkpt lat="48.10288" lon="6.69689">
        <ele>581.6</ele>
        <time>2023-09-03T07:35:19Z</time>
      </trkpt>
      <trkpt lat="48.10288" lon="6.6969">
        <ele>582</ele>
        <time>2023-09-03T07:35:20Z</time>
      </trkpt>
      <trkpt lat="48.10288" lon="6.6969">
        <ele>582.4</ele>
        <time>2023-09-03T07:35:21Z</time>
      </trkpt>
      <trkpt lat="48.10287" lon="6.69691">
        <ele>582.6</ele>
        <time>2023-09-03T07:35:22Z</time>
      </trkpt>
      <trkpt lat="48.10287" lon="6.69693">
        <ele>582.8</ele>
        <time>2023-09-03T07:35:23Z</time>
      </trkpt>
      <trkpt lat="48.10287" lon="6.69695">
        <ele>583</ele>
        <time>2023-09-03T07:35:24Z</time>
      </trkpt>
      <trkpt lat="48.10287" lon="6.69696">
        <ele>583.2</ele>
        <time>2023-09-03T07:35:25Z</time>
      </trkpt>
      <trkpt lat="48.10287" lon="6.69698">
        <ele>583.4</ele>
        <time>2023-09-03T07:35:26Z</time>
      </trkpt>
      <trkpt lat="48.10286" lon="6.69699">
        <ele>583.6</ele>
        <time>2023-09-03T07:35:27Z</time>
      </trkpt>
      <trkpt lat="48.10286" lon="6.69702">
        <ele>584</ele>
        <time>2023-09-03T07:35:28Z</time>
      </trkpt>
      <trkpt lat="48.10286" lon="6.69705">
        <ele>584.4</ele>
        <time>2023-09-03T07:35:29Z</time>
      </trkpt>
      <trkpt lat="48.10285" lon="6.69706">
        <ele>584.6</ele>
        <time>2023-09-03T07:35:30Z</time>
      </trkpt>
      <trkpt lat="48.10286" lon="6.69708">
        <ele>584.8</ele>
        <time>2023-09-03T07:35:31Z</time>
      </trkpt>
      <trkpt lat="48.10287" lon="6.6971">
        <ele>585</ele>
        <time>2023-09-03T07:35:32Z</time>
      </trkpt>
      <trkpt lat="48.10288" lon="6.69714">
        <ele>585.4</ele>
        <time>2023-09-03T07:35:33Z</time>
      </trkpt>
      <trkpt lat="48.10288" lon="6.69715">
        <ele>585.6</ele>
        <time>2023-09-03T07:35:34Z</time>
      </trkpt>
      <trkpt lat="48.10288" lon="6.69717">
        <ele>585.6</ele>
        <time>2023-09-03T07:35:35Z</time>
      </trkpt>
      <trkpt lat="48.10289" lon="6.6972">
        <ele>585.8</ele>
        <time>2023-09-03T07:35:36Z</time>
      </trkpt>
      <trkpt lat="48.10289" lon="6.69722">
        <ele>586.2</ele>
        <time>2023-09-03T07:35:37Z</time>
      </trkpt>
      <trkpt lat="48.10289" lon="6.69723">
        <ele>586.2</ele>
        <time>2023-09-03T07:35:38Z</time>
      </trkpt>
      <trkpt lat="48.10289" lon="6.69726">
        <ele>586.6</ele>
        <time>2023-09-03T07:35:39Z</time>
      </trkpt>
      <trkpt lat="48.1029" lon="6.6973">
        <ele>586.6</ele>
        <time>2023-09-03T07:35:40Z</time>
      </trkpt>
      <trkpt lat="48.10289" lon="6.69733">
        <ele>587</ele>
        <time>2023-09-03T07:35:41Z</time>
      </trkpt>
      <trkpt lat="48.10288" lon="6.69737">
        <ele>587.2</ele>
        <time>2023-09-03T07:35:42Z</time>
      </trkpt>
      <trkpt lat="48.10288" lon="6.69743">
        <ele>587.4</ele>
        <time>2023-09-03T07:35:43Z</time>
      </trkpt>
      <trkpt lat="48.10289" lon="6.69748">
        <ele>587.6</ele>
        <time>2023-09-03T07:35:44Z</time>
      </trkpt>
      <trkpt lat="48.1029" lon="6.69751">
        <ele>587.8</ele>
        <time>2023-09-03T07:35:45Z</time>
      </trkpt>
      <trkpt lat="48.1029" lon="6.69755">
        <ele>588.2</ele>
        <time>2023-09-03T07:35:46Z</time>
      </trkpt>
      <trkpt lat="48.1029" lon="6.69759">
        <ele>588.4</ele>
        <time>2023-09-03T07:35:47Z</time>
      </trkpt>
      <trkpt lat="48.10288" lon="6.69764">
        <ele>588.6</ele>
        <time>2023-09-03T07:35:48Z</time>
      </trkpt>
      <trkpt lat="48.10287" lon="6.69766">
        <ele>588.6</ele>
        <time>2023-09-03T07:35:49Z</time>
      </trkpt>
      <trkpt lat="48.10286" lon="6.69769">
        <ele>589</ele>
        <time>2023-09-03T07:35:50Z</time>
      </trkpt>
      <trkpt lat="48.10286" lon="6.69772">
        <ele>589.2</ele>
        <time>2023-09-03T07:35:51Z</time>
      </trkpt>
      <trkpt lat="48.10286" lon="6.69775">
        <ele>589.6</ele>
        <time>2023-09-03T07:35:52Z</time>
      </trkpt>
      <trkpt lat="48.10286" lon="6.69778">
        <ele>589.8</ele>
        <time>2023-09-03T07:35:53Z</time>
      </trkpt>
      <trkpt lat="48.10285" lon="6.69779">
        <ele>590.2</ele>
        <time>2023-09-03T07:35:54Z</time>
      </trkpt>
      <trkpt lat="48.10285" lon="6.69781">
        <ele>590.2</ele>
        <time>2023-09-03T07:35:55Z</time>
      </trkpt>
      <trkpt lat="48.10284" lon="6.69783">
        <ele>590.6</ele>
        <time>2023-09-03T07:35:56Z</time>
      </trkpt>
      <trkpt lat="48.10284" lon="6.69784">
        <ele>590.8</ele>
        <time>2023-09-03T07:35:57Z</time>
      </trkpt>
      <trkpt lat="48.10281" lon="6.69786">
        <ele>591</ele>
        <time>2023-09-03T07:35:58Z</time>
      </trkpt>
      <trkpt lat="48.10282" lon="6.69788">
        <ele>591.2</ele>
        <time>2023-09-03T07:35:59Z</time>
      </trkpt>
      <trkpt lat="48.1028" lon="6.6979">
        <ele>591.4</ele>
        <time>2023-09-03T07:36:00Z</time>
      </trkpt>
      <trkpt lat="48.1028" lon="6.69792">
        <ele>591.8</ele>
        <time>2023-09-03T07:36:01Z</time>
      </trkpt>
      <trkpt lat="48.1028" lon="6.69793">
        <ele>591.8</ele>
        <time>2023-09-03T07:36:02Z</time>
      </trkpt>
      <trkpt lat="48.10279" lon="6.69795">
        <ele>592.2</ele>
        <time>2023-09-03T07:36:03Z</time>
      </trkpt>
      <trkpt lat="48.10279" lon="6.69797">
        <ele>592.4</ele>
        <time>2023-09-03T07:36:04Z</time>
      </trkpt>
      <trkpt lat="48.1028" lon="6.69799">
        <ele>592.8</ele>
        <time>2023-09-03T07:36:05Z</time>
      </trkpt>
      <trkpt lat="48.10279" lon="6.69801">
        <ele>593</ele>
        <time>2023-09-03T07:36:06Z</time>
      </trkpt>
      <trkpt lat="48.10279" lon="6.69803">
        <ele>593.2</ele>
        <time>2023-09-03T07:36:07Z</time>
      </trkpt>
      <trkpt lat="48.10279" lon="6.69806">
        <ele>593.4</ele>
        <time>2023-09-03T07:36:08Z</time>
      </trkpt>
      <trkpt lat="48.10279" lon="6.69807">
        <ele>593.8</ele>
        <time>2023-09-03T07:36:09Z</time>
      </trkpt>
      <trkpt lat="48.10279" lon="6.69809">
        <ele>594.2</ele>
        <time>2023-09-03T07:36:10Z</time>
      </trkpt>
      <trkpt lat="48.10278" lon="6.69812">
        <ele>594</ele>
        <time>2023-09-03T07:36:11Z</time>
      </trkpt>
      <trkpt lat="48.10278" lon="6.69814">
        <ele>594.4</ele>
        <time>2023-09-03T07:36:12Z</time>
      </trkpt>
      <trkpt lat="48.10278" lon="6.69816">
        <ele>594.8</ele>
        <time>2023-09-03T07:36:13Z</time>
      </trkpt>
      <trkpt lat="48.10278" lon="6.69818">
        <ele>595</ele>
        <time>2023-09-03T07:36:14Z</time>
      </trkpt>
      <trkpt lat="48.10278" lon="6.6982">
        <ele>595</ele>
        <time>2023-09-03T07:36:15Z</time>
      </trkpt>
      <trkpt lat="48.10278" lon="6.69822">
        <ele>595.2</ele>
        <time>2023-09-03T07:36:16Z</time>
      </trkpt>
      <trkpt lat="48.10278" lon="6.69824">
        <ele>595.2</ele>
        <time>2023-09-03T07:36:17Z</time>
      </trkpt>
      <trkpt lat="48.10278" lon="6.69827">
        <ele>595.6</ele>
        <time>2023-09-03T07:36:18Z</time>
      </trkpt>
      <trkpt lat="48.10278" lon="6.69828">
        <ele>595.6</ele>
        <time>2023-09-03T07:36:19Z</time>
      </trkpt>
      <trkpt lat="48.10277" lon="6.6983">
        <ele>595.8</ele>
        <time>2023-09-03T07:36:20Z</time>
      </trkpt>
      <trkpt lat="48.10276" lon="6.69832">
        <ele>596</ele>
        <time>2023-09-03T07:36:21Z</time>
      </trkpt>
      <trkpt lat="48.10276" lon="6.69835">
        <ele>596.4</ele>
        <time>2023-09-03T07:36:22Z</time>
      </trkpt>
      <trkpt lat="48.10276" lon="6.69838">
        <ele>596.4</ele>
        <time>2023-09-03T07:36:23Z</time>
      </trkpt>
      <trkpt lat="48.10277" lon="6.69841">
        <ele>596.6</ele>
        <time>2023-09-03T07:36:24Z</time>
      </trkpt>
      <trkpt lat="48.10277" lon="6.69844">
        <ele>596.8</ele>
        <time>2023-09-03T07:36:25Z</time>
      </trkpt>
      <trkpt lat="48.10277" lon="6.69847">
        <ele>596.8</ele>
        <time>2023-09-03T07:36:26Z</time>
      </trkpt>
      <trkpt lat="48.10278" lon="6.69851">
        <ele>597.2</ele>
        <time>2023-09-03T07:36:27Z</time>
      </trkpt>
      <trkpt lat="48.10278" lon="6.69854">
        <ele>597.2</ele>
        <time>2023-09-03T07:36:28Z</time>
      </trkpt>
      <trkpt lat="48.10278" lon="6.69857">
        <ele>597.6</ele>
        <time>2023-09-03T07:36:29Z</time>
      </trkpt>
      <trkpt lat="48.10278" lon="6.69861">
        <ele>597.6</ele>
        <time>2023-09-03T07:36:30Z</time>
      </trkpt>
      <trkpt lat="48.10278" lon="6.69864">
        <ele>598</ele>
        <time>2023-09-03T07:36:31Z</time>
      </trkpt>
      <trkpt lat="48.10278" lon="6.69867">
        <ele>598</ele>
        <time>2023-09-03T07:36:32Z</time>
      </trkpt>
      <trkpt lat="48.10278" lon="6.69871">
        <ele>598.2</ele>
        <time>2023-09-03T07:36:33Z</time>
      </trkpt>
      <trkpt lat="48.10277" lon="6.69875">
        <ele>598.2</ele>
        <time>2023-09-03T07:36:34Z</time>
      </trkpt>
      <trkpt lat="48.10276" lon="6.69879">
        <ele>598.4</ele>
        <time>2023-09-03T07:36:35Z</time>
      </trkpt>
      <trkpt lat="48.10275" lon="6.69882">
        <ele>598.4</ele>
        <time>2023-09-03T07:36:36Z</time>
      </trkpt>
      <trkpt lat="48.10276" lon="6.69887">
        <ele>598.6</ele>
        <time>2023-09-03T07:36:37Z</time>
      </trkpt>
      <trkpt lat="48.10275" lon="6.69891">
        <ele>598.8</ele>
        <time>2023-09-03T07:36:38Z</time>
      </trkpt>
      <trkpt lat="48.10275" lon="6.69895">
        <ele>598.8</ele>
        <time>2023-09-03T07:36:39Z</time>
      </trkpt>
      <trkpt lat="48.10275" lon="6.69899">
        <ele>599</ele>
        <time>2023-09-03T07:36:40Z</time>
      </trkpt>
      <trkpt lat="48.10275" lon="6.69904">
        <ele>599</ele>
        <time>2023-09-03T07:36:41Z</time>
      </trkpt>
      <trkpt lat="48.10276" lon="6.6991">
        <ele>599.2</ele>
        <time>2023-09-03T07:36:42Z</time>
      </trkpt>
      <trkpt lat="48.10276" lon="6.69915">
        <ele>599.2</ele>
        <time>2023-09-03T07:36:43Z</time>
      </trkpt>
      <trkpt lat="48.10277" lon="6.6992">
        <ele>599.4</ele>
        <time>2023-09-03T07:36:44Z</time>
      </trkpt>
      <trkpt lat="48.10277" lon="6.69925">
        <ele>599.4</ele>
        <time>2023-09-03T07:36:45Z</time>
      </trkpt>
      <trkpt lat="48.10277" lon="6.69929">
        <ele>599.6</ele>
        <time>2023-09-03T07:36:46Z</time>
      </trkpt>
      <trkpt lat="48.10277" lon="6.69934">
        <ele>599.8</ele>
        <time>2023-09-03T07:36:47Z</time>
      </trkpt>
      <trkpt lat="48.10276" lon="6.69938">
        <ele>600</ele>
        <time>2023-09-03T07:36:48Z</time>
      </trkpt>
      <trkpt lat="48.10275" lon="6.69942">
        <ele>600.2</ele>
        <time>2023-09-03T07:36:49Z</time>
      </trkpt>
      <trkpt lat="48.10274" lon="6.69947">
        <ele>600.4</ele>
        <time>2023-09-03T07:36:50Z</time>
      </trkpt>
      <trkpt lat="48.10273" lon="6.69951">
        <ele>600.4</ele>
        <time>2023-09-03T07:36:51Z</time>
      </trkpt>
      <trkpt lat="48.10273" lon="6.69956">
        <ele>600.4</ele>
        <time>2023-09-03T07:36:52Z</time>
      </trkpt>
      <trkpt lat="48.10273" lon="6.69962">
        <ele>600.4</ele>
        <time>2023-09-03T07:36:53Z</time>
      </trkpt>
      <trkpt lat="48.10273" lon="6.69969">
        <ele>600.6</ele>
        <time>2023-09-03T07:36:54Z</time>
      </trkpt>
      <trkpt lat="48.10274" lon="6.69977">
        <ele>600.6</ele>
        <time>2023-09-03T07:36:55Z</time>
      </trkpt>
      <trkpt lat="48.10274" lon="6.69985">
        <ele>600.6</ele>
        <time>2023-09-03T07:36:56Z</time>
      </trkpt>
      <trkpt lat="48.10275" lon="6.69995">
        <ele>600.6</ele>
        <time>2023-09-03T07:36:57Z</time>
      </trkpt>
      <trkpt lat="48.10276" lon="6.70004">
        <ele>600.6</ele>
        <time>2023-09-03T07:36:58Z</time>
      </trkpt>
      <trkpt lat="48.10277" lon="6.70013">
        <ele>600.6</ele>
        <time>2023-09-03T07:36:59Z</time>
      </trkpt>
      <trkpt lat="48.10278" lon="6.70021">
        <ele>600.6</ele>
        <time>2023-09-03T07:37:00Z</time>
      </trkpt>
      <trkpt lat="48.10279" lon="6.70028">
        <ele>600.4</ele>
        <time>2023-09-03T07:37:01Z</time>
      </trkpt>
      <trkpt lat="48.10279" lon="6.70035">
        <ele>600.4</ele>
        <time>2023-09-03T07:37:02Z</time>
      </trkpt>
      <trkpt lat="48.10279" lon="6.70041">
        <ele>600.4</ele>
        <time>2023-09-03T07:37:03Z</time>
      </trkpt>
      <trkpt lat="48.10279" lon="6.70046">
        <ele>600.4</ele>
        <time>2023-09-03T07:37:04Z</time>
      </trkpt>
      <trkpt lat="48.1028" lon="6.70051">
        <ele>600.2</ele>
        <time>2023-09-03T07:37:05Z</time>
      </trkpt>
      <trkpt lat="48.1028" lon="6.70057">
        <ele>600</ele>
        <time>2023-09-03T07:37:06Z</time>
      </trkpt>
      <trkpt lat="48.1028" lon="6.70065">
        <ele>599.8</ele>
        <time>2023-09-03T07:37:07Z</time>
      </trkpt>
      <trkpt lat="48.1028" lon="6.70073">
        <ele>599.6</ele>
        <time>2023-09-03T07:37:08Z</time>
      </trkpt>
      <trkpt lat="48.1028" lon="6.70081">
        <ele>599.4</ele>
        <time>2023-09-03T07:37:09Z</time>
      </trkpt>
      <trkpt lat="48.10281" lon="6.7009">
        <ele>599.6</ele>
        <time>2023-09-03T07:37:10Z</time>
      </trkpt>
      <trkpt lat="48.10281" lon="6.70098">
        <ele>599.6</ele>
        <time>2023-09-03T07:37:11Z</time>
      </trkpt>
      <trkpt lat="48.10281" lon="6.70105">
        <ele>599.4</ele>
        <time>2023-09-03T07:37:12Z</time>
      </trkpt>
      <trkpt lat="48.10281" lon="6.70112">
        <ele>599.2</ele>
        <time>2023-09-03T07:37:13Z</time>
      </trkpt>
      <trkpt lat="48.10281" lon="6.7012">
        <ele>599</ele>
        <time>2023-09-03T07:37:14Z</time>
      </trkpt>
      <trkpt lat="48.10281" lon="6.70128">
        <ele>599</ele>
        <time>2023-09-03T07:37:15Z</time>
      </trkpt>
      <trkpt lat="48.10279" lon="6.70134">
        <ele>598</ele>
        <time>2023-09-03T07:37:16Z</time>
      </trkpt>
      <trkpt lat="48.10277" lon="6.7014">
        <ele>597.8</ele>
        <time>2023-09-03T07:37:17Z</time>
      </trkpt>
      <trkpt lat="48.10275" lon="6.70145">
        <ele>596.8</ele>
        <time>2023-09-03T07:37:18Z</time>
      </trkpt>
      <trkpt lat="48.10273" lon="6.7015">
        <ele>596</ele>
        <time>2023-09-03T07:37:19Z</time>
      </trkpt>
      <trkpt lat="48.1027" lon="6.70154">
        <ele>595.8</ele>
        <time>2023-09-03T07:37:20Z</time>
      </trkpt>
      <trkpt lat="48.10268" lon="6.70157">
        <ele>595.4</ele>
        <time>2023-09-03T07:37:21Z</time>
      </trkpt>
      <trkpt lat="48.10264" lon="6.70159">
        <ele>595.2</ele>
        <time>2023-09-03T07:37:22Z</time>
      </trkpt>
      <trkpt lat="48.1026" lon="6.7016">
        <ele>595.2</ele>
        <time>2023-09-03T07:37:23Z</time>
      </trkpt>
      <trkpt lat="48.10255" lon="6.7016">
        <ele>595</ele>
        <time>2023-09-03T07:37:24Z</time>
      </trkpt>
      <trkpt lat="48.10251" lon="6.7016">
        <ele>595</ele>
        <time>2023-09-03T07:37:25Z</time>
      </trkpt>
      <trkpt lat="48.10248" lon="6.70161">
        <ele>595</ele>
        <time>2023-09-03T07:37:26Z</time>
      </trkpt>
      <trkpt lat="48.10244" lon="6.70162">
        <ele>595</ele>
        <time>2023-09-03T07:37:27Z</time>
      </trkpt>
      <trkpt lat="48.10241" lon="6.70162">
        <ele>595.2</ele>
        <time>2023-09-03T07:37:28Z</time>
      </trkpt>
      <trkpt lat="48.10238" lon="6.70162">
        <ele>595.2</ele>
        <time>2023-09-03T07:37:29Z</time>
      </trkpt>
      <trkpt lat="48.10235" lon="6.70161">
        <ele>595.2</ele>
        <time>2023-09-03T07:37:30Z</time>
      </trkpt>
      <trkpt lat="48.10233" lon="6.70161">
        <ele>595.4</ele>
        <time>2023-09-03T07:37:31Z</time>
      </trkpt>
      <trkpt lat="48.1023" lon="6.70161">
        <ele>595.6</ele>
        <time>2023-09-03T07:37:32Z</time>
      </trkpt>
      <trkpt lat="48.10227" lon="6.7016">
        <ele>596.2</ele>
        <time>2023-09-03T07:37:33Z</time>
      </trkpt>
      <trkpt lat="48.10223" lon="6.70159">
        <ele>597</ele>
        <time>2023-09-03T07:37:34Z</time>
      </trkpt>
      <trkpt lat="48.10219" lon="6.70158">
        <ele>597.4</ele>
        <time>2023-09-03T07:37:35Z</time>
      </trkpt>
      <trkpt lat="48.10215" lon="6.70155">
        <ele>597.6</ele>
        <time>2023-09-03T07:37:36Z</time>
      </trkpt>
      <trkpt lat="48.10211" lon="6.7015">
        <ele>598</ele>
        <time>2023-09-03T07:37:37Z</time>
      </trkpt>
      <trkpt lat="48.10207" lon="6.70143">
        <ele>598.2</ele>
        <time>2023-09-03T07:37:38Z</time>
      </trkpt>
      <trkpt lat="48.10202" lon="6.70137">
        <ele>598.2</ele>
        <time>2023-09-03T07:37:39Z</time>
      </trkpt>
      <trkpt lat="48.10196" lon="6.70132">
        <ele>598.2</ele>
        <time>2023-09-03T07:37:40Z</time>
      </trkpt>
      <trkpt lat="48.10189" lon="6.70131">
        <ele>598.2</ele>
        <time>2023-09-03T07:37:41Z</time>
      </trkpt>
      <trkpt lat="48.1018" lon="6.70131">
        <ele>598</ele>
        <time>2023-09-03T07:37:42Z</time>
      </trkpt>
      <trkpt lat="48.10172" lon="6.70133">
        <ele>598</ele>
        <time>2023-09-03T07:37:43Z</time>
      </trkpt>
      <trkpt lat="48.10165" lon="6.70136">
        <ele>598</ele>
        <time>2023-09-03T07:37:44Z</time>
      </trkpt>
      <trkpt lat="48.10158" lon="6.70139">
        <ele>597.6</ele>
        <time>2023-09-03T07:37:45Z</time>
      </trkpt>
      <trkpt lat="48.1015" lon="6.70142">
        <ele>597.2</ele>
        <time>2023-09-03T07:37:46Z</time>
      </trkpt>
      <trkpt lat="48.10143" lon="6.70146">
        <ele>597</ele>
        <time>2023-09-03T07:37:47Z</time>
      </trkpt>
      <trkpt lat="48.10135" lon="6.7015">
        <ele>596.8</ele>
        <time>2023-09-03T07:37:48Z</time>
      </trkpt>
      <trkpt lat="48.10126" lon="6.70155">
        <ele>596.4</ele>
        <time>2023-09-03T07:37:49Z</time>
      </trkpt>
      <trkpt lat="48.10119" lon="6.70161">
        <ele>596.4</ele>
        <time>2023-09-03T07:37:50Z</time>
      </trkpt>
      <trkpt lat="48.10111" lon="6.70168">
        <ele>596.2</ele>
        <time>2023-09-03T07:37:51Z</time>
      </trkpt>
      <trkpt lat="48.10103" lon="6.70175">
        <ele>596</ele>
        <time>2023-09-03T07:37:52Z</time>
      </trkpt>
      <trkpt lat="48.10094" lon="6.70181">
        <ele>595.4</ele>
        <time>2023-09-03T07:37:53Z</time>
      </trkpt>
      <trkpt lat="48.10085" lon="6.70188">
        <ele>595</ele>
        <time>2023-09-03T07:37:54Z</time>
      </trkpt>
      <trkpt lat="48.10075" lon="6.70194">
        <ele>594.6</ele>
        <time>2023-09-03T07:37:55Z</time>
      </trkpt>
      <trkpt lat="48.10066" lon="6.70201">
        <ele>594.2</ele>
        <time>2023-09-03T07:37:56Z</time>
      </trkpt>
      <trkpt lat="48.10056" lon="6.70208">
        <ele>593.8</ele>
        <time>2023-09-03T07:37:57Z</time>
      </trkpt>
      <trkpt lat="48.10047" lon="6.70214">
        <ele>593</ele>
        <time>2023-09-03T07:37:58Z</time>
      </trkpt>
      <trkpt lat="48.10037" lon="6.70221">
        <ele>592.4</ele>
        <time>2023-09-03T07:37:59Z</time>
      </trkpt>
      <trkpt lat="48.10028" lon="6.70227">
        <ele>591.6</ele>
        <time>2023-09-03T07:38:00Z</time>
      </trkpt>
      <trkpt lat="48.10018" lon="6.70233">
        <ele>591.4</ele>
        <time>2023-09-03T07:38:01Z</time>
      </trkpt>
      <trkpt lat="48.10009" lon="6.7024">
        <ele>590.4</ele>
        <time>2023-09-03T07:38:02Z</time>
      </trkpt>
      <trkpt lat="48.1" lon="6.70247">
        <ele>589.4</ele>
        <time>2023-09-03T07:38:03Z</time>
      </trkpt>
      <trkpt lat="48.09991" lon="6.70255">
        <ele>588</ele>
        <time>2023-09-03T07:38:04Z</time>
      </trkpt>
      <trkpt lat="48.09983" lon="6.70263">
        <ele>587.2</ele>
        <time>2023-09-03T07:38:05Z</time>
      </trkpt>
      <trkpt lat="48.09976" lon="6.70271">
        <ele>586.4</ele>
        <time>2023-09-03T07:38:06Z</time>
      </trkpt>
      <trkpt lat="48.09971" lon="6.70278">
        <ele>585.8</ele>
        <time>2023-09-03T07:38:07Z</time>
      </trkpt>
      <trkpt lat="48.09966" lon="6.70285">
        <ele>585</ele>
        <time>2023-09-03T07:38:08Z</time>
      </trkpt>
      <trkpt lat="48.09964" lon="6.70292">
        <ele>584.6</ele>
        <time>2023-09-03T07:38:09Z</time>
      </trkpt>
      <trkpt lat="48.09962" lon="6.70298">
        <ele>583.2</ele>
        <time>2023-09-03T07:38:10Z</time>
      </trkpt>
      <trkpt lat="48.09961" lon="6.70303">
        <ele>581.8</ele>
        <time>2023-09-03T07:38:11Z</time>
      </trkpt>
      <trkpt lat="48.09961" lon="6.70307">
        <ele>581.2</ele>
        <time>2023-09-03T07:38:12Z</time>
      </trkpt>
      <trkpt lat="48.0996" lon="6.7031">
        <ele>580.6</ele>
        <time>2023-09-03T07:38:13Z</time>
      </trkpt>
      <trkpt lat="48.0996" lon="6.70312">
        <ele>580.6</ele>
        <time>2023-09-03T07:38:14Z</time>
      </trkpt>
      <trkpt lat="48.09959" lon="6.70315">
        <ele>580.4</ele>
        <time>2023-09-03T07:38:15Z</time>
      </trkpt>
      <trkpt lat="48.09958" lon="6.70319">
        <ele>580.4</ele>
        <time>2023-09-03T07:38:16Z</time>
      </trkpt>
      <trkpt lat="48.09957" lon="6.70322">
        <ele>580.6</ele>
        <time>2023-09-03T07:38:17Z</time>
      </trkpt>
      <trkpt lat="48.09957" lon="6.70324">
        <ele>580.4</ele>
        <time>2023-09-03T07:38:18Z</time>
      </trkpt>
      <trkpt lat="48.09956" lon="6.70326">
        <ele>580.4</ele>
        <time>2023-09-03T07:38:19Z</time>
      </trkpt>
      <trkpt lat="48.09955" lon="6.70328">
        <ele>580.4</ele>
        <time>2023-09-03T07:38:20Z</time>
      </trkpt>
      <trkpt lat="48.09955" lon="6.70329">
        <ele>580.6</ele>
        <time>2023-09-03T07:38:21Z</time>
      </trkpt>
      <trkpt lat="48.09953" lon="6.7033">
        <ele>580.8</ele>
        <time>2023-09-03T07:38:22Z</time>
      </trkpt>
      <trkpt lat="48.09952" lon="6.70332">
        <ele>581.2</ele>
        <time>2023-09-03T07:38:23Z</time>
      </trkpt>
      <trkpt lat="48.09953" lon="6.70335">
        <ele>581.4</ele>
        <time>2023-09-03T07:38:24Z</time>
      </trkpt>
      <trkpt lat="48.09952" lon="6.70339">
        <ele>581.6</ele>
        <time>2023-09-03T07:38:25Z</time>
      </trkpt>
      <trkpt lat="48.09951" lon="6.70344">
        <ele>581.8</ele>
        <time>2023-09-03T07:38:26Z</time>
      </trkpt>
      <trkpt lat="48.09949" lon="6.70346">
        <ele>582</ele>
        <time>2023-09-03T07:38:27Z</time>
      </trkpt>
      <trkpt lat="48.09949" lon="6.70348">
        <ele>582.4</ele>
        <time>2023-09-03T07:38:28Z</time>
      </trkpt>
      <trkpt lat="48.09948" lon="6.70352">
        <ele>582.8</ele>
        <time>2023-09-03T07:38:29Z</time>
      </trkpt>
      <trkpt lat="48.09948" lon="6.70354">
        <ele>583.6</ele>
        <time>2023-09-03T07:38:30Z</time>
      </trkpt>
      <trkpt lat="48.09946" lon="6.70357">
        <ele>584</ele>
        <time>2023-09-03T07:38:31Z</time>
      </trkpt>
      <trkpt lat="48.09945" lon="6.70362">
        <ele>584.4</ele>
        <time>2023-09-03T07:38:32Z</time>
      </trkpt>
      <trkpt lat="48.09944" lon="6.70367">
        <ele>584.6</ele>
        <time>2023-09-03T07:38:33Z</time>
      </trkpt>
      <trkpt lat="48.09943" lon="6.70373">
        <ele>585</ele>
        <time>2023-09-03T07:38:34Z</time>
      </trkpt>
      <trkpt lat="48.09943" lon="6.70375">
        <ele>585.2</ele>
        <time>2023-09-03T07:38:35Z</time>
      </trkpt>
      <trkpt lat="48.09943" lon="6.70377">
        <ele>585.8</ele>
        <time>2023-09-03T07:38:36Z</time>
      </trkpt>
      <trkpt lat="48.09944" lon="6.7038">
        <ele>586.2</ele>
        <time>2023-09-03T07:38:37Z</time>
      </trkpt>
      <trkpt lat="48.09943" lon="6.70383">
        <ele>586.2</ele>
        <time>2023-09-03T07:38:38Z</time>
      </trkpt>
      <trkpt lat="48.09943" lon="6.70385">
        <ele>586.8</ele>
        <time>2023-09-03T07:38:39Z</time>
      </trkpt>
      <trkpt lat="48.09943" lon="6.70388">
        <ele>586.8</ele>
        <time>2023-09-03T07:38:40Z</time>
      </trkpt>
      <trkpt lat="48.09943" lon="6.70392">
        <ele>587.2</ele>
        <time>2023-09-03T07:38:41Z</time>
      </trkpt>
      <trkpt lat="48.09943" lon="6.70397">
        <ele>587.4</ele>
        <time>2023-09-03T07:38:42Z</time>
      </trkpt>
      <trkpt lat="48.09942" lon="6.70398">
        <ele>587.8</ele>
        <time>2023-09-03T07:38:43Z</time>
      </trkpt>
      <trkpt lat="48.0994" lon="6.704">
        <ele>588</ele>
        <time>2023-09-03T07:38:44Z</time>
      </trkpt>
      <trkpt lat="48.09939" lon="6.70401">
        <ele>588.4</ele>
        <time>2023-09-03T07:38:45Z</time>
      </trkpt>
      <trkpt lat="48.09939" lon="6.70405">
        <ele>588.6</ele>
        <time>2023-09-03T07:38:46Z</time>
      </trkpt>
      <trkpt lat="48.0994" lon="6.70409">
        <ele>588.8</ele>
        <time>2023-09-03T07:38:47Z</time>
      </trkpt>
      <trkpt lat="48.0994" lon="6.70414">
        <ele>589</ele>
        <time>2023-09-03T07:38:48Z</time>
      </trkpt>
      <trkpt lat="48.09939" lon="6.70419">
        <ele>589.4</ele>
        <time>2023-09-03T07:38:49Z</time>
      </trkpt>
      <trkpt lat="48.09938" lon="6.70422">
        <ele>589.6</ele>
        <time>2023-09-03T07:38:50Z</time>
      </trkpt>
      <trkpt lat="48.09939" lon="6.70426">
        <ele>589.8</ele>
        <time>2023-09-03T07:38:51Z</time>
      </trkpt>
      <trkpt lat="48.09941" lon="6.70428">
        <ele>590.4</ele>
        <time>2023-09-03T07:38:52Z</time>
      </trkpt>
      <trkpt lat="48.09942" lon="6.7043">
        <ele>590.6</ele>
        <time>2023-09-03T07:38:53Z</time>
      </trkpt>
      <trkpt lat="48.09942" lon="6.70434">
        <ele>590.8</ele>
        <time>2023-09-03T07:38:54Z</time>
      </trkpt>
      <trkpt lat="48.09942" lon="6.70436">
        <ele>591</ele>
        <time>2023-09-03T07:38:55Z</time>
      </trkpt>
      <trkpt lat="48.09941" lon="6.70437">
        <ele>591.2</ele>
        <time>2023-09-03T07:38:56Z</time>
      </trkpt>
      <trkpt lat="48.09941" lon="6.70438">
        <ele>591.4</ele>
        <time>2023-09-03T07:38:57Z</time>
      </trkpt>
      <trkpt lat="48.0994" lon="6.70439">
        <ele>591.8</ele>
        <time>2023-09-03T07:38:58Z</time>
      </trkpt>
      <trkpt lat="48.0994" lon="6.7044">
        <ele>592.2</ele>
        <time>2023-09-03T07:38:59Z</time>
      </trkpt>
      <trkpt lat="48.0994" lon="6.70442">
        <ele>592.6</ele>
        <time>2023-09-03T07:39:00Z</time>
      </trkpt>
      <trkpt lat="48.09939" lon="6.70443">
        <ele>592.8</ele>
        <time>2023-09-03T07:39:01Z</time>
      </trkpt>
      <trkpt lat="48.09938" lon="6.70444">
        <ele>593.2</ele>
        <time>2023-09-03T07:39:02Z</time>
      </trkpt>
      <trkpt lat="48.09937" lon="6.70447">
        <ele>593.2</ele>
        <time>2023-09-03T07:39:03Z</time>
      </trkpt>
      <trkpt lat="48.09937" lon="6.70448">
        <ele>593.4</ele>
        <time>2023-09-03T07:39:04Z</time>
      </trkpt>
      <trkpt lat="48.09937" lon="6.70448">
        <ele>593.6</ele>
        <time>2023-09-03T07:39:05Z</time>
      </trkpt>
      <trkpt lat="48.09937" lon="6.70448">
        <ele>593.8</ele>
        <time>2023-09-03T07:39:06Z</time>
      </trkpt>
      <trkpt lat="48.09937" lon="6.70451">
        <ele>594.2</ele>
        <time>2023-09-03T07:39:07Z</time>
      </trkpt>
      <trkpt lat="48.09937" lon="6.70451">
        <ele>594.4</ele>
        <time>2023-09-03T07:39:08Z</time>
      </trkpt>
      <trkpt lat="48.09935" lon="6.70454">
        <ele>594.8</ele>
        <time>2023-09-03T07:39:09Z</time>
      </trkpt>
      <trkpt lat="48.09934" lon="6.70454">
        <ele>595</ele>
        <time>2023-09-03T07:39:10Z</time>
      </trkpt>
      <trkpt lat="48.09934" lon="6.70455">
        <ele>595.4</ele>
        <time>2023-09-03T07:39:11Z</time>
      </trkpt>
      <trkpt lat="48.09933" lon="6.70459">
        <ele>595.4</ele>
        <time>2023-09-03T07:39:12Z</time>
      </trkpt>
      <trkpt lat="48.09933" lon="6.70464">
        <ele>595.8</ele>
        <time>2023-09-03T07:39:13Z</time>
      </trkpt>
      <trkpt lat="48.09934" lon="6.70466">
        <ele>596</ele>
        <time>2023-09-03T07:39:14Z</time>
      </trkpt>
      <trkpt lat="48.09934" lon="6.70467">
        <ele>596.4</ele>
        <time>2023-09-03T07:39:15Z</time>
      </trkpt>
      <trkpt lat="48.09932" lon="6.70469">
        <ele>596.6</ele>
        <time>2023-09-03T07:39:16Z</time>
      </trkpt>
      <trkpt lat="48.09932" lon="6.70472">
        <ele>596.8</ele>
        <time>2023-09-03T07:39:17Z</time>
      </trkpt>
      <trkpt lat="48.09932" lon="6.70472">
        <ele>597.2</ele>
        <time>2023-09-03T07:39:18Z</time>
      </trkpt>
      <trkpt lat="48.0993" lon="6.70473">
        <ele>597.4</ele>
        <time>2023-09-03T07:39:19Z</time>
      </trkpt>
      <trkpt lat="48.0993" lon="6.70474">
        <ele>597.6</ele>
        <time>2023-09-03T07:39:20Z</time>
      </trkpt>
      <trkpt lat="48.0993" lon="6.70474">
        <ele>597.6</ele>
        <time>2023-09-03T07:39:21Z</time>
      </trkpt>
      <trkpt lat="48.0993" lon="6.70476">
        <ele>597.8</ele>
        <time>2023-09-03T07:39:22Z</time>
      </trkpt>
      <trkpt lat="48.0993" lon="6.70476">
        <ele>598</ele>
        <time>2023-09-03T07:39:23Z</time>
      </trkpt>
      <trkpt lat="48.0993" lon="6.70476">
        <ele>598.2</ele>
        <time>2023-09-03T07:39:24Z</time>
      </trkpt>
      <trkpt lat="48.0993" lon="6.70476">
        <ele>598.4</ele>
        <time>2023-09-03T07:39:25Z</time>
      </trkpt>
      <trkpt lat="48.0993" lon="6.7048">
        <ele>598.8</ele>
        <time>2023-09-03T07:39:26Z</time>
      </trkpt>
      <trkpt lat="48.09932" lon="6.70486">
        <ele>599</ele>
        <time>2023-09-03T07:39:27Z</time>
      </trkpt>
      <trkpt lat="48.09931" lon="6.7049">
        <ele>599.4</ele>
        <time>2023-09-03T07:39:28Z</time>
      </trkpt>
      <trkpt lat="48.09931" lon="6.70491">
        <ele>599.6</ele>
        <time>2023-09-03T07:39:29Z</time>
      </trkpt>
      <trkpt lat="48.09931" lon="6.70491">
        <ele>600</ele>
        <time>2023-09-03T07:39:30Z</time>
      </trkpt>
      <trkpt lat="48.09931" lon="6.70491">
        <ele>600.2</ele>
        <time>2023-09-03T07:39:31Z</time>
      </trkpt>
      <trkpt lat="48.09931" lon="6.70491">
        <ele>600.4</ele>
        <time>2023-09-03T07:39:32Z</time>
      </trkpt>
      <trkpt lat="48.09931" lon="6.70495">
        <ele>600.6</ele>
        <time>2023-09-03T07:39:33Z</time>
      </trkpt>
      <trkpt lat="48.09929" lon="6.70498">
        <ele>600.6</ele>
        <time>2023-09-03T07:39:34Z</time>
      </trkpt>
      <trkpt lat="48.09929" lon="6.70498">
        <ele>601</ele>
        <time>2023-09-03T07:39:35Z</time>
      </trkpt>
      <trkpt lat="48.09929" lon="6.70501">
        <ele>601.2</ele>
        <time>2023-09-03T07:39:36Z</time>
      </trkpt>
      <trkpt lat="48.09929" lon="6.70503">
        <ele>601.6</ele>
        <time>2023-09-03T07:39:37Z</time>
      </trkpt>
      <trkpt lat="48.09929" lon="6.70503">
        <ele>601.8</ele>
        <time>2023-09-03T07:39:38Z</time>
      </trkpt>
      <trkpt lat="48.09928" lon="6.70506">
        <ele>602</ele>
        <time>2023-09-03T07:39:39Z</time>
      </trkpt>
      <trkpt lat="48.09928" lon="6.70509">
        <ele>602</ele>
        <time>2023-09-03T07:39:40Z</time>
      </trkpt>
      <trkpt lat="48.09929" lon="6.70512">
        <ele>602.4</ele>
        <time>2023-09-03T07:39:41Z</time>
      </trkpt>
      <trkpt lat="48.09929" lon="6.70516">
        <ele>602.6</ele>
        <time>2023-09-03T07:39:42Z</time>
      </trkpt>
      <trkpt lat="48.09929" lon="6.70521">
        <ele>602.8</ele>
        <time>2023-09-03T07:39:43Z</time>
      </trkpt>
      <trkpt lat="48.09929" lon="6.70527">
        <ele>603.2</ele>
        <time>2023-09-03T07:39:44Z</time>
      </trkpt>
      <trkpt lat="48.09928" lon="6.7053">
        <ele>603.4</ele>
        <time>2023-09-03T07:39:45Z</time>
      </trkpt>
      <trkpt lat="48.09927" lon="6.70531">
        <ele>603.6</ele>
        <time>2023-09-03T07:39:46Z</time>
      </trkpt>
      <trkpt lat="48.09928" lon="6.70534">
        <ele>603.6</ele>
        <time>2023-09-03T07:39:47Z</time>
      </trkpt>
      <trkpt lat="48.09928" lon="6.70537">
        <ele>603.8</ele>
        <time>2023-09-03T07:39:48Z</time>
      </trkpt>
      <trkpt lat="48.09929" lon="6.70541">
        <ele>603.8</ele>
        <time>2023-09-03T07:39:49Z</time>
      </trkpt>
      <trkpt lat="48.0993" lon="6.70543">
        <ele>604</ele>
        <time>2023-09-03T07:39:50Z</time>
      </trkpt>
      <trkpt lat="48.0993" lon="6.70547">
        <ele>604</ele>
        <time>2023-09-03T07:39:51Z</time>
      </trkpt>
      <trkpt lat="48.09928" lon="6.70551">
        <ele>604.2</ele>
        <time>2023-09-03T07:39:52Z</time>
      </trkpt>
      <trkpt lat="48.09927" lon="6.70555">
        <ele>604.2</ele>
        <time>2023-09-03T07:39:53Z</time>
      </trkpt>
      <trkpt lat="48.09927" lon="6.7056">
        <ele>604.4</ele>
        <time>2023-09-03T07:39:54Z</time>
      </trkpt>
      <trkpt lat="48.09926" lon="6.70563">
        <ele>604.4</ele>
        <time>2023-09-03T07:39:55Z</time>
      </trkpt>
      <trkpt lat="48.09926" lon="6.70565">
        <ele>604.6</ele>
        <time>2023-09-03T07:39:56Z</time>
      </trkpt>
      <trkpt lat="48.09925" lon="6.70569">
        <ele>604.8</ele>
        <time>2023-09-03T07:39:57Z</time>
      </trkpt>
      <trkpt lat="48.09925" lon="6.70573">
        <ele>604.8</ele>
        <time>2023-09-03T07:39:58Z</time>
      </trkpt>
      <trkpt lat="48.09924" lon="6.70578">
        <ele>604.8</ele>
        <time>2023-09-03T07:39:59Z</time>
      </trkpt>
      <trkpt lat="48.09923" lon="6.70583">
        <ele>605</ele>
        <time>2023-09-03T07:40:00Z</time>
      </trkpt>
      <trkpt lat="48.09921" lon="6.70588">
        <ele>605</ele>
        <time>2023-09-03T07:40:01Z</time>
      </trkpt>
      <trkpt lat="48.09919" lon="6.70592">
        <ele>605</ele>
        <time>2023-09-03T07:40:02Z</time>
      </trkpt>
      <trkpt lat="48.09916" lon="6.70598">
        <ele>605.2</ele>
        <time>2023-09-03T07:40:03Z</time>
      </trkpt>
      <trkpt lat="48.09914" lon="6.70603">
        <ele>605.2</ele>
        <time>2023-09-03T07:40:04Z</time>
      </trkpt>
      <trkpt lat="48.09912" lon="6.70606">
        <ele>605.2</ele>
        <time>2023-09-03T07:40:05Z</time>
      </trkpt>
      <trkpt lat="48.09911" lon="6.70612">
        <ele>605.2</ele>
        <time>2023-09-03T07:40:06Z</time>
      </trkpt>
      <trkpt lat="48.0991" lon="6.70615">
        <ele>605.2</ele>
        <time>2023-09-03T07:40:07Z</time>
      </trkpt>
      <trkpt lat="48.09908" lon="6.70621">
        <ele>605.4</ele>
        <time>2023-09-03T07:40:08Z</time>
      </trkpt>
      <trkpt lat="48.09907" lon="6.70627">
        <ele>605.4</ele>
        <time>2023-09-03T07:40:09Z</time>
      </trkpt>
      <trkpt lat="48.09905" lon="6.7063">
        <ele>605.4</ele>
        <time>2023-09-03T07:40:10Z</time>
      </trkpt>
      <trkpt lat="48.09902" lon="6.70634">
        <ele>605.4</ele>
        <time>2023-09-03T07:40:11Z</time>
      </trkpt>
      <trkpt lat="48.09902" lon="6.70642">
        <ele>605.2</ele>
        <time>2023-09-03T07:40:12Z</time>
      </trkpt>
      <trkpt lat="48.09902" lon="6.7065">
        <ele>605.2</ele>
        <time>2023-09-03T07:40:13Z</time>
      </trkpt>
      <trkpt lat="48.09902" lon="6.70656">
        <ele>605.2</ele>
        <time>2023-09-03T07:40:14Z</time>
      </trkpt>
      <trkpt lat="48.099" lon="6.7066">
        <ele>605</ele>
        <time>2023-09-03T07:40:15Z</time>
      </trkpt>
      <trkpt lat="48.09898" lon="6.70663">
        <ele>605</ele>
        <time>2023-09-03T07:40:16Z</time>
      </trkpt>
      <trkpt lat="48.09896" lon="6.70667">
        <ele>605</ele>
        <time>2023-09-03T07:40:17Z</time>
      </trkpt>
      <trkpt lat="48.09894" lon="6.70671">
        <ele>605</ele>
        <time>2023-09-03T07:40:18Z</time>
      </trkpt>
      <trkpt lat="48.09892" lon="6.70674">
        <ele>605</ele>
        <time>2023-09-03T07:40:19Z</time>
      </trkpt>
      <trkpt lat="48.09887" lon="6.70678">
        <ele>605</ele>
        <time>2023-09-03T07:40:20Z</time>
      </trkpt>
      <trkpt lat="48.09884" lon="6.70685">
        <ele>605</ele>
        <time>2023-09-03T07:40:21Z</time>
      </trkpt>
      <trkpt lat="48.09882" lon="6.70689">
        <ele>605</ele>
        <time>2023-09-03T07:40:22Z</time>
      </trkpt>
      <trkpt lat="48.09881" lon="6.70695">
        <ele>604.8</ele>
        <time>2023-09-03T07:40:23Z</time>
      </trkpt>
      <trkpt lat="48.09879" lon="6.70702">
        <ele>604.8</ele>
        <time>2023-09-03T07:40:24Z</time>
      </trkpt>
      <trkpt lat="48.09879" lon="6.70708">
        <ele>605</ele>
        <time>2023-09-03T07:40:25Z</time>
      </trkpt>
      <trkpt lat="48.09877" lon="6.70713">
        <ele>605</ele>
        <time>2023-09-03T07:40:26Z</time>
      </trkpt>
      <trkpt lat="48.09875" lon="6.70717">
        <ele>605</ele>
        <time>2023-09-03T07:40:27Z</time>
      </trkpt>
      <trkpt lat="48.09873" lon="6.70721">
        <ele>605.2</ele>
        <time>2023-09-03T07:40:28Z</time>
      </trkpt>
      <trkpt lat="48.09872" lon="6.70724">
        <ele>605.2</ele>
        <time>2023-09-03T07:40:29Z</time>
      </trkpt>
      <trkpt lat="48.09871" lon="6.70728">
        <ele>605.4</ele>
        <time>2023-09-03T07:40:30Z</time>
      </trkpt>
      <trkpt lat="48.09869" lon="6.70734">
        <ele>605.6</ele>
        <time>2023-09-03T07:40:31Z</time>
      </trkpt>
      <trkpt lat="48.09868" lon="6.70737">
        <ele>605.8</ele>
        <time>2023-09-03T07:40:32Z</time>
      </trkpt>
      <trkpt lat="48.09866" lon="6.7074">
        <ele>606</ele>
        <time>2023-09-03T07:40:33Z</time>
      </trkpt>
      <trkpt lat="48.09866" lon="6.70746">
        <ele>606</ele>
        <time>2023-09-03T07:40:34Z</time>
      </trkpt>
      <trkpt lat="48.09863" lon="6.70751">
        <ele>606.2</ele>
        <time>2023-09-03T07:40:35Z</time>
      </trkpt>
      <trkpt lat="48.09861" lon="6.70753">
        <ele>606.4</ele>
        <time>2023-09-03T07:40:36Z</time>
      </trkpt>
      <trkpt lat="48.09861" lon="6.70756">
        <ele>606.6</ele>
        <time>2023-09-03T07:40:37Z</time>
      </trkpt>
      <trkpt lat="48.0986" lon="6.70758">
        <ele>606.8</ele>
        <time>2023-09-03T07:40:38Z</time>
      </trkpt>
      <trkpt lat="48.09862" lon="6.70762">
        <ele>606.8</ele>
        <time>2023-09-03T07:40:39Z</time>
      </trkpt>
      <trkpt lat="48.09862" lon="6.70764">
        <ele>607</ele>
        <time>2023-09-03T07:40:40Z</time>
      </trkpt>
      <trkpt lat="48.09862" lon="6.70766">
        <ele>607.2</ele>
        <time>2023-09-03T07:40:41Z</time>
      </trkpt>
      <trkpt lat="48.09862" lon="6.70767">
        <ele>607.4</ele>
        <time>2023-09-03T07:40:42Z</time>
      </trkpt>
      <trkpt lat="48.09862" lon="6.7077">
        <ele>607.4</ele>
        <time>2023-09-03T07:40:43Z</time>
      </trkpt>
      <trkpt lat="48.09862" lon="6.70771">
        <ele>607.6</ele>
        <time>2023-09-03T07:40:44Z</time>
      </trkpt>
      <trkpt lat="48.09862" lon="6.70772">
        <ele>607.6</ele>
        <time>2023-09-03T07:40:45Z</time>
      </trkpt>
      <trkpt lat="48.09862" lon="6.70772">
        <ele>608</ele>
        <time>2023-09-03T07:40:46Z</time>
      </trkpt>
      <trkpt lat="48.09861" lon="6.70774">
        <ele>608.2</ele>
        <time>2023-09-03T07:40:47Z</time>
      </trkpt>
      <trkpt lat="48.0986" lon="6.70776">
        <ele>608.6</ele>
        <time>2023-09-03T07:40:48Z</time>
      </trkpt>
      <trkpt lat="48.0986" lon="6.70777">
        <ele>609.2</ele>
        <time>2023-09-03T07:40:49Z</time>
      </trkpt>
      <trkpt lat="48.09859" lon="6.70777">
        <ele>609.4</ele>
        <time>2023-09-03T07:40:50Z</time>
      </trkpt>
      <trkpt lat="48.09859" lon="6.70777">
        <ele>609.6</ele>
        <time>2023-09-03T07:40:51Z</time>
      </trkpt>
      <trkpt lat="48.09859" lon="6.70778">
        <ele>609.6</ele>
        <time>2023-09-03T07:40:52Z</time>
      </trkpt>
      <trkpt lat="48.09858" lon="6.70781">
        <ele>610</ele>
        <time>2023-09-03T07:40:53Z</time>
      </trkpt>
      <trkpt lat="48.09858" lon="6.70784">
        <ele>610.2</ele>
        <time>2023-09-03T07:40:54Z</time>
      </trkpt>
      <trkpt lat="48.09858" lon="6.70787">
        <ele>611</ele>
        <time>2023-09-03T07:40:55Z</time>
      </trkpt>
      <trkpt lat="48.09858" lon="6.70788">
        <ele>611.2</ele>
        <time>2023-09-03T07:40:56Z</time>
      </trkpt>
      <trkpt lat="48.09858" lon="6.7079">
        <ele>611.6</ele>
        <time>2023-09-03T07:40:57Z</time>
      </trkpt>
      <trkpt lat="48.09858" lon="6.70791">
        <ele>611.8</ele>
        <time>2023-09-03T07:40:58Z</time>
      </trkpt>
      <trkpt lat="48.09858" lon="6.70794">
        <ele>612</ele>
        <time>2023-09-03T07:40:59Z</time>
      </trkpt>
      <trkpt lat="48.09858" lon="6.70798">
        <ele>612</ele>
        <time>2023-09-03T07:41:00Z</time>
      </trkpt>
      <trkpt lat="48.09858" lon="6.70801">
        <ele>612.4</ele>
        <time>2023-09-03T07:41:01Z</time>
      </trkpt>
      <trkpt lat="48.09858" lon="6.70803">
        <ele>612.6</ele>
        <time>2023-09-03T07:41:02Z</time>
      </trkpt>
      <trkpt lat="48.09859" lon="6.70808">
        <ele>612.8</ele>
        <time>2023-09-03T07:41:03Z</time>
      </trkpt>
      <trkpt lat="48.0986" lon="6.70812">
        <ele>613.2</ele>
        <time>2023-09-03T07:41:04Z</time>
      </trkpt>
      <trkpt lat="48.09862" lon="6.70814">
        <ele>613.6</ele>
        <time>2023-09-03T07:41:05Z</time>
      </trkpt>
      <trkpt lat="48.09864" lon="6.70817">
        <ele>614</ele>
        <time>2023-09-03T07:41:06Z</time>
      </trkpt>
      <trkpt lat="48.09864" lon="6.70818">
        <ele>614.2</ele>
        <time>2023-09-03T07:41:07Z</time>
      </trkpt>
      <trkpt lat="48.09865" lon="6.70823">
        <ele>614.6</ele>
        <time>2023-09-03T07:41:08Z</time>
      </trkpt>
      <trkpt lat="48.09865" lon="6.70824">
        <ele>614.8</ele>
        <time>2023-09-03T07:41:09Z</time>
      </trkpt>
      <trkpt lat="48.09866" lon="6.70826">
        <ele>615.4</ele>
        <time>2023-09-03T07:41:10Z</time>
      </trkpt>
      <trkpt lat="48.09866" lon="6.7083">
        <ele>615.6</ele>
        <time>2023-09-03T07:41:11Z</time>
      </trkpt>
      <trkpt lat="48.09869" lon="6.70837">
        <ele>615.8</ele>
        <time>2023-09-03T07:41:12Z</time>
      </trkpt>
      <trkpt lat="48.09869" lon="6.70844">
        <ele>616</ele>
        <time>2023-09-03T07:41:13Z</time>
      </trkpt>
      <trkpt lat="48.09869" lon="6.7085">
        <ele>616.4</ele>
        <time>2023-09-03T07:41:14Z</time>
      </trkpt>
      <trkpt lat="48.0987" lon="6.70856">
        <ele>616.8</ele>
        <time>2023-09-03T07:41:15Z</time>
      </trkpt>
      <trkpt lat="48.09869" lon="6.7086">
        <ele>617</ele>
        <time>2023-09-03T07:41:16Z</time>
      </trkpt>
      <trkpt lat="48.09869" lon="6.70863">
        <ele>617.6</ele>
        <time>2023-09-03T07:41:17Z</time>
      </trkpt>
      <trkpt lat="48.09868" lon="6.70867">
        <ele>617.8</ele>
        <time>2023-09-03T07:41:18Z</time>
      </trkpt>
      <trkpt lat="48.09867" lon="6.7087">
        <ele>618</ele>
        <time>2023-09-03T07:41:19Z</time>
      </trkpt>
      <trkpt lat="48.09866" lon="6.70873">
        <ele>618</ele>
        <time>2023-09-03T07:41:20Z</time>
      </trkpt>
      <trkpt lat="48.09865" lon="6.70879">
        <ele>618.2</ele>
        <time>2023-09-03T07:41:21Z</time>
      </trkpt>
      <trkpt lat="48.09865" lon="6.70882">
        <ele>618.2</ele>
        <time>2023-09-03T07:41:22Z</time>
      </trkpt>
      <trkpt lat="48.09864" lon="6.70884">
        <ele>618.6</ele>
        <time>2023-09-03T07:41:23Z</time>
      </trkpt>
      <trkpt lat="48.09865" lon="6.70885">
        <ele>618.6</ele>
        <time>2023-09-03T07:41:24Z</time>
      </trkpt>
      <trkpt lat="48.09865" lon="6.70885">
        <ele>618.8</ele>
        <time>2023-09-03T07:41:25Z</time>
      </trkpt>
      <trkpt lat="48.09864" lon="6.70889">
        <ele>618.8</ele>
        <time>2023-09-03T07:41:26Z</time>
      </trkpt>
      <trkpt lat="48.09865" lon="6.70892">
        <ele>619</ele>
        <time>2023-09-03T07:41:27Z</time>
      </trkpt>
      <trkpt lat="48.09864" lon="6.70894">
        <ele>619.2</ele>
        <time>2023-09-03T07:41:28Z</time>
      </trkpt>
      <trkpt lat="48.09863" lon="6.70898">
        <ele>619.2</ele>
        <time>2023-09-03T07:41:29Z</time>
      </trkpt>
      <trkpt lat="48.09861" lon="6.70902">
        <ele>619.2</ele>
        <time>2023-09-03T07:41:30Z</time>
      </trkpt>
      <trkpt lat="48.09857" lon="6.7091">
        <ele>619.2</ele>
        <time>2023-09-03T07:41:31Z</time>
      </trkpt>
      <trkpt lat="48.09853" lon="6.70915">
        <ele>619.2</ele>
        <time>2023-09-03T07:41:32Z</time>
      </trkpt>
      <trkpt lat="48.0985" lon="6.70923">
        <ele>619</ele>
        <time>2023-09-03T07:41:33Z</time>
      </trkpt>
      <trkpt lat="48.09847" lon="6.70929">
        <ele>619</ele>
        <time>2023-09-03T07:41:34Z</time>
      </trkpt>
      <trkpt lat="48.09843" lon="6.70937">
        <ele>619</ele>
        <time>2023-09-03T07:41:35Z</time>
      </trkpt>
      <trkpt lat="48.0984" lon="6.70946">
        <ele>618.6</ele>
        <time>2023-09-03T07:41:36Z</time>
      </trkpt>
      <trkpt lat="48.09839" lon="6.70953">
        <ele>618.6</ele>
        <time>2023-09-03T07:41:37Z</time>
      </trkpt>
      <trkpt lat="48.09838" lon="6.70958">
        <ele>618.4</ele>
        <time>2023-09-03T07:41:38Z</time>
      </trkpt>
      <trkpt lat="48.09837" lon="6.70963">
        <ele>618.4</ele>
        <time>2023-09-03T07:41:39Z</time>
      </trkpt>
      <trkpt lat="48.09834" lon="6.70969">
        <ele>618.2</ele>
        <time>2023-09-03T07:41:40Z</time>
      </trkpt>
      <trkpt lat="48.0983" lon="6.70977">
        <ele>618</ele>
        <time>2023-09-03T07:41:41Z</time>
      </trkpt>
      <trkpt lat="48.09825" lon="6.70986">
        <ele>618</ele>
        <time>2023-09-03T07:41:42Z</time>
      </trkpt>
      <trkpt lat="48.0982" lon="6.70993">
        <ele>617.8</ele>
        <time>2023-09-03T07:41:43Z</time>
      </trkpt>
      <trkpt lat="48.09817" lon="6.71001">
        <ele>617.8</ele>
        <time>2023-09-03T07:41:44Z</time>
      </trkpt>
      <trkpt lat="48.09813" lon="6.71007">
        <ele>617.6</ele>
        <time>2023-09-03T07:41:45Z</time>
      </trkpt>
      <trkpt lat="48.0981" lon="6.71015">
        <ele>617.6</ele>
        <time>2023-09-03T07:41:46Z</time>
      </trkpt>
      <trkpt lat="48.0981" lon="6.71021">
        <ele>617.2</ele>
        <time>2023-09-03T07:41:47Z</time>
      </trkpt>
      <trkpt lat="48.0981" lon="6.71031">
        <ele>617</ele>
        <time>2023-09-03T07:41:48Z</time>
      </trkpt>
      <trkpt lat="48.09811" lon="6.7104">
        <ele>616.6</ele>
        <time>2023-09-03T07:41:49Z</time>
      </trkpt>
      <trkpt lat="48.0981" lon="6.71048">
        <ele>616.4</ele>
        <time>2023-09-03T07:41:50Z</time>
      </trkpt>
      <trkpt lat="48.09808" lon="6.71054">
        <ele>616.2</ele>
        <time>2023-09-03T07:41:51Z</time>
      </trkpt>
      <trkpt lat="48.09805" lon="6.71058">
        <ele>615.8</ele>
        <time>2023-09-03T07:41:52Z</time>
      </trkpt>
      <trkpt lat="48.09803" lon="6.71061">
        <ele>614.6</ele>
        <time>2023-09-03T07:41:53Z</time>
      </trkpt>
      <trkpt lat="48.09799" lon="6.71063">
        <ele>613.2</ele>
        <time>2023-09-03T07:41:54Z</time>
      </trkpt>
      <trkpt lat="48.09794" lon="6.71067">
        <ele>612.8</ele>
        <time>2023-09-03T07:41:55Z</time>
      </trkpt>
      <trkpt lat="48.09791" lon="6.71071">
        <ele>612</ele>
        <time>2023-09-03T07:41:56Z</time>
      </trkpt>
      <trkpt lat="48.09789" lon="6.71074">
        <ele>611.4</ele>
        <time>2023-09-03T07:41:57Z</time>
      </trkpt>
      <trkpt lat="48.09787" lon="6.71076">
        <ele>610.4</ele>
        <time>2023-09-03T07:41:58Z</time>
      </trkpt>
      <trkpt lat="48.09785" lon="6.71077">
        <ele>610.2</ele>
        <time>2023-09-03T07:41:59Z</time>
      </trkpt>
      <trkpt lat="48.09782" lon="6.71081">
        <ele>610</ele>
        <time>2023-09-03T07:42:00Z</time>
      </trkpt>
      <trkpt lat="48.0978" lon="6.71084">
        <ele>610</ele>
        <time>2023-09-03T07:42:01Z</time>
      </trkpt>
      <trkpt lat="48.09779" lon="6.71088">
        <ele>609.6</ele>
        <time>2023-09-03T07:42:02Z</time>
      </trkpt>
      <trkpt lat="48.09777" lon="6.71091">
        <ele>609.6</ele>
        <time>2023-09-03T07:42:03Z</time>
      </trkpt>
      <trkpt lat="48.09775" lon="6.71095">
        <ele>609.4</ele>
        <time>2023-09-03T07:42:04Z</time>
      </trkpt>
      <trkpt lat="48.09772" lon="6.71099">
        <ele>609.4</ele>
        <time>2023-09-03T07:42:05Z</time>
      </trkpt>
      <trkpt lat="48.09769" lon="6.71104">
        <ele>609.2</ele>
        <time>2023-09-03T07:42:06Z</time>
      </trkpt>
      <trkpt lat="48.09765" lon="6.7111">
        <ele>609.2</ele>
        <time>2023-09-03T07:42:07Z</time>
      </trkpt>
      <trkpt lat="48.09763" lon="6.71116">
        <ele>609</ele>
        <time>2023-09-03T07:42:08Z</time>
      </trkpt>
      <trkpt lat="48.0976" lon="6.71122">
        <ele>609</ele>
        <time>2023-09-03T07:42:09Z</time>
      </trkpt>
      <trkpt lat="48.09756" lon="6.71128">
        <ele>608.8</ele>
        <time>2023-09-03T07:42:10Z</time>
      </trkpt>
      <trkpt lat="48.09752" lon="6.71134">
        <ele>608.8</ele>
        <time>2023-09-03T07:42:11Z</time>
      </trkpt>
      <trkpt lat="48.09749" lon="6.71139">
        <ele>608.8</ele>
        <time>2023-09-03T07:42:12Z</time>
      </trkpt>
      <trkpt lat="48.09749" lon="6.71143">
        <ele>608.8</ele>
        <time>2023-09-03T07:42:13Z</time>
      </trkpt>
      <trkpt lat="48.09748" lon="6.71144">
        <ele>608.8</ele>
        <time>2023-09-03T07:42:14Z</time>
      </trkpt>
      <trkpt lat="48.09747" lon="6.71145">
        <ele>608.8</ele>
        <time>2023-09-03T07:42:15Z</time>
      </trkpt>
      <trkpt lat="48.09746" lon="6.71145">
        <ele>608.8</ele>
        <time>2023-09-03T07:42:16Z</time>
      </trkpt>
      <trkpt lat="48.09745" lon="6.71144">
        <ele>608.8</ele>
        <time>2023-09-03T07:42:17Z</time>
      </trkpt>
      <trkpt lat="48.09743" lon="6.71143">
        <ele>608.8</ele>
        <time>2023-09-03T07:42:18Z</time>
      </trkpt>
      <trkpt lat="48.0974" lon="6.71143">
        <ele>608.8</ele>
        <time>2023-09-03T07:42:19Z</time>
      </trkpt>
      <trkpt lat="48.09737" lon="6.71142">
        <ele>609</ele>
        <time>2023-09-03T07:42:20Z</time>
      </trkpt>
      <trkpt lat="48.09733" lon="6.71142">
        <ele>609.2</ele>
        <time>2023-09-03T07:42:21Z</time>
      </trkpt>
      <trkpt lat="48.0973" lon="6.71141">
        <ele>609.6</ele>
        <time>2023-09-03T07:42:22Z</time>
      </trkpt>
      <trkpt lat="48.09726" lon="6.71141">
        <ele>609.8</ele>
        <time>2023-09-03T07:42:23Z</time>
      </trkpt>
      <trkpt lat="48.09722" lon="6.71141">
        <ele>610</ele>
        <time>2023-09-03T07:42:24Z</time>
      </trkpt>
      <trkpt lat="48.09719" lon="6.71143">
        <ele>610.2</ele>
        <time>2023-09-03T07:42:25Z</time>
      </trkpt>
      <trkpt lat="48.09718" lon="6.71144">
        <ele>610.4</ele>
        <time>2023-09-03T07:42:26Z</time>
      </trkpt>
      <trkpt lat="48.09717" lon="6.71146">
        <ele>610.6</ele>
        <time>2023-09-03T07:42:27Z</time>
      </trkpt>
      <trkpt lat="48.09714" lon="6.71148">
        <ele>611.2</ele>
        <time>2023-09-03T07:42:28Z</time>
      </trkpt>
      <trkpt lat="48.09711" lon="6.71152">
        <ele>611.4</ele>
        <time>2023-09-03T07:42:29Z</time>
      </trkpt>
      <trkpt lat="48.09708" lon="6.71154">
        <ele>611.8</ele>
        <time>2023-09-03T07:42:30Z</time>
      </trkpt>
      <trkpt lat="48.09704" lon="6.71159">
        <ele>612</ele>
        <time>2023-09-03T07:42:31Z</time>
      </trkpt>
      <trkpt lat="48.09702" lon="6.71161">
        <ele>612.4</ele>
        <time>2023-09-03T07:42:32Z</time>
      </trkpt>
      <trkpt lat="48.09701" lon="6.71162">
        <ele>612.8</ele>
        <time>2023-09-03T07:42:33Z</time>
      </trkpt>
      <trkpt lat="48.097" lon="6.71163">
        <ele>613</ele>
        <time>2023-09-03T07:42:34Z</time>
      </trkpt>
      <trkpt lat="48.09699" lon="6.71164">
        <ele>613.6</ele>
        <time>2023-09-03T07:42:35Z</time>
      </trkpt>
      <trkpt lat="48.09698" lon="6.71165">
        <ele>613.8</ele>
        <time>2023-09-03T07:42:36Z</time>
      </trkpt>
      <trkpt lat="48.09697" lon="6.71166">
        <ele>614</ele>
        <time>2023-09-03T07:42:37Z</time>
      </trkpt>
      <trkpt lat="48.09696" lon="6.71166">
        <ele>614.2</ele>
        <time>2023-09-03T07:42:38Z</time>
      </trkpt>
      <trkpt lat="48.09695" lon="6.71166">
        <ele>614.8</ele>
        <time>2023-09-03T07:42:39Z</time>
      </trkpt>
      <trkpt lat="48.09693" lon="6.71167">
        <ele>615</ele>
        <time>2023-09-03T07:42:40Z</time>
      </trkpt>
      <trkpt lat="48.09692" lon="6.71167">
        <ele>615.4</ele>
        <time>2023-09-03T07:42:41Z</time>
      </trkpt>
      <trkpt lat="48.0969" lon="6.71167">
        <ele>615.4</ele>
        <time>2023-09-03T07:42:42Z</time>
      </trkpt>
      <trkpt lat="48.09689" lon="6.71168">
        <ele>615.8</ele>
        <time>2023-09-03T07:42:43Z</time>
      </trkpt>
      <trkpt lat="48.09687" lon="6.71172">
        <ele>616</ele>
        <time>2023-09-03T07:42:44Z</time>
      </trkpt>
      <trkpt lat="48.09686" lon="6.71173">
        <ele>616.2</ele>
        <time>2023-09-03T07:42:45Z</time>
      </trkpt>
      <trkpt lat="48.09685" lon="6.71174">
        <ele>616.4</ele>
        <time>2023-09-03T07:42:46Z</time>
      </trkpt>
      <trkpt lat="48.09684" lon="6.71174">
        <ele>616.6</ele>
        <time>2023-09-03T07:42:47Z</time>
      </trkpt>
      <trkpt lat="48.09683" lon="6.71174">
        <ele>616.8</ele>
        <time>2023-09-03T07:42:48Z</time>
      </trkpt>
      <trkpt lat="48.09682" lon="6.71175">
        <ele>616.8</ele>
        <time>2023-09-03T07:42:49Z</time>
      </trkpt>
      <trkpt lat="48.09681" lon="6.71176">
        <ele>617</ele>
        <time>2023-09-03T07:42:50Z</time>
      </trkpt>
      <trkpt lat="48.0968" lon="6.71178">
        <ele>617.2</ele>
        <time>2023-09-03T07:42:51Z</time>
      </trkpt>
      <trkpt lat="48.09679" lon="6.71178">
        <ele>617.6</ele>
        <time>2023-09-03T07:42:52Z</time>
      </trkpt>
      <trkpt lat="48.09679" lon="6.71178">
        <ele>617.6</ele>
        <time>2023-09-03T07:42:53Z</time>
      </trkpt>
      <trkpt lat="48.09677" lon="6.71179">
        <ele>617.6</ele>
        <time>2023-09-03T07:42:54Z</time>
      </trkpt>
      <trkpt lat="48.09677" lon="6.71179">
        <ele>617.8</ele>
        <time>2023-09-03T07:42:55Z</time>
      </trkpt>
      <trkpt lat="48.09677" lon="6.71179">
        <ele>618.2</ele>
        <time>2023-09-03T07:42:56Z</time>
      </trkpt>
      <trkpt lat="48.09675" lon="6.7118">
        <ele>618.6</ele>
        <time>2023-09-03T07:42:57Z</time>
      </trkpt>
      <trkpt lat="48.09674" lon="6.71183">
        <ele>619.2</ele>
        <time>2023-09-03T07:42:58Z</time>
      </trkpt>
      <trkpt lat="48.09673" lon="6.71185">
        <ele>619.6</ele>
        <time>2023-09-03T07:42:59Z</time>
      </trkpt>
      <trkpt lat="48.09672" lon="6.71187">
        <ele>619.6</ele>
        <time>2023-09-03T07:43:00Z</time>
      </trkpt>
      <trkpt lat="48.09671" lon="6.71191">
        <ele>620</ele>
        <time>2023-09-03T07:43:01Z</time>
      </trkpt>
      <trkpt lat="48.0967" lon="6.71194">
        <ele>620.2</ele>
        <time>2023-09-03T07:43:02Z</time>
      </trkpt>
      <trkpt lat="48.09669" lon="6.71197">
        <ele>620.6</ele>
        <time>2023-09-03T07:43:03Z</time>
      </trkpt>
      <trkpt lat="48.09666" lon="6.712">
        <ele>621.2</ele>
        <time>2023-09-03T07:43:04Z</time>
      </trkpt>
      <trkpt lat="48.09662" lon="6.71203">
        <ele>621.6</ele>
        <time>2023-09-03T07:43:05Z</time>
      </trkpt>
      <trkpt lat="48.09661" lon="6.71205">
        <ele>621.8</ele>
        <time>2023-09-03T07:43:06Z</time>
      </trkpt>
      <trkpt lat="48.09659" lon="6.71206">
        <ele>622</ele>
        <time>2023-09-03T07:43:07Z</time>
      </trkpt>
      <trkpt lat="48.09657" lon="6.71209">
        <ele>622.2</ele>
        <time>2023-09-03T07:43:08Z</time>
      </trkpt>
      <trkpt lat="48.09656" lon="6.71213">
        <ele>622.4</ele>
        <time>2023-09-03T07:43:09Z</time>
      </trkpt>
      <trkpt lat="48.09654" lon="6.71216">
        <ele>622.6</ele>
        <time>2023-09-03T07:43:10Z</time>
      </trkpt>
      <trkpt lat="48.09653" lon="6.71217">
        <ele>622.8</ele>
        <time>2023-09-03T07:43:11Z</time>
      </trkpt>
      <trkpt lat="48.09652" lon="6.71218">
        <ele>623</ele>
        <time>2023-09-03T07:43:12Z</time>
      </trkpt>
      <trkpt lat="48.09651" lon="6.7122">
        <ele>623.2</ele>
        <time>2023-09-03T07:43:13Z</time>
      </trkpt>
      <trkpt lat="48.0965" lon="6.71223">
        <ele>623.4</ele>
        <time>2023-09-03T07:43:14Z</time>
      </trkpt>
      <trkpt lat="48.09648" lon="6.71228">
        <ele>623.6</ele>
        <time>2023-09-03T07:43:15Z</time>
      </trkpt>
      <trkpt lat="48.09648" lon="6.71229">
        <ele>623.6</ele>
        <time>2023-09-03T07:43:16Z</time>
      </trkpt>
      <trkpt lat="48.09648" lon="6.71229">
        <ele>624</ele>
        <time>2023-09-03T07:43:17Z</time>
      </trkpt>
      <trkpt lat="48.09646" lon="6.71229">
        <ele>624.2</ele>
        <time>2023-09-03T07:43:18Z</time>
      </trkpt>
      <trkpt lat="48.09645" lon="6.7123">
        <ele>624.4</ele>
        <time>2023-09-03T07:43:19Z</time>
      </trkpt>
      <trkpt lat="48.09643" lon="6.71231">
        <ele>624.4</ele>
        <time>2023-09-03T07:43:20Z</time>
      </trkpt>
      <trkpt lat="48.09642" lon="6.71232">
        <ele>624.6</ele>
        <time>2023-09-03T07:43:21Z</time>
      </trkpt>
      <trkpt lat="48.09639" lon="6.71234">
        <ele>624.8</ele>
        <time>2023-09-03T07:43:22Z</time>
      </trkpt>
      <trkpt lat="48.09637" lon="6.71236">
        <ele>624.8</ele>
        <time>2023-09-03T07:43:23Z</time>
      </trkpt>
      <trkpt lat="48.09636" lon="6.71238">
        <ele>625</ele>
        <time>2023-09-03T07:43:24Z</time>
      </trkpt>
      <trkpt lat="48.09635" lon="6.71239">
        <ele>625.2</ele>
        <time>2023-09-03T07:43:25Z</time>
      </trkpt>
      <trkpt lat="48.09634" lon="6.71239">
        <ele>625.2</ele>
        <time>2023-09-03T07:43:26Z</time>
      </trkpt>
      <trkpt lat="48.09632" lon="6.7124">
        <ele>625.6</ele>
        <time>2023-09-03T07:43:27Z</time>
      </trkpt>
      <trkpt lat="48.09631" lon="6.7124">
        <ele>625.8</ele>
        <time>2023-09-03T07:43:28Z</time>
      </trkpt>
      <trkpt lat="48.09631" lon="6.71241">
        <ele>626.2</ele>
        <time>2023-09-03T07:43:29Z</time>
      </trkpt>
      <trkpt lat="48.0963" lon="6.71241">
        <ele>626.2</ele>
        <time>2023-09-03T07:43:30Z</time>
      </trkpt>
      <trkpt lat="48.09628" lon="6.71241">
        <ele>626.6</ele>
        <time>2023-09-03T07:43:31Z</time>
      </trkpt>
      <trkpt lat="48.09627" lon="6.71242">
        <ele>626.8</ele>
        <time>2023-09-03T07:43:32Z</time>
      </trkpt>
      <trkpt lat="48.09625" lon="6.71242">
        <ele>627</ele>
        <time>2023-09-03T07:43:33Z</time>
      </trkpt>
      <trkpt lat="48.09624" lon="6.71243">
        <ele>627</ele>
        <time>2023-09-03T07:43:34Z</time>
      </trkpt>
      <trkpt lat="48.09623" lon="6.71244">
        <ele>627.2</ele>
        <time>2023-09-03T07:43:35Z</time>
      </trkpt>
      <trkpt lat="48.0962" lon="6.71247">
        <ele>627.4</ele>
        <time>2023-09-03T07:43:36Z</time>
      </trkpt>
      <trkpt lat="48.09619" lon="6.71248">
        <ele>627.4</ele>
        <time>2023-09-03T07:43:37Z</time>
      </trkpt>
      <trkpt lat="48.09618" lon="6.71249">
        <ele>627.6</ele>
        <time>2023-09-03T07:43:38Z</time>
      </trkpt>
      <trkpt lat="48.09617" lon="6.71251">
        <ele>627.8</ele>
        <time>2023-09-03T07:43:39Z</time>
      </trkpt>
      <trkpt lat="48.09616" lon="6.71253">
        <ele>628.2</ele>
        <time>2023-09-03T07:43:40Z</time>
      </trkpt>
      <trkpt lat="48.09615" lon="6.71254">
        <ele>628.2</ele>
        <time>2023-09-03T07:43:41Z</time>
      </trkpt>
      <trkpt lat="48.09614" lon="6.71255">
        <ele>628.6</ele>
        <time>2023-09-03T07:43:42Z</time>
      </trkpt>
      <trkpt lat="48.09613" lon="6.71255">
        <ele>628.8</ele>
        <time>2023-09-03T07:43:43Z</time>
      </trkpt>
      <trkpt lat="48.09611" lon="6.71258">
        <ele>629</ele>
        <time>2023-09-03T07:43:44Z</time>
      </trkpt>
      <trkpt lat="48.09609" lon="6.71259">
        <ele>629.2</ele>
        <time>2023-09-03T07:43:45Z</time>
      </trkpt>
      <trkpt lat="48.09607" lon="6.7126">
        <ele>629.4</ele>
        <time>2023-09-03T07:43:46Z</time>
      </trkpt>
      <trkpt lat="48.09606" lon="6.7126">
        <ele>629.4</ele>
        <time>2023-09-03T07:43:47Z</time>
      </trkpt>
      <trkpt lat="48.09604" lon="6.7126">
        <ele>629.6</ele>
        <time>2023-09-03T07:43:48Z</time>
      </trkpt>
      <trkpt lat="48.09603" lon="6.71261">
        <ele>630.2</ele>
        <time>2023-09-03T07:43:49Z</time>
      </trkpt>
      <trkpt lat="48.09601" lon="6.71262">
        <ele>630.4</ele>
        <time>2023-09-03T07:43:50Z</time>
      </trkpt>
      <trkpt lat="48.096" lon="6.71262">
        <ele>630.6</ele>
        <time>2023-09-03T07:43:51Z</time>
      </trkpt>
      <trkpt lat="48.09598" lon="6.71262">
        <ele>630.8</ele>
        <time>2023-09-03T07:43:52Z</time>
      </trkpt>
      <trkpt lat="48.09597" lon="6.71262">
        <ele>631</ele>
        <time>2023-09-03T07:43:53Z</time>
      </trkpt>
      <trkpt lat="48.09597" lon="6.71261">
        <ele>630.8</ele>
        <time>2023-09-03T07:43:54Z</time>
      </trkpt>
      <trkpt lat="48.09596" lon="6.7126">
        <ele>631.2</ele>
        <time>2023-09-03T07:43:55Z</time>
      </trkpt>
      <trkpt lat="48.09596" lon="6.71259">
        <ele>631.4</ele>
        <time>2023-09-03T07:43:56Z</time>
      </trkpt>
      <trkpt lat="48.09595" lon="6.71257">
        <ele>631.6</ele>
        <time>2023-09-03T07:43:57Z</time>
      </trkpt>
      <trkpt lat="48.09594" lon="6.71255">
        <ele>631.6</ele>
        <time>2023-09-03T07:43:58Z</time>
      </trkpt>
      <trkpt lat="48.09594" lon="6.71254">
        <ele>631.8</ele>
        <time>2023-09-03T07:43:59Z</time>
      </trkpt>
      <trkpt lat="48.09594" lon="6.71252">
        <ele>632</ele>
        <time>2023-09-03T07:44:00Z</time>
      </trkpt>
      <trkpt lat="48.09593" lon="6.7125">
        <ele>632.2</ele>
        <time>2023-09-03T07:44:01Z</time>
      </trkpt>
      <trkpt lat="48.09592" lon="6.71249">
        <ele>632.6</ele>
        <time>2023-09-03T07:44:02Z</time>
      </trkpt>
      <trkpt lat="48.09592" lon="6.71247">
        <ele>632.6</ele>
        <time>2023-09-03T07:44:03Z</time>
      </trkpt>
      <trkpt lat="48.09592" lon="6.71245">
        <ele>632.8</ele>
        <time>2023-09-03T07:44:04Z</time>
      </trkpt>
      <trkpt lat="48.09592" lon="6.71245">
        <ele>632.8</ele>
        <time>2023-09-03T07:44:05Z</time>
      </trkpt>
      <trkpt lat="48.09591" lon="6.71243">
        <ele>633</ele>
        <time>2023-09-03T07:44:06Z</time>
      </trkpt>
      <trkpt lat="48.0959" lon="6.71241">
        <ele>633</ele>
        <time>2023-09-03T07:44:07Z</time>
      </trkpt>
      <trkpt lat="48.0959" lon="6.71238">
        <ele>633.4</ele>
        <time>2023-09-03T07:44:08Z</time>
      </trkpt>
      <trkpt lat="48.09589" lon="6.71236">
        <ele>633.6</ele>
        <time>2023-09-03T07:44:09Z</time>
      </trkpt>
      <trkpt lat="48.09588" lon="6.71234">
        <ele>634</ele>
        <time>2023-09-03T07:44:10Z</time>
      </trkpt>
      <trkpt lat="48.09587" lon="6.71232">
        <ele>634</ele>
        <time>2023-09-03T07:44:11Z</time>
      </trkpt>
      <trkpt lat="48.09585" lon="6.71231">
        <ele>634.4</ele>
        <time>2023-09-03T07:44:12Z</time>
      </trkpt>
      <trkpt lat="48.09583" lon="6.71231">
        <ele>634.4</ele>
        <time>2023-09-03T07:44:13Z</time>
      </trkpt>
      <trkpt lat="48.09582" lon="6.7123">
        <ele>635</ele>
        <time>2023-09-03T07:44:14Z</time>
      </trkpt>
      <trkpt lat="48.09578" lon="6.7123">
        <ele>635.2</ele>
        <time>2023-09-03T07:44:15Z</time>
      </trkpt>
      <trkpt lat="48.09576" lon="6.71229">
        <ele>635.4</ele>
        <time>2023-09-03T07:44:16Z</time>
      </trkpt>
      <trkpt lat="48.09574" lon="6.71229">
        <ele>635.8</ele>
        <time>2023-09-03T07:44:17Z</time>
      </trkpt>
      <trkpt lat="48.09572" lon="6.71229">
        <ele>636</ele>
        <time>2023-09-03T07:44:18Z</time>
      </trkpt>
      <trkpt lat="48.09569" lon="6.7123">
        <ele>636.2</ele>
        <time>2023-09-03T07:44:19Z</time>
      </trkpt>
      <trkpt lat="48.09566" lon="6.71231">
        <ele>636.2</ele>
        <time>2023-09-03T07:44:20Z</time>
      </trkpt>
      <trkpt lat="48.09564" lon="6.71232">
        <ele>636.2</ele>
        <time>2023-09-03T07:44:21Z</time>
      </trkpt>
      <trkpt lat="48.09562" lon="6.71234">
        <ele>636.4</ele>
        <time>2023-09-03T07:44:22Z</time>
      </trkpt>
      <trkpt lat="48.0956" lon="6.71236">
        <ele>636.4</ele>
        <time>2023-09-03T07:44:23Z</time>
      </trkpt>
      <trkpt lat="48.09559" lon="6.71239">
        <ele>636.4</ele>
        <time>2023-09-03T07:44:24Z</time>
      </trkpt>
      <trkpt lat="48.09558" lon="6.71242">
        <ele>636.6</ele>
        <time>2023-09-03T07:44:25Z</time>
      </trkpt>
      <trkpt lat="48.09557" lon="6.71245">
        <ele>636.6</ele>
        <time>2023-09-03T07:44:26Z</time>
      </trkpt>
      <trkpt lat="48.09557" lon="6.71247">
        <ele>636.8</ele>
        <time>2023-09-03T07:44:27Z</time>
      </trkpt>
      <trkpt lat="48.09556" lon="6.7125">
        <ele>637</ele>
        <time>2023-09-03T07:44:28Z</time>
      </trkpt>
      <trkpt lat="48.09554" lon="6.71253">
        <ele>637.2</ele>
        <time>2023-09-03T07:44:29Z</time>
      </trkpt>
      <trkpt lat="48.09553" lon="6.71256">
        <ele>637.2</ele>
        <time>2023-09-03T07:44:30Z</time>
      </trkpt>
      <trkpt lat="48.09552" lon="6.71259">
        <ele>637.2</ele>
        <time>2023-09-03T07:44:31Z</time>
      </trkpt>
      <trkpt lat="48.09551" lon="6.71261">
        <ele>637.4</ele>
        <time>2023-09-03T07:44:32Z</time>
      </trkpt>
      <trkpt lat="48.0955" lon="6.71264">
        <ele>637.4</ele>
        <time>2023-09-03T07:44:33Z</time>
      </trkpt>
      <trkpt lat="48.09549" lon="6.71268">
        <ele>637.6</ele>
        <time>2023-09-03T07:44:34Z</time>
      </trkpt>
      <trkpt lat="48.09547" lon="6.71271">
        <ele>637.8</ele>
        <time>2023-09-03T07:44:35Z</time>
      </trkpt>
      <trkpt lat="48.09546" lon="6.71275">
        <ele>637.8</ele>
        <time>2023-09-03T07:44:36Z</time>
      </trkpt>
      <trkpt lat="48.09545" lon="6.71278">
        <ele>638</ele>
        <time>2023-09-03T07:44:37Z</time>
      </trkpt>
      <trkpt lat="48.09544" lon="6.71281">
        <ele>638.2</ele>
        <time>2023-09-03T07:44:38Z</time>
      </trkpt>
      <trkpt lat="48.09544" lon="6.71285">
        <ele>638.2</ele>
        <time>2023-09-03T07:44:39Z</time>
      </trkpt>
      <trkpt lat="48.09542" lon="6.71287">
        <ele>638.2</ele>
        <time>2023-09-03T07:44:40Z</time>
      </trkpt>
      <trkpt lat="48.0954" lon="6.71288">
        <ele>638.4</ele>
        <time>2023-09-03T07:44:41Z</time>
      </trkpt>
      <trkpt lat="48.09539" lon="6.71287">
        <ele>638.4</ele>
        <time>2023-09-03T07:44:42Z</time>
      </trkpt>
      <trkpt lat="48.09537" lon="6.71284">
        <ele>638.4</ele>
        <time>2023-09-03T07:44:43Z</time>
      </trkpt>
      <trkpt lat="48.09537" lon="6.71279">
        <ele>638.4</ele>
        <time>2023-09-03T07:44:44Z</time>
      </trkpt>
      <trkpt lat="48.09537" lon="6.71274">
        <ele>638.4</ele>
        <time>2023-09-03T07:44:45Z</time>
      </trkpt>
      <trkpt lat="48.09537" lon="6.71269">
        <ele>638.6</ele>
        <time>2023-09-03T07:44:46Z</time>
      </trkpt>
      <trkpt lat="48.09537" lon="6.71263">
        <ele>638.6</ele>
        <time>2023-09-03T07:44:47Z</time>
      </trkpt>
      <trkpt lat="48.09536" lon="6.71256">
        <ele>638.6</ele>
        <time>2023-09-03T07:44:48Z</time>
      </trkpt>
      <trkpt lat="48.09534" lon="6.71249">
        <ele>638.6</ele>
        <time>2023-09-03T07:44:49Z</time>
      </trkpt>
      <trkpt lat="48.09531" lon="6.71242">
        <ele>638.6</ele>
        <time>2023-09-03T07:44:50Z</time>
      </trkpt>
      <trkpt lat="48.09527" lon="6.71237">
        <ele>638.4</ele>
        <time>2023-09-03T07:44:51Z</time>
      </trkpt>
      <trkpt lat="48.09522" lon="6.71233">
        <ele>638.4</ele>
        <time>2023-09-03T07:44:52Z</time>
      </trkpt>
      <trkpt lat="48.09518" lon="6.71229">
        <ele>638.6</ele>
        <time>2023-09-03T07:44:53Z</time>
      </trkpt>
      <trkpt lat="48.09514" lon="6.71227">
        <ele>638.6</ele>
        <time>2023-09-03T07:44:54Z</time>
      </trkpt>
      <trkpt lat="48.0951" lon="6.71226">
        <ele>638.2</ele>
        <time>2023-09-03T07:44:55Z</time>
      </trkpt>
      <trkpt lat="48.09506" lon="6.71226">
        <ele>636.4</ele>
        <time>2023-09-03T07:44:56Z</time>
      </trkpt>
      <trkpt lat="48.09502" lon="6.71227">
        <ele>635.6</ele>
        <time>2023-09-03T07:44:57Z</time>
      </trkpt>
      <trkpt lat="48.09498" lon="6.71229">
        <ele>634.8</ele>
        <time>2023-09-03T07:44:58Z</time>
      </trkpt>
      <trkpt lat="48.09494" lon="6.71233">
        <ele>634.4</ele>
        <time>2023-09-03T07:44:59Z</time>
      </trkpt>
      <trkpt lat="48.0949" lon="6.71238">
        <ele>633.2</ele>
        <time>2023-09-03T07:45:00Z</time>
      </trkpt>
      <trkpt lat="48.09486" lon="6.71244">
        <ele>632.8</ele>
        <time>2023-09-03T07:45:01Z</time>
      </trkpt>
      <trkpt lat="48.09483" lon="6.71251">
        <ele>631.6</ele>
        <time>2023-09-03T07:45:02Z</time>
      </trkpt>
      <trkpt lat="48.09479" lon="6.71256">
        <ele>631</ele>
        <time>2023-09-03T07:45:03Z</time>
      </trkpt>
      <trkpt lat="48.09475" lon="6.71258">
        <ele>629.8</ele>
        <time>2023-09-03T07:45:04Z</time>
      </trkpt>
      <trkpt lat="48.09472" lon="6.71258">
        <ele>629.2</ele>
        <time>2023-09-03T07:45:05Z</time>
      </trkpt>
      <trkpt lat="48.09471" lon="6.71257">
        <ele>628.4</ele>
        <time>2023-09-03T07:45:06Z</time>
      </trkpt>
      <trkpt lat="48.09469" lon="6.71257">
        <ele>628</ele>
        <time>2023-09-03T07:45:07Z</time>
      </trkpt>
      <trkpt lat="48.09468" lon="6.71256">
        <ele>627.2</ele>
        <time>2023-09-03T07:45:08Z</time>
      </trkpt>
      <trkpt lat="48.09466" lon="6.71255">
        <ele>626.8</ele>
        <time>2023-09-03T07:45:09Z</time>
      </trkpt>
      <trkpt lat="48.09465" lon="6.71254">
        <ele>626.6</ele>
        <time>2023-09-03T07:45:10Z</time>
      </trkpt>
      <trkpt lat="48.09465" lon="6.71253">
        <ele>626.4</ele>
        <time>2023-09-03T07:45:11Z</time>
      </trkpt>
      <trkpt lat="48.09465" lon="6.71253">
        <ele>626.2</ele>
        <time>2023-09-03T07:45:12Z</time>
      </trkpt>
      <trkpt lat="48.09464" lon="6.71252">
        <ele>626</ele>
        <time>2023-09-03T07:45:13Z</time>
      </trkpt>
      <trkpt lat="48.09464" lon="6.7125">
        <ele>626</ele>
        <time>2023-09-03T07:45:14Z</time>
      </trkpt>
      <trkpt lat="48.09464" lon="6.71249">
        <ele>625.6</ele>
        <time>2023-09-03T07:45:15Z</time>
      </trkpt>
      <trkpt lat="48.09464" lon="6.71248">
        <ele>625.6</ele>
        <time>2023-09-03T07:45:16Z</time>
      </trkpt>
      <trkpt lat="48.09464" lon="6.71247">
        <ele>625.4</ele>
        <time>2023-09-03T07:45:17Z</time>
      </trkpt>
      <trkpt lat="48.09463" lon="6.71245">
        <ele>625.4</ele>
        <time>2023-09-03T07:45:18Z</time>
      </trkpt>
      <trkpt lat="48.09461" lon="6.71243">
        <ele>625.4</ele>
        <time>2023-09-03T07:45:19Z</time>
      </trkpt>
      <trkpt lat="48.0946" lon="6.7124">
        <ele>625.4</ele>
        <time>2023-09-03T07:45:20Z</time>
      </trkpt>
      <trkpt lat="48.09459" lon="6.71238">
        <ele>625.8</ele>
        <time>2023-09-03T07:45:21Z</time>
      </trkpt>
      <trkpt lat="48.09458" lon="6.71235">
        <ele>625.8</ele>
        <time>2023-09-03T07:45:22Z</time>
      </trkpt>
      <trkpt lat="48.09456" lon="6.71233">
        <ele>626</ele>
        <time>2023-09-03T07:45:23Z</time>
      </trkpt>
      <trkpt lat="48.09455" lon="6.71231">
        <ele>626.2</ele>
        <time>2023-09-03T07:45:24Z</time>
      </trkpt>
      <trkpt lat="48.09453" lon="6.71228">
        <ele>626.6</ele>
        <time>2023-09-03T07:45:25Z</time>
      </trkpt>
      <trkpt lat="48.09452" lon="6.71225">
        <ele>627.2</ele>
        <time>2023-09-03T07:45:26Z</time>
      </trkpt>
      <trkpt lat="48.09451" lon="6.71221">
        <ele>627.4</ele>
        <time>2023-09-03T07:45:27Z</time>
      </trkpt>
      <trkpt lat="48.09449" lon="6.71218">
        <ele>627.6</ele>
        <time>2023-09-03T07:45:28Z</time>
      </trkpt>
      <trkpt lat="48.09448" lon="6.71215">
        <ele>627.8</ele>
        <time>2023-09-03T07:45:29Z</time>
      </trkpt>
      <trkpt lat="48.09445" lon="6.71211">
        <ele>628</ele>
        <time>2023-09-03T07:45:30Z</time>
      </trkpt>
      <trkpt lat="48.09444" lon="6.71208">
        <ele>628.2</ele>
        <time>2023-09-03T07:45:31Z</time>
      </trkpt>
      <trkpt lat="48.09442" lon="6.71205">
        <ele>628.6</ele>
        <time>2023-09-03T07:45:32Z</time>
      </trkpt>
      <trkpt lat="48.09441" lon="6.71202">
        <ele>628.8</ele>
        <time>2023-09-03T07:45:33Z</time>
      </trkpt>
      <trkpt lat="48.0944" lon="6.712">
        <ele>629</ele>
        <time>2023-09-03T07:45:34Z</time>
      </trkpt>
      <trkpt lat="48.09439" lon="6.71197">
        <ele>629.4</ele>
        <time>2023-09-03T07:45:35Z</time>
      </trkpt>
      <trkpt lat="48.09439" lon="6.71195">
        <ele>629.4</ele>
        <time>2023-09-03T07:45:36Z</time>
      </trkpt>
      <trkpt lat="48.09437" lon="6.71192">
        <ele>629.4</ele>
        <time>2023-09-03T07:45:37Z</time>
      </trkpt>
      <trkpt lat="48.09436" lon="6.7119">
        <ele>629.6</ele>
        <time>2023-09-03T07:45:38Z</time>
      </trkpt>
      <trkpt lat="48.09436" lon="6.71187">
        <ele>629.6</ele>
        <time>2023-09-03T07:45:39Z</time>
      </trkpt>
      <trkpt lat="48.09436" lon="6.71183">
        <ele>629.8</ele>
        <time>2023-09-03T07:45:40Z</time>
      </trkpt>
      <trkpt lat="48.09436" lon="6.71179">
        <ele>629.8</ele>
        <time>2023-09-03T07:45:41Z</time>
      </trkpt>
      <trkpt lat="48.09436" lon="6.71175">
        <ele>629.8</ele>
        <time>2023-09-03T07:45:42Z</time>
      </trkpt>
      <trkpt lat="48.09435" lon="6.7117">
        <ele>629.8</ele>
        <time>2023-09-03T07:45:43Z</time>
      </trkpt>
      <trkpt lat="48.09434" lon="6.71165">
        <ele>629.8</ele>
        <time>2023-09-03T07:45:44Z</time>
      </trkpt>
      <trkpt lat="48.09434" lon="6.71161">
        <ele>629.8</ele>
        <time>2023-09-03T07:45:45Z</time>
      </trkpt>
      <trkpt lat="48.09433" lon="6.71155">
        <ele>629.8</ele>
        <time>2023-09-03T07:45:46Z</time>
      </trkpt>
      <trkpt lat="48.09432" lon="6.71148">
        <ele>629.8</ele>
        <time>2023-09-03T07:45:47Z</time>
      </trkpt>
      <trkpt lat="48.0943" lon="6.71139">
        <ele>629.6</ele>
        <time>2023-09-03T07:45:48Z</time>
      </trkpt>
      <trkpt lat="48.09426" lon="6.71129">
        <ele>629.8</ele>
        <time>2023-09-03T07:45:49Z</time>
      </trkpt>
      <trkpt lat="48.09423" lon="6.71121">
        <ele>629.6</ele>
        <time>2023-09-03T07:45:50Z</time>
      </trkpt>
      <trkpt lat="48.09421" lon="6.71112">
        <ele>629.4</ele>
        <time>2023-09-03T07:45:51Z</time>
      </trkpt>
      <trkpt lat="48.0942" lon="6.71103">
        <ele>629.6</ele>
        <time>2023-09-03T07:45:52Z</time>
      </trkpt>
      <trkpt lat="48.09418" lon="6.71093">
        <ele>629.4</ele>
        <time>2023-09-03T07:45:53Z</time>
      </trkpt>
      <trkpt lat="48.09417" lon="6.71084">
        <ele>629.4</ele>
        <time>2023-09-03T07:45:54Z</time>
      </trkpt>
      <trkpt lat="48.09416" lon="6.71076">
        <ele>629.4</ele>
        <time>2023-09-03T07:45:55Z</time>
      </trkpt>
      <trkpt lat="48.09416" lon="6.71069">
        <ele>629</ele>
        <time>2023-09-03T07:45:56Z</time>
      </trkpt>
      <trkpt lat="48.09417" lon="6.71064">
        <ele>629</ele>
        <time>2023-09-03T07:45:57Z</time>
      </trkpt>
      <trkpt lat="48.09418" lon="6.71063">
        <ele>628.6</ele>
        <time>2023-09-03T07:45:58Z</time>
      </trkpt>
      <trkpt lat="48.09419" lon="6.71062">
        <ele>628.6</ele>
        <time>2023-09-03T07:45:59Z</time>
      </trkpt>
      <trkpt lat="48.09421" lon="6.71061">
        <ele>628.2</ele>
        <time>2023-09-03T07:46:00Z</time>
      </trkpt>
      <trkpt lat="48.09424" lon="6.71058">
        <ele>627.8</ele>
        <time>2023-09-03T07:46:01Z</time>
      </trkpt>
      <trkpt lat="48.09427" lon="6.71054">
        <ele>627.8</ele>
        <time>2023-09-03T07:46:02Z</time>
      </trkpt>
      <trkpt lat="48.09429" lon="6.71049">
        <ele>627.4</ele>
        <time>2023-09-03T07:46:03Z</time>
      </trkpt>
      <trkpt lat="48.0943" lon="6.71043">
        <ele>627.2</ele>
        <time>2023-09-03T07:46:04Z</time>
      </trkpt>
      <trkpt lat="48.0943" lon="6.71038">
        <ele>626.8</ele>
        <time>2023-09-03T07:46:05Z</time>
      </trkpt>
      <trkpt lat="48.09431" lon="6.71034">
        <ele>626.4</ele>
        <time>2023-09-03T07:46:06Z</time>
      </trkpt>
      <trkpt lat="48.09433" lon="6.71031">
        <ele>626</ele>
        <time>2023-09-03T07:46:07Z</time>
      </trkpt>
      <trkpt lat="48.09433" lon="6.71029">
        <ele>625.8</ele>
        <time>2023-09-03T07:46:08Z</time>
      </trkpt>
      <trkpt lat="48.09434" lon="6.71027">
        <ele>625.8</ele>
        <time>2023-09-03T07:46:09Z</time>
      </trkpt>
      <trkpt lat="48.09435" lon="6.71026">
        <ele>625.8</ele>
        <time>2023-09-03T07:46:10Z</time>
      </trkpt>
      <trkpt lat="48.09436" lon="6.71025">
        <ele>625.6</ele>
        <time>2023-09-03T07:46:11Z</time>
      </trkpt>
      <trkpt lat="48.09438" lon="6.71023">
        <ele>625.6</ele>
        <time>2023-09-03T07:46:12Z</time>
      </trkpt>
      <trkpt lat="48.09439" lon="6.71022">
        <ele>625.4</ele>
        <time>2023-09-03T07:46:13Z</time>
      </trkpt>
      <trkpt lat="48.0944" lon="6.7102">
        <ele>625.2</ele>
        <time>2023-09-03T07:46:14Z</time>
      </trkpt>
      <trkpt lat="48.09441" lon="6.71019">
        <ele>625</ele>
        <time>2023-09-03T07:46:15Z</time>
      </trkpt>
      <trkpt lat="48.09442" lon="6.71018">
        <ele>624.8</ele>
        <time>2023-09-03T07:46:16Z</time>
      </trkpt>
      <trkpt lat="48.09443" lon="6.71016">
        <ele>624.4</ele>
        <time>2023-09-03T07:46:17Z</time>
      </trkpt>
      <trkpt lat="48.09444" lon="6.71015">
        <ele>624.2</ele>
        <time>2023-09-03T07:46:18Z</time>
      </trkpt>
      <trkpt lat="48.09445" lon="6.71012">
        <ele>624.2</ele>
        <time>2023-09-03T07:46:19Z</time>
      </trkpt>
      <trkpt lat="48.09448" lon="6.71009">
        <ele>624</ele>
        <time>2023-09-03T07:46:20Z</time>
      </trkpt>
      <trkpt lat="48.09452" lon="6.71005">
        <ele>624</ele>
        <time>2023-09-03T07:46:21Z</time>
      </trkpt>
      <trkpt lat="48.09455" lon="6.71002">
        <ele>623.8</ele>
        <time>2023-09-03T07:46:22Z</time>
      </trkpt>
      <trkpt lat="48.09457" lon="6.71">
        <ele>623.6</ele>
        <time>2023-09-03T07:46:23Z</time>
      </trkpt>
      <trkpt lat="48.09459" lon="6.70999">
        <ele>623.6</ele>
        <time>2023-09-03T07:46:24Z</time>
      </trkpt>
      <trkpt lat="48.09462" lon="6.70998">
        <ele>623.4</ele>
        <time>2023-09-03T07:46:25Z</time>
      </trkpt>
      <trkpt lat="48.09464" lon="6.70998">
        <ele>623.2</ele>
        <time>2023-09-03T07:46:26Z</time>
      </trkpt>
      <trkpt lat="48.09466" lon="6.70996">
        <ele>623</ele>
        <time>2023-09-03T07:46:27Z</time>
      </trkpt>
      <trkpt lat="48.09468" lon="6.70995">
        <ele>622.8</ele>
        <time>2023-09-03T07:46:28Z</time>
      </trkpt>
      <trkpt lat="48.09469" lon="6.70993">
        <ele>622.4</ele>
        <time>2023-09-03T07:46:29Z</time>
      </trkpt>
      <trkpt lat="48.09471" lon="6.7099">
        <ele>622.4</ele>
        <time>2023-09-03T07:46:30Z</time>
      </trkpt>
      <trkpt lat="48.09474" lon="6.70988">
        <ele>622.2</ele>
        <time>2023-09-03T07:46:31Z</time>
      </trkpt>
      <trkpt lat="48.09475" lon="6.70986">
        <ele>622.2</ele>
        <time>2023-09-03T07:46:32Z</time>
      </trkpt>
      <trkpt lat="48.09477" lon="6.70984">
        <ele>621.8</ele>
        <time>2023-09-03T07:46:33Z</time>
      </trkpt>
      <trkpt lat="48.09478" lon="6.70983">
        <ele>621.4</ele>
        <time>2023-09-03T07:46:34Z</time>
      </trkpt>
      <trkpt lat="48.09481" lon="6.7098">
        <ele>621.2</ele>
        <time>2023-09-03T07:46:35Z</time>
      </trkpt>
      <trkpt lat="48.09484" lon="6.70976">
        <ele>621.2</ele>
        <time>2023-09-03T07:46:36Z</time>
      </trkpt>
      <trkpt lat="48.09487" lon="6.70972">
        <ele>621</ele>
        <time>2023-09-03T07:46:37Z</time>
      </trkpt>
      <trkpt lat="48.0949" lon="6.70968">
        <ele>621</ele>
        <time>2023-09-03T07:46:38Z</time>
      </trkpt>
      <trkpt lat="48.09493" lon="6.70965">
        <ele>620.8</ele>
        <time>2023-09-03T07:46:39Z</time>
      </trkpt>
      <trkpt lat="48.09495" lon="6.70961">
        <ele>620.8</ele>
        <time>2023-09-03T07:46:40Z</time>
      </trkpt>
      <trkpt lat="48.09498" lon="6.70957">
        <ele>620.8</ele>
        <time>2023-09-03T07:46:41Z</time>
      </trkpt>
      <trkpt lat="48.095" lon="6.70954">
        <ele>620.8</ele>
        <time>2023-09-03T07:46:42Z</time>
      </trkpt>
      <trkpt lat="48.09503" lon="6.70952">
        <ele>620.8</ele>
        <time>2023-09-03T07:46:43Z</time>
      </trkpt>
      <trkpt lat="48.09506" lon="6.70951">
        <ele>621</ele>
        <time>2023-09-03T07:46:44Z</time>
      </trkpt>
      <trkpt lat="48.0951" lon="6.70949">
        <ele>621</ele>
        <time>2023-09-03T07:46:45Z</time>
      </trkpt>
      <trkpt lat="48.09513" lon="6.70946">
        <ele>621.2</ele>
        <time>2023-09-03T07:46:46Z</time>
      </trkpt>
      <trkpt lat="48.09515" lon="6.70943">
        <ele>621.4</ele>
        <time>2023-09-03T07:46:47Z</time>
      </trkpt>
      <trkpt lat="48.09518" lon="6.70939">
        <ele>621.6</ele>
        <time>2023-09-03T07:46:48Z</time>
      </trkpt>
      <trkpt lat="48.0952" lon="6.70937">
        <ele>621.6</ele>
        <time>2023-09-03T07:46:49Z</time>
      </trkpt>
      <trkpt lat="48.09522" lon="6.70934">
        <ele>621.6</ele>
        <time>2023-09-03T07:46:50Z</time>
      </trkpt>
      <trkpt lat="48.09525" lon="6.70931">
        <ele>621.6</ele>
        <time>2023-09-03T07:46:51Z</time>
      </trkpt>
      <trkpt lat="48.09527" lon="6.70928">
        <ele>621.6</ele>
        <time>2023-09-03T07:46:52Z</time>
      </trkpt>
      <trkpt lat="48.0953" lon="6.70925">
        <ele>621.6</ele>
        <time>2023-09-03T07:46:53Z</time>
      </trkpt>
      <trkpt lat="48.09532" lon="6.70921">
        <ele>621.6</ele>
        <time>2023-09-03T07:46:54Z</time>
      </trkpt>
      <trkpt lat="48.09533" lon="6.70919">
        <ele>622</ele>
        <time>2023-09-03T07:46:55Z</time>
      </trkpt>
      <trkpt lat="48.09534" lon="6.70917">
        <ele>622.2</ele>
        <time>2023-09-03T07:46:56Z</time>
      </trkpt>
      <trkpt lat="48.09536" lon="6.70914">
        <ele>622.4</ele>
        <time>2023-09-03T07:46:57Z</time>
      </trkpt>
      <trkpt lat="48.09538" lon="6.70912">
        <ele>622.4</ele>
        <time>2023-09-03T07:46:58Z</time>
      </trkpt>
      <trkpt lat="48.09539" lon="6.7091">
        <ele>622.6</ele>
        <time>2023-09-03T07:46:59Z</time>
      </trkpt>
      <trkpt lat="48.09541" lon="6.70907">
        <ele>622.8</ele>
        <time>2023-09-03T07:47:00Z</time>
      </trkpt>
      <trkpt lat="48.09542" lon="6.70902">
        <ele>623.2</ele>
        <time>2023-09-03T07:47:01Z</time>
      </trkpt>
      <trkpt lat="48.09543" lon="6.70897">
        <ele>623.4</ele>
        <time>2023-09-03T07:47:02Z</time>
      </trkpt>
      <trkpt lat="48.09544" lon="6.70892">
        <ele>623.6</ele>
        <time>2023-09-03T07:47:03Z</time>
      </trkpt>
      <trkpt lat="48.09545" lon="6.70889">
        <ele>623.8</ele>
        <time>2023-09-03T07:47:04Z</time>
      </trkpt>
      <trkpt lat="48.09547" lon="6.70885">
        <ele>623.8</ele>
        <time>2023-09-03T07:47:05Z</time>
      </trkpt>
      <trkpt lat="48.09548" lon="6.70882">
        <ele>624</ele>
        <time>2023-09-03T07:47:06Z</time>
      </trkpt>
      <trkpt lat="48.09549" lon="6.70879">
        <ele>624</ele>
        <time>2023-09-03T07:47:07Z</time>
      </trkpt>
      <trkpt lat="48.0955" lon="6.70877">
        <ele>624.2</ele>
        <time>2023-09-03T07:47:08Z</time>
      </trkpt>
      <trkpt lat="48.0955" lon="6.70874">
        <ele>624.2</ele>
        <time>2023-09-03T07:47:09Z</time>
      </trkpt>
      <trkpt lat="48.09551" lon="6.70871">
        <ele>624.6</ele>
        <time>2023-09-03T07:47:10Z</time>
      </trkpt>
      <trkpt lat="48.09552" lon="6.70869">
        <ele>624.8</ele>
        <time>2023-09-03T07:47:11Z</time>
      </trkpt>
      <trkpt lat="48.09552" lon="6.70869">
        <ele>625.2</ele>
        <time>2023-09-03T07:47:12Z</time>
      </trkpt>
      <trkpt lat="48.09552" lon="6.70869">
        <ele>625.4</ele>
        <time>2023-09-03T07:47:13Z</time>
      </trkpt>
      <trkpt lat="48.09552" lon="6.70866">
        <ele>625.8</ele>
        <time>2023-09-03T07:47:14Z</time>
      </trkpt>
      <trkpt lat="48.09552" lon="6.70862">
        <ele>625.8</ele>
        <time>2023-09-03T07:47:15Z</time>
      </trkpt>
      <trkpt lat="48.09552" lon="6.70856">
        <ele>626</ele>
        <time>2023-09-03T07:47:16Z</time>
      </trkpt>
      <trkpt lat="48.09552" lon="6.70851">
        <ele>626</ele>
        <time>2023-09-03T07:47:17Z</time>
      </trkpt>
      <trkpt lat="48.09552" lon="6.70848">
        <ele>626.2</ele>
        <time>2023-09-03T07:47:18Z</time>
      </trkpt>
      <trkpt lat="48.09552" lon="6.70843">
        <ele>626.4</ele>
        <time>2023-09-03T07:47:19Z</time>
      </trkpt>
      <trkpt lat="48.09551" lon="6.70839">
        <ele>626.6</ele>
        <time>2023-09-03T07:47:20Z</time>
      </trkpt>
      <trkpt lat="48.09551" lon="6.70838">
        <ele>627</ele>
        <time>2023-09-03T07:47:21Z</time>
      </trkpt>
      <trkpt lat="48.09551" lon="6.70835">
        <ele>627</ele>
        <time>2023-09-03T07:47:22Z</time>
      </trkpt>
      <trkpt lat="48.09551" lon="6.70834">
        <ele>627.2</ele>
        <time>2023-09-03T07:47:23Z</time>
      </trkpt>
      <trkpt lat="48.09551" lon="6.70834">
        <ele>627.4</ele>
        <time>2023-09-03T07:47:24Z</time>
      </trkpt>
      <trkpt lat="48.0955" lon="6.70832">
        <ele>627.6</ele>
        <time>2023-09-03T07:47:25Z</time>
      </trkpt>
      <trkpt lat="48.0955" lon="6.70832">
        <ele>628.4</ele>
        <time>2023-09-03T07:47:28Z</time>
      </trkpt>
      <trkpt lat="48.0955" lon="6.70832">
        <ele>628.6</ele>
        <time>2023-09-03T07:47:29Z</time>
      </trkpt>
      <trkpt lat="48.0955" lon="6.70832">
        <ele>628.6</ele>
        <time>2023-09-03T07:47:30Z</time>
      </trkpt>
      <trkpt lat="48.0955" lon="6.70832">
        <ele>628.8</ele>
        <time>2023-09-03T07:47:31Z</time>
      </trkpt>
      <trkpt lat="48.0955" lon="6.70832">
        <ele>628.8</ele>
        <time>2023-09-03T07:47:32Z</time>
      </trkpt>
      <trkpt lat="48.09549" lon="6.70832">
        <ele>628.8</ele>
        <time>2023-09-03T07:47:33Z</time>
      </trkpt>
      <trkpt lat="48.09548" lon="6.70834">
        <ele>629</ele>
        <time>2023-09-03T07:47:34Z</time>
      </trkpt>
      <trkpt lat="48.09547" lon="6.70835">
        <ele>629</ele>
        <time>2023-09-03T07:47:35Z</time>
      </trkpt>
      <trkpt lat="48.09548" lon="6.70835">
        <ele>629</ele>
        <time>2023-09-03T07:47:36Z</time>
      </trkpt>
      <trkpt lat="48.09547" lon="6.70836">
        <ele>629.2</ele>
        <time>2023-09-03T07:47:37Z</time>
      </trkpt>
      <trkpt lat="48.09546" lon="6.70836">
        <ele>629.2</ele>
        <time>2023-09-03T07:47:38Z</time>
      </trkpt>
      <trkpt lat="48.09546" lon="6.70837">
        <ele>629.2</ele>
        <time>2023-09-03T07:47:39Z</time>
      </trkpt>
      <trkpt lat="48.09546" lon="6.70837">
        <ele>629.2</ele>
        <time>2023-09-03T07:47:40Z</time>
      </trkpt>
      <trkpt lat="48.09546" lon="6.70839">
        <ele>629.2</ele>
        <time>2023-09-03T07:47:41Z</time>
      </trkpt>
      <trkpt lat="48.09545" lon="6.7084">
        <ele>629.2</ele>
        <time>2023-09-03T07:47:42Z</time>
      </trkpt>
      <trkpt lat="48.09545" lon="6.70842">
        <ele>629.4</ele>
        <time>2023-09-03T07:47:43Z</time>
      </trkpt>
      <trkpt lat="48.09544" lon="6.70845">
        <ele>629.4</ele>
        <time>2023-09-03T07:47:44Z</time>
      </trkpt>
      <trkpt lat="48.09544" lon="6.70847">
        <ele>629.6</ele>
        <time>2023-09-03T07:47:45Z</time>
      </trkpt>
      <trkpt lat="48.09543" lon="6.70849">
        <ele>629.6</ele>
        <time>2023-09-03T07:47:46Z</time>
      </trkpt>
      <trkpt lat="48.09541" lon="6.7085">
        <ele>629.6</ele>
        <time>2023-09-03T07:47:47Z</time>
      </trkpt>
      <trkpt lat="48.0954" lon="6.70852">
        <ele>629.6</ele>
        <time>2023-09-03T07:47:48Z</time>
      </trkpt>
      <trkpt lat="48.09539" lon="6.70852">
        <ele>629.6</ele>
        <time>2023-09-03T07:47:49Z</time>
      </trkpt>
      <trkpt lat="48.09538" lon="6.70853">
        <ele>629.6</ele>
        <time>2023-09-03T07:47:50Z</time>
      </trkpt>
      <trkpt lat="48.09537" lon="6.70855">
        <ele>629.6</ele>
        <time>2023-09-03T07:47:51Z</time>
      </trkpt>
      <trkpt lat="48.09536" lon="6.70856">
        <ele>629.6</ele>
        <time>2023-09-03T07:47:52Z</time>
      </trkpt>
      <trkpt lat="48.09535" lon="6.7086">
        <ele>629.6</ele>
        <time>2023-09-03T07:47:53Z</time>
      </trkpt>
      <trkpt lat="48.09534" lon="6.70864">
        <ele>629.6</ele>
        <time>2023-09-03T07:47:54Z</time>
      </trkpt>
      <trkpt lat="48.09532" lon="6.70866">
        <ele>629.6</ele>
        <time>2023-09-03T07:47:55Z</time>
      </trkpt>
      <trkpt lat="48.09531" lon="6.70868">
        <ele>629.6</ele>
        <time>2023-09-03T07:47:56Z</time>
      </trkpt>
      <trkpt lat="48.09529" lon="6.70869">
        <ele>629.6</ele>
        <time>2023-09-03T07:47:57Z</time>
      </trkpt>
      <trkpt lat="48.09529" lon="6.70871">
        <ele>629.6</ele>
        <time>2023-09-03T07:47:58Z</time>
      </trkpt>
      <trkpt lat="48.09528" lon="6.70871">
        <ele>629.6</ele>
        <time>2023-09-03T07:47:59Z</time>
      </trkpt>
      <trkpt lat="48.09527" lon="6.70872">
        <ele>629.8</ele>
        <time>2023-09-03T07:48:00Z</time>
      </trkpt>
      <trkpt lat="48.09526" lon="6.70873">
        <ele>629.8</ele>
        <time>2023-09-03T07:48:01Z</time>
      </trkpt>
      <trkpt lat="48.09524" lon="6.70874">
        <ele>630</ele>
        <time>2023-09-03T07:48:02Z</time>
      </trkpt>
      <trkpt lat="48.09523" lon="6.70874">
        <ele>630</ele>
        <time>2023-09-03T07:48:03Z</time>
      </trkpt>
      <trkpt lat="48.09522" lon="6.70875">
        <ele>630</ele>
        <time>2023-09-03T07:48:04Z</time>
      </trkpt>
      <trkpt lat="48.09522" lon="6.70876">
        <ele>630</ele>
        <time>2023-09-03T07:48:05Z</time>
      </trkpt>
      <trkpt lat="48.09521" lon="6.70876">
        <ele>630.2</ele>
        <time>2023-09-03T07:48:06Z</time>
      </trkpt>
      <trkpt lat="48.09521" lon="6.70876">
        <ele>630.2</ele>
        <time>2023-09-03T07:48:07Z</time>
      </trkpt>
      <trkpt lat="48.09521" lon="6.70876">
        <ele>630.2</ele>
        <time>2023-09-03T07:48:08Z</time>
      </trkpt>
      <trkpt lat="48.09521" lon="6.70876">
        <ele>630.2</ele>
        <time>2023-09-03T07:48:09Z</time>
      </trkpt>
      <trkpt lat="48.09521" lon="6.70876">
        <ele>630.4</ele>
        <time>2023-09-03T07:48:10Z</time>
      </trkpt>
      <trkpt lat="48.0952" lon="6.70877">
        <ele>630.4</ele>
        <time>2023-09-03T07:48:11Z</time>
      </trkpt>
      <trkpt lat="48.09518" lon="6.70879">
        <ele>630.4</ele>
        <time>2023-09-03T07:48:12Z</time>
      </trkpt>
      <trkpt lat="48.09516" lon="6.70881">
        <ele>630.4</ele>
        <time>2023-09-03T07:48:13Z</time>
      </trkpt>
      <trkpt lat="48.09515" lon="6.70883">
        <ele>630.4</ele>
        <time>2023-09-03T07:48:14Z</time>
      </trkpt>
      <trkpt lat="48.09514" lon="6.70885">
        <ele>630.4</ele>
        <time>2023-09-03T07:48:15Z</time>
      </trkpt>
      <trkpt lat="48.09512" lon="6.70887">
        <ele>630.4</ele>
        <time>2023-09-03T07:48:16Z</time>
      </trkpt>
      <trkpt lat="48.09511" lon="6.70889">
        <ele>630.4</ele>
        <time>2023-09-03T07:48:17Z</time>
      </trkpt>
      <trkpt lat="48.0951" lon="6.70891">
        <ele>630.4</ele>
        <time>2023-09-03T07:48:18Z</time>
      </trkpt>
      <trkpt lat="48.09508" lon="6.70892">
        <ele>630.4</ele>
        <time>2023-09-03T07:48:19Z</time>
      </trkpt>
      <trkpt lat="48.09507" lon="6.70892">
        <ele>630.4</ele>
        <time>2023-09-03T07:48:20Z</time>
      </trkpt>
      <trkpt lat="48.09505" lon="6.70892">
        <ele>630.4</ele>
        <time>2023-09-03T07:48:21Z</time>
      </trkpt>
      <trkpt lat="48.09504" lon="6.70893">
        <ele>630.4</ele>
        <time>2023-09-03T07:48:22Z</time>
      </trkpt>
      <trkpt lat="48.09504" lon="6.70893">
        <ele>630.4</ele>
        <time>2023-09-03T07:48:23Z</time>
      </trkpt>
      <trkpt lat="48.09503" lon="6.70894">
        <ele>630.4</ele>
        <time>2023-09-03T07:48:24Z</time>
      </trkpt>
      <trkpt lat="48.09502" lon="6.70894">
        <ele>630.4</ele>
        <time>2023-09-03T07:48:25Z</time>
      </trkpt>
      <trkpt lat="48.09501" lon="6.70894">
        <ele>630.2</ele>
        <time>2023-09-03T07:48:26Z</time>
      </trkpt>
      <trkpt lat="48.09499" lon="6.70894">
        <ele>630.2</ele>
        <time>2023-09-03T07:48:27Z</time>
      </trkpt>
      <trkpt lat="48.09498" lon="6.70894">
        <ele>630</ele>
        <time>2023-09-03T07:48:28Z</time>
      </trkpt>
      <trkpt lat="48.09496" lon="6.70893">
        <ele>629.8</ele>
        <time>2023-09-03T07:48:29Z</time>
      </trkpt>
      <trkpt lat="48.09494" lon="6.70893">
        <ele>629.6</ele>
        <time>2023-09-03T07:48:30Z</time>
      </trkpt>
      <trkpt lat="48.09493" lon="6.70893">
        <ele>629.6</ele>
        <time>2023-09-03T07:48:31Z</time>
      </trkpt>
      <trkpt lat="48.09491" lon="6.70894">
        <ele>629.6</ele>
        <time>2023-09-03T07:48:32Z</time>
      </trkpt>
      <trkpt lat="48.0949" lon="6.70894">
        <ele>629.6</ele>
        <time>2023-09-03T07:48:33Z</time>
      </trkpt>
      <trkpt lat="48.09489" lon="6.70894">
        <ele>629.4</ele>
        <time>2023-09-03T07:48:34Z</time>
      </trkpt>
      <trkpt lat="48.09488" lon="6.70894">
        <ele>629.4</ele>
        <time>2023-09-03T07:48:35Z</time>
      </trkpt>
      <trkpt lat="48.09487" lon="6.70895">
        <ele>629.4</ele>
        <time>2023-09-03T07:48:36Z</time>
      </trkpt>
      <trkpt lat="48.09486" lon="6.70894">
        <ele>629.2</ele>
        <time>2023-09-03T07:48:37Z</time>
      </trkpt>
      <trkpt lat="48.09486" lon="6.70893">
        <ele>629.2</ele>
        <time>2023-09-03T07:48:38Z</time>
      </trkpt>
      <trkpt lat="48.09484" lon="6.70893">
        <ele>629</ele>
        <time>2023-09-03T07:48:39Z</time>
      </trkpt>
      <trkpt lat="48.09483" lon="6.70893">
        <ele>628.8</ele>
        <time>2023-09-03T07:48:40Z</time>
      </trkpt>
      <trkpt lat="48.09482" lon="6.70892">
        <ele>628.6</ele>
        <time>2023-09-03T07:48:41Z</time>
      </trkpt>
      <trkpt lat="48.09481" lon="6.70892">
        <ele>628.6</ele>
        <time>2023-09-03T07:48:42Z</time>
      </trkpt>
      <trkpt lat="48.09479" lon="6.70892">
        <ele>628.4</ele>
        <time>2023-09-03T07:48:43Z</time>
      </trkpt>
      <trkpt lat="48.09478" lon="6.70892">
        <ele>628.2</ele>
        <time>2023-09-03T07:48:44Z</time>
      </trkpt>
      <trkpt lat="48.09477" lon="6.70892">
        <ele>628.2</ele>
        <time>2023-09-03T07:48:45Z</time>
      </trkpt>
      <trkpt lat="48.09475" lon="6.70891">
        <ele>628.2</ele>
        <time>2023-09-03T07:48:46Z</time>
      </trkpt>
      <trkpt lat="48.09474" lon="6.70891">
        <ele>628.2</ele>
        <time>2023-09-03T07:48:47Z</time>
      </trkpt>
      <trkpt lat="48.09473" lon="6.7089">
        <ele>628.2</ele>
        <time>2023-09-03T07:48:48Z</time>
      </trkpt>
      <trkpt lat="48.09473" lon="6.7089">
        <ele>628.6</ele>
        <time>2023-09-03T07:48:49Z</time>
      </trkpt>
      <trkpt lat="48.09473" lon="6.7089">
        <ele>633.4</ele>
        <time>2023-09-03T07:48:50Z</time>
      </trkpt>
      <trkpt lat="48.09472" lon="6.70889">
        <ele>635.4</ele>
        <time>2023-09-03T07:48:51Z</time>
      </trkpt>
      <trkpt lat="48.09472" lon="6.70889">
        <ele>639.8</ele>
        <time>2023-09-03T07:48:52Z</time>
      </trkpt>
      <trkpt lat="48.09471" lon="6.70888">
        <ele>641.8</ele>
        <time>2023-09-03T07:48:53Z</time>
      </trkpt>
      <trkpt lat="48.09469" lon="6.70887">
        <ele>644.8</ele>
        <time>2023-09-03T07:48:54Z</time>
      </trkpt>
      <trkpt lat="48.09468" lon="6.70886">
        <ele>645.8</ele>
        <time>2023-09-03T07:48:55Z</time>
      </trkpt>
      <trkpt lat="48.09467" lon="6.70885">
        <ele>647.2</ele>
        <time>2023-09-03T07:48:56Z</time>
      </trkpt>
      <trkpt lat="48.09466" lon="6.70884">
        <ele>647.6</ele>
        <time>2023-09-03T07:48:57Z</time>
      </trkpt>
      <trkpt lat="48.09465" lon="6.70883">
        <ele>648.2</ele>
        <time>2023-09-03T07:48:58Z</time>
      </trkpt>
      <trkpt lat="48.09464" lon="6.70882">
        <ele>648.6</ele>
        <time>2023-09-03T07:48:59Z</time>
      </trkpt>
      <trkpt lat="48.09463" lon="6.70881">
        <ele>649</ele>
        <time>2023-09-03T07:49:00Z</time>
      </trkpt>
      <trkpt lat="48.09461" lon="6.7088">
        <ele>649.4</ele>
        <time>2023-09-03T07:49:01Z</time>
      </trkpt>
      <trkpt lat="48.0946" lon="6.70878">
        <ele>649.6</ele>
        <time>2023-09-03T07:49:02Z</time>
      </trkpt>
      <trkpt lat="48.09458" lon="6.70877">
        <ele>649.8</ele>
        <time>2023-09-03T07:49:03Z</time>
      </trkpt>
      <trkpt lat="48.09457" lon="6.70876">
        <ele>650</ele>
        <time>2023-09-03T07:49:04Z</time>
      </trkpt>
      <trkpt lat="48.09455" lon="6.70875">
        <ele>650.2</ele>
        <time>2023-09-03T07:49:05Z</time>
      </trkpt>
      <trkpt lat="48.09453" lon="6.70874">
        <ele>650.6</ele>
        <time>2023-09-03T07:49:06Z</time>
      </trkpt>
      <trkpt lat="48.09451" lon="6.70873">
        <ele>650.8</ele>
        <time>2023-09-03T07:49:07Z</time>
      </trkpt>
      <trkpt lat="48.09449" lon="6.70871">
        <ele>650.8</ele>
        <time>2023-09-03T07:49:08Z</time>
      </trkpt>
      <trkpt lat="48.09446" lon="6.7087">
        <ele>651</ele>
        <time>2023-09-03T07:49:09Z</time>
      </trkpt>
      <trkpt lat="48.09445" lon="6.70869">
        <ele>651.2</ele>
        <time>2023-09-03T07:49:10Z</time>
      </trkpt>
      <trkpt lat="48.09444" lon="6.70868">
        <ele>651.6</ele>
        <time>2023-09-03T07:49:11Z</time>
      </trkpt>
      <trkpt lat="48.09444" lon="6.70866">
        <ele>651.6</ele>
        <time>2023-09-03T07:49:12Z</time>
      </trkpt>
      <trkpt lat="48.09444" lon="6.70865">
        <ele>651.8</ele>
        <time>2023-09-03T07:49:13Z</time>
      </trkpt>
      <trkpt lat="48.09444" lon="6.70863">
        <ele>651.8</ele>
        <time>2023-09-03T07:49:14Z</time>
      </trkpt>
      <trkpt lat="48.09442" lon="6.70859">
        <ele>651.8</ele>
        <time>2023-09-03T07:49:15Z</time>
      </trkpt>
      <trkpt lat="48.09442" lon="6.70856">
        <ele>652</ele>
        <time>2023-09-03T07:49:16Z</time>
      </trkpt>
      <trkpt lat="48.09443" lon="6.70852">
        <ele>652</ele>
        <time>2023-09-03T07:49:17Z</time>
      </trkpt>
      <trkpt lat="48.09444" lon="6.70848">
        <ele>652.2</ele>
        <time>2023-09-03T07:49:18Z</time>
      </trkpt>
      <trkpt lat="48.09444" lon="6.70844">
        <ele>652.2</ele>
        <time>2023-09-03T07:49:19Z</time>
      </trkpt>
      <trkpt lat="48.09445" lon="6.7084">
        <ele>652.4</ele>
        <time>2023-09-03T07:49:20Z</time>
      </trkpt>
      <trkpt lat="48.09445" lon="6.70837">
        <ele>652.6</ele>
        <time>2023-09-03T07:49:21Z</time>
      </trkpt>
      <trkpt lat="48.09446" lon="6.70833">
        <ele>652.8</ele>
        <time>2023-09-03T07:49:22Z</time>
      </trkpt>
      <trkpt lat="48.09446" lon="6.7083">
        <ele>652.8</ele>
        <time>2023-09-03T07:49:23Z</time>
      </trkpt>
      <trkpt lat="48.09446" lon="6.70825">
        <ele>653.2</ele>
        <time>2023-09-03T07:49:24Z</time>
      </trkpt>
      <trkpt lat="48.09446" lon="6.70821">
        <ele>653.2</ele>
        <time>2023-09-03T07:49:25Z</time>
      </trkpt>
      <trkpt lat="48.09446" lon="6.70817">
        <ele>653.4</ele>
        <time>2023-09-03T07:49:26Z</time>
      </trkpt>
      <trkpt lat="48.09447" lon="6.70812">
        <ele>653.6</ele>
        <time>2023-09-03T07:49:27Z</time>
      </trkpt>
      <trkpt lat="48.09447" lon="6.70808">
        <ele>653.6</ele>
        <time>2023-09-03T07:49:28Z</time>
      </trkpt>
      <trkpt lat="48.09448" lon="6.70805">
        <ele>653.8</ele>
        <time>2023-09-03T07:49:29Z</time>
      </trkpt>
      <trkpt lat="48.09448" lon="6.70802">
        <ele>654</ele>
        <time>2023-09-03T07:49:30Z</time>
      </trkpt>
      <trkpt lat="48.09449" lon="6.70798">
        <ele>654.2</ele>
        <time>2023-09-03T07:49:31Z</time>
      </trkpt>
      <trkpt lat="48.0945" lon="6.70795">
        <ele>654.2</ele>
        <time>2023-09-03T07:49:32Z</time>
      </trkpt>
      <trkpt lat="48.09451" lon="6.70791">
        <ele>654.4</ele>
        <time>2023-09-03T07:49:33Z</time>
      </trkpt>
      <trkpt lat="48.09452" lon="6.70787">
        <ele>654.4</ele>
        <time>2023-09-03T07:49:34Z</time>
      </trkpt>
      <trkpt lat="48.09452" lon="6.70783">
        <ele>654.6</ele>
        <time>2023-09-03T07:49:35Z</time>
      </trkpt>
      <trkpt lat="48.09453" lon="6.7078">
        <ele>654.6</ele>
        <time>2023-09-03T07:49:36Z</time>
      </trkpt>
      <trkpt lat="48.09454" lon="6.70777">
        <ele>654.6</ele>
        <time>2023-09-03T07:49:37Z</time>
      </trkpt>
      <trkpt lat="48.09454" lon="6.70773">
        <ele>654.8</ele>
        <time>2023-09-03T07:49:38Z</time>
      </trkpt>
      <trkpt lat="48.09454" lon="6.7077">
        <ele>654.8</ele>
        <time>2023-09-03T07:49:39Z</time>
      </trkpt>
      <trkpt lat="48.09455" lon="6.70766">
        <ele>655</ele>
        <time>2023-09-03T07:49:40Z</time>
      </trkpt>
      <trkpt lat="48.09455" lon="6.70763">
        <ele>655</ele>
        <time>2023-09-03T07:49:41Z</time>
      </trkpt>
      <trkpt lat="48.09457" lon="6.7076">
        <ele>655</ele>
        <time>2023-09-03T07:49:42Z</time>
      </trkpt>
      <trkpt lat="48.09458" lon="6.70757">
        <ele>655.2</ele>
        <time>2023-09-03T07:49:43Z</time>
      </trkpt>
      <trkpt lat="48.09459" lon="6.70754">
        <ele>655.2</ele>
        <time>2023-09-03T07:49:44Z</time>
      </trkpt>
      <trkpt lat="48.09459" lon="6.7075">
        <ele>655.4</ele>
        <time>2023-09-03T07:49:45Z</time>
      </trkpt>
      <trkpt lat="48.0946" lon="6.70747">
        <ele>655.4</ele>
        <time>2023-09-03T07:49:46Z</time>
      </trkpt>
      <trkpt lat="48.09461" lon="6.70743">
        <ele>655.6</ele>
        <time>2023-09-03T07:49:47Z</time>
      </trkpt>
      <trkpt lat="48.09462" lon="6.7074">
        <ele>655.8</ele>
        <time>2023-09-03T07:49:48Z</time>
      </trkpt>
      <trkpt lat="48.09462" lon="6.70736">
        <ele>656</ele>
        <time>2023-09-03T07:49:49Z</time>
      </trkpt>
      <trkpt lat="48.09463" lon="6.70733">
        <ele>656.2</ele>
        <time>2023-09-03T07:49:50Z</time>
      </trkpt>
      <trkpt lat="48.09464" lon="6.7073">
        <ele>656.4</ele>
        <time>2023-09-03T07:49:51Z</time>
      </trkpt>
      <trkpt lat="48.09465" lon="6.70726">
        <ele>656.6</ele>
        <time>2023-09-03T07:49:52Z</time>
      </trkpt>
      <trkpt lat="48.09466" lon="6.70723">
        <ele>656.8</ele>
        <time>2023-09-03T07:49:53Z</time>
      </trkpt>
      <trkpt lat="48.09467" lon="6.7072">
        <ele>656.8</ele>
        <time>2023-09-03T07:49:54Z</time>
      </trkpt>
      <trkpt lat="48.09468" lon="6.70717">
        <ele>657</ele>
        <time>2023-09-03T07:49:55Z</time>
      </trkpt>
      <trkpt lat="48.09469" lon="6.70714">
        <ele>657.4</ele>
        <time>2023-09-03T07:49:56Z</time>
      </trkpt>
      <trkpt lat="48.09469" lon="6.70711">
        <ele>657.8</ele>
        <time>2023-09-03T07:49:57Z</time>
      </trkpt>
      <trkpt lat="48.0947" lon="6.70708">
        <ele>657.8</ele>
        <time>2023-09-03T07:49:58Z</time>
      </trkpt>
      <trkpt lat="48.09471" lon="6.70705">
        <ele>658</ele>
        <time>2023-09-03T07:49:59Z</time>
      </trkpt>
      <trkpt lat="48.09472" lon="6.70702">
        <ele>658.4</ele>
        <time>2023-09-03T07:50:00Z</time>
      </trkpt>
      <trkpt lat="48.09473" lon="6.70699">
        <ele>658.8</ele>
        <time>2023-09-03T07:50:01Z</time>
      </trkpt>
      <trkpt lat="48.09474" lon="6.70696">
        <ele>659</ele>
        <time>2023-09-03T07:50:02Z</time>
      </trkpt>
      <trkpt lat="48.09475" lon="6.70693">
        <ele>659.6</ele>
        <time>2023-09-03T07:50:03Z</time>
      </trkpt>
      <trkpt lat="48.09475" lon="6.7069">
        <ele>659.8</ele>
        <time>2023-09-03T07:50:04Z</time>
      </trkpt>
      <trkpt lat="48.09476" lon="6.70687">
        <ele>660</ele>
        <time>2023-09-03T07:50:05Z</time>
      </trkpt>
      <trkpt lat="48.09477" lon="6.70684">
        <ele>660.2</ele>
        <time>2023-09-03T07:50:06Z</time>
      </trkpt>
      <trkpt lat="48.09477" lon="6.70681">
        <ele>660.4</ele>
        <time>2023-09-03T07:50:07Z</time>
      </trkpt>
      <trkpt lat="48.09478" lon="6.70678">
        <ele>661</ele>
        <time>2023-09-03T07:50:08Z</time>
      </trkpt>
      <trkpt lat="48.09479" lon="6.70674">
        <ele>661.2</ele>
        <time>2023-09-03T07:50:09Z</time>
      </trkpt>
      <trkpt lat="48.0948" lon="6.70671">
        <ele>661.6</ele>
        <time>2023-09-03T07:50:10Z</time>
      </trkpt>
      <trkpt lat="48.0948" lon="6.70668">
        <ele>661.8</ele>
        <time>2023-09-03T07:50:11Z</time>
      </trkpt>
      <trkpt lat="48.09481" lon="6.70664">
        <ele>662</ele>
        <time>2023-09-03T07:50:12Z</time>
      </trkpt>
      <trkpt lat="48.09481" lon="6.70661">
        <ele>662.2</ele>
        <time>2023-09-03T07:50:13Z</time>
      </trkpt>
      <trkpt lat="48.09482" lon="6.70657">
        <ele>662.6</ele>
        <time>2023-09-03T07:50:14Z</time>
      </trkpt>
      <trkpt lat="48.09483" lon="6.70654">
        <ele>662.6</ele>
        <time>2023-09-03T07:50:15Z</time>
      </trkpt>
      <trkpt lat="48.09483" lon="6.7065">
        <ele>662.8</ele>
        <time>2023-09-03T07:50:16Z</time>
      </trkpt>
      <trkpt lat="48.09484" lon="6.70647">
        <ele>663</ele>
        <time>2023-09-03T07:50:17Z</time>
      </trkpt>
      <trkpt lat="48.09484" lon="6.70644">
        <ele>663.2</ele>
        <time>2023-09-03T07:50:18Z</time>
      </trkpt>
      <trkpt lat="48.09484" lon="6.7064">
        <ele>663.4</ele>
        <time>2023-09-03T07:50:19Z</time>
      </trkpt>
      <trkpt lat="48.09485" lon="6.70637">
        <ele>663.6</ele>
        <time>2023-09-03T07:50:20Z</time>
      </trkpt>
      <trkpt lat="48.09485" lon="6.70634">
        <ele>663.8</ele>
        <time>2023-09-03T07:50:21Z</time>
      </trkpt>
      <trkpt lat="48.09486" lon="6.70631">
        <ele>664</ele>
        <time>2023-09-03T07:50:22Z</time>
      </trkpt>
      <trkpt lat="48.09486" lon="6.70627">
        <ele>664</ele>
        <time>2023-09-03T07:50:23Z</time>
      </trkpt>
      <trkpt lat="48.09486" lon="6.70624">
        <ele>664.2</ele>
        <time>2023-09-03T07:50:24Z</time>
      </trkpt>
      <trkpt lat="48.09486" lon="6.70621">
        <ele>664.4</ele>
        <time>2023-09-03T07:50:25Z</time>
      </trkpt>
      <trkpt lat="48.09486" lon="6.70618">
        <ele>664.4</ele>
        <time>2023-09-03T07:50:26Z</time>
      </trkpt>
      <trkpt lat="48.09487" lon="6.70615">
        <ele>664.8</ele>
        <time>2023-09-03T07:50:27Z</time>
      </trkpt>
      <trkpt lat="48.09487" lon="6.70612">
        <ele>665</ele>
        <time>2023-09-03T07:50:28Z</time>
      </trkpt>
      <trkpt lat="48.09487" lon="6.7061">
        <ele>665.2</ele>
        <time>2023-09-03T07:50:29Z</time>
      </trkpt>
      <trkpt lat="48.09487" lon="6.70607">
        <ele>665.4</ele>
        <time>2023-09-03T07:50:30Z</time>
      </trkpt>
      <trkpt lat="48.09488" lon="6.70605">
        <ele>665.6</ele>
        <time>2023-09-03T07:50:31Z</time>
      </trkpt>
      <trkpt lat="48.09488" lon="6.70602">
        <ele>666</ele>
        <time>2023-09-03T07:50:32Z</time>
      </trkpt>
      <trkpt lat="48.09488" lon="6.70599">
        <ele>666.2</ele>
        <time>2023-09-03T07:50:33Z</time>
      </trkpt>
      <trkpt lat="48.09489" lon="6.70597">
        <ele>666.4</ele>
        <time>2023-09-03T07:50:34Z</time>
      </trkpt>
      <trkpt lat="48.09489" lon="6.70594">
        <ele>666.6</ele>
        <time>2023-09-03T07:50:35Z</time>
      </trkpt>
      <trkpt lat="48.09489" lon="6.70592">
        <ele>667.2</ele>
        <time>2023-09-03T07:50:36Z</time>
      </trkpt>
      <trkpt lat="48.09488" lon="6.70589">
        <ele>667.6</ele>
        <time>2023-09-03T07:50:37Z</time>
      </trkpt>
      <trkpt lat="48.09488" lon="6.70586">
        <ele>668</ele>
        <time>2023-09-03T07:50:38Z</time>
      </trkpt>
      <trkpt lat="48.09488" lon="6.70583">
        <ele>667.8</ele>
        <time>2023-09-03T07:50:39Z</time>
      </trkpt>
      <trkpt lat="48.09488" lon="6.70581">
        <ele>668</ele>
        <time>2023-09-03T07:50:40Z</time>
      </trkpt>
      <trkpt lat="48.09488" lon="6.70578">
        <ele>668.2</ele>
        <time>2023-09-03T07:50:41Z</time>
      </trkpt>
      <trkpt lat="48.09487" lon="6.70575">
        <ele>668.4</ele>
        <time>2023-09-03T07:50:42Z</time>
      </trkpt>
      <trkpt lat="48.09487" lon="6.70573">
        <ele>668.2</ele>
        <time>2023-09-03T07:50:43Z</time>
      </trkpt>
      <trkpt lat="48.09487" lon="6.7057">
        <ele>668.6</ele>
        <time>2023-09-03T07:50:44Z</time>
      </trkpt>
      <trkpt lat="48.09487" lon="6.70568">
        <ele>668.8</ele>
        <time>2023-09-03T07:50:45Z</time>
      </trkpt>
      <trkpt lat="48.09487" lon="6.70566">
        <ele>669</ele>
        <time>2023-09-03T07:50:46Z</time>
      </trkpt>
      <trkpt lat="48.09487" lon="6.70564">
        <ele>669.4</ele>
        <time>2023-09-03T07:50:47Z</time>
      </trkpt>
      <trkpt lat="48.09488" lon="6.70562">
        <ele>669.6</ele>
        <time>2023-09-03T07:50:48Z</time>
      </trkpt>
      <trkpt lat="48.09489" lon="6.70559">
        <ele>670</ele>
        <time>2023-09-03T07:50:49Z</time>
      </trkpt>
      <trkpt lat="48.0949" lon="6.70558">
        <ele>670</ele>
        <time>2023-09-03T07:50:50Z</time>
      </trkpt>
      <trkpt lat="48.09491" lon="6.70556">
        <ele>670.4</ele>
        <time>2023-09-03T07:50:51Z</time>
      </trkpt>
      <trkpt lat="48.09492" lon="6.70555">
        <ele>670.6</ele>
        <time>2023-09-03T07:50:52Z</time>
      </trkpt>
      <trkpt lat="48.09492" lon="6.70553">
        <ele>671</ele>
        <time>2023-09-03T07:50:53Z</time>
      </trkpt>
      <trkpt lat="48.09493" lon="6.70551">
        <ele>671.2</ele>
        <time>2023-09-03T07:50:54Z</time>
      </trkpt>
      <trkpt lat="48.09494" lon="6.70549">
        <ele>671.6</ele>
        <time>2023-09-03T07:50:55Z</time>
      </trkpt>
      <trkpt lat="48.09494" lon="6.70548">
        <ele>671.8</ele>
        <time>2023-09-03T07:50:56Z</time>
      </trkpt>
      <trkpt lat="48.09494" lon="6.70546">
        <ele>672</ele>
        <time>2023-09-03T07:50:57Z</time>
      </trkpt>
      <trkpt lat="48.09495" lon="6.70544">
        <ele>672.4</ele>
        <time>2023-09-03T07:50:58Z</time>
      </trkpt>
      <trkpt lat="48.09495" lon="6.70542">
        <ele>672.6</ele>
        <time>2023-09-03T07:50:59Z</time>
      </trkpt>
      <trkpt lat="48.09496" lon="6.7054">
        <ele>672.8</ele>
        <time>2023-09-03T07:51:00Z</time>
      </trkpt>
      <trkpt lat="48.09495" lon="6.70537">
        <ele>673.2</ele>
        <time>2023-09-03T07:51:01Z</time>
      </trkpt>
      <trkpt lat="48.09495" lon="6.70535">
        <ele>673.6</ele>
        <time>2023-09-03T07:51:02Z</time>
      </trkpt>
      <trkpt lat="48.09495" lon="6.70533">
        <ele>673.8</ele>
        <time>2023-09-03T07:51:03Z</time>
      </trkpt>
      <trkpt lat="48.09495" lon="6.70531">
        <ele>674</ele>
        <time>2023-09-03T07:51:04Z</time>
      </trkpt>
      <trkpt lat="48.09494" lon="6.70528">
        <ele>674.2</ele>
        <time>2023-09-03T07:51:05Z</time>
      </trkpt>
      <trkpt lat="48.09493" lon="6.70526">
        <ele>674.4</ele>
        <time>2023-09-03T07:51:06Z</time>
      </trkpt>
      <trkpt lat="48.09492" lon="6.70524">
        <ele>674.6</ele>
        <time>2023-09-03T07:51:07Z</time>
      </trkpt>
      <trkpt lat="48.09491" lon="6.70522">
        <ele>675</ele>
        <time>2023-09-03T07:51:08Z</time>
      </trkpt>
      <trkpt lat="48.0949" lon="6.7052">
        <ele>675.4</ele>
        <time>2023-09-03T07:51:09Z</time>
      </trkpt>
      <trkpt lat="48.0949" lon="6.70518">
        <ele>675.6</ele>
        <time>2023-09-03T07:51:10Z</time>
      </trkpt>
      <trkpt lat="48.09489" lon="6.70516">
        <ele>676</ele>
        <time>2023-09-03T07:51:11Z</time>
      </trkpt>
      <trkpt lat="48.09489" lon="6.70514">
        <ele>676.2</ele>
        <time>2023-09-03T07:51:12Z</time>
      </trkpt>
      <trkpt lat="48.09488" lon="6.70511">
        <ele>676.4</ele>
        <time>2023-09-03T07:51:13Z</time>
      </trkpt>
      <trkpt lat="48.09488" lon="6.70509">
        <ele>676.6</ele>
        <time>2023-09-03T07:51:14Z</time>
      </trkpt>
      <trkpt lat="48.09488" lon="6.70507">
        <ele>676.8</ele>
        <time>2023-09-03T07:51:15Z</time>
      </trkpt>
      <trkpt lat="48.09488" lon="6.70505">
        <ele>677</ele>
        <time>2023-09-03T07:51:16Z</time>
      </trkpt>
      <trkpt lat="48.09488" lon="6.70503">
        <ele>677.4</ele>
        <time>2023-09-03T07:51:17Z</time>
      </trkpt>
      <trkpt lat="48.09489" lon="6.705">
        <ele>677.4</ele>
        <time>2023-09-03T07:51:18Z</time>
      </trkpt>
      <trkpt lat="48.0949" lon="6.70498">
        <ele>677.8</ele>
        <time>2023-09-03T07:51:19Z</time>
      </trkpt>
      <trkpt lat="48.0949" lon="6.70496">
        <ele>678</ele>
        <time>2023-09-03T07:51:20Z</time>
      </trkpt>
      <trkpt lat="48.09491" lon="6.70493">
        <ele>678.4</ele>
        <time>2023-09-03T07:51:21Z</time>
      </trkpt>
      <trkpt lat="48.09491" lon="6.7049">
        <ele>678.6</ele>
        <time>2023-09-03T07:51:22Z</time>
      </trkpt>
      <trkpt lat="48.09491" lon="6.70488">
        <ele>678.8</ele>
        <time>2023-09-03T07:51:23Z</time>
      </trkpt>
      <trkpt lat="48.09492" lon="6.70485">
        <ele>679</ele>
        <time>2023-09-03T07:51:24Z</time>
      </trkpt>
      <trkpt lat="48.09492" lon="6.70483">
        <ele>679.2</ele>
        <time>2023-09-03T07:51:25Z</time>
      </trkpt>
      <trkpt lat="48.09492" lon="6.7048">
        <ele>679.4</ele>
        <time>2023-09-03T07:51:26Z</time>
      </trkpt>
      <trkpt lat="48.09492" lon="6.70478">
        <ele>679.6</ele>
        <time>2023-09-03T07:51:27Z</time>
      </trkpt>
      <trkpt lat="48.09493" lon="6.70475">
        <ele>680</ele>
        <time>2023-09-03T07:51:28Z</time>
      </trkpt>
      <trkpt lat="48.09493" lon="6.70472">
        <ele>680</ele>
        <time>2023-09-03T07:51:29Z</time>
      </trkpt>
      <trkpt lat="48.09494" lon="6.70469">
        <ele>680.2</ele>
        <time>2023-09-03T07:51:30Z</time>
      </trkpt>
      <trkpt lat="48.09494" lon="6.70466">
        <ele>680.4</ele>
        <time>2023-09-03T07:51:31Z</time>
      </trkpt>
      <trkpt lat="48.09495" lon="6.70464">
        <ele>680.4</ele>
        <time>2023-09-03T07:51:32Z</time>
      </trkpt>
      <trkpt lat="48.09495" lon="6.70461">
        <ele>680.6</ele>
        <time>2023-09-03T07:51:33Z</time>
      </trkpt>
      <trkpt lat="48.09496" lon="6.70458">
        <ele>680.8</ele>
        <time>2023-09-03T07:51:34Z</time>
      </trkpt>
      <trkpt lat="48.09496" lon="6.70456">
        <ele>681.2</ele>
        <time>2023-09-03T07:51:35Z</time>
      </trkpt>
      <trkpt lat="48.09497" lon="6.70453">
        <ele>681.2</ele>
        <time>2023-09-03T07:51:36Z</time>
      </trkpt>
      <trkpt lat="48.09497" lon="6.70451">
        <ele>681.6</ele>
        <time>2023-09-03T07:51:37Z</time>
      </trkpt>
      <trkpt lat="48.09498" lon="6.70449">
        <ele>681.8</ele>
        <time>2023-09-03T07:51:38Z</time>
      </trkpt>
      <trkpt lat="48.09498" lon="6.70447">
        <ele>682</ele>
        <time>2023-09-03T07:51:39Z</time>
      </trkpt>
      <trkpt lat="48.09498" lon="6.70444">
        <ele>682</ele>
        <time>2023-09-03T07:51:40Z</time>
      </trkpt>
      <trkpt lat="48.09497" lon="6.70441">
        <ele>682.2</ele>
        <time>2023-09-03T07:51:41Z</time>
      </trkpt>
      <trkpt lat="48.09496" lon="6.70439">
        <ele>682.4</ele>
        <time>2023-09-03T07:51:42Z</time>
      </trkpt>
      <trkpt lat="48.09495" lon="6.70436">
        <ele>682.6</ele>
        <time>2023-09-03T07:51:43Z</time>
      </trkpt>
      <trkpt lat="48.09494" lon="6.70434">
        <ele>682.6</ele>
        <time>2023-09-03T07:51:44Z</time>
      </trkpt>
      <trkpt lat="48.09493" lon="6.70431">
        <ele>682.8</ele>
        <time>2023-09-03T07:51:45Z</time>
      </trkpt>
      <trkpt lat="48.09492" lon="6.7043">
        <ele>683.2</ele>
        <time>2023-09-03T07:51:46Z</time>
      </trkpt>
      <trkpt lat="48.09491" lon="6.70428">
        <ele>683.4</ele>
        <time>2023-09-03T07:51:47Z</time>
      </trkpt>
      <trkpt lat="48.0949" lon="6.70426">
        <ele>683.6</ele>
        <time>2023-09-03T07:51:48Z</time>
      </trkpt>
      <trkpt lat="48.09488" lon="6.70424">
        <ele>683.6</ele>
        <time>2023-09-03T07:51:49Z</time>
      </trkpt>
      <trkpt lat="48.09487" lon="6.70424">
        <ele>684</ele>
        <time>2023-09-03T07:51:50Z</time>
      </trkpt>
      <trkpt lat="48.09486" lon="6.70423">
        <ele>684.2</ele>
        <time>2023-09-03T07:51:51Z</time>
      </trkpt>
      <trkpt lat="48.09485" lon="6.70422">
        <ele>684.4</ele>
        <time>2023-09-03T07:51:52Z</time>
      </trkpt>
      <trkpt lat="48.09484" lon="6.70421">
        <ele>684.6</ele>
        <time>2023-09-03T07:51:53Z</time>
      </trkpt>
      <trkpt lat="48.09482" lon="6.7042">
        <ele>685</ele>
        <time>2023-09-03T07:51:54Z</time>
      </trkpt>
      <trkpt lat="48.09481" lon="6.7042">
        <ele>685</ele>
        <time>2023-09-03T07:51:55Z</time>
      </trkpt>
      <trkpt lat="48.09479" lon="6.70419">
        <ele>685.4</ele>
        <time>2023-09-03T07:51:56Z</time>
      </trkpt>
      <trkpt lat="48.09477" lon="6.70417">
        <ele>685.4</ele>
        <time>2023-09-03T07:51:57Z</time>
      </trkpt>
      <trkpt lat="48.09476" lon="6.70415">
        <ele>686</ele>
        <time>2023-09-03T07:51:58Z</time>
      </trkpt>
      <trkpt lat="48.09475" lon="6.70415">
        <ele>686.2</ele>
        <time>2023-09-03T07:51:59Z</time>
      </trkpt>
      <trkpt lat="48.09473" lon="6.70415">
        <ele>686.4</ele>
        <time>2023-09-03T07:52:00Z</time>
      </trkpt>
      <trkpt lat="48.09471" lon="6.70415">
        <ele>686.8</ele>
        <time>2023-09-03T07:52:01Z</time>
      </trkpt>
      <trkpt lat="48.0947" lon="6.70415">
        <ele>686.8</ele>
        <time>2023-09-03T07:52:02Z</time>
      </trkpt>
      <trkpt lat="48.09469" lon="6.70415">
        <ele>687.4</ele>
        <time>2023-09-03T07:52:03Z</time>
      </trkpt>
      <trkpt lat="48.09469" lon="6.70413">
        <ele>687.6</ele>
        <time>2023-09-03T07:52:04Z</time>
      </trkpt>
      <trkpt lat="48.09468" lon="6.70412">
        <ele>687.8</ele>
        <time>2023-09-03T07:52:05Z</time>
      </trkpt>
      <trkpt lat="48.09467" lon="6.70411">
        <ele>688</ele>
        <time>2023-09-03T07:52:06Z</time>
      </trkpt>
      <trkpt lat="48.09466" lon="6.7041">
        <ele>688.4</ele>
        <time>2023-09-03T07:52:07Z</time>
      </trkpt>
      <trkpt lat="48.09465" lon="6.70409">
        <ele>688.4</ele>
        <time>2023-09-03T07:52:08Z</time>
      </trkpt>
      <trkpt lat="48.09465" lon="6.70409">
        <ele>689</ele>
        <time>2023-09-03T07:52:09Z</time>
      </trkpt>
      <trkpt lat="48.09465" lon="6.70408">
        <ele>689.4</ele>
        <time>2023-09-03T07:52:10Z</time>
      </trkpt>
      <trkpt lat="48.09464" lon="6.70407">
        <ele>689.4</ele>
        <time>2023-09-03T07:52:11Z</time>
      </trkpt>
      <trkpt lat="48.09463" lon="6.70406">
        <ele>689.8</ele>
        <time>2023-09-03T07:52:12Z</time>
      </trkpt>
      <trkpt lat="48.09462" lon="6.70405">
        <ele>689.8</ele>
        <time>2023-09-03T07:52:13Z</time>
      </trkpt>
      <trkpt lat="48.09461" lon="6.70403">
        <ele>690.2</ele>
        <time>2023-09-03T07:52:14Z</time>
      </trkpt>
      <trkpt lat="48.0946" lon="6.70401">
        <ele>690.2</ele>
        <time>2023-09-03T07:52:15Z</time>
      </trkpt>
      <trkpt lat="48.09459" lon="6.704">
        <ele>690.4</ele>
        <time>2023-09-03T07:52:16Z</time>
      </trkpt>
      <trkpt lat="48.09458" lon="6.70399">
        <ele>690.6</ele>
        <time>2023-09-03T07:52:17Z</time>
      </trkpt>
      <trkpt lat="48.09458" lon="6.70397">
        <ele>691</ele>
        <time>2023-09-03T07:52:18Z</time>
      </trkpt>
      <trkpt lat="48.09457" lon="6.70396">
        <ele>691.2</ele>
        <time>2023-09-03T07:52:19Z</time>
      </trkpt>
      <trkpt lat="48.09457" lon="6.70394">
        <ele>691.4</ele>
        <time>2023-09-03T07:52:20Z</time>
      </trkpt>
      <trkpt lat="48.09456" lon="6.70393">
        <ele>691.6</ele>
        <time>2023-09-03T07:52:21Z</time>
      </trkpt>
      <trkpt lat="48.09455" lon="6.70389">
        <ele>691.8</ele>
        <time>2023-09-03T07:52:22Z</time>
      </trkpt>
      <trkpt lat="48.09454" lon="6.70387">
        <ele>691.8</ele>
        <time>2023-09-03T07:52:23Z</time>
      </trkpt>
      <trkpt lat="48.09453" lon="6.70385">
        <ele>691.8</ele>
        <time>2023-09-03T07:52:24Z</time>
      </trkpt>
      <trkpt lat="48.09452" lon="6.70383">
        <ele>692</ele>
        <time>2023-09-03T07:52:25Z</time>
      </trkpt>
      <trkpt lat="48.09451" lon="6.70381">
        <ele>692.2</ele>
        <time>2023-09-03T07:52:26Z</time>
      </trkpt>
      <trkpt lat="48.0945" lon="6.7038">
        <ele>692.6</ele>
        <time>2023-09-03T07:52:27Z</time>
      </trkpt>
      <trkpt lat="48.0945" lon="6.70378">
        <ele>692.8</ele>
        <time>2023-09-03T07:52:28Z</time>
      </trkpt>
      <trkpt lat="48.09449" lon="6.70376">
        <ele>693</ele>
        <time>2023-09-03T07:52:29Z</time>
      </trkpt>
      <trkpt lat="48.09448" lon="6.70374">
        <ele>693.2</ele>
        <time>2023-09-03T07:52:30Z</time>
      </trkpt>
      <trkpt lat="48.09447" lon="6.70372">
        <ele>693.4</ele>
        <time>2023-09-03T07:52:31Z</time>
      </trkpt>
      <trkpt lat="48.09447" lon="6.7037">
        <ele>693.8</ele>
        <time>2023-09-03T07:52:32Z</time>
      </trkpt>
      <trkpt lat="48.09446" lon="6.70368">
        <ele>694</ele>
        <time>2023-09-03T07:52:33Z</time>
      </trkpt>
      <trkpt lat="48.09445" lon="6.70366">
        <ele>694.2</ele>
        <time>2023-09-03T07:52:34Z</time>
      </trkpt>
      <trkpt lat="48.09444" lon="6.70365">
        <ele>694.4</ele>
        <time>2023-09-03T07:52:35Z</time>
      </trkpt>
      <trkpt lat="48.09444" lon="6.70363">
        <ele>694.8</ele>
        <time>2023-09-03T07:52:36Z</time>
      </trkpt>
      <trkpt lat="48.09444" lon="6.70361">
        <ele>694.8</ele>
        <time>2023-09-03T07:52:37Z</time>
      </trkpt>
      <trkpt lat="48.09444" lon="6.70359">
        <ele>695.2</ele>
        <time>2023-09-03T07:52:38Z</time>
      </trkpt>
      <trkpt lat="48.09443" lon="6.70357">
        <ele>695.4</ele>
        <time>2023-09-03T07:52:39Z</time>
      </trkpt>
      <trkpt lat="48.09442" lon="6.70355">
        <ele>695.6</ele>
        <time>2023-09-03T07:52:40Z</time>
      </trkpt>
      <trkpt lat="48.09442" lon="6.70355">
        <ele>695.8</ele>
        <time>2023-09-03T07:52:41Z</time>
      </trkpt>
      <trkpt lat="48.09441" lon="6.70349">
        <ele>698</ele>
        <time>2023-09-03T07:53:03Z</time>
      </trkpt>
      <trkpt lat="48.09441" lon="6.70348">
        <ele>698.2</ele>
        <time>2023-09-03T07:53:04Z</time>
      </trkpt>
      <trkpt lat="48.09441" lon="6.70346">
        <ele>698.2</ele>
        <time>2023-09-03T07:53:05Z</time>
      </trkpt>
      <trkpt lat="48.0944" lon="6.70345">
        <ele>698.2</ele>
        <time>2023-09-03T07:53:06Z</time>
      </trkpt>
      <trkpt lat="48.0944" lon="6.70343">
        <ele>698.2</ele>
        <time>2023-09-03T07:53:07Z</time>
      </trkpt>
      <trkpt lat="48.09439" lon="6.70342">
        <ele>698.4</ele>
        <time>2023-09-03T07:53:08Z</time>
      </trkpt>
      <trkpt lat="48.09438" lon="6.70341">
        <ele>698.4</ele>
        <time>2023-09-03T07:53:09Z</time>
      </trkpt>
      <trkpt lat="48.09438" lon="6.70339">
        <ele>698.6</ele>
        <time>2023-09-03T07:53:10Z</time>
      </trkpt>
      <trkpt lat="48.09437" lon="6.70337">
        <ele>698.8</ele>
        <time>2023-09-03T07:53:11Z</time>
      </trkpt>
      <trkpt lat="48.09437" lon="6.70336">
        <ele>698.8</ele>
        <time>2023-09-03T07:53:12Z</time>
      </trkpt>
      <trkpt lat="48.09437" lon="6.70335">
        <ele>699</ele>
        <time>2023-09-03T07:53:13Z</time>
      </trkpt>
      <trkpt lat="48.09436" lon="6.70333">
        <ele>699.2</ele>
        <time>2023-09-03T07:53:14Z</time>
      </trkpt>
      <trkpt lat="48.09436" lon="6.70332">
        <ele>699.4</ele>
        <time>2023-09-03T07:53:15Z</time>
      </trkpt>
      <trkpt lat="48.09435" lon="6.7033">
        <ele>699.4</ele>
        <time>2023-09-03T07:53:16Z</time>
      </trkpt>
      <trkpt lat="48.09435" lon="6.70329">
        <ele>699.6</ele>
        <time>2023-09-03T07:53:17Z</time>
      </trkpt>
      <trkpt lat="48.09434" lon="6.70327">
        <ele>699.6</ele>
        <time>2023-09-03T07:53:18Z</time>
      </trkpt>
      <trkpt lat="48.09434" lon="6.70325">
        <ele>699.8</ele>
        <time>2023-09-03T07:53:19Z</time>
      </trkpt>
      <trkpt lat="48.09433" lon="6.70323">
        <ele>699.8</ele>
        <time>2023-09-03T07:53:20Z</time>
      </trkpt>
      <trkpt lat="48.09433" lon="6.70322">
        <ele>699.8</ele>
        <time>2023-09-03T07:53:21Z</time>
      </trkpt>
      <trkpt lat="48.09432" lon="6.7032">
        <ele>700</ele>
        <time>2023-09-03T07:53:22Z</time>
      </trkpt>
      <trkpt lat="48.09432" lon="6.70319">
        <ele>700.2</ele>
        <time>2023-09-03T07:53:23Z</time>
      </trkpt>
      <trkpt lat="48.09431" lon="6.70317">
        <ele>700.2</ele>
        <time>2023-09-03T07:53:24Z</time>
      </trkpt>
      <trkpt lat="48.0943" lon="6.70316">
        <ele>700.2</ele>
        <time>2023-09-03T07:53:25Z</time>
      </trkpt>
      <trkpt lat="48.09429" lon="6.70314">
        <ele>700.4</ele>
        <time>2023-09-03T07:53:26Z</time>
      </trkpt>
      <trkpt lat="48.09429" lon="6.70313">
        <ele>700.4</ele>
        <time>2023-09-03T07:53:27Z</time>
      </trkpt>
      <trkpt lat="48.09428" lon="6.70311">
        <ele>701</ele>
        <time>2023-09-03T07:53:31Z</time>
      </trkpt>
      <trkpt lat="48.09428" lon="6.7031">
        <ele>701</ele>
        <time>2023-09-03T07:53:32Z</time>
      </trkpt>
      <trkpt lat="48.09427" lon="6.70308">
        <ele>701.2</ele>
        <time>2023-09-03T07:53:33Z</time>
      </trkpt>
      <trkpt lat="48.09426" lon="6.70306">
        <ele>701.4</ele>
        <time>2023-09-03T07:53:34Z</time>
      </trkpt>
      <trkpt lat="48.09424" lon="6.70304">
        <ele>701.4</ele>
        <time>2023-09-03T07:53:35Z</time>
      </trkpt>
      <trkpt lat="48.09423" lon="6.70302">
        <ele>701.6</ele>
        <time>2023-09-03T07:53:36Z</time>
      </trkpt>
      <trkpt lat="48.09421" lon="6.703">
        <ele>701.6</ele>
        <time>2023-09-03T07:53:37Z</time>
      </trkpt>
      <trkpt lat="48.09419" lon="6.70298">
        <ele>701.8</ele>
        <time>2023-09-03T07:53:38Z</time>
      </trkpt>
      <trkpt lat="48.09417" lon="6.70296">
        <ele>701.8</ele>
        <time>2023-09-03T07:53:39Z</time>
      </trkpt>
      <trkpt lat="48.09416" lon="6.70294">
        <ele>701.8</ele>
        <time>2023-09-03T07:53:40Z</time>
      </trkpt>
      <trkpt lat="48.09414" lon="6.70291">
        <ele>702</ele>
        <time>2023-09-03T07:53:41Z</time>
      </trkpt>
      <trkpt lat="48.09413" lon="6.70288">
        <ele>702</ele>
        <time>2023-09-03T07:53:42Z</time>
      </trkpt>
      <trkpt lat="48.09411" lon="6.70286">
        <ele>702</ele>
        <time>2023-09-03T07:53:43Z</time>
      </trkpt>
      <trkpt lat="48.0941" lon="6.70283">
        <ele>702</ele>
        <time>2023-09-03T07:53:44Z</time>
      </trkpt>
      <trkpt lat="48.09409" lon="6.70281">
        <ele>702</ele>
        <time>2023-09-03T07:53:45Z</time>
      </trkpt>
      <trkpt lat="48.09407" lon="6.70279">
        <ele>702</ele>
        <time>2023-09-03T07:53:46Z</time>
      </trkpt>
      <trkpt lat="48.09405" lon="6.70278">
        <ele>702</ele>
        <time>2023-09-03T07:53:47Z</time>
      </trkpt>
      <trkpt lat="48.09403" lon="6.70276">
        <ele>702</ele>
        <time>2023-09-03T07:53:48Z</time>
      </trkpt>
      <trkpt lat="48.09402" lon="6.70274">
        <ele>702.2</ele>
        <time>2023-09-03T07:53:49Z</time>
      </trkpt>
      <trkpt lat="48.094" lon="6.70272">
        <ele>702.4</ele>
        <time>2023-09-03T07:53:50Z</time>
      </trkpt>
      <trkpt lat="48.09399" lon="6.70269">
        <ele>702.4</ele>
        <time>2023-09-03T07:53:51Z</time>
      </trkpt>
      <trkpt lat="48.09398" lon="6.70266">
        <ele>702.4</ele>
        <time>2023-09-03T07:53:52Z</time>
      </trkpt>
      <trkpt lat="48.09396" lon="6.70264">
        <ele>702.4</ele>
        <time>2023-09-03T07:53:53Z</time>
      </trkpt>
      <trkpt lat="48.09394" lon="6.70262">
        <ele>702.6</ele>
        <time>2023-09-03T07:53:54Z</time>
      </trkpt>
      <trkpt lat="48.09392" lon="6.70261">
        <ele>702.6</ele>
        <time>2023-09-03T07:53:55Z</time>
      </trkpt>
      <trkpt lat="48.0939" lon="6.70261">
        <ele>702.8</ele>
        <time>2023-09-03T07:53:56Z</time>
      </trkpt>
      <trkpt lat="48.09387" lon="6.70259">
        <ele>702.8</ele>
        <time>2023-09-03T07:53:57Z</time>
      </trkpt>
      <trkpt lat="48.09384" lon="6.70258">
        <ele>702.8</ele>
        <time>2023-09-03T07:53:58Z</time>
      </trkpt>
      <trkpt lat="48.09382" lon="6.70257">
        <ele>703</ele>
        <time>2023-09-03T07:53:59Z</time>
      </trkpt>
      <trkpt lat="48.09378" lon="6.70257">
        <ele>703</ele>
        <time>2023-09-03T07:54:00Z</time>
      </trkpt>
      <trkpt lat="48.09375" lon="6.70257">
        <ele>703</ele>
        <time>2023-09-03T07:54:01Z</time>
      </trkpt>
      <trkpt lat="48.09372" lon="6.70257">
        <ele>703</ele>
        <time>2023-09-03T07:54:02Z</time>
      </trkpt>
      <trkpt lat="48.09368" lon="6.70258">
        <ele>703</ele>
        <time>2023-09-03T07:54:03Z</time>
      </trkpt>
      <trkpt lat="48.09364" lon="6.70258">
        <ele>703</ele>
        <time>2023-09-03T07:54:04Z</time>
      </trkpt>
      <trkpt lat="48.09361" lon="6.70259">
        <ele>703</ele>
        <time>2023-09-03T07:54:05Z</time>
      </trkpt>
      <trkpt lat="48.09357" lon="6.7026">
        <ele>703</ele>
        <time>2023-09-03T07:54:06Z</time>
      </trkpt>
      <trkpt lat="48.09353" lon="6.70261">
        <ele>703</ele>
        <time>2023-09-03T07:54:07Z</time>
      </trkpt>
      <trkpt lat="48.09348" lon="6.70262">
        <ele>703</ele>
        <time>2023-09-03T07:54:08Z</time>
      </trkpt>
      <trkpt lat="48.09343" lon="6.70263">
        <ele>703</ele>
        <time>2023-09-03T07:54:09Z</time>
      </trkpt>
      <trkpt lat="48.09338" lon="6.70265">
        <ele>703</ele>
        <time>2023-09-03T07:54:10Z</time>
      </trkpt>
      <trkpt lat="48.09336" lon="6.70265">
        <ele>702.8</ele>
        <time>2023-09-03T07:54:11Z</time>
      </trkpt>
      <trkpt lat="48.0933" lon="6.70267">
        <ele>702.8</ele>
        <time>2023-09-03T07:54:12Z</time>
      </trkpt>
      <trkpt lat="48.09324" lon="6.70267">
        <ele>702.8</ele>
        <time>2023-09-03T07:54:13Z</time>
      </trkpt>
      <trkpt lat="48.09319" lon="6.7027">
        <ele>702.6</ele>
        <time>2023-09-03T07:54:14Z</time>
      </trkpt>
      <trkpt lat="48.09312" lon="6.70272">
        <ele>702.2</ele>
        <time>2023-09-03T07:54:15Z</time>
      </trkpt>
      <trkpt lat="48.09309" lon="6.70274">
        <ele>702.4</ele>
        <time>2023-09-03T07:54:16Z</time>
      </trkpt>
      <trkpt lat="48.09305" lon="6.70276">
        <ele>702</ele>
        <time>2023-09-03T07:54:17Z</time>
      </trkpt>
      <trkpt lat="48.09303" lon="6.70278">
        <ele>701.6</ele>
        <time>2023-09-03T07:54:18Z</time>
      </trkpt>
      <trkpt lat="48.093" lon="6.70278">
        <ele>701.6</ele>
        <time>2023-09-03T07:54:19Z</time>
      </trkpt>
      <trkpt lat="48.09295" lon="6.7028">
        <ele>701.4</ele>
        <time>2023-09-03T07:54:20Z</time>
      </trkpt>
      <trkpt lat="48.09291" lon="6.70282">
        <ele>701.2</ele>
        <time>2023-09-03T07:54:21Z</time>
      </trkpt>
      <trkpt lat="48.09289" lon="6.70284">
        <ele>701</ele>
        <time>2023-09-03T07:54:22Z</time>
      </trkpt>
      <trkpt lat="48.09285" lon="6.70284">
        <ele>701</ele>
        <time>2023-09-03T07:54:23Z</time>
      </trkpt>
      <trkpt lat="48.09281" lon="6.70286">
        <ele>700.8</ele>
        <time>2023-09-03T07:54:24Z</time>
      </trkpt>
      <trkpt lat="48.09278" lon="6.7029">
        <ele>700.6</ele>
        <time>2023-09-03T07:54:25Z</time>
      </trkpt>
      <trkpt lat="48.09274" lon="6.70294">
        <ele>700.6</ele>
        <time>2023-09-03T07:54:26Z</time>
      </trkpt>
      <trkpt lat="48.09269" lon="6.70302">
        <ele>700.8</ele>
        <time>2023-09-03T07:54:27Z</time>
      </trkpt>
      <trkpt lat="48.09265" lon="6.70309">
        <ele>700.8</ele>
        <time>2023-09-03T07:54:28Z</time>
      </trkpt>
      <trkpt lat="48.0926" lon="6.70314">
        <ele>700.6</ele>
        <time>2023-09-03T07:54:29Z</time>
      </trkpt>
      <trkpt lat="48.09256" lon="6.70317">
        <ele>700.8</ele>
        <time>2023-09-03T07:54:30Z</time>
      </trkpt>
      <trkpt lat="48.09253" lon="6.70318">
        <ele>700.8</ele>
        <time>2023-09-03T07:54:31Z</time>
      </trkpt>
      <trkpt lat="48.09249" lon="6.70318">
        <ele>700.8</ele>
        <time>2023-09-03T07:54:32Z</time>
      </trkpt>
      <trkpt lat="48.09245" lon="6.70318">
        <ele>701</ele>
        <time>2023-09-03T07:54:33Z</time>
      </trkpt>
      <trkpt lat="48.09241" lon="6.70319">
        <ele>701</ele>
        <time>2023-09-03T07:54:34Z</time>
      </trkpt>
      <trkpt lat="48.09237" lon="6.70323">
        <ele>701</ele>
        <time>2023-09-03T07:54:35Z</time>
      </trkpt>
      <trkpt lat="48.09232" lon="6.70324">
        <ele>701</ele>
        <time>2023-09-03T07:54:36Z</time>
      </trkpt>
      <trkpt lat="48.09229" lon="6.70326">
        <ele>701</ele>
        <time>2023-09-03T07:54:37Z</time>
      </trkpt>
      <trkpt lat="48.09226" lon="6.70328">
        <ele>701</ele>
        <time>2023-09-03T07:54:38Z</time>
      </trkpt>
      <trkpt lat="48.09223" lon="6.7033">
        <ele>701</ele>
        <time>2023-09-03T07:54:39Z</time>
      </trkpt>
      <trkpt lat="48.09221" lon="6.70333">
        <ele>700.8</ele>
        <time>2023-09-03T07:54:40Z</time>
      </trkpt>
      <trkpt lat="48.09218" lon="6.70335">
        <ele>700.8</ele>
        <time>2023-09-03T07:54:41Z</time>
      </trkpt>
      <trkpt lat="48.09215" lon="6.70338">
        <ele>700.8</ele>
        <time>2023-09-03T07:54:42Z</time>
      </trkpt>
      <trkpt lat="48.09211" lon="6.70341">
        <ele>700.8</ele>
        <time>2023-09-03T07:54:43Z</time>
      </trkpt>
      <trkpt lat="48.09208" lon="6.70342">
        <ele>700.6</ele>
        <time>2023-09-03T07:54:44Z</time>
      </trkpt>
      <trkpt lat="48.09204" lon="6.70345">
        <ele>700.6</ele>
        <time>2023-09-03T07:54:45Z</time>
      </trkpt>
      <trkpt lat="48.09201" lon="6.70347">
        <ele>700.6</ele>
        <time>2023-09-03T07:54:46Z</time>
      </trkpt>
      <trkpt lat="48.09198" lon="6.70348">
        <ele>700.6</ele>
        <time>2023-09-03T07:54:47Z</time>
      </trkpt>
      <trkpt lat="48.09195" lon="6.70349">
        <ele>700.6</ele>
        <time>2023-09-03T07:54:48Z</time>
      </trkpt>
      <trkpt lat="48.09195" lon="6.70347">
        <ele>700.6</ele>
        <time>2023-09-03T07:54:49Z</time>
      </trkpt>
      <trkpt lat="48.09194" lon="6.70346">
        <ele>700.6</ele>
        <time>2023-09-03T07:54:50Z</time>
      </trkpt>
      <trkpt lat="48.09194" lon="6.70344">
        <ele>700.4</ele>
        <time>2023-09-03T07:54:51Z</time>
      </trkpt>
      <trkpt lat="48.09195" lon="6.70342">
        <ele>700.2</ele>
        <time>2023-09-03T07:54:52Z</time>
      </trkpt>
      <trkpt lat="48.09197" lon="6.70339">
        <ele>700</ele>
        <time>2023-09-03T07:54:53Z</time>
      </trkpt>
      <trkpt lat="48.092" lon="6.70334">
        <ele>700</ele>
        <time>2023-09-03T07:54:54Z</time>
      </trkpt>
      <trkpt lat="48.09204" lon="6.70328">
        <ele>699.6</ele>
        <time>2023-09-03T07:54:55Z</time>
      </trkpt>
      <trkpt lat="48.09209" lon="6.70322">
        <ele>699.2</ele>
        <time>2023-09-03T07:54:56Z</time>
      </trkpt>
      <trkpt lat="48.09215" lon="6.70314">
        <ele>698.2</ele>
        <time>2023-09-03T07:54:57Z</time>
      </trkpt>
      <trkpt lat="48.0922" lon="6.70305">
        <ele>697.8</ele>
        <time>2023-09-03T07:54:58Z</time>
      </trkpt>
      <trkpt lat="48.09225" lon="6.70296">
        <ele>696.8</ele>
        <time>2023-09-03T07:54:59Z</time>
      </trkpt>
      <trkpt lat="48.09229" lon="6.70288">
        <ele>696.6</ele>
        <time>2023-09-03T07:55:00Z</time>
      </trkpt>
      <trkpt lat="48.09233" lon="6.70281">
        <ele>696</ele>
        <time>2023-09-03T07:55:01Z</time>
      </trkpt>
      <trkpt lat="48.09236" lon="6.70276">
        <ele>695.2</ele>
        <time>2023-09-03T07:55:02Z</time>
      </trkpt>
      <trkpt lat="48.09239" lon="6.70271">
        <ele>695</ele>
        <time>2023-09-03T07:55:03Z</time>
      </trkpt>
      <trkpt lat="48.09243" lon="6.70264">
        <ele>693.2</ele>
        <time>2023-09-03T07:55:04Z</time>
      </trkpt>
      <trkpt lat="48.09248" lon="6.70256">
        <ele>691.6</ele>
        <time>2023-09-03T07:55:05Z</time>
      </trkpt>
      <trkpt lat="48.09252" lon="6.70249">
        <ele>689.2</ele>
        <time>2023-09-03T07:55:06Z</time>
      </trkpt>
      <trkpt lat="48.09257" lon="6.70241">
        <ele>688.6</ele>
        <time>2023-09-03T07:55:07Z</time>
      </trkpt>
      <trkpt lat="48.09264" lon="6.70228">
        <ele>686.6</ele>
        <time>2023-09-03T07:55:08Z</time>
      </trkpt>
      <trkpt lat="48.0927" lon="6.70218">
        <ele>685.8</ele>
        <time>2023-09-03T07:55:09Z</time>
      </trkpt>
      <trkpt lat="48.09276" lon="6.70208">
        <ele>684.8</ele>
        <time>2023-09-03T07:55:10Z</time>
      </trkpt>
      <trkpt lat="48.09287" lon="6.70198">
        <ele>684</ele>
        <time>2023-09-03T07:55:11Z</time>
      </trkpt>
      <trkpt lat="48.09296" lon="6.70186">
        <ele>683.2</ele>
        <time>2023-09-03T07:55:12Z</time>
      </trkpt>
      <trkpt lat="48.09301" lon="6.70175">
        <ele>682.8</ele>
        <time>2023-09-03T07:55:13Z</time>
      </trkpt>
      <trkpt lat="48.09305" lon="6.70166">
        <ele>681.8</ele>
        <time>2023-09-03T07:55:14Z</time>
      </trkpt>
      <trkpt lat="48.0931" lon="6.70157">
        <ele>681</ele>
        <time>2023-09-03T07:55:15Z</time>
      </trkpt>
      <trkpt lat="48.09314" lon="6.70149">
        <ele>680.8</ele>
        <time>2023-09-03T07:55:16Z</time>
      </trkpt>
      <trkpt lat="48.09319" lon="6.7014">
        <ele>680.6</ele>
        <time>2023-09-03T07:55:17Z</time>
      </trkpt>
      <trkpt lat="48.09323" lon="6.70128">
        <ele>680</ele>
        <time>2023-09-03T07:55:18Z</time>
      </trkpt>
      <trkpt lat="48.09327" lon="6.70117">
        <ele>678.4</ele>
        <time>2023-09-03T07:55:19Z</time>
      </trkpt>
      <trkpt lat="48.09328" lon="6.70105">
        <ele>677.6</ele>
        <time>2023-09-03T07:55:20Z</time>
      </trkpt>
      <trkpt lat="48.09329" lon="6.70094">
        <ele>676</ele>
        <time>2023-09-03T07:55:21Z</time>
      </trkpt>
      <trkpt lat="48.09331" lon="6.70085">
        <ele>675</ele>
        <time>2023-09-03T07:55:22Z</time>
      </trkpt>
      <trkpt lat="48.09332" lon="6.70079">
        <ele>672.8</ele>
        <time>2023-09-03T07:55:23Z</time>
      </trkpt>
      <trkpt lat="48.09336" lon="6.70074">
        <ele>670.4</ele>
        <time>2023-09-03T07:55:24Z</time>
      </trkpt>
      <trkpt lat="48.0934" lon="6.70071">
        <ele>667.6</ele>
        <time>2023-09-03T07:55:25Z</time>
      </trkpt>
      <trkpt lat="48.09345" lon="6.70067">
        <ele>665.8</ele>
        <time>2023-09-03T07:55:26Z</time>
      </trkpt>
      <trkpt lat="48.09351" lon="6.70063">
        <ele>664.8</ele>
        <time>2023-09-03T07:55:27Z</time>
      </trkpt>
      <trkpt lat="48.09358" lon="6.70058">
        <ele>663.8</ele>
        <time>2023-09-03T07:55:28Z</time>
      </trkpt>
      <trkpt lat="48.09362" lon="6.70055">
        <ele>662.8</ele>
        <time>2023-09-03T07:55:29Z</time>
      </trkpt>
      <trkpt lat="48.09363" lon="6.70053">
        <ele>661.6</ele>
        <time>2023-09-03T07:55:30Z</time>
      </trkpt>
      <trkpt lat="48.09365" lon="6.70052">
        <ele>661.2</ele>
        <time>2023-09-03T07:55:31Z</time>
      </trkpt>
      <trkpt lat="48.0937" lon="6.70049">
        <ele>659.8</ele>
        <time>2023-09-03T07:55:32Z</time>
      </trkpt>
      <trkpt lat="48.09372" lon="6.70048">
        <ele>659.2</ele>
        <time>2023-09-03T07:55:33Z</time>
      </trkpt>
      <trkpt lat="48.09374" lon="6.70048">
        <ele>658</ele>
        <time>2023-09-03T07:55:34Z</time>
      </trkpt>
      <trkpt lat="48.09375" lon="6.70047">
        <ele>657.2</ele>
        <time>2023-09-03T07:55:35Z</time>
      </trkpt>
      <trkpt lat="48.09381" lon="6.70043">
        <ele>656.4</ele>
        <time>2023-09-03T07:55:36Z</time>
      </trkpt>
      <trkpt lat="48.09386" lon="6.70039">
        <ele>655.8</ele>
        <time>2023-09-03T07:55:37Z</time>
      </trkpt>
      <trkpt lat="48.09391" lon="6.70035">
        <ele>654.6</ele>
        <time>2023-09-03T07:55:38Z</time>
      </trkpt>
      <trkpt lat="48.09397" lon="6.70028">
        <ele>653.6</ele>
        <time>2023-09-03T07:55:39Z</time>
      </trkpt>
      <trkpt lat="48.09402" lon="6.70024">
        <ele>653.2</ele>
        <time>2023-09-03T07:55:40Z</time>
      </trkpt>
      <trkpt lat="48.09406" lon="6.70021">
        <ele>652.6</ele>
        <time>2023-09-03T07:55:41Z</time>
      </trkpt>
      <trkpt lat="48.0941" lon="6.70015">
        <ele>652</ele>
        <time>2023-09-03T07:55:42Z</time>
      </trkpt>
      <trkpt lat="48.09417" lon="6.70007">
        <ele>651.2</ele>
        <time>2023-09-03T07:55:43Z</time>
      </trkpt>
      <trkpt lat="48.09421" lon="6.70001">
        <ele>650.4</ele>
        <time>2023-09-03T07:55:44Z</time>
      </trkpt>
      <trkpt lat="48.09425" lon="6.69994">
        <ele>648.8</ele>
        <time>2023-09-03T07:55:45Z</time>
      </trkpt>
      <trkpt lat="48.09429" lon="6.69988">
        <ele>648.2</ele>
        <time>2023-09-03T07:55:46Z</time>
      </trkpt>
      <trkpt lat="48.09434" lon="6.69983">
        <ele>647.6</ele>
        <time>2023-09-03T07:55:47Z</time>
      </trkpt>
      <trkpt lat="48.0944" lon="6.69976">
        <ele>647.4</ele>
        <time>2023-09-03T07:55:48Z</time>
      </trkpt>
      <trkpt lat="48.09442" lon="6.69971">
        <ele>646</ele>
        <time>2023-09-03T07:55:49Z</time>
      </trkpt>
      <trkpt lat="48.09443" lon="6.69964">
        <ele>643.2</ele>
        <time>2023-09-03T07:55:50Z</time>
      </trkpt>
      <trkpt lat="48.09446" lon="6.69951">
        <ele>635.6</ele>
        <time>2023-09-03T08:05:04Z</time>
      </trkpt>
      <trkpt lat="48.09449" lon="6.69949">
        <ele>635.6</ele>
        <time>2023-09-03T08:05:05Z</time>
      </trkpt>
      <trkpt lat="48.09452" lon="6.69946">
        <ele>635.8</ele>
        <time>2023-09-03T08:05:06Z</time>
      </trkpt>
      <trkpt lat="48.09456" lon="6.69944">
        <ele>636</ele>
        <time>2023-09-03T08:05:07Z</time>
      </trkpt>
      <trkpt lat="48.09459" lon="6.69941">
        <ele>636.2</ele>
        <time>2023-09-03T08:05:08Z</time>
      </trkpt>
      <trkpt lat="48.09464" lon="6.69938">
        <ele>636.2</ele>
        <time>2023-09-03T08:05:09Z</time>
      </trkpt>
      <trkpt lat="48.09469" lon="6.69935">
        <ele>636.2</ele>
        <time>2023-09-03T08:05:10Z</time>
      </trkpt>
      <trkpt lat="48.09474" lon="6.69932">
        <ele>636.4</ele>
        <time>2023-09-03T08:05:11Z</time>
      </trkpt>
      <trkpt lat="48.09479" lon="6.69929">
        <ele>636.4</ele>
        <time>2023-09-03T08:05:12Z</time>
      </trkpt>
      <trkpt lat="48.09484" lon="6.69927">
        <ele>636.6</ele>
        <time>2023-09-03T08:05:13Z</time>
      </trkpt>
      <trkpt lat="48.09489" lon="6.69925">
        <ele>636.6</ele>
        <time>2023-09-03T08:05:14Z</time>
      </trkpt>
      <trkpt lat="48.09494" lon="6.69923">
        <ele>636.8</ele>
        <time>2023-09-03T08:05:15Z</time>
      </trkpt>
      <trkpt lat="48.09498" lon="6.69922">
        <ele>636.8</ele>
        <time>2023-09-03T08:05:16Z</time>
      </trkpt>
      <trkpt lat="48.09504" lon="6.69919">
        <ele>636.8</ele>
        <time>2023-09-03T08:05:17Z</time>
      </trkpt>
      <trkpt lat="48.09509" lon="6.69917">
        <ele>637</ele>
        <time>2023-09-03T08:05:18Z</time>
      </trkpt>
      <trkpt lat="48.09514" lon="6.69915">
        <ele>637</ele>
        <time>2023-09-03T08:05:19Z</time>
      </trkpt>
      <trkpt lat="48.0952" lon="6.69912">
        <ele>637</ele>
        <time>2023-09-03T08:05:20Z</time>
      </trkpt>
      <trkpt lat="48.09526" lon="6.69911">
        <ele>636.8</ele>
        <time>2023-09-03T08:05:21Z</time>
      </trkpt>
      <trkpt lat="48.09533" lon="6.6991">
        <ele>636.8</ele>
        <time>2023-09-03T08:05:22Z</time>
      </trkpt>
      <trkpt lat="48.09539" lon="6.69908">
        <ele>636.8</ele>
        <time>2023-09-03T08:05:23Z</time>
      </trkpt>
      <trkpt lat="48.09545" lon="6.69905">
        <ele>636.8</ele>
        <time>2023-09-03T08:05:24Z</time>
      </trkpt>
      <trkpt lat="48.09551" lon="6.69903">
        <ele>636.8</ele>
        <time>2023-09-03T08:05:25Z</time>
      </trkpt>
      <trkpt lat="48.09557" lon="6.699">
        <ele>636.8</ele>
        <time>2023-09-03T08:05:26Z</time>
      </trkpt>
      <trkpt lat="48.09563" lon="6.69893">
        <ele>636.8</ele>
        <time>2023-09-03T08:05:27Z</time>
      </trkpt>
      <trkpt lat="48.09569" lon="6.69884">
        <ele>636.6</ele>
        <time>2023-09-03T08:05:28Z</time>
      </trkpt>
      <trkpt lat="48.09574" lon="6.69876">
        <ele>636.6</ele>
        <time>2023-09-03T08:05:29Z</time>
      </trkpt>
      <trkpt lat="48.0958" lon="6.69867">
        <ele>636</ele>
        <time>2023-09-03T08:05:30Z</time>
      </trkpt>
      <trkpt lat="48.09586" lon="6.6986">
        <ele>635.4</ele>
        <time>2023-09-03T08:05:31Z</time>
      </trkpt>
      <trkpt lat="48.09592" lon="6.69853">
        <ele>634.4</ele>
        <time>2023-09-03T08:05:32Z</time>
      </trkpt>
      <trkpt lat="48.09598" lon="6.69846">
        <ele>634</ele>
        <time>2023-09-03T08:05:33Z</time>
      </trkpt>
      <trkpt lat="48.09604" lon="6.69841">
        <ele>632.4</ele>
        <time>2023-09-03T08:05:34Z</time>
      </trkpt>
      <trkpt lat="48.09611" lon="6.69837">
        <ele>631.6</ele>
        <time>2023-09-03T08:05:35Z</time>
      </trkpt>
      <trkpt lat="48.09617" lon="6.69833">
        <ele>630.2</ele>
        <time>2023-09-03T08:05:36Z</time>
      </trkpt>
      <trkpt lat="48.09623" lon="6.6983">
        <ele>629.6</ele>
        <time>2023-09-03T08:05:37Z</time>
      </trkpt>
      <trkpt lat="48.09628" lon="6.69827">
        <ele>629.4</ele>
        <time>2023-09-03T08:05:38Z</time>
      </trkpt>
      <trkpt lat="48.09632" lon="6.69825">
        <ele>628.2</ele>
        <time>2023-09-03T08:05:39Z</time>
      </trkpt>
      <trkpt lat="48.09636" lon="6.69823">
        <ele>627.6</ele>
        <time>2023-09-03T08:05:40Z</time>
      </trkpt>
      <trkpt lat="48.0964" lon="6.69821">
        <ele>626.6</ele>
        <time>2023-09-03T08:05:41Z</time>
      </trkpt>
      <trkpt lat="48.09645" lon="6.69818">
        <ele>626.2</ele>
        <time>2023-09-03T08:05:42Z</time>
      </trkpt>
      <trkpt lat="48.0965" lon="6.69815">
        <ele>625.4</ele>
        <time>2023-09-03T08:05:43Z</time>
      </trkpt>
      <trkpt lat="48.09657" lon="6.69811">
        <ele>625.2</ele>
        <time>2023-09-03T08:05:44Z</time>
      </trkpt>
      <trkpt lat="48.09664" lon="6.69808">
        <ele>624.4</ele>
        <time>2023-09-03T08:05:45Z</time>
      </trkpt>
      <trkpt lat="48.09671" lon="6.69805">
        <ele>623.6</ele>
        <time>2023-09-03T08:05:46Z</time>
      </trkpt>
      <trkpt lat="48.09678" lon="6.69801">
        <ele>622.8</ele>
        <time>2023-09-03T08:05:47Z</time>
      </trkpt>
      <trkpt lat="48.09684" lon="6.69797">
        <ele>620.4</ele>
        <time>2023-09-03T08:05:48Z</time>
      </trkpt>
      <trkpt lat="48.09691" lon="6.69793">
        <ele>619.4</ele>
        <time>2023-09-03T08:05:49Z</time>
      </trkpt>
      <trkpt lat="48.09698" lon="6.69786">
        <ele>617.8</ele>
        <time>2023-09-03T08:05:50Z</time>
      </trkpt>
      <trkpt lat="48.09704" lon="6.69781">
        <ele>617</ele>
        <time>2023-09-03T08:05:51Z</time>
      </trkpt>
      <trkpt lat="48.09709" lon="6.69777">
        <ele>616</ele>
        <time>2023-09-03T08:05:52Z</time>
      </trkpt>
      <trkpt lat="48.09713" lon="6.69776">
        <ele>615.6</ele>
        <time>2023-09-03T08:05:53Z</time>
      </trkpt>
      <trkpt lat="48.09717" lon="6.69776">
        <ele>614.6</ele>
        <time>2023-09-03T08:05:54Z</time>
      </trkpt>
      <trkpt lat="48.09719" lon="6.69775">
        <ele>614</ele>
        <time>2023-09-03T08:05:55Z</time>
      </trkpt>
      <trkpt lat="48.09721" lon="6.69774">
        <ele>612.6</ele>
        <time>2023-09-03T08:05:56Z</time>
      </trkpt>
      <trkpt lat="48.09721" lon="6.69773">
        <ele>612</ele>
        <time>2023-09-03T08:05:57Z</time>
      </trkpt>
      <trkpt lat="48.09723" lon="6.69771">
        <ele>610.4</ele>
        <time>2023-09-03T08:06:00Z</time>
      </trkpt>
      <trkpt lat="48.09724" lon="6.6977">
        <ele>609.4</ele>
        <time>2023-09-03T08:06:01Z</time>
      </trkpt>
      <trkpt lat="48.09725" lon="6.6977">
        <ele>609</ele>
        <time>2023-09-03T08:06:02Z</time>
      </trkpt>
      <trkpt lat="48.09726" lon="6.69769">
        <ele>608.6</ele>
        <time>2023-09-03T08:06:03Z</time>
      </trkpt>
      <trkpt lat="48.09727" lon="6.69768">
        <ele>608.4</ele>
        <time>2023-09-03T08:06:04Z</time>
      </trkpt>
      <trkpt lat="48.09727" lon="6.69768">
        <ele>608</ele>
        <time>2023-09-03T08:06:05Z</time>
      </trkpt>
      <trkpt lat="48.09728" lon="6.69767">
        <ele>607.8</ele>
        <time>2023-09-03T08:06:06Z</time>
      </trkpt>
      <trkpt lat="48.09729" lon="6.69765">
        <ele>607.8</ele>
        <time>2023-09-03T08:06:07Z</time>
      </trkpt>
      <trkpt lat="48.09731" lon="6.69763">
        <ele>607.6</ele>
        <time>2023-09-03T08:06:08Z</time>
      </trkpt>
      <trkpt lat="48.09732" lon="6.69762">
        <ele>607.6</ele>
        <time>2023-09-03T08:06:09Z</time>
      </trkpt>
      <trkpt lat="48.09734" lon="6.6976">
        <ele>607.6</ele>
        <time>2023-09-03T08:06:10Z</time>
      </trkpt>
      <trkpt lat="48.09737" lon="6.69758">
        <ele>607.4</ele>
        <time>2023-09-03T08:06:11Z</time>
      </trkpt>
      <trkpt lat="48.0974" lon="6.69754">
        <ele>607.4</ele>
        <time>2023-09-03T08:06:12Z</time>
      </trkpt>
      <trkpt lat="48.09746" lon="6.69751">
        <ele>607.4</ele>
        <time>2023-09-03T08:06:13Z</time>
      </trkpt>
      <trkpt lat="48.0975" lon="6.6975">
        <ele>607.2</ele>
        <time>2023-09-03T08:06:14Z</time>
      </trkpt>
      <trkpt lat="48.09753" lon="6.69749">
        <ele>607</ele>
        <time>2023-09-03T08:06:15Z</time>
      </trkpt>
      <trkpt lat="48.09756" lon="6.69749">
        <ele>606.8</ele>
        <time>2023-09-03T08:06:16Z</time>
      </trkpt>
      <trkpt lat="48.09757" lon="6.69747">
        <ele>606.6</ele>
        <time>2023-09-03T08:06:17Z</time>
      </trkpt>
      <trkpt lat="48.09759" lon="6.69745">
        <ele>606.4</ele>
        <time>2023-09-03T08:06:18Z</time>
      </trkpt>
      <trkpt lat="48.09762" lon="6.69738">
        <ele>606</ele>
        <time>2023-09-03T08:06:19Z</time>
      </trkpt>
      <trkpt lat="48.09766" lon="6.69737">
        <ele>605.8</ele>
        <time>2023-09-03T08:06:20Z</time>
      </trkpt>
      <trkpt lat="48.0977" lon="6.69733">
        <ele>605.6</ele>
        <time>2023-09-03T08:06:21Z</time>
      </trkpt>
      <trkpt lat="48.09772" lon="6.6973">
        <ele>605.4</ele>
        <time>2023-09-03T08:06:22Z</time>
      </trkpt>
      <trkpt lat="48.09775" lon="6.69729">
        <ele>605.4</ele>
        <time>2023-09-03T08:06:23Z</time>
      </trkpt>
      <trkpt lat="48.09778" lon="6.69728">
        <ele>605</ele>
        <time>2023-09-03T08:06:24Z</time>
      </trkpt>
      <trkpt lat="48.09781" lon="6.69728">
        <ele>604.6</ele>
        <time>2023-09-03T08:06:25Z</time>
      </trkpt>
      <trkpt lat="48.09783" lon="6.69727">
        <ele>604.6</ele>
        <time>2023-09-03T08:06:26Z</time>
      </trkpt>
      <trkpt lat="48.09787" lon="6.69724">
        <ele>604.4</ele>
        <time>2023-09-03T08:06:27Z</time>
      </trkpt>
      <trkpt lat="48.09794" lon="6.69725">
        <ele>604.4</ele>
        <time>2023-09-03T08:06:28Z</time>
      </trkpt>
      <trkpt lat="48.09797" lon="6.69724">
        <ele>604.4</ele>
        <time>2023-09-03T08:06:29Z</time>
      </trkpt>
      <trkpt lat="48.09801" lon="6.69722">
        <ele>604.2</ele>
        <time>2023-09-03T08:06:30Z</time>
      </trkpt>
      <trkpt lat="48.09805" lon="6.6972">
        <ele>604</ele>
        <time>2023-09-03T08:06:31Z</time>
      </trkpt>
      <trkpt lat="48.09809" lon="6.69718">
        <ele>604.2</ele>
        <time>2023-09-03T08:06:32Z</time>
      </trkpt>
      <trkpt lat="48.09812" lon="6.69717">
        <ele>603.8</ele>
        <time>2023-09-03T08:06:33Z</time>
      </trkpt>
      <trkpt lat="48.09817" lon="6.69716">
        <ele>603.6</ele>
        <time>2023-09-03T08:06:34Z</time>
      </trkpt>
      <trkpt lat="48.09821" lon="6.69715">
        <ele>603</ele>
        <time>2023-09-03T08:06:35Z</time>
      </trkpt>
      <trkpt lat="48.09824" lon="6.69714">
        <ele>602.8</ele>
        <time>2023-09-03T08:06:36Z</time>
      </trkpt>
      <trkpt lat="48.09828" lon="6.69712">
        <ele>602.6</ele>
        <time>2023-09-03T08:06:37Z</time>
      </trkpt>
      <trkpt lat="48.09831" lon="6.69712">
        <ele>602.4</ele>
        <time>2023-09-03T08:06:38Z</time>
      </trkpt>
      <trkpt lat="48.09835" lon="6.69711">
        <ele>602.4</ele>
        <time>2023-09-03T08:06:39Z</time>
      </trkpt>
      <trkpt lat="48.09838" lon="6.69711">
        <ele>602.2</ele>
        <time>2023-09-03T08:06:40Z</time>
      </trkpt>
      <trkpt lat="48.09845" lon="6.69711">
        <ele>602.2</ele>
        <time>2023-09-03T08:06:41Z</time>
      </trkpt>
      <trkpt lat="48.09851" lon="6.69708">
        <ele>602</ele>
        <time>2023-09-03T08:06:42Z</time>
      </trkpt>
      <trkpt lat="48.09857" lon="6.69702">
        <ele>601.8</ele>
        <time>2023-09-03T08:06:43Z</time>
      </trkpt>
      <trkpt lat="48.09863" lon="6.69699">
        <ele>601.6</ele>
        <time>2023-09-03T08:06:44Z</time>
      </trkpt>
      <trkpt lat="48.09867" lon="6.69694">
        <ele>600.6</ele>
        <time>2023-09-03T08:06:45Z</time>
      </trkpt>
      <trkpt lat="48.09871" lon="6.6969">
        <ele>599.8</ele>
        <time>2023-09-03T08:06:46Z</time>
      </trkpt>
      <trkpt lat="48.09874" lon="6.69685">
        <ele>599.6</ele>
        <time>2023-09-03T08:06:47Z</time>
      </trkpt>
      <trkpt lat="48.09877" lon="6.69677">
        <ele>599.2</ele>
        <time>2023-09-03T08:06:48Z</time>
      </trkpt>
      <trkpt lat="48.09881" lon="6.69669">
        <ele>599</ele>
        <time>2023-09-03T08:06:49Z</time>
      </trkpt>
      <trkpt lat="48.09883" lon="6.69661">
        <ele>598.6</ele>
        <time>2023-09-03T08:06:50Z</time>
      </trkpt>
      <trkpt lat="48.09883" lon="6.69653">
        <ele>597.6</ele>
        <time>2023-09-03T08:06:51Z</time>
      </trkpt>
      <trkpt lat="48.09883" lon="6.69644">
        <ele>597.2</ele>
        <time>2023-09-03T08:06:52Z</time>
      </trkpt>
      <trkpt lat="48.09883" lon="6.69636">
        <ele>596.4</ele>
        <time>2023-09-03T08:06:53Z</time>
      </trkpt>
      <trkpt lat="48.09883" lon="6.69629">
        <ele>596.2</ele>
        <time>2023-09-03T08:06:54Z</time>
      </trkpt>
      <trkpt lat="48.09884" lon="6.69622">
        <ele>595.6</ele>
        <time>2023-09-03T08:06:55Z</time>
      </trkpt>
      <trkpt lat="48.09885" lon="6.69615">
        <ele>595.2</ele>
        <time>2023-09-03T08:06:56Z</time>
      </trkpt>
      <trkpt lat="48.09885" lon="6.69607">
        <ele>594.8</ele>
        <time>2023-09-03T08:06:57Z</time>
      </trkpt>
      <trkpt lat="48.09887" lon="6.696">
        <ele>594.4</ele>
        <time>2023-09-03T08:06:58Z</time>
      </trkpt>
      <trkpt lat="48.09889" lon="6.69594">
        <ele>593.8</ele>
        <time>2023-09-03T08:06:59Z</time>
      </trkpt>
      <trkpt lat="48.09891" lon="6.6959">
        <ele>593.4</ele>
        <time>2023-09-03T08:07:00Z</time>
      </trkpt>
      <trkpt lat="48.09893" lon="6.69585">
        <ele>592.6</ele>
        <time>2023-09-03T08:07:01Z</time>
      </trkpt>
      <trkpt lat="48.09896" lon="6.69579">
        <ele>592.2</ele>
        <time>2023-09-03T08:07:02Z</time>
      </trkpt>
      <trkpt lat="48.09899" lon="6.69571">
        <ele>591.2</ele>
        <time>2023-09-03T08:07:03Z</time>
      </trkpt>
      <trkpt lat="48.09902" lon="6.69564">
        <ele>589</ele>
        <time>2023-09-03T08:07:04Z</time>
      </trkpt>
      <trkpt lat="48.09904" lon="6.69557">
        <ele>588.2</ele>
        <time>2023-09-03T08:07:05Z</time>
      </trkpt>
      <trkpt lat="48.09906" lon="6.69551">
        <ele>587</ele>
        <time>2023-09-03T08:07:06Z</time>
      </trkpt>
      <trkpt lat="48.09908" lon="6.69545">
        <ele>586.4</ele>
        <time>2023-09-03T08:07:07Z</time>
      </trkpt>
      <trkpt lat="48.09911" lon="6.69538">
        <ele>585.8</ele>
        <time>2023-09-03T08:07:08Z</time>
      </trkpt>
      <trkpt lat="48.09915" lon="6.69532">
        <ele>585</ele>
        <time>2023-09-03T08:07:09Z</time>
      </trkpt>
      <trkpt lat="48.09918" lon="6.69525">
        <ele>584</ele>
        <time>2023-09-03T08:07:10Z</time>
      </trkpt>
      <trkpt lat="48.09922" lon="6.69518">
        <ele>583.4</ele>
        <time>2023-09-03T08:07:11Z</time>
      </trkpt>
      <trkpt lat="48.09926" lon="6.6951">
        <ele>582.8</ele>
        <time>2023-09-03T08:07:12Z</time>
      </trkpt>
      <trkpt lat="48.09929" lon="6.69503">
        <ele>582.2</ele>
        <time>2023-09-03T08:07:13Z</time>
      </trkpt>
      <trkpt lat="48.09933" lon="6.69496">
        <ele>581.6</ele>
        <time>2023-09-03T08:07:14Z</time>
      </trkpt>
      <trkpt lat="48.09937" lon="6.6949">
        <ele>581.4</ele>
        <time>2023-09-03T08:07:15Z</time>
      </trkpt>
      <trkpt lat="48.09943" lon="6.69481">
        <ele>580.2</ele>
        <time>2023-09-03T08:07:16Z</time>
      </trkpt>
      <trkpt lat="48.09945" lon="6.69473">
        <ele>579.4</ele>
        <time>2023-09-03T08:07:17Z</time>
      </trkpt>
      <trkpt lat="48.09949" lon="6.69459">
        <ele>579</ele>
        <time>2023-09-03T08:07:18Z</time>
      </trkpt>
      <trkpt lat="48.0995" lon="6.6945">
        <ele>578.6</ele>
        <time>2023-09-03T08:07:19Z</time>
      </trkpt>
      <trkpt lat="48.0995" lon="6.69443">
        <ele>578.6</ele>
        <time>2023-09-03T08:07:20Z</time>
      </trkpt>
      <trkpt lat="48.09948" lon="6.69436">
        <ele>578.2</ele>
        <time>2023-09-03T08:07:22Z</time>
      </trkpt>
      <trkpt lat="48.09951" lon="6.69428">
        <ele>577.8</ele>
        <time>2023-09-03T08:07:23Z</time>
      </trkpt>
      <trkpt lat="48.09957" lon="6.69422">
        <ele>577.4</ele>
        <time>2023-09-03T08:07:24Z</time>
      </trkpt>
      <trkpt lat="48.09962" lon="6.69414">
        <ele>577</ele>
        <time>2023-09-03T08:07:25Z</time>
      </trkpt>
      <trkpt lat="48.09967" lon="6.69406">
        <ele>576.2</ele>
        <time>2023-09-03T08:07:26Z</time>
      </trkpt>
      <trkpt lat="48.09971" lon="6.69402">
        <ele>575.8</ele>
        <time>2023-09-03T08:07:27Z</time>
      </trkpt>
      <trkpt lat="48.09974" lon="6.69394">
        <ele>575.6</ele>
        <time>2023-09-03T08:07:28Z</time>
      </trkpt>
      <trkpt lat="48.09976" lon="6.69387">
        <ele>575.2</ele>
        <time>2023-09-03T08:07:29Z</time>
      </trkpt>
      <trkpt lat="48.09976" lon="6.69382">
        <ele>574.4</ele>
        <time>2023-09-03T08:07:30Z</time>
      </trkpt>
      <trkpt lat="48.09975" lon="6.69378">
        <ele>573.8</ele>
        <time>2023-09-03T08:07:31Z</time>
      </trkpt>
      <trkpt lat="48.09974" lon="6.69374">
        <ele>573.8</ele>
        <time>2023-09-03T08:07:32Z</time>
      </trkpt>
      <trkpt lat="48.09973" lon="6.6937">
        <ele>573.6</ele>
        <time>2023-09-03T08:07:33Z</time>
      </trkpt>
      <trkpt lat="48.09973" lon="6.69369">
        <ele>573.6</ele>
        <time>2023-09-03T08:07:34Z</time>
      </trkpt>
      <trkpt lat="48.09973" lon="6.69369">
        <ele>573.4</ele>
        <time>2023-09-03T08:07:35Z</time>
      </trkpt>
      <trkpt lat="48.09973" lon="6.69369">
        <ele>573.4</ele>
        <time>2023-09-03T08:07:36Z</time>
      </trkpt>
      <trkpt lat="48.09973" lon="6.69369">
        <ele>573.4</ele>
        <time>2023-09-03T08:07:37Z</time>
      </trkpt>
      <trkpt lat="48.09973" lon="6.69369">
        <ele>573.4</ele>
        <time>2023-09-03T08:07:38Z</time>
      </trkpt>
      <trkpt lat="48.09973" lon="6.69369">
        <ele>573</ele>
        <time>2023-09-03T08:07:39Z</time>
      </trkpt>
      <trkpt lat="48.09974" lon="6.69367">
        <ele>572.8</ele>
        <time>2023-09-03T08:07:40Z</time>
      </trkpt>
      <trkpt lat="48.09977" lon="6.69365">
        <ele>572.6</ele>
        <time>2023-09-03T08:07:41Z</time>
      </trkpt>
      <trkpt lat="48.09979" lon="6.69363">
        <ele>572.4</ele>
        <time>2023-09-03T08:07:42Z</time>
      </trkpt>
      <trkpt lat="48.09981" lon="6.69361">
        <ele>572.2</ele>
        <time>2023-09-03T08:07:43Z</time>
      </trkpt>
      <trkpt lat="48.09983" lon="6.69359">
        <ele>571.8</ele>
        <time>2023-09-03T08:07:44Z</time>
      </trkpt>
      <trkpt lat="48.09985" lon="6.69356">
        <ele>571.8</ele>
        <time>2023-09-03T08:07:45Z</time>
      </trkpt>
      <trkpt lat="48.09988" lon="6.69353">
        <ele>571.6</ele>
        <time>2023-09-03T08:07:46Z</time>
      </trkpt>
      <trkpt lat="48.0999" lon="6.6935">
        <ele>571.4</ele>
        <time>2023-09-03T08:07:47Z</time>
      </trkpt>
      <trkpt lat="48.09993" lon="6.69346">
        <ele>571.2</ele>
        <time>2023-09-03T08:07:48Z</time>
      </trkpt>
      <trkpt lat="48.09996" lon="6.69341">
        <ele>571</ele>
        <time>2023-09-03T08:07:49Z</time>
      </trkpt>
      <trkpt lat="48.09999" lon="6.69335">
        <ele>570</ele>
        <time>2023-09-03T08:07:50Z</time>
      </trkpt>
      <trkpt lat="48.10002" lon="6.69329">
        <ele>569.6</ele>
        <time>2023-09-03T08:07:51Z</time>
      </trkpt>
      <trkpt lat="48.10005" lon="6.69323">
        <ele>569.6</ele>
        <time>2023-09-03T08:07:52Z</time>
      </trkpt>
      <trkpt lat="48.10008" lon="6.69317">
        <ele>569.6</ele>
        <time>2023-09-03T08:07:53Z</time>
      </trkpt>
      <trkpt lat="48.10011" lon="6.69313">
        <ele>569</ele>
        <time>2023-09-03T08:07:54Z</time>
      </trkpt>
      <trkpt lat="48.10014" lon="6.6931">
        <ele>569</ele>
        <time>2023-09-03T08:07:55Z</time>
      </trkpt>
      <trkpt lat="48.10019" lon="6.69306">
        <ele>569</ele>
        <time>2023-09-03T08:07:56Z</time>
      </trkpt>
      <trkpt lat="48.10022" lon="6.69303">
        <ele>569</ele>
        <time>2023-09-03T08:07:57Z</time>
      </trkpt>
      <trkpt lat="48.10025" lon="6.693">
        <ele>569</ele>
        <time>2023-09-03T08:07:58Z</time>
      </trkpt>
      <trkpt lat="48.10027" lon="6.69297">
        <ele>569.4</ele>
        <time>2023-09-03T08:07:59Z</time>
      </trkpt>
      <trkpt lat="48.10029" lon="6.69293">
        <ele>569.4</ele>
        <time>2023-09-03T08:08:00Z</time>
      </trkpt>
      <trkpt lat="48.1003" lon="6.69289">
        <ele>569.4</ele>
        <time>2023-09-03T08:08:01Z</time>
      </trkpt>
      <trkpt lat="48.10032" lon="6.69286">
        <ele>569.6</ele>
        <time>2023-09-03T08:08:02Z</time>
      </trkpt>
      <trkpt lat="48.10036" lon="6.69279">
        <ele>570</ele>
        <time>2023-09-03T08:08:03Z</time>
      </trkpt>
      <trkpt lat="48.1004" lon="6.69276">
        <ele>570.2</ele>
        <time>2023-09-03T08:08:04Z</time>
      </trkpt>
      <trkpt lat="48.10047" lon="6.69269">
        <ele>570.4</ele>
        <time>2023-09-03T08:08:05Z</time>
      </trkpt>
      <trkpt lat="48.10051" lon="6.69264">
        <ele>570.4</ele>
        <time>2023-09-03T08:08:06Z</time>
      </trkpt>
      <trkpt lat="48.10054" lon="6.69261">
        <ele>570.8</ele>
        <time>2023-09-03T08:08:07Z</time>
      </trkpt>
      <trkpt lat="48.10055" lon="6.69261">
        <ele>571</ele>
        <time>2023-09-03T08:08:08Z</time>
      </trkpt>
      <trkpt lat="48.10057" lon="6.6926">
        <ele>571.2</ele>
        <time>2023-09-03T08:08:09Z</time>
      </trkpt>
      <trkpt lat="48.1006" lon="6.69258">
        <ele>571.6</ele>
        <time>2023-09-03T08:08:10Z</time>
      </trkpt>
      <trkpt lat="48.10063" lon="6.69254">
        <ele>571.8</ele>
        <time>2023-09-03T08:08:11Z</time>
      </trkpt>
      <trkpt lat="48.10067" lon="6.6925">
        <ele>572</ele>
        <time>2023-09-03T08:08:12Z</time>
      </trkpt>
      <trkpt lat="48.10068" lon="6.69248">
        <ele>572.2</ele>
        <time>2023-09-03T08:08:13Z</time>
      </trkpt>
      <trkpt lat="48.1007" lon="6.69243">
        <ele>572.8</ele>
        <time>2023-09-03T08:08:14Z</time>
      </trkpt>
      <trkpt lat="48.10073" lon="6.69238">
        <ele>573</ele>
        <time>2023-09-03T08:08:15Z</time>
      </trkpt>
      <trkpt lat="48.10075" lon="6.69234">
        <ele>573.2</ele>
        <time>2023-09-03T08:08:16Z</time>
      </trkpt>
      <trkpt lat="48.10076" lon="6.69232">
        <ele>573.4</ele>
        <time>2023-09-03T08:08:17Z</time>
      </trkpt>
      <trkpt lat="48.10078" lon="6.69231">
        <ele>573.8</ele>
        <time>2023-09-03T08:08:18Z</time>
      </trkpt>
      <trkpt lat="48.10078" lon="6.6923">
        <ele>574</ele>
        <time>2023-09-03T08:08:19Z</time>
      </trkpt>
      <trkpt lat="48.10079" lon="6.69229">
        <ele>574.6</ele>
        <time>2023-09-03T08:08:20Z</time>
      </trkpt>
      <trkpt lat="48.10079" lon="6.69228">
        <ele>574.8</ele>
        <time>2023-09-03T08:08:21Z</time>
      </trkpt>
      <trkpt lat="48.10079" lon="6.69228">
        <ele>575</ele>
        <time>2023-09-03T08:08:22Z</time>
      </trkpt>
      <trkpt lat="48.10079" lon="6.69228">
        <ele>575.2</ele>
        <time>2023-09-03T08:08:23Z</time>
      </trkpt>
      <trkpt lat="48.10083" lon="6.69225">
        <ele>575.4</ele>
        <time>2023-09-03T08:08:24Z</time>
      </trkpt>
      <trkpt lat="48.10083" lon="6.69222">
        <ele>575.6</ele>
        <time>2023-09-03T08:08:25Z</time>
      </trkpt>
      <trkpt lat="48.10084" lon="6.69219">
        <ele>576</ele>
        <time>2023-09-03T08:08:26Z</time>
      </trkpt>
      <trkpt lat="48.10087" lon="6.69215">
        <ele>576.2</ele>
        <time>2023-09-03T08:08:27Z</time>
      </trkpt>
      <trkpt lat="48.10091" lon="6.69212">
        <ele>576.2</ele>
        <time>2023-09-03T08:08:28Z</time>
      </trkpt>
      <trkpt lat="48.10094" lon="6.69208">
        <ele>576.4</ele>
        <time>2023-09-03T08:08:29Z</time>
      </trkpt>
      <trkpt lat="48.10095" lon="6.69205">
        <ele>576.6</ele>
        <time>2023-09-03T08:08:30Z</time>
      </trkpt>
      <trkpt lat="48.10097" lon="6.69201">
        <ele>577</ele>
        <time>2023-09-03T08:08:31Z</time>
      </trkpt>
      <trkpt lat="48.10097" lon="6.69194">
        <ele>577.2</ele>
        <time>2023-09-03T08:08:32Z</time>
      </trkpt>
      <trkpt lat="48.10097" lon="6.69193">
        <ele>577.6</ele>
        <time>2023-09-03T08:08:33Z</time>
      </trkpt>
      <trkpt lat="48.10097" lon="6.69191">
        <ele>577.8</ele>
        <time>2023-09-03T08:08:34Z</time>
      </trkpt>
      <trkpt lat="48.10097" lon="6.6919">
        <ele>578.2</ele>
        <time>2023-09-03T08:08:35Z</time>
      </trkpt>
      <trkpt lat="48.10098" lon="6.69189">
        <ele>578.8</ele>
        <time>2023-09-03T08:08:36Z</time>
      </trkpt>
      <trkpt lat="48.10098" lon="6.69187">
        <ele>579</ele>
        <time>2023-09-03T08:08:37Z</time>
      </trkpt>
      <trkpt lat="48.10096" lon="6.69183">
        <ele>579.4</ele>
        <time>2023-09-03T08:08:38Z</time>
      </trkpt>
      <trkpt lat="48.10096" lon="6.69183">
        <ele>579.6</ele>
        <time>2023-09-03T08:08:39Z</time>
      </trkpt>
      <trkpt lat="48.10097" lon="6.69182">
        <ele>579.8</ele>
        <time>2023-09-03T08:08:40Z</time>
      </trkpt>
      <trkpt lat="48.10097" lon="6.69179">
        <ele>579.8</ele>
        <time>2023-09-03T08:08:41Z</time>
      </trkpt>
      <trkpt lat="48.10097" lon="6.69177">
        <ele>580</ele>
        <time>2023-09-03T08:08:42Z</time>
      </trkpt>
      <trkpt lat="48.10098" lon="6.69174">
        <ele>580.2</ele>
        <time>2023-09-03T08:08:43Z</time>
      </trkpt>
      <trkpt lat="48.10098" lon="6.69172">
        <ele>580.4</ele>
        <time>2023-09-03T08:08:44Z</time>
      </trkpt>
      <trkpt lat="48.10099" lon="6.69171">
        <ele>580.6</ele>
        <time>2023-09-03T08:08:45Z</time>
      </trkpt>
      <trkpt lat="48.10099" lon="6.6917">
        <ele>580.8</ele>
        <time>2023-09-03T08:08:46Z</time>
      </trkpt>
      <trkpt lat="48.101" lon="6.6917">
        <ele>580.8</ele>
        <time>2023-09-03T08:08:47Z</time>
      </trkpt>
      <trkpt lat="48.101" lon="6.69167">
        <ele>581</ele>
        <time>2023-09-03T08:08:48Z</time>
      </trkpt>
      <trkpt lat="48.10101" lon="6.69166">
        <ele>581.4</ele>
        <time>2023-09-03T08:08:49Z</time>
      </trkpt>
      <trkpt lat="48.10101" lon="6.69165">
        <ele>581.4</ele>
        <time>2023-09-03T08:08:50Z</time>
      </trkpt>
      <trkpt lat="48.10101" lon="6.69165">
        <ele>581.8</ele>
        <time>2023-09-03T08:08:51Z</time>
      </trkpt>
      <trkpt lat="48.10101" lon="6.69163">
        <ele>582</ele>
        <time>2023-09-03T08:08:52Z</time>
      </trkpt>
      <trkpt lat="48.10102" lon="6.69161">
        <ele>582.4</ele>
        <time>2023-09-03T08:08:53Z</time>
      </trkpt>
      <trkpt lat="48.10102" lon="6.69161">
        <ele>582.6</ele>
        <time>2023-09-03T08:08:54Z</time>
      </trkpt>
      <trkpt lat="48.10102" lon="6.69159">
        <ele>583</ele>
        <time>2023-09-03T08:08:55Z</time>
      </trkpt>
      <trkpt lat="48.10104" lon="6.69156">
        <ele>583</ele>
        <time>2023-09-03T08:08:56Z</time>
      </trkpt>
      <trkpt lat="48.10105" lon="6.69153">
        <ele>583.6</ele>
        <time>2023-09-03T08:08:57Z</time>
      </trkpt>
      <trkpt lat="48.10108" lon="6.69147">
        <ele>583.8</ele>
        <time>2023-09-03T08:08:58Z</time>
      </trkpt>
      <trkpt lat="48.1011" lon="6.69144">
        <ele>584.2</ele>
        <time>2023-09-03T08:08:59Z</time>
      </trkpt>
      <trkpt lat="48.10111" lon="6.69141">
        <ele>584.4</ele>
        <time>2023-09-03T08:09:00Z</time>
      </trkpt>
      <trkpt lat="48.10112" lon="6.69139">
        <ele>584.8</ele>
        <time>2023-09-03T08:09:01Z</time>
      </trkpt>
      <trkpt lat="48.10113" lon="6.69136">
        <ele>585</ele>
        <time>2023-09-03T08:09:02Z</time>
      </trkpt>
      <trkpt lat="48.10115" lon="6.69134">
        <ele>585.2</ele>
        <time>2023-09-03T08:09:03Z</time>
      </trkpt>
      <trkpt lat="48.10117" lon="6.69131">
        <ele>585.2</ele>
        <time>2023-09-03T08:09:04Z</time>
      </trkpt>
      <trkpt lat="48.10118" lon="6.69128">
        <ele>585.2</ele>
        <time>2023-09-03T08:09:05Z</time>
      </trkpt>
      <trkpt lat="48.10119" lon="6.69125">
        <ele>585.4</ele>
        <time>2023-09-03T08:09:06Z</time>
      </trkpt>
      <trkpt lat="48.10122" lon="6.69122">
        <ele>585.6</ele>
        <time>2023-09-03T08:09:07Z</time>
      </trkpt>
      <trkpt lat="48.10122" lon="6.69119">
        <ele>585.8</ele>
        <time>2023-09-03T08:09:08Z</time>
      </trkpt>
      <trkpt lat="48.10123" lon="6.69118">
        <ele>586.2</ele>
        <time>2023-09-03T08:09:09Z</time>
      </trkpt>
      <trkpt lat="48.10123" lon="6.69116">
        <ele>586.6</ele>
        <time>2023-09-03T08:09:10Z</time>
      </trkpt>
      <trkpt lat="48.10124" lon="6.69115">
        <ele>586.6</ele>
        <time>2023-09-03T08:09:11Z</time>
      </trkpt>
      <trkpt lat="48.10124" lon="6.69114">
        <ele>587</ele>
        <time>2023-09-03T08:09:12Z</time>
      </trkpt>
      <trkpt lat="48.10125" lon="6.69112">
        <ele>587.2</ele>
        <time>2023-09-03T08:09:13Z</time>
      </trkpt>
      <trkpt lat="48.10125" lon="6.69112">
        <ele>587.6</ele>
        <time>2023-09-03T08:09:14Z</time>
      </trkpt>
      <trkpt lat="48.10125" lon="6.69111">
        <ele>587.6</ele>
        <time>2023-09-03T08:09:15Z</time>
      </trkpt>
      <trkpt lat="48.10125" lon="6.69111">
        <ele>587.8</ele>
        <time>2023-09-03T08:09:16Z</time>
      </trkpt>
      <trkpt lat="48.10126" lon="6.6911">
        <ele>588.2</ele>
        <time>2023-09-03T08:09:17Z</time>
      </trkpt>
      <trkpt lat="48.10126" lon="6.69109">
        <ele>588.2</ele>
        <time>2023-09-03T08:09:18Z</time>
      </trkpt>
      <trkpt lat="48.10128" lon="6.69108">
        <ele>588.4</ele>
        <time>2023-09-03T08:09:19Z</time>
      </trkpt>
      <trkpt lat="48.10129" lon="6.69107">
        <ele>588.6</ele>
        <time>2023-09-03T08:09:20Z</time>
      </trkpt>
      <trkpt lat="48.1013" lon="6.69105">
        <ele>588.8</ele>
        <time>2023-09-03T08:09:21Z</time>
      </trkpt>
      <trkpt lat="48.10131" lon="6.69104">
        <ele>589</ele>
        <time>2023-09-03T08:09:22Z</time>
      </trkpt>
      <trkpt lat="48.10132" lon="6.69103">
        <ele>589.4</ele>
        <time>2023-09-03T08:09:23Z</time>
      </trkpt>
      <trkpt lat="48.10132" lon="6.69103">
        <ele>589.6</ele>
        <time>2023-09-03T08:09:24Z</time>
      </trkpt>
      <trkpt lat="48.10133" lon="6.69101">
        <ele>589.8</ele>
        <time>2023-09-03T08:09:25Z</time>
      </trkpt>
      <trkpt lat="48.10133" lon="6.691">
        <ele>590</ele>
        <time>2023-09-03T08:09:26Z</time>
      </trkpt>
      <trkpt lat="48.10133" lon="6.691">
        <ele>590.2</ele>
        <time>2023-09-03T08:09:27Z</time>
      </trkpt>
      <trkpt lat="48.10134" lon="6.691">
        <ele>590.4</ele>
        <time>2023-09-03T08:09:28Z</time>
      </trkpt>
      <trkpt lat="48.10134" lon="6.69098">
        <ele>590.4</ele>
        <time>2023-09-03T08:09:29Z</time>
      </trkpt>
      <trkpt lat="48.10135" lon="6.69097">
        <ele>590.6</ele>
        <time>2023-09-03T08:09:30Z</time>
      </trkpt>
      <trkpt lat="48.10135" lon="6.69095">
        <ele>590.8</ele>
        <time>2023-09-03T08:09:31Z</time>
      </trkpt>
      <trkpt lat="48.10136" lon="6.69093">
        <ele>590.8</ele>
        <time>2023-09-03T08:09:32Z</time>
      </trkpt>
      <trkpt lat="48.10136" lon="6.6909">
        <ele>591</ele>
        <time>2023-09-03T08:09:33Z</time>
      </trkpt>
      <trkpt lat="48.10135" lon="6.69086">
        <ele>591.2</ele>
        <time>2023-09-03T08:09:34Z</time>
      </trkpt>
      <trkpt lat="48.10135" lon="6.69085">
        <ele>591.4</ele>
        <time>2023-09-03T08:09:35Z</time>
      </trkpt>
      <trkpt lat="48.10135" lon="6.69083">
        <ele>591.8</ele>
        <time>2023-09-03T08:09:36Z</time>
      </trkpt>
      <trkpt lat="48.10135" lon="6.69083">
        <ele>592</ele>
        <time>2023-09-03T08:09:37Z</time>
      </trkpt>
      <trkpt lat="48.10135" lon="6.69083">
        <ele>592.2</ele>
        <time>2023-09-03T08:09:38Z</time>
      </trkpt>
      <trkpt lat="48.10136" lon="6.69081">
        <ele>592.2</ele>
        <time>2023-09-03T08:09:39Z</time>
      </trkpt>
      <trkpt lat="48.10136" lon="6.69078">
        <ele>592.6</ele>
        <time>2023-09-03T08:09:40Z</time>
      </trkpt>
      <trkpt lat="48.10137" lon="6.69075">
        <ele>592.8</ele>
        <time>2023-09-03T08:09:41Z</time>
      </trkpt>
      <trkpt lat="48.10137" lon="6.69074">
        <ele>593</ele>
        <time>2023-09-03T08:09:42Z</time>
      </trkpt>
      <trkpt lat="48.10137" lon="6.69074">
        <ele>593.2</ele>
        <time>2023-09-03T08:09:43Z</time>
      </trkpt>
      <trkpt lat="48.10137" lon="6.69074">
        <ele>593.2</ele>
        <time>2023-09-03T08:09:44Z</time>
      </trkpt>
      <trkpt lat="48.10139" lon="6.69065">
        <ele>593.4</ele>
        <time>2023-09-03T08:09:45Z</time>
      </trkpt>
      <trkpt lat="48.10143" lon="6.69045">
        <ele>593.4</ele>
        <time>2023-09-03T08:09:46Z</time>
      </trkpt>
      <trkpt lat="48.10144" lon="6.69033">
        <ele>593.4</ele>
        <time>2023-09-03T08:09:47Z</time>
      </trkpt>
      <trkpt lat="48.10144" lon="6.69026">
        <ele>593.4</ele>
        <time>2023-09-03T08:09:48Z</time>
      </trkpt>
      <trkpt lat="48.10146" lon="6.69019">
        <ele>593.4</ele>
        <time>2023-09-03T08:09:49Z</time>
      </trkpt>
      <trkpt lat="48.10147" lon="6.69012">
        <ele>593.2</ele>
        <time>2023-09-03T08:09:50Z</time>
      </trkpt>
      <trkpt lat="48.10148" lon="6.69006">
        <ele>593</ele>
        <time>2023-09-03T08:09:51Z</time>
      </trkpt>
      <trkpt lat="48.10149" lon="6.69001">
        <ele>592.8</ele>
        <time>2023-09-03T08:09:52Z</time>
      </trkpt>
      <trkpt lat="48.1015" lon="6.68998">
        <ele>592.6</ele>
        <time>2023-09-03T08:09:53Z</time>
      </trkpt>
      <trkpt lat="48.10151" lon="6.68993">
        <ele>592.4</ele>
        <time>2023-09-03T08:09:54Z</time>
      </trkpt>
      <trkpt lat="48.1015" lon="6.68988">
        <ele>592.4</ele>
        <time>2023-09-03T08:09:55Z</time>
      </trkpt>
      <trkpt lat="48.1015" lon="6.68981">
        <ele>592.2</ele>
        <time>2023-09-03T08:09:56Z</time>
      </trkpt>
      <trkpt lat="48.1015" lon="6.68978">
        <ele>592.2</ele>
        <time>2023-09-03T08:09:57Z</time>
      </trkpt>
      <trkpt lat="48.10151" lon="6.68974">
        <ele>592</ele>
        <time>2023-09-03T08:09:58Z</time>
      </trkpt>
      <trkpt lat="48.10152" lon="6.6897">
        <ele>592</ele>
        <time>2023-09-03T08:09:59Z</time>
      </trkpt>
      <trkpt lat="48.10153" lon="6.68968">
        <ele>592.2</ele>
        <time>2023-09-03T08:10:00Z</time>
      </trkpt>
      <trkpt lat="48.10151" lon="6.68965">
        <ele>592.2</ele>
        <time>2023-09-03T08:10:01Z</time>
      </trkpt>
      <trkpt lat="48.10152" lon="6.68964">
        <ele>592.8</ele>
        <time>2023-09-03T08:10:02Z</time>
      </trkpt>
      <trkpt lat="48.10151" lon="6.68961">
        <ele>593</ele>
        <time>2023-09-03T08:10:03Z</time>
      </trkpt>
      <trkpt lat="48.10149" lon="6.68959">
        <ele>593.2</ele>
        <time>2023-09-03T08:10:04Z</time>
      </trkpt>
      <trkpt lat="48.10149" lon="6.68959">
        <ele>593.8</ele>
        <time>2023-09-03T08:10:05Z</time>
      </trkpt>
      <trkpt lat="48.10148" lon="6.68955">
        <ele>594</ele>
        <time>2023-09-03T08:10:06Z</time>
      </trkpt>
      <trkpt lat="48.10147" lon="6.68951">
        <ele>594.6</ele>
        <time>2023-09-03T08:10:07Z</time>
      </trkpt>
      <trkpt lat="48.10147" lon="6.68949">
        <ele>595</ele>
        <time>2023-09-03T08:10:08Z</time>
      </trkpt>
      <trkpt lat="48.10148" lon="6.68946">
        <ele>595.6</ele>
        <time>2023-09-03T08:10:09Z</time>
      </trkpt>
      <trkpt lat="48.10148" lon="6.68945">
        <ele>596</ele>
        <time>2023-09-03T08:10:10Z</time>
      </trkpt>
      <trkpt lat="48.10148" lon="6.68945">
        <ele>596.4</ele>
        <time>2023-09-03T08:10:11Z</time>
      </trkpt>
      <trkpt lat="48.10149" lon="6.68942">
        <ele>596.6</ele>
        <time>2023-09-03T08:10:12Z</time>
      </trkpt>
      <trkpt lat="48.10149" lon="6.6894">
        <ele>596.8</ele>
        <time>2023-09-03T08:10:13Z</time>
      </trkpt>
      <trkpt lat="48.10149" lon="6.68937">
        <ele>597.2</ele>
        <time>2023-09-03T08:10:14Z</time>
      </trkpt>
      <trkpt lat="48.10149" lon="6.68935">
        <ele>597.4</ele>
        <time>2023-09-03T08:10:15Z</time>
      </trkpt>
      <trkpt lat="48.10149" lon="6.68934">
        <ele>597.6</ele>
        <time>2023-09-03T08:10:16Z</time>
      </trkpt>
      <trkpt lat="48.10149" lon="6.68934">
        <ele>597.8</ele>
        <time>2023-09-03T08:10:17Z</time>
      </trkpt>
      <trkpt lat="48.10148" lon="6.68933">
        <ele>598.4</ele>
        <time>2023-09-03T08:10:18Z</time>
      </trkpt>
      <trkpt lat="48.10147" lon="6.68931">
        <ele>598.6</ele>
        <time>2023-09-03T08:10:19Z</time>
      </trkpt>
      <trkpt lat="48.10147" lon="6.68929">
        <ele>598.8</ele>
        <time>2023-09-03T08:10:20Z</time>
      </trkpt>
      <trkpt lat="48.10147" lon="6.68926">
        <ele>599</ele>
        <time>2023-09-03T08:10:21Z</time>
      </trkpt>
      <trkpt lat="48.10147" lon="6.68924">
        <ele>599.4</ele>
        <time>2023-09-03T08:10:22Z</time>
      </trkpt>
      <trkpt lat="48.10146" lon="6.68921">
        <ele>599.6</ele>
        <time>2023-09-03T08:10:23Z</time>
      </trkpt>
      <trkpt lat="48.10146" lon="6.6892">
        <ele>600</ele>
        <time>2023-09-03T08:10:24Z</time>
      </trkpt>
      <trkpt lat="48.10146" lon="6.68918">
        <ele>600.4</ele>
        <time>2023-09-03T08:10:25Z</time>
      </trkpt>
      <trkpt lat="48.10146" lon="6.68917">
        <ele>600.6</ele>
        <time>2023-09-03T08:10:26Z</time>
      </trkpt>
      <trkpt lat="48.10147" lon="6.68915">
        <ele>600.8</ele>
        <time>2023-09-03T08:10:27Z</time>
      </trkpt>
      <trkpt lat="48.10147" lon="6.68915">
        <ele>601.4</ele>
        <time>2023-09-03T08:10:28Z</time>
      </trkpt>
      <trkpt lat="48.10146" lon="6.68909">
        <ele>601.6</ele>
        <time>2023-09-03T08:10:29Z</time>
      </trkpt>
      <trkpt lat="48.10145" lon="6.68905">
        <ele>601.8</ele>
        <time>2023-09-03T08:10:30Z</time>
      </trkpt>
      <trkpt lat="48.10146" lon="6.68905">
        <ele>602</ele>
        <time>2023-09-03T08:10:31Z</time>
      </trkpt>
      <trkpt lat="48.10146" lon="6.68902">
        <ele>602</ele>
        <time>2023-09-03T08:10:32Z</time>
      </trkpt>
      <trkpt lat="48.10146" lon="6.689">
        <ele>602.4</ele>
        <time>2023-09-03T08:10:33Z</time>
      </trkpt>
      <trkpt lat="48.10147" lon="6.68899">
        <ele>602.4</ele>
        <time>2023-09-03T08:10:34Z</time>
      </trkpt>
      <trkpt lat="48.10147" lon="6.68897">
        <ele>602.6</ele>
        <time>2023-09-03T08:10:35Z</time>
      </trkpt>
      <trkpt lat="48.10147" lon="6.68897">
        <ele>602.8</ele>
        <time>2023-09-03T08:10:36Z</time>
      </trkpt>
      <trkpt lat="48.10147" lon="6.68897">
        <ele>602.8</ele>
        <time>2023-09-03T08:10:37Z</time>
      </trkpt>
      <trkpt lat="48.10147" lon="6.68897">
        <ele>603</ele>
        <time>2023-09-03T08:10:38Z</time>
      </trkpt>
      <trkpt lat="48.10147" lon="6.68894">
        <ele>603.2</ele>
        <time>2023-09-03T08:10:39Z</time>
      </trkpt>
      <trkpt lat="48.10147" lon="6.68893">
        <ele>603.2</ele>
        <time>2023-09-03T08:10:40Z</time>
      </trkpt>
      <trkpt lat="48.10147" lon="6.68893">
        <ele>603.6</ele>
        <time>2023-09-03T08:10:41Z</time>
      </trkpt>
      <trkpt lat="48.10147" lon="6.68893">
        <ele>603.8</ele>
        <time>2023-09-03T08:10:42Z</time>
      </trkpt>
      <trkpt lat="48.10148" lon="6.6889">
        <ele>604</ele>
        <time>2023-09-03T08:10:43Z</time>
      </trkpt>
      <trkpt lat="48.10148" lon="6.68888">
        <ele>604.2</ele>
        <time>2023-09-03T08:10:44Z</time>
      </trkpt>
      <trkpt lat="48.10148" lon="6.68887">
        <ele>604.4</ele>
        <time>2023-09-03T08:10:45Z</time>
      </trkpt>
      <trkpt lat="48.10149" lon="6.68884">
        <ele>604.8</ele>
        <time>2023-09-03T08:10:46Z</time>
      </trkpt>
      <trkpt lat="48.10149" lon="6.68884">
        <ele>605</ele>
        <time>2023-09-03T08:10:47Z</time>
      </trkpt>
      <trkpt lat="48.10149" lon="6.68884">
        <ele>605.2</ele>
        <time>2023-09-03T08:10:48Z</time>
      </trkpt>
      <trkpt lat="48.10149" lon="6.68882">
        <ele>605.4</ele>
        <time>2023-09-03T08:10:49Z</time>
      </trkpt>
      <trkpt lat="48.1015" lon="6.68879">
        <ele>605.8</ele>
        <time>2023-09-03T08:10:50Z</time>
      </trkpt>
      <trkpt lat="48.1015" lon="6.68879">
        <ele>606.2</ele>
        <time>2023-09-03T08:10:51Z</time>
      </trkpt>
      <trkpt lat="48.1015" lon="6.68875">
        <ele>606.4</ele>
        <time>2023-09-03T08:10:52Z</time>
      </trkpt>
      <trkpt lat="48.1015" lon="6.68875">
        <ele>606.8</ele>
        <time>2023-09-03T08:10:53Z</time>
      </trkpt>
      <trkpt lat="48.10151" lon="6.68871">
        <ele>607</ele>
        <time>2023-09-03T08:10:54Z</time>
      </trkpt>
      <trkpt lat="48.1015" lon="6.68865">
        <ele>607.2</ele>
        <time>2023-09-03T08:10:55Z</time>
      </trkpt>
      <trkpt lat="48.10149" lon="6.68863">
        <ele>607.6</ele>
        <time>2023-09-03T08:10:56Z</time>
      </trkpt>
      <trkpt lat="48.10149" lon="6.68858">
        <ele>608</ele>
        <time>2023-09-03T08:10:57Z</time>
      </trkpt>
      <trkpt lat="48.10148" lon="6.68856">
        <ele>608.2</ele>
        <time>2023-09-03T08:10:58Z</time>
      </trkpt>
      <trkpt lat="48.10148" lon="6.68856">
        <ele>608.6</ele>
        <time>2023-09-03T08:10:59Z</time>
      </trkpt>
      <trkpt lat="48.10148" lon="6.68856">
        <ele>608.6</ele>
        <time>2023-09-03T08:11:00Z</time>
      </trkpt>
      <trkpt lat="48.10148" lon="6.68856">
        <ele>608.8</ele>
        <time>2023-09-03T08:11:01Z</time>
      </trkpt>
      <trkpt lat="48.10148" lon="6.68856">
        <ele>608.8</ele>
        <time>2023-09-03T08:11:02Z</time>
      </trkpt>
      <trkpt lat="48.10148" lon="6.68856">
        <ele>608.8</ele>
        <time>2023-09-03T08:11:03Z</time>
      </trkpt>
      <trkpt lat="48.10149" lon="6.68852">
        <ele>609.2</ele>
        <time>2023-09-03T08:11:04Z</time>
      </trkpt>
      <trkpt lat="48.1015" lon="6.68846">
        <ele>609.8</ele>
        <time>2023-09-03T08:11:05Z</time>
      </trkpt>
      <trkpt lat="48.10152" lon="6.68841">
        <ele>609.8</ele>
        <time>2023-09-03T08:11:06Z</time>
      </trkpt>
      <trkpt lat="48.10152" lon="6.6884">
        <ele>610.2</ele>
        <time>2023-09-03T08:11:07Z</time>
      </trkpt>
      <trkpt lat="48.10154" lon="6.68836">
        <ele>610.2</ele>
        <time>2023-09-03T08:11:08Z</time>
      </trkpt>
      <trkpt lat="48.10156" lon="6.68833">
        <ele>610.4</ele>
        <time>2023-09-03T08:11:09Z</time>
      </trkpt>
      <trkpt lat="48.10158" lon="6.68826">
        <ele>610.8</ele>
        <time>2023-09-03T08:11:10Z</time>
      </trkpt>
      <trkpt lat="48.10158" lon="6.68826">
        <ele>611</ele>
        <time>2023-09-03T08:11:11Z</time>
      </trkpt>
      <trkpt lat="48.10157" lon="6.68823">
        <ele>611</ele>
        <time>2023-09-03T08:11:12Z</time>
      </trkpt>
      <trkpt lat="48.10157" lon="6.6882">
        <ele>611.2</ele>
        <time>2023-09-03T08:11:13Z</time>
      </trkpt>
      <trkpt lat="48.10157" lon="6.68817">
        <ele>611.4</ele>
        <time>2023-09-03T08:11:14Z</time>
      </trkpt>
      <trkpt lat="48.10157" lon="6.68813">
        <ele>611.6</ele>
        <time>2023-09-03T08:11:15Z</time>
      </trkpt>
      <trkpt lat="48.10157" lon="6.68813">
        <ele>612</ele>
        <time>2023-09-03T08:11:16Z</time>
      </trkpt>
      <trkpt lat="48.10158" lon="6.6881">
        <ele>612</ele>
        <time>2023-09-03T08:11:17Z</time>
      </trkpt>
      <trkpt lat="48.10158" lon="6.6881">
        <ele>612.2</ele>
        <time>2023-09-03T08:11:18Z</time>
      </trkpt>
      <trkpt lat="48.10158" lon="6.6881">
        <ele>612.4</ele>
        <time>2023-09-03T08:11:19Z</time>
      </trkpt>
      <trkpt lat="48.10158" lon="6.68809">
        <ele>612.6</ele>
        <time>2023-09-03T08:11:20Z</time>
      </trkpt>
      <trkpt lat="48.10159" lon="6.68806">
        <ele>612.6</ele>
        <time>2023-09-03T08:11:21Z</time>
      </trkpt>
      <trkpt lat="48.10159" lon="6.68804">
        <ele>612.6</ele>
        <time>2023-09-03T08:11:22Z</time>
      </trkpt>
      <trkpt lat="48.1016" lon="6.68801">
        <ele>613</ele>
        <time>2023-09-03T08:11:23Z</time>
      </trkpt>
      <trkpt lat="48.10161" lon="6.68796">
        <ele>613</ele>
        <time>2023-09-03T08:11:24Z</time>
      </trkpt>
      <trkpt lat="48.10162" lon="6.68792">
        <ele>613.4</ele>
        <time>2023-09-03T08:11:25Z</time>
      </trkpt>
      <trkpt lat="48.10163" lon="6.68788">
        <ele>613.6</ele>
        <time>2023-09-03T08:11:26Z</time>
      </trkpt>
      <trkpt lat="48.10164" lon="6.68783">
        <ele>613.8</ele>
        <time>2023-09-03T08:11:27Z</time>
      </trkpt>
      <trkpt lat="48.10164" lon="6.6878">
        <ele>613.8</ele>
        <time>2023-09-03T08:11:28Z</time>
      </trkpt>
      <trkpt lat="48.10165" lon="6.68777">
        <ele>614.4</ele>
        <time>2023-09-03T08:11:29Z</time>
      </trkpt>
      <trkpt lat="48.10165" lon="6.68776">
        <ele>614.4</ele>
        <time>2023-09-03T08:11:30Z</time>
      </trkpt>
      <trkpt lat="48.10166" lon="6.68773">
        <ele>614.6</ele>
        <time>2023-09-03T08:11:31Z</time>
      </trkpt>
      <trkpt lat="48.10168" lon="6.68768">
        <ele>615</ele>
        <time>2023-09-03T08:11:32Z</time>
      </trkpt>
      <trkpt lat="48.10169" lon="6.68765">
        <ele>615.4</ele>
        <time>2023-09-03T08:11:33Z</time>
      </trkpt>
      <trkpt lat="48.10169" lon="6.68764">
        <ele>615.4</ele>
        <time>2023-09-03T08:11:34Z</time>
      </trkpt>
      <trkpt lat="48.1017" lon="6.68763">
        <ele>615.4</ele>
        <time>2023-09-03T08:11:35Z</time>
      </trkpt>
      <trkpt lat="48.1017" lon="6.68761">
        <ele>615.4</ele>
        <time>2023-09-03T08:11:36Z</time>
      </trkpt>
      <trkpt lat="48.10171" lon="6.68758">
        <ele>615.6</ele>
        <time>2023-09-03T08:11:37Z</time>
      </trkpt>
      <trkpt lat="48.1017" lon="6.68755">
        <ele>616</ele>
        <time>2023-09-03T08:11:38Z</time>
      </trkpt>
      <trkpt lat="48.10171" lon="6.68753">
        <ele>616.2</ele>
        <time>2023-09-03T08:11:39Z</time>
      </trkpt>
      <trkpt lat="48.10172" lon="6.68751">
        <ele>616.2</ele>
        <time>2023-09-03T08:11:40Z</time>
      </trkpt>
      <trkpt lat="48.10172" lon="6.6875">
        <ele>616.4</ele>
        <time>2023-09-03T08:11:41Z</time>
      </trkpt>
      <trkpt lat="48.10173" lon="6.6875">
        <ele>616.6</ele>
        <time>2023-09-03T08:11:42Z</time>
      </trkpt>
      <trkpt lat="48.10173" lon="6.68746">
        <ele>616.6</ele>
        <time>2023-09-03T08:11:43Z</time>
      </trkpt>
      <trkpt lat="48.10174" lon="6.68743">
        <ele>617</ele>
        <time>2023-09-03T08:11:44Z</time>
      </trkpt>
      <trkpt lat="48.10174" lon="6.6874">
        <ele>617</ele>
        <time>2023-09-03T08:11:45Z</time>
      </trkpt>
      <trkpt lat="48.10174" lon="6.68738">
        <ele>617.2</ele>
        <time>2023-09-03T08:11:46Z</time>
      </trkpt>
      <trkpt lat="48.10174" lon="6.68735">
        <ele>617.2</ele>
        <time>2023-09-03T08:11:47Z</time>
      </trkpt>
      <trkpt lat="48.10174" lon="6.68731">
        <ele>617.6</ele>
        <time>2023-09-03T08:11:48Z</time>
      </trkpt>
      <trkpt lat="48.10174" lon="6.68728">
        <ele>618</ele>
        <time>2023-09-03T08:11:49Z</time>
      </trkpt>
      <trkpt lat="48.10175" lon="6.68726">
        <ele>618.2</ele>
        <time>2023-09-03T08:11:50Z</time>
      </trkpt>
      <trkpt lat="48.10176" lon="6.68723">
        <ele>618.4</ele>
        <time>2023-09-03T08:11:51Z</time>
      </trkpt>
      <trkpt lat="48.10176" lon="6.68719">
        <ele>618.4</ele>
        <time>2023-09-03T08:11:52Z</time>
      </trkpt>
      <trkpt lat="48.10175" lon="6.68717">
        <ele>618.6</ele>
        <time>2023-09-03T08:11:53Z</time>
      </trkpt>
      <trkpt lat="48.10176" lon="6.68715">
        <ele>618.6</ele>
        <time>2023-09-03T08:11:54Z</time>
      </trkpt>
      <trkpt lat="48.10176" lon="6.68713">
        <ele>618.8</ele>
        <time>2023-09-03T08:11:55Z</time>
      </trkpt>
      <trkpt lat="48.10177" lon="6.68711">
        <ele>619</ele>
        <time>2023-09-03T08:11:56Z</time>
      </trkpt>
      <trkpt lat="48.10176" lon="6.68708">
        <ele>619.2</ele>
        <time>2023-09-03T08:11:57Z</time>
      </trkpt>
      <trkpt lat="48.10176" lon="6.68704">
        <ele>619.4</ele>
        <time>2023-09-03T08:11:58Z</time>
      </trkpt>
      <trkpt lat="48.10176" lon="6.68701">
        <ele>619.6</ele>
        <time>2023-09-03T08:11:59Z</time>
      </trkpt>
      <trkpt lat="48.10176" lon="6.687">
        <ele>620.2</ele>
        <time>2023-09-03T08:12:00Z</time>
      </trkpt>
      <trkpt lat="48.10176" lon="6.687">
        <ele>620.4</ele>
        <time>2023-09-03T08:12:01Z</time>
      </trkpt>
      <trkpt lat="48.10177" lon="6.68698">
        <ele>620.8</ele>
        <time>2023-09-03T08:12:02Z</time>
      </trkpt>
      <trkpt lat="48.10177" lon="6.68695">
        <ele>620.8</ele>
        <time>2023-09-03T08:12:03Z</time>
      </trkpt>
      <trkpt lat="48.10178" lon="6.68692">
        <ele>621.2</ele>
        <time>2023-09-03T08:12:04Z</time>
      </trkpt>
      <trkpt lat="48.10179" lon="6.68689">
        <ele>621.4</ele>
        <time>2023-09-03T08:12:05Z</time>
      </trkpt>
      <trkpt lat="48.10177" lon="6.68685">
        <ele>621.4</ele>
        <time>2023-09-03T08:12:06Z</time>
      </trkpt>
      <trkpt lat="48.10177" lon="6.68685">
        <ele>621.6</ele>
        <time>2023-09-03T08:12:07Z</time>
      </trkpt>
      <trkpt lat="48.10177" lon="6.68685">
        <ele>621.8</ele>
        <time>2023-09-03T08:12:08Z</time>
      </trkpt>
      <trkpt lat="48.10177" lon="6.68683">
        <ele>622</ele>
        <time>2023-09-03T08:12:09Z</time>
      </trkpt>
      <trkpt lat="48.10177" lon="6.6868">
        <ele>622.2</ele>
        <time>2023-09-03T08:12:10Z</time>
      </trkpt>
      <trkpt lat="48.10178" lon="6.68675">
        <ele>622.4</ele>
        <time>2023-09-03T08:12:11Z</time>
      </trkpt>
      <trkpt lat="48.10179" lon="6.68667">
        <ele>622.6</ele>
        <time>2023-09-03T08:12:12Z</time>
      </trkpt>
      <trkpt lat="48.10179" lon="6.68663">
        <ele>623</ele>
        <time>2023-09-03T08:12:13Z</time>
      </trkpt>
      <trkpt lat="48.1018" lon="6.68661">
        <ele>623.2</ele>
        <time>2023-09-03T08:12:14Z</time>
      </trkpt>
      <trkpt lat="48.10181" lon="6.6866">
        <ele>623.4</ele>
        <time>2023-09-03T08:12:15Z</time>
      </trkpt>
      <trkpt lat="48.10182" lon="6.68658">
        <ele>623.4</ele>
        <time>2023-09-03T08:12:16Z</time>
      </trkpt>
      <trkpt lat="48.10183" lon="6.68657">
        <ele>623.6</ele>
        <time>2023-09-03T08:12:17Z</time>
      </trkpt>
      <trkpt lat="48.10184" lon="6.68655">
        <ele>623.6</ele>
        <time>2023-09-03T08:12:18Z</time>
      </trkpt>
      <trkpt lat="48.10184" lon="6.68653">
        <ele>623.8</ele>
        <time>2023-09-03T08:12:19Z</time>
      </trkpt>
      <trkpt lat="48.10183" lon="6.68651">
        <ele>624</ele>
        <time>2023-09-03T08:12:20Z</time>
      </trkpt>
      <trkpt lat="48.10184" lon="6.68648">
        <ele>624.4</ele>
        <time>2023-09-03T08:12:21Z</time>
      </trkpt>
      <trkpt lat="48.10184" lon="6.68644">
        <ele>624.6</ele>
        <time>2023-09-03T08:12:22Z</time>
      </trkpt>
      <trkpt lat="48.10186" lon="6.6864">
        <ele>624.8</ele>
        <time>2023-09-03T08:12:23Z</time>
      </trkpt>
      <trkpt lat="48.10187" lon="6.68637">
        <ele>625</ele>
        <time>2023-09-03T08:12:24Z</time>
      </trkpt>
      <trkpt lat="48.10191" lon="6.68635">
        <ele>625.4</ele>
        <time>2023-09-03T08:12:25Z</time>
      </trkpt>
      <trkpt lat="48.10193" lon="6.68633">
        <ele>626</ele>
        <time>2023-09-03T08:12:26Z</time>
      </trkpt>
      <trkpt lat="48.10193" lon="6.6863">
        <ele>626</ele>
        <time>2023-09-03T08:12:27Z</time>
      </trkpt>
      <trkpt lat="48.10193" lon="6.68628">
        <ele>626.4</ele>
        <time>2023-09-03T08:12:28Z</time>
      </trkpt>
      <trkpt lat="48.10193" lon="6.68627">
        <ele>626.6</ele>
        <time>2023-09-03T08:12:29Z</time>
      </trkpt>
      <trkpt lat="48.10193" lon="6.68627">
        <ele>626.8</ele>
        <time>2023-09-03T08:12:30Z</time>
      </trkpt>
      <trkpt lat="48.10194" lon="6.68626">
        <ele>626.8</ele>
        <time>2023-09-03T08:12:31Z</time>
      </trkpt>
      <trkpt lat="48.10194" lon="6.68625">
        <ele>627</ele>
        <time>2023-09-03T08:12:32Z</time>
      </trkpt>
      <trkpt lat="48.10194" lon="6.68621">
        <ele>627</ele>
        <time>2023-09-03T08:12:33Z</time>
      </trkpt>
      <trkpt lat="48.10195" lon="6.68617">
        <ele>627</ele>
        <time>2023-09-03T08:12:34Z</time>
      </trkpt>
      <trkpt lat="48.10195" lon="6.68615">
        <ele>627.2</ele>
        <time>2023-09-03T08:12:35Z</time>
      </trkpt>
      <trkpt lat="48.10195" lon="6.68614">
        <ele>627.2</ele>
        <time>2023-09-03T08:12:36Z</time>
      </trkpt>
      <trkpt lat="48.10196" lon="6.68613">
        <ele>627.4</ele>
        <time>2023-09-03T08:12:37Z</time>
      </trkpt>
      <trkpt lat="48.10196" lon="6.68612">
        <ele>627.4</ele>
        <time>2023-09-03T08:12:38Z</time>
      </trkpt>
      <trkpt lat="48.10197" lon="6.6861">
        <ele>627.6</ele>
        <time>2023-09-03T08:12:39Z</time>
      </trkpt>
      <trkpt lat="48.10197" lon="6.68609">
        <ele>627.6</ele>
        <time>2023-09-03T08:12:40Z</time>
      </trkpt>
      <trkpt lat="48.10198" lon="6.68609">
        <ele>627.8</ele>
        <time>2023-09-03T08:12:41Z</time>
      </trkpt>
      <trkpt lat="48.10199" lon="6.68608">
        <ele>627.8</ele>
        <time>2023-09-03T08:12:42Z</time>
      </trkpt>
      <trkpt lat="48.102" lon="6.68607">
        <ele>628</ele>
        <time>2023-09-03T08:12:43Z</time>
      </trkpt>
      <trkpt lat="48.10201" lon="6.68604">
        <ele>628.2</ele>
        <time>2023-09-03T08:12:44Z</time>
      </trkpt>
      <trkpt lat="48.10203" lon="6.68602">
        <ele>628.4</ele>
        <time>2023-09-03T08:12:45Z</time>
      </trkpt>
      <trkpt lat="48.10203" lon="6.68599">
        <ele>628.4</ele>
        <time>2023-09-03T08:12:46Z</time>
      </trkpt>
      <trkpt lat="48.10204" lon="6.68597">
        <ele>628.6</ele>
        <time>2023-09-03T08:12:47Z</time>
      </trkpt>
      <trkpt lat="48.10205" lon="6.68594">
        <ele>628.6</ele>
        <time>2023-09-03T08:12:48Z</time>
      </trkpt>
      <trkpt lat="48.10207" lon="6.6859">
        <ele>629</ele>
        <time>2023-09-03T08:12:49Z</time>
      </trkpt>
      <trkpt lat="48.10208" lon="6.68587">
        <ele>629.2</ele>
        <time>2023-09-03T08:12:50Z</time>
      </trkpt>
      <trkpt lat="48.10209" lon="6.68584">
        <ele>629.4</ele>
        <time>2023-09-03T08:12:51Z</time>
      </trkpt>
      <trkpt lat="48.10209" lon="6.68582">
        <ele>629.6</ele>
        <time>2023-09-03T08:12:52Z</time>
      </trkpt>
      <trkpt lat="48.10211" lon="6.6858">
        <ele>629.8</ele>
        <time>2023-09-03T08:12:53Z</time>
      </trkpt>
      <trkpt lat="48.10212" lon="6.68578">
        <ele>629.8</ele>
        <time>2023-09-03T08:12:54Z</time>
      </trkpt>
      <trkpt lat="48.10214" lon="6.68575">
        <ele>630</ele>
        <time>2023-09-03T08:12:55Z</time>
      </trkpt>
      <trkpt lat="48.10216" lon="6.68572">
        <ele>630.2</ele>
        <time>2023-09-03T08:12:56Z</time>
      </trkpt>
      <trkpt lat="48.10217" lon="6.68569">
        <ele>630.2</ele>
        <time>2023-09-03T08:12:57Z</time>
      </trkpt>
      <trkpt lat="48.10218" lon="6.68567">
        <ele>630.4</ele>
        <time>2023-09-03T08:12:58Z</time>
      </trkpt>
      <trkpt lat="48.1022" lon="6.68564">
        <ele>630.4</ele>
        <time>2023-09-03T08:12:59Z</time>
      </trkpt>
      <trkpt lat="48.10221" lon="6.68561">
        <ele>630.8</ele>
        <time>2023-09-03T08:13:00Z</time>
      </trkpt>
      <trkpt lat="48.10223" lon="6.68558">
        <ele>630.8</ele>
        <time>2023-09-03T08:13:01Z</time>
      </trkpt>
      <trkpt lat="48.10226" lon="6.68554">
        <ele>631</ele>
        <time>2023-09-03T08:13:02Z</time>
      </trkpt>
      <trkpt lat="48.10229" lon="6.6855">
        <ele>631.2</ele>
        <time>2023-09-03T08:13:03Z</time>
      </trkpt>
      <trkpt lat="48.10229" lon="6.68549">
        <ele>631.4</ele>
        <time>2023-09-03T08:13:04Z</time>
      </trkpt>
      <trkpt lat="48.10232" lon="6.68546">
        <ele>631.6</ele>
        <time>2023-09-03T08:13:05Z</time>
      </trkpt>
      <trkpt lat="48.10234" lon="6.68542">
        <ele>631.8</ele>
        <time>2023-09-03T08:13:06Z</time>
      </trkpt>
      <trkpt lat="48.10236" lon="6.68538">
        <ele>631.8</ele>
        <time>2023-09-03T08:13:07Z</time>
      </trkpt>
      <trkpt lat="48.10238" lon="6.68534">
        <ele>632.2</ele>
        <time>2023-09-03T08:13:08Z</time>
      </trkpt>
      <trkpt lat="48.1024" lon="6.68532">
        <ele>632.4</ele>
        <time>2023-09-03T08:13:09Z</time>
      </trkpt>
      <trkpt lat="48.10241" lon="6.68531">
        <ele>632.6</ele>
        <time>2023-09-03T08:13:10Z</time>
      </trkpt>
      <trkpt lat="48.10242" lon="6.6853">
        <ele>632.8</ele>
        <time>2023-09-03T08:13:11Z</time>
      </trkpt>
      <trkpt lat="48.10245" lon="6.68528">
        <ele>633</ele>
        <time>2023-09-03T08:13:12Z</time>
      </trkpt>
      <trkpt lat="48.10247" lon="6.68525">
        <ele>633.2</ele>
        <time>2023-09-03T08:13:13Z</time>
      </trkpt>
      <trkpt lat="48.10248" lon="6.68523">
        <ele>633.4</ele>
        <time>2023-09-03T08:13:14Z</time>
      </trkpt>
      <trkpt lat="48.1025" lon="6.68521">
        <ele>633.6</ele>
        <time>2023-09-03T08:13:15Z</time>
      </trkpt>
      <trkpt lat="48.10252" lon="6.68519">
        <ele>633.8</ele>
        <time>2023-09-03T08:13:16Z</time>
      </trkpt>
      <trkpt lat="48.10253" lon="6.68516">
        <ele>633.8</ele>
        <time>2023-09-03T08:13:17Z</time>
      </trkpt>
      <trkpt lat="48.10256" lon="6.68513">
        <ele>634</ele>
        <time>2023-09-03T08:13:18Z</time>
      </trkpt>
      <trkpt lat="48.10258" lon="6.68511">
        <ele>634.2</ele>
        <time>2023-09-03T08:13:19Z</time>
      </trkpt>
      <trkpt lat="48.10259" lon="6.68509">
        <ele>634.8</ele>
        <time>2023-09-03T08:13:20Z</time>
      </trkpt>
      <trkpt lat="48.10261" lon="6.68508">
        <ele>635</ele>
        <time>2023-09-03T08:13:21Z</time>
      </trkpt>
      <trkpt lat="48.10261" lon="6.68507">
        <ele>635.4</ele>
        <time>2023-09-03T08:13:22Z</time>
      </trkpt>
      <trkpt lat="48.10262" lon="6.68505">
        <ele>635.6</ele>
        <time>2023-09-03T08:13:23Z</time>
      </trkpt>
      <trkpt lat="48.10263" lon="6.68502">
        <ele>636</ele>
        <time>2023-09-03T08:13:24Z</time>
      </trkpt>
      <trkpt lat="48.10264" lon="6.68499">
        <ele>636.2</ele>
        <time>2023-09-03T08:13:25Z</time>
      </trkpt>
      <trkpt lat="48.10265" lon="6.68497">
        <ele>636.4</ele>
        <time>2023-09-03T08:13:26Z</time>
      </trkpt>
      <trkpt lat="48.10264" lon="6.68496">
        <ele>636.6</ele>
        <time>2023-09-03T08:13:27Z</time>
      </trkpt>
      <trkpt lat="48.10264" lon="6.68493">
        <ele>636.8</ele>
        <time>2023-09-03T08:13:28Z</time>
      </trkpt>
      <trkpt lat="48.10265" lon="6.6849">
        <ele>637.2</ele>
        <time>2023-09-03T08:13:29Z</time>
      </trkpt>
      <trkpt lat="48.10267" lon="6.68486">
        <ele>637.2</ele>
        <time>2023-09-03T08:13:30Z</time>
      </trkpt>
      <trkpt lat="48.10268" lon="6.68483">
        <ele>637.4</ele>
        <time>2023-09-03T08:13:31Z</time>
      </trkpt>
      <trkpt lat="48.1027" lon="6.68481">
        <ele>637.4</ele>
        <time>2023-09-03T08:13:32Z</time>
      </trkpt>
      <trkpt lat="48.10272" lon="6.68479">
        <ele>637.6</ele>
        <time>2023-09-03T08:13:33Z</time>
      </trkpt>
      <trkpt lat="48.10274" lon="6.68478">
        <ele>637.6</ele>
        <time>2023-09-03T08:13:34Z</time>
      </trkpt>
      <trkpt lat="48.10276" lon="6.68476">
        <ele>637.8</ele>
        <time>2023-09-03T08:13:35Z</time>
      </trkpt>
      <trkpt lat="48.10279" lon="6.68475">
        <ele>637.8</ele>
        <time>2023-09-03T08:13:36Z</time>
      </trkpt>
      <trkpt lat="48.10281" lon="6.68473">
        <ele>637.8</ele>
        <time>2023-09-03T08:13:37Z</time>
      </trkpt>
      <trkpt lat="48.10283" lon="6.68471">
        <ele>637.8</ele>
        <time>2023-09-03T08:13:38Z</time>
      </trkpt>
      <trkpt lat="48.10285" lon="6.6847">
        <ele>637.8</ele>
        <time>2023-09-03T08:13:39Z</time>
      </trkpt>
      <trkpt lat="48.10288" lon="6.68469">
        <ele>637.8</ele>
        <time>2023-09-03T08:13:40Z</time>
      </trkpt>
      <trkpt lat="48.10291" lon="6.68467">
        <ele>637.8</ele>
        <time>2023-09-03T08:13:41Z</time>
      </trkpt>
      <trkpt lat="48.10293" lon="6.68466">
        <ele>638</ele>
        <time>2023-09-03T08:13:42Z</time>
      </trkpt>
      <trkpt lat="48.10295" lon="6.68466">
        <ele>638</ele>
        <time>2023-09-03T08:13:43Z</time>
      </trkpt>
      <trkpt lat="48.10296" lon="6.68465">
        <ele>638.2</ele>
        <time>2023-09-03T08:13:44Z</time>
      </trkpt>
      <trkpt lat="48.10297" lon="6.68463">
        <ele>638.4</ele>
        <time>2023-09-03T08:13:45Z</time>
      </trkpt>
      <trkpt lat="48.10299" lon="6.68462">
        <ele>638.6</ele>
        <time>2023-09-03T08:13:46Z</time>
      </trkpt>
      <trkpt lat="48.10301" lon="6.68461">
        <ele>638.8</ele>
        <time>2023-09-03T08:13:47Z</time>
      </trkpt>
      <trkpt lat="48.10303" lon="6.68459">
        <ele>639.2</ele>
        <time>2023-09-03T08:13:48Z</time>
      </trkpt>
      <trkpt lat="48.10304" lon="6.68457">
        <ele>639.4</ele>
        <time>2023-09-03T08:13:49Z</time>
      </trkpt>
      <trkpt lat="48.10306" lon="6.68456">
        <ele>639.6</ele>
        <time>2023-09-03T08:13:50Z</time>
      </trkpt>
      <trkpt lat="48.1031" lon="6.68455">
        <ele>639.6</ele>
        <time>2023-09-03T08:13:51Z</time>
      </trkpt>
      <trkpt lat="48.10313" lon="6.68454">
        <ele>639.8</ele>
        <time>2023-09-03T08:13:52Z</time>
      </trkpt>
      <trkpt lat="48.10315" lon="6.68453">
        <ele>640</ele>
        <time>2023-09-03T08:13:53Z</time>
      </trkpt>
      <trkpt lat="48.10318" lon="6.68451">
        <ele>640.2</ele>
        <time>2023-09-03T08:13:54Z</time>
      </trkpt>
      <trkpt lat="48.10319" lon="6.6845">
        <ele>640.4</ele>
        <time>2023-09-03T08:13:55Z</time>
      </trkpt>
      <trkpt lat="48.1032" lon="6.68448">
        <ele>640.6</ele>
        <time>2023-09-03T08:13:56Z</time>
      </trkpt>
      <trkpt lat="48.10322" lon="6.68446">
        <ele>641</ele>
        <time>2023-09-03T08:13:57Z</time>
      </trkpt>
      <trkpt lat="48.10323" lon="6.68444">
        <ele>641.2</ele>
        <time>2023-09-03T08:13:58Z</time>
      </trkpt>
      <trkpt lat="48.10325" lon="6.68443">
        <ele>641.6</ele>
        <time>2023-09-03T08:13:59Z</time>
      </trkpt>
      <trkpt lat="48.10327" lon="6.68445">
        <ele>641.6</ele>
        <time>2023-09-03T08:14:00Z</time>
      </trkpt>
      <trkpt lat="48.10329" lon="6.68446">
        <ele>641.8</ele>
        <time>2023-09-03T08:14:01Z</time>
      </trkpt>
      <trkpt lat="48.10329" lon="6.68445">
        <ele>641.8</ele>
        <time>2023-09-03T08:14:02Z</time>
      </trkpt>
      <trkpt lat="48.1033" lon="6.68444">
        <ele>642.2</ele>
        <time>2023-09-03T08:14:03Z</time>
      </trkpt>
      <trkpt lat="48.1033" lon="6.68444">
        <ele>642.4</ele>
        <time>2023-09-03T08:14:04Z</time>
      </trkpt>
      <trkpt lat="48.10331" lon="6.68442">
        <ele>642.8</ele>
        <time>2023-09-03T08:14:05Z</time>
      </trkpt>
      <trkpt lat="48.10332" lon="6.68441">
        <ele>642.8</ele>
        <time>2023-09-03T08:14:06Z</time>
      </trkpt>
      <trkpt lat="48.10333" lon="6.68439">
        <ele>643</ele>
        <time>2023-09-03T08:14:07Z</time>
      </trkpt>
      <trkpt lat="48.10334" lon="6.68438">
        <ele>643</ele>
        <time>2023-09-03T08:14:08Z</time>
      </trkpt>
      <trkpt lat="48.10336" lon="6.68436">
        <ele>643</ele>
        <time>2023-09-03T08:14:09Z</time>
      </trkpt>
      <trkpt lat="48.10338" lon="6.68434">
        <ele>643</ele>
        <time>2023-09-03T08:14:10Z</time>
      </trkpt>
      <trkpt lat="48.1034" lon="6.68433">
        <ele>643</ele>
        <time>2023-09-03T08:14:11Z</time>
      </trkpt>
      <trkpt lat="48.10341" lon="6.68432">
        <ele>643</ele>
        <time>2023-09-03T08:14:12Z</time>
      </trkpt>
      <trkpt lat="48.10343" lon="6.68431">
        <ele>643</ele>
        <time>2023-09-03T08:14:13Z</time>
      </trkpt>
      <trkpt lat="48.10345" lon="6.6843">
        <ele>643</ele>
        <time>2023-09-03T08:14:14Z</time>
      </trkpt>
      <trkpt lat="48.10346" lon="6.68429">
        <ele>643</ele>
        <time>2023-09-03T08:14:15Z</time>
      </trkpt>
      <trkpt lat="48.10348" lon="6.68426">
        <ele>643</ele>
        <time>2023-09-03T08:14:16Z</time>
      </trkpt>
      <trkpt lat="48.1035" lon="6.68423">
        <ele>643</ele>
        <time>2023-09-03T08:14:17Z</time>
      </trkpt>
      <trkpt lat="48.10352" lon="6.68419">
        <ele>643.2</ele>
        <time>2023-09-03T08:14:18Z</time>
      </trkpt>
      <trkpt lat="48.10354" lon="6.68417">
        <ele>643.2</ele>
        <time>2023-09-03T08:14:19Z</time>
      </trkpt>
      <trkpt lat="48.10356" lon="6.68416">
        <ele>643.4</ele>
        <time>2023-09-03T08:14:20Z</time>
      </trkpt>
      <trkpt lat="48.10357" lon="6.68414">
        <ele>643.8</ele>
        <time>2023-09-03T08:14:21Z</time>
      </trkpt>
      <trkpt lat="48.10359" lon="6.68413">
        <ele>643.8</ele>
        <time>2023-09-03T08:14:22Z</time>
      </trkpt>
      <trkpt lat="48.10361" lon="6.6841">
        <ele>644</ele>
        <time>2023-09-03T08:14:23Z</time>
      </trkpt>
      <trkpt lat="48.10363" lon="6.68408">
        <ele>644.2</ele>
        <time>2023-09-03T08:14:24Z</time>
      </trkpt>
      <trkpt lat="48.10365" lon="6.68406">
        <ele>644.6</ele>
        <time>2023-09-03T08:14:25Z</time>
      </trkpt>
      <trkpt lat="48.10367" lon="6.68404">
        <ele>644.6</ele>
        <time>2023-09-03T08:14:26Z</time>
      </trkpt>
      <trkpt lat="48.1037" lon="6.68402">
        <ele>645</ele>
        <time>2023-09-03T08:14:27Z</time>
      </trkpt>
      <trkpt lat="48.10373" lon="6.684">
        <ele>645</ele>
        <time>2023-09-03T08:14:28Z</time>
      </trkpt>
      <trkpt lat="48.10373" lon="6.68399">
        <ele>645.2</ele>
        <time>2023-09-03T08:14:29Z</time>
      </trkpt>
      <trkpt lat="48.10375" lon="6.68398">
        <ele>645.2</ele>
        <time>2023-09-03T08:14:30Z</time>
      </trkpt>
      <trkpt lat="48.10377" lon="6.68397">
        <ele>645.4</ele>
        <time>2023-09-03T08:14:31Z</time>
      </trkpt>
      <trkpt lat="48.10379" lon="6.68395">
        <ele>645.6</ele>
        <time>2023-09-03T08:14:32Z</time>
      </trkpt>
      <trkpt lat="48.10381" lon="6.68393">
        <ele>645.6</ele>
        <time>2023-09-03T08:14:33Z</time>
      </trkpt>
      <trkpt lat="48.10383" lon="6.68391">
        <ele>645.8</ele>
        <time>2023-09-03T08:14:34Z</time>
      </trkpt>
      <trkpt lat="48.10385" lon="6.68388">
        <ele>645.8</ele>
        <time>2023-09-03T08:14:35Z</time>
      </trkpt>
      <trkpt lat="48.10388" lon="6.68386">
        <ele>646.2</ele>
        <time>2023-09-03T08:14:36Z</time>
      </trkpt>
      <trkpt lat="48.1039" lon="6.68384">
        <ele>646.6</ele>
        <time>2023-09-03T08:14:37Z</time>
      </trkpt>
      <trkpt lat="48.10392" lon="6.68382">
        <ele>646.8</ele>
        <time>2023-09-03T08:14:38Z</time>
      </trkpt>
      <trkpt lat="48.10395" lon="6.6838">
        <ele>647</ele>
        <time>2023-09-03T08:14:39Z</time>
      </trkpt>
      <trkpt lat="48.10397" lon="6.68378">
        <ele>647.2</ele>
        <time>2023-09-03T08:14:40Z</time>
      </trkpt>
      <trkpt lat="48.10397" lon="6.68378">
        <ele>647.4</ele>
        <time>2023-09-03T08:14:41Z</time>
      </trkpt>
      <trkpt lat="48.10399" lon="6.68377">
        <ele>647.8</ele>
        <time>2023-09-03T08:14:42Z</time>
      </trkpt>
      <trkpt lat="48.10401" lon="6.68375">
        <ele>648.2</ele>
        <time>2023-09-03T08:14:43Z</time>
      </trkpt>
      <trkpt lat="48.10404" lon="6.68373">
        <ele>648.4</ele>
        <time>2023-09-03T08:14:44Z</time>
      </trkpt>
      <trkpt lat="48.10406" lon="6.68369">
        <ele>648.8</ele>
        <time>2023-09-03T08:14:45Z</time>
      </trkpt>
      <trkpt lat="48.10408" lon="6.68367">
        <ele>649</ele>
        <time>2023-09-03T08:14:46Z</time>
      </trkpt>
      <trkpt lat="48.1041" lon="6.68366">
        <ele>649.2</ele>
        <time>2023-09-03T08:14:47Z</time>
      </trkpt>
      <trkpt lat="48.10411" lon="6.68365">
        <ele>649.2</ele>
        <time>2023-09-03T08:14:48Z</time>
      </trkpt>
      <trkpt lat="48.10411" lon="6.68364">
        <ele>649.4</ele>
        <time>2023-09-03T08:14:49Z</time>
      </trkpt>
      <trkpt lat="48.10412" lon="6.68365">
        <ele>649.6</ele>
        <time>2023-09-03T08:14:50Z</time>
      </trkpt>
      <trkpt lat="48.10414" lon="6.68363">
        <ele>650.2</ele>
        <time>2023-09-03T08:14:51Z</time>
      </trkpt>
      <trkpt lat="48.10417" lon="6.6836">
        <ele>650.4</ele>
        <time>2023-09-03T08:14:52Z</time>
      </trkpt>
      <trkpt lat="48.1042" lon="6.68357">
        <ele>650.8</ele>
        <time>2023-09-03T08:14:53Z</time>
      </trkpt>
      <trkpt lat="48.10421" lon="6.68354">
        <ele>651</ele>
        <time>2023-09-03T08:14:54Z</time>
      </trkpt>
      <trkpt lat="48.10421" lon="6.68352">
        <ele>651.4</ele>
        <time>2023-09-03T08:14:55Z</time>
      </trkpt>
      <trkpt lat="48.10422" lon="6.68352">
        <ele>651.6</ele>
        <time>2023-09-03T08:14:56Z</time>
      </trkpt>
      <trkpt lat="48.10423" lon="6.6835">
        <ele>651.8</ele>
        <time>2023-09-03T08:14:57Z</time>
      </trkpt>
      <trkpt lat="48.10424" lon="6.68348">
        <ele>652.2</ele>
        <time>2023-09-03T08:14:58Z</time>
      </trkpt>
      <trkpt lat="48.10425" lon="6.68346">
        <ele>652.2</ele>
        <time>2023-09-03T08:14:59Z</time>
      </trkpt>
      <trkpt lat="48.10426" lon="6.68345">
        <ele>652.6</ele>
        <time>2023-09-03T08:15:00Z</time>
      </trkpt>
      <trkpt lat="48.10427" lon="6.68344">
        <ele>652.6</ele>
        <time>2023-09-03T08:15:01Z</time>
      </trkpt>
      <trkpt lat="48.10428" lon="6.68342">
        <ele>652.8</ele>
        <time>2023-09-03T08:15:02Z</time>
      </trkpt>
      <trkpt lat="48.10429" lon="6.6834">
        <ele>653</ele>
        <time>2023-09-03T08:15:03Z</time>
      </trkpt>
      <trkpt lat="48.10431" lon="6.68338">
        <ele>653</ele>
        <time>2023-09-03T08:15:04Z</time>
      </trkpt>
      <trkpt lat="48.10433" lon="6.68335">
        <ele>653</ele>
        <time>2023-09-03T08:15:05Z</time>
      </trkpt>
      <trkpt lat="48.10435" lon="6.6833">
        <ele>653.2</ele>
        <time>2023-09-03T08:15:06Z</time>
      </trkpt>
      <trkpt lat="48.10437" lon="6.68326">
        <ele>653.2</ele>
        <time>2023-09-03T08:15:07Z</time>
      </trkpt>
      <trkpt lat="48.1044" lon="6.68322">
        <ele>653.2</ele>
        <time>2023-09-03T08:15:08Z</time>
      </trkpt>
      <trkpt lat="48.10443" lon="6.68318">
        <ele>653.2</ele>
        <time>2023-09-03T08:15:09Z</time>
      </trkpt>
      <trkpt lat="48.10445" lon="6.68313">
        <ele>653.2</ele>
        <time>2023-09-03T08:15:10Z</time>
      </trkpt>
      <trkpt lat="48.10447" lon="6.68309">
        <ele>653.2</ele>
        <time>2023-09-03T08:15:11Z</time>
      </trkpt>
      <trkpt lat="48.10449" lon="6.68305">
        <ele>653.2</ele>
        <time>2023-09-03T08:15:12Z</time>
      </trkpt>
      <trkpt lat="48.10451" lon="6.68301">
        <ele>653.2</ele>
        <time>2023-09-03T08:15:13Z</time>
      </trkpt>
      <trkpt lat="48.10453" lon="6.68297">
        <ele>653</ele>
        <time>2023-09-03T08:15:14Z</time>
      </trkpt>
      <trkpt lat="48.10456" lon="6.68294">
        <ele>653.4</ele>
        <time>2023-09-03T08:15:15Z</time>
      </trkpt>
      <trkpt lat="48.10458" lon="6.68292">
        <ele>653.4</ele>
        <time>2023-09-03T08:15:16Z</time>
      </trkpt>
      <trkpt lat="48.1046" lon="6.6829">
        <ele>653.6</ele>
        <time>2023-09-03T08:15:17Z</time>
      </trkpt>
      <trkpt lat="48.10461" lon="6.68288">
        <ele>653.6</ele>
        <time>2023-09-03T08:15:18Z</time>
      </trkpt>
      <trkpt lat="48.10462" lon="6.68285">
        <ele>653.6</ele>
        <time>2023-09-03T08:15:19Z</time>
      </trkpt>
      <trkpt lat="48.10464" lon="6.68284">
        <ele>653.8</ele>
        <time>2023-09-03T08:15:20Z</time>
      </trkpt>
      <trkpt lat="48.10466" lon="6.68282">
        <ele>654</ele>
        <time>2023-09-03T08:15:21Z</time>
      </trkpt>
      <trkpt lat="48.10471" lon="6.68279">
        <ele>654.2</ele>
        <time>2023-09-03T08:15:22Z</time>
      </trkpt>
      <trkpt lat="48.10473" lon="6.68276">
        <ele>654.6</ele>
        <time>2023-09-03T08:15:23Z</time>
      </trkpt>
      <trkpt lat="48.10475" lon="6.68273">
        <ele>655</ele>
        <time>2023-09-03T08:15:24Z</time>
      </trkpt>
      <trkpt lat="48.10476" lon="6.68271">
        <ele>655.2</ele>
        <time>2023-09-03T08:15:25Z</time>
      </trkpt>
      <trkpt lat="48.10477" lon="6.68269">
        <ele>655.6</ele>
        <time>2023-09-03T08:15:26Z</time>
      </trkpt>
      <trkpt lat="48.10477" lon="6.68267">
        <ele>655.8</ele>
        <time>2023-09-03T08:15:27Z</time>
      </trkpt>
      <trkpt lat="48.10477" lon="6.68265">
        <ele>656</ele>
        <time>2023-09-03T08:15:28Z</time>
      </trkpt>
      <trkpt lat="48.10478" lon="6.68262">
        <ele>656.2</ele>
        <time>2023-09-03T08:15:29Z</time>
      </trkpt>
      <trkpt lat="48.10477" lon="6.68259">
        <ele>656.4</ele>
        <time>2023-09-03T08:15:30Z</time>
      </trkpt>
      <trkpt lat="48.10478" lon="6.68252">
        <ele>656.4</ele>
        <time>2023-09-03T08:15:31Z</time>
      </trkpt>
      <trkpt lat="48.10479" lon="6.68249">
        <ele>656.6</ele>
        <time>2023-09-03T08:15:32Z</time>
      </trkpt>
      <trkpt lat="48.10478" lon="6.68248">
        <ele>656.6</ele>
        <time>2023-09-03T08:15:33Z</time>
      </trkpt>
      <trkpt lat="48.10478" lon="6.68247">
        <ele>656.8</ele>
        <time>2023-09-03T08:15:34Z</time>
      </trkpt>
      <trkpt lat="48.10478" lon="6.68246">
        <ele>656.8</ele>
        <time>2023-09-03T08:15:35Z</time>
      </trkpt>
      <trkpt lat="48.10478" lon="6.68244">
        <ele>657</ele>
        <time>2023-09-03T08:15:36Z</time>
      </trkpt>
      <trkpt lat="48.10479" lon="6.68241">
        <ele>657.2</ele>
        <time>2023-09-03T08:15:37Z</time>
      </trkpt>
      <trkpt lat="48.1048" lon="6.68237">
        <ele>657.2</ele>
        <time>2023-09-03T08:15:38Z</time>
      </trkpt>
      <trkpt lat="48.10481" lon="6.68236">
        <ele>657.6</ele>
        <time>2023-09-03T08:15:39Z</time>
      </trkpt>
      <trkpt lat="48.10481" lon="6.68234">
        <ele>657.8</ele>
        <time>2023-09-03T08:15:40Z</time>
      </trkpt>
      <trkpt lat="48.10481" lon="6.68232">
        <ele>658.2</ele>
        <time>2023-09-03T08:15:41Z</time>
      </trkpt>
      <trkpt lat="48.10482" lon="6.68231">
        <ele>658.4</ele>
        <time>2023-09-03T08:15:42Z</time>
      </trkpt>
      <trkpt lat="48.10483" lon="6.68228">
        <ele>659</ele>
        <time>2023-09-03T08:15:43Z</time>
      </trkpt>
      <trkpt lat="48.10484" lon="6.68226">
        <ele>659.6</ele>
        <time>2023-09-03T08:15:44Z</time>
      </trkpt>
      <trkpt lat="48.10485" lon="6.68225">
        <ele>659.8</ele>
        <time>2023-09-03T08:15:45Z</time>
      </trkpt>
      <trkpt lat="48.10485" lon="6.68223">
        <ele>660.2</ele>
        <time>2023-09-03T08:15:46Z</time>
      </trkpt>
      <trkpt lat="48.10486" lon="6.68222">
        <ele>660.6</ele>
        <time>2023-09-03T08:15:47Z</time>
      </trkpt>
      <trkpt lat="48.10487" lon="6.6822">
        <ele>661</ele>
        <time>2023-09-03T08:15:48Z</time>
      </trkpt>
      <trkpt lat="48.10486" lon="6.68219">
        <ele>661.2</ele>
        <time>2023-09-03T08:15:49Z</time>
      </trkpt>
      <trkpt lat="48.10486" lon="6.68218">
        <ele>661.4</ele>
        <time>2023-09-03T08:15:50Z</time>
      </trkpt>
      <trkpt lat="48.10486" lon="6.68218">
        <ele>661.6</ele>
        <time>2023-09-03T08:15:51Z</time>
      </trkpt>
      <trkpt lat="48.10486" lon="6.68218">
        <ele>661.8</ele>
        <time>2023-09-03T08:15:52Z</time>
      </trkpt>
      <trkpt lat="48.10486" lon="6.68216">
        <ele>662</ele>
        <time>2023-09-03T08:15:53Z</time>
      </trkpt>
      <trkpt lat="48.10486" lon="6.68216">
        <ele>662.4</ele>
        <time>2023-09-03T08:15:54Z</time>
      </trkpt>
      <trkpt lat="48.10485" lon="6.68214">
        <ele>662.6</ele>
        <time>2023-09-03T08:15:55Z</time>
      </trkpt>
      <trkpt lat="48.10485" lon="6.68214">
        <ele>662.8</ele>
        <time>2023-09-03T08:15:56Z</time>
      </trkpt>
      <trkpt lat="48.10485" lon="6.68214">
        <ele>663</ele>
        <time>2023-09-03T08:15:57Z</time>
      </trkpt>
      <trkpt lat="48.10485" lon="6.68214">
        <ele>663</ele>
        <time>2023-09-03T08:15:58Z</time>
      </trkpt>
      <trkpt lat="48.10485" lon="6.68214">
        <ele>663.2</ele>
        <time>2023-09-03T08:15:59Z</time>
      </trkpt>
      <trkpt lat="48.10485" lon="6.68214">
        <ele>663.2</ele>
        <time>2023-09-03T08:16:00Z</time>
      </trkpt>
      <trkpt lat="48.10485" lon="6.68214">
        <ele>663.4</ele>
        <time>2023-09-03T08:16:01Z</time>
      </trkpt>
      <trkpt lat="48.10485" lon="6.68214">
        <ele>664.4</ele>
        <time>2023-09-03T08:23:09Z</time>
      </trkpt>
      <trkpt lat="48.10484" lon="6.68214">
        <ele>664.4</ele>
        <time>2023-09-03T08:23:10Z</time>
      </trkpt>
      <trkpt lat="48.10483" lon="6.68214">
        <ele>664.4</ele>
        <time>2023-09-03T08:23:11Z</time>
      </trkpt>
      <trkpt lat="48.10482" lon="6.68214">
        <ele>664.4</ele>
        <time>2023-09-03T08:23:12Z</time>
      </trkpt>
      <trkpt lat="48.1048" lon="6.68214">
        <ele>664.6</ele>
        <time>2023-09-03T08:23:13Z</time>
      </trkpt>
      <trkpt lat="48.10479" lon="6.68213">
        <ele>664.6</ele>
        <time>2023-09-03T08:23:14Z</time>
      </trkpt>
      <trkpt lat="48.10479" lon="6.68213">
        <ele>664.6</ele>
        <time>2023-09-03T08:23:15Z</time>
      </trkpt>
      <trkpt lat="48.10478" lon="6.68212">
        <ele>664.6</ele>
        <time>2023-09-03T08:23:16Z</time>
      </trkpt>
      <trkpt lat="48.10477" lon="6.6821">
        <ele>664.6</ele>
        <time>2023-09-03T08:23:17Z</time>
      </trkpt>
      <trkpt lat="48.10476" lon="6.6821">
        <ele>664.8</ele>
        <time>2023-09-03T08:23:18Z</time>
      </trkpt>
      <trkpt lat="48.10475" lon="6.68209">
        <ele>664.8</ele>
        <time>2023-09-03T08:23:19Z</time>
      </trkpt>
      <trkpt lat="48.10474" lon="6.68208">
        <ele>665</ele>
        <time>2023-09-03T08:23:20Z</time>
      </trkpt>
      <trkpt lat="48.10473" lon="6.68206">
        <ele>665</ele>
        <time>2023-09-03T08:23:21Z</time>
      </trkpt>
      <trkpt lat="48.10472" lon="6.68205">
        <ele>665.4</ele>
        <time>2023-09-03T08:23:22Z</time>
      </trkpt>
      <trkpt lat="48.1047" lon="6.68204">
        <ele>665.6</ele>
        <time>2023-09-03T08:23:23Z</time>
      </trkpt>
      <trkpt lat="48.10469" lon="6.68204">
        <ele>665.8</ele>
        <time>2023-09-03T08:23:24Z</time>
      </trkpt>
      <trkpt lat="48.10469" lon="6.68204">
        <ele>666</ele>
        <time>2023-09-03T08:23:25Z</time>
      </trkpt>
      <trkpt lat="48.10468" lon="6.68205">
        <ele>666</ele>
        <time>2023-09-03T08:23:26Z</time>
      </trkpt>
      <trkpt lat="48.10467" lon="6.68205">
        <ele>666.2</ele>
        <time>2023-09-03T08:23:27Z</time>
      </trkpt>
      <trkpt lat="48.10466" lon="6.68206">
        <ele>666.4</ele>
        <time>2023-09-03T08:23:28Z</time>
      </trkpt>
      <trkpt lat="48.10465" lon="6.68208">
        <ele>666.6</ele>
        <time>2023-09-03T08:23:29Z</time>
      </trkpt>
      <trkpt lat="48.10463" lon="6.68209">
        <ele>666.6</ele>
        <time>2023-09-03T08:23:30Z</time>
      </trkpt>
      <trkpt lat="48.10463" lon="6.6821">
        <ele>666.8</ele>
        <time>2023-09-03T08:23:31Z</time>
      </trkpt>
      <trkpt lat="48.10462" lon="6.68211">
        <ele>667</ele>
        <time>2023-09-03T08:23:32Z</time>
      </trkpt>
      <trkpt lat="48.10462" lon="6.68212">
        <ele>667.8</ele>
        <time>2023-09-03T08:23:34Z</time>
      </trkpt>
      <trkpt lat="48.10461" lon="6.68212">
        <ele>668.8</ele>
        <time>2023-09-03T08:23:35Z</time>
      </trkpt>
      <trkpt lat="48.10461" lon="6.68212">
        <ele>669</ele>
        <time>2023-09-03T08:23:36Z</time>
      </trkpt>
      <trkpt lat="48.1046" lon="6.68212">
        <ele>669.4</ele>
        <time>2023-09-03T08:23:37Z</time>
      </trkpt>
      <trkpt lat="48.1046" lon="6.68214">
        <ele>669.6</ele>
        <time>2023-09-03T08:23:38Z</time>
      </trkpt>
      <trkpt lat="48.10459" lon="6.68216">
        <ele>669.8</ele>
        <time>2023-09-03T08:23:39Z</time>
      </trkpt>
      <trkpt lat="48.10458" lon="6.68217">
        <ele>670</ele>
        <time>2023-09-03T08:23:40Z</time>
      </trkpt>
      <trkpt lat="48.10456" lon="6.68218">
        <ele>670</ele>
        <time>2023-09-03T08:23:41Z</time>
      </trkpt>
      <trkpt lat="48.10455" lon="6.68219">
        <ele>670.2</ele>
        <time>2023-09-03T08:23:42Z</time>
      </trkpt>
      <trkpt lat="48.10453" lon="6.6822">
        <ele>670.6</ele>
        <time>2023-09-03T08:23:46Z</time>
      </trkpt>
      <trkpt lat="48.10453" lon="6.6822">
        <ele>670.6</ele>
        <time>2023-09-03T08:23:47Z</time>
      </trkpt>
      <trkpt lat="48.10451" lon="6.68221">
        <ele>670.8</ele>
        <time>2023-09-03T08:23:48Z</time>
      </trkpt>
      <trkpt lat="48.1045" lon="6.68222">
        <ele>670.8</ele>
        <time>2023-09-03T08:23:49Z</time>
      </trkpt>
      <trkpt lat="48.10449" lon="6.68222">
        <ele>670.8</ele>
        <time>2023-09-03T08:23:50Z</time>
      </trkpt>
      <trkpt lat="48.10447" lon="6.68221">
        <ele>670.8</ele>
        <time>2023-09-03T08:23:51Z</time>
      </trkpt>
      <trkpt lat="48.10446" lon="6.68222">
        <ele>671</ele>
        <time>2023-09-03T08:23:52Z</time>
      </trkpt>
      <trkpt lat="48.10445" lon="6.68222">
        <ele>671</ele>
        <time>2023-09-03T08:23:53Z</time>
      </trkpt>
      <trkpt lat="48.10444" lon="6.68222">
        <ele>671</ele>
        <time>2023-09-03T08:23:54Z</time>
      </trkpt>
      <trkpt lat="48.10442" lon="6.68222">
        <ele>671</ele>
        <time>2023-09-03T08:23:55Z</time>
      </trkpt>
      <trkpt lat="48.10439" lon="6.68223">
        <ele>671.2</ele>
        <time>2023-09-03T08:23:56Z</time>
      </trkpt>
      <trkpt lat="48.10437" lon="6.68224">
        <ele>671.2</ele>
        <time>2023-09-03T08:23:57Z</time>
      </trkpt>
      <trkpt lat="48.10436" lon="6.68225">
        <ele>671.4</ele>
        <time>2023-09-03T08:23:58Z</time>
      </trkpt>
      <trkpt lat="48.10434" lon="6.68226">
        <ele>671.6</ele>
        <time>2023-09-03T08:23:59Z</time>
      </trkpt>
      <trkpt lat="48.10434" lon="6.68226">
        <ele>671.6</ele>
        <time>2023-09-03T08:24:00Z</time>
      </trkpt>
      <trkpt lat="48.10432" lon="6.68226">
        <ele>672</ele>
        <time>2023-09-03T08:24:01Z</time>
      </trkpt>
      <trkpt lat="48.10429" lon="6.68227">
        <ele>672.4</ele>
        <time>2023-09-03T08:24:02Z</time>
      </trkpt>
      <trkpt lat="48.10428" lon="6.68227">
        <ele>672.4</ele>
        <time>2023-09-03T08:24:03Z</time>
      </trkpt>
      <trkpt lat="48.10426" lon="6.68228">
        <ele>672.8</ele>
        <time>2023-09-03T08:24:04Z</time>
      </trkpt>
      <trkpt lat="48.10423" lon="6.68228">
        <ele>672.8</ele>
        <time>2023-09-03T08:24:05Z</time>
      </trkpt>
      <trkpt lat="48.1042" lon="6.6823">
        <ele>673</ele>
        <time>2023-09-03T08:24:06Z</time>
      </trkpt>
      <trkpt lat="48.10419" lon="6.6823">
        <ele>673.2</ele>
        <time>2023-09-03T08:24:07Z</time>
      </trkpt>
      <trkpt lat="48.10416" lon="6.68231">
        <ele>673.4</ele>
        <time>2023-09-03T08:24:08Z</time>
      </trkpt>
      <trkpt lat="48.10414" lon="6.68233">
        <ele>673.6</ele>
        <time>2023-09-03T08:24:09Z</time>
      </trkpt>
      <trkpt lat="48.10412" lon="6.68234">
        <ele>673.6</ele>
        <time>2023-09-03T08:24:10Z</time>
      </trkpt>
      <trkpt lat="48.10411" lon="6.68234">
        <ele>673.8</ele>
        <time>2023-09-03T08:24:11Z</time>
      </trkpt>
      <trkpt lat="48.1041" lon="6.68235">
        <ele>673.8</ele>
        <time>2023-09-03T08:24:12Z</time>
      </trkpt>
      <trkpt lat="48.10409" lon="6.68236">
        <ele>673.8</ele>
        <time>2023-09-03T08:24:13Z</time>
      </trkpt>
      <trkpt lat="48.10407" lon="6.68236">
        <ele>673.6</ele>
        <time>2023-09-03T08:24:14Z</time>
      </trkpt>
      <trkpt lat="48.10406" lon="6.68234">
        <ele>674</ele>
        <time>2023-09-03T08:24:15Z</time>
      </trkpt>
      <trkpt lat="48.10404" lon="6.68233">
        <ele>674</ele>
        <time>2023-09-03T08:24:16Z</time>
      </trkpt>
      <trkpt lat="48.10403" lon="6.68231">
        <ele>674</ele>
        <time>2023-09-03T08:24:17Z</time>
      </trkpt>
      <trkpt lat="48.10402" lon="6.6823">
        <ele>674</ele>
        <time>2023-09-03T08:24:18Z</time>
      </trkpt>
      <trkpt lat="48.10401" lon="6.68229">
        <ele>674.2</ele>
        <time>2023-09-03T08:24:19Z</time>
      </trkpt>
      <trkpt lat="48.10399" lon="6.68226">
        <ele>674.2</ele>
        <time>2023-09-03T08:24:20Z</time>
      </trkpt>
      <trkpt lat="48.10397" lon="6.68224">
        <ele>674.2</ele>
        <time>2023-09-03T08:24:21Z</time>
      </trkpt>
      <trkpt lat="48.10394" lon="6.68221">
        <ele>674</ele>
        <time>2023-09-03T08:24:22Z</time>
      </trkpt>
      <trkpt lat="48.10391" lon="6.68219">
        <ele>674</ele>
        <time>2023-09-03T08:24:23Z</time>
      </trkpt>
      <trkpt lat="48.10388" lon="6.68216">
        <ele>673.8</ele>
        <time>2023-09-03T08:24:24Z</time>
      </trkpt>
      <trkpt lat="48.10385" lon="6.68216">
        <ele>673.8</ele>
        <time>2023-09-03T08:24:25Z</time>
      </trkpt>
      <trkpt lat="48.10382" lon="6.68213">
        <ele>673.8</ele>
        <time>2023-09-03T08:24:26Z</time>
      </trkpt>
      <trkpt lat="48.10377" lon="6.6821">
        <ele>673.8</ele>
        <time>2023-09-03T08:24:27Z</time>
      </trkpt>
      <trkpt lat="48.10374" lon="6.68207">
        <ele>673.6</ele>
        <time>2023-09-03T08:24:28Z</time>
      </trkpt>
      <trkpt lat="48.10373" lon="6.68207">
        <ele>673.6</ele>
        <time>2023-09-03T08:24:29Z</time>
      </trkpt>
      <trkpt lat="48.10371" lon="6.68204">
        <ele>673.6</ele>
        <time>2023-09-03T08:24:30Z</time>
      </trkpt>
      <trkpt lat="48.10367" lon="6.68197">
        <ele>673.6</ele>
        <time>2023-09-03T08:24:31Z</time>
      </trkpt>
      <trkpt lat="48.10363" lon="6.68193">
        <ele>673.4</ele>
        <time>2023-09-03T08:24:32Z</time>
      </trkpt>
      <trkpt lat="48.10358" lon="6.68188">
        <ele>673.4</ele>
        <time>2023-09-03T08:24:33Z</time>
      </trkpt>
      <trkpt lat="48.10352" lon="6.68182">
        <ele>673.4</ele>
        <time>2023-09-03T08:24:34Z</time>
      </trkpt>
      <trkpt lat="48.10346" lon="6.68177">
        <ele>673.4</ele>
        <time>2023-09-03T08:24:35Z</time>
      </trkpt>
      <trkpt lat="48.1034" lon="6.68173">
        <ele>673.4</ele>
        <time>2023-09-03T08:24:36Z</time>
      </trkpt>
      <trkpt lat="48.10336" lon="6.68172">
        <ele>673.4</ele>
        <time>2023-09-03T08:24:37Z</time>
      </trkpt>
      <trkpt lat="48.10332" lon="6.68171">
        <ele>673.4</ele>
        <time>2023-09-03T08:24:38Z</time>
      </trkpt>
      <trkpt lat="48.10329" lon="6.68171">
        <ele>673.6</ele>
        <time>2023-09-03T08:24:39Z</time>
      </trkpt>
      <trkpt lat="48.10327" lon="6.68172">
        <ele>673.8</ele>
        <time>2023-09-03T08:24:40Z</time>
      </trkpt>
      <trkpt lat="48.10325" lon="6.68173">
        <ele>673.8</ele>
        <time>2023-09-03T08:24:41Z</time>
      </trkpt>
      <trkpt lat="48.10322" lon="6.68174">
        <ele>674</ele>
        <time>2023-09-03T08:24:42Z</time>
      </trkpt>
      <trkpt lat="48.10318" lon="6.68174">
        <ele>674</ele>
        <time>2023-09-03T08:24:43Z</time>
      </trkpt>
      <trkpt lat="48.10316" lon="6.68175">
        <ele>674.2</ele>
        <time>2023-09-03T08:24:44Z</time>
      </trkpt>
      <trkpt lat="48.10312" lon="6.68176">
        <ele>674.4</ele>
        <time>2023-09-03T08:24:45Z</time>
      </trkpt>
      <trkpt lat="48.10309" lon="6.68176">
        <ele>674.8</ele>
        <time>2023-09-03T08:24:46Z</time>
      </trkpt>
      <trkpt lat="48.10305" lon="6.68176">
        <ele>674.8</ele>
        <time>2023-09-03T08:24:47Z</time>
      </trkpt>
      <trkpt lat="48.10301" lon="6.68175">
        <ele>675.4</ele>
        <time>2023-09-03T08:24:48Z</time>
      </trkpt>
      <trkpt lat="48.10299" lon="6.68174">
        <ele>675.4</ele>
        <time>2023-09-03T08:24:49Z</time>
      </trkpt>
      <trkpt lat="48.10297" lon="6.68173">
        <ele>676</ele>
        <time>2023-09-03T08:24:50Z</time>
      </trkpt>
      <trkpt lat="48.10293" lon="6.68169">
        <ele>676.2</ele>
        <time>2023-09-03T08:24:51Z</time>
      </trkpt>
      <trkpt lat="48.1029" lon="6.68165">
        <ele>676.4</ele>
        <time>2023-09-03T08:24:52Z</time>
      </trkpt>
      <trkpt lat="48.10288" lon="6.68164">
        <ele>676.4</ele>
        <time>2023-09-03T08:24:53Z</time>
      </trkpt>
      <trkpt lat="48.10284" lon="6.68163">
        <ele>676.6</ele>
        <time>2023-09-03T08:24:54Z</time>
      </trkpt>
      <trkpt lat="48.10281" lon="6.68162">
        <ele>676.8</ele>
        <time>2023-09-03T08:24:55Z</time>
      </trkpt>
      <trkpt lat="48.10278" lon="6.68159">
        <ele>677</ele>
        <time>2023-09-03T08:24:56Z</time>
      </trkpt>
      <trkpt lat="48.10275" lon="6.68158">
        <ele>677.2</ele>
        <time>2023-09-03T08:24:57Z</time>
      </trkpt>
      <trkpt lat="48.10273" lon="6.68158">
        <ele>677.4</ele>
        <time>2023-09-03T08:24:58Z</time>
      </trkpt>
      <trkpt lat="48.1027" lon="6.68158">
        <ele>677.4</ele>
        <time>2023-09-03T08:24:59Z</time>
      </trkpt>
      <trkpt lat="48.10266" lon="6.68156">
        <ele>677.4</ele>
        <time>2023-09-03T08:25:00Z</time>
      </trkpt>
      <trkpt lat="48.10262" lon="6.68156">
        <ele>677.6</ele>
        <time>2023-09-03T08:25:01Z</time>
      </trkpt>
      <trkpt lat="48.10259" lon="6.68158">
        <ele>677.6</ele>
        <time>2023-09-03T08:25:02Z</time>
      </trkpt>
      <trkpt lat="48.10256" lon="6.68159">
        <ele>678</ele>
        <time>2023-09-03T08:25:03Z</time>
      </trkpt>
      <trkpt lat="48.10254" lon="6.68159">
        <ele>678</ele>
        <time>2023-09-03T08:25:04Z</time>
      </trkpt>
      <trkpt lat="48.10252" lon="6.68161">
        <ele>678.2</ele>
        <time>2023-09-03T08:25:05Z</time>
      </trkpt>
      <trkpt lat="48.10251" lon="6.68163">
        <ele>678.2</ele>
        <time>2023-09-03T08:25:06Z</time>
      </trkpt>
      <trkpt lat="48.10249" lon="6.68165">
        <ele>678.4</ele>
        <time>2023-09-03T08:25:07Z</time>
      </trkpt>
      <trkpt lat="48.10247" lon="6.68166">
        <ele>678.6</ele>
        <time>2023-09-03T08:25:08Z</time>
      </trkpt>
      <trkpt lat="48.10244" lon="6.68168">
        <ele>678.6</ele>
        <time>2023-09-03T08:25:09Z</time>
      </trkpt>
      <trkpt lat="48.10241" lon="6.68169">
        <ele>678.6</ele>
        <time>2023-09-03T08:25:10Z</time>
      </trkpt>
      <trkpt lat="48.10239" lon="6.6817">
        <ele>678.8</ele>
        <time>2023-09-03T08:25:11Z</time>
      </trkpt>
      <trkpt lat="48.10237" lon="6.68172">
        <ele>678.8</ele>
        <time>2023-09-03T08:25:12Z</time>
      </trkpt>
      <trkpt lat="48.10234" lon="6.68174">
        <ele>679</ele>
        <time>2023-09-03T08:25:13Z</time>
      </trkpt>
      <trkpt lat="48.10231" lon="6.68175">
        <ele>679.2</ele>
        <time>2023-09-03T08:25:14Z</time>
      </trkpt>
      <trkpt lat="48.10227" lon="6.68175">
        <ele>679.2</ele>
        <time>2023-09-03T08:25:15Z</time>
      </trkpt>
      <trkpt lat="48.10224" lon="6.68174">
        <ele>679.6</ele>
        <time>2023-09-03T08:25:16Z</time>
      </trkpt>
      <trkpt lat="48.10221" lon="6.68172">
        <ele>679.8</ele>
        <time>2023-09-03T08:25:17Z</time>
      </trkpt>
      <trkpt lat="48.10218" lon="6.6817">
        <ele>680.2</ele>
        <time>2023-09-03T08:25:18Z</time>
      </trkpt>
      <trkpt lat="48.10214" lon="6.68167">
        <ele>680.4</ele>
        <time>2023-09-03T08:25:19Z</time>
      </trkpt>
      <trkpt lat="48.10211" lon="6.68165">
        <ele>680.4</ele>
        <time>2023-09-03T08:25:20Z</time>
      </trkpt>
      <trkpt lat="48.10208" lon="6.68164">
        <ele>680.4</ele>
        <time>2023-09-03T08:25:21Z</time>
      </trkpt>
      <trkpt lat="48.10205" lon="6.68163">
        <ele>680.4</ele>
        <time>2023-09-03T08:25:22Z</time>
      </trkpt>
      <trkpt lat="48.10202" lon="6.68162">
        <ele>680.4</ele>
        <time>2023-09-03T08:25:23Z</time>
      </trkpt>
      <trkpt lat="48.10199" lon="6.6816">
        <ele>680.4</ele>
        <time>2023-09-03T08:25:24Z</time>
      </trkpt>
      <trkpt lat="48.10196" lon="6.68159">
        <ele>680.6</ele>
        <time>2023-09-03T08:25:25Z</time>
      </trkpt>
      <trkpt lat="48.10193" lon="6.68157">
        <ele>680.6</ele>
        <time>2023-09-03T08:25:26Z</time>
      </trkpt>
      <trkpt lat="48.1019" lon="6.68155">
        <ele>680.6</ele>
        <time>2023-09-03T08:25:27Z</time>
      </trkpt>
      <trkpt lat="48.10187" lon="6.68154">
        <ele>680.6</ele>
        <time>2023-09-03T08:25:28Z</time>
      </trkpt>
      <trkpt lat="48.10184" lon="6.68153">
        <ele>680.4</ele>
        <time>2023-09-03T08:25:29Z</time>
      </trkpt>
      <trkpt lat="48.10181" lon="6.68152">
        <ele>680.6</ele>
        <time>2023-09-03T08:25:30Z</time>
      </trkpt>
      <trkpt lat="48.10178" lon="6.68151">
        <ele>680.6</ele>
        <time>2023-09-03T08:25:31Z</time>
      </trkpt>
      <trkpt lat="48.10174" lon="6.6815">
        <ele>680.8</ele>
        <time>2023-09-03T08:25:32Z</time>
      </trkpt>
      <trkpt lat="48.10171" lon="6.68149">
        <ele>680.8</ele>
        <time>2023-09-03T08:25:33Z</time>
      </trkpt>
      <trkpt lat="48.10168" lon="6.68147">
        <ele>681</ele>
        <time>2023-09-03T08:25:34Z</time>
      </trkpt>
      <trkpt lat="48.10165" lon="6.68146">
        <ele>681</ele>
        <time>2023-09-03T08:25:35Z</time>
      </trkpt>
      <trkpt lat="48.10162" lon="6.68145">
        <ele>681.2</ele>
        <time>2023-09-03T08:25:36Z</time>
      </trkpt>
      <trkpt lat="48.10158" lon="6.68146">
        <ele>681.2</ele>
        <time>2023-09-03T08:25:37Z</time>
      </trkpt>
      <trkpt lat="48.10155" lon="6.68147">
        <ele>681.4</ele>
        <time>2023-09-03T08:25:38Z</time>
      </trkpt>
      <trkpt lat="48.10151" lon="6.68149">
        <ele>681.4</ele>
        <time>2023-09-03T08:25:39Z</time>
      </trkpt>
      <trkpt lat="48.10148" lon="6.68151">
        <ele>681.4</ele>
        <time>2023-09-03T08:25:40Z</time>
      </trkpt>
      <trkpt lat="48.10144" lon="6.68153">
        <ele>681.4</ele>
        <time>2023-09-03T08:25:41Z</time>
      </trkpt>
      <trkpt lat="48.10141" lon="6.68154">
        <ele>681.4</ele>
        <time>2023-09-03T08:25:42Z</time>
      </trkpt>
      <trkpt lat="48.10137" lon="6.68156">
        <ele>681.4</ele>
        <time>2023-09-03T08:25:43Z</time>
      </trkpt>
      <trkpt lat="48.10134" lon="6.68158">
        <ele>681.6</ele>
        <time>2023-09-03T08:25:44Z</time>
      </trkpt>
      <trkpt lat="48.1013" lon="6.68161">
        <ele>681.6</ele>
        <time>2023-09-03T08:25:45Z</time>
      </trkpt>
      <trkpt lat="48.10126" lon="6.68164">
        <ele>681.8</ele>
        <time>2023-09-03T08:25:46Z</time>
      </trkpt>
      <trkpt lat="48.10121" lon="6.68168">
        <ele>681.8</ele>
        <time>2023-09-03T08:25:47Z</time>
      </trkpt>
      <trkpt lat="48.10117" lon="6.6817">
        <ele>682</ele>
        <time>2023-09-03T08:25:48Z</time>
      </trkpt>
      <trkpt lat="48.10113" lon="6.68172">
        <ele>682.2</ele>
        <time>2023-09-03T08:25:49Z</time>
      </trkpt>
      <trkpt lat="48.1011" lon="6.68173">
        <ele>682.2</ele>
        <time>2023-09-03T08:25:50Z</time>
      </trkpt>
      <trkpt lat="48.10106" lon="6.68174">
        <ele>682.2</ele>
        <time>2023-09-03T08:25:51Z</time>
      </trkpt>
      <trkpt lat="48.10103" lon="6.68175">
        <ele>682.4</ele>
        <time>2023-09-03T08:25:52Z</time>
      </trkpt>
      <trkpt lat="48.101" lon="6.68177">
        <ele>682.6</ele>
        <time>2023-09-03T08:25:53Z</time>
      </trkpt>
      <trkpt lat="48.10096" lon="6.68178">
        <ele>682.8</ele>
        <time>2023-09-03T08:25:54Z</time>
      </trkpt>
      <trkpt lat="48.10093" lon="6.6818">
        <ele>682.8</ele>
        <time>2023-09-03T08:25:55Z</time>
      </trkpt>
      <trkpt lat="48.10088" lon="6.68182">
        <ele>683.2</ele>
        <time>2023-09-03T08:25:56Z</time>
      </trkpt>
      <trkpt lat="48.10083" lon="6.68183">
        <ele>683.2</ele>
        <time>2023-09-03T08:25:57Z</time>
      </trkpt>
      <trkpt lat="48.10079" lon="6.68185">
        <ele>683.6</ele>
        <time>2023-09-03T08:25:58Z</time>
      </trkpt>
      <trkpt lat="48.10077" lon="6.68186">
        <ele>683.6</ele>
        <time>2023-09-03T08:25:59Z</time>
      </trkpt>
      <trkpt lat="48.10074" lon="6.68187">
        <ele>684</ele>
        <time>2023-09-03T08:26:00Z</time>
      </trkpt>
      <trkpt lat="48.10069" lon="6.6819">
        <ele>684</ele>
        <time>2023-09-03T08:26:01Z</time>
      </trkpt>
      <trkpt lat="48.10065" lon="6.68192">
        <ele>684</ele>
        <time>2023-09-03T08:26:02Z</time>
      </trkpt>
      <trkpt lat="48.1006" lon="6.68193">
        <ele>684.2</ele>
        <time>2023-09-03T08:26:03Z</time>
      </trkpt>
      <trkpt lat="48.10055" lon="6.68196">
        <ele>684.2</ele>
        <time>2023-09-03T08:26:04Z</time>
      </trkpt>
      <trkpt lat="48.1005" lon="6.68197">
        <ele>684.2</ele>
        <time>2023-09-03T08:26:05Z</time>
      </trkpt>
      <trkpt lat="48.10045" lon="6.68195">
        <ele>684.4</ele>
        <time>2023-09-03T08:26:06Z</time>
      </trkpt>
      <trkpt lat="48.10041" lon="6.68197">
        <ele>684.4</ele>
        <time>2023-09-03T08:26:07Z</time>
      </trkpt>
      <trkpt lat="48.10035" lon="6.682">
        <ele>684.4</ele>
        <time>2023-09-03T08:26:08Z</time>
      </trkpt>
      <trkpt lat="48.10028" lon="6.68203">
        <ele>684.6</ele>
        <time>2023-09-03T08:26:09Z</time>
      </trkpt>
      <trkpt lat="48.10022" lon="6.68205">
        <ele>684.6</ele>
        <time>2023-09-03T08:26:10Z</time>
      </trkpt>
      <trkpt lat="48.10014" lon="6.68205">
        <ele>684.6</ele>
        <time>2023-09-03T08:26:11Z</time>
      </trkpt>
      <trkpt lat="48.10008" lon="6.68206">
        <ele>684.4</ele>
        <time>2023-09-03T08:26:12Z</time>
      </trkpt>
      <trkpt lat="48.10002" lon="6.68206">
        <ele>684.4</ele>
        <time>2023-09-03T08:26:13Z</time>
      </trkpt>
      <trkpt lat="48.09995" lon="6.68208">
        <ele>684.2</ele>
        <time>2023-09-03T08:26:14Z</time>
      </trkpt>
      <trkpt lat="48.09989" lon="6.68213">
        <ele>684</ele>
        <time>2023-09-03T08:26:15Z</time>
      </trkpt>
      <trkpt lat="48.09983" lon="6.68219">
        <ele>683.2</ele>
        <time>2023-09-03T08:26:16Z</time>
      </trkpt>
      <trkpt lat="48.09978" lon="6.68221">
        <ele>681.6</ele>
        <time>2023-09-03T08:26:17Z</time>
      </trkpt>
      <trkpt lat="48.09973" lon="6.68221">
        <ele>680.6</ele>
        <time>2023-09-03T08:26:18Z</time>
      </trkpt>
      <trkpt lat="48.09969" lon="6.68216">
        <ele>680.4</ele>
        <time>2023-09-03T08:26:19Z</time>
      </trkpt>
      <trkpt lat="48.09963" lon="6.6821">
        <ele>679</ele>
        <time>2023-09-03T08:26:20Z</time>
      </trkpt>
      <trkpt lat="48.09957" lon="6.68207">
        <ele>678.8</ele>
        <time>2023-09-03T08:26:21Z</time>
      </trkpt>
      <trkpt lat="48.09949" lon="6.68203">
        <ele>678.4</ele>
        <time>2023-09-03T08:26:22Z</time>
      </trkpt>
      <trkpt lat="48.09941" lon="6.682">
        <ele>678</ele>
        <time>2023-09-03T08:26:23Z</time>
      </trkpt>
      <trkpt lat="48.09932" lon="6.68198">
        <ele>677.8</ele>
        <time>2023-09-03T08:26:24Z</time>
      </trkpt>
      <trkpt lat="48.09923" lon="6.68197">
        <ele>677.4</ele>
        <time>2023-09-03T08:26:25Z</time>
      </trkpt>
      <trkpt lat="48.09915" lon="6.68198">
        <ele>675.8</ele>
        <time>2023-09-03T08:26:26Z</time>
      </trkpt>
      <trkpt lat="48.09907" lon="6.68197">
        <ele>675.4</ele>
        <time>2023-09-03T08:26:27Z</time>
      </trkpt>
      <trkpt lat="48.09901" lon="6.68195">
        <ele>674</ele>
        <time>2023-09-03T08:26:28Z</time>
      </trkpt>
      <trkpt lat="48.09894" lon="6.68191">
        <ele>672.8</ele>
        <time>2023-09-03T08:26:29Z</time>
      </trkpt>
      <trkpt lat="48.09888" lon="6.68188">
        <ele>671.8</ele>
        <time>2023-09-03T08:26:30Z</time>
      </trkpt>
      <trkpt lat="48.09882" lon="6.68183">
        <ele>670.2</ele>
        <time>2023-09-03T08:26:31Z</time>
      </trkpt>
      <trkpt lat="48.09876" lon="6.68182">
        <ele>668.8</ele>
        <time>2023-09-03T08:26:32Z</time>
      </trkpt>
      <trkpt lat="48.0987" lon="6.6818">
        <ele>666.8</ele>
        <time>2023-09-03T08:26:33Z</time>
      </trkpt>
      <trkpt lat="48.09863" lon="6.6818">
        <ele>666</ele>
        <time>2023-09-03T08:26:34Z</time>
      </trkpt>
      <trkpt lat="48.09857" lon="6.68182">
        <ele>664.8</ele>
        <time>2023-09-03T08:26:35Z</time>
      </trkpt>
      <trkpt lat="48.09849" lon="6.68183">
        <ele>664.2</ele>
        <time>2023-09-03T08:26:36Z</time>
      </trkpt>
      <trkpt lat="48.09842" lon="6.68179">
        <ele>663.2</ele>
        <time>2023-09-03T08:26:37Z</time>
      </trkpt>
      <trkpt lat="48.09834" lon="6.68175">
        <ele>662.4</ele>
        <time>2023-09-03T08:26:38Z</time>
      </trkpt>
      <trkpt lat="48.09827" lon="6.68171">
        <ele>660.8</ele>
        <time>2023-09-03T08:26:39Z</time>
      </trkpt>
      <trkpt lat="48.09822" lon="6.6817">
        <ele>659.6</ele>
        <time>2023-09-03T08:26:40Z</time>
      </trkpt>
      <trkpt lat="48.09818" lon="6.68167">
        <ele>658.8</ele>
        <time>2023-09-03T08:26:41Z</time>
      </trkpt>
      <trkpt lat="48.09813" lon="6.68165">
        <ele>657</ele>
        <time>2023-09-03T08:26:42Z</time>
      </trkpt>
      <trkpt lat="48.09808" lon="6.68159">
        <ele>656.2</ele>
        <time>2023-09-03T08:26:43Z</time>
      </trkpt>
      <trkpt lat="48.09804" lon="6.68154">
        <ele>654.8</ele>
        <time>2023-09-03T08:26:44Z</time>
      </trkpt>
      <trkpt lat="48.098" lon="6.6815">
        <ele>654</ele>
        <time>2023-09-03T08:26:45Z</time>
      </trkpt>
      <trkpt lat="48.09797" lon="6.68145">
        <ele>652.4</ele>
        <time>2023-09-03T08:26:46Z</time>
      </trkpt>
      <trkpt lat="48.09794" lon="6.68139">
        <ele>651.8</ele>
        <time>2023-09-03T08:26:47Z</time>
      </trkpt>
      <trkpt lat="48.0979" lon="6.68135">
        <ele>650.8</ele>
        <time>2023-09-03T08:26:48Z</time>
      </trkpt>
      <trkpt lat="48.09786" lon="6.6813">
        <ele>650.4</ele>
        <time>2023-09-03T08:26:49Z</time>
      </trkpt>
      <trkpt lat="48.0978" lon="6.68123">
        <ele>649.4</ele>
        <time>2023-09-03T08:26:50Z</time>
      </trkpt>
      <trkpt lat="48.09774" lon="6.68117">
        <ele>649</ele>
        <time>2023-09-03T08:26:51Z</time>
      </trkpt>
      <trkpt lat="48.09768" lon="6.68112">
        <ele>647.8</ele>
        <time>2023-09-03T08:26:52Z</time>
      </trkpt>
      <trkpt lat="48.09764" lon="6.68108">
        <ele>647.2</ele>
        <time>2023-09-03T08:26:53Z</time>
      </trkpt>
      <trkpt lat="48.09759" lon="6.68102">
        <ele>647</ele>
        <time>2023-09-03T08:26:54Z</time>
      </trkpt>
      <trkpt lat="48.09754" lon="6.68097">
        <ele>646</ele>
        <time>2023-09-03T08:26:55Z</time>
      </trkpt>
      <trkpt lat="48.09749" lon="6.68091">
        <ele>645.4</ele>
        <time>2023-09-03T08:26:56Z</time>
      </trkpt>
      <trkpt lat="48.09744" lon="6.68085">
        <ele>643.8</ele>
        <time>2023-09-03T08:26:57Z</time>
      </trkpt>
      <trkpt lat="48.09741" lon="6.6808">
        <ele>643.2</ele>
        <time>2023-09-03T08:26:58Z</time>
      </trkpt>
      <trkpt lat="48.09738" lon="6.68074">
        <ele>642.6</ele>
        <time>2023-09-03T08:26:59Z</time>
      </trkpt>
      <trkpt lat="48.09737" lon="6.68068">
        <ele>642.2</ele>
        <time>2023-09-03T08:27:00Z</time>
      </trkpt>
      <trkpt lat="48.09736" lon="6.68062">
        <ele>641.4</ele>
        <time>2023-09-03T08:27:01Z</time>
      </trkpt>
      <trkpt lat="48.09737" lon="6.68057">
        <ele>640.6</ele>
        <time>2023-09-03T08:27:02Z</time>
      </trkpt>
      <trkpt lat="48.09741" lon="6.68053">
        <ele>638.6</ele>
        <time>2023-09-03T08:27:03Z</time>
      </trkpt>
      <trkpt lat="48.09746" lon="6.6805">
        <ele>637</ele>
        <time>2023-09-03T08:27:04Z</time>
      </trkpt>
      <trkpt lat="48.09751" lon="6.68049">
        <ele>636.4</ele>
        <time>2023-09-03T08:27:05Z</time>
      </trkpt>
      <trkpt lat="48.09756" lon="6.68049">
        <ele>635</ele>
        <time>2023-09-03T08:27:06Z</time>
      </trkpt>
      <trkpt lat="48.09761" lon="6.68048">
        <ele>634.6</ele>
        <time>2023-09-03T08:27:07Z</time>
      </trkpt>
      <trkpt lat="48.09766" lon="6.68048">
        <ele>633.4</ele>
        <time>2023-09-03T08:27:08Z</time>
      </trkpt>
      <trkpt lat="48.09771" lon="6.68047">
        <ele>633</ele>
        <time>2023-09-03T08:27:09Z</time>
      </trkpt>
      <trkpt lat="48.09776" lon="6.68048">
        <ele>632.6</ele>
        <time>2023-09-03T08:27:10Z</time>
      </trkpt>
      <trkpt lat="48.09781" lon="6.6805">
        <ele>632.4</ele>
        <time>2023-09-03T08:27:11Z</time>
      </trkpt>
      <trkpt lat="48.09786" lon="6.68051">
        <ele>632.2</ele>
        <time>2023-09-03T08:27:12Z</time>
      </trkpt>
      <trkpt lat="48.09791" lon="6.68053">
        <ele>632</ele>
        <time>2023-09-03T08:27:13Z</time>
      </trkpt>
      <trkpt lat="48.09795" lon="6.68054">
        <ele>631.4</ele>
        <time>2023-09-03T08:27:14Z</time>
      </trkpt>
      <trkpt lat="48.098" lon="6.68054">
        <ele>631.2</ele>
        <time>2023-09-03T08:27:15Z</time>
      </trkpt>
      <trkpt lat="48.09804" lon="6.68053">
        <ele>631</ele>
        <time>2023-09-03T08:27:16Z</time>
      </trkpt>
      <trkpt lat="48.09809" lon="6.68052">
        <ele>630.8</ele>
        <time>2023-09-03T08:27:17Z</time>
      </trkpt>
      <trkpt lat="48.09814" lon="6.6805">
        <ele>630.8</ele>
        <time>2023-09-03T08:27:18Z</time>
      </trkpt>
      <trkpt lat="48.09818" lon="6.68046">
        <ele>630.6</ele>
        <time>2023-09-03T08:27:19Z</time>
      </trkpt>
      <trkpt lat="48.09823" lon="6.68045">
        <ele>630.4</ele>
        <time>2023-09-03T08:27:20Z</time>
      </trkpt>
      <trkpt lat="48.09828" lon="6.68044">
        <ele>629.8</ele>
        <time>2023-09-03T08:27:21Z</time>
      </trkpt>
      <trkpt lat="48.09833" lon="6.68042">
        <ele>629.6</ele>
        <time>2023-09-03T08:27:22Z</time>
      </trkpt>
      <trkpt lat="48.09839" lon="6.6804">
        <ele>629.2</ele>
        <time>2023-09-03T08:27:23Z</time>
      </trkpt>
      <trkpt lat="48.09845" lon="6.68037">
        <ele>629.2</ele>
        <time>2023-09-03T08:27:24Z</time>
      </trkpt>
      <trkpt lat="48.09851" lon="6.68035">
        <ele>629</ele>
        <time>2023-09-03T08:27:25Z</time>
      </trkpt>
      <trkpt lat="48.09858" lon="6.68033">
        <ele>628.8</ele>
        <time>2023-09-03T08:27:26Z</time>
      </trkpt>
      <trkpt lat="48.09865" lon="6.68029">
        <ele>628.6</ele>
        <time>2023-09-03T08:27:27Z</time>
      </trkpt>
      <trkpt lat="48.09871" lon="6.68024">
        <ele>628.4</ele>
        <time>2023-09-03T08:27:28Z</time>
      </trkpt>
      <trkpt lat="48.09878" lon="6.6802">
        <ele>628.2</ele>
        <time>2023-09-03T08:27:29Z</time>
      </trkpt>
      <trkpt lat="48.09884" lon="6.68016">
        <ele>627.4</ele>
        <time>2023-09-03T08:27:30Z</time>
      </trkpt>
      <trkpt lat="48.09891" lon="6.68011">
        <ele>627</ele>
        <time>2023-09-03T08:27:31Z</time>
      </trkpt>
      <trkpt lat="48.09897" lon="6.68006">
        <ele>626.6</ele>
        <time>2023-09-03T08:27:32Z</time>
      </trkpt>
      <trkpt lat="48.09903" lon="6.68001">
        <ele>626.4</ele>
        <time>2023-09-03T08:27:33Z</time>
      </trkpt>
      <trkpt lat="48.09908" lon="6.67997">
        <ele>625.4</ele>
        <time>2023-09-03T08:27:34Z</time>
      </trkpt>
      <trkpt lat="48.09912" lon="6.67993">
        <ele>625.2</ele>
        <time>2023-09-03T08:27:35Z</time>
      </trkpt>
      <trkpt lat="48.09917" lon="6.67989">
        <ele>624.2</ele>
        <time>2023-09-03T08:27:36Z</time>
      </trkpt>
      <trkpt lat="48.09922" lon="6.67984">
        <ele>624</ele>
        <time>2023-09-03T08:27:37Z</time>
      </trkpt>
      <trkpt lat="48.09926" lon="6.67979">
        <ele>623.4</ele>
        <time>2023-09-03T08:27:38Z</time>
      </trkpt>
      <trkpt lat="48.09931" lon="6.67974">
        <ele>622.6</ele>
        <time>2023-09-03T08:27:39Z</time>
      </trkpt>
      <trkpt lat="48.09935" lon="6.67969">
        <ele>621.8</ele>
        <time>2023-09-03T08:27:40Z</time>
      </trkpt>
      <trkpt lat="48.0994" lon="6.67966">
        <ele>620.4</ele>
        <time>2023-09-03T08:27:41Z</time>
      </trkpt>
      <trkpt lat="48.09945" lon="6.67963">
        <ele>619.8</ele>
        <time>2023-09-03T08:27:42Z</time>
      </trkpt>
      <trkpt lat="48.0995" lon="6.6796">
        <ele>619</ele>
        <time>2023-09-03T08:27:43Z</time>
      </trkpt>
      <trkpt lat="48.09956" lon="6.67956">
        <ele>618.6</ele>
        <time>2023-09-03T08:27:44Z</time>
      </trkpt>
      <trkpt lat="48.0996" lon="6.67953">
        <ele>618</ele>
        <time>2023-09-03T08:27:45Z</time>
      </trkpt>
      <trkpt lat="48.09965" lon="6.67949">
        <ele>617</ele>
        <time>2023-09-03T08:27:46Z</time>
      </trkpt>
      <trkpt lat="48.0997" lon="6.67944">
        <ele>615.8</ele>
        <time>2023-09-03T08:27:47Z</time>
      </trkpt>
      <trkpt lat="48.09975" lon="6.67939">
        <ele>615.4</ele>
        <time>2023-09-03T08:27:48Z</time>
      </trkpt>
      <trkpt lat="48.09979" lon="6.67934">
        <ele>614.6</ele>
        <time>2023-09-03T08:27:49Z</time>
      </trkpt>
      <trkpt lat="48.09984" lon="6.67929">
        <ele>614.4</ele>
        <time>2023-09-03T08:27:50Z</time>
      </trkpt>
      <trkpt lat="48.09989" lon="6.67925">
        <ele>614.2</ele>
        <time>2023-09-03T08:27:51Z</time>
      </trkpt>
      <trkpt lat="48.09994" lon="6.6792">
        <ele>613.6</ele>
        <time>2023-09-03T08:27:52Z</time>
      </trkpt>
      <trkpt lat="48.1" lon="6.67914">
        <ele>613</ele>
        <time>2023-09-03T08:27:53Z</time>
      </trkpt>
      <trkpt lat="48.10005" lon="6.67909">
        <ele>609.6</ele>
        <time>2023-09-03T08:27:54Z</time>
      </trkpt>
      <trkpt lat="48.1001" lon="6.67902">
        <ele>608.4</ele>
        <time>2023-09-03T08:27:55Z</time>
      </trkpt>
      <trkpt lat="48.10016" lon="6.67896">
        <ele>606.4</ele>
        <time>2023-09-03T08:27:56Z</time>
      </trkpt>
      <trkpt lat="48.10021" lon="6.67891">
        <ele>605.4</ele>
        <time>2023-09-03T08:27:57Z</time>
      </trkpt>
      <trkpt lat="48.10026" lon="6.67885">
        <ele>604.2</ele>
        <time>2023-09-03T08:27:58Z</time>
      </trkpt>
      <trkpt lat="48.10031" lon="6.67877">
        <ele>602.4</ele>
        <time>2023-09-03T08:27:59Z</time>
      </trkpt>
      <trkpt lat="48.10035" lon="6.6787">
        <ele>600.4</ele>
        <time>2023-09-03T08:28:00Z</time>
      </trkpt>
      <trkpt lat="48.1004" lon="6.67864">
        <ele>599</ele>
        <time>2023-09-03T08:28:01Z</time>
      </trkpt>
      <trkpt lat="48.10045" lon="6.67857">
        <ele>598.4</ele>
        <time>2023-09-03T08:28:02Z</time>
      </trkpt>
      <trkpt lat="48.10051" lon="6.67849">
        <ele>596.8</ele>
        <time>2023-09-03T08:28:03Z</time>
      </trkpt>
      <trkpt lat="48.10057" lon="6.67844">
        <ele>596</ele>
        <time>2023-09-03T08:28:04Z</time>
      </trkpt>
      <trkpt lat="48.10061" lon="6.67841">
        <ele>594</ele>
        <time>2023-09-03T08:28:05Z</time>
      </trkpt>
      <trkpt lat="48.10066" lon="6.67836">
        <ele>593.6</ele>
        <time>2023-09-03T08:28:06Z</time>
      </trkpt>
      <trkpt lat="48.10071" lon="6.67829">
        <ele>592.6</ele>
        <time>2023-09-03T08:28:07Z</time>
      </trkpt>
      <trkpt lat="48.10076" lon="6.67822">
        <ele>591.8</ele>
        <time>2023-09-03T08:28:08Z</time>
      </trkpt>
      <trkpt lat="48.10081" lon="6.67817">
        <ele>590.2</ele>
        <time>2023-09-03T08:28:09Z</time>
      </trkpt>
      <trkpt lat="48.10086" lon="6.67815">
        <ele>589.4</ele>
        <time>2023-09-03T08:28:10Z</time>
      </trkpt>
      <trkpt lat="48.1009" lon="6.6781">
        <ele>588.2</ele>
        <time>2023-09-03T08:28:11Z</time>
      </trkpt>
      <trkpt lat="48.10095" lon="6.67806">
        <ele>586.6</ele>
        <time>2023-09-03T08:28:12Z</time>
      </trkpt>
      <trkpt lat="48.10099" lon="6.67804">
        <ele>586</ele>
        <time>2023-09-03T08:28:13Z</time>
      </trkpt>
      <trkpt lat="48.10104" lon="6.67801">
        <ele>585</ele>
        <time>2023-09-03T08:28:14Z</time>
      </trkpt>
      <trkpt lat="48.10109" lon="6.678">
        <ele>584.2</ele>
        <time>2023-09-03T08:28:15Z</time>
      </trkpt>
      <trkpt lat="48.10115" lon="6.67799">
        <ele>584.4</ele>
        <time>2023-09-03T08:28:16Z</time>
      </trkpt>
      <trkpt lat="48.1012" lon="6.67798">
        <ele>583.8</ele>
        <time>2023-09-03T08:28:17Z</time>
      </trkpt>
      <trkpt lat="48.10124" lon="6.67799">
        <ele>583.2</ele>
        <time>2023-09-03T08:28:18Z</time>
      </trkpt>
      <trkpt lat="48.10128" lon="6.678">
        <ele>583</ele>
        <time>2023-09-03T08:28:19Z</time>
      </trkpt>
      <trkpt lat="48.10131" lon="6.67801">
        <ele>582.8</ele>
        <time>2023-09-03T08:28:20Z</time>
      </trkpt>
      <trkpt lat="48.10135" lon="6.67801">
        <ele>582.6</ele>
        <time>2023-09-03T08:28:21Z</time>
      </trkpt>
      <trkpt lat="48.10139" lon="6.678">
        <ele>582.4</ele>
        <time>2023-09-03T08:28:22Z</time>
      </trkpt>
      <trkpt lat="48.10144" lon="6.67799">
        <ele>582</ele>
        <time>2023-09-03T08:28:23Z</time>
      </trkpt>
      <trkpt lat="48.10149" lon="6.67795">
        <ele>581.6</ele>
        <time>2023-09-03T08:28:24Z</time>
      </trkpt>
      <trkpt lat="48.10154" lon="6.67792">
        <ele>581.4</ele>
        <time>2023-09-03T08:28:25Z</time>
      </trkpt>
      <trkpt lat="48.10159" lon="6.6779">
        <ele>581.2</ele>
        <time>2023-09-03T08:28:26Z</time>
      </trkpt>
      <trkpt lat="48.10164" lon="6.67788">
        <ele>581</ele>
        <time>2023-09-03T08:28:27Z</time>
      </trkpt>
      <trkpt lat="48.10169" lon="6.67788">
        <ele>581</ele>
        <time>2023-09-03T08:28:28Z</time>
      </trkpt>
      <trkpt lat="48.10173" lon="6.6779">
        <ele>580.4</ele>
        <time>2023-09-03T08:28:29Z</time>
      </trkpt>
      <trkpt lat="48.10177" lon="6.67792">
        <ele>580.2</ele>
        <time>2023-09-03T08:28:30Z</time>
      </trkpt>
      <trkpt lat="48.10179" lon="6.67795">
        <ele>579.2</ele>
        <time>2023-09-03T08:28:31Z</time>
      </trkpt>
      <trkpt lat="48.10182" lon="6.67797">
        <ele>578.8</ele>
        <time>2023-09-03T08:28:32Z</time>
      </trkpt>
      <trkpt lat="48.10186" lon="6.67799">
        <ele>578.4</ele>
        <time>2023-09-03T08:28:33Z</time>
      </trkpt>
      <trkpt lat="48.1019" lon="6.678">
        <ele>578.4</ele>
        <time>2023-09-03T08:28:34Z</time>
      </trkpt>
      <trkpt lat="48.10193" lon="6.67799">
        <ele>578.2</ele>
        <time>2023-09-03T08:28:35Z</time>
      </trkpt>
      <trkpt lat="48.10195" lon="6.67801">
        <ele>578.2</ele>
        <time>2023-09-03T08:28:36Z</time>
      </trkpt>
      <trkpt lat="48.10199" lon="6.67801">
        <ele>578</ele>
        <time>2023-09-03T08:28:37Z</time>
      </trkpt>
      <trkpt lat="48.10203" lon="6.67802">
        <ele>578</ele>
        <time>2023-09-03T08:28:38Z</time>
      </trkpt>
      <trkpt lat="48.10207" lon="6.67802">
        <ele>577.8</ele>
        <time>2023-09-03T08:28:39Z</time>
      </trkpt>
      <trkpt lat="48.1021" lon="6.67805">
        <ele>577.6</ele>
        <time>2023-09-03T08:28:40Z</time>
      </trkpt>
      <trkpt lat="48.10214" lon="6.67807">
        <ele>577.4</ele>
        <time>2023-09-03T08:28:41Z</time>
      </trkpt>
      <trkpt lat="48.10218" lon="6.67809">
        <ele>577.6</ele>
        <time>2023-09-03T08:28:42Z</time>
      </trkpt>
      <trkpt lat="48.10222" lon="6.67809">
        <ele>577.6</ele>
        <time>2023-09-03T08:28:43Z</time>
      </trkpt>
      <trkpt lat="48.10225" lon="6.6781">
        <ele>577.8</ele>
        <time>2023-09-03T08:28:44Z</time>
      </trkpt>
      <trkpt lat="48.1023" lon="6.6781">
        <ele>577.6</ele>
        <time>2023-09-03T08:28:45Z</time>
      </trkpt>
      <trkpt lat="48.10235" lon="6.67809">
        <ele>577.4</ele>
        <time>2023-09-03T08:28:46Z</time>
      </trkpt>
      <trkpt lat="48.10239" lon="6.67808">
        <ele>577.2</ele>
        <time>2023-09-03T08:28:47Z</time>
      </trkpt>
      <trkpt lat="48.10244" lon="6.67807">
        <ele>577</ele>
        <time>2023-09-03T08:28:48Z</time>
      </trkpt>
      <trkpt lat="48.10248" lon="6.67806">
        <ele>576.8</ele>
        <time>2023-09-03T08:28:49Z</time>
      </trkpt>
      <trkpt lat="48.10253" lon="6.67806">
        <ele>576.6</ele>
        <time>2023-09-03T08:28:50Z</time>
      </trkpt>
      <trkpt lat="48.10258" lon="6.67807">
        <ele>576.4</ele>
        <time>2023-09-03T08:28:51Z</time>
      </trkpt>
      <trkpt lat="48.10263" lon="6.67806">
        <ele>576.2</ele>
        <time>2023-09-03T08:28:52Z</time>
      </trkpt>
      <trkpt lat="48.10269" lon="6.67804">
        <ele>575.8</ele>
        <time>2023-09-03T08:28:53Z</time>
      </trkpt>
      <trkpt lat="48.10276" lon="6.67805">
        <ele>575.4</ele>
        <time>2023-09-03T08:28:54Z</time>
      </trkpt>
      <trkpt lat="48.10282" lon="6.67807">
        <ele>574.2</ele>
        <time>2023-09-03T08:28:55Z</time>
      </trkpt>
      <trkpt lat="48.10288" lon="6.67808">
        <ele>573.8</ele>
        <time>2023-09-03T08:28:56Z</time>
      </trkpt>
      <trkpt lat="48.10292" lon="6.67808">
        <ele>573.4</ele>
        <time>2023-09-03T08:28:57Z</time>
      </trkpt>
      <trkpt lat="48.10297" lon="6.67808">
        <ele>573.4</ele>
        <time>2023-09-03T08:28:58Z</time>
      </trkpt>
      <trkpt lat="48.10301" lon="6.67809">
        <ele>572.6</ele>
        <time>2023-09-03T08:28:59Z</time>
      </trkpt>
      <trkpt lat="48.10305" lon="6.6781">
        <ele>572</ele>
        <time>2023-09-03T08:29:00Z</time>
      </trkpt>
      <trkpt lat="48.1031" lon="6.67813">
        <ele>571.8</ele>
        <time>2023-09-03T08:29:01Z</time>
      </trkpt>
      <trkpt lat="48.10315" lon="6.67817">
        <ele>571.2</ele>
        <time>2023-09-03T08:29:02Z</time>
      </trkpt>
      <trkpt lat="48.1032" lon="6.67821">
        <ele>571</ele>
        <time>2023-09-03T08:29:03Z</time>
      </trkpt>
      <trkpt lat="48.10326" lon="6.67823">
        <ele>570.8</ele>
        <time>2023-09-03T08:29:04Z</time>
      </trkpt>
      <trkpt lat="48.10331" lon="6.67824">
        <ele>570.4</ele>
        <time>2023-09-03T08:29:05Z</time>
      </trkpt>
      <trkpt lat="48.10337" lon="6.67825">
        <ele>570</ele>
        <time>2023-09-03T08:29:06Z</time>
      </trkpt>
      <trkpt lat="48.10341" lon="6.67826">
        <ele>569.8</ele>
        <time>2023-09-03T08:29:07Z</time>
      </trkpt>
      <trkpt lat="48.10346" lon="6.67827">
        <ele>569.6</ele>
        <time>2023-09-03T08:29:08Z</time>
      </trkpt>
      <trkpt lat="48.1035" lon="6.67827">
        <ele>569.4</ele>
        <time>2023-09-03T08:29:09Z</time>
      </trkpt>
      <trkpt lat="48.10353" lon="6.67828">
        <ele>569.2</ele>
        <time>2023-09-03T08:29:10Z</time>
      </trkpt>
      <trkpt lat="48.10356" lon="6.67828">
        <ele>569</ele>
        <time>2023-09-03T08:29:11Z</time>
      </trkpt>
      <trkpt lat="48.10358" lon="6.67827">
        <ele>568.2</ele>
        <time>2023-09-03T08:29:12Z</time>
      </trkpt>
      <trkpt lat="48.10362" lon="6.67825">
        <ele>567.6</ele>
        <time>2023-09-03T08:29:13Z</time>
      </trkpt>
      <trkpt lat="48.10364" lon="6.67827">
        <ele>567.2</ele>
        <time>2023-09-03T08:29:14Z</time>
      </trkpt>
      <trkpt lat="48.10365" lon="6.67832">
        <ele>566.2</ele>
        <time>2023-09-03T08:29:15Z</time>
      </trkpt>
      <trkpt lat="48.10367" lon="6.67832">
        <ele>565.8</ele>
        <time>2023-09-03T08:29:16Z</time>
      </trkpt>
      <trkpt lat="48.10369" lon="6.67833">
        <ele>564.8</ele>
        <time>2023-09-03T08:29:17Z</time>
      </trkpt>
      <trkpt lat="48.10371" lon="6.67833">
        <ele>564.8</ele>
        <time>2023-09-03T08:29:18Z</time>
      </trkpt>
      <trkpt lat="48.10374" lon="6.67832">
        <ele>564.2</ele>
        <time>2023-09-03T08:29:19Z</time>
      </trkpt>
      <trkpt lat="48.10377" lon="6.67831">
        <ele>564.2</ele>
        <time>2023-09-03T08:29:20Z</time>
      </trkpt>
      <trkpt lat="48.1038" lon="6.67831">
        <ele>564.2</ele>
        <time>2023-09-03T08:29:21Z</time>
      </trkpt>
      <trkpt lat="48.10384" lon="6.67831">
        <ele>564</ele>
        <time>2023-09-03T08:29:22Z</time>
      </trkpt>
      <trkpt lat="48.10388" lon="6.67832">
        <ele>564</ele>
        <time>2023-09-03T08:29:23Z</time>
      </trkpt>
      <trkpt lat="48.10393" lon="6.67831">
        <ele>563.8</ele>
        <time>2023-09-03T08:29:24Z</time>
      </trkpt>
      <trkpt lat="48.10398" lon="6.6783">
        <ele>563.6</ele>
        <time>2023-09-03T08:29:25Z</time>
      </trkpt>
      <trkpt lat="48.10404" lon="6.67827">
        <ele>563.6</ele>
        <time>2023-09-03T08:29:26Z</time>
      </trkpt>
      <trkpt lat="48.1041" lon="6.67826">
        <ele>563.6</ele>
        <time>2023-09-03T08:29:27Z</time>
      </trkpt>
      <trkpt lat="48.10418" lon="6.67826">
        <ele>563.2</ele>
        <time>2023-09-03T08:29:28Z</time>
      </trkpt>
      <trkpt lat="48.10425" lon="6.67827">
        <ele>562.6</ele>
        <time>2023-09-03T08:29:29Z</time>
      </trkpt>
      <trkpt lat="48.10432" lon="6.67828">
        <ele>561.6</ele>
        <time>2023-09-03T08:29:30Z</time>
      </trkpt>
      <trkpt lat="48.10439" lon="6.6783">
        <ele>561.4</ele>
        <time>2023-09-03T08:29:31Z</time>
      </trkpt>
      <trkpt lat="48.10446" lon="6.67833">
        <ele>560.2</ele>
        <time>2023-09-03T08:29:32Z</time>
      </trkpt>
      <trkpt lat="48.10452" lon="6.67837">
        <ele>559.6</ele>
        <time>2023-09-03T08:29:33Z</time>
      </trkpt>
      <trkpt lat="48.10457" lon="6.67838">
        <ele>558.8</ele>
        <time>2023-09-03T08:29:34Z</time>
      </trkpt>
      <trkpt lat="48.10463" lon="6.67839">
        <ele>558</ele>
        <time>2023-09-03T08:29:35Z</time>
      </trkpt>
      <trkpt lat="48.1047" lon="6.6784">
        <ele>557.8</ele>
        <time>2023-09-03T08:29:36Z</time>
      </trkpt>
      <trkpt lat="48.10476" lon="6.67843">
        <ele>557.4</ele>
        <time>2023-09-03T08:29:37Z</time>
      </trkpt>
      <trkpt lat="48.10482" lon="6.67847">
        <ele>557.2</ele>
        <time>2023-09-03T08:29:38Z</time>
      </trkpt>
      <trkpt lat="48.10487" lon="6.67849">
        <ele>556.8</ele>
        <time>2023-09-03T08:29:39Z</time>
      </trkpt>
      <trkpt lat="48.10492" lon="6.67851">
        <ele>556.6</ele>
        <time>2023-09-03T08:29:40Z</time>
      </trkpt>
      <trkpt lat="48.10497" lon="6.67852">
        <ele>556.4</ele>
        <time>2023-09-03T08:29:41Z</time>
      </trkpt>
      <trkpt lat="48.10501" lon="6.67851">
        <ele>556.2</ele>
        <time>2023-09-03T08:29:42Z</time>
      </trkpt>
      <trkpt lat="48.10506" lon="6.6785">
        <ele>555.8</ele>
        <time>2023-09-03T08:29:43Z</time>
      </trkpt>
      <trkpt lat="48.10511" lon="6.67848">
        <ele>555.4</ele>
        <time>2023-09-03T08:29:44Z</time>
      </trkpt>
      <trkpt lat="48.10516" lon="6.67845">
        <ele>554.4</ele>
        <time>2023-09-03T08:29:45Z</time>
      </trkpt>
      <trkpt lat="48.10529" lon="6.67842">
        <ele>553.8</ele>
        <time>2023-09-03T08:29:46Z</time>
      </trkpt>
      <trkpt lat="48.10539" lon="6.6784">
        <ele>552.6</ele>
        <time>2023-09-03T08:29:47Z</time>
      </trkpt>
      <trkpt lat="48.10547" lon="6.67838">
        <ele>550.8</ele>
        <time>2023-09-03T08:29:48Z</time>
      </trkpt>
      <trkpt lat="48.10554" lon="6.67836">
        <ele>550.4</ele>
        <time>2023-09-03T08:29:49Z</time>
      </trkpt>
      <trkpt lat="48.10561" lon="6.67833">
        <ele>549</ele>
        <time>2023-09-03T08:29:50Z</time>
      </trkpt>
      <trkpt lat="48.10567" lon="6.6783">
        <ele>548.4</ele>
        <time>2023-09-03T08:29:51Z</time>
      </trkpt>
      <trkpt lat="48.10574" lon="6.67828">
        <ele>547</ele>
        <time>2023-09-03T08:29:52Z</time>
      </trkpt>
      <trkpt lat="48.10581" lon="6.67826">
        <ele>546.2</ele>
        <time>2023-09-03T08:29:53Z</time>
      </trkpt>
      <trkpt lat="48.10586" lon="6.67824">
        <ele>545</ele>
        <time>2023-09-03T08:29:54Z</time>
      </trkpt>
      <trkpt lat="48.10591" lon="6.67822">
        <ele>544.8</ele>
        <time>2023-09-03T08:29:55Z</time>
      </trkpt>
      <trkpt lat="48.10595" lon="6.6782">
        <ele>544</ele>
        <time>2023-09-03T08:29:56Z</time>
      </trkpt>
      <trkpt lat="48.10598" lon="6.67818">
        <ele>543.6</ele>
        <time>2023-09-03T08:29:57Z</time>
      </trkpt>
      <trkpt lat="48.10601" lon="6.67819">
        <ele>542.4</ele>
        <time>2023-09-03T08:29:58Z</time>
      </trkpt>
      <trkpt lat="48.10603" lon="6.67819">
        <ele>541.2</ele>
        <time>2023-09-03T08:29:59Z</time>
      </trkpt>
      <trkpt lat="48.10603" lon="6.67819">
        <ele>540.8</ele>
        <time>2023-09-03T08:30:00Z</time>
      </trkpt>
      <trkpt lat="48.10604" lon="6.67819">
        <ele>539.4</ele>
        <time>2023-09-03T08:30:01Z</time>
      </trkpt>
      <trkpt lat="48.10605" lon="6.67822">
        <ele>539</ele>
        <time>2023-09-03T08:30:02Z</time>
      </trkpt>
      <trkpt lat="48.10605" lon="6.67822">
        <ele>538.6</ele>
        <time>2023-09-03T08:30:03Z</time>
      </trkpt>
      <trkpt lat="48.10606" lon="6.67824">
        <ele>538.2</ele>
        <time>2023-09-03T08:30:04Z</time>
      </trkpt>
      <trkpt lat="48.10606" lon="6.67823">
        <ele>537.6</ele>
        <time>2023-09-03T08:30:05Z</time>
      </trkpt>
      <trkpt lat="48.10606" lon="6.67823">
        <ele>537.4</ele>
        <time>2023-09-03T08:30:06Z</time>
      </trkpt>
      <trkpt lat="48.10606" lon="6.67823">
        <ele>537</ele>
        <time>2023-09-03T08:30:07Z</time>
      </trkpt>
      <trkpt lat="48.10606" lon="6.67823">
        <ele>537</ele>
        <time>2023-09-03T08:30:08Z</time>
      </trkpt>
      <trkpt lat="48.10606" lon="6.67823">
        <ele>536.8</ele>
        <time>2023-09-03T08:30:09Z</time>
      </trkpt>
      <trkpt lat="48.10606" lon="6.67823">
        <ele>536.4</ele>
        <time>2023-09-03T08:30:10Z</time>
      </trkpt>
      <trkpt lat="48.10606" lon="6.67823">
        <ele>536</ele>
        <time>2023-09-03T08:30:11Z</time>
      </trkpt>
      <trkpt lat="48.10608" lon="6.67824">
        <ele>535.2</ele>
        <time>2023-09-03T08:30:12Z</time>
      </trkpt>
      <trkpt lat="48.1061" lon="6.67826">
        <ele>534.6</ele>
        <time>2023-09-03T08:30:13Z</time>
      </trkpt>
      <trkpt lat="48.10612" lon="6.67827">
        <ele>533.6</ele>
        <time>2023-09-03T08:30:14Z</time>
      </trkpt>
      <trkpt lat="48.10613" lon="6.67828">
        <ele>533.2</ele>
        <time>2023-09-03T08:30:15Z</time>
      </trkpt>
      <trkpt lat="48.10615" lon="6.67829">
        <ele>532.4</ele>
        <time>2023-09-03T08:30:16Z</time>
      </trkpt>
      <trkpt lat="48.10615" lon="6.67829">
        <ele>532.2</ele>
        <time>2023-09-03T08:30:17Z</time>
      </trkpt>
      <trkpt lat="48.10618" lon="6.67829">
        <ele>531.6</ele>
        <time>2023-09-03T08:30:18Z</time>
      </trkpt>
      <trkpt lat="48.10618" lon="6.67829">
        <ele>531.4</ele>
        <time>2023-09-03T08:30:19Z</time>
      </trkpt>
      <trkpt lat="48.10618" lon="6.67829">
        <ele>531.2</ele>
        <time>2023-09-03T08:30:20Z</time>
      </trkpt>
      <trkpt lat="48.10618" lon="6.67829">
        <ele>531</ele>
        <time>2023-09-03T08:30:21Z</time>
      </trkpt>
      <trkpt lat="48.1062" lon="6.6783">
        <ele>530.8</ele>
        <time>2023-09-03T08:30:22Z</time>
      </trkpt>
      <trkpt lat="48.1062" lon="6.67831">
        <ele>530.6</ele>
        <time>2023-09-03T08:30:23Z</time>
      </trkpt>
      <trkpt lat="48.1062" lon="6.67831">
        <ele>530.6</ele>
        <time>2023-09-03T08:30:24Z</time>
      </trkpt>
      <trkpt lat="48.1062" lon="6.67831">
        <ele>530.2</ele>
        <time>2023-09-03T08:30:25Z</time>
      </trkpt>
      <trkpt lat="48.10623" lon="6.67833">
        <ele>530.2</ele>
        <time>2023-09-03T08:30:26Z</time>
      </trkpt>
      <trkpt lat="48.10625" lon="6.67835">
        <ele>529.8</ele>
        <time>2023-09-03T08:30:27Z</time>
      </trkpt>
      <trkpt lat="48.10628" lon="6.67837">
        <ele>529.8</ele>
        <time>2023-09-03T08:30:28Z</time>
      </trkpt>
      <trkpt lat="48.10631" lon="6.6784">
        <ele>529.4</ele>
        <time>2023-09-03T08:30:29Z</time>
      </trkpt>
      <trkpt lat="48.10635" lon="6.67843">
        <ele>529.2</ele>
        <time>2023-09-03T08:30:30Z</time>
      </trkpt>
      <trkpt lat="48.10639" lon="6.67846">
        <ele>528.6</ele>
        <time>2023-09-03T08:30:31Z</time>
      </trkpt>
      <trkpt lat="48.10644" lon="6.67851">
        <ele>528.4</ele>
        <time>2023-09-03T08:30:32Z</time>
      </trkpt>
      <trkpt lat="48.10651" lon="6.67852">
        <ele>528</ele>
        <time>2023-09-03T08:30:33Z</time>
      </trkpt>
      <trkpt lat="48.10659" lon="6.67856">
        <ele>527.6</ele>
        <time>2023-09-03T08:30:34Z</time>
      </trkpt>
      <trkpt lat="48.10666" lon="6.67858">
        <ele>527.4</ele>
        <time>2023-09-03T08:30:35Z</time>
      </trkpt>
      <trkpt lat="48.10679" lon="6.67865">
        <ele>527.4</ele>
        <time>2023-09-03T08:30:36Z</time>
      </trkpt>
      <trkpt lat="48.10691" lon="6.67868">
        <ele>527.4</ele>
        <time>2023-09-03T08:30:37Z</time>
      </trkpt>
      <trkpt lat="48.10694" lon="6.67872">
        <ele>526.8</ele>
        <time>2023-09-03T08:30:38Z</time>
      </trkpt>
      <trkpt lat="48.10698" lon="6.67876">
        <ele>526.6</ele>
        <time>2023-09-03T08:30:39Z</time>
      </trkpt>
      <trkpt lat="48.10702" lon="6.6788">
        <ele>526.2</ele>
        <time>2023-09-03T08:30:40Z</time>
      </trkpt>
      <trkpt lat="48.10706" lon="6.67884">
        <ele>525.6</ele>
        <time>2023-09-03T08:30:41Z</time>
      </trkpt>
      <trkpt lat="48.10706" lon="6.67885">
        <ele>524.8</ele>
        <time>2023-09-03T08:30:42Z</time>
      </trkpt>
      <trkpt lat="48.10706" lon="6.67885">
        <ele>524</ele>
        <time>2023-09-03T08:30:43Z</time>
      </trkpt>
      <trkpt lat="48.1071" lon="6.67886">
        <ele>522.6</ele>
        <time>2023-09-03T08:30:44Z</time>
      </trkpt>
      <trkpt lat="48.10714" lon="6.67888">
        <ele>522.2</ele>
        <time>2023-09-03T08:30:45Z</time>
      </trkpt>
      <trkpt lat="48.10714" lon="6.67889">
        <ele>521.6</ele>
        <time>2023-09-03T08:30:46Z</time>
      </trkpt>
      <trkpt lat="48.10718" lon="6.67891">
        <ele>521.4</ele>
        <time>2023-09-03T08:30:47Z</time>
      </trkpt>
      <trkpt lat="48.10724" lon="6.67894">
        <ele>520.8</ele>
        <time>2023-09-03T08:30:48Z</time>
      </trkpt>
      <trkpt lat="48.1073" lon="6.67895">
        <ele>520.4</ele>
        <time>2023-09-03T08:30:49Z</time>
      </trkpt>
      <trkpt lat="48.10735" lon="6.67897">
        <ele>520.2</ele>
        <time>2023-09-03T08:30:50Z</time>
      </trkpt>
      <trkpt lat="48.10738" lon="6.67901">
        <ele>520</ele>
        <time>2023-09-03T08:30:51Z</time>
      </trkpt>
      <trkpt lat="48.10741" lon="6.67908">
        <ele>519.8</ele>
        <time>2023-09-03T08:30:52Z</time>
      </trkpt>
      <trkpt lat="48.10749" lon="6.67914">
        <ele>519.6</ele>
        <time>2023-09-03T08:30:53Z</time>
      </trkpt>
      <trkpt lat="48.10757" lon="6.67921">
        <ele>519.6</ele>
        <time>2023-09-03T08:30:54Z</time>
      </trkpt>
      <trkpt lat="48.10761" lon="6.67928">
        <ele>519.2</ele>
        <time>2023-09-03T08:30:55Z</time>
      </trkpt>
      <trkpt lat="48.10765" lon="6.67934">
        <ele>519</ele>
        <time>2023-09-03T08:30:56Z</time>
      </trkpt>
      <trkpt lat="48.10771" lon="6.6794">
        <ele>518.4</ele>
        <time>2023-09-03T08:30:57Z</time>
      </trkpt>
      <trkpt lat="48.10774" lon="6.67942">
        <ele>518.2</ele>
        <time>2023-09-03T08:30:58Z</time>
      </trkpt>
      <trkpt lat="48.10783" lon="6.67945">
        <ele>517.6</ele>
        <time>2023-09-03T08:30:59Z</time>
      </trkpt>
      <trkpt lat="48.10789" lon="6.67949">
        <ele>517</ele>
        <time>2023-09-03T08:31:00Z</time>
      </trkpt>
      <trkpt lat="48.10793" lon="6.67954">
        <ele>516.8</ele>
        <time>2023-09-03T08:31:01Z</time>
      </trkpt>
      <trkpt lat="48.10796" lon="6.67956">
        <ele>516.4</ele>
        <time>2023-09-03T08:31:02Z</time>
      </trkpt>
      <trkpt lat="48.10798" lon="6.67959">
        <ele>516</ele>
        <time>2023-09-03T08:31:03Z</time>
      </trkpt>
      <trkpt lat="48.10802" lon="6.67961">
        <ele>515</ele>
        <time>2023-09-03T08:31:04Z</time>
      </trkpt>
      <trkpt lat="48.10808" lon="6.67963">
        <ele>514.4</ele>
        <time>2023-09-03T08:31:05Z</time>
      </trkpt>
      <trkpt lat="48.10817" lon="6.67967">
        <ele>513.8</ele>
        <time>2023-09-03T08:31:06Z</time>
      </trkpt>
      <trkpt lat="48.10828" lon="6.67968">
        <ele>513.4</ele>
        <time>2023-09-03T08:31:07Z</time>
      </trkpt>
      <trkpt lat="48.10841" lon="6.67969">
        <ele>512.6</ele>
        <time>2023-09-03T08:31:08Z</time>
      </trkpt>
      <trkpt lat="48.10845" lon="6.67968">
        <ele>512.4</ele>
        <time>2023-09-03T08:31:09Z</time>
      </trkpt>
      <trkpt lat="48.10848" lon="6.67965">
        <ele>511.6</ele>
        <time>2023-09-03T08:31:10Z</time>
      </trkpt>
      <trkpt lat="48.1085" lon="6.67961">
        <ele>510.8</ele>
        <time>2023-09-03T08:31:11Z</time>
      </trkpt>
      <trkpt lat="48.10854" lon="6.67958">
        <ele>510.4</ele>
        <time>2023-09-03T08:31:12Z</time>
      </trkpt>
      <trkpt lat="48.10858" lon="6.67957">
        <ele>509.8</ele>
        <time>2023-09-03T08:31:13Z</time>
      </trkpt>
      <trkpt lat="48.10861" lon="6.67959">
        <ele>509.8</ele>
        <time>2023-09-03T08:31:14Z</time>
      </trkpt>
      <trkpt lat="48.10865" lon="6.67961">
        <ele>509.4</ele>
        <time>2023-09-03T08:31:15Z</time>
      </trkpt>
      <trkpt lat="48.10868" lon="6.67963">
        <ele>509</ele>
        <time>2023-09-03T08:31:16Z</time>
      </trkpt>
      <trkpt lat="48.10873" lon="6.67964">
        <ele>508.6</ele>
        <time>2023-09-03T08:31:17Z</time>
      </trkpt>
      <trkpt lat="48.10877" lon="6.67967">
        <ele>508.6</ele>
        <time>2023-09-03T08:31:18Z</time>
      </trkpt>
      <trkpt lat="48.10883" lon="6.67972">
        <ele>508.2</ele>
        <time>2023-09-03T08:31:19Z</time>
      </trkpt>
      <trkpt lat="48.10889" lon="6.67974">
        <ele>508</ele>
        <time>2023-09-03T08:31:20Z</time>
      </trkpt>
      <trkpt lat="48.10893" lon="6.67971">
        <ele>507.6</ele>
        <time>2023-09-03T08:31:21Z</time>
      </trkpt>
      <trkpt lat="48.10897" lon="6.67968">
        <ele>507.6</ele>
        <time>2023-09-03T08:31:22Z</time>
      </trkpt>
      <trkpt lat="48.10902" lon="6.67965">
        <ele>507.2</ele>
        <time>2023-09-03T08:31:23Z</time>
      </trkpt>
      <trkpt lat="48.10905" lon="6.67964">
        <ele>506.6</ele>
        <time>2023-09-03T08:31:24Z</time>
      </trkpt>
      <trkpt lat="48.1091" lon="6.67962">
        <ele>506.4</ele>
        <time>2023-09-03T08:31:25Z</time>
      </trkpt>
      <trkpt lat="48.10914" lon="6.6796">
        <ele>505.8</ele>
        <time>2023-09-03T08:31:26Z</time>
      </trkpt>
      <trkpt lat="48.10919" lon="6.6796">
        <ele>505.8</ele>
        <time>2023-09-03T08:31:27Z</time>
      </trkpt>
      <trkpt lat="48.10923" lon="6.67963">
        <ele>505.6</ele>
        <time>2023-09-03T08:31:28Z</time>
      </trkpt>
      <trkpt lat="48.10928" lon="6.67964">
        <ele>505.6</ele>
        <time>2023-09-03T08:31:29Z</time>
      </trkpt>
      <trkpt lat="48.10933" lon="6.67967">
        <ele>505.6</ele>
        <time>2023-09-03T08:31:30Z</time>
      </trkpt>
      <trkpt lat="48.1094" lon="6.67968">
        <ele>505.6</ele>
        <time>2023-09-03T08:31:31Z</time>
      </trkpt>
      <trkpt lat="48.10944" lon="6.6797">
        <ele>505.4</ele>
        <time>2023-09-03T08:31:32Z</time>
      </trkpt>
      <trkpt lat="48.10947" lon="6.67971">
        <ele>505.4</ele>
        <time>2023-09-03T08:31:33Z</time>
      </trkpt>
      <trkpt lat="48.10951" lon="6.6797">
        <ele>505.6</ele>
        <time>2023-09-03T08:31:34Z</time>
      </trkpt>
      <trkpt lat="48.10954" lon="6.6797">
        <ele>505.2</ele>
        <time>2023-09-03T08:31:35Z</time>
      </trkpt>
      <trkpt lat="48.10958" lon="6.67969">
        <ele>505</ele>
        <time>2023-09-03T08:31:36Z</time>
      </trkpt>
      <trkpt lat="48.10959" lon="6.67967">
        <ele>505.2</ele>
        <time>2023-09-03T08:31:37Z</time>
      </trkpt>
      <trkpt lat="48.10961" lon="6.67968">
        <ele>505</ele>
        <time>2023-09-03T08:31:38Z</time>
      </trkpt>
      <trkpt lat="48.10963" lon="6.67968">
        <ele>505</ele>
        <time>2023-09-03T08:31:39Z</time>
      </trkpt>
      <trkpt lat="48.10965" lon="6.67969">
        <ele>504.8</ele>
        <time>2023-09-03T08:31:40Z</time>
      </trkpt>
      <trkpt lat="48.10967" lon="6.67969">
        <ele>504.6</ele>
        <time>2023-09-03T08:31:41Z</time>
      </trkpt>
      <trkpt lat="48.10969" lon="6.6797">
        <ele>504.6</ele>
        <time>2023-09-03T08:31:42Z</time>
      </trkpt>
      <trkpt lat="48.10971" lon="6.67972">
        <ele>504.4</ele>
        <time>2023-09-03T08:31:43Z</time>
      </trkpt>
      <trkpt lat="48.10973" lon="6.67972">
        <ele>504.6</ele>
        <time>2023-09-03T08:31:44Z</time>
      </trkpt>
      <trkpt lat="48.10975" lon="6.67972">
        <ele>504.4</ele>
        <time>2023-09-03T08:31:45Z</time>
      </trkpt>
      <trkpt lat="48.10976" lon="6.67974">
        <ele>504.4</ele>
        <time>2023-09-03T08:31:46Z</time>
      </trkpt>
      <trkpt lat="48.10977" lon="6.67974">
        <ele>504.4</ele>
        <time>2023-09-03T08:31:47Z</time>
      </trkpt>
      <trkpt lat="48.1098" lon="6.67975">
        <ele>504.2</ele>
        <time>2023-09-03T08:31:48Z</time>
      </trkpt>
      <trkpt lat="48.1098" lon="6.67975">
        <ele>504.2</ele>
        <time>2023-09-03T08:31:49Z</time>
      </trkpt>
      <trkpt lat="48.1098" lon="6.67975">
        <ele>504.2</ele>
        <time>2023-09-03T08:31:50Z</time>
      </trkpt>
      <trkpt lat="48.10981" lon="6.67975">
        <ele>504.2</ele>
        <time>2023-09-03T08:31:51Z</time>
      </trkpt>
      <trkpt lat="48.10981" lon="6.67975">
        <ele>504.2</ele>
        <time>2023-09-03T08:31:52Z</time>
      </trkpt>
      <trkpt lat="48.10982" lon="6.67975">
        <ele>504.2</ele>
        <time>2023-09-03T08:31:53Z</time>
      </trkpt>
      <trkpt lat="48.10983" lon="6.67975">
        <ele>504.2</ele>
        <time>2023-09-03T08:31:54Z</time>
      </trkpt>
      <trkpt lat="48.10983" lon="6.67975">
        <ele>504.2</ele>
        <time>2023-09-03T08:31:55Z</time>
      </trkpt>
      <trkpt lat="48.10985" lon="6.67977">
        <ele>504.2</ele>
        <time>2023-09-03T08:31:56Z</time>
      </trkpt>
      <trkpt lat="48.10986" lon="6.67978">
        <ele>504.2</ele>
        <time>2023-09-03T08:31:57Z</time>
      </trkpt>
      <trkpt lat="48.10987" lon="6.67979">
        <ele>504.2</ele>
        <time>2023-09-03T08:31:58Z</time>
      </trkpt>
      <trkpt lat="48.10987" lon="6.6798">
        <ele>504.2</ele>
        <time>2023-09-03T08:31:59Z</time>
      </trkpt>
      <trkpt lat="48.10988" lon="6.6798">
        <ele>504.2</ele>
        <time>2023-09-03T08:32:00Z</time>
      </trkpt>
      <trkpt lat="48.10987" lon="6.67979">
        <ele>505.6</ele>
        <time>2023-09-03T08:40:22Z</time>
      </trkpt>
      <trkpt lat="48.10987" lon="6.67979">
        <ele>505.8</ele>
        <time>2023-09-03T08:40:23Z</time>
      </trkpt>
      <trkpt lat="48.10987" lon="6.67978">
        <ele>503.8</ele>
        <time>2023-09-03T08:41:09Z</time>
      </trkpt>
      <trkpt lat="48.10987" lon="6.67978">
        <ele>503.8</ele>
        <time>2023-09-03T08:41:10Z</time>
      </trkpt>
      <trkpt lat="48.10992" lon="6.67979">
        <ele>503.8</ele>
        <time>2023-09-03T08:41:33Z</time>
      </trkpt>
      <trkpt lat="48.10994" lon="6.67979">
        <ele>503.8</ele>
        <time>2023-09-03T08:41:34Z</time>
      </trkpt>
      <trkpt lat="48.10996" lon="6.67977">
        <ele>503.8</ele>
        <time>2023-09-03T08:41:35Z</time>
      </trkpt>
      <trkpt lat="48.10999" lon="6.67974">
        <ele>503.8</ele>
        <time>2023-09-03T08:41:36Z</time>
      </trkpt>
      <trkpt lat="48.11004" lon="6.67972">
        <ele>503.8</ele>
        <time>2023-09-03T08:41:37Z</time>
      </trkpt>
      <trkpt lat="48.11008" lon="6.67971">
        <ele>504</ele>
        <time>2023-09-03T08:41:38Z</time>
      </trkpt>
      <trkpt lat="48.11013" lon="6.6797">
        <ele>504.2</ele>
        <time>2023-09-03T08:41:39Z</time>
      </trkpt>
      <trkpt lat="48.11017" lon="6.67969">
        <ele>504.2</ele>
        <time>2023-09-03T08:41:40Z</time>
      </trkpt>
      <trkpt lat="48.11022" lon="6.67968">
        <ele>504.4</ele>
        <time>2023-09-03T08:41:41Z</time>
      </trkpt>
      <trkpt lat="48.11026" lon="6.67966">
        <ele>504.4</ele>
        <time>2023-09-03T08:41:42Z</time>
      </trkpt>
      <trkpt lat="48.1103" lon="6.67964">
        <ele>504.4</ele>
        <time>2023-09-03T08:41:43Z</time>
      </trkpt>
      <trkpt lat="48.11035" lon="6.67963">
        <ele>504.6</ele>
        <time>2023-09-03T08:41:44Z</time>
      </trkpt>
      <trkpt lat="48.1104" lon="6.67961">
        <ele>504.4</ele>
        <time>2023-09-03T08:41:45Z</time>
      </trkpt>
      <trkpt lat="48.11044" lon="6.67961">
        <ele>504.4</ele>
        <time>2023-09-03T08:41:46Z</time>
      </trkpt>
      <trkpt lat="48.11048" lon="6.6796">
        <ele>504.4</ele>
        <time>2023-09-03T08:41:47Z</time>
      </trkpt>
      <trkpt lat="48.11052" lon="6.6796">
        <ele>504.4</ele>
        <time>2023-09-03T08:41:48Z</time>
      </trkpt>
      <trkpt lat="48.11056" lon="6.67959">
        <ele>504.2</ele>
        <time>2023-09-03T08:41:49Z</time>
      </trkpt>
      <trkpt lat="48.11059" lon="6.67958">
        <ele>504.2</ele>
        <time>2023-09-03T08:41:50Z</time>
      </trkpt>
      <trkpt lat="48.11062" lon="6.67956">
        <ele>504</ele>
        <time>2023-09-03T08:41:51Z</time>
      </trkpt>
      <trkpt lat="48.11064" lon="6.67953">
        <ele>504</ele>
        <time>2023-09-03T08:41:52Z</time>
      </trkpt>
      <trkpt lat="48.11066" lon="6.6795">
        <ele>504</ele>
        <time>2023-09-03T08:41:53Z</time>
      </trkpt>
      <trkpt lat="48.11069" lon="6.67947">
        <ele>504</ele>
        <time>2023-09-03T08:41:54Z</time>
      </trkpt>
      <trkpt lat="48.11071" lon="6.67945">
        <ele>504</ele>
        <time>2023-09-03T08:41:55Z</time>
      </trkpt>
      <trkpt lat="48.11072" lon="6.67943">
        <ele>504.2</ele>
        <time>2023-09-03T08:41:56Z</time>
      </trkpt>
      <trkpt lat="48.11074" lon="6.67941">
        <ele>504.2</ele>
        <time>2023-09-03T08:41:57Z</time>
      </trkpt>
      <trkpt lat="48.11075" lon="6.6794">
        <ele>504.4</ele>
        <time>2023-09-03T08:41:58Z</time>
      </trkpt>
      <trkpt lat="48.11077" lon="6.67939">
        <ele>504.4</ele>
        <time>2023-09-03T08:41:59Z</time>
      </trkpt>
      <trkpt lat="48.11078" lon="6.67938">
        <ele>504.6</ele>
        <time>2023-09-03T08:42:00Z</time>
      </trkpt>
      <trkpt lat="48.11079" lon="6.67938">
        <ele>504.8</ele>
        <time>2023-09-03T08:42:01Z</time>
      </trkpt>
      <trkpt lat="48.11082" lon="6.67936">
        <ele>505</ele>
        <time>2023-09-03T08:42:02Z</time>
      </trkpt>
      <trkpt lat="48.11084" lon="6.67934">
        <ele>505.4</ele>
        <time>2023-09-03T08:42:03Z</time>
      </trkpt>
      <trkpt lat="48.11085" lon="6.67932">
        <ele>505.8</ele>
        <time>2023-09-03T08:42:04Z</time>
      </trkpt>
      <trkpt lat="48.11087" lon="6.6793">
        <ele>506</ele>
        <time>2023-09-03T08:42:05Z</time>
      </trkpt>
      <trkpt lat="48.11089" lon="6.67927">
        <ele>506.2</ele>
        <time>2023-09-03T08:42:06Z</time>
      </trkpt>
      <trkpt lat="48.11089" lon="6.67925">
        <ele>506.4</ele>
        <time>2023-09-03T08:42:07Z</time>
      </trkpt>
      <trkpt lat="48.1109" lon="6.67924">
        <ele>506.6</ele>
        <time>2023-09-03T08:42:08Z</time>
      </trkpt>
      <trkpt lat="48.11091" lon="6.67922">
        <ele>507</ele>
        <time>2023-09-03T08:42:09Z</time>
      </trkpt>
      <trkpt lat="48.11091" lon="6.67921">
        <ele>507.2</ele>
        <time>2023-09-03T08:42:10Z</time>
      </trkpt>
      <trkpt lat="48.11091" lon="6.67921">
        <ele>507.6</ele>
        <time>2023-09-03T08:42:11Z</time>
      </trkpt>
      <trkpt lat="48.11091" lon="6.67921">
        <ele>508.2</ele>
        <time>2023-09-03T08:42:12Z</time>
      </trkpt>
      <trkpt lat="48.11088" lon="6.67922">
        <ele>509.2</ele>
        <time>2023-09-03T08:42:28Z</time>
      </trkpt>
      <trkpt lat="48.11087" lon="6.67924">
        <ele>509</ele>
        <time>2023-09-03T08:42:29Z</time>
      </trkpt>
      <trkpt lat="48.11085" lon="6.67926">
        <ele>509</ele>
        <time>2023-09-03T08:42:30Z</time>
      </trkpt>
      <trkpt lat="48.11084" lon="6.67928">
        <ele>509</ele>
        <time>2023-09-03T08:42:31Z</time>
      </trkpt>
      <trkpt lat="48.11081" lon="6.67931">
        <ele>508.8</ele>
        <time>2023-09-03T08:42:32Z</time>
      </trkpt>
      <trkpt lat="48.11079" lon="6.67933">
        <ele>508.6</ele>
        <time>2023-09-03T08:42:33Z</time>
      </trkpt>
      <trkpt lat="48.11076" lon="6.67936">
        <ele>508.4</ele>
        <time>2023-09-03T08:42:34Z</time>
      </trkpt>
      <trkpt lat="48.11072" lon="6.67939">
        <ele>508</ele>
        <time>2023-09-03T08:42:35Z</time>
      </trkpt>
      <trkpt lat="48.11069" lon="6.67943">
        <ele>507.4</ele>
        <time>2023-09-03T08:42:36Z</time>
      </trkpt>
      <trkpt lat="48.11066" lon="6.67946">
        <ele>507</ele>
        <time>2023-09-03T08:42:37Z</time>
      </trkpt>
      <trkpt lat="48.11065" lon="6.67949">
        <ele>506.4</ele>
        <time>2023-09-03T08:42:38Z</time>
      </trkpt>
      <trkpt lat="48.11063" lon="6.67951">
        <ele>506.2</ele>
        <time>2023-09-03T08:42:39Z</time>
      </trkpt>
      <trkpt lat="48.11061" lon="6.67955">
        <ele>505.6</ele>
        <time>2023-09-03T08:42:40Z</time>
      </trkpt>
      <trkpt lat="48.11059" lon="6.67958">
        <ele>505.4</ele>
        <time>2023-09-03T08:42:41Z</time>
      </trkpt>
      <trkpt lat="48.11057" lon="6.67961">
        <ele>504.6</ele>
        <time>2023-09-03T08:42:42Z</time>
      </trkpt>
      <trkpt lat="48.11053" lon="6.67961">
        <ele>504.4</ele>
        <time>2023-09-03T08:42:43Z</time>
      </trkpt>
      <trkpt lat="48.1105" lon="6.67961">
        <ele>504</ele>
        <time>2023-09-03T08:42:44Z</time>
      </trkpt>
      <trkpt lat="48.11047" lon="6.67961">
        <ele>503.8</ele>
        <time>2023-09-03T08:42:45Z</time>
      </trkpt>
      <trkpt lat="48.11044" lon="6.67962">
        <ele>503.8</ele>
        <time>2023-09-03T08:42:46Z</time>
      </trkpt>
      <trkpt lat="48.1104" lon="6.67963">
        <ele>503.6</ele>
        <time>2023-09-03T08:42:47Z</time>
      </trkpt>
      <trkpt lat="48.11037" lon="6.67964">
        <ele>503.6</ele>
        <time>2023-09-03T08:42:48Z</time>
      </trkpt>
      <trkpt lat="48.11034" lon="6.67965">
        <ele>503.4</ele>
        <time>2023-09-03T08:42:49Z</time>
      </trkpt>
      <trkpt lat="48.1103" lon="6.67966">
        <ele>503.4</ele>
        <time>2023-09-03T08:42:50Z</time>
      </trkpt>
      <trkpt lat="48.11026" lon="6.67967">
        <ele>503.2</ele>
        <time>2023-09-03T08:42:51Z</time>
      </trkpt>
      <trkpt lat="48.11022" lon="6.67968">
        <ele>503.2</ele>
        <time>2023-09-03T08:42:52Z</time>
      </trkpt>
      <trkpt lat="48.11018" lon="6.67969">
        <ele>503.2</ele>
        <time>2023-09-03T08:42:53Z</time>
      </trkpt>
      <trkpt lat="48.11015" lon="6.6797">
        <ele>503.4</ele>
        <time>2023-09-03T08:42:54Z</time>
      </trkpt>
      <trkpt lat="48.11012" lon="6.67971">
        <ele>503.6</ele>
        <time>2023-09-03T08:42:55Z</time>
      </trkpt>
      <trkpt lat="48.11009" lon="6.67972">
        <ele>503.6</ele>
        <time>2023-09-03T08:42:56Z</time>
      </trkpt>
      <trkpt lat="48.11006" lon="6.67973">
        <ele>503.8</ele>
        <time>2023-09-03T08:42:57Z</time>
      </trkpt>
      <trkpt lat="48.11004" lon="6.67973">
        <ele>503.8</ele>
        <time>2023-09-03T08:42:58Z</time>
      </trkpt>
      <trkpt lat="48.11001" lon="6.67973">
        <ele>503.8</ele>
        <time>2023-09-03T08:42:59Z</time>
      </trkpt>
      <trkpt lat="48.10998" lon="6.67974">
        <ele>504</ele>
        <time>2023-09-03T08:43:00Z</time>
      </trkpt>
      <trkpt lat="48.10996" lon="6.67975">
        <ele>504.2</ele>
        <time>2023-09-03T08:43:01Z</time>
      </trkpt>
      <trkpt lat="48.10993" lon="6.67975">
        <ele>504.2</ele>
        <time>2023-09-03T08:43:02Z</time>
      </trkpt>
      <trkpt lat="48.10991" lon="6.67975">
        <ele>504.4</ele>
        <time>2023-09-03T08:43:03Z</time>
      </trkpt>
      <trkpt lat="48.10989" lon="6.67976">
        <ele>504.4</ele>
        <time>2023-09-03T08:43:04Z</time>
      </trkpt>
      <trkpt lat="48.10988" lon="6.67976">
        <ele>504.4</ele>
        <time>2023-09-03T08:43:05Z</time>
      </trkpt>
      <trkpt lat="48.10986" lon="6.67976">
        <ele>504.4</ele>
        <time>2023-09-03T08:43:06Z</time>
      </trkpt>
      <trkpt lat="48.10985" lon="6.67975">
        <ele>504.4</ele>
        <time>2023-09-03T08:43:07Z</time>
      </trkpt>
      <trkpt lat="48.10983" lon="6.67975">
        <ele>504.4</ele>
        <time>2023-09-03T08:43:08Z</time>
      </trkpt>
      <trkpt lat="48.10982" lon="6.67975">
        <ele>504.4</ele>
        <time>2023-09-03T08:43:09Z</time>
      </trkpt>
      <trkpt lat="48.10981" lon="6.67975">
        <ele>504.4</ele>
        <time>2023-09-03T08:43:10Z</time>
      </trkpt>
      <trkpt lat="48.10979" lon="6.67974">
        <ele>504.4</ele>
        <time>2023-09-03T08:43:11Z</time>
      </trkpt>
      <trkpt lat="48.10978" lon="6.67974">
        <ele>504.4</ele>
        <time>2023-09-03T08:43:12Z</time>
      </trkpt>
      <trkpt lat="48.10977" lon="6.67974">
        <ele>504.4</ele>
        <time>2023-09-03T08:43:13Z</time>
      </trkpt>
      <trkpt lat="48.10975" lon="6.67973">
        <ele>504.4</ele>
        <time>2023-09-03T08:43:14Z</time>
      </trkpt>
      <trkpt lat="48.10971" lon="6.67972">
        <ele>504.2</ele>
        <time>2023-09-03T08:43:15Z</time>
      </trkpt>
      <trkpt lat="48.10968" lon="6.67971">
        <ele>504.2</ele>
        <time>2023-09-03T08:43:16Z</time>
      </trkpt>
      <trkpt lat="48.10966" lon="6.67971">
        <ele>504.2</ele>
        <time>2023-09-03T08:43:17Z</time>
      </trkpt>
      <trkpt lat="48.10963" lon="6.6797">
        <ele>504.4</ele>
        <time>2023-09-03T08:43:18Z</time>
      </trkpt>
      <trkpt lat="48.1096" lon="6.67969">
        <ele>504.4</ele>
        <time>2023-09-03T08:43:19Z</time>
      </trkpt>
      <trkpt lat="48.10958" lon="6.6797">
        <ele>504.6</ele>
        <time>2023-09-03T08:43:20Z</time>
      </trkpt>
      <trkpt lat="48.10956" lon="6.67971">
        <ele>504.6</ele>
        <time>2023-09-03T08:43:21Z</time>
      </trkpt>
      <trkpt lat="48.10953" lon="6.67972">
        <ele>504.6</ele>
        <time>2023-09-03T08:43:22Z</time>
      </trkpt>
      <trkpt lat="48.1095" lon="6.67972">
        <ele>504.6</ele>
        <time>2023-09-03T08:43:23Z</time>
      </trkpt>
      <trkpt lat="48.10946" lon="6.67971">
        <ele>504.6</ele>
        <time>2023-09-03T08:43:24Z</time>
      </trkpt>
      <trkpt lat="48.10943" lon="6.67971">
        <ele>504.6</ele>
        <time>2023-09-03T08:43:25Z</time>
      </trkpt>
      <trkpt lat="48.1094" lon="6.67971">
        <ele>504.6</ele>
        <time>2023-09-03T08:43:26Z</time>
      </trkpt>
      <trkpt lat="48.10938" lon="6.6797">
        <ele>504.6</ele>
        <time>2023-09-03T08:43:27Z</time>
      </trkpt>
      <trkpt lat="48.10935" lon="6.67969">
        <ele>504.6</ele>
        <time>2023-09-03T08:43:28Z</time>
      </trkpt>
      <trkpt lat="48.10933" lon="6.67968">
        <ele>504.6</ele>
        <time>2023-09-03T08:43:29Z</time>
      </trkpt>
      <trkpt lat="48.1093" lon="6.67965">
        <ele>504.6</ele>
        <time>2023-09-03T08:43:30Z</time>
      </trkpt>
      <trkpt lat="48.10927" lon="6.67964">
        <ele>504.4</ele>
        <time>2023-09-03T08:43:31Z</time>
      </trkpt>
      <trkpt lat="48.10924" lon="6.67964">
        <ele>504.4</ele>
        <time>2023-09-03T08:43:32Z</time>
      </trkpt>
      <trkpt lat="48.10921" lon="6.67964">
        <ele>504.4</ele>
        <time>2023-09-03T08:43:33Z</time>
      </trkpt>
      <trkpt lat="48.10917" lon="6.67964">
        <ele>504.4</ele>
        <time>2023-09-03T08:43:34Z</time>
      </trkpt>
      <trkpt lat="48.10914" lon="6.67965">
        <ele>504.6</ele>
        <time>2023-09-03T08:43:35Z</time>
      </trkpt>
      <trkpt lat="48.10911" lon="6.67965">
        <ele>504.4</ele>
        <time>2023-09-03T08:43:36Z</time>
      </trkpt>
      <trkpt lat="48.10907" lon="6.67965">
        <ele>504.4</ele>
        <time>2023-09-03T08:43:37Z</time>
      </trkpt>
      <trkpt lat="48.10904" lon="6.67965">
        <ele>504.6</ele>
        <time>2023-09-03T08:43:38Z</time>
      </trkpt>
      <trkpt lat="48.10901" lon="6.67965">
        <ele>504.8</ele>
        <time>2023-09-03T08:43:39Z</time>
      </trkpt>
      <trkpt lat="48.10898" lon="6.67966">
        <ele>504.8</ele>
        <time>2023-09-03T08:43:40Z</time>
      </trkpt>
      <trkpt lat="48.10895" lon="6.67966">
        <ele>504.8</ele>
        <time>2023-09-03T08:43:41Z</time>
      </trkpt>
      <trkpt lat="48.10891" lon="6.67966">
        <ele>505.2</ele>
        <time>2023-09-03T08:43:42Z</time>
      </trkpt>
      <trkpt lat="48.10888" lon="6.67964">
        <ele>505.2</ele>
        <time>2023-09-03T08:43:43Z</time>
      </trkpt>
      <trkpt lat="48.10885" lon="6.67962">
        <ele>505.2</ele>
        <time>2023-09-03T08:43:44Z</time>
      </trkpt>
      <trkpt lat="48.10883" lon="6.67959">
        <ele>505.2</ele>
        <time>2023-09-03T08:43:45Z</time>
      </trkpt>
      <trkpt lat="48.10881" lon="6.67956">
        <ele>505.2</ele>
        <time>2023-09-03T08:43:46Z</time>
      </trkpt>
      <trkpt lat="48.10879" lon="6.67953">
        <ele>505.2</ele>
        <time>2023-09-03T08:43:47Z</time>
      </trkpt>
      <trkpt lat="48.10877" lon="6.67952">
        <ele>505.4</ele>
        <time>2023-09-03T08:43:48Z</time>
      </trkpt>
      <trkpt lat="48.10874" lon="6.67952">
        <ele>505.6</ele>
        <time>2023-09-03T08:43:49Z</time>
      </trkpt>
      <trkpt lat="48.10871" lon="6.67952">
        <ele>505.6</ele>
        <time>2023-09-03T08:43:50Z</time>
      </trkpt>
      <trkpt lat="48.10869" lon="6.67952">
        <ele>506</ele>
        <time>2023-09-03T08:43:51Z</time>
      </trkpt>
      <trkpt lat="48.10867" lon="6.67953">
        <ele>506.2</ele>
        <time>2023-09-03T08:43:52Z</time>
      </trkpt>
      <trkpt lat="48.10864" lon="6.67953">
        <ele>506.6</ele>
        <time>2023-09-03T08:43:53Z</time>
      </trkpt>
      <trkpt lat="48.10861" lon="6.67955">
        <ele>506.6</ele>
        <time>2023-09-03T08:43:54Z</time>
      </trkpt>
      <trkpt lat="48.10859" lon="6.67956">
        <ele>507</ele>
        <time>2023-09-03T08:43:55Z</time>
      </trkpt>
      <trkpt lat="48.10856" lon="6.67956">
        <ele>507</ele>
        <time>2023-09-03T08:43:56Z</time>
      </trkpt>
      <trkpt lat="48.10854" lon="6.67957">
        <ele>507.2</ele>
        <time>2023-09-03T08:43:57Z</time>
      </trkpt>
      <trkpt lat="48.10853" lon="6.67958">
        <ele>507.4</ele>
        <time>2023-09-03T08:43:58Z</time>
      </trkpt>
      <trkpt lat="48.10853" lon="6.67958">
        <ele>507.8</ele>
        <time>2023-09-03T08:43:59Z</time>
      </trkpt>
      <trkpt lat="48.10852" lon="6.67958">
        <ele>508</ele>
        <time>2023-09-03T08:44:00Z</time>
      </trkpt>
      <trkpt lat="48.10849" lon="6.67959">
        <ele>508.4</ele>
        <time>2023-09-03T08:44:01Z</time>
      </trkpt>
      <trkpt lat="48.10847" lon="6.67959">
        <ele>508.4</ele>
        <time>2023-09-03T08:44:02Z</time>
      </trkpt>
      <trkpt lat="48.10843" lon="6.67959">
        <ele>508.6</ele>
        <time>2023-09-03T08:44:03Z</time>
      </trkpt>
      <trkpt lat="48.10841" lon="6.67959">
        <ele>508.8</ele>
        <time>2023-09-03T08:44:04Z</time>
      </trkpt>
      <trkpt lat="48.10837" lon="6.67959">
        <ele>509</ele>
        <time>2023-09-03T08:44:05Z</time>
      </trkpt>
      <trkpt lat="48.10833" lon="6.67959">
        <ele>509.4</ele>
        <time>2023-09-03T08:44:06Z</time>
      </trkpt>
      <trkpt lat="48.10829" lon="6.6796">
        <ele>509.4</ele>
        <time>2023-09-03T08:44:07Z</time>
      </trkpt>
      <trkpt lat="48.10824" lon="6.6796">
        <ele>509.6</ele>
        <time>2023-09-03T08:44:08Z</time>
      </trkpt>
      <trkpt lat="48.10819" lon="6.67961">
        <ele>509.8</ele>
        <time>2023-09-03T08:44:09Z</time>
      </trkpt>
      <trkpt lat="48.10816" lon="6.67962">
        <ele>509.8</ele>
        <time>2023-09-03T08:44:10Z</time>
      </trkpt>
      <trkpt lat="48.10814" lon="6.67962">
        <ele>509.8</ele>
        <time>2023-09-03T08:44:11Z</time>
      </trkpt>
      <trkpt lat="48.10813" lon="6.67962">
        <ele>510</ele>
        <time>2023-09-03T08:44:12Z</time>
      </trkpt>
      <trkpt lat="48.10812" lon="6.6796">
        <ele>510.2</ele>
        <time>2023-09-03T08:44:13Z</time>
      </trkpt>
      <trkpt lat="48.10811" lon="6.67959">
        <ele>510.2</ele>
        <time>2023-09-03T08:44:14Z</time>
      </trkpt>
      <trkpt lat="48.1081" lon="6.67959">
        <ele>510.8</ele>
        <time>2023-09-03T08:44:15Z</time>
      </trkpt>
      <trkpt lat="48.10808" lon="6.67958">
        <ele>511</ele>
        <time>2023-09-03T08:44:16Z</time>
      </trkpt>
      <trkpt lat="48.10807" lon="6.67957">
        <ele>511.2</ele>
        <time>2023-09-03T08:44:17Z</time>
      </trkpt>
      <trkpt lat="48.10806" lon="6.67956">
        <ele>511.4</ele>
        <time>2023-09-03T08:44:18Z</time>
      </trkpt>
      <trkpt lat="48.10804" lon="6.67954">
        <ele>511.6</ele>
        <time>2023-09-03T08:44:19Z</time>
      </trkpt>
      <trkpt lat="48.10802" lon="6.67953">
        <ele>511.8</ele>
        <time>2023-09-03T08:44:20Z</time>
      </trkpt>
      <trkpt lat="48.108" lon="6.67953">
        <ele>512.4</ele>
        <time>2023-09-03T08:44:21Z</time>
      </trkpt>
      <trkpt lat="48.10799" lon="6.67953">
        <ele>512.6</ele>
        <time>2023-09-03T08:44:22Z</time>
      </trkpt>
      <trkpt lat="48.10799" lon="6.67952">
        <ele>513.2</ele>
        <time>2023-09-03T08:44:23Z</time>
      </trkpt>
      <trkpt lat="48.10799" lon="6.67952">
        <ele>513.6</ele>
        <time>2023-09-03T08:44:24Z</time>
      </trkpt>
      <trkpt lat="48.10799" lon="6.67952">
        <ele>513.6</ele>
        <time>2023-09-03T08:44:25Z</time>
      </trkpt>
      <trkpt lat="48.10799" lon="6.67952">
        <ele>513.8</ele>
        <time>2023-09-03T08:44:26Z</time>
      </trkpt>
      <trkpt lat="48.10799" lon="6.67952">
        <ele>514</ele>
        <time>2023-09-03T08:44:27Z</time>
      </trkpt>
      <trkpt lat="48.10798" lon="6.67951">
        <ele>514.2</ele>
        <time>2023-09-03T08:44:28Z</time>
      </trkpt>
      <trkpt lat="48.10799" lon="6.6795">
        <ele>514.4</ele>
        <time>2023-09-03T08:44:29Z</time>
      </trkpt>
      <trkpt lat="48.10798" lon="6.67947">
        <ele>514.6</ele>
        <time>2023-09-03T08:44:30Z</time>
      </trkpt>
      <trkpt lat="48.10798" lon="6.67946">
        <ele>514.6</ele>
        <time>2023-09-03T08:44:31Z</time>
      </trkpt>
      <trkpt lat="48.10798" lon="6.67946">
        <ele>514.6</ele>
        <time>2023-09-03T08:44:32Z</time>
      </trkpt>
      <trkpt lat="48.10798" lon="6.67946">
        <ele>514.8</ele>
        <time>2023-09-03T08:44:33Z</time>
      </trkpt>
      <trkpt lat="48.10796" lon="6.67945">
        <ele>514.8</ele>
        <time>2023-09-03T08:44:34Z</time>
      </trkpt>
      <trkpt lat="48.10795" lon="6.67943">
        <ele>514.8</ele>
        <time>2023-09-03T08:44:35Z</time>
      </trkpt>
      <trkpt lat="48.10794" lon="6.67939">
        <ele>514.8</ele>
        <time>2023-09-03T08:44:36Z</time>
      </trkpt>
      <trkpt lat="48.10791" lon="6.67937">
        <ele>515</ele>
        <time>2023-09-03T08:44:37Z</time>
      </trkpt>
      <trkpt lat="48.1079" lon="6.67933">
        <ele>515</ele>
        <time>2023-09-03T08:44:38Z</time>
      </trkpt>
      <trkpt lat="48.10789" lon="6.67933">
        <ele>515.4</ele>
        <time>2023-09-03T08:44:39Z</time>
      </trkpt>
      <trkpt lat="48.10788" lon="6.67929">
        <ele>515.4</ele>
        <time>2023-09-03T08:44:40Z</time>
      </trkpt>
      <trkpt lat="48.10786" lon="6.67926">
        <ele>515.8</ele>
        <time>2023-09-03T08:44:41Z</time>
      </trkpt>
      <trkpt lat="48.10785" lon="6.67924">
        <ele>516</ele>
        <time>2023-09-03T08:44:42Z</time>
      </trkpt>
      <trkpt lat="48.10783" lon="6.67921">
        <ele>516.2</ele>
        <time>2023-09-03T08:44:43Z</time>
      </trkpt>
      <trkpt lat="48.10781" lon="6.67915">
        <ele>516.4</ele>
        <time>2023-09-03T08:44:44Z</time>
      </trkpt>
      <trkpt lat="48.10778" lon="6.67911">
        <ele>516.8</ele>
        <time>2023-09-03T08:44:45Z</time>
      </trkpt>
      <trkpt lat="48.10775" lon="6.67909">
        <ele>517</ele>
        <time>2023-09-03T08:44:46Z</time>
      </trkpt>
      <trkpt lat="48.10774" lon="6.67907">
        <ele>517.2</ele>
        <time>2023-09-03T08:44:47Z</time>
      </trkpt>
      <trkpt lat="48.10774" lon="6.67907">
        <ele>517.4</ele>
        <time>2023-09-03T08:44:48Z</time>
      </trkpt>
      <trkpt lat="48.10773" lon="6.67904">
        <ele>517.4</ele>
        <time>2023-09-03T08:44:49Z</time>
      </trkpt>
      <trkpt lat="48.10773" lon="6.67904">
        <ele>517.8</ele>
        <time>2023-09-03T08:44:50Z</time>
      </trkpt>
      <trkpt lat="48.10771" lon="6.67901">
        <ele>518</ele>
        <time>2023-09-03T08:44:51Z</time>
      </trkpt>
      <trkpt lat="48.10771" lon="6.67901">
        <ele>518.4</ele>
        <time>2023-09-03T08:44:52Z</time>
      </trkpt>
      <trkpt lat="48.10771" lon="6.67901">
        <ele>518.4</ele>
        <time>2023-09-03T08:44:53Z</time>
      </trkpt>
      <trkpt lat="48.10771" lon="6.67901">
        <ele>518.6</ele>
        <time>2023-09-03T08:44:54Z</time>
      </trkpt>
      <trkpt lat="48.10771" lon="6.67901">
        <ele>518.6</ele>
        <time>2023-09-03T08:44:55Z</time>
      </trkpt>
      <trkpt lat="48.10771" lon="6.67901">
        <ele>518.6</ele>
        <time>2023-09-03T08:44:56Z</time>
      </trkpt>
      <trkpt lat="48.10771" lon="6.67901">
        <ele>518.6</ele>
        <time>2023-09-03T08:44:57Z</time>
      </trkpt>
      <trkpt lat="48.10774" lon="6.67915">
        <ele>518</ele>
        <time>2023-09-03T08:47:08Z</time>
      </trkpt>
      <trkpt lat="48.10774" lon="6.67915">
        <ele>518</ele>
        <time>2023-09-03T08:47:09Z</time>
      </trkpt>
      <trkpt lat="48.10774" lon="6.67915">
        <ele>518</ele>
        <time>2023-09-03T08:47:10Z</time>
      </trkpt>
      <trkpt lat="48.10774" lon="6.67915">
        <ele>518</ele>
        <time>2023-09-03T08:47:11Z</time>
      </trkpt>
      <trkpt lat="48.10774" lon="6.67915">
        <ele>518</ele>
        <time>2023-09-03T08:47:12Z</time>
      </trkpt>
      <trkpt lat="48.10774" lon="6.67915">
        <ele>518.2</ele>
        <time>2023-09-03T08:47:18Z</time>
      </trkpt>
      <trkpt lat="48.10774" lon="6.67915">
        <ele>518</ele>
        <time>2023-09-03T08:47:19Z</time>
      </trkpt>
      <trkpt lat="48.10774" lon="6.67915">
        <ele>518</ele>
        <time>2023-09-03T08:47:20Z</time>
      </trkpt>
      <trkpt lat="48.10774" lon="6.67917">
        <ele>518</ele>
        <time>2023-09-03T08:47:21Z</time>
      </trkpt>
      <trkpt lat="48.10775" lon="6.67919">
        <ele>518</ele>
        <time>2023-09-03T08:47:22Z</time>
      </trkpt>
      <trkpt lat="48.10776" lon="6.67921">
        <ele>518</ele>
        <time>2023-09-03T08:47:23Z</time>
      </trkpt>
      <trkpt lat="48.10776" lon="6.67923">
        <ele>518</ele>
        <time>2023-09-03T08:47:24Z</time>
      </trkpt>
      <trkpt lat="48.10777" lon="6.67925">
        <ele>518</ele>
        <time>2023-09-03T08:47:25Z</time>
      </trkpt>
      <trkpt lat="48.10777" lon="6.67928">
        <ele>517.8</ele>
        <time>2023-09-03T08:47:26Z</time>
      </trkpt>
      <trkpt lat="48.10779" lon="6.67932">
        <ele>517.2</ele>
        <time>2023-09-03T08:47:27Z</time>
      </trkpt>
      <trkpt lat="48.1078" lon="6.67937">
        <ele>517</ele>
        <time>2023-09-03T08:47:28Z</time>
      </trkpt>
      <trkpt lat="48.10782" lon="6.67941">
        <ele>516.4</ele>
        <time>2023-09-03T08:47:29Z</time>
      </trkpt>
      <trkpt lat="48.10784" lon="6.67945">
        <ele>516.2</ele>
        <time>2023-09-03T08:47:30Z</time>
      </trkpt>
      <trkpt lat="48.10786" lon="6.67948">
        <ele>516</ele>
        <time>2023-09-03T08:47:31Z</time>
      </trkpt>
      <trkpt lat="48.10789" lon="6.6795">
        <ele>515.4</ele>
        <time>2023-09-03T08:47:32Z</time>
      </trkpt>
      <trkpt lat="48.10792" lon="6.67952">
        <ele>515</ele>
        <time>2023-09-03T08:47:33Z</time>
      </trkpt>
      <trkpt lat="48.10794" lon="6.67955">
        <ele>514.6</ele>
        <time>2023-09-03T08:47:34Z</time>
      </trkpt>
      <trkpt lat="48.10797" lon="6.67957">
        <ele>514.2</ele>
        <time>2023-09-03T08:47:35Z</time>
      </trkpt>
      <trkpt lat="48.10799" lon="6.67958">
        <ele>513.4</ele>
        <time>2023-09-03T08:47:36Z</time>
      </trkpt>
      <trkpt lat="48.10802" lon="6.67959">
        <ele>513.2</ele>
        <time>2023-09-03T08:47:37Z</time>
      </trkpt>
      <trkpt lat="48.10805" lon="6.67961">
        <ele>513.2</ele>
        <time>2023-09-03T08:47:38Z</time>
      </trkpt>
      <trkpt lat="48.10807" lon="6.67963">
        <ele>513</ele>
        <time>2023-09-03T08:47:39Z</time>
      </trkpt>
      <trkpt lat="48.10808" lon="6.67964">
        <ele>512.8</ele>
        <time>2023-09-03T08:47:40Z</time>
      </trkpt>
      <trkpt lat="48.10808" lon="6.67964">
        <ele>512.6</ele>
        <time>2023-09-03T08:47:41Z</time>
      </trkpt>
      <trkpt lat="48.10808" lon="6.67964">
        <ele>512</ele>
        <time>2023-09-03T08:47:42Z</time>
      </trkpt>
      <trkpt lat="48.10808" lon="6.67964">
        <ele>511.6</ele>
        <time>2023-09-03T08:47:43Z</time>
      </trkpt>
      <trkpt lat="48.1082" lon="6.67964">
        <ele>511.2</ele>
        <time>2023-09-03T08:47:44Z</time>
      </trkpt>
      <trkpt lat="48.10832" lon="6.67961">
        <ele>510.8</ele>
        <time>2023-09-03T08:47:45Z</time>
      </trkpt>
      <trkpt lat="48.1084" lon="6.67959">
        <ele>510.6</ele>
        <time>2023-09-03T08:47:46Z</time>
      </trkpt>
      <trkpt lat="48.10845" lon="6.67958">
        <ele>510.6</ele>
        <time>2023-09-03T08:47:47Z</time>
      </trkpt>
      <trkpt lat="48.10848" lon="6.67957">
        <ele>510.4</ele>
        <time>2023-09-03T08:47:48Z</time>
      </trkpt>
      <trkpt lat="48.10852" lon="6.67957">
        <ele>510</ele>
        <time>2023-09-03T08:47:49Z</time>
      </trkpt>
      <trkpt lat="48.10856" lon="6.67959">
        <ele>509.8</ele>
        <time>2023-09-03T08:47:50Z</time>
      </trkpt>
      <trkpt lat="48.1086" lon="6.67963">
        <ele>509.6</ele>
        <time>2023-09-03T08:47:51Z</time>
      </trkpt>
      <trkpt lat="48.10867" lon="6.67967">
        <ele>509.2</ele>
        <time>2023-09-03T08:47:52Z</time>
      </trkpt>
      <trkpt lat="48.1087" lon="6.6797">
        <ele>508.6</ele>
        <time>2023-09-03T08:47:53Z</time>
      </trkpt>
      <trkpt lat="48.10874" lon="6.67973">
        <ele>508.2</ele>
        <time>2023-09-03T08:47:54Z</time>
      </trkpt>
      <trkpt lat="48.10876" lon="6.67975">
        <ele>507.4</ele>
        <time>2023-09-03T08:47:55Z</time>
      </trkpt>
      <trkpt lat="48.1088" lon="6.67973">
        <ele>506.8</ele>
        <time>2023-09-03T08:47:56Z</time>
      </trkpt>
      <trkpt lat="48.10882" lon="6.67973">
        <ele>506.6</ele>
        <time>2023-09-03T08:47:57Z</time>
      </trkpt>
      <trkpt lat="48.10883" lon="6.67973">
        <ele>506.4</ele>
        <time>2023-09-03T08:47:58Z</time>
      </trkpt>
      <trkpt lat="48.10883" lon="6.67973">
        <ele>506.2</ele>
        <time>2023-09-03T08:47:59Z</time>
      </trkpt>
      <trkpt lat="48.10883" lon="6.67973">
        <ele>505.8</ele>
        <time>2023-09-03T08:48:00Z</time>
      </trkpt>
      <trkpt lat="48.10883" lon="6.67973">
        <ele>505.8</ele>
        <time>2023-09-03T08:48:01Z</time>
      </trkpt>
      <trkpt lat="48.10887" lon="6.67974">
        <ele>505.8</ele>
        <time>2023-09-03T08:48:02Z</time>
      </trkpt>
      <trkpt lat="48.10893" lon="6.67975">
        <ele>505.6</ele>
        <time>2023-09-03T08:48:03Z</time>
      </trkpt>
      <trkpt lat="48.10902" lon="6.67974">
        <ele>505.6</ele>
        <time>2023-09-03T08:48:04Z</time>
      </trkpt>
      <trkpt lat="48.10907" lon="6.67972">
        <ele>505.2</ele>
        <time>2023-09-03T08:48:05Z</time>
      </trkpt>
      <trkpt lat="48.10911" lon="6.6797">
        <ele>504.8</ele>
        <time>2023-09-03T08:48:06Z</time>
      </trkpt>
      <trkpt lat="48.10914" lon="6.6797">
        <ele>504.6</ele>
        <time>2023-09-03T08:48:07Z</time>
      </trkpt>
      <trkpt lat="48.10916" lon="6.6797">
        <ele>504.4</ele>
        <time>2023-09-03T08:48:08Z</time>
      </trkpt>
      <trkpt lat="48.1092" lon="6.6797">
        <ele>504.4</ele>
        <time>2023-09-03T08:48:09Z</time>
      </trkpt>
      <trkpt lat="48.10923" lon="6.67972">
        <ele>504.6</ele>
        <time>2023-09-03T08:48:10Z</time>
      </trkpt>
      <trkpt lat="48.10927" lon="6.67973">
        <ele>504.6</ele>
        <time>2023-09-03T08:48:11Z</time>
      </trkpt>
      <trkpt lat="48.10932" lon="6.67973">
        <ele>504.6</ele>
        <time>2023-09-03T08:48:12Z</time>
      </trkpt>
      <trkpt lat="48.10937" lon="6.67974">
        <ele>504.4</ele>
        <time>2023-09-03T08:48:13Z</time>
      </trkpt>
      <trkpt lat="48.1094" lon="6.67974">
        <ele>504.4</ele>
        <time>2023-09-03T08:48:14Z</time>
      </trkpt>
      <trkpt lat="48.10942" lon="6.67973">
        <ele>504.2</ele>
        <time>2023-09-03T08:48:15Z</time>
      </trkpt>
      <trkpt lat="48.10948" lon="6.6797">
        <ele>504.2</ele>
        <time>2023-09-03T08:48:16Z</time>
      </trkpt>
      <trkpt lat="48.10951" lon="6.67969">
        <ele>504.2</ele>
        <time>2023-09-03T08:48:17Z</time>
      </trkpt>
      <trkpt lat="48.10956" lon="6.67966">
        <ele>504.2</ele>
        <time>2023-09-03T08:48:18Z</time>
      </trkpt>
      <trkpt lat="48.1096" lon="6.67966">
        <ele>504.2</ele>
        <time>2023-09-03T08:48:19Z</time>
      </trkpt>
      <trkpt lat="48.10963" lon="6.67967">
        <ele>504.2</ele>
        <time>2023-09-03T08:48:20Z</time>
      </trkpt>
      <trkpt lat="48.10966" lon="6.67968">
        <ele>504</ele>
        <time>2023-09-03T08:48:21Z</time>
      </trkpt>
      <trkpt lat="48.10969" lon="6.67969">
        <ele>504</ele>
        <time>2023-09-03T08:48:22Z</time>
      </trkpt>
      <trkpt lat="48.10971" lon="6.67971">
        <ele>504</ele>
        <time>2023-09-03T08:48:23Z</time>
      </trkpt>
      <trkpt lat="48.10971" lon="6.67971">
        <ele>503.8</ele>
        <time>2023-09-03T08:48:24Z</time>
      </trkpt>
      <trkpt lat="48.10971" lon="6.67971">
        <ele>503.8</ele>
        <time>2023-09-03T08:48:25Z</time>
      </trkpt>
      <trkpt lat="48.10971" lon="6.67971">
        <ele>503.6</ele>
        <time>2023-09-03T08:48:26Z</time>
      </trkpt>
      <trkpt lat="48.10973" lon="6.67971">
        <ele>503.6</ele>
        <time>2023-09-03T08:48:27Z</time>
      </trkpt>
      <trkpt lat="48.10977" lon="6.67973">
        <ele>503.6</ele>
        <time>2023-09-03T08:48:28Z</time>
      </trkpt>
      <trkpt lat="48.10978" lon="6.67973">
        <ele>503.6</ele>
        <time>2023-09-03T08:48:29Z</time>
      </trkpt>
      <trkpt lat="48.10979" lon="6.67973">
        <ele>503.6</ele>
        <time>2023-09-03T08:48:30Z</time>
      </trkpt>
      <trkpt lat="48.10981" lon="6.67974">
        <ele>503.6</ele>
        <time>2023-09-03T08:48:31Z</time>
      </trkpt>
      <trkpt lat="48.10981" lon="6.67974">
        <ele>503.6</ele>
        <time>2023-09-03T08:48:32Z</time>
      </trkpt>
      <trkpt lat="48.10983" lon="6.67974">
        <ele>503.4</ele>
        <time>2023-09-03T08:48:33Z</time>
      </trkpt>
      <trkpt lat="48.10983" lon="6.67974">
        <ele>503.4</ele>
        <time>2023-09-03T08:48:34Z</time>
      </trkpt>
      <trkpt lat="48.10983" lon="6.67974">
        <ele>503.2</ele>
        <time>2023-09-03T08:48:35Z</time>
      </trkpt>
      <trkpt lat="48.10983" lon="6.67974">
        <ele>503.2</ele>
        <time>2023-09-03T08:48:36Z</time>
      </trkpt>
      <trkpt lat="48.1099" lon="6.67975">
        <ele>503</ele>
        <time>2023-09-03T08:48:42Z</time>
      </trkpt>
      <trkpt lat="48.10992" lon="6.67975">
        <ele>503</ele>
        <time>2023-09-03T08:48:43Z</time>
      </trkpt>
      <trkpt lat="48.10993" lon="6.67975">
        <ele>503</ele>
        <time>2023-09-03T08:48:44Z</time>
      </trkpt>
      <trkpt lat="48.10993" lon="6.67975">
        <ele>503</ele>
        <time>2023-09-03T08:48:45Z</time>
      </trkpt>
      <trkpt lat="48.10993" lon="6.67975">
        <ele>503</ele>
        <time>2023-09-03T08:48:46Z</time>
      </trkpt>
      <trkpt lat="48.10994" lon="6.67976">
        <ele>503</ele>
        <time>2023-09-03T08:48:47Z</time>
      </trkpt>
      <trkpt lat="48.10996" lon="6.67976">
        <ele>503</ele>
        <time>2023-09-03T08:48:48Z</time>
      </trkpt>
      <trkpt lat="48.10998" lon="6.67977">
        <ele>503</ele>
        <time>2023-09-03T08:48:49Z</time>
      </trkpt>
      <trkpt lat="48.11" lon="6.67977">
        <ele>503</ele>
        <time>2023-09-03T08:48:50Z</time>
      </trkpt>
      <trkpt lat="48.11002" lon="6.67976">
        <ele>503</ele>
        <time>2023-09-03T08:48:51Z</time>
      </trkpt>
      <trkpt lat="48.11005" lon="6.67975">
        <ele>503</ele>
        <time>2023-09-03T08:48:52Z</time>
      </trkpt>
      <trkpt lat="48.11009" lon="6.67975">
        <ele>503</ele>
        <time>2023-09-03T08:48:53Z</time>
      </trkpt>
      <trkpt lat="48.11014" lon="6.67974">
        <ele>503</ele>
        <time>2023-09-03T08:48:54Z</time>
      </trkpt>
      <trkpt lat="48.11018" lon="6.67972">
        <ele>503</ele>
        <time>2023-09-03T08:48:55Z</time>
      </trkpt>
      <trkpt lat="48.11023" lon="6.67969">
        <ele>503</ele>
        <time>2023-09-03T08:48:56Z</time>
      </trkpt>
      <trkpt lat="48.11033" lon="6.67967">
        <ele>503</ele>
        <time>2023-09-03T08:48:57Z</time>
      </trkpt>
      <trkpt lat="48.11033" lon="6.67966">
        <ele>503</ele>
        <time>2023-09-03T08:48:58Z</time>
      </trkpt>
      <trkpt lat="48.11036" lon="6.67964">
        <ele>503</ele>
        <time>2023-09-03T08:48:59Z</time>
      </trkpt>
      <trkpt lat="48.11038" lon="6.67965">
        <ele>503</ele>
        <time>2023-09-03T08:49:00Z</time>
      </trkpt>
      <trkpt lat="48.1104" lon="6.67965">
        <ele>502.8</ele>
        <time>2023-09-03T08:49:01Z</time>
      </trkpt>
      <trkpt lat="48.11044" lon="6.67965">
        <ele>502.6</ele>
        <time>2023-09-03T08:49:02Z</time>
      </trkpt>
      <trkpt lat="48.11048" lon="6.67964">
        <ele>502.6</ele>
        <time>2023-09-03T08:49:03Z</time>
      </trkpt>
      <trkpt lat="48.11052" lon="6.67964">
        <ele>502.6</ele>
        <time>2023-09-03T08:49:04Z</time>
      </trkpt>
      <trkpt lat="48.11056" lon="6.67963">
        <ele>502.6</ele>
        <time>2023-09-03T08:49:05Z</time>
      </trkpt>
      <trkpt lat="48.11059" lon="6.67963">
        <ele>502.6</ele>
        <time>2023-09-03T08:49:06Z</time>
      </trkpt>
      <trkpt lat="48.11062" lon="6.67961">
        <ele>502.8</ele>
        <time>2023-09-03T08:49:07Z</time>
      </trkpt>
      <trkpt lat="48.11066" lon="6.67957">
        <ele>503</ele>
        <time>2023-09-03T08:49:08Z</time>
      </trkpt>
      <trkpt lat="48.11068" lon="6.67954">
        <ele>503.2</ele>
        <time>2023-09-03T08:49:09Z</time>
      </trkpt>
      <trkpt lat="48.11071" lon="6.67952">
        <ele>503.2</ele>
        <time>2023-09-03T08:49:10Z</time>
      </trkpt>
      <trkpt lat="48.11072" lon="6.67949">
        <ele>503.4</ele>
        <time>2023-09-03T08:49:11Z</time>
      </trkpt>
      <trkpt lat="48.11074" lon="6.67946">
        <ele>503.4</ele>
        <time>2023-09-03T08:49:12Z</time>
      </trkpt>
      <trkpt lat="48.11076" lon="6.67943">
        <ele>503.4</ele>
        <time>2023-09-03T08:49:13Z</time>
      </trkpt>
      <trkpt lat="48.11078" lon="6.67941">
        <ele>503.4</ele>
        <time>2023-09-03T08:49:14Z</time>
      </trkpt>
      <trkpt lat="48.11079" lon="6.67939">
        <ele>503.6</ele>
        <time>2023-09-03T08:49:15Z</time>
      </trkpt>
      <trkpt lat="48.1108" lon="6.67938">
        <ele>504</ele>
        <time>2023-09-03T08:49:16Z</time>
      </trkpt>
      <trkpt lat="48.11081" lon="6.67938">
        <ele>504</ele>
        <time>2023-09-03T08:49:17Z</time>
      </trkpt>
      <trkpt lat="48.11083" lon="6.67937">
        <ele>504.4</ele>
        <time>2023-09-03T08:49:18Z</time>
      </trkpt>
      <trkpt lat="48.11085" lon="6.67935">
        <ele>504.2</ele>
        <time>2023-09-03T08:49:19Z</time>
      </trkpt>
      <trkpt lat="48.11085" lon="6.67933">
        <ele>504.6</ele>
        <time>2023-09-03T08:49:20Z</time>
      </trkpt>
      <trkpt lat="48.11087" lon="6.67932">
        <ele>504.8</ele>
        <time>2023-09-03T08:49:21Z</time>
      </trkpt>
      <trkpt lat="48.11088" lon="6.6793">
        <ele>505</ele>
        <time>2023-09-03T08:49:22Z</time>
      </trkpt>
      <trkpt lat="48.11088" lon="6.67928">
        <ele>505.2</ele>
        <time>2023-09-03T08:49:23Z</time>
      </trkpt>
      <trkpt lat="48.1109" lon="6.67925">
        <ele>505.4</ele>
        <time>2023-09-03T08:49:24Z</time>
      </trkpt>
      <trkpt lat="48.11092" lon="6.67922">
        <ele>505.8</ele>
        <time>2023-09-03T08:49:25Z</time>
      </trkpt>
      <trkpt lat="48.11093" lon="6.6792">
        <ele>506</ele>
        <time>2023-09-03T08:49:26Z</time>
      </trkpt>
      <trkpt lat="48.11094" lon="6.67918">
        <ele>506.2</ele>
        <time>2023-09-03T08:49:27Z</time>
      </trkpt>
      <trkpt lat="48.11094" lon="6.67917">
        <ele>506.4</ele>
        <time>2023-09-03T08:49:28Z</time>
      </trkpt>
      <trkpt lat="48.11096" lon="6.67915">
        <ele>506.8</ele>
        <time>2023-09-03T08:49:29Z</time>
      </trkpt>
      <trkpt lat="48.11097" lon="6.67913">
        <ele>507</ele>
        <time>2023-09-03T08:49:30Z</time>
      </trkpt>
      <trkpt lat="48.11098" lon="6.67911">
        <ele>507.4</ele>
        <time>2023-09-03T08:49:31Z</time>
      </trkpt>
      <trkpt lat="48.111" lon="6.67909">
        <ele>507.8</ele>
        <time>2023-09-03T08:49:32Z</time>
      </trkpt>
      <trkpt lat="48.11101" lon="6.67907">
        <ele>508.2</ele>
        <time>2023-09-03T08:49:33Z</time>
      </trkpt>
      <trkpt lat="48.11102" lon="6.67906">
        <ele>508.4</ele>
        <time>2023-09-03T08:49:34Z</time>
      </trkpt>
      <trkpt lat="48.11104" lon="6.67904">
        <ele>508.8</ele>
        <time>2023-09-03T08:49:35Z</time>
      </trkpt>
      <trkpt lat="48.11106" lon="6.67902">
        <ele>509</ele>
        <time>2023-09-03T08:49:36Z</time>
      </trkpt>
      <trkpt lat="48.11108" lon="6.67899">
        <ele>509.2</ele>
        <time>2023-09-03T08:49:37Z</time>
      </trkpt>
      <trkpt lat="48.1111" lon="6.67897">
        <ele>509.8</ele>
        <time>2023-09-03T08:49:38Z</time>
      </trkpt>
      <trkpt lat="48.11112" lon="6.67895">
        <ele>510</ele>
        <time>2023-09-03T08:49:39Z</time>
      </trkpt>
      <trkpt lat="48.11113" lon="6.67893">
        <ele>510.2</ele>
        <time>2023-09-03T08:49:40Z</time>
      </trkpt>
      <trkpt lat="48.11114" lon="6.67891">
        <ele>510.4</ele>
        <time>2023-09-03T08:49:41Z</time>
      </trkpt>
      <trkpt lat="48.11116" lon="6.67889">
        <ele>511</ele>
        <time>2023-09-03T08:49:42Z</time>
      </trkpt>
      <trkpt lat="48.11117" lon="6.67887">
        <ele>511.2</ele>
        <time>2023-09-03T08:49:43Z</time>
      </trkpt>
      <trkpt lat="48.11118" lon="6.67884">
        <ele>511.6</ele>
        <time>2023-09-03T08:49:44Z</time>
      </trkpt>
      <trkpt lat="48.11119" lon="6.67882">
        <ele>511.8</ele>
        <time>2023-09-03T08:49:45Z</time>
      </trkpt>
      <trkpt lat="48.1112" lon="6.6788">
        <ele>512.2</ele>
        <time>2023-09-03T08:49:46Z</time>
      </trkpt>
      <trkpt lat="48.1112" lon="6.67879">
        <ele>512.4</ele>
        <time>2023-09-03T08:49:47Z</time>
      </trkpt>
      <trkpt lat="48.1112" lon="6.67876">
        <ele>512.6</ele>
        <time>2023-09-03T08:49:48Z</time>
      </trkpt>
      <trkpt lat="48.1112" lon="6.67874">
        <ele>513</ele>
        <time>2023-09-03T08:49:49Z</time>
      </trkpt>
      <trkpt lat="48.11122" lon="6.67871">
        <ele>513.4</ele>
        <time>2023-09-03T08:49:50Z</time>
      </trkpt>
      <trkpt lat="48.11123" lon="6.67868">
        <ele>513.8</ele>
        <time>2023-09-03T08:49:51Z</time>
      </trkpt>
      <trkpt lat="48.11123" lon="6.67868">
        <ele>514</ele>
        <time>2023-09-03T08:49:52Z</time>
      </trkpt>
      <trkpt lat="48.11125" lon="6.67863">
        <ele>514.4</ele>
        <time>2023-09-03T08:49:53Z</time>
      </trkpt>
      <trkpt lat="48.11126" lon="6.67861">
        <ele>514.8</ele>
        <time>2023-09-03T08:49:54Z</time>
      </trkpt>
      <trkpt lat="48.11126" lon="6.67858">
        <ele>515.2</ele>
        <time>2023-09-03T08:49:55Z</time>
      </trkpt>
      <trkpt lat="48.11126" lon="6.67853">
        <ele>515.4</ele>
        <time>2023-09-03T08:49:56Z</time>
      </trkpt>
      <trkpt lat="48.11125" lon="6.67849">
        <ele>515.8</ele>
        <time>2023-09-03T08:49:57Z</time>
      </trkpt>
      <trkpt lat="48.11126" lon="6.67846">
        <ele>515.8</ele>
        <time>2023-09-03T08:49:58Z</time>
      </trkpt>
      <trkpt lat="48.11127" lon="6.67841">
        <ele>516</ele>
        <time>2023-09-03T08:49:59Z</time>
      </trkpt>
      <trkpt lat="48.11127" lon="6.67836">
        <ele>516.2</ele>
        <time>2023-09-03T08:50:00Z</time>
      </trkpt>
      <trkpt lat="48.11126" lon="6.6783">
        <ele>516</ele>
        <time>2023-09-03T08:50:01Z</time>
      </trkpt>
      <trkpt lat="48.11124" lon="6.67823">
        <ele>516.2</ele>
        <time>2023-09-03T08:50:02Z</time>
      </trkpt>
      <trkpt lat="48.11122" lon="6.6782">
        <ele>516.4</ele>
        <time>2023-09-03T08:50:03Z</time>
      </trkpt>
      <trkpt lat="48.1112" lon="6.67816">
        <ele>516.4</ele>
        <time>2023-09-03T08:50:04Z</time>
      </trkpt>
      <trkpt lat="48.11118" lon="6.67813">
        <ele>516.6</ele>
        <time>2023-09-03T08:50:05Z</time>
      </trkpt>
      <trkpt lat="48.11115" lon="6.6781">
        <ele>517</ele>
        <time>2023-09-03T08:50:06Z</time>
      </trkpt>
      <trkpt lat="48.11112" lon="6.67807">
        <ele>517</ele>
        <time>2023-09-03T08:50:07Z</time>
      </trkpt>
      <trkpt lat="48.1111" lon="6.67803">
        <ele>517</ele>
        <time>2023-09-03T08:50:08Z</time>
      </trkpt>
      <trkpt lat="48.11108" lon="6.678">
        <ele>517.2</ele>
        <time>2023-09-03T08:50:09Z</time>
      </trkpt>
      <trkpt lat="48.11105" lon="6.67797">
        <ele>517.2</ele>
        <time>2023-09-03T08:50:10Z</time>
      </trkpt>
      <trkpt lat="48.11103" lon="6.67795">
        <ele>517.2</ele>
        <time>2023-09-03T08:50:11Z</time>
      </trkpt>
      <trkpt lat="48.11101" lon="6.67792">
        <ele>517.4</ele>
        <time>2023-09-03T08:50:12Z</time>
      </trkpt>
      <trkpt lat="48.111" lon="6.67791">
        <ele>517.4</ele>
        <time>2023-09-03T08:50:13Z</time>
      </trkpt>
      <trkpt lat="48.11098" lon="6.6779">
        <ele>517.4</ele>
        <time>2023-09-03T08:50:14Z</time>
      </trkpt>
      <trkpt lat="48.11096" lon="6.67789">
        <ele>517.6</ele>
        <time>2023-09-03T08:50:15Z</time>
      </trkpt>
      <trkpt lat="48.11094" lon="6.67789">
        <ele>517.6</ele>
        <time>2023-09-03T08:50:16Z</time>
      </trkpt>
      <trkpt lat="48.11093" lon="6.67789">
        <ele>517.8</ele>
        <time>2023-09-03T08:50:17Z</time>
      </trkpt>
      <trkpt lat="48.11091" lon="6.67788">
        <ele>518</ele>
        <time>2023-09-03T08:50:18Z</time>
      </trkpt>
      <trkpt lat="48.11089" lon="6.67788">
        <ele>518.4</ele>
        <time>2023-09-03T08:50:19Z</time>
      </trkpt>
      <trkpt lat="48.11087" lon="6.67788">
        <ele>518.6</ele>
        <time>2023-09-03T08:50:20Z</time>
      </trkpt>
      <trkpt lat="48.11085" lon="6.67787">
        <ele>518.8</ele>
        <time>2023-09-03T08:50:21Z</time>
      </trkpt>
      <trkpt lat="48.11083" lon="6.67787">
        <ele>519</ele>
        <time>2023-09-03T08:50:22Z</time>
      </trkpt>
      <trkpt lat="48.11082" lon="6.67787">
        <ele>519</ele>
        <time>2023-09-03T08:50:23Z</time>
      </trkpt>
      <trkpt lat="48.1108" lon="6.67786">
        <ele>519.2</ele>
        <time>2023-09-03T08:50:24Z</time>
      </trkpt>
      <trkpt lat="48.11078" lon="6.67786">
        <ele>519.4</ele>
        <time>2023-09-03T08:50:25Z</time>
      </trkpt>
      <trkpt lat="48.11076" lon="6.67786">
        <ele>519.6</ele>
        <time>2023-09-03T08:50:26Z</time>
      </trkpt>
      <trkpt lat="48.11074" lon="6.67786">
        <ele>519.8</ele>
        <time>2023-09-03T08:50:27Z</time>
      </trkpt>
      <trkpt lat="48.11072" lon="6.67786">
        <ele>520.2</ele>
        <time>2023-09-03T08:50:28Z</time>
      </trkpt>
      <trkpt lat="48.11071" lon="6.67786">
        <ele>520.2</ele>
        <time>2023-09-03T08:50:29Z</time>
      </trkpt>
      <trkpt lat="48.11069" lon="6.67786">
        <ele>520.8</ele>
        <time>2023-09-03T08:50:30Z</time>
      </trkpt>
      <trkpt lat="48.11067" lon="6.67786">
        <ele>521.2</ele>
        <time>2023-09-03T08:50:31Z</time>
      </trkpt>
      <trkpt lat="48.11065" lon="6.67785">
        <ele>521.4</ele>
        <time>2023-09-03T08:50:32Z</time>
      </trkpt>
      <trkpt lat="48.11064" lon="6.67784">
        <ele>521.6</ele>
        <time>2023-09-03T08:50:33Z</time>
      </trkpt>
      <trkpt lat="48.11062" lon="6.67783">
        <ele>521.8</ele>
        <time>2023-09-03T08:50:34Z</time>
      </trkpt>
      <trkpt lat="48.11061" lon="6.6778">
        <ele>522</ele>
        <time>2023-09-03T08:50:35Z</time>
      </trkpt>
      <trkpt lat="48.1106" lon="6.67777">
        <ele>522.2</ele>
        <time>2023-09-03T08:50:36Z</time>
      </trkpt>
      <trkpt lat="48.11059" lon="6.67774">
        <ele>522.4</ele>
        <time>2023-09-03T08:50:37Z</time>
      </trkpt>
      <trkpt lat="48.11058" lon="6.67771">
        <ele>522.6</ele>
        <time>2023-09-03T08:50:38Z</time>
      </trkpt>
      <trkpt lat="48.11057" lon="6.67768">
        <ele>522.8</ele>
        <time>2023-09-03T08:50:39Z</time>
      </trkpt>
      <trkpt lat="48.11057" lon="6.67766">
        <ele>522.8</ele>
        <time>2023-09-03T08:50:40Z</time>
      </trkpt>
      <trkpt lat="48.11056" lon="6.67763">
        <ele>522.8</ele>
        <time>2023-09-03T08:50:41Z</time>
      </trkpt>
      <trkpt lat="48.11055" lon="6.6776">
        <ele>523</ele>
        <time>2023-09-03T08:50:42Z</time>
      </trkpt>
      <trkpt lat="48.11054" lon="6.67758">
        <ele>523.2</ele>
        <time>2023-09-03T08:50:43Z</time>
      </trkpt>
      <trkpt lat="48.11052" lon="6.67756">
        <ele>523.4</ele>
        <time>2023-09-03T08:50:44Z</time>
      </trkpt>
      <trkpt lat="48.1105" lon="6.67755">
        <ele>523.6</ele>
        <time>2023-09-03T08:50:45Z</time>
      </trkpt>
      <trkpt lat="48.11048" lon="6.67755">
        <ele>523.8</ele>
        <time>2023-09-03T08:50:46Z</time>
      </trkpt>
      <trkpt lat="48.11046" lon="6.67756">
        <ele>524</ele>
        <time>2023-09-03T08:50:47Z</time>
      </trkpt>
      <trkpt lat="48.11044" lon="6.67756">
        <ele>524.4</ele>
        <time>2023-09-03T08:50:48Z</time>
      </trkpt>
      <trkpt lat="48.11041" lon="6.67757">
        <ele>524.2</ele>
        <time>2023-09-03T08:50:49Z</time>
      </trkpt>
      <trkpt lat="48.11039" lon="6.67757">
        <ele>524.6</ele>
        <time>2023-09-03T08:50:50Z</time>
      </trkpt>
      <trkpt lat="48.11037" lon="6.67758">
        <ele>524.8</ele>
        <time>2023-09-03T08:50:51Z</time>
      </trkpt>
      <trkpt lat="48.11035" lon="6.67759">
        <ele>524.8</ele>
        <time>2023-09-03T08:50:52Z</time>
      </trkpt>
      <trkpt lat="48.11032" lon="6.67759">
        <ele>524.8</ele>
        <time>2023-09-03T08:50:53Z</time>
      </trkpt>
      <trkpt lat="48.1103" lon="6.67759">
        <ele>525</ele>
        <time>2023-09-03T08:50:54Z</time>
      </trkpt>
      <trkpt lat="48.11028" lon="6.6776">
        <ele>525</ele>
        <time>2023-09-03T08:50:55Z</time>
      </trkpt>
      <trkpt lat="48.11026" lon="6.6776">
        <ele>525.2</ele>
        <time>2023-09-03T08:50:56Z</time>
      </trkpt>
      <trkpt lat="48.11024" lon="6.67761">
        <ele>525.4</ele>
        <time>2023-09-03T08:50:57Z</time>
      </trkpt>
      <trkpt lat="48.11022" lon="6.67761">
        <ele>525.4</ele>
        <time>2023-09-03T08:50:58Z</time>
      </trkpt>
      <trkpt lat="48.1102" lon="6.67762">
        <ele>525.8</ele>
        <time>2023-09-03T08:50:59Z</time>
      </trkpt>
      <trkpt lat="48.11018" lon="6.67762">
        <ele>525.8</ele>
        <time>2023-09-03T08:51:00Z</time>
      </trkpt>
      <trkpt lat="48.11016" lon="6.67763">
        <ele>526</ele>
        <time>2023-09-03T08:51:01Z</time>
      </trkpt>
      <trkpt lat="48.11014" lon="6.67764">
        <ele>526</ele>
        <time>2023-09-03T08:51:02Z</time>
      </trkpt>
      <trkpt lat="48.11013" lon="6.67764">
        <ele>526.2</ele>
        <time>2023-09-03T08:51:03Z</time>
      </trkpt>
      <trkpt lat="48.11011" lon="6.67765">
        <ele>526.2</ele>
        <time>2023-09-03T08:51:04Z</time>
      </trkpt>
      <trkpt lat="48.11009" lon="6.67766">
        <ele>526.6</ele>
        <time>2023-09-03T08:51:05Z</time>
      </trkpt>
      <trkpt lat="48.11007" lon="6.67766">
        <ele>526.6</ele>
        <time>2023-09-03T08:51:06Z</time>
      </trkpt>
      <trkpt lat="48.11006" lon="6.67768">
        <ele>527.2</ele>
        <time>2023-09-03T08:51:07Z</time>
      </trkpt>
      <trkpt lat="48.11005" lon="6.67769">
        <ele>527.4</ele>
        <time>2023-09-03T08:51:08Z</time>
      </trkpt>
      <trkpt lat="48.11005" lon="6.6777">
        <ele>527.8</ele>
        <time>2023-09-03T08:51:09Z</time>
      </trkpt>
      <trkpt lat="48.11004" lon="6.67771">
        <ele>528.2</ele>
        <time>2023-09-03T08:51:10Z</time>
      </trkpt>
      <trkpt lat="48.11003" lon="6.67773">
        <ele>528.4</ele>
        <time>2023-09-03T08:51:11Z</time>
      </trkpt>
      <trkpt lat="48.11002" lon="6.67774">
        <ele>528.6</ele>
        <time>2023-09-03T08:51:12Z</time>
      </trkpt>
      <trkpt lat="48.11001" lon="6.67776">
        <ele>528.8</ele>
        <time>2023-09-03T08:51:13Z</time>
      </trkpt>
      <trkpt lat="48.11" lon="6.67777">
        <ele>529.2</ele>
        <time>2023-09-03T08:51:14Z</time>
      </trkpt>
      <trkpt lat="48.11" lon="6.67777">
        <ele>529.4</ele>
        <time>2023-09-03T08:51:15Z</time>
      </trkpt>
      <trkpt lat="48.10999" lon="6.67777">
        <ele>529.8</ele>
        <time>2023-09-03T08:51:16Z</time>
      </trkpt>
      <trkpt lat="48.10998" lon="6.67779">
        <ele>529.8</ele>
        <time>2023-09-03T08:51:17Z</time>
      </trkpt>
      <trkpt lat="48.10996" lon="6.6778">
        <ele>530.4</ele>
        <time>2023-09-03T08:51:18Z</time>
      </trkpt>
      <trkpt lat="48.10995" lon="6.67781">
        <ele>530.6</ele>
        <time>2023-09-03T08:51:19Z</time>
      </trkpt>
      <trkpt lat="48.10994" lon="6.67782">
        <ele>530.8</ele>
        <time>2023-09-03T08:51:20Z</time>
      </trkpt>
      <trkpt lat="48.10992" lon="6.67783">
        <ele>530.8</ele>
        <time>2023-09-03T08:51:21Z</time>
      </trkpt>
      <trkpt lat="48.1099" lon="6.67784">
        <ele>531</ele>
        <time>2023-09-03T08:51:22Z</time>
      </trkpt>
      <trkpt lat="48.10988" lon="6.67784">
        <ele>531.4</ele>
        <time>2023-09-03T08:51:23Z</time>
      </trkpt>
      <trkpt lat="48.10986" lon="6.67783">
        <ele>531.6</ele>
        <time>2023-09-03T08:51:24Z</time>
      </trkpt>
      <trkpt lat="48.10983" lon="6.67783">
        <ele>532</ele>
        <time>2023-09-03T08:51:25Z</time>
      </trkpt>
      <trkpt lat="48.1098" lon="6.67782">
        <ele>532.2</ele>
        <time>2023-09-03T08:51:26Z</time>
      </trkpt>
      <trkpt lat="48.10976" lon="6.67782">
        <ele>532.2</ele>
        <time>2023-09-03T08:51:27Z</time>
      </trkpt>
      <trkpt lat="48.10973" lon="6.6778">
        <ele>532.2</ele>
        <time>2023-09-03T08:51:28Z</time>
      </trkpt>
      <trkpt lat="48.10969" lon="6.67779">
        <ele>532.4</ele>
        <time>2023-09-03T08:51:29Z</time>
      </trkpt>
      <trkpt lat="48.10966" lon="6.67777">
        <ele>532.4</ele>
        <time>2023-09-03T08:51:30Z</time>
      </trkpt>
      <trkpt lat="48.10963" lon="6.67775">
        <ele>532.6</ele>
        <time>2023-09-03T08:51:31Z</time>
      </trkpt>
      <trkpt lat="48.1096" lon="6.67773">
        <ele>532.6</ele>
        <time>2023-09-03T08:51:32Z</time>
      </trkpt>
      <trkpt lat="48.10957" lon="6.67771">
        <ele>532.6</ele>
        <time>2023-09-03T08:51:33Z</time>
      </trkpt>
      <trkpt lat="48.10954" lon="6.67769">
        <ele>532.6</ele>
        <time>2023-09-03T08:51:34Z</time>
      </trkpt>
      <trkpt lat="48.10951" lon="6.67767">
        <ele>532.6</ele>
        <time>2023-09-03T08:51:35Z</time>
      </trkpt>
      <trkpt lat="48.10949" lon="6.67764">
        <ele>532.6</ele>
        <time>2023-09-03T08:51:36Z</time>
      </trkpt>
      <trkpt lat="48.10947" lon="6.67761">
        <ele>532.6</ele>
        <time>2023-09-03T08:51:37Z</time>
      </trkpt>
      <trkpt lat="48.10945" lon="6.67758">
        <ele>532.6</ele>
        <time>2023-09-03T08:51:38Z</time>
      </trkpt>
      <trkpt lat="48.10944" lon="6.67755">
        <ele>532.6</ele>
        <time>2023-09-03T08:51:39Z</time>
      </trkpt>
      <trkpt lat="48.10943" lon="6.67752">
        <ele>532.8</ele>
        <time>2023-09-03T08:51:40Z</time>
      </trkpt>
      <trkpt lat="48.10942" lon="6.67749">
        <ele>533</ele>
        <time>2023-09-03T08:51:41Z</time>
      </trkpt>
      <trkpt lat="48.10941" lon="6.67746">
        <ele>533.6</ele>
        <time>2023-09-03T08:51:42Z</time>
      </trkpt>
      <trkpt lat="48.10939" lon="6.67743">
        <ele>533.8</ele>
        <time>2023-09-03T08:51:43Z</time>
      </trkpt>
      <trkpt lat="48.10937" lon="6.6774">
        <ele>534.4</ele>
        <time>2023-09-03T08:51:44Z</time>
      </trkpt>
      <trkpt lat="48.10935" lon="6.67739">
        <ele>534.8</ele>
        <time>2023-09-03T08:51:45Z</time>
      </trkpt>
      <trkpt lat="48.10933" lon="6.67738">
        <ele>535</ele>
        <time>2023-09-03T08:51:46Z</time>
      </trkpt>
      <trkpt lat="48.10931" lon="6.67737">
        <ele>535.4</ele>
        <time>2023-09-03T08:51:47Z</time>
      </trkpt>
      <trkpt lat="48.10929" lon="6.67737">
        <ele>535.6</ele>
        <time>2023-09-03T08:51:48Z</time>
      </trkpt>
      <trkpt lat="48.10927" lon="6.67738">
        <ele>536.2</ele>
        <time>2023-09-03T08:51:49Z</time>
      </trkpt>
      <trkpt lat="48.10925" lon="6.67739">
        <ele>536.4</ele>
        <time>2023-09-03T08:51:50Z</time>
      </trkpt>
      <trkpt lat="48.10923" lon="6.67741">
        <ele>536.8</ele>
        <time>2023-09-03T08:51:51Z</time>
      </trkpt>
      <trkpt lat="48.10921" lon="6.67743">
        <ele>537</ele>
        <time>2023-09-03T08:51:52Z</time>
      </trkpt>
      <trkpt lat="48.10919" lon="6.67744">
        <ele>537.2</ele>
        <time>2023-09-03T08:51:53Z</time>
      </trkpt>
      <trkpt lat="48.10917" lon="6.67746">
        <ele>537.4</ele>
        <time>2023-09-03T08:51:54Z</time>
      </trkpt>
      <trkpt lat="48.10915" lon="6.67746">
        <ele>537.6</ele>
        <time>2023-09-03T08:51:55Z</time>
      </trkpt>
      <trkpt lat="48.10913" lon="6.67744">
        <ele>537.6</ele>
        <time>2023-09-03T08:51:56Z</time>
      </trkpt>
      <trkpt lat="48.10912" lon="6.67742">
        <ele>537.8</ele>
        <time>2023-09-03T08:51:57Z</time>
      </trkpt>
      <trkpt lat="48.10911" lon="6.67739">
        <ele>538</ele>
        <time>2023-09-03T08:51:58Z</time>
      </trkpt>
      <trkpt lat="48.10911" lon="6.67736">
        <ele>538</ele>
        <time>2023-09-03T08:51:59Z</time>
      </trkpt>
      <trkpt lat="48.10911" lon="6.67734">
        <ele>538.2</ele>
        <time>2023-09-03T08:52:00Z</time>
      </trkpt>
      <trkpt lat="48.10911" lon="6.67733">
        <ele>538.2</ele>
        <time>2023-09-03T08:52:01Z</time>
      </trkpt>
      <trkpt lat="48.10911" lon="6.67731">
        <ele>538.6</ele>
        <time>2023-09-03T08:52:02Z</time>
      </trkpt>
      <trkpt lat="48.10912" lon="6.67729">
        <ele>538.6</ele>
        <time>2023-09-03T08:52:03Z</time>
      </trkpt>
      <trkpt lat="48.10912" lon="6.67728">
        <ele>539</ele>
        <time>2023-09-03T08:52:04Z</time>
      </trkpt>
      <trkpt lat="48.10912" lon="6.67726">
        <ele>539.2</ele>
        <time>2023-09-03T08:52:05Z</time>
      </trkpt>
      <trkpt lat="48.10912" lon="6.67724">
        <ele>539.4</ele>
        <time>2023-09-03T08:52:06Z</time>
      </trkpt>
      <trkpt lat="48.10912" lon="6.67722">
        <ele>539.6</ele>
        <time>2023-09-03T08:52:07Z</time>
      </trkpt>
      <trkpt lat="48.10913" lon="6.6772">
        <ele>540.2</ele>
        <time>2023-09-03T08:52:08Z</time>
      </trkpt>
      <trkpt lat="48.10913" lon="6.67717">
        <ele>541.2</ele>
        <time>2023-09-03T08:52:09Z</time>
      </trkpt>
      <trkpt lat="48.10913" lon="6.67716">
        <ele>541.4</ele>
        <time>2023-09-03T08:52:10Z</time>
      </trkpt>
      <trkpt lat="48.10914" lon="6.67714">
        <ele>541.6</ele>
        <time>2023-09-03T08:52:11Z</time>
      </trkpt>
      <trkpt lat="48.10915" lon="6.67712">
        <ele>541.6</ele>
        <time>2023-09-03T08:52:12Z</time>
      </trkpt>
      <trkpt lat="48.10915" lon="6.6771">
        <ele>542.2</ele>
        <time>2023-09-03T08:52:13Z</time>
      </trkpt>
      <trkpt lat="48.10916" lon="6.67709">
        <ele>542.2</ele>
        <time>2023-09-03T08:52:14Z</time>
      </trkpt>
      <trkpt lat="48.10916" lon="6.67707">
        <ele>542.8</ele>
        <time>2023-09-03T08:52:15Z</time>
      </trkpt>
      <trkpt lat="48.10916" lon="6.67706">
        <ele>543</ele>
        <time>2023-09-03T08:52:16Z</time>
      </trkpt>
      <trkpt lat="48.10917" lon="6.67704">
        <ele>543.4</ele>
        <time>2023-09-03T08:52:17Z</time>
      </trkpt>
      <trkpt lat="48.10917" lon="6.67702">
        <ele>543.6</ele>
        <time>2023-09-03T08:52:18Z</time>
      </trkpt>
      <trkpt lat="48.10918" lon="6.67699">
        <ele>543.8</ele>
        <time>2023-09-03T08:52:19Z</time>
      </trkpt>
      <trkpt lat="48.10918" lon="6.67698">
        <ele>544</ele>
        <time>2023-09-03T08:52:20Z</time>
      </trkpt>
      <trkpt lat="48.10919" lon="6.67696">
        <ele>544.6</ele>
        <time>2023-09-03T08:52:21Z</time>
      </trkpt>
      <trkpt lat="48.1092" lon="6.67694">
        <ele>545</ele>
        <time>2023-09-03T08:52:22Z</time>
      </trkpt>
      <trkpt lat="48.1092" lon="6.67693">
        <ele>545.2</ele>
        <time>2023-09-03T08:52:23Z</time>
      </trkpt>
      <trkpt lat="48.10921" lon="6.67691">
        <ele>545.6</ele>
        <time>2023-09-03T08:52:24Z</time>
      </trkpt>
      <trkpt lat="48.10922" lon="6.6769">
        <ele>545.8</ele>
        <time>2023-09-03T08:52:25Z</time>
      </trkpt>
      <trkpt lat="48.10923" lon="6.67688">
        <ele>546.4</ele>
        <time>2023-09-03T08:52:26Z</time>
      </trkpt>
      <trkpt lat="48.10923" lon="6.67687">
        <ele>546.6</ele>
        <time>2023-09-03T08:52:27Z</time>
      </trkpt>
      <trkpt lat="48.10924" lon="6.67685">
        <ele>546.8</ele>
        <time>2023-09-03T08:52:28Z</time>
      </trkpt>
      <trkpt lat="48.10925" lon="6.67683">
        <ele>547</ele>
        <time>2023-09-03T08:52:29Z</time>
      </trkpt>
      <trkpt lat="48.10925" lon="6.67681">
        <ele>547.2</ele>
        <time>2023-09-03T08:52:30Z</time>
      </trkpt>
      <trkpt lat="48.10926" lon="6.6768">
        <ele>547.4</ele>
        <time>2023-09-03T08:52:31Z</time>
      </trkpt>
      <trkpt lat="48.10927" lon="6.67678">
        <ele>547.8</ele>
        <time>2023-09-03T08:52:32Z</time>
      </trkpt>
      <trkpt lat="48.10928" lon="6.67676">
        <ele>548</ele>
        <time>2023-09-03T08:52:33Z</time>
      </trkpt>
      <trkpt lat="48.1093" lon="6.67674">
        <ele>548.2</ele>
        <time>2023-09-03T08:52:34Z</time>
      </trkpt>
      <trkpt lat="48.10931" lon="6.67672">
        <ele>548.6</ele>
        <time>2023-09-03T08:52:35Z</time>
      </trkpt>
      <trkpt lat="48.10931" lon="6.67672">
        <ele>548.6</ele>
        <time>2023-09-03T08:52:36Z</time>
      </trkpt>
      <trkpt lat="48.10931" lon="6.6767">
        <ele>549</ele>
        <time>2023-09-03T08:52:37Z</time>
      </trkpt>
      <trkpt lat="48.10932" lon="6.67668">
        <ele>549.2</ele>
        <time>2023-09-03T08:52:38Z</time>
      </trkpt>
      <trkpt lat="48.10932" lon="6.67666">
        <ele>549.6</ele>
        <time>2023-09-03T08:52:39Z</time>
      </trkpt>
      <trkpt lat="48.10932" lon="6.67666">
        <ele>549.8</ele>
        <time>2023-09-03T08:52:40Z</time>
      </trkpt>
      <trkpt lat="48.10931" lon="6.67664">
        <ele>550</ele>
        <time>2023-09-03T08:52:41Z</time>
      </trkpt>
      <trkpt lat="48.1093" lon="6.67663">
        <ele>550.2</ele>
        <time>2023-09-03T08:52:42Z</time>
      </trkpt>
      <trkpt lat="48.10928" lon="6.67662">
        <ele>550.6</ele>
        <time>2023-09-03T08:52:43Z</time>
      </trkpt>
      <trkpt lat="48.10927" lon="6.67662">
        <ele>550.8</ele>
        <time>2023-09-03T08:52:44Z</time>
      </trkpt>
      <trkpt lat="48.10925" lon="6.67661">
        <ele>550.8</ele>
        <time>2023-09-03T08:52:45Z</time>
      </trkpt>
      <trkpt lat="48.10924" lon="6.67662">
        <ele>551.4</ele>
        <time>2023-09-03T08:52:46Z</time>
      </trkpt>
      <trkpt lat="48.10923" lon="6.67664">
        <ele>551.6</ele>
        <time>2023-09-03T08:52:47Z</time>
      </trkpt>
      <trkpt lat="48.10923" lon="6.67664">
        <ele>552</ele>
        <time>2023-09-03T08:52:48Z</time>
      </trkpt>
      <trkpt lat="48.10922" lon="6.67665">
        <ele>552</ele>
        <time>2023-09-03T08:52:49Z</time>
      </trkpt>
      <trkpt lat="48.10921" lon="6.67665">
        <ele>552.2</ele>
        <time>2023-09-03T08:52:50Z</time>
      </trkpt>
      <trkpt lat="48.1092" lon="6.67666">
        <ele>552.2</ele>
        <time>2023-09-03T08:52:51Z</time>
      </trkpt>
      <trkpt lat="48.10918" lon="6.67666">
        <ele>552.6</ele>
        <time>2023-09-03T08:52:52Z</time>
      </trkpt>
      <trkpt lat="48.10917" lon="6.67666">
        <ele>552.8</ele>
        <time>2023-09-03T08:52:53Z</time>
      </trkpt>
      <trkpt lat="48.10915" lon="6.67667">
        <ele>553</ele>
        <time>2023-09-03T08:52:54Z</time>
      </trkpt>
      <trkpt lat="48.10914" lon="6.67667">
        <ele>553.2</ele>
        <time>2023-09-03T08:52:55Z</time>
      </trkpt>
      <trkpt lat="48.10912" lon="6.67668">
        <ele>553.6</ele>
        <time>2023-09-03T08:52:56Z</time>
      </trkpt>
      <trkpt lat="48.10911" lon="6.67668">
        <ele>554</ele>
        <time>2023-09-03T08:52:57Z</time>
      </trkpt>
      <trkpt lat="48.10911" lon="6.67668">
        <ele>554</ele>
        <time>2023-09-03T08:52:58Z</time>
      </trkpt>
      <trkpt lat="48.1091" lon="6.67669">
        <ele>554.4</ele>
        <time>2023-09-03T08:52:59Z</time>
      </trkpt>
      <trkpt lat="48.10909" lon="6.67669">
        <ele>554.4</ele>
        <time>2023-09-03T08:53:00Z</time>
      </trkpt>
      <trkpt lat="48.10908" lon="6.6767">
        <ele>554.6</ele>
        <time>2023-09-03T08:53:01Z</time>
      </trkpt>
      <trkpt lat="48.10907" lon="6.6767">
        <ele>554.8</ele>
        <time>2023-09-03T08:53:02Z</time>
      </trkpt>
      <trkpt lat="48.10906" lon="6.6767">
        <ele>555</ele>
        <time>2023-09-03T08:53:03Z</time>
      </trkpt>
      <trkpt lat="48.10905" lon="6.67671">
        <ele>555.2</ele>
        <time>2023-09-03T08:53:04Z</time>
      </trkpt>
      <trkpt lat="48.10903" lon="6.67672">
        <ele>555.4</ele>
        <time>2023-09-03T08:53:05Z</time>
      </trkpt>
      <trkpt lat="48.109" lon="6.67673">
        <ele>555.6</ele>
        <time>2023-09-03T08:53:06Z</time>
      </trkpt>
      <trkpt lat="48.10897" lon="6.67675">
        <ele>555.6</ele>
        <time>2023-09-03T08:53:07Z</time>
      </trkpt>
      <trkpt lat="48.10895" lon="6.67676">
        <ele>555.8</ele>
        <time>2023-09-03T08:53:08Z</time>
      </trkpt>
      <trkpt lat="48.10893" lon="6.67677">
        <ele>555.8</ele>
        <time>2023-09-03T08:53:09Z</time>
      </trkpt>
      <trkpt lat="48.10891" lon="6.67679">
        <ele>556.2</ele>
        <time>2023-09-03T08:53:10Z</time>
      </trkpt>
      <trkpt lat="48.10889" lon="6.6768">
        <ele>556.2</ele>
        <time>2023-09-03T08:53:11Z</time>
      </trkpt>
      <trkpt lat="48.10887" lon="6.6768">
        <ele>556.4</ele>
        <time>2023-09-03T08:53:12Z</time>
      </trkpt>
      <trkpt lat="48.10886" lon="6.6768">
        <ele>556.6</ele>
        <time>2023-09-03T08:53:13Z</time>
      </trkpt>
      <trkpt lat="48.10886" lon="6.6768">
        <ele>556.8</ele>
        <time>2023-09-03T08:53:14Z</time>
      </trkpt>
      <trkpt lat="48.10886" lon="6.67681">
        <ele>557</ele>
        <time>2023-09-03T08:53:15Z</time>
      </trkpt>
      <trkpt lat="48.10885" lon="6.6768">
        <ele>557.2</ele>
        <time>2023-09-03T08:53:16Z</time>
      </trkpt>
      <trkpt lat="48.10885" lon="6.6768">
        <ele>557.4</ele>
        <time>2023-09-03T08:53:17Z</time>
      </trkpt>
      <trkpt lat="48.10884" lon="6.67679">
        <ele>557.8</ele>
        <time>2023-09-03T08:53:18Z</time>
      </trkpt>
      <trkpt lat="48.10884" lon="6.67677">
        <ele>558</ele>
        <time>2023-09-03T08:53:19Z</time>
      </trkpt>
      <trkpt lat="48.10883" lon="6.67676">
        <ele>558.2</ele>
        <time>2023-09-03T08:53:20Z</time>
      </trkpt>
      <trkpt lat="48.10882" lon="6.67675">
        <ele>558.4</ele>
        <time>2023-09-03T08:53:21Z</time>
      </trkpt>
      <trkpt lat="48.10881" lon="6.67675">
        <ele>558.6</ele>
        <time>2023-09-03T08:53:22Z</time>
      </trkpt>
      <trkpt lat="48.1088" lon="6.67675">
        <ele>558.8</ele>
        <time>2023-09-03T08:53:23Z</time>
      </trkpt>
      <trkpt lat="48.10878" lon="6.67674">
        <ele>559.2</ele>
        <time>2023-09-03T08:53:24Z</time>
      </trkpt>
      <trkpt lat="48.10878" lon="6.67674">
        <ele>559.6</ele>
        <time>2023-09-03T08:53:25Z</time>
      </trkpt>
      <trkpt lat="48.10878" lon="6.67674">
        <ele>559.6</ele>
        <time>2023-09-03T08:53:26Z</time>
      </trkpt>
      <trkpt lat="48.10878" lon="6.67673">
        <ele>559.8</ele>
        <time>2023-09-03T08:53:27Z</time>
      </trkpt>
      <trkpt lat="48.10878" lon="6.67673">
        <ele>560</ele>
        <time>2023-09-03T08:53:28Z</time>
      </trkpt>
      <trkpt lat="48.10878" lon="6.67673">
        <ele>560</ele>
        <time>2023-09-03T08:53:29Z</time>
      </trkpt>
      <trkpt lat="48.10878" lon="6.67673">
        <ele>560.2</ele>
        <time>2023-09-03T08:53:30Z</time>
      </trkpt>
      <trkpt lat="48.10878" lon="6.67673">
        <ele>560.4</ele>
        <time>2023-09-03T08:53:31Z</time>
      </trkpt>
      <trkpt lat="48.10878" lon="6.67673">
        <ele>560.8</ele>
        <time>2023-09-03T08:53:32Z</time>
      </trkpt>
      <trkpt lat="48.10878" lon="6.67673">
        <ele>560.8</ele>
        <time>2023-09-03T08:53:33Z</time>
      </trkpt>
      <trkpt lat="48.10878" lon="6.67673">
        <ele>561.2</ele>
        <time>2023-09-03T08:53:34Z</time>
      </trkpt>
      <trkpt lat="48.10875" lon="6.67672">
        <ele>561.4</ele>
        <time>2023-09-03T08:53:35Z</time>
      </trkpt>
      <trkpt lat="48.10875" lon="6.67672">
        <ele>561.6</ele>
        <time>2023-09-03T08:53:36Z</time>
      </trkpt>
      <trkpt lat="48.10875" lon="6.67672">
        <ele>561.8</ele>
        <time>2023-09-03T08:53:37Z</time>
      </trkpt>
      <trkpt lat="48.10875" lon="6.67672">
        <ele>562.2</ele>
        <time>2023-09-03T08:53:38Z</time>
      </trkpt>
      <trkpt lat="48.10875" lon="6.67672">
        <ele>562.4</ele>
        <time>2023-09-03T08:53:39Z</time>
      </trkpt>
      <trkpt lat="48.10875" lon="6.67671">
        <ele>562.8</ele>
        <time>2023-09-03T08:53:40Z</time>
      </trkpt>
      <trkpt lat="48.10875" lon="6.67671">
        <ele>563</ele>
        <time>2023-09-03T08:53:41Z</time>
      </trkpt>
      <trkpt lat="48.10875" lon="6.67671">
        <ele>563.6</ele>
        <time>2023-09-03T08:53:42Z</time>
      </trkpt>
      <trkpt lat="48.10875" lon="6.67671">
        <ele>563.8</ele>
        <time>2023-09-03T08:53:43Z</time>
      </trkpt>
      <trkpt lat="48.10875" lon="6.67671">
        <ele>564</ele>
        <time>2023-09-03T08:53:44Z</time>
      </trkpt>
      <trkpt lat="48.10875" lon="6.67671">
        <ele>564.2</ele>
        <time>2023-09-03T08:53:45Z</time>
      </trkpt>
      <trkpt lat="48.10875" lon="6.67671">
        <ele>564.6</ele>
        <time>2023-09-03T08:53:46Z</time>
      </trkpt>
      <trkpt lat="48.10875" lon="6.67671">
        <ele>565</ele>
        <time>2023-09-03T08:53:47Z</time>
      </trkpt>
      <trkpt lat="48.10875" lon="6.67671">
        <ele>565.4</ele>
        <time>2023-09-03T08:53:48Z</time>
      </trkpt>
      <trkpt lat="48.10875" lon="6.67671">
        <ele>565.8</ele>
        <time>2023-09-03T08:53:49Z</time>
      </trkpt>
      <trkpt lat="48.10875" lon="6.67671">
        <ele>566</ele>
        <time>2023-09-03T08:53:50Z</time>
      </trkpt>
      <trkpt lat="48.10875" lon="6.67671">
        <ele>566.2</ele>
        <time>2023-09-03T08:53:51Z</time>
      </trkpt>
      <trkpt lat="48.10874" lon="6.67671">
        <ele>566.2</ele>
        <time>2023-09-03T08:53:52Z</time>
      </trkpt>
      <trkpt lat="48.10873" lon="6.67669">
        <ele>566.6</ele>
        <time>2023-09-03T08:53:53Z</time>
      </trkpt>
      <trkpt lat="48.10872" lon="6.67669">
        <ele>567</ele>
        <time>2023-09-03T08:53:54Z</time>
      </trkpt>
      <trkpt lat="48.10872" lon="6.67669">
        <ele>567.2</ele>
        <time>2023-09-03T08:53:55Z</time>
      </trkpt>
      <trkpt lat="48.10872" lon="6.67669">
        <ele>567.4</ele>
        <time>2023-09-03T08:53:56Z</time>
      </trkpt>
      <trkpt lat="48.10872" lon="6.67669">
        <ele>567.4</ele>
        <time>2023-09-03T08:53:57Z</time>
      </trkpt>
      <trkpt lat="48.10872" lon="6.67669">
        <ele>567.8</ele>
        <time>2023-09-03T08:53:58Z</time>
      </trkpt>
      <trkpt lat="48.10872" lon="6.67669">
        <ele>568</ele>
        <time>2023-09-03T08:53:59Z</time>
      </trkpt>
      <trkpt lat="48.10872" lon="6.67669">
        <ele>568.4</ele>
        <time>2023-09-03T08:54:00Z</time>
      </trkpt>
      <trkpt lat="48.10872" lon="6.67669">
        <ele>568.4</ele>
        <time>2023-09-03T08:54:01Z</time>
      </trkpt>
      <trkpt lat="48.10872" lon="6.67669">
        <ele>569</ele>
        <time>2023-09-03T08:54:02Z</time>
      </trkpt>
      <trkpt lat="48.10872" lon="6.67668">
        <ele>569.2</ele>
        <time>2023-09-03T08:54:03Z</time>
      </trkpt>
      <trkpt lat="48.1087" lon="6.67666">
        <ele>569.8</ele>
        <time>2023-09-03T08:54:04Z</time>
      </trkpt>
      <trkpt lat="48.10869" lon="6.67664">
        <ele>570.6</ele>
        <time>2023-09-03T08:54:05Z</time>
      </trkpt>
      <trkpt lat="48.10867" lon="6.67661">
        <ele>570.8</ele>
        <time>2023-09-03T08:54:06Z</time>
      </trkpt>
      <trkpt lat="48.10853" lon="6.67644">
        <ele>571.6</ele>
        <time>2023-09-03T08:54:15Z</time>
      </trkpt>
      <trkpt lat="48.10852" lon="6.6764">
        <ele>571.8</ele>
        <time>2023-09-03T08:54:16Z</time>
      </trkpt>
      <trkpt lat="48.10849" lon="6.67634">
        <ele>571.8</ele>
        <time>2023-09-03T08:54:17Z</time>
      </trkpt>
      <trkpt lat="48.10847" lon="6.67632">
        <ele>572</ele>
        <time>2023-09-03T08:54:18Z</time>
      </trkpt>
      <trkpt lat="48.10846" lon="6.67629">
        <ele>572</ele>
        <time>2023-09-03T08:54:19Z</time>
      </trkpt>
      <trkpt lat="48.10844" lon="6.67627">
        <ele>572.2</ele>
        <time>2023-09-03T08:54:20Z</time>
      </trkpt>
      <trkpt lat="48.10841" lon="6.67626">
        <ele>572.4</ele>
        <time>2023-09-03T08:54:21Z</time>
      </trkpt>
      <trkpt lat="48.10841" lon="6.67626">
        <ele>572.4</ele>
        <time>2023-09-03T08:54:22Z</time>
      </trkpt>
      <trkpt lat="48.10839" lon="6.67624">
        <ele>572.6</ele>
        <time>2023-09-03T08:54:23Z</time>
      </trkpt>
      <trkpt lat="48.10838" lon="6.67621">
        <ele>572.8</ele>
        <time>2023-09-03T08:54:24Z</time>
      </trkpt>
      <trkpt lat="48.10837" lon="6.67617">
        <ele>572.8</ele>
        <time>2023-09-03T08:54:25Z</time>
      </trkpt>
      <trkpt lat="48.10835" lon="6.67613">
        <ele>573</ele>
        <time>2023-09-03T08:54:26Z</time>
      </trkpt>
      <trkpt lat="48.10834" lon="6.67611">
        <ele>573.4</ele>
        <time>2023-09-03T08:54:27Z</time>
      </trkpt>
      <trkpt lat="48.10831" lon="6.6761">
        <ele>573.6</ele>
        <time>2023-09-03T08:54:28Z</time>
      </trkpt>
      <trkpt lat="48.10831" lon="6.67608">
        <ele>574</ele>
        <time>2023-09-03T08:54:29Z</time>
      </trkpt>
      <trkpt lat="48.10831" lon="6.67608">
        <ele>574.2</ele>
        <time>2023-09-03T08:54:30Z</time>
      </trkpt>
      <trkpt lat="48.10831" lon="6.67606">
        <ele>574.4</ele>
        <time>2023-09-03T08:54:31Z</time>
      </trkpt>
      <trkpt lat="48.10831" lon="6.67605">
        <ele>574.6</ele>
        <time>2023-09-03T08:54:32Z</time>
      </trkpt>
      <trkpt lat="48.1083" lon="6.67603">
        <ele>574.8</ele>
        <time>2023-09-03T08:54:33Z</time>
      </trkpt>
      <trkpt lat="48.10829" lon="6.67601">
        <ele>575</ele>
        <time>2023-09-03T08:54:34Z</time>
      </trkpt>
      <trkpt lat="48.10827" lon="6.676">
        <ele>575.4</ele>
        <time>2023-09-03T08:54:35Z</time>
      </trkpt>
      <trkpt lat="48.10826" lon="6.67599">
        <ele>575.6</ele>
        <time>2023-09-03T08:54:36Z</time>
      </trkpt>
      <trkpt lat="48.10826" lon="6.67597">
        <ele>575.8</ele>
        <time>2023-09-03T08:54:37Z</time>
      </trkpt>
      <trkpt lat="48.10826" lon="6.67596">
        <ele>576.2</ele>
        <time>2023-09-03T08:54:38Z</time>
      </trkpt>
      <trkpt lat="48.10824" lon="6.67595">
        <ele>576.4</ele>
        <time>2023-09-03T08:54:39Z</time>
      </trkpt>
      <trkpt lat="48.10823" lon="6.67591">
        <ele>576.6</ele>
        <time>2023-09-03T08:54:40Z</time>
      </trkpt>
      <trkpt lat="48.10823" lon="6.67588">
        <ele>576.8</ele>
        <time>2023-09-03T08:54:41Z</time>
      </trkpt>
      <trkpt lat="48.10822" lon="6.67586">
        <ele>577</ele>
        <time>2023-09-03T08:54:42Z</time>
      </trkpt>
      <trkpt lat="48.1082" lon="6.67584">
        <ele>578.2</ele>
        <time>2023-09-03T08:54:49Z</time>
      </trkpt>
      <trkpt lat="48.10818" lon="6.67583">
        <ele>578.4</ele>
        <time>2023-09-03T08:54:50Z</time>
      </trkpt>
      <trkpt lat="48.10817" lon="6.67581">
        <ele>578.6</ele>
        <time>2023-09-03T08:54:51Z</time>
      </trkpt>
      <trkpt lat="48.10816" lon="6.6758">
        <ele>578.8</ele>
        <time>2023-09-03T08:54:52Z</time>
      </trkpt>
      <trkpt lat="48.10815" lon="6.67577">
        <ele>578.8</ele>
        <time>2023-09-03T08:54:53Z</time>
      </trkpt>
      <trkpt lat="48.10815" lon="6.67576">
        <ele>579</ele>
        <time>2023-09-03T08:54:54Z</time>
      </trkpt>
      <trkpt lat="48.10813" lon="6.67575">
        <ele>579</ele>
        <time>2023-09-03T08:54:55Z</time>
      </trkpt>
      <trkpt lat="48.10811" lon="6.67573">
        <ele>579.2</ele>
        <time>2023-09-03T08:54:56Z</time>
      </trkpt>
      <trkpt lat="48.10809" lon="6.67572">
        <ele>579.4</ele>
        <time>2023-09-03T08:54:57Z</time>
      </trkpt>
      <trkpt lat="48.10808" lon="6.67571">
        <ele>579.4</ele>
        <time>2023-09-03T08:54:58Z</time>
      </trkpt>
      <trkpt lat="48.10808" lon="6.6757">
        <ele>579.6</ele>
        <time>2023-09-03T08:54:59Z</time>
      </trkpt>
      <trkpt lat="48.10807" lon="6.67569">
        <ele>579.8</ele>
        <time>2023-09-03T08:55:00Z</time>
      </trkpt>
      <trkpt lat="48.10806" lon="6.67568">
        <ele>580</ele>
        <time>2023-09-03T08:55:01Z</time>
      </trkpt>
      <trkpt lat="48.10805" lon="6.67566">
        <ele>580.2</ele>
        <time>2023-09-03T08:55:02Z</time>
      </trkpt>
      <trkpt lat="48.10804" lon="6.67565">
        <ele>580.2</ele>
        <time>2023-09-03T08:55:03Z</time>
      </trkpt>
      <trkpt lat="48.10802" lon="6.67565">
        <ele>580.4</ele>
        <time>2023-09-03T08:55:04Z</time>
      </trkpt>
      <trkpt lat="48.10802" lon="6.67563">
        <ele>580.6</ele>
        <time>2023-09-03T08:55:05Z</time>
      </trkpt>
      <trkpt lat="48.10801" lon="6.67562">
        <ele>581</ele>
        <time>2023-09-03T08:55:06Z</time>
      </trkpt>
      <trkpt lat="48.108" lon="6.67562">
        <ele>581.2</ele>
        <time>2023-09-03T08:55:07Z</time>
      </trkpt>
      <trkpt lat="48.10798" lon="6.67561">
        <ele>581.4</ele>
        <time>2023-09-03T08:55:08Z</time>
      </trkpt>
      <trkpt lat="48.10797" lon="6.67561">
        <ele>581.6</ele>
        <time>2023-09-03T08:55:09Z</time>
      </trkpt>
      <trkpt lat="48.10795" lon="6.6756">
        <ele>582</ele>
        <time>2023-09-03T08:55:10Z</time>
      </trkpt>
      <trkpt lat="48.10794" lon="6.67559">
        <ele>582.2</ele>
        <time>2023-09-03T08:55:11Z</time>
      </trkpt>
      <trkpt lat="48.10793" lon="6.67557">
        <ele>583</ele>
        <time>2023-09-03T08:55:12Z</time>
      </trkpt>
      <trkpt lat="48.10793" lon="6.67556">
        <ele>583.2</ele>
        <time>2023-09-03T08:55:13Z</time>
      </trkpt>
      <trkpt lat="48.10792" lon="6.67554">
        <ele>583.4</ele>
        <time>2023-09-03T08:55:14Z</time>
      </trkpt>
      <trkpt lat="48.10792" lon="6.67553">
        <ele>583.8</ele>
        <time>2023-09-03T08:55:15Z</time>
      </trkpt>
      <trkpt lat="48.10791" lon="6.67552">
        <ele>584</ele>
        <time>2023-09-03T08:55:16Z</time>
      </trkpt>
      <trkpt lat="48.1079" lon="6.6755">
        <ele>584.2</ele>
        <time>2023-09-03T08:55:17Z</time>
      </trkpt>
      <trkpt lat="48.10789" lon="6.67549">
        <ele>584.4</ele>
        <time>2023-09-03T08:55:18Z</time>
      </trkpt>
      <trkpt lat="48.10789" lon="6.67546">
        <ele>584.6</ele>
        <time>2023-09-03T08:55:19Z</time>
      </trkpt>
      <trkpt lat="48.10788" lon="6.67545">
        <ele>584.8</ele>
        <time>2023-09-03T08:55:20Z</time>
      </trkpt>
      <trkpt lat="48.10787" lon="6.67544">
        <ele>584.8</ele>
        <time>2023-09-03T08:55:21Z</time>
      </trkpt>
      <trkpt lat="48.10787" lon="6.67542">
        <ele>585</ele>
        <time>2023-09-03T08:55:22Z</time>
      </trkpt>
      <trkpt lat="48.10787" lon="6.67541">
        <ele>585.2</ele>
        <time>2023-09-03T08:55:23Z</time>
      </trkpt>
      <trkpt lat="48.10785" lon="6.67539">
        <ele>585.6</ele>
        <time>2023-09-03T08:55:24Z</time>
      </trkpt>
      <trkpt lat="48.10784" lon="6.67538">
        <ele>585.6</ele>
        <time>2023-09-03T08:55:25Z</time>
      </trkpt>
      <trkpt lat="48.10783" lon="6.67536">
        <ele>585.8</ele>
        <time>2023-09-03T08:55:26Z</time>
      </trkpt>
      <trkpt lat="48.10783" lon="6.67534">
        <ele>585.8</ele>
        <time>2023-09-03T08:55:27Z</time>
      </trkpt>
      <trkpt lat="48.10782" lon="6.67532">
        <ele>586.2</ele>
        <time>2023-09-03T08:55:28Z</time>
      </trkpt>
      <trkpt lat="48.10781" lon="6.6753">
        <ele>586.2</ele>
        <time>2023-09-03T08:55:29Z</time>
      </trkpt>
      <trkpt lat="48.1078" lon="6.67529">
        <ele>586.4</ele>
        <time>2023-09-03T08:55:30Z</time>
      </trkpt>
      <trkpt lat="48.10779" lon="6.67528">
        <ele>586.6</ele>
        <time>2023-09-03T08:55:31Z</time>
      </trkpt>
      <trkpt lat="48.10777" lon="6.67527">
        <ele>587</ele>
        <time>2023-09-03T08:55:32Z</time>
      </trkpt>
      <trkpt lat="48.10776" lon="6.67526">
        <ele>587</ele>
        <time>2023-09-03T08:55:33Z</time>
      </trkpt>
      <trkpt lat="48.10774" lon="6.67524">
        <ele>587.2</ele>
        <time>2023-09-03T08:55:34Z</time>
      </trkpt>
      <trkpt lat="48.10774" lon="6.67523">
        <ele>587.4</ele>
        <time>2023-09-03T08:55:35Z</time>
      </trkpt>
      <trkpt lat="48.10773" lon="6.67522">
        <ele>587.8</ele>
        <time>2023-09-03T08:55:36Z</time>
      </trkpt>
      <trkpt lat="48.10772" lon="6.6752">
        <ele>588</ele>
        <time>2023-09-03T08:55:37Z</time>
      </trkpt>
      <trkpt lat="48.10772" lon="6.67519">
        <ele>588.2</ele>
        <time>2023-09-03T08:55:38Z</time>
      </trkpt>
      <trkpt lat="48.10771" lon="6.67517">
        <ele>588.2</ele>
        <time>2023-09-03T08:55:39Z</time>
      </trkpt>
      <trkpt lat="48.10769" lon="6.67516">
        <ele>588.4</ele>
        <time>2023-09-03T08:55:40Z</time>
      </trkpt>
      <trkpt lat="48.10769" lon="6.67515">
        <ele>588.6</ele>
        <time>2023-09-03T08:55:41Z</time>
      </trkpt>
      <trkpt lat="48.10767" lon="6.67514">
        <ele>588.8</ele>
        <time>2023-09-03T08:55:42Z</time>
      </trkpt>
      <trkpt lat="48.10766" lon="6.67512">
        <ele>589</ele>
        <time>2023-09-03T08:55:43Z</time>
      </trkpt>
      <trkpt lat="48.10765" lon="6.67511">
        <ele>589</ele>
        <time>2023-09-03T08:55:44Z</time>
      </trkpt>
      <trkpt lat="48.10764" lon="6.67509">
        <ele>589.4</ele>
        <time>2023-09-03T08:55:45Z</time>
      </trkpt>
      <trkpt lat="48.10764" lon="6.67507">
        <ele>589.6</ele>
        <time>2023-09-03T08:55:46Z</time>
      </trkpt>
      <trkpt lat="48.10763" lon="6.67506">
        <ele>589.8</ele>
        <time>2023-09-03T08:55:47Z</time>
      </trkpt>
      <trkpt lat="48.10762" lon="6.67505">
        <ele>590.2</ele>
        <time>2023-09-03T08:55:48Z</time>
      </trkpt>
      <trkpt lat="48.10761" lon="6.67504">
        <ele>590.2</ele>
        <time>2023-09-03T08:55:49Z</time>
      </trkpt>
      <trkpt lat="48.1076" lon="6.67503">
        <ele>590.6</ele>
        <time>2023-09-03T08:55:50Z</time>
      </trkpt>
      <trkpt lat="48.10759" lon="6.67501">
        <ele>591</ele>
        <time>2023-09-03T08:55:51Z</time>
      </trkpt>
      <trkpt lat="48.10759" lon="6.67499">
        <ele>591.4</ele>
        <time>2023-09-03T08:55:52Z</time>
      </trkpt>
      <trkpt lat="48.10758" lon="6.67497">
        <ele>591.4</ele>
        <time>2023-09-03T08:55:53Z</time>
      </trkpt>
      <trkpt lat="48.10758" lon="6.67496">
        <ele>591.6</ele>
        <time>2023-09-03T08:55:54Z</time>
      </trkpt>
      <trkpt lat="48.10757" lon="6.67495">
        <ele>591.6</ele>
        <time>2023-09-03T08:55:55Z</time>
      </trkpt>
      <trkpt lat="48.10756" lon="6.67494">
        <ele>592</ele>
        <time>2023-09-03T08:55:56Z</time>
      </trkpt>
      <trkpt lat="48.10755" lon="6.67493">
        <ele>592.2</ele>
        <time>2023-09-03T08:55:57Z</time>
      </trkpt>
      <trkpt lat="48.10755" lon="6.67493">
        <ele>592.2</ele>
        <time>2023-09-03T08:55:58Z</time>
      </trkpt>
      <trkpt lat="48.10754" lon="6.67492">
        <ele>592.6</ele>
        <time>2023-09-03T08:55:59Z</time>
      </trkpt>
      <trkpt lat="48.10754" lon="6.67491">
        <ele>592.6</ele>
        <time>2023-09-03T08:56:00Z</time>
      </trkpt>
      <trkpt lat="48.10754" lon="6.67491">
        <ele>592.8</ele>
        <time>2023-09-03T08:56:01Z</time>
      </trkpt>
      <trkpt lat="48.10753" lon="6.67489">
        <ele>593</ele>
        <time>2023-09-03T08:56:02Z</time>
      </trkpt>
      <trkpt lat="48.10752" lon="6.67488">
        <ele>593.2</ele>
        <time>2023-09-03T08:56:03Z</time>
      </trkpt>
      <trkpt lat="48.10752" lon="6.67487">
        <ele>593.4</ele>
        <time>2023-09-03T08:56:04Z</time>
      </trkpt>
      <trkpt lat="48.10751" lon="6.67486">
        <ele>593.8</ele>
        <time>2023-09-03T08:56:05Z</time>
      </trkpt>
      <trkpt lat="48.10751" lon="6.67484">
        <ele>594</ele>
        <time>2023-09-03T08:56:06Z</time>
      </trkpt>
      <trkpt lat="48.10751" lon="6.67482">
        <ele>594.2</ele>
        <time>2023-09-03T08:56:07Z</time>
      </trkpt>
      <trkpt lat="48.10751" lon="6.6748">
        <ele>594.4</ele>
        <time>2023-09-03T08:56:08Z</time>
      </trkpt>
      <trkpt lat="48.1075" lon="6.67479">
        <ele>594.6</ele>
        <time>2023-09-03T08:56:09Z</time>
      </trkpt>
      <trkpt lat="48.10748" lon="6.67478">
        <ele>594.8</ele>
        <time>2023-09-03T08:56:10Z</time>
      </trkpt>
      <trkpt lat="48.10747" lon="6.67476">
        <ele>595.2</ele>
        <time>2023-09-03T08:56:11Z</time>
      </trkpt>
      <trkpt lat="48.10746" lon="6.67474">
        <ele>595.4</ele>
        <time>2023-09-03T08:56:12Z</time>
      </trkpt>
      <trkpt lat="48.10745" lon="6.67472">
        <ele>595.6</ele>
        <time>2023-09-03T08:56:13Z</time>
      </trkpt>
      <trkpt lat="48.10744" lon="6.6747">
        <ele>595.8</ele>
        <time>2023-09-03T08:56:14Z</time>
      </trkpt>
      <trkpt lat="48.10743" lon="6.67469">
        <ele>596</ele>
        <time>2023-09-03T08:56:15Z</time>
      </trkpt>
      <trkpt lat="48.10743" lon="6.67468">
        <ele>596.6</ele>
        <time>2023-09-03T08:56:16Z</time>
      </trkpt>
      <trkpt lat="48.10742" lon="6.67468">
        <ele>596.8</ele>
        <time>2023-09-03T08:56:17Z</time>
      </trkpt>
      <trkpt lat="48.10741" lon="6.67467">
        <ele>597.2</ele>
        <time>2023-09-03T08:56:18Z</time>
      </trkpt>
      <trkpt lat="48.1074" lon="6.67467">
        <ele>597.4</ele>
        <time>2023-09-03T08:56:19Z</time>
      </trkpt>
      <trkpt lat="48.10739" lon="6.67466">
        <ele>597.8</ele>
        <time>2023-09-03T08:56:20Z</time>
      </trkpt>
      <trkpt lat="48.10738" lon="6.67465">
        <ele>598</ele>
        <time>2023-09-03T08:56:21Z</time>
      </trkpt>
      <trkpt lat="48.10737" lon="6.67464">
        <ele>598.4</ele>
        <time>2023-09-03T08:56:22Z</time>
      </trkpt>
      <trkpt lat="48.10736" lon="6.67463">
        <ele>598.8</ele>
        <time>2023-09-03T08:56:23Z</time>
      </trkpt>
      <trkpt lat="48.10735" lon="6.67463">
        <ele>598.8</ele>
        <time>2023-09-03T08:56:24Z</time>
      </trkpt>
      <trkpt lat="48.10734" lon="6.67463">
        <ele>599</ele>
        <time>2023-09-03T08:56:25Z</time>
      </trkpt>
      <trkpt lat="48.10733" lon="6.67463">
        <ele>599.2</ele>
        <time>2023-09-03T08:56:26Z</time>
      </trkpt>
      <trkpt lat="48.10733" lon="6.67462">
        <ele>599.6</ele>
        <time>2023-09-03T08:56:27Z</time>
      </trkpt>
      <trkpt lat="48.10733" lon="6.67461">
        <ele>599.8</ele>
        <time>2023-09-03T08:56:28Z</time>
      </trkpt>
      <trkpt lat="48.10733" lon="6.67458">
        <ele>600.2</ele>
        <time>2023-09-03T08:56:29Z</time>
      </trkpt>
      <trkpt lat="48.10733" lon="6.67456">
        <ele>600.2</ele>
        <time>2023-09-03T08:56:30Z</time>
      </trkpt>
      <trkpt lat="48.10733" lon="6.67452">
        <ele>600.4</ele>
        <time>2023-09-03T08:56:31Z</time>
      </trkpt>
      <trkpt lat="48.10733" lon="6.6745">
        <ele>600.6</ele>
        <time>2023-09-03T08:56:32Z</time>
      </trkpt>
      <trkpt lat="48.10732" lon="6.67447">
        <ele>600.6</ele>
        <time>2023-09-03T08:56:33Z</time>
      </trkpt>
      <trkpt lat="48.10732" lon="6.67446">
        <ele>601</ele>
        <time>2023-09-03T08:56:34Z</time>
      </trkpt>
      <trkpt lat="48.10729" lon="6.67444">
        <ele>601</ele>
        <time>2023-09-03T08:56:35Z</time>
      </trkpt>
      <trkpt lat="48.10725" lon="6.67442">
        <ele>601.4</ele>
        <time>2023-09-03T08:56:36Z</time>
      </trkpt>
      <trkpt lat="48.10725" lon="6.67442">
        <ele>601.4</ele>
        <time>2023-09-03T08:56:37Z</time>
      </trkpt>
      <trkpt lat="48.10721" lon="6.67439">
        <ele>601.6</ele>
        <time>2023-09-03T08:56:38Z</time>
      </trkpt>
      <trkpt lat="48.10719" lon="6.67438">
        <ele>601.8</ele>
        <time>2023-09-03T08:56:39Z</time>
      </trkpt>
      <trkpt lat="48.10719" lon="6.67437">
        <ele>602.2</ele>
        <time>2023-09-03T08:56:40Z</time>
      </trkpt>
      <trkpt lat="48.10719" lon="6.67437">
        <ele>602.4</ele>
        <time>2023-09-03T08:56:41Z</time>
      </trkpt>
      <trkpt lat="48.10719" lon="6.67436">
        <ele>602.6</ele>
        <time>2023-09-03T08:56:42Z</time>
      </trkpt>
      <trkpt lat="48.10718" lon="6.67435">
        <ele>603</ele>
        <time>2023-09-03T08:56:43Z</time>
      </trkpt>
      <trkpt lat="48.10718" lon="6.67434">
        <ele>603</ele>
        <time>2023-09-03T08:56:44Z</time>
      </trkpt>
      <trkpt lat="48.10716" lon="6.67433">
        <ele>603.4</ele>
        <time>2023-09-03T08:56:45Z</time>
      </trkpt>
      <trkpt lat="48.10716" lon="6.67432">
        <ele>603.6</ele>
        <time>2023-09-03T08:56:46Z</time>
      </trkpt>
      <trkpt lat="48.10716" lon="6.67432">
        <ele>603.8</ele>
        <time>2023-09-03T08:56:47Z</time>
      </trkpt>
      <trkpt lat="48.10715" lon="6.67432">
        <ele>603.8</ele>
        <time>2023-09-03T08:56:48Z</time>
      </trkpt>
      <trkpt lat="48.10714" lon="6.67432">
        <ele>604.2</ele>
        <time>2023-09-03T08:56:49Z</time>
      </trkpt>
      <trkpt lat="48.10714" lon="6.67432">
        <ele>604.6</ele>
        <time>2023-09-03T08:56:50Z</time>
      </trkpt>
      <trkpt lat="48.10714" lon="6.67432">
        <ele>605</ele>
        <time>2023-09-03T08:56:51Z</time>
      </trkpt>
      <trkpt lat="48.10713" lon="6.6743">
        <ele>605</ele>
        <time>2023-09-03T08:56:52Z</time>
      </trkpt>
      <trkpt lat="48.10712" lon="6.67429">
        <ele>605.4</ele>
        <time>2023-09-03T08:56:53Z</time>
      </trkpt>
      <trkpt lat="48.10712" lon="6.67429">
        <ele>605.6</ele>
        <time>2023-09-03T08:56:54Z</time>
      </trkpt>
      <trkpt lat="48.10712" lon="6.67429">
        <ele>605.8</ele>
        <time>2023-09-03T08:56:55Z</time>
      </trkpt>
      <trkpt lat="48.1071" lon="6.67428">
        <ele>606</ele>
        <time>2023-09-03T08:56:56Z</time>
      </trkpt>
      <trkpt lat="48.10708" lon="6.67428">
        <ele>606.2</ele>
        <time>2023-09-03T08:56:57Z</time>
      </trkpt>
      <trkpt lat="48.10707" lon="6.67429">
        <ele>606.6</ele>
        <time>2023-09-03T08:56:58Z</time>
      </trkpt>
      <trkpt lat="48.10707" lon="6.67429">
        <ele>606.6</ele>
        <time>2023-09-03T08:56:59Z</time>
      </trkpt>
      <trkpt lat="48.10707" lon="6.67429">
        <ele>606.8</ele>
        <time>2023-09-03T08:57:00Z</time>
      </trkpt>
      <trkpt lat="48.10707" lon="6.67429">
        <ele>607.2</ele>
        <time>2023-09-03T08:57:01Z</time>
      </trkpt>
      <trkpt lat="48.10707" lon="6.67429">
        <ele>607.6</ele>
        <time>2023-09-03T08:57:02Z</time>
      </trkpt>
      <trkpt lat="48.10707" lon="6.67429">
        <ele>607.6</ele>
        <time>2023-09-03T08:57:03Z</time>
      </trkpt>
      <trkpt lat="48.10707" lon="6.67429">
        <ele>608</ele>
        <time>2023-09-03T08:57:04Z</time>
      </trkpt>
      <trkpt lat="48.10707" lon="6.67429">
        <ele>608</ele>
        <time>2023-09-03T08:57:05Z</time>
      </trkpt>
      <trkpt lat="48.10707" lon="6.67429">
        <ele>608.4</ele>
        <time>2023-09-03T08:57:06Z</time>
      </trkpt>
      <trkpt lat="48.10705" lon="6.67426">
        <ele>608.6</ele>
        <time>2023-09-03T08:57:07Z</time>
      </trkpt>
      <trkpt lat="48.10705" lon="6.67425">
        <ele>608.8</ele>
        <time>2023-09-03T08:57:08Z</time>
      </trkpt>
      <trkpt lat="48.10703" lon="6.67423">
        <ele>609</ele>
        <time>2023-09-03T08:57:09Z</time>
      </trkpt>
      <trkpt lat="48.10699" lon="6.67422">
        <ele>609.2</ele>
        <time>2023-09-03T08:57:10Z</time>
      </trkpt>
      <trkpt lat="48.10696" lon="6.6742">
        <ele>609.4</ele>
        <time>2023-09-03T08:57:11Z</time>
      </trkpt>
      <trkpt lat="48.10694" lon="6.67418">
        <ele>609.6</ele>
        <time>2023-09-03T08:57:12Z</time>
      </trkpt>
      <trkpt lat="48.10694" lon="6.67418">
        <ele>609.8</ele>
        <time>2023-09-03T08:57:13Z</time>
      </trkpt>
      <trkpt lat="48.10691" lon="6.67415">
        <ele>610</ele>
        <time>2023-09-03T08:57:14Z</time>
      </trkpt>
      <trkpt lat="48.10687" lon="6.67412">
        <ele>610.4</ele>
        <time>2023-09-03T08:57:15Z</time>
      </trkpt>
      <trkpt lat="48.10685" lon="6.67412">
        <ele>610.6</ele>
        <time>2023-09-03T08:57:16Z</time>
      </trkpt>
      <trkpt lat="48.10684" lon="6.67412">
        <ele>610.8</ele>
        <time>2023-09-03T08:57:17Z</time>
      </trkpt>
      <trkpt lat="48.10683" lon="6.67411">
        <ele>611</ele>
        <time>2023-09-03T08:57:18Z</time>
      </trkpt>
      <trkpt lat="48.10683" lon="6.67411">
        <ele>611.2</ele>
        <time>2023-09-03T08:57:19Z</time>
      </trkpt>
      <trkpt lat="48.10681" lon="6.67411">
        <ele>611.6</ele>
        <time>2023-09-03T08:57:20Z</time>
      </trkpt>
      <trkpt lat="48.1068" lon="6.67411">
        <ele>611.6</ele>
        <time>2023-09-03T08:57:21Z</time>
      </trkpt>
      <trkpt lat="48.10676" lon="6.67407">
        <ele>611.8</ele>
        <time>2023-09-03T08:57:22Z</time>
      </trkpt>
      <trkpt lat="48.10673" lon="6.67405">
        <ele>612</ele>
        <time>2023-09-03T08:57:23Z</time>
      </trkpt>
      <trkpt lat="48.10671" lon="6.67403">
        <ele>612.2</ele>
        <time>2023-09-03T08:57:24Z</time>
      </trkpt>
      <trkpt lat="48.1067" lon="6.67402">
        <ele>612.4</ele>
        <time>2023-09-03T08:57:25Z</time>
      </trkpt>
      <trkpt lat="48.10666" lon="6.67402">
        <ele>612.4</ele>
        <time>2023-09-03T08:57:26Z</time>
      </trkpt>
      <trkpt lat="48.10664" lon="6.67404">
        <ele>612.4</ele>
        <time>2023-09-03T08:57:27Z</time>
      </trkpt>
      <trkpt lat="48.10664" lon="6.67403">
        <ele>612.6</ele>
        <time>2023-09-03T08:57:28Z</time>
      </trkpt>
      <trkpt lat="48.10663" lon="6.67403">
        <ele>612.6</ele>
        <time>2023-09-03T08:57:29Z</time>
      </trkpt>
      <trkpt lat="48.1066" lon="6.67402">
        <ele>612.8</ele>
        <time>2023-09-03T08:57:30Z</time>
      </trkpt>
      <trkpt lat="48.10657" lon="6.67402">
        <ele>613</ele>
        <time>2023-09-03T08:57:31Z</time>
      </trkpt>
      <trkpt lat="48.10655" lon="6.67403">
        <ele>613.2</ele>
        <time>2023-09-03T08:57:32Z</time>
      </trkpt>
      <trkpt lat="48.10653" lon="6.67404">
        <ele>613.4</ele>
        <time>2023-09-03T08:57:33Z</time>
      </trkpt>
      <trkpt lat="48.10653" lon="6.67404">
        <ele>613.4</ele>
        <time>2023-09-03T08:57:34Z</time>
      </trkpt>
      <trkpt lat="48.10652" lon="6.67404">
        <ele>613.4</ele>
        <time>2023-09-03T08:57:35Z</time>
      </trkpt>
      <trkpt lat="48.1065" lon="6.67402">
        <ele>613.6</ele>
        <time>2023-09-03T08:57:36Z</time>
      </trkpt>
      <trkpt lat="48.10646" lon="6.67403">
        <ele>613.6</ele>
        <time>2023-09-03T08:57:37Z</time>
      </trkpt>
      <trkpt lat="48.10643" lon="6.67403">
        <ele>613.8</ele>
        <time>2023-09-03T08:57:38Z</time>
      </trkpt>
      <trkpt lat="48.10641" lon="6.67403">
        <ele>614</ele>
        <time>2023-09-03T08:57:39Z</time>
      </trkpt>
      <trkpt lat="48.1064" lon="6.67401">
        <ele>614.2</ele>
        <time>2023-09-03T08:57:40Z</time>
      </trkpt>
      <trkpt lat="48.10638" lon="6.67399">
        <ele>614.2</ele>
        <time>2023-09-03T08:57:41Z</time>
      </trkpt>
      <trkpt lat="48.10637" lon="6.67398">
        <ele>614.4</ele>
        <time>2023-09-03T08:57:42Z</time>
      </trkpt>
      <trkpt lat="48.10636" lon="6.67397">
        <ele>614.4</ele>
        <time>2023-09-03T08:57:43Z</time>
      </trkpt>
      <trkpt lat="48.10635" lon="6.67397">
        <ele>614.6</ele>
        <time>2023-09-03T08:57:44Z</time>
      </trkpt>
      <trkpt lat="48.10634" lon="6.67397">
        <ele>614.6</ele>
        <time>2023-09-03T08:57:45Z</time>
      </trkpt>
      <trkpt lat="48.10633" lon="6.67397">
        <ele>614.8</ele>
        <time>2023-09-03T08:57:46Z</time>
      </trkpt>
      <trkpt lat="48.10632" lon="6.67396">
        <ele>614.8</ele>
        <time>2023-09-03T08:57:47Z</time>
      </trkpt>
      <trkpt lat="48.10631" lon="6.67395">
        <ele>615.2</ele>
        <time>2023-09-03T08:57:48Z</time>
      </trkpt>
      <trkpt lat="48.1063" lon="6.67395">
        <ele>615.2</ele>
        <time>2023-09-03T08:57:49Z</time>
      </trkpt>
      <trkpt lat="48.10629" lon="6.67394">
        <ele>615.4</ele>
        <time>2023-09-03T08:57:50Z</time>
      </trkpt>
      <trkpt lat="48.10627" lon="6.67394">
        <ele>615.6</ele>
        <time>2023-09-03T08:57:51Z</time>
      </trkpt>
      <trkpt lat="48.10626" lon="6.67395">
        <ele>615.8</ele>
        <time>2023-09-03T08:57:52Z</time>
      </trkpt>
      <trkpt lat="48.10624" lon="6.67395">
        <ele>616</ele>
        <time>2023-09-03T08:57:53Z</time>
      </trkpt>
      <trkpt lat="48.10623" lon="6.67394">
        <ele>616.2</ele>
        <time>2023-09-03T08:57:54Z</time>
      </trkpt>
      <trkpt lat="48.10622" lon="6.67394">
        <ele>616.4</ele>
        <time>2023-09-03T08:57:55Z</time>
      </trkpt>
      <trkpt lat="48.1062" lon="6.67394">
        <ele>616.4</ele>
        <time>2023-09-03T08:57:56Z</time>
      </trkpt>
      <trkpt lat="48.10619" lon="6.67393">
        <ele>616.6</ele>
        <time>2023-09-03T08:57:57Z</time>
      </trkpt>
      <trkpt lat="48.10617" lon="6.67393">
        <ele>616.6</ele>
        <time>2023-09-03T08:57:58Z</time>
      </trkpt>
      <trkpt lat="48.10616" lon="6.67393">
        <ele>617</ele>
        <time>2023-09-03T08:57:59Z</time>
      </trkpt>
      <trkpt lat="48.10614" lon="6.67393">
        <ele>617.2</ele>
        <time>2023-09-03T08:58:00Z</time>
      </trkpt>
      <trkpt lat="48.10613" lon="6.67393">
        <ele>617.4</ele>
        <time>2023-09-03T08:58:01Z</time>
      </trkpt>
      <trkpt lat="48.10613" lon="6.67393">
        <ele>617.6</ele>
        <time>2023-09-03T08:58:02Z</time>
      </trkpt>
      <trkpt lat="48.10612" lon="6.67394">
        <ele>618</ele>
        <time>2023-09-03T08:58:03Z</time>
      </trkpt>
      <trkpt lat="48.10612" lon="6.67394">
        <ele>618.4</ele>
        <time>2023-09-03T08:58:04Z</time>
      </trkpt>
      <trkpt lat="48.1061" lon="6.67393">
        <ele>618.8</ele>
        <time>2023-09-03T08:58:05Z</time>
      </trkpt>
      <trkpt lat="48.1061" lon="6.67392">
        <ele>619</ele>
        <time>2023-09-03T08:58:06Z</time>
      </trkpt>
      <trkpt lat="48.10609" lon="6.67392">
        <ele>619.4</ele>
        <time>2023-09-03T08:58:07Z</time>
      </trkpt>
      <trkpt lat="48.10606" lon="6.67391">
        <ele>619.6</ele>
        <time>2023-09-03T08:58:08Z</time>
      </trkpt>
      <trkpt lat="48.10606" lon="6.6739">
        <ele>619.8</ele>
        <time>2023-09-03T08:58:09Z</time>
      </trkpt>
      <trkpt lat="48.10605" lon="6.6739">
        <ele>620</ele>
        <time>2023-09-03T08:58:10Z</time>
      </trkpt>
      <trkpt lat="48.10603" lon="6.67389">
        <ele>620</ele>
        <time>2023-09-03T08:58:11Z</time>
      </trkpt>
      <trkpt lat="48.10601" lon="6.67389">
        <ele>620.2</ele>
        <time>2023-09-03T08:58:12Z</time>
      </trkpt>
      <trkpt lat="48.10598" lon="6.67389">
        <ele>620.4</ele>
        <time>2023-09-03T08:58:13Z</time>
      </trkpt>
      <trkpt lat="48.10596" lon="6.67389">
        <ele>620.4</ele>
        <time>2023-09-03T08:58:14Z</time>
      </trkpt>
      <trkpt lat="48.10594" lon="6.6739">
        <ele>620.6</ele>
        <time>2023-09-03T08:58:15Z</time>
      </trkpt>
      <trkpt lat="48.10592" lon="6.67389">
        <ele>621</ele>
        <time>2023-09-03T08:58:16Z</time>
      </trkpt>
      <trkpt lat="48.1059" lon="6.67388">
        <ele>621.2</ele>
        <time>2023-09-03T08:58:17Z</time>
      </trkpt>
      <trkpt lat="48.1059" lon="6.67388">
        <ele>621.2</ele>
        <time>2023-09-03T08:58:18Z</time>
      </trkpt>
      <trkpt lat="48.1059" lon="6.67388">
        <ele>621.4</ele>
        <time>2023-09-03T08:58:19Z</time>
      </trkpt>
      <trkpt lat="48.10588" lon="6.67386">
        <ele>621.6</ele>
        <time>2023-09-03T08:58:20Z</time>
      </trkpt>
      <trkpt lat="48.10581" lon="6.67388">
        <ele>621.6</ele>
        <time>2023-09-03T08:58:21Z</time>
      </trkpt>
      <trkpt lat="48.10579" lon="6.67386">
        <ele>621.8</ele>
        <time>2023-09-03T08:58:22Z</time>
      </trkpt>
      <trkpt lat="48.10576" lon="6.67384">
        <ele>622</ele>
        <time>2023-09-03T08:58:23Z</time>
      </trkpt>
      <trkpt lat="48.10572" lon="6.67384">
        <ele>622.2</ele>
        <time>2023-09-03T08:58:24Z</time>
      </trkpt>
      <trkpt lat="48.10568" lon="6.67385">
        <ele>622.4</ele>
        <time>2023-09-03T08:58:25Z</time>
      </trkpt>
      <trkpt lat="48.10565" lon="6.67384">
        <ele>622.6</ele>
        <time>2023-09-03T08:58:26Z</time>
      </trkpt>
      <trkpt lat="48.10559" lon="6.67385">
        <ele>622.8</ele>
        <time>2023-09-03T08:58:27Z</time>
      </trkpt>
      <trkpt lat="48.10556" lon="6.67386">
        <ele>622.8</ele>
        <time>2023-09-03T08:58:28Z</time>
      </trkpt>
      <trkpt lat="48.10553" lon="6.67386">
        <ele>623</ele>
        <time>2023-09-03T08:58:29Z</time>
      </trkpt>
      <trkpt lat="48.10551" lon="6.67386">
        <ele>623</ele>
        <time>2023-09-03T08:58:30Z</time>
      </trkpt>
      <trkpt lat="48.10548" lon="6.67387">
        <ele>623</ele>
        <time>2023-09-03T08:58:31Z</time>
      </trkpt>
      <trkpt lat="48.10546" lon="6.67387">
        <ele>623.2</ele>
        <time>2023-09-03T08:58:32Z</time>
      </trkpt>
      <trkpt lat="48.10544" lon="6.6739">
        <ele>623.2</ele>
        <time>2023-09-03T08:58:33Z</time>
      </trkpt>
      <trkpt lat="48.10543" lon="6.67391">
        <ele>623.2</ele>
        <time>2023-09-03T08:58:34Z</time>
      </trkpt>
      <trkpt lat="48.10542" lon="6.67391">
        <ele>623.4</ele>
        <time>2023-09-03T08:58:35Z</time>
      </trkpt>
      <trkpt lat="48.10541" lon="6.67391">
        <ele>623.4</ele>
        <time>2023-09-03T08:58:36Z</time>
      </trkpt>
      <trkpt lat="48.1054" lon="6.67391">
        <ele>623.6</ele>
        <time>2023-09-03T08:58:37Z</time>
      </trkpt>
      <trkpt lat="48.10539" lon="6.6739">
        <ele>623.6</ele>
        <time>2023-09-03T08:58:38Z</time>
      </trkpt>
      <trkpt lat="48.10539" lon="6.6739">
        <ele>623.8</ele>
        <time>2023-09-03T08:58:39Z</time>
      </trkpt>
      <trkpt lat="48.10539" lon="6.6739">
        <ele>624</ele>
        <time>2023-09-03T08:58:40Z</time>
      </trkpt>
      <trkpt lat="48.10538" lon="6.6739">
        <ele>624.2</ele>
        <time>2023-09-03T08:58:41Z</time>
      </trkpt>
      <trkpt lat="48.10537" lon="6.6739">
        <ele>624.6</ele>
        <time>2023-09-03T08:58:42Z</time>
      </trkpt>
      <trkpt lat="48.10536" lon="6.6739">
        <ele>625</ele>
        <time>2023-09-03T08:58:43Z</time>
      </trkpt>
      <trkpt lat="48.10535" lon="6.67389">
        <ele>625</ele>
        <time>2023-09-03T08:58:44Z</time>
      </trkpt>
      <trkpt lat="48.10533" lon="6.67389">
        <ele>625.4</ele>
        <time>2023-09-03T08:58:45Z</time>
      </trkpt>
      <trkpt lat="48.10531" lon="6.67388">
        <ele>625.4</ele>
        <time>2023-09-03T08:58:46Z</time>
      </trkpt>
      <trkpt lat="48.10529" lon="6.67388">
        <ele>625.6</ele>
        <time>2023-09-03T08:58:47Z</time>
      </trkpt>
      <trkpt lat="48.10528" lon="6.67389">
        <ele>625.8</ele>
        <time>2023-09-03T08:58:48Z</time>
      </trkpt>
      <trkpt lat="48.10527" lon="6.67388">
        <ele>625.8</ele>
        <time>2023-09-03T08:58:49Z</time>
      </trkpt>
      <trkpt lat="48.10525" lon="6.67389">
        <ele>626</ele>
        <time>2023-09-03T08:58:50Z</time>
      </trkpt>
      <trkpt lat="48.10524" lon="6.67389">
        <ele>626</ele>
        <time>2023-09-03T08:58:51Z</time>
      </trkpt>
      <trkpt lat="48.10523" lon="6.67389">
        <ele>626.2</ele>
        <time>2023-09-03T08:58:52Z</time>
      </trkpt>
      <trkpt lat="48.10521" lon="6.6739">
        <ele>626.6</ele>
        <time>2023-09-03T08:58:53Z</time>
      </trkpt>
      <trkpt lat="48.10519" lon="6.6739">
        <ele>626.8</ele>
        <time>2023-09-03T08:58:54Z</time>
      </trkpt>
      <trkpt lat="48.10517" lon="6.6739">
        <ele>626.8</ele>
        <time>2023-09-03T08:58:55Z</time>
      </trkpt>
      <trkpt lat="48.10515" lon="6.6739">
        <ele>627.4</ele>
        <time>2023-09-03T08:58:56Z</time>
      </trkpt>
      <trkpt lat="48.10514" lon="6.6739">
        <ele>627.6</ele>
        <time>2023-09-03T08:58:57Z</time>
      </trkpt>
      <trkpt lat="48.10512" lon="6.67389">
        <ele>628</ele>
        <time>2023-09-03T08:58:58Z</time>
      </trkpt>
      <trkpt lat="48.10511" lon="6.67388">
        <ele>628.2</ele>
        <time>2023-09-03T08:58:59Z</time>
      </trkpt>
      <trkpt lat="48.1051" lon="6.67388">
        <ele>628.4</ele>
        <time>2023-09-03T08:59:00Z</time>
      </trkpt>
      <trkpt lat="48.10509" lon="6.67386">
        <ele>628.8</ele>
        <time>2023-09-03T08:59:01Z</time>
      </trkpt>
      <trkpt lat="48.10508" lon="6.67385">
        <ele>628.8</ele>
        <time>2023-09-03T08:59:02Z</time>
      </trkpt>
      <trkpt lat="48.10507" lon="6.67384">
        <ele>628.8</ele>
        <time>2023-09-03T08:59:03Z</time>
      </trkpt>
      <trkpt lat="48.10505" lon="6.67384">
        <ele>629</ele>
        <time>2023-09-03T08:59:04Z</time>
      </trkpt>
      <trkpt lat="48.10503" lon="6.67384">
        <ele>629</ele>
        <time>2023-09-03T08:59:05Z</time>
      </trkpt>
      <trkpt lat="48.10502" lon="6.67384">
        <ele>629</ele>
        <time>2023-09-03T08:59:06Z</time>
      </trkpt>
      <trkpt lat="48.105" lon="6.67383">
        <ele>629.2</ele>
        <time>2023-09-03T08:59:07Z</time>
      </trkpt>
      <trkpt lat="48.10498" lon="6.67383">
        <ele>629.4</ele>
        <time>2023-09-03T08:59:08Z</time>
      </trkpt>
      <trkpt lat="48.10497" lon="6.67383">
        <ele>629.6</ele>
        <time>2023-09-03T08:59:09Z</time>
      </trkpt>
      <trkpt lat="48.10495" lon="6.67382">
        <ele>629.8</ele>
        <time>2023-09-03T08:59:10Z</time>
      </trkpt>
      <trkpt lat="48.10494" lon="6.67382">
        <ele>629.8</ele>
        <time>2023-09-03T08:59:11Z</time>
      </trkpt>
      <trkpt lat="48.10492" lon="6.67382">
        <ele>630</ele>
        <time>2023-09-03T08:59:12Z</time>
      </trkpt>
      <trkpt lat="48.10491" lon="6.67382">
        <ele>630</ele>
        <time>2023-09-03T08:59:13Z</time>
      </trkpt>
      <trkpt lat="48.1049" lon="6.67382">
        <ele>630.2</ele>
        <time>2023-09-03T08:59:14Z</time>
      </trkpt>
      <trkpt lat="48.10488" lon="6.67381">
        <ele>630.4</ele>
        <time>2023-09-03T08:59:15Z</time>
      </trkpt>
      <trkpt lat="48.10486" lon="6.6738">
        <ele>630.6</ele>
        <time>2023-09-03T08:59:16Z</time>
      </trkpt>
      <trkpt lat="48.10485" lon="6.67379">
        <ele>630.6</ele>
        <time>2023-09-03T08:59:17Z</time>
      </trkpt>
      <trkpt lat="48.10483" lon="6.67378">
        <ele>630.8</ele>
        <time>2023-09-03T08:59:18Z</time>
      </trkpt>
      <trkpt lat="48.10482" lon="6.67377">
        <ele>630.8</ele>
        <time>2023-09-03T08:59:19Z</time>
      </trkpt>
      <trkpt lat="48.10481" lon="6.67377">
        <ele>631</ele>
        <time>2023-09-03T08:59:20Z</time>
      </trkpt>
      <trkpt lat="48.1048" lon="6.67376">
        <ele>631.4</ele>
        <time>2023-09-03T08:59:21Z</time>
      </trkpt>
      <trkpt lat="48.10479" lon="6.67376">
        <ele>631.6</ele>
        <time>2023-09-03T08:59:22Z</time>
      </trkpt>
      <trkpt lat="48.10478" lon="6.67375">
        <ele>631.8</ele>
        <time>2023-09-03T08:59:23Z</time>
      </trkpt>
      <trkpt lat="48.10476" lon="6.67374">
        <ele>632</ele>
        <time>2023-09-03T08:59:24Z</time>
      </trkpt>
      <trkpt lat="48.10476" lon="6.67374">
        <ele>632.2</ele>
        <time>2023-09-03T08:59:25Z</time>
      </trkpt>
      <trkpt lat="48.10472" lon="6.67374">
        <ele>632.2</ele>
        <time>2023-09-03T08:59:26Z</time>
      </trkpt>
      <trkpt lat="48.10469" lon="6.67373">
        <ele>632.4</ele>
        <time>2023-09-03T08:59:27Z</time>
      </trkpt>
      <trkpt lat="48.10467" lon="6.67373">
        <ele>632.4</ele>
        <time>2023-09-03T08:59:28Z</time>
      </trkpt>
      <trkpt lat="48.10465" lon="6.67373">
        <ele>632.6</ele>
        <time>2023-09-03T08:59:29Z</time>
      </trkpt>
      <trkpt lat="48.10463" lon="6.67372">
        <ele>632.8</ele>
        <time>2023-09-03T08:59:30Z</time>
      </trkpt>
      <trkpt lat="48.10463" lon="6.67372">
        <ele>633</ele>
        <time>2023-09-03T08:59:31Z</time>
      </trkpt>
      <trkpt lat="48.10461" lon="6.67372">
        <ele>633.4</ele>
        <time>2023-09-03T08:59:32Z</time>
      </trkpt>
      <trkpt lat="48.1046" lon="6.67372">
        <ele>633.8</ele>
        <time>2023-09-03T08:59:33Z</time>
      </trkpt>
      <trkpt lat="48.10459" lon="6.67372">
        <ele>634</ele>
        <time>2023-09-03T08:59:34Z</time>
      </trkpt>
      <trkpt lat="48.10458" lon="6.67371">
        <ele>634.2</ele>
        <time>2023-09-03T08:59:35Z</time>
      </trkpt>
      <trkpt lat="48.10456" lon="6.67369">
        <ele>634.4</ele>
        <time>2023-09-03T08:59:36Z</time>
      </trkpt>
      <trkpt lat="48.10455" lon="6.67368">
        <ele>634.6</ele>
        <time>2023-09-03T08:59:37Z</time>
      </trkpt>
      <trkpt lat="48.10454" lon="6.67367">
        <ele>634.8</ele>
        <time>2023-09-03T08:59:38Z</time>
      </trkpt>
      <trkpt lat="48.10453" lon="6.67365">
        <ele>634.8</ele>
        <time>2023-09-03T08:59:39Z</time>
      </trkpt>
      <trkpt lat="48.1045" lon="6.67364">
        <ele>635.4</ele>
        <time>2023-09-03T08:59:40Z</time>
      </trkpt>
      <trkpt lat="48.10445" lon="6.67362">
        <ele>637.8</ele>
        <time>2023-09-03T08:59:52Z</time>
      </trkpt>
      <trkpt lat="48.10445" lon="6.67361">
        <ele>638</ele>
        <time>2023-09-03T08:59:53Z</time>
      </trkpt>
      <trkpt lat="48.10445" lon="6.67361">
        <ele>638</ele>
        <time>2023-09-03T08:59:54Z</time>
      </trkpt>
      <trkpt lat="48.10444" lon="6.6736">
        <ele>638.2</ele>
        <time>2023-09-03T08:59:55Z</time>
      </trkpt>
      <trkpt lat="48.10443" lon="6.6736">
        <ele>638.2</ele>
        <time>2023-09-03T08:59:56Z</time>
      </trkpt>
      <trkpt lat="48.10443" lon="6.67359">
        <ele>638.4</ele>
        <time>2023-09-03T08:59:57Z</time>
      </trkpt>
      <trkpt lat="48.10443" lon="6.67359">
        <ele>638.6</ele>
        <time>2023-09-03T08:59:58Z</time>
      </trkpt>
      <trkpt lat="48.10442" lon="6.67359">
        <ele>638.6</ele>
        <time>2023-09-03T08:59:59Z</time>
      </trkpt>
      <trkpt lat="48.10441" lon="6.67357">
        <ele>639.2</ele>
        <time>2023-09-03T09:00:00Z</time>
      </trkpt>
      <trkpt lat="48.10441" lon="6.67357">
        <ele>639.4</ele>
        <time>2023-09-03T09:00:01Z</time>
      </trkpt>
      <trkpt lat="48.10441" lon="6.67357">
        <ele>639.6</ele>
        <time>2023-09-03T09:00:02Z</time>
      </trkpt>
      <trkpt lat="48.10441" lon="6.67357">
        <ele>639.6</ele>
        <time>2023-09-03T09:00:03Z</time>
      </trkpt>
      <trkpt lat="48.10441" lon="6.67357">
        <ele>639.8</ele>
        <time>2023-09-03T09:00:04Z</time>
      </trkpt>
      <trkpt lat="48.10441" lon="6.67357">
        <ele>640</ele>
        <time>2023-09-03T09:00:05Z</time>
      </trkpt>
      <trkpt lat="48.10441" lon="6.67357">
        <ele>640.2</ele>
        <time>2023-09-03T09:00:06Z</time>
      </trkpt>
      <trkpt lat="48.10441" lon="6.67356">
        <ele>640.4</ele>
        <time>2023-09-03T09:00:07Z</time>
      </trkpt>
      <trkpt lat="48.10441" lon="6.67355">
        <ele>640.4</ele>
        <time>2023-09-03T09:00:08Z</time>
      </trkpt>
      <trkpt lat="48.10439" lon="6.67354">
        <ele>640.6</ele>
        <time>2023-09-03T09:00:09Z</time>
      </trkpt>
      <trkpt lat="48.10439" lon="6.67354">
        <ele>640.6</ele>
        <time>2023-09-03T09:00:10Z</time>
      </trkpt>
      <trkpt lat="48.10439" lon="6.67354">
        <ele>641.4</ele>
        <time>2023-09-03T09:00:13Z</time>
      </trkpt>
      <trkpt lat="48.10439" lon="6.67354">
        <ele>641.6</ele>
        <time>2023-09-03T09:00:14Z</time>
      </trkpt>
      <trkpt lat="48.10437" lon="6.67353">
        <ele>642</ele>
        <time>2023-09-03T09:00:15Z</time>
      </trkpt>
      <trkpt lat="48.10435" lon="6.67352">
        <ele>642.2</ele>
        <time>2023-09-03T09:00:16Z</time>
      </trkpt>
      <trkpt lat="48.10433" lon="6.67351">
        <ele>642.4</ele>
        <time>2023-09-03T09:00:17Z</time>
      </trkpt>
      <trkpt lat="48.10432" lon="6.6735">
        <ele>642.4</ele>
        <time>2023-09-03T09:00:18Z</time>
      </trkpt>
      <trkpt lat="48.1043" lon="6.67349">
        <ele>642.8</ele>
        <time>2023-09-03T09:00:19Z</time>
      </trkpt>
      <trkpt lat="48.10429" lon="6.67348">
        <ele>642.8</ele>
        <time>2023-09-03T09:00:20Z</time>
      </trkpt>
      <trkpt lat="48.10428" lon="6.67347">
        <ele>643</ele>
        <time>2023-09-03T09:00:21Z</time>
      </trkpt>
      <trkpt lat="48.10426" lon="6.67347">
        <ele>643.2</ele>
        <time>2023-09-03T09:00:22Z</time>
      </trkpt>
      <trkpt lat="48.10425" lon="6.67347">
        <ele>643.4</ele>
        <time>2023-09-03T09:00:23Z</time>
      </trkpt>
      <trkpt lat="48.10425" lon="6.67347">
        <ele>643.4</ele>
        <time>2023-09-03T09:00:24Z</time>
      </trkpt>
      <trkpt lat="48.10423" lon="6.67346">
        <ele>644</ele>
        <time>2023-09-03T09:00:30Z</time>
      </trkpt>
      <trkpt lat="48.10421" lon="6.67345">
        <ele>644.2</ele>
        <time>2023-09-03T09:00:31Z</time>
      </trkpt>
      <trkpt lat="48.10421" lon="6.67345">
        <ele>644.2</ele>
        <time>2023-09-03T09:00:32Z</time>
      </trkpt>
      <trkpt lat="48.10421" lon="6.67345">
        <ele>644.2</ele>
        <time>2023-09-03T09:00:33Z</time>
      </trkpt>
      <trkpt lat="48.1042" lon="6.67345">
        <ele>644.2</ele>
        <time>2023-09-03T09:00:34Z</time>
      </trkpt>
      <trkpt lat="48.1042" lon="6.67345">
        <ele>644.4</ele>
        <time>2023-09-03T09:00:35Z</time>
      </trkpt>
      <trkpt lat="48.1042" lon="6.67345">
        <ele>644.4</ele>
        <time>2023-09-03T09:00:36Z</time>
      </trkpt>
      <trkpt lat="48.10419" lon="6.67344">
        <ele>644.6</ele>
        <time>2023-09-03T09:00:37Z</time>
      </trkpt>
      <trkpt lat="48.10416" lon="6.67343">
        <ele>644.8</ele>
        <time>2023-09-03T09:00:38Z</time>
      </trkpt>
      <trkpt lat="48.10411" lon="6.67343">
        <ele>645</ele>
        <time>2023-09-03T09:00:39Z</time>
      </trkpt>
      <trkpt lat="48.10406" lon="6.67342">
        <ele>645.2</ele>
        <time>2023-09-03T09:00:40Z</time>
      </trkpt>
      <trkpt lat="48.10404" lon="6.67341">
        <ele>645.4</ele>
        <time>2023-09-03T09:00:41Z</time>
      </trkpt>
      <trkpt lat="48.10402" lon="6.67341">
        <ele>645.4</ele>
        <time>2023-09-03T09:00:42Z</time>
      </trkpt>
      <trkpt lat="48.10402" lon="6.67341">
        <ele>645.8</ele>
        <time>2023-09-03T09:00:43Z</time>
      </trkpt>
      <trkpt lat="48.10401" lon="6.6734">
        <ele>646</ele>
        <time>2023-09-03T09:00:44Z</time>
      </trkpt>
      <trkpt lat="48.104" lon="6.6734">
        <ele>646</ele>
        <time>2023-09-03T09:00:45Z</time>
      </trkpt>
      <trkpt lat="48.10398" lon="6.67339">
        <ele>646.2</ele>
        <time>2023-09-03T09:00:46Z</time>
      </trkpt>
      <trkpt lat="48.10398" lon="6.67338">
        <ele>646.4</ele>
        <time>2023-09-03T09:00:47Z</time>
      </trkpt>
      <trkpt lat="48.10398" lon="6.67338">
        <ele>646.8</ele>
        <time>2023-09-03T09:00:48Z</time>
      </trkpt>
      <trkpt lat="48.10397" lon="6.67337">
        <ele>646.8</ele>
        <time>2023-09-03T09:00:49Z</time>
      </trkpt>
      <trkpt lat="48.10396" lon="6.67337">
        <ele>647</ele>
        <time>2023-09-03T09:00:50Z</time>
      </trkpt>
      <trkpt lat="48.10395" lon="6.67336">
        <ele>647.2</ele>
        <time>2023-09-03T09:00:51Z</time>
      </trkpt>
      <trkpt lat="48.10394" lon="6.67336">
        <ele>647.8</ele>
        <time>2023-09-03T09:00:52Z</time>
      </trkpt>
      <trkpt lat="48.10393" lon="6.67336">
        <ele>648</ele>
        <time>2023-09-03T09:00:53Z</time>
      </trkpt>
      <trkpt lat="48.10392" lon="6.67335">
        <ele>648.2</ele>
        <time>2023-09-03T09:00:54Z</time>
      </trkpt>
      <trkpt lat="48.10391" lon="6.67334">
        <ele>648.6</ele>
        <time>2023-09-03T09:00:55Z</time>
      </trkpt>
      <trkpt lat="48.1039" lon="6.67334">
        <ele>648.6</ele>
        <time>2023-09-03T09:00:56Z</time>
      </trkpt>
      <trkpt lat="48.10389" lon="6.67334">
        <ele>649</ele>
        <time>2023-09-03T09:00:57Z</time>
      </trkpt>
      <trkpt lat="48.10389" lon="6.67334">
        <ele>649.2</ele>
        <time>2023-09-03T09:00:58Z</time>
      </trkpt>
      <trkpt lat="48.10389" lon="6.67334">
        <ele>649.4</ele>
        <time>2023-09-03T09:00:59Z</time>
      </trkpt>
      <trkpt lat="48.10387" lon="6.67332">
        <ele>649.6</ele>
        <time>2023-09-03T09:01:00Z</time>
      </trkpt>
      <trkpt lat="48.10387" lon="6.67332">
        <ele>649.8</ele>
        <time>2023-09-03T09:01:01Z</time>
      </trkpt>
      <trkpt lat="48.10387" lon="6.67331">
        <ele>650</ele>
        <time>2023-09-03T09:01:02Z</time>
      </trkpt>
      <trkpt lat="48.10387" lon="6.67328">
        <ele>650.2</ele>
        <time>2023-09-03T09:01:03Z</time>
      </trkpt>
      <trkpt lat="48.10387" lon="6.67327">
        <ele>650.2</ele>
        <time>2023-09-03T09:01:04Z</time>
      </trkpt>
      <trkpt lat="48.10386" lon="6.67325">
        <ele>650.6</ele>
        <time>2023-09-03T09:01:05Z</time>
      </trkpt>
      <trkpt lat="48.10386" lon="6.67322">
        <ele>651</ele>
        <time>2023-09-03T09:01:06Z</time>
      </trkpt>
      <trkpt lat="48.10387" lon="6.67322">
        <ele>651.2</ele>
        <time>2023-09-03T09:01:07Z</time>
      </trkpt>
      <trkpt lat="48.10387" lon="6.6732">
        <ele>651.6</ele>
        <time>2023-09-03T09:01:08Z</time>
      </trkpt>
      <trkpt lat="48.10388" lon="6.67318">
        <ele>651.8</ele>
        <time>2023-09-03T09:01:09Z</time>
      </trkpt>
      <trkpt lat="48.10388" lon="6.67318">
        <ele>651.8</ele>
        <time>2023-09-03T09:01:10Z</time>
      </trkpt>
      <trkpt lat="48.10388" lon="6.67318">
        <ele>652</ele>
        <time>2023-09-03T09:01:11Z</time>
      </trkpt>
      <trkpt lat="48.10387" lon="6.67314">
        <ele>652.2</ele>
        <time>2023-09-03T09:01:12Z</time>
      </trkpt>
      <trkpt lat="48.10387" lon="6.6731">
        <ele>652.4</ele>
        <time>2023-09-03T09:01:13Z</time>
      </trkpt>
      <trkpt lat="48.10387" lon="6.67307">
        <ele>652.8</ele>
        <time>2023-09-03T09:01:14Z</time>
      </trkpt>
      <trkpt lat="48.10388" lon="6.67305">
        <ele>653</ele>
        <time>2023-09-03T09:01:15Z</time>
      </trkpt>
      <trkpt lat="48.10389" lon="6.67303">
        <ele>653.2</ele>
        <time>2023-09-03T09:01:16Z</time>
      </trkpt>
      <trkpt lat="48.1039" lon="6.67301">
        <ele>653.4</ele>
        <time>2023-09-03T09:01:17Z</time>
      </trkpt>
      <trkpt lat="48.1039" lon="6.67299">
        <ele>653.4</ele>
        <time>2023-09-03T09:01:18Z</time>
      </trkpt>
      <trkpt lat="48.10391" lon="6.67297">
        <ele>654</ele>
        <time>2023-09-03T09:01:19Z</time>
      </trkpt>
      <trkpt lat="48.10392" lon="6.67295">
        <ele>654.2</ele>
        <time>2023-09-03T09:01:20Z</time>
      </trkpt>
      <trkpt lat="48.10391" lon="6.67292">
        <ele>654.4</ele>
        <time>2023-09-03T09:01:21Z</time>
      </trkpt>
      <trkpt lat="48.10392" lon="6.67291">
        <ele>654.6</ele>
        <time>2023-09-03T09:01:22Z</time>
      </trkpt>
      <trkpt lat="48.10392" lon="6.67287">
        <ele>655</ele>
        <time>2023-09-03T09:01:23Z</time>
      </trkpt>
      <trkpt lat="48.10393" lon="6.67286">
        <ele>655</ele>
        <time>2023-09-03T09:01:24Z</time>
      </trkpt>
      <trkpt lat="48.10394" lon="6.67284">
        <ele>655.4</ele>
        <time>2023-09-03T09:01:25Z</time>
      </trkpt>
      <trkpt lat="48.10395" lon="6.67283">
        <ele>655.6</ele>
        <time>2023-09-03T09:01:26Z</time>
      </trkpt>
      <trkpt lat="48.10396" lon="6.67282">
        <ele>655.8</ele>
        <time>2023-09-03T09:01:27Z</time>
      </trkpt>
      <trkpt lat="48.10397" lon="6.6728">
        <ele>656</ele>
        <time>2023-09-03T09:01:28Z</time>
      </trkpt>
      <trkpt lat="48.10398" lon="6.67277">
        <ele>656.4</ele>
        <time>2023-09-03T09:01:29Z</time>
      </trkpt>
      <trkpt lat="48.10399" lon="6.67276">
        <ele>656.4</ele>
        <time>2023-09-03T09:01:30Z</time>
      </trkpt>
      <trkpt lat="48.104" lon="6.67273">
        <ele>656.6</ele>
        <time>2023-09-03T09:01:31Z</time>
      </trkpt>
      <trkpt lat="48.104" lon="6.67271">
        <ele>656.8</ele>
        <time>2023-09-03T09:01:32Z</time>
      </trkpt>
      <trkpt lat="48.10401" lon="6.67268">
        <ele>656.8</ele>
        <time>2023-09-03T09:01:33Z</time>
      </trkpt>
      <trkpt lat="48.10401" lon="6.67266">
        <ele>657.2</ele>
        <time>2023-09-03T09:01:34Z</time>
      </trkpt>
      <trkpt lat="48.10402" lon="6.67265">
        <ele>657.4</ele>
        <time>2023-09-03T09:01:35Z</time>
      </trkpt>
      <trkpt lat="48.10403" lon="6.67263">
        <ele>657.6</ele>
        <time>2023-09-03T09:01:36Z</time>
      </trkpt>
      <trkpt lat="48.10403" lon="6.67261">
        <ele>657.6</ele>
        <time>2023-09-03T09:01:37Z</time>
      </trkpt>
      <trkpt lat="48.10403" lon="6.6726">
        <ele>657.8</ele>
        <time>2023-09-03T09:01:38Z</time>
      </trkpt>
      <trkpt lat="48.10403" lon="6.67259">
        <ele>658</ele>
        <time>2023-09-03T09:01:39Z</time>
      </trkpt>
      <trkpt lat="48.10404" lon="6.67257">
        <ele>658.4</ele>
        <time>2023-09-03T09:01:40Z</time>
      </trkpt>
      <trkpt lat="48.10406" lon="6.67256">
        <ele>658.8</ele>
        <time>2023-09-03T09:01:41Z</time>
      </trkpt>
      <trkpt lat="48.10406" lon="6.67254">
        <ele>659</ele>
        <time>2023-09-03T09:01:42Z</time>
      </trkpt>
      <trkpt lat="48.10405" lon="6.67252">
        <ele>659.4</ele>
        <time>2023-09-03T09:01:43Z</time>
      </trkpt>
      <trkpt lat="48.10406" lon="6.6725">
        <ele>659.6</ele>
        <time>2023-09-03T09:01:44Z</time>
      </trkpt>
      <trkpt lat="48.10406" lon="6.67247">
        <ele>660</ele>
        <time>2023-09-03T09:01:45Z</time>
      </trkpt>
      <trkpt lat="48.10407" lon="6.67245">
        <ele>660</ele>
        <time>2023-09-03T09:01:46Z</time>
      </trkpt>
      <trkpt lat="48.10408" lon="6.67244">
        <ele>660.2</ele>
        <time>2023-09-03T09:01:47Z</time>
      </trkpt>
      <trkpt lat="48.10409" lon="6.67244">
        <ele>660.2</ele>
        <time>2023-09-03T09:01:48Z</time>
      </trkpt>
      <trkpt lat="48.1041" lon="6.67243">
        <ele>660.6</ele>
        <time>2023-09-03T09:01:49Z</time>
      </trkpt>
      <trkpt lat="48.1041" lon="6.67243">
        <ele>660.6</ele>
        <time>2023-09-03T09:01:50Z</time>
      </trkpt>
      <trkpt lat="48.10411" lon="6.67241">
        <ele>661</ele>
        <time>2023-09-03T09:01:51Z</time>
      </trkpt>
      <trkpt lat="48.10411" lon="6.67239">
        <ele>661.2</ele>
        <time>2023-09-03T09:01:52Z</time>
      </trkpt>
      <trkpt lat="48.10412" lon="6.67237">
        <ele>661.4</ele>
        <time>2023-09-03T09:01:53Z</time>
      </trkpt>
      <trkpt lat="48.10413" lon="6.67236">
        <ele>661.6</ele>
        <time>2023-09-03T09:01:54Z</time>
      </trkpt>
      <trkpt lat="48.10414" lon="6.67234">
        <ele>661.6</ele>
        <time>2023-09-03T09:01:55Z</time>
      </trkpt>
      <trkpt lat="48.10415" lon="6.67232">
        <ele>661.8</ele>
        <time>2023-09-03T09:01:56Z</time>
      </trkpt>
      <trkpt lat="48.10416" lon="6.67229">
        <ele>662</ele>
        <time>2023-09-03T09:01:57Z</time>
      </trkpt>
      <trkpt lat="48.10416" lon="6.67226">
        <ele>662.4</ele>
        <time>2023-09-03T09:01:58Z</time>
      </trkpt>
      <trkpt lat="48.10416" lon="6.67224">
        <ele>662.6</ele>
        <time>2023-09-03T09:01:59Z</time>
      </trkpt>
      <trkpt lat="48.10417" lon="6.67222">
        <ele>662.6</ele>
        <time>2023-09-03T09:02:00Z</time>
      </trkpt>
      <trkpt lat="48.10417" lon="6.67219">
        <ele>662.6</ele>
        <time>2023-09-03T09:02:01Z</time>
      </trkpt>
      <trkpt lat="48.10418" lon="6.67217">
        <ele>663</ele>
        <time>2023-09-03T09:02:02Z</time>
      </trkpt>
      <trkpt lat="48.10418" lon="6.67214">
        <ele>663.2</ele>
        <time>2023-09-03T09:02:03Z</time>
      </trkpt>
      <trkpt lat="48.10418" lon="6.67212">
        <ele>663.4</ele>
        <time>2023-09-03T09:02:04Z</time>
      </trkpt>
      <trkpt lat="48.10419" lon="6.6721">
        <ele>663.8</ele>
        <time>2023-09-03T09:02:05Z</time>
      </trkpt>
      <trkpt lat="48.10419" lon="6.67207">
        <ele>663.8</ele>
        <time>2023-09-03T09:02:06Z</time>
      </trkpt>
      <trkpt lat="48.10419" lon="6.67205">
        <ele>664</ele>
        <time>2023-09-03T09:02:07Z</time>
      </trkpt>
      <trkpt lat="48.10419" lon="6.67202">
        <ele>664</ele>
        <time>2023-09-03T09:02:08Z</time>
      </trkpt>
      <trkpt lat="48.10419" lon="6.672">
        <ele>664.2</ele>
        <time>2023-09-03T09:02:09Z</time>
      </trkpt>
      <trkpt lat="48.10419" lon="6.67198">
        <ele>664.2</ele>
        <time>2023-09-03T09:02:10Z</time>
      </trkpt>
      <trkpt lat="48.1042" lon="6.67195">
        <ele>664.4</ele>
        <time>2023-09-03T09:02:11Z</time>
      </trkpt>
      <trkpt lat="48.1042" lon="6.67192">
        <ele>664.6</ele>
        <time>2023-09-03T09:02:12Z</time>
      </trkpt>
      <trkpt lat="48.1042" lon="6.67189">
        <ele>664.6</ele>
        <time>2023-09-03T09:02:13Z</time>
      </trkpt>
      <trkpt lat="48.1042" lon="6.67187">
        <ele>664.8</ele>
        <time>2023-09-03T09:02:14Z</time>
      </trkpt>
      <trkpt lat="48.1042" lon="6.67184">
        <ele>665</ele>
        <time>2023-09-03T09:02:15Z</time>
      </trkpt>
      <trkpt lat="48.1042" lon="6.6718">
        <ele>665</ele>
        <time>2023-09-03T09:02:16Z</time>
      </trkpt>
      <trkpt lat="48.10419" lon="6.67177">
        <ele>665.2</ele>
        <time>2023-09-03T09:02:17Z</time>
      </trkpt>
      <trkpt lat="48.10418" lon="6.67173">
        <ele>665.4</ele>
        <time>2023-09-03T09:02:18Z</time>
      </trkpt>
      <trkpt lat="48.10418" lon="6.6717">
        <ele>665.4</ele>
        <time>2023-09-03T09:02:19Z</time>
      </trkpt>
      <trkpt lat="48.10418" lon="6.67167">
        <ele>665.6</ele>
        <time>2023-09-03T09:02:20Z</time>
      </trkpt>
      <trkpt lat="48.10418" lon="6.67163">
        <ele>665.6</ele>
        <time>2023-09-03T09:02:21Z</time>
      </trkpt>
      <trkpt lat="48.10419" lon="6.67159">
        <ele>665.8</ele>
        <time>2023-09-03T09:02:22Z</time>
      </trkpt>
      <trkpt lat="48.1042" lon="6.67154">
        <ele>666</ele>
        <time>2023-09-03T09:02:23Z</time>
      </trkpt>
      <trkpt lat="48.10421" lon="6.6715">
        <ele>666</ele>
        <time>2023-09-03T09:02:24Z</time>
      </trkpt>
      <trkpt lat="48.10422" lon="6.67145">
        <ele>666</ele>
        <time>2023-09-03T09:02:25Z</time>
      </trkpt>
      <trkpt lat="48.10424" lon="6.6714">
        <ele>666.2</ele>
        <time>2023-09-03T09:02:26Z</time>
      </trkpt>
      <trkpt lat="48.10426" lon="6.67135">
        <ele>666.2</ele>
        <time>2023-09-03T09:02:27Z</time>
      </trkpt>
      <trkpt lat="48.10429" lon="6.67131">
        <ele>666.2</ele>
        <time>2023-09-03T09:02:28Z</time>
      </trkpt>
      <trkpt lat="48.10431" lon="6.67128">
        <ele>666</ele>
        <time>2023-09-03T09:02:29Z</time>
      </trkpt>
      <trkpt lat="48.10434" lon="6.67124">
        <ele>666</ele>
        <time>2023-09-03T09:02:30Z</time>
      </trkpt>
      <trkpt lat="48.10437" lon="6.67121">
        <ele>665.6</ele>
        <time>2023-09-03T09:02:31Z</time>
      </trkpt>
      <trkpt lat="48.1044" lon="6.67118">
        <ele>665.8</ele>
        <time>2023-09-03T09:02:32Z</time>
      </trkpt>
      <trkpt lat="48.10443" lon="6.67116">
        <ele>665.6</ele>
        <time>2023-09-03T09:02:33Z</time>
      </trkpt>
      <trkpt lat="48.10447" lon="6.67112">
        <ele>665.4</ele>
        <time>2023-09-03T09:02:34Z</time>
      </trkpt>
      <trkpt lat="48.10451" lon="6.67108">
        <ele>665.2</ele>
        <time>2023-09-03T09:02:35Z</time>
      </trkpt>
      <trkpt lat="48.10455" lon="6.67103">
        <ele>665</ele>
        <time>2023-09-03T09:02:36Z</time>
      </trkpt>
      <trkpt lat="48.10459" lon="6.67096">
        <ele>664.8</ele>
        <time>2023-09-03T09:02:37Z</time>
      </trkpt>
      <trkpt lat="48.10463" lon="6.67089">
        <ele>664.8</ele>
        <time>2023-09-03T09:02:38Z</time>
      </trkpt>
      <trkpt lat="48.10465" lon="6.6708">
        <ele>664.6</ele>
        <time>2023-09-03T09:02:39Z</time>
      </trkpt>
      <trkpt lat="48.10465" lon="6.6707">
        <ele>663.8</ele>
        <time>2023-09-03T09:02:40Z</time>
      </trkpt>
      <trkpt lat="48.10463" lon="6.67062">
        <ele>663.6</ele>
        <time>2023-09-03T09:02:41Z</time>
      </trkpt>
      <trkpt lat="48.10459" lon="6.67055">
        <ele>663.4</ele>
        <time>2023-09-03T09:02:42Z</time>
      </trkpt>
      <trkpt lat="48.10455" lon="6.67049">
        <ele>663.4</ele>
        <time>2023-09-03T09:02:43Z</time>
      </trkpt>
      <trkpt lat="48.10451" lon="6.67043">
        <ele>663</ele>
        <time>2023-09-03T09:02:44Z</time>
      </trkpt>
      <trkpt lat="48.10445" lon="6.67037">
        <ele>662.8</ele>
        <time>2023-09-03T09:02:45Z</time>
      </trkpt>
      <trkpt lat="48.10438" lon="6.67032">
        <ele>662</ele>
        <time>2023-09-03T09:02:46Z</time>
      </trkpt>
      <trkpt lat="48.1043" lon="6.67023">
        <ele>661.6</ele>
        <time>2023-09-03T09:02:47Z</time>
      </trkpt>
      <trkpt lat="48.10421" lon="6.67012">
        <ele>660.6</ele>
        <time>2023-09-03T09:02:48Z</time>
      </trkpt>
      <trkpt lat="48.10413" lon="6.67">
        <ele>659.8</ele>
        <time>2023-09-03T09:02:49Z</time>
      </trkpt>
      <trkpt lat="48.10406" lon="6.66988">
        <ele>659.4</ele>
        <time>2023-09-03T09:02:50Z</time>
      </trkpt>
      <trkpt lat="48.104" lon="6.66974">
        <ele>658.8</ele>
        <time>2023-09-03T09:02:51Z</time>
      </trkpt>
      <trkpt lat="48.10394" lon="6.6696">
        <ele>658.4</ele>
        <time>2023-09-03T09:02:52Z</time>
      </trkpt>
      <trkpt lat="48.1039" lon="6.66945">
        <ele>657.6</ele>
        <time>2023-09-03T09:02:53Z</time>
      </trkpt>
      <trkpt lat="48.10388" lon="6.66931">
        <ele>657.4</ele>
        <time>2023-09-03T09:02:54Z</time>
      </trkpt>
      <trkpt lat="48.10386" lon="6.66915">
        <ele>657</ele>
        <time>2023-09-03T09:02:55Z</time>
      </trkpt>
      <trkpt lat="48.10385" lon="6.669">
        <ele>656.8</ele>
        <time>2023-09-03T09:02:56Z</time>
      </trkpt>
      <trkpt lat="48.10384" lon="6.66884">
        <ele>656.2</ele>
        <time>2023-09-03T09:02:57Z</time>
      </trkpt>
      <trkpt lat="48.10382" lon="6.66869">
        <ele>656</ele>
        <time>2023-09-03T09:02:58Z</time>
      </trkpt>
      <trkpt lat="48.10379" lon="6.66855">
        <ele>654.8</ele>
        <time>2023-09-03T09:02:59Z</time>
      </trkpt>
      <trkpt lat="48.10375" lon="6.66842">
        <ele>653.8</ele>
        <time>2023-09-03T09:03:00Z</time>
      </trkpt>
      <trkpt lat="48.10371" lon="6.66832">
        <ele>653.6</ele>
        <time>2023-09-03T09:03:01Z</time>
      </trkpt>
      <trkpt lat="48.10364" lon="6.66822">
        <ele>652.8</ele>
        <time>2023-09-03T09:03:02Z</time>
      </trkpt>
      <trkpt lat="48.10359" lon="6.66811">
        <ele>652.4</ele>
        <time>2023-09-03T09:03:03Z</time>
      </trkpt>
      <trkpt lat="48.10355" lon="6.66802">
        <ele>651.6</ele>
        <time>2023-09-03T09:03:04Z</time>
      </trkpt>
      <trkpt lat="48.10349" lon="6.66788">
        <ele>651.2</ele>
        <time>2023-09-03T09:03:05Z</time>
      </trkpt>
      <trkpt lat="48.10349" lon="6.66774">
        <ele>650.6</ele>
        <time>2023-09-03T09:03:06Z</time>
      </trkpt>
      <trkpt lat="48.10353" lon="6.66765">
        <ele>650.4</ele>
        <time>2023-09-03T09:03:07Z</time>
      </trkpt>
      <trkpt lat="48.10358" lon="6.66755">
        <ele>650</ele>
        <time>2023-09-03T09:03:08Z</time>
      </trkpt>
      <trkpt lat="48.10363" lon="6.66748">
        <ele>650</ele>
        <time>2023-09-03T09:03:09Z</time>
      </trkpt>
      <trkpt lat="48.10369" lon="6.66742">
        <ele>649.8</ele>
        <time>2023-09-03T09:03:10Z</time>
      </trkpt>
      <trkpt lat="48.10374" lon="6.66738">
        <ele>649.4</ele>
        <time>2023-09-03T09:03:11Z</time>
      </trkpt>
      <trkpt lat="48.10378" lon="6.66736">
        <ele>649.4</ele>
        <time>2023-09-03T09:03:12Z</time>
      </trkpt>
      <trkpt lat="48.10381" lon="6.66735">
        <ele>649</ele>
        <time>2023-09-03T09:03:13Z</time>
      </trkpt>
      <trkpt lat="48.10384" lon="6.66734">
        <ele>649</ele>
        <time>2023-09-03T09:03:14Z</time>
      </trkpt>
      <trkpt lat="48.10387" lon="6.66733">
        <ele>649</ele>
        <time>2023-09-03T09:03:15Z</time>
      </trkpt>
      <trkpt lat="48.10391" lon="6.66733">
        <ele>648.8</ele>
        <time>2023-09-03T09:03:16Z</time>
      </trkpt>
      <trkpt lat="48.10394" lon="6.66732">
        <ele>648.8</ele>
        <time>2023-09-03T09:03:17Z</time>
      </trkpt>
      <trkpt lat="48.10397" lon="6.66732">
        <ele>648.8</ele>
        <time>2023-09-03T09:03:18Z</time>
      </trkpt>
      <trkpt lat="48.10399" lon="6.66732">
        <ele>649</ele>
        <time>2023-09-03T09:03:19Z</time>
      </trkpt>
      <trkpt lat="48.10401" lon="6.66731">
        <ele>649.2</ele>
        <time>2023-09-03T09:03:20Z</time>
      </trkpt>
      <trkpt lat="48.10403" lon="6.66729">
        <ele>649.4</ele>
        <time>2023-09-03T09:03:21Z</time>
      </trkpt>
      <trkpt lat="48.10405" lon="6.66728">
        <ele>649.6</ele>
        <time>2023-09-03T09:03:22Z</time>
      </trkpt>
      <trkpt lat="48.10407" lon="6.66726">
        <ele>649.8</ele>
        <time>2023-09-03T09:03:23Z</time>
      </trkpt>
      <trkpt lat="48.10408" lon="6.66724">
        <ele>650.4</ele>
        <time>2023-09-03T09:03:24Z</time>
      </trkpt>
      <trkpt lat="48.1041" lon="6.66722">
        <ele>650.8</ele>
        <time>2023-09-03T09:03:25Z</time>
      </trkpt>
      <trkpt lat="48.10411" lon="6.6672">
        <ele>651.2</ele>
        <time>2023-09-03T09:03:26Z</time>
      </trkpt>
      <trkpt lat="48.10413" lon="6.66717">
        <ele>651.4</ele>
        <time>2023-09-03T09:03:27Z</time>
      </trkpt>
      <trkpt lat="48.10414" lon="6.66715">
        <ele>651.6</ele>
        <time>2023-09-03T09:03:28Z</time>
      </trkpt>
      <trkpt lat="48.10416" lon="6.66713">
        <ele>652</ele>
        <time>2023-09-03T09:03:29Z</time>
      </trkpt>
      <trkpt lat="48.10417" lon="6.6671">
        <ele>652.2</ele>
        <time>2023-09-03T09:03:30Z</time>
      </trkpt>
      <trkpt lat="48.10418" lon="6.66708">
        <ele>652.6</ele>
        <time>2023-09-03T09:03:31Z</time>
      </trkpt>
      <trkpt lat="48.10418" lon="6.66706">
        <ele>652.8</ele>
        <time>2023-09-03T09:03:32Z</time>
      </trkpt>
      <trkpt lat="48.1042" lon="6.66703">
        <ele>652.8</ele>
        <time>2023-09-03T09:03:33Z</time>
      </trkpt>
      <trkpt lat="48.10421" lon="6.66699">
        <ele>653.4</ele>
        <time>2023-09-03T09:03:34Z</time>
      </trkpt>
      <trkpt lat="48.10421" lon="6.66696">
        <ele>653.8</ele>
        <time>2023-09-03T09:03:35Z</time>
      </trkpt>
      <trkpt lat="48.10423" lon="6.66693">
        <ele>654</ele>
        <time>2023-09-03T09:03:36Z</time>
      </trkpt>
      <trkpt lat="48.10423" lon="6.66693">
        <ele>654.4</ele>
        <time>2023-09-03T09:03:37Z</time>
      </trkpt>
      <trkpt lat="48.10425" lon="6.6669">
        <ele>654.6</ele>
        <time>2023-09-03T09:03:38Z</time>
      </trkpt>
      <trkpt lat="48.10426" lon="6.66686">
        <ele>655</ele>
        <time>2023-09-03T09:03:39Z</time>
      </trkpt>
      <trkpt lat="48.10428" lon="6.66683">
        <ele>655.2</ele>
        <time>2023-09-03T09:03:40Z</time>
      </trkpt>
      <trkpt lat="48.10431" lon="6.66678">
        <ele>655.8</ele>
        <time>2023-09-03T09:03:41Z</time>
      </trkpt>
      <trkpt lat="48.10432" lon="6.66675">
        <ele>656</ele>
        <time>2023-09-03T09:03:42Z</time>
      </trkpt>
      <trkpt lat="48.10433" lon="6.66674">
        <ele>656.2</ele>
        <time>2023-09-03T09:03:43Z</time>
      </trkpt>
      <trkpt lat="48.10433" lon="6.66672">
        <ele>656.4</ele>
        <time>2023-09-03T09:03:44Z</time>
      </trkpt>
      <trkpt lat="48.10432" lon="6.6667">
        <ele>656.6</ele>
        <time>2023-09-03T09:03:45Z</time>
      </trkpt>
      <trkpt lat="48.10433" lon="6.66668">
        <ele>657.2</ele>
        <time>2023-09-03T09:03:46Z</time>
      </trkpt>
      <trkpt lat="48.10435" lon="6.66666">
        <ele>657.4</ele>
        <time>2023-09-03T09:03:47Z</time>
      </trkpt>
      <trkpt lat="48.10436" lon="6.66664">
        <ele>657.6</ele>
        <time>2023-09-03T09:03:48Z</time>
      </trkpt>
      <trkpt lat="48.10439" lon="6.66661">
        <ele>657.8</ele>
        <time>2023-09-03T09:03:49Z</time>
      </trkpt>
      <trkpt lat="48.10438" lon="6.66658">
        <ele>658.2</ele>
        <time>2023-09-03T09:03:50Z</time>
      </trkpt>
      <trkpt lat="48.10436" lon="6.66654">
        <ele>658.2</ele>
        <time>2023-09-03T09:03:51Z</time>
      </trkpt>
      <trkpt lat="48.10436" lon="6.66651">
        <ele>658.6</ele>
        <time>2023-09-03T09:03:52Z</time>
      </trkpt>
      <trkpt lat="48.10434" lon="6.66648">
        <ele>658.6</ele>
        <time>2023-09-03T09:03:53Z</time>
      </trkpt>
      <trkpt lat="48.10435" lon="6.66645">
        <ele>659</ele>
        <time>2023-09-03T09:03:54Z</time>
      </trkpt>
      <trkpt lat="48.10436" lon="6.66642">
        <ele>659</ele>
        <time>2023-09-03T09:03:55Z</time>
      </trkpt>
      <trkpt lat="48.10436" lon="6.66641">
        <ele>659.4</ele>
        <time>2023-09-03T09:03:56Z</time>
      </trkpt>
      <trkpt lat="48.10436" lon="6.66641">
        <ele>660</ele>
        <time>2023-09-03T09:03:57Z</time>
      </trkpt>
      <trkpt lat="48.10436" lon="6.66639">
        <ele>660.2</ele>
        <time>2023-09-03T09:03:58Z</time>
      </trkpt>
      <trkpt lat="48.10436" lon="6.66637">
        <ele>660.4</ele>
        <time>2023-09-03T09:03:59Z</time>
      </trkpt>
      <trkpt lat="48.10435" lon="6.66635">
        <ele>660.6</ele>
        <time>2023-09-03T09:04:00Z</time>
      </trkpt>
      <trkpt lat="48.10432" lon="6.66634">
        <ele>661</ele>
        <time>2023-09-03T09:04:01Z</time>
      </trkpt>
      <trkpt lat="48.1043" lon="6.66634">
        <ele>661.2</ele>
        <time>2023-09-03T09:04:02Z</time>
      </trkpt>
      <trkpt lat="48.10429" lon="6.66633">
        <ele>661.4</ele>
        <time>2023-09-03T09:04:03Z</time>
      </trkpt>
      <trkpt lat="48.10429" lon="6.66632">
        <ele>661.6</ele>
        <time>2023-09-03T09:04:04Z</time>
      </trkpt>
      <trkpt lat="48.10429" lon="6.66631">
        <ele>661.8</ele>
        <time>2023-09-03T09:04:05Z</time>
      </trkpt>
      <trkpt lat="48.10426" lon="6.66629">
        <ele>662</ele>
        <time>2023-09-03T09:04:06Z</time>
      </trkpt>
      <trkpt lat="48.10425" lon="6.66628">
        <ele>662</ele>
        <time>2023-09-03T09:04:07Z</time>
      </trkpt>
      <trkpt lat="48.10422" lon="6.66627">
        <ele>662.6</ele>
        <time>2023-09-03T09:04:08Z</time>
      </trkpt>
      <trkpt lat="48.10421" lon="6.66626">
        <ele>662.6</ele>
        <time>2023-09-03T09:04:09Z</time>
      </trkpt>
      <trkpt lat="48.1042" lon="6.66625">
        <ele>663</ele>
        <time>2023-09-03T09:04:10Z</time>
      </trkpt>
      <trkpt lat="48.10418" lon="6.66623">
        <ele>663</ele>
        <time>2023-09-03T09:04:11Z</time>
      </trkpt>
      <trkpt lat="48.10416" lon="6.66622">
        <ele>663.2</ele>
        <time>2023-09-03T09:04:12Z</time>
      </trkpt>
      <trkpt lat="48.10414" lon="6.6662">
        <ele>663.2</ele>
        <time>2023-09-03T09:04:13Z</time>
      </trkpt>
      <trkpt lat="48.10412" lon="6.66619">
        <ele>663.6</ele>
        <time>2023-09-03T09:04:14Z</time>
      </trkpt>
      <trkpt lat="48.10411" lon="6.66618">
        <ele>663.6</ele>
        <time>2023-09-03T09:04:15Z</time>
      </trkpt>
      <trkpt lat="48.10409" lon="6.66617">
        <ele>663.8</ele>
        <time>2023-09-03T09:04:16Z</time>
      </trkpt>
      <trkpt lat="48.10407" lon="6.66615">
        <ele>664</ele>
        <time>2023-09-03T09:04:17Z</time>
      </trkpt>
      <trkpt lat="48.10405" lon="6.66614">
        <ele>664</ele>
        <time>2023-09-03T09:04:18Z</time>
      </trkpt>
      <trkpt lat="48.10404" lon="6.66613">
        <ele>664.2</ele>
        <time>2023-09-03T09:04:19Z</time>
      </trkpt>
      <trkpt lat="48.10402" lon="6.66613">
        <ele>664.2</ele>
        <time>2023-09-03T09:04:20Z</time>
      </trkpt>
      <trkpt lat="48.10399" lon="6.66611">
        <ele>664.4</ele>
        <time>2023-09-03T09:04:21Z</time>
      </trkpt>
      <trkpt lat="48.10397" lon="6.6661">
        <ele>664.4</ele>
        <time>2023-09-03T09:04:22Z</time>
      </trkpt>
      <trkpt lat="48.10396" lon="6.66609">
        <ele>664.6</ele>
        <time>2023-09-03T09:04:23Z</time>
      </trkpt>
      <trkpt lat="48.10395" lon="6.66608">
        <ele>664.8</ele>
        <time>2023-09-03T09:04:24Z</time>
      </trkpt>
      <trkpt lat="48.10393" lon="6.66606">
        <ele>665</ele>
        <time>2023-09-03T09:04:25Z</time>
      </trkpt>
      <trkpt lat="48.10391" lon="6.66604">
        <ele>665</ele>
        <time>2023-09-03T09:04:26Z</time>
      </trkpt>
      <trkpt lat="48.10389" lon="6.66603">
        <ele>665</ele>
        <time>2023-09-03T09:04:27Z</time>
      </trkpt>
      <trkpt lat="48.10386" lon="6.66602">
        <ele>665.2</ele>
        <time>2023-09-03T09:04:28Z</time>
      </trkpt>
      <trkpt lat="48.10383" lon="6.66599">
        <ele>665.2</ele>
        <time>2023-09-03T09:04:29Z</time>
      </trkpt>
      <trkpt lat="48.10379" lon="6.66595">
        <ele>665.2</ele>
        <time>2023-09-03T09:04:30Z</time>
      </trkpt>
      <trkpt lat="48.10376" lon="6.66593">
        <ele>665.4</ele>
        <time>2023-09-03T09:04:31Z</time>
      </trkpt>
      <trkpt lat="48.10373" lon="6.66592">
        <ele>665.4</ele>
        <time>2023-09-03T09:04:32Z</time>
      </trkpt>
      <trkpt lat="48.1037" lon="6.6659">
        <ele>665.6</ele>
        <time>2023-09-03T09:04:33Z</time>
      </trkpt>
      <trkpt lat="48.10367" lon="6.6659">
        <ele>665.6</ele>
        <time>2023-09-03T09:04:34Z</time>
      </trkpt>
      <trkpt lat="48.10364" lon="6.6659">
        <ele>665.8</ele>
        <time>2023-09-03T09:04:35Z</time>
      </trkpt>
      <trkpt lat="48.10362" lon="6.66588">
        <ele>665.8</ele>
        <time>2023-09-03T09:04:36Z</time>
      </trkpt>
      <trkpt lat="48.1036" lon="6.66585">
        <ele>665.8</ele>
        <time>2023-09-03T09:04:37Z</time>
      </trkpt>
      <trkpt lat="48.10356" lon="6.66579">
        <ele>666</ele>
        <time>2023-09-03T09:04:38Z</time>
      </trkpt>
      <trkpt lat="48.10353" lon="6.66574">
        <ele>666</ele>
        <time>2023-09-03T09:04:39Z</time>
      </trkpt>
      <trkpt lat="48.10348" lon="6.66569">
        <ele>666.2</ele>
        <time>2023-09-03T09:04:40Z</time>
      </trkpt>
      <trkpt lat="48.10346" lon="6.66567">
        <ele>666.4</ele>
        <time>2023-09-03T09:04:41Z</time>
      </trkpt>
      <trkpt lat="48.10344" lon="6.66565">
        <ele>666.8</ele>
        <time>2023-09-03T09:04:42Z</time>
      </trkpt>
      <trkpt lat="48.10341" lon="6.66561">
        <ele>666.8</ele>
        <time>2023-09-03T09:04:43Z</time>
      </trkpt>
      <trkpt lat="48.10338" lon="6.66556">
        <ele>666.8</ele>
        <time>2023-09-03T09:04:44Z</time>
      </trkpt>
      <trkpt lat="48.10334" lon="6.66551">
        <ele>666.8</ele>
        <time>2023-09-03T09:04:45Z</time>
      </trkpt>
      <trkpt lat="48.10331" lon="6.66546">
        <ele>667</ele>
        <time>2023-09-03T09:04:46Z</time>
      </trkpt>
      <trkpt lat="48.10327" lon="6.66543">
        <ele>667</ele>
        <time>2023-09-03T09:04:47Z</time>
      </trkpt>
      <trkpt lat="48.10325" lon="6.66536">
        <ele>667.2</ele>
        <time>2023-09-03T09:04:48Z</time>
      </trkpt>
      <trkpt lat="48.10323" lon="6.66535">
        <ele>667.2</ele>
        <time>2023-09-03T09:04:49Z</time>
      </trkpt>
      <trkpt lat="48.10321" lon="6.66536">
        <ele>667.2</ele>
        <time>2023-09-03T09:04:50Z</time>
      </trkpt>
      <trkpt lat="48.1032" lon="6.66535">
        <ele>667.2</ele>
        <time>2023-09-03T09:04:51Z</time>
      </trkpt>
      <trkpt lat="48.10318" lon="6.66534">
        <ele>667.2</ele>
        <time>2023-09-03T09:04:52Z</time>
      </trkpt>
      <trkpt lat="48.10315" lon="6.66532">
        <ele>667.2</ele>
        <time>2023-09-03T09:04:53Z</time>
      </trkpt>
      <trkpt lat="48.10314" lon="6.6653">
        <ele>667.4</ele>
        <time>2023-09-03T09:04:54Z</time>
      </trkpt>
      <trkpt lat="48.10313" lon="6.66528">
        <ele>667.4</ele>
        <time>2023-09-03T09:04:55Z</time>
      </trkpt>
      <trkpt lat="48.10312" lon="6.66527">
        <ele>667.6</ele>
        <time>2023-09-03T09:04:56Z</time>
      </trkpt>
      <trkpt lat="48.10311" lon="6.66524">
        <ele>667.8</ele>
        <time>2023-09-03T09:04:57Z</time>
      </trkpt>
      <trkpt lat="48.10311" lon="6.66524">
        <ele>668</ele>
        <time>2023-09-03T09:04:58Z</time>
      </trkpt>
      <trkpt lat="48.1031" lon="6.66522">
        <ele>668</ele>
        <time>2023-09-03T09:04:59Z</time>
      </trkpt>
      <trkpt lat="48.10308" lon="6.6652">
        <ele>668</ele>
        <time>2023-09-03T09:05:00Z</time>
      </trkpt>
      <trkpt lat="48.10306" lon="6.66516">
        <ele>668.2</ele>
        <time>2023-09-03T09:05:01Z</time>
      </trkpt>
      <trkpt lat="48.10303" lon="6.66511">
        <ele>668.4</ele>
        <time>2023-09-03T09:05:02Z</time>
      </trkpt>
      <trkpt lat="48.10301" lon="6.66508">
        <ele>668.6</ele>
        <time>2023-09-03T09:05:03Z</time>
      </trkpt>
      <trkpt lat="48.10299" lon="6.66506">
        <ele>668.8</ele>
        <time>2023-09-03T09:05:04Z</time>
      </trkpt>
      <trkpt lat="48.10299" lon="6.66503">
        <ele>668.8</ele>
        <time>2023-09-03T09:05:05Z</time>
      </trkpt>
      <trkpt lat="48.10297" lon="6.665">
        <ele>669</ele>
        <time>2023-09-03T09:05:06Z</time>
      </trkpt>
      <trkpt lat="48.10294" lon="6.66494">
        <ele>669.4</ele>
        <time>2023-09-03T09:05:07Z</time>
      </trkpt>
      <trkpt lat="48.10292" lon="6.6649">
        <ele>669.6</ele>
        <time>2023-09-03T09:05:08Z</time>
      </trkpt>
      <trkpt lat="48.10291" lon="6.66485">
        <ele>669.8</ele>
        <time>2023-09-03T09:05:09Z</time>
      </trkpt>
      <trkpt lat="48.10289" lon="6.66479">
        <ele>669.8</ele>
        <time>2023-09-03T09:05:10Z</time>
      </trkpt>
      <trkpt lat="48.10288" lon="6.66472">
        <ele>670</ele>
        <time>2023-09-03T09:05:11Z</time>
      </trkpt>
      <trkpt lat="48.10286" lon="6.66464">
        <ele>670</ele>
        <time>2023-09-03T09:05:12Z</time>
      </trkpt>
      <trkpt lat="48.10285" lon="6.66457">
        <ele>670.2</ele>
        <time>2023-09-03T09:05:13Z</time>
      </trkpt>
      <trkpt lat="48.10283" lon="6.6645">
        <ele>670.4</ele>
        <time>2023-09-03T09:05:14Z</time>
      </trkpt>
      <trkpt lat="48.10282" lon="6.66446">
        <ele>670.4</ele>
        <time>2023-09-03T09:05:15Z</time>
      </trkpt>
      <trkpt lat="48.10281" lon="6.66442">
        <ele>670.4</ele>
        <time>2023-09-03T09:05:16Z</time>
      </trkpt>
      <trkpt lat="48.10281" lon="6.66435">
        <ele>670.4</ele>
        <time>2023-09-03T09:05:17Z</time>
      </trkpt>
      <trkpt lat="48.10282" lon="6.66431">
        <ele>670.6</ele>
        <time>2023-09-03T09:05:18Z</time>
      </trkpt>
      <trkpt lat="48.10283" lon="6.66425">
        <ele>670.6</ele>
        <time>2023-09-03T09:05:19Z</time>
      </trkpt>
      <trkpt lat="48.10285" lon="6.66422">
        <ele>670.6</ele>
        <time>2023-09-03T09:05:20Z</time>
      </trkpt>
      <trkpt lat="48.10288" lon="6.66417">
        <ele>670.6</ele>
        <time>2023-09-03T09:05:21Z</time>
      </trkpt>
      <trkpt lat="48.10289" lon="6.66413">
        <ele>670.6</ele>
        <time>2023-09-03T09:05:22Z</time>
      </trkpt>
      <trkpt lat="48.10292" lon="6.6641">
        <ele>670.6</ele>
        <time>2023-09-03T09:05:23Z</time>
      </trkpt>
      <trkpt lat="48.10298" lon="6.66403">
        <ele>670.6</ele>
        <time>2023-09-03T09:05:24Z</time>
      </trkpt>
      <trkpt lat="48.10301" lon="6.66399">
        <ele>670.6</ele>
        <time>2023-09-03T09:05:25Z</time>
      </trkpt>
      <trkpt lat="48.10304" lon="6.66395">
        <ele>670.8</ele>
        <time>2023-09-03T09:05:26Z</time>
      </trkpt>
      <trkpt lat="48.10307" lon="6.66393">
        <ele>671</ele>
        <time>2023-09-03T09:05:27Z</time>
      </trkpt>
      <trkpt lat="48.1031" lon="6.66387">
        <ele>671</ele>
        <time>2023-09-03T09:05:28Z</time>
      </trkpt>
      <trkpt lat="48.10313" lon="6.66382">
        <ele>671</ele>
        <time>2023-09-03T09:05:29Z</time>
      </trkpt>
      <trkpt lat="48.10318" lon="6.66378">
        <ele>671</ele>
        <time>2023-09-03T09:05:30Z</time>
      </trkpt>
      <trkpt lat="48.10324" lon="6.66372">
        <ele>671.2</ele>
        <time>2023-09-03T09:05:31Z</time>
      </trkpt>
      <trkpt lat="48.10329" lon="6.66368">
        <ele>671.2</ele>
        <time>2023-09-03T09:05:32Z</time>
      </trkpt>
      <trkpt lat="48.10333" lon="6.66365">
        <ele>671.2</ele>
        <time>2023-09-03T09:05:33Z</time>
      </trkpt>
      <trkpt lat="48.10336" lon="6.6636">
        <ele>671.2</ele>
        <time>2023-09-03T09:05:34Z</time>
      </trkpt>
      <trkpt lat="48.10338" lon="6.66353">
        <ele>671.2</ele>
        <time>2023-09-03T09:05:35Z</time>
      </trkpt>
      <trkpt lat="48.10341" lon="6.66348">
        <ele>671.4</ele>
        <time>2023-09-03T09:05:36Z</time>
      </trkpt>
      <trkpt lat="48.10344" lon="6.66342">
        <ele>671.4</ele>
        <time>2023-09-03T09:05:37Z</time>
      </trkpt>
      <trkpt lat="48.10347" lon="6.66338">
        <ele>671.4</ele>
        <time>2023-09-03T09:05:38Z</time>
      </trkpt>
      <trkpt lat="48.10351" lon="6.66333">
        <ele>671.4</ele>
        <time>2023-09-03T09:05:39Z</time>
      </trkpt>
      <trkpt lat="48.10355" lon="6.66326">
        <ele>671.4</ele>
        <time>2023-09-03T09:05:40Z</time>
      </trkpt>
      <trkpt lat="48.10358" lon="6.66321">
        <ele>671.4</ele>
        <time>2023-09-03T09:05:41Z</time>
      </trkpt>
      <trkpt lat="48.10361" lon="6.66316">
        <ele>671.4</ele>
        <time>2023-09-03T09:05:42Z</time>
      </trkpt>
      <trkpt lat="48.10364" lon="6.66311">
        <ele>671.6</ele>
        <time>2023-09-03T09:05:43Z</time>
      </trkpt>
      <trkpt lat="48.10367" lon="6.66305">
        <ele>672</ele>
        <time>2023-09-03T09:05:44Z</time>
      </trkpt>
      <trkpt lat="48.10368" lon="6.66299">
        <ele>672.2</ele>
        <time>2023-09-03T09:05:45Z</time>
      </trkpt>
      <trkpt lat="48.1037" lon="6.66292">
        <ele>672.4</ele>
        <time>2023-09-03T09:05:46Z</time>
      </trkpt>
      <trkpt lat="48.10374" lon="6.66287">
        <ele>672.4</ele>
        <time>2023-09-03T09:05:47Z</time>
      </trkpt>
      <trkpt lat="48.10378" lon="6.66282">
        <ele>672.4</ele>
        <time>2023-09-03T09:05:48Z</time>
      </trkpt>
      <trkpt lat="48.10382" lon="6.66277">
        <ele>672.4</ele>
        <time>2023-09-03T09:05:49Z</time>
      </trkpt>
      <trkpt lat="48.10385" lon="6.66274">
        <ele>672.6</ele>
        <time>2023-09-03T09:05:50Z</time>
      </trkpt>
      <trkpt lat="48.10389" lon="6.6627">
        <ele>672.6</ele>
        <time>2023-09-03T09:05:51Z</time>
      </trkpt>
      <trkpt lat="48.10393" lon="6.66265">
        <ele>672.6</ele>
        <time>2023-09-03T09:05:52Z</time>
      </trkpt>
      <trkpt lat="48.10396" lon="6.66262">
        <ele>672.6</ele>
        <time>2023-09-03T09:05:53Z</time>
      </trkpt>
      <trkpt lat="48.10397" lon="6.66257">
        <ele>672.6</ele>
        <time>2023-09-03T09:05:54Z</time>
      </trkpt>
      <trkpt lat="48.104" lon="6.66252">
        <ele>672.6</ele>
        <time>2023-09-03T09:05:55Z</time>
      </trkpt>
      <trkpt lat="48.10403" lon="6.66248">
        <ele>672.8</ele>
        <time>2023-09-03T09:05:56Z</time>
      </trkpt>
      <trkpt lat="48.10405" lon="6.66243">
        <ele>672.8</ele>
        <time>2023-09-03T09:05:57Z</time>
      </trkpt>
      <trkpt lat="48.10407" lon="6.66239">
        <ele>672.8</ele>
        <time>2023-09-03T09:05:58Z</time>
      </trkpt>
      <trkpt lat="48.10409" lon="6.66234">
        <ele>673</ele>
        <time>2023-09-03T09:05:59Z</time>
      </trkpt>
      <trkpt lat="48.1041" lon="6.66229">
        <ele>673</ele>
        <time>2023-09-03T09:06:00Z</time>
      </trkpt>
      <trkpt lat="48.10411" lon="6.66223">
        <ele>673.2</ele>
        <time>2023-09-03T09:06:01Z</time>
      </trkpt>
      <trkpt lat="48.10413" lon="6.6622">
        <ele>673.2</ele>
        <time>2023-09-03T09:06:02Z</time>
      </trkpt>
      <trkpt lat="48.10415" lon="6.66216">
        <ele>673.4</ele>
        <time>2023-09-03T09:06:03Z</time>
      </trkpt>
      <trkpt lat="48.10417" lon="6.66211">
        <ele>673.6</ele>
        <time>2023-09-03T09:06:04Z</time>
      </trkpt>
      <trkpt lat="48.10418" lon="6.66207">
        <ele>673.6</ele>
        <time>2023-09-03T09:06:05Z</time>
      </trkpt>
      <trkpt lat="48.1042" lon="6.66203">
        <ele>673.8</ele>
        <time>2023-09-03T09:06:06Z</time>
      </trkpt>
      <trkpt lat="48.10421" lon="6.66198">
        <ele>673.8</ele>
        <time>2023-09-03T09:06:07Z</time>
      </trkpt>
      <trkpt lat="48.10422" lon="6.66193">
        <ele>674.2</ele>
        <time>2023-09-03T09:06:08Z</time>
      </trkpt>
      <trkpt lat="48.10424" lon="6.66188">
        <ele>674.2</ele>
        <time>2023-09-03T09:06:09Z</time>
      </trkpt>
      <trkpt lat="48.10426" lon="6.66183">
        <ele>674.6</ele>
        <time>2023-09-03T09:06:10Z</time>
      </trkpt>
      <trkpt lat="48.10428" lon="6.66178">
        <ele>674.6</ele>
        <time>2023-09-03T09:06:11Z</time>
      </trkpt>
      <trkpt lat="48.10429" lon="6.66174">
        <ele>674.8</ele>
        <time>2023-09-03T09:06:12Z</time>
      </trkpt>
      <trkpt lat="48.1043" lon="6.66169">
        <ele>674.8</ele>
        <time>2023-09-03T09:06:13Z</time>
      </trkpt>
      <trkpt lat="48.10431" lon="6.66165">
        <ele>675.2</ele>
        <time>2023-09-03T09:06:14Z</time>
      </trkpt>
      <trkpt lat="48.10431" lon="6.6616">
        <ele>675.4</ele>
        <time>2023-09-03T09:06:15Z</time>
      </trkpt>
      <trkpt lat="48.10432" lon="6.66156">
        <ele>675.6</ele>
        <time>2023-09-03T09:06:16Z</time>
      </trkpt>
      <trkpt lat="48.10432" lon="6.6615">
        <ele>676.2</ele>
        <time>2023-09-03T09:06:17Z</time>
      </trkpt>
      <trkpt lat="48.10433" lon="6.66143">
        <ele>676.2</ele>
        <time>2023-09-03T09:06:18Z</time>
      </trkpt>
      <trkpt lat="48.10433" lon="6.66138">
        <ele>676.4</ele>
        <time>2023-09-03T09:06:19Z</time>
      </trkpt>
      <trkpt lat="48.10433" lon="6.66132">
        <ele>676.4</ele>
        <time>2023-09-03T09:06:20Z</time>
      </trkpt>
      <trkpt lat="48.10433" lon="6.66125">
        <ele>676.6</ele>
        <time>2023-09-03T09:06:21Z</time>
      </trkpt>
      <trkpt lat="48.10433" lon="6.66117">
        <ele>676.6</ele>
        <time>2023-09-03T09:06:22Z</time>
      </trkpt>
      <trkpt lat="48.10433" lon="6.66109">
        <ele>676.8</ele>
        <time>2023-09-03T09:06:23Z</time>
      </trkpt>
      <trkpt lat="48.10433" lon="6.66102">
        <ele>677</ele>
        <time>2023-09-03T09:06:24Z</time>
      </trkpt>
      <trkpt lat="48.10433" lon="6.66093">
        <ele>677</ele>
        <time>2023-09-03T09:06:25Z</time>
      </trkpt>
      <trkpt lat="48.10433" lon="6.66083">
        <ele>676.8</ele>
        <time>2023-09-03T09:06:26Z</time>
      </trkpt>
      <trkpt lat="48.10433" lon="6.66073">
        <ele>676.4</ele>
        <time>2023-09-03T09:06:27Z</time>
      </trkpt>
      <trkpt lat="48.10433" lon="6.66062">
        <ele>676.4</ele>
        <time>2023-09-03T09:06:28Z</time>
      </trkpt>
      <trkpt lat="48.10433" lon="6.66051">
        <ele>676.4</ele>
        <time>2023-09-03T09:06:29Z</time>
      </trkpt>
      <trkpt lat="48.10433" lon="6.66039">
        <ele>676.4</ele>
        <time>2023-09-03T09:06:30Z</time>
      </trkpt>
      <trkpt lat="48.10432" lon="6.66027">
        <ele>676.2</ele>
        <time>2023-09-03T09:06:31Z</time>
      </trkpt>
      <trkpt lat="48.10431" lon="6.66014">
        <ele>675.6</ele>
        <time>2023-09-03T09:06:32Z</time>
      </trkpt>
      <trkpt lat="48.10431" lon="6.66001">
        <ele>675.4</ele>
        <time>2023-09-03T09:06:33Z</time>
      </trkpt>
      <trkpt lat="48.1043" lon="6.65988">
        <ele>675</ele>
        <time>2023-09-03T09:06:34Z</time>
      </trkpt>
      <trkpt lat="48.10428" lon="6.65972">
        <ele>674.8</ele>
        <time>2023-09-03T09:06:35Z</time>
      </trkpt>
      <trkpt lat="48.10426" lon="6.65959">
        <ele>674.2</ele>
        <time>2023-09-03T09:06:36Z</time>
      </trkpt>
      <trkpt lat="48.10423" lon="6.65946">
        <ele>673.4</ele>
        <time>2023-09-03T09:06:37Z</time>
      </trkpt>
      <trkpt lat="48.10422" lon="6.65932">
        <ele>672.8</ele>
        <time>2023-09-03T09:06:38Z</time>
      </trkpt>
      <trkpt lat="48.10419" lon="6.65919">
        <ele>672</ele>
        <time>2023-09-03T09:06:39Z</time>
      </trkpt>
      <trkpt lat="48.10416" lon="6.65906">
        <ele>670.4</ele>
        <time>2023-09-03T09:06:40Z</time>
      </trkpt>
      <trkpt lat="48.10412" lon="6.65894">
        <ele>669.4</ele>
        <time>2023-09-03T09:06:41Z</time>
      </trkpt>
      <trkpt lat="48.10408" lon="6.65884">
        <ele>669.2</ele>
        <time>2023-09-03T09:06:42Z</time>
      </trkpt>
      <trkpt lat="48.10402" lon="6.6587">
        <ele>668.6</ele>
        <time>2023-09-03T09:06:43Z</time>
      </trkpt>
      <trkpt lat="48.10398" lon="6.65862">
        <ele>668.4</ele>
        <time>2023-09-03T09:06:44Z</time>
      </trkpt>
      <trkpt lat="48.1039" lon="6.65851">
        <ele>668.2</ele>
        <time>2023-09-03T09:06:45Z</time>
      </trkpt>
      <trkpt lat="48.10384" lon="6.65843">
        <ele>668</ele>
        <time>2023-09-03T09:06:46Z</time>
      </trkpt>
      <trkpt lat="48.10378" lon="6.65837">
        <ele>668</ele>
        <time>2023-09-03T09:06:47Z</time>
      </trkpt>
      <trkpt lat="48.1037" lon="6.65829">
        <ele>668</ele>
        <time>2023-09-03T09:06:48Z</time>
      </trkpt>
      <trkpt lat="48.10363" lon="6.65823">
        <ele>667.8</ele>
        <time>2023-09-03T09:06:49Z</time>
      </trkpt>
      <trkpt lat="48.10355" lon="6.65818">
        <ele>667.4</ele>
        <time>2023-09-03T09:06:50Z</time>
      </trkpt>
      <trkpt lat="48.10347" lon="6.65814">
        <ele>667</ele>
        <time>2023-09-03T09:06:51Z</time>
      </trkpt>
      <trkpt lat="48.10338" lon="6.6581">
        <ele>667.2</ele>
        <time>2023-09-03T09:06:52Z</time>
      </trkpt>
      <trkpt lat="48.1033" lon="6.65807">
        <ele>666.8</ele>
        <time>2023-09-03T09:06:53Z</time>
      </trkpt>
      <trkpt lat="48.10323" lon="6.65804">
        <ele>666</ele>
        <time>2023-09-03T09:06:54Z</time>
      </trkpt>
      <trkpt lat="48.10316" lon="6.658">
        <ele>665.4</ele>
        <time>2023-09-03T09:06:55Z</time>
      </trkpt>
      <trkpt lat="48.10309" lon="6.65797">
        <ele>664.6</ele>
        <time>2023-09-03T09:06:56Z</time>
      </trkpt>
      <trkpt lat="48.10302" lon="6.65794">
        <ele>664.2</ele>
        <time>2023-09-03T09:06:57Z</time>
      </trkpt>
      <trkpt lat="48.10296" lon="6.65791">
        <ele>664</ele>
        <time>2023-09-03T09:06:58Z</time>
      </trkpt>
      <trkpt lat="48.1029" lon="6.65789">
        <ele>663.8</ele>
        <time>2023-09-03T09:06:59Z</time>
      </trkpt>
      <trkpt lat="48.10284" lon="6.65787">
        <ele>663.8</ele>
        <time>2023-09-03T09:07:00Z</time>
      </trkpt>
      <trkpt lat="48.10279" lon="6.65785">
        <ele>663.8</ele>
        <time>2023-09-03T09:07:01Z</time>
      </trkpt>
      <trkpt lat="48.10274" lon="6.65784">
        <ele>663.8</ele>
        <time>2023-09-03T09:07:02Z</time>
      </trkpt>
      <trkpt lat="48.10269" lon="6.65783">
        <ele>663.6</ele>
        <time>2023-09-03T09:07:03Z</time>
      </trkpt>
      <trkpt lat="48.10265" lon="6.65782">
        <ele>663.6</ele>
        <time>2023-09-03T09:07:04Z</time>
      </trkpt>
      <trkpt lat="48.10261" lon="6.65781">
        <ele>663.4</ele>
        <time>2023-09-03T09:07:05Z</time>
      </trkpt>
      <trkpt lat="48.10257" lon="6.65779">
        <ele>663.4</ele>
        <time>2023-09-03T09:07:06Z</time>
      </trkpt>
      <trkpt lat="48.10255" lon="6.65778">
        <ele>663.8</ele>
        <time>2023-09-03T09:07:07Z</time>
      </trkpt>
      <trkpt lat="48.10253" lon="6.65776">
        <ele>663.6</ele>
        <time>2023-09-03T09:07:08Z</time>
      </trkpt>
      <trkpt lat="48.1025" lon="6.65775">
        <ele>663.8</ele>
        <time>2023-09-03T09:07:09Z</time>
      </trkpt>
      <trkpt lat="48.10246" lon="6.65774">
        <ele>663.8</ele>
        <time>2023-09-03T09:07:10Z</time>
      </trkpt>
      <trkpt lat="48.10242" lon="6.65772">
        <ele>664</ele>
        <time>2023-09-03T09:07:11Z</time>
      </trkpt>
      <trkpt lat="48.10238" lon="6.6577">
        <ele>664</ele>
        <time>2023-09-03T09:07:12Z</time>
      </trkpt>
      <trkpt lat="48.10232" lon="6.65768">
        <ele>664.4</ele>
        <time>2023-09-03T09:07:13Z</time>
      </trkpt>
      <trkpt lat="48.10228" lon="6.65767">
        <ele>664.6</ele>
        <time>2023-09-03T09:07:14Z</time>
      </trkpt>
      <trkpt lat="48.10225" lon="6.65766">
        <ele>664.6</ele>
        <time>2023-09-03T09:07:15Z</time>
      </trkpt>
      <trkpt lat="48.10222" lon="6.65763">
        <ele>664.6</ele>
        <time>2023-09-03T09:07:16Z</time>
      </trkpt>
      <trkpt lat="48.10218" lon="6.6576">
        <ele>664.8</ele>
        <time>2023-09-03T09:07:17Z</time>
      </trkpt>
      <trkpt lat="48.10214" lon="6.65755">
        <ele>665</ele>
        <time>2023-09-03T09:07:18Z</time>
      </trkpt>
      <trkpt lat="48.1021" lon="6.65751">
        <ele>665</ele>
        <time>2023-09-03T09:07:19Z</time>
      </trkpt>
      <trkpt lat="48.10207" lon="6.65748">
        <ele>665</ele>
        <time>2023-09-03T09:07:20Z</time>
      </trkpt>
      <trkpt lat="48.10203" lon="6.65746">
        <ele>665.2</ele>
        <time>2023-09-03T09:07:21Z</time>
      </trkpt>
      <trkpt lat="48.102" lon="6.65745">
        <ele>665.2</ele>
        <time>2023-09-03T09:07:22Z</time>
      </trkpt>
      <trkpt lat="48.10197" lon="6.65743">
        <ele>665.2</ele>
        <time>2023-09-03T09:07:23Z</time>
      </trkpt>
      <trkpt lat="48.10192" lon="6.65742">
        <ele>665.2</ele>
        <time>2023-09-03T09:07:24Z</time>
      </trkpt>
      <trkpt lat="48.10189" lon="6.65741">
        <ele>665.2</ele>
        <time>2023-09-03T09:07:25Z</time>
      </trkpt>
      <trkpt lat="48.10186" lon="6.6574">
        <ele>665.4</ele>
        <time>2023-09-03T09:07:26Z</time>
      </trkpt>
      <trkpt lat="48.10182" lon="6.6574">
        <ele>665.6</ele>
        <time>2023-09-03T09:07:27Z</time>
      </trkpt>
      <trkpt lat="48.10179" lon="6.6574">
        <ele>665.8</ele>
        <time>2023-09-03T09:07:28Z</time>
      </trkpt>
      <trkpt lat="48.10175" lon="6.65738">
        <ele>666</ele>
        <time>2023-09-03T09:07:29Z</time>
      </trkpt>
      <trkpt lat="48.10172" lon="6.65736">
        <ele>666</ele>
        <time>2023-09-03T09:07:30Z</time>
      </trkpt>
      <trkpt lat="48.10168" lon="6.65736">
        <ele>666.2</ele>
        <time>2023-09-03T09:07:31Z</time>
      </trkpt>
      <trkpt lat="48.10164" lon="6.65734">
        <ele>666.4</ele>
        <time>2023-09-03T09:07:32Z</time>
      </trkpt>
      <trkpt lat="48.10161" lon="6.65733">
        <ele>666.6</ele>
        <time>2023-09-03T09:07:33Z</time>
      </trkpt>
      <trkpt lat="48.10158" lon="6.65732">
        <ele>666.8</ele>
        <time>2023-09-03T09:07:34Z</time>
      </trkpt>
      <trkpt lat="48.10155" lon="6.65732">
        <ele>667</ele>
        <time>2023-09-03T09:07:35Z</time>
      </trkpt>
      <trkpt lat="48.10152" lon="6.65732">
        <ele>667.2</ele>
        <time>2023-09-03T09:07:36Z</time>
      </trkpt>
      <trkpt lat="48.1015" lon="6.65733">
        <ele>667.8</ele>
        <time>2023-09-03T09:07:37Z</time>
      </trkpt>
      <trkpt lat="48.10147" lon="6.65734">
        <ele>668.6</ele>
        <time>2023-09-03T09:07:38Z</time>
      </trkpt>
      <trkpt lat="48.10144" lon="6.65734">
        <ele>668.8</ele>
        <time>2023-09-03T09:07:39Z</time>
      </trkpt>
      <trkpt lat="48.10142" lon="6.65736">
        <ele>669.2</ele>
        <time>2023-09-03T09:07:40Z</time>
      </trkpt>
      <trkpt lat="48.10139" lon="6.65737">
        <ele>669.2</ele>
        <time>2023-09-03T09:07:41Z</time>
      </trkpt>
      <trkpt lat="48.10137" lon="6.65736">
        <ele>669.6</ele>
        <time>2023-09-03T09:07:42Z</time>
      </trkpt>
      <trkpt lat="48.10135" lon="6.65736">
        <ele>669.6</ele>
        <time>2023-09-03T09:07:43Z</time>
      </trkpt>
      <trkpt lat="48.10133" lon="6.65737">
        <ele>669.8</ele>
        <time>2023-09-03T09:07:44Z</time>
      </trkpt>
      <trkpt lat="48.1013" lon="6.65738">
        <ele>669.8</ele>
        <time>2023-09-03T09:07:45Z</time>
      </trkpt>
      <trkpt lat="48.10129" lon="6.65738">
        <ele>670</ele>
        <time>2023-09-03T09:07:46Z</time>
      </trkpt>
      <trkpt lat="48.10128" lon="6.65738">
        <ele>670</ele>
        <time>2023-09-03T09:07:47Z</time>
      </trkpt>
      <trkpt lat="48.10127" lon="6.65736">
        <ele>670.2</ele>
        <time>2023-09-03T09:07:48Z</time>
      </trkpt>
      <trkpt lat="48.10126" lon="6.65734">
        <ele>670.2</ele>
        <time>2023-09-03T09:07:49Z</time>
      </trkpt>
      <trkpt lat="48.10125" lon="6.65733">
        <ele>670.4</ele>
        <time>2023-09-03T09:07:50Z</time>
      </trkpt>
      <trkpt lat="48.10123" lon="6.65731">
        <ele>670.8</ele>
        <time>2023-09-03T09:07:51Z</time>
      </trkpt>
      <trkpt lat="48.10122" lon="6.6573">
        <ele>670.8</ele>
        <time>2023-09-03T09:07:52Z</time>
      </trkpt>
      <trkpt lat="48.1012" lon="6.65728">
        <ele>671.2</ele>
        <time>2023-09-03T09:07:53Z</time>
      </trkpt>
      <trkpt lat="48.10119" lon="6.65727">
        <ele>671.4</ele>
        <time>2023-09-03T09:07:54Z</time>
      </trkpt>
      <trkpt lat="48.10118" lon="6.65725">
        <ele>671.6</ele>
        <time>2023-09-03T09:07:55Z</time>
      </trkpt>
      <trkpt lat="48.10117" lon="6.65723">
        <ele>671.8</ele>
        <time>2023-09-03T09:07:56Z</time>
      </trkpt>
      <trkpt lat="48.10116" lon="6.65723">
        <ele>672</ele>
        <time>2023-09-03T09:07:57Z</time>
      </trkpt>
      <trkpt lat="48.10116" lon="6.65721">
        <ele>672.2</ele>
        <time>2023-09-03T09:07:58Z</time>
      </trkpt>
      <trkpt lat="48.10114" lon="6.65718">
        <ele>672.4</ele>
        <time>2023-09-03T09:07:59Z</time>
      </trkpt>
      <trkpt lat="48.10113" lon="6.65716">
        <ele>672.6</ele>
        <time>2023-09-03T09:08:00Z</time>
      </trkpt>
      <trkpt lat="48.10112" lon="6.65713">
        <ele>673</ele>
        <time>2023-09-03T09:08:01Z</time>
      </trkpt>
      <trkpt lat="48.10112" lon="6.65711">
        <ele>673.2</ele>
        <time>2023-09-03T09:08:02Z</time>
      </trkpt>
      <trkpt lat="48.1011" lon="6.65708">
        <ele>673.4</ele>
        <time>2023-09-03T09:08:03Z</time>
      </trkpt>
      <trkpt lat="48.1011" lon="6.65705">
        <ele>674</ele>
        <time>2023-09-03T09:08:04Z</time>
      </trkpt>
      <trkpt lat="48.10109" lon="6.65702">
        <ele>674.2</ele>
        <time>2023-09-03T09:08:05Z</time>
      </trkpt>
      <trkpt lat="48.10108" lon="6.65699">
        <ele>674.6</ele>
        <time>2023-09-03T09:08:06Z</time>
      </trkpt>
      <trkpt lat="48.10106" lon="6.65695">
        <ele>674.8</ele>
        <time>2023-09-03T09:08:07Z</time>
      </trkpt>
      <trkpt lat="48.10107" lon="6.65691">
        <ele>675.2</ele>
        <time>2023-09-03T09:08:08Z</time>
      </trkpt>
      <trkpt lat="48.10107" lon="6.65689">
        <ele>675.4</ele>
        <time>2023-09-03T09:08:09Z</time>
      </trkpt>
      <trkpt lat="48.10107" lon="6.65686">
        <ele>675.6</ele>
        <time>2023-09-03T09:08:10Z</time>
      </trkpt>
      <trkpt lat="48.10107" lon="6.65684">
        <ele>675.8</ele>
        <time>2023-09-03T09:08:11Z</time>
      </trkpt>
      <trkpt lat="48.10105" lon="6.65678">
        <ele>676</ele>
        <time>2023-09-03T09:08:12Z</time>
      </trkpt>
      <trkpt lat="48.10104" lon="6.65676">
        <ele>676.2</ele>
        <time>2023-09-03T09:08:13Z</time>
      </trkpt>
      <trkpt lat="48.10104" lon="6.65675">
        <ele>676.4</ele>
        <time>2023-09-03T09:08:14Z</time>
      </trkpt>
      <trkpt lat="48.10103" lon="6.65671">
        <ele>676.6</ele>
        <time>2023-09-03T09:08:15Z</time>
      </trkpt>
      <trkpt lat="48.101" lon="6.65665">
        <ele>676.6</ele>
        <time>2023-09-03T09:08:16Z</time>
      </trkpt>
      <trkpt lat="48.10098" lon="6.65663">
        <ele>677</ele>
        <time>2023-09-03T09:08:17Z</time>
      </trkpt>
      <trkpt lat="48.10097" lon="6.65661">
        <ele>677</ele>
        <time>2023-09-03T09:08:18Z</time>
      </trkpt>
      <trkpt lat="48.10096" lon="6.65659">
        <ele>677.2</ele>
        <time>2023-09-03T09:08:19Z</time>
      </trkpt>
      <trkpt lat="48.10095" lon="6.65657">
        <ele>677.6</ele>
        <time>2023-09-03T09:08:20Z</time>
      </trkpt>
      <trkpt lat="48.10095" lon="6.65655">
        <ele>678</ele>
        <time>2023-09-03T09:08:21Z</time>
      </trkpt>
      <trkpt lat="48.10093" lon="6.65652">
        <ele>678.2</ele>
        <time>2023-09-03T09:08:22Z</time>
      </trkpt>
      <trkpt lat="48.10093" lon="6.6565">
        <ele>678.4</ele>
        <time>2023-09-03T09:08:23Z</time>
      </trkpt>
      <trkpt lat="48.10093" lon="6.65647">
        <ele>678.6</ele>
        <time>2023-09-03T09:08:24Z</time>
      </trkpt>
      <trkpt lat="48.10093" lon="6.65643">
        <ele>678.8</ele>
        <time>2023-09-03T09:08:25Z</time>
      </trkpt>
      <trkpt lat="48.10093" lon="6.6564">
        <ele>679</ele>
        <time>2023-09-03T09:08:26Z</time>
      </trkpt>
      <trkpt lat="48.10094" lon="6.65638">
        <ele>679.2</ele>
        <time>2023-09-03T09:08:27Z</time>
      </trkpt>
      <trkpt lat="48.10094" lon="6.65636">
        <ele>679.4</ele>
        <time>2023-09-03T09:08:28Z</time>
      </trkpt>
      <trkpt lat="48.10092" lon="6.65633">
        <ele>679.6</ele>
        <time>2023-09-03T09:08:29Z</time>
      </trkpt>
      <trkpt lat="48.10091" lon="6.65631">
        <ele>679.8</ele>
        <time>2023-09-03T09:08:30Z</time>
      </trkpt>
      <trkpt lat="48.10092" lon="6.65629">
        <ele>679.8</ele>
        <time>2023-09-03T09:08:31Z</time>
      </trkpt>
      <trkpt lat="48.10092" lon="6.65628">
        <ele>680</ele>
        <time>2023-09-03T09:08:32Z</time>
      </trkpt>
      <trkpt lat="48.10092" lon="6.65626">
        <ele>680</ele>
        <time>2023-09-03T09:08:33Z</time>
      </trkpt>
      <trkpt lat="48.10091" lon="6.65623">
        <ele>680.2</ele>
        <time>2023-09-03T09:08:34Z</time>
      </trkpt>
      <trkpt lat="48.1009" lon="6.65622">
        <ele>680.4</ele>
        <time>2023-09-03T09:08:35Z</time>
      </trkpt>
      <trkpt lat="48.10089" lon="6.6562">
        <ele>680.8</ele>
        <time>2023-09-03T09:08:36Z</time>
      </trkpt>
      <trkpt lat="48.10089" lon="6.65618">
        <ele>681.2</ele>
        <time>2023-09-03T09:08:37Z</time>
      </trkpt>
      <trkpt lat="48.10088" lon="6.65616">
        <ele>681.4</ele>
        <time>2023-09-03T09:08:38Z</time>
      </trkpt>
      <trkpt lat="48.10088" lon="6.65615">
        <ele>682</ele>
        <time>2023-09-03T09:08:39Z</time>
      </trkpt>
      <trkpt lat="48.10089" lon="6.65613">
        <ele>682</ele>
        <time>2023-09-03T09:08:40Z</time>
      </trkpt>
      <trkpt lat="48.10088" lon="6.6561">
        <ele>682.4</ele>
        <time>2023-09-03T09:08:41Z</time>
      </trkpt>
      <trkpt lat="48.10088" lon="6.65608">
        <ele>682.6</ele>
        <time>2023-09-03T09:08:42Z</time>
      </trkpt>
      <trkpt lat="48.10088" lon="6.65606">
        <ele>682.6</ele>
        <time>2023-09-03T09:08:43Z</time>
      </trkpt>
      <trkpt lat="48.10088" lon="6.65604">
        <ele>682.8</ele>
        <time>2023-09-03T09:08:44Z</time>
      </trkpt>
      <trkpt lat="48.10088" lon="6.65602">
        <ele>683</ele>
        <time>2023-09-03T09:08:45Z</time>
      </trkpt>
      <trkpt lat="48.10089" lon="6.65601">
        <ele>683.2</ele>
        <time>2023-09-03T09:08:46Z</time>
      </trkpt>
      <trkpt lat="48.10088" lon="6.656">
        <ele>683.6</ele>
        <time>2023-09-03T09:08:47Z</time>
      </trkpt>
      <trkpt lat="48.10089" lon="6.656">
        <ele>684</ele>
        <time>2023-09-03T09:08:48Z</time>
      </trkpt>
      <trkpt lat="48.10088" lon="6.65598">
        <ele>684.2</ele>
        <time>2023-09-03T09:08:49Z</time>
      </trkpt>
      <trkpt lat="48.10087" lon="6.65597">
        <ele>684.4</ele>
        <time>2023-09-03T09:08:50Z</time>
      </trkpt>
      <trkpt lat="48.10087" lon="6.65594">
        <ele>684.4</ele>
        <time>2023-09-03T09:08:51Z</time>
      </trkpt>
      <trkpt lat="48.10086" lon="6.65591">
        <ele>684.6</ele>
        <time>2023-09-03T09:08:52Z</time>
      </trkpt>
      <trkpt lat="48.10086" lon="6.65589">
        <ele>684.8</ele>
        <time>2023-09-03T09:08:53Z</time>
      </trkpt>
      <trkpt lat="48.10086" lon="6.65588">
        <ele>685</ele>
        <time>2023-09-03T09:08:54Z</time>
      </trkpt>
      <trkpt lat="48.10086" lon="6.65586">
        <ele>685.2</ele>
        <time>2023-09-03T09:08:55Z</time>
      </trkpt>
      <trkpt lat="48.10086" lon="6.65585">
        <ele>685.6</ele>
        <time>2023-09-03T09:08:56Z</time>
      </trkpt>
      <trkpt lat="48.10085" lon="6.65583">
        <ele>685.8</ele>
        <time>2023-09-03T09:08:57Z</time>
      </trkpt>
      <trkpt lat="48.10085" lon="6.65582">
        <ele>686</ele>
        <time>2023-09-03T09:08:58Z</time>
      </trkpt>
      <trkpt lat="48.10084" lon="6.6558">
        <ele>686</ele>
        <time>2023-09-03T09:08:59Z</time>
      </trkpt>
      <trkpt lat="48.10084" lon="6.65577">
        <ele>686.2</ele>
        <time>2023-09-03T09:09:00Z</time>
      </trkpt>
      <trkpt lat="48.10084" lon="6.65574">
        <ele>686.2</ele>
        <time>2023-09-03T09:09:01Z</time>
      </trkpt>
      <trkpt lat="48.10083" lon="6.65571">
        <ele>686.4</ele>
        <time>2023-09-03T09:09:02Z</time>
      </trkpt>
      <trkpt lat="48.10083" lon="6.65568">
        <ele>686.6</ele>
        <time>2023-09-03T09:09:03Z</time>
      </trkpt>
      <trkpt lat="48.10083" lon="6.65565">
        <ele>686.6</ele>
        <time>2023-09-03T09:09:04Z</time>
      </trkpt>
      <trkpt lat="48.10082" lon="6.65562">
        <ele>687</ele>
        <time>2023-09-03T09:09:05Z</time>
      </trkpt>
      <trkpt lat="48.10081" lon="6.6556">
        <ele>687.2</ele>
        <time>2023-09-03T09:09:06Z</time>
      </trkpt>
      <trkpt lat="48.10081" lon="6.65557">
        <ele>687.4</ele>
        <time>2023-09-03T09:09:07Z</time>
      </trkpt>
      <trkpt lat="48.1008" lon="6.65555">
        <ele>687.6</ele>
        <time>2023-09-03T09:09:08Z</time>
      </trkpt>
      <trkpt lat="48.10079" lon="6.65553">
        <ele>687.8</ele>
        <time>2023-09-03T09:09:09Z</time>
      </trkpt>
      <trkpt lat="48.10076" lon="6.6555">
        <ele>688</ele>
        <time>2023-09-03T09:09:10Z</time>
      </trkpt>
      <trkpt lat="48.10077" lon="6.65548">
        <ele>688.2</ele>
        <time>2023-09-03T09:09:11Z</time>
      </trkpt>
      <trkpt lat="48.10077" lon="6.65545">
        <ele>688.8</ele>
        <time>2023-09-03T09:09:12Z</time>
      </trkpt>
      <trkpt lat="48.10077" lon="6.65544">
        <ele>688.8</ele>
        <time>2023-09-03T09:09:13Z</time>
      </trkpt>
      <trkpt lat="48.10077" lon="6.65543">
        <ele>689.2</ele>
        <time>2023-09-03T09:09:14Z</time>
      </trkpt>
      <trkpt lat="48.10077" lon="6.65543">
        <ele>689.4</ele>
        <time>2023-09-03T09:09:15Z</time>
      </trkpt>
      <trkpt lat="48.10077" lon="6.65542">
        <ele>689.6</ele>
        <time>2023-09-03T09:09:16Z</time>
      </trkpt>
      <trkpt lat="48.10077" lon="6.6554">
        <ele>689.8</ele>
        <time>2023-09-03T09:09:17Z</time>
      </trkpt>
      <trkpt lat="48.10076" lon="6.65539">
        <ele>690</ele>
        <time>2023-09-03T09:09:18Z</time>
      </trkpt>
      <trkpt lat="48.10075" lon="6.65537">
        <ele>690.2</ele>
        <time>2023-09-03T09:09:19Z</time>
      </trkpt>
      <trkpt lat="48.10075" lon="6.65535">
        <ele>690.4</ele>
        <time>2023-09-03T09:09:20Z</time>
      </trkpt>
      <trkpt lat="48.10075" lon="6.65532">
        <ele>690.4</ele>
        <time>2023-09-03T09:09:21Z</time>
      </trkpt>
      <trkpt lat="48.10074" lon="6.65529">
        <ele>690.6</ele>
        <time>2023-09-03T09:09:22Z</time>
      </trkpt>
      <trkpt lat="48.10073" lon="6.65527">
        <ele>690.6</ele>
        <time>2023-09-03T09:09:23Z</time>
      </trkpt>
      <trkpt lat="48.10072" lon="6.65524">
        <ele>690.8</ele>
        <time>2023-09-03T09:09:24Z</time>
      </trkpt>
      <trkpt lat="48.1007" lon="6.65521">
        <ele>691.2</ele>
        <time>2023-09-03T09:09:25Z</time>
      </trkpt>
      <trkpt lat="48.10071" lon="6.65519">
        <ele>691.2</ele>
        <time>2023-09-03T09:09:26Z</time>
      </trkpt>
      <trkpt lat="48.10071" lon="6.65519">
        <ele>691.4</ele>
        <time>2023-09-03T09:09:27Z</time>
      </trkpt>
      <trkpt lat="48.10071" lon="6.65517">
        <ele>691.4</ele>
        <time>2023-09-03T09:09:28Z</time>
      </trkpt>
      <trkpt lat="48.1007" lon="6.65517">
        <ele>691.4</ele>
        <time>2023-09-03T09:09:29Z</time>
      </trkpt>
      <trkpt lat="48.10071" lon="6.65515">
        <ele>691.6</ele>
        <time>2023-09-03T09:09:30Z</time>
      </trkpt>
      <trkpt lat="48.1007" lon="6.65512">
        <ele>691.6</ele>
        <time>2023-09-03T09:09:31Z</time>
      </trkpt>
      <trkpt lat="48.10071" lon="6.6551">
        <ele>691.6</ele>
        <time>2023-09-03T09:09:32Z</time>
      </trkpt>
      <trkpt lat="48.10072" lon="6.65505">
        <ele>692</ele>
        <time>2023-09-03T09:09:33Z</time>
      </trkpt>
      <trkpt lat="48.10073" lon="6.65501">
        <ele>692</ele>
        <time>2023-09-03T09:09:34Z</time>
      </trkpt>
      <trkpt lat="48.10074" lon="6.65496">
        <ele>692</ele>
        <time>2023-09-03T09:09:35Z</time>
      </trkpt>
      <trkpt lat="48.10074" lon="6.65494">
        <ele>692.2</ele>
        <time>2023-09-03T09:09:36Z</time>
      </trkpt>
      <trkpt lat="48.10074" lon="6.65491">
        <ele>692.2</ele>
        <time>2023-09-03T09:09:37Z</time>
      </trkpt>
      <trkpt lat="48.10075" lon="6.65488">
        <ele>692.4</ele>
        <time>2023-09-03T09:09:38Z</time>
      </trkpt>
      <trkpt lat="48.10079" lon="6.65483">
        <ele>692.4</ele>
        <time>2023-09-03T09:09:39Z</time>
      </trkpt>
      <trkpt lat="48.10082" lon="6.65478">
        <ele>692.4</ele>
        <time>2023-09-03T09:09:40Z</time>
      </trkpt>
      <trkpt lat="48.10086" lon="6.65472">
        <ele>692.6</ele>
        <time>2023-09-03T09:09:41Z</time>
      </trkpt>
      <trkpt lat="48.10089" lon="6.65466">
        <ele>692.8</ele>
        <time>2023-09-03T09:09:42Z</time>
      </trkpt>
      <trkpt lat="48.10091" lon="6.6546">
        <ele>692.8</ele>
        <time>2023-09-03T09:09:43Z</time>
      </trkpt>
      <trkpt lat="48.10093" lon="6.65455">
        <ele>692.8</ele>
        <time>2023-09-03T09:09:44Z</time>
      </trkpt>
      <trkpt lat="48.10094" lon="6.65454">
        <ele>692.8</ele>
        <time>2023-09-03T09:09:45Z</time>
      </trkpt>
      <trkpt lat="48.10094" lon="6.65454">
        <ele>692.8</ele>
        <time>2023-09-03T09:09:46Z</time>
      </trkpt>
      <trkpt lat="48.10094" lon="6.65454">
        <ele>692.6</ele>
        <time>2023-09-03T09:09:47Z</time>
      </trkpt>
      <trkpt lat="48.10096" lon="6.65454">
        <ele>692.6</ele>
        <time>2023-09-03T09:09:48Z</time>
      </trkpt>
      <trkpt lat="48.10096" lon="6.65454">
        <ele>692.4</ele>
        <time>2023-09-03T09:09:49Z</time>
      </trkpt>
      <trkpt lat="48.10101" lon="6.65451">
        <ele>692.4</ele>
        <time>2023-09-03T09:09:50Z</time>
      </trkpt>
      <trkpt lat="48.10105" lon="6.65448">
        <ele>692.4</ele>
        <time>2023-09-03T09:09:51Z</time>
      </trkpt>
      <trkpt lat="48.1011" lon="6.65447">
        <ele>692.2</ele>
        <time>2023-09-03T09:09:52Z</time>
      </trkpt>
      <trkpt lat="48.10117" lon="6.65444">
        <ele>691.8</ele>
        <time>2023-09-03T09:09:53Z</time>
      </trkpt>
      <trkpt lat="48.10124" lon="6.65441">
        <ele>691.8</ele>
        <time>2023-09-03T09:09:54Z</time>
      </trkpt>
      <trkpt lat="48.1013" lon="6.65439">
        <ele>691.6</ele>
        <time>2023-09-03T09:09:55Z</time>
      </trkpt>
      <trkpt lat="48.10137" lon="6.65436">
        <ele>691.6</ele>
        <time>2023-09-03T09:09:56Z</time>
      </trkpt>
      <trkpt lat="48.10144" lon="6.65433">
        <ele>691.6</ele>
        <time>2023-09-03T09:09:57Z</time>
      </trkpt>
      <trkpt lat="48.10149" lon="6.6543">
        <ele>691.6</ele>
        <time>2023-09-03T09:09:58Z</time>
      </trkpt>
      <trkpt lat="48.10157" lon="6.65426">
        <ele>691.6</ele>
        <time>2023-09-03T09:09:59Z</time>
      </trkpt>
      <trkpt lat="48.10164" lon="6.65422">
        <ele>691.6</ele>
        <time>2023-09-03T09:10:00Z</time>
      </trkpt>
      <trkpt lat="48.10173" lon="6.65415">
        <ele>691.4</ele>
        <time>2023-09-03T09:10:01Z</time>
      </trkpt>
      <trkpt lat="48.10182" lon="6.65407">
        <ele>691.2</ele>
        <time>2023-09-03T09:10:02Z</time>
      </trkpt>
      <trkpt lat="48.1019" lon="6.65398">
        <ele>691</ele>
        <time>2023-09-03T09:10:03Z</time>
      </trkpt>
      <trkpt lat="48.10198" lon="6.65389">
        <ele>690.8</ele>
        <time>2023-09-03T09:10:04Z</time>
      </trkpt>
      <trkpt lat="48.10203" lon="6.6538">
        <ele>690.4</ele>
        <time>2023-09-03T09:10:05Z</time>
      </trkpt>
      <trkpt lat="48.1021" lon="6.65372">
        <ele>689.6</ele>
        <time>2023-09-03T09:10:06Z</time>
      </trkpt>
      <trkpt lat="48.10216" lon="6.65364">
        <ele>689</ele>
        <time>2023-09-03T09:10:07Z</time>
      </trkpt>
      <trkpt lat="48.1022" lon="6.65358">
        <ele>688.4</ele>
        <time>2023-09-03T09:10:08Z</time>
      </trkpt>
      <trkpt lat="48.10223" lon="6.65355">
        <ele>688.2</ele>
        <time>2023-09-03T09:10:09Z</time>
      </trkpt>
      <trkpt lat="48.10226" lon="6.65355">
        <ele>687.6</ele>
        <time>2023-09-03T09:10:10Z</time>
      </trkpt>
      <trkpt lat="48.1023" lon="6.65355">
        <ele>687</ele>
        <time>2023-09-03T09:10:11Z</time>
      </trkpt>
      <trkpt lat="48.10233" lon="6.65355">
        <ele>686.8</ele>
        <time>2023-09-03T09:10:12Z</time>
      </trkpt>
      <trkpt lat="48.10237" lon="6.65355">
        <ele>686.6</ele>
        <time>2023-09-03T09:10:13Z</time>
      </trkpt>
      <trkpt lat="48.1024" lon="6.65354">
        <ele>686.4</ele>
        <time>2023-09-03T09:10:14Z</time>
      </trkpt>
      <trkpt lat="48.10245" lon="6.65353">
        <ele>686.4</ele>
        <time>2023-09-03T09:10:15Z</time>
      </trkpt>
      <trkpt lat="48.1025" lon="6.65352">
        <ele>686.4</ele>
        <time>2023-09-03T09:10:16Z</time>
      </trkpt>
      <trkpt lat="48.10255" lon="6.65351">
        <ele>686.4</ele>
        <time>2023-09-03T09:10:17Z</time>
      </trkpt>
      <trkpt lat="48.10258" lon="6.65349">
        <ele>686.4</ele>
        <time>2023-09-03T09:10:18Z</time>
      </trkpt>
      <trkpt lat="48.10263" lon="6.65347">
        <ele>686.4</ele>
        <time>2023-09-03T09:10:19Z</time>
      </trkpt>
      <trkpt lat="48.10269" lon="6.65343">
        <ele>686.4</ele>
        <time>2023-09-03T09:10:20Z</time>
      </trkpt>
      <trkpt lat="48.10276" lon="6.65339">
        <ele>686.4</ele>
        <time>2023-09-03T09:10:21Z</time>
      </trkpt>
      <trkpt lat="48.10281" lon="6.65337">
        <ele>686.4</ele>
        <time>2023-09-03T09:10:22Z</time>
      </trkpt>
      <trkpt lat="48.10287" lon="6.65336">
        <ele>686.4</ele>
        <time>2023-09-03T09:10:23Z</time>
      </trkpt>
      <trkpt lat="48.1029" lon="6.65335">
        <ele>686.4</ele>
        <time>2023-09-03T09:10:24Z</time>
      </trkpt>
      <trkpt lat="48.10295" lon="6.65335">
        <ele>686.6</ele>
        <time>2023-09-03T09:10:25Z</time>
      </trkpt>
      <trkpt lat="48.10298" lon="6.65336">
        <ele>686.8</ele>
        <time>2023-09-03T09:10:26Z</time>
      </trkpt>
      <trkpt lat="48.10302" lon="6.65336">
        <ele>686.6</ele>
        <time>2023-09-03T09:10:27Z</time>
      </trkpt>
      <trkpt lat="48.10305" lon="6.65335">
        <ele>686.4</ele>
        <time>2023-09-03T09:10:28Z</time>
      </trkpt>
      <trkpt lat="48.10309" lon="6.65336">
        <ele>686.4</ele>
        <time>2023-09-03T09:10:29Z</time>
      </trkpt>
      <trkpt lat="48.10314" lon="6.65339">
        <ele>686.2</ele>
        <time>2023-09-03T09:10:30Z</time>
      </trkpt>
      <trkpt lat="48.1032" lon="6.65342">
        <ele>686</ele>
        <time>2023-09-03T09:10:31Z</time>
      </trkpt>
      <trkpt lat="48.10326" lon="6.65344">
        <ele>685.6</ele>
        <time>2023-09-03T09:10:32Z</time>
      </trkpt>
      <trkpt lat="48.10332" lon="6.65345">
        <ele>685.4</ele>
        <time>2023-09-03T09:10:33Z</time>
      </trkpt>
      <trkpt lat="48.1034" lon="6.65345">
        <ele>684.4</ele>
        <time>2023-09-03T09:10:34Z</time>
      </trkpt>
      <trkpt lat="48.10349" lon="6.65348">
        <ele>683.8</ele>
        <time>2023-09-03T09:10:35Z</time>
      </trkpt>
      <trkpt lat="48.1036" lon="6.65351">
        <ele>683.6</ele>
        <time>2023-09-03T09:10:36Z</time>
      </trkpt>
      <trkpt lat="48.1037" lon="6.65356">
        <ele>683.2</ele>
        <time>2023-09-03T09:10:37Z</time>
      </trkpt>
      <trkpt lat="48.10377" lon="6.65358">
        <ele>683</ele>
        <time>2023-09-03T09:10:38Z</time>
      </trkpt>
      <trkpt lat="48.10383" lon="6.6536">
        <ele>682.8</ele>
        <time>2023-09-03T09:10:39Z</time>
      </trkpt>
      <trkpt lat="48.1039" lon="6.65362">
        <ele>682.6</ele>
        <time>2023-09-03T09:10:40Z</time>
      </trkpt>
      <trkpt lat="48.10397" lon="6.65364">
        <ele>682.4</ele>
        <time>2023-09-03T09:10:41Z</time>
      </trkpt>
      <trkpt lat="48.10403" lon="6.65368">
        <ele>682.2</ele>
        <time>2023-09-03T09:10:42Z</time>
      </trkpt>
      <trkpt lat="48.10409" lon="6.65373">
        <ele>682.4</ele>
        <time>2023-09-03T09:10:43Z</time>
      </trkpt>
      <trkpt lat="48.10419" lon="6.65379">
        <ele>682.4</ele>
        <time>2023-09-03T09:10:44Z</time>
      </trkpt>
      <trkpt lat="48.10429" lon="6.65383">
        <ele>682</ele>
        <time>2023-09-03T09:10:45Z</time>
      </trkpt>
      <trkpt lat="48.10437" lon="6.65386">
        <ele>682</ele>
        <time>2023-09-03T09:10:46Z</time>
      </trkpt>
      <trkpt lat="48.10443" lon="6.65387">
        <ele>681.8</ele>
        <time>2023-09-03T09:10:47Z</time>
      </trkpt>
      <trkpt lat="48.10452" lon="6.65387">
        <ele>681.6</ele>
        <time>2023-09-03T09:10:48Z</time>
      </trkpt>
      <trkpt lat="48.10463" lon="6.65384">
        <ele>681.4</ele>
        <time>2023-09-03T09:10:49Z</time>
      </trkpt>
      <trkpt lat="48.10473" lon="6.65381">
        <ele>681</ele>
        <time>2023-09-03T09:10:50Z</time>
      </trkpt>
      <trkpt lat="48.10484" lon="6.65377">
        <ele>680.4</ele>
        <time>2023-09-03T09:10:51Z</time>
      </trkpt>
      <trkpt lat="48.10494" lon="6.65377">
        <ele>680</ele>
        <time>2023-09-03T09:10:52Z</time>
      </trkpt>
      <trkpt lat="48.10502" lon="6.65377">
        <ele>679.2</ele>
        <time>2023-09-03T09:10:53Z</time>
      </trkpt>
      <trkpt lat="48.10507" lon="6.65379">
        <ele>678.4</ele>
        <time>2023-09-03T09:10:54Z</time>
      </trkpt>
      <trkpt lat="48.10514" lon="6.6538">
        <ele>677.6</ele>
        <time>2023-09-03T09:10:55Z</time>
      </trkpt>
      <trkpt lat="48.10522" lon="6.65384">
        <ele>676.2</ele>
        <time>2023-09-03T09:10:56Z</time>
      </trkpt>
      <trkpt lat="48.10529" lon="6.65388">
        <ele>675.6</ele>
        <time>2023-09-03T09:10:57Z</time>
      </trkpt>
      <trkpt lat="48.10534" lon="6.65393">
        <ele>674.6</ele>
        <time>2023-09-03T09:10:58Z</time>
      </trkpt>
      <trkpt lat="48.10539" lon="6.65398">
        <ele>674.2</ele>
        <time>2023-09-03T09:10:59Z</time>
      </trkpt>
      <trkpt lat="48.10545" lon="6.65402">
        <ele>674</ele>
        <time>2023-09-03T09:11:00Z</time>
      </trkpt>
      <trkpt lat="48.10551" lon="6.65406">
        <ele>673.6</ele>
        <time>2023-09-03T09:11:01Z</time>
      </trkpt>
      <trkpt lat="48.10556" lon="6.65408">
        <ele>673.6</ele>
        <time>2023-09-03T09:11:02Z</time>
      </trkpt>
      <trkpt lat="48.10561" lon="6.65412">
        <ele>673.4</ele>
        <time>2023-09-03T09:11:03Z</time>
      </trkpt>
      <trkpt lat="48.10566" lon="6.65414">
        <ele>673.4</ele>
        <time>2023-09-03T09:11:04Z</time>
      </trkpt>
      <trkpt lat="48.10569" lon="6.65416">
        <ele>673.4</ele>
        <time>2023-09-03T09:11:05Z</time>
      </trkpt>
      <trkpt lat="48.10572" lon="6.65417">
        <ele>673.2</ele>
        <time>2023-09-03T09:11:06Z</time>
      </trkpt>
      <trkpt lat="48.10575" lon="6.65419">
        <ele>673.2</ele>
        <time>2023-09-03T09:11:07Z</time>
      </trkpt>
      <trkpt lat="48.10578" lon="6.65421">
        <ele>673</ele>
        <time>2023-09-03T09:11:08Z</time>
      </trkpt>
      <trkpt lat="48.1058" lon="6.65422">
        <ele>672.8</ele>
        <time>2023-09-03T09:11:09Z</time>
      </trkpt>
      <trkpt lat="48.10583" lon="6.65424">
        <ele>672.8</ele>
        <time>2023-09-03T09:11:10Z</time>
      </trkpt>
      <trkpt lat="48.10585" lon="6.65426">
        <ele>672.8</ele>
        <time>2023-09-03T09:11:11Z</time>
      </trkpt>
      <trkpt lat="48.10586" lon="6.65428">
        <ele>672.4</ele>
        <time>2023-09-03T09:11:12Z</time>
      </trkpt>
      <trkpt lat="48.10588" lon="6.65431">
        <ele>672.4</ele>
        <time>2023-09-03T09:11:13Z</time>
      </trkpt>
      <trkpt lat="48.1059" lon="6.65433">
        <ele>672.6</ele>
        <time>2023-09-03T09:11:14Z</time>
      </trkpt>
      <trkpt lat="48.10592" lon="6.65434">
        <ele>672.6</ele>
        <time>2023-09-03T09:11:15Z</time>
      </trkpt>
      <trkpt lat="48.10594" lon="6.65436">
        <ele>672.8</ele>
        <time>2023-09-03T09:11:16Z</time>
      </trkpt>
      <trkpt lat="48.10596" lon="6.65437">
        <ele>672.8</ele>
        <time>2023-09-03T09:11:17Z</time>
      </trkpt>
      <trkpt lat="48.10599" lon="6.65439">
        <ele>672.8</ele>
        <time>2023-09-03T09:11:18Z</time>
      </trkpt>
      <trkpt lat="48.10602" lon="6.6544">
        <ele>672.8</ele>
        <time>2023-09-03T09:11:19Z</time>
      </trkpt>
      <trkpt lat="48.10608" lon="6.65442">
        <ele>673</ele>
        <time>2023-09-03T09:11:20Z</time>
      </trkpt>
      <trkpt lat="48.10612" lon="6.65443">
        <ele>673</ele>
        <time>2023-09-03T09:11:21Z</time>
      </trkpt>
      <trkpt lat="48.10614" lon="6.65444">
        <ele>673.2</ele>
        <time>2023-09-03T09:11:22Z</time>
      </trkpt>
      <trkpt lat="48.10616" lon="6.65447">
        <ele>673.4</ele>
        <time>2023-09-03T09:11:23Z</time>
      </trkpt>
      <trkpt lat="48.10618" lon="6.65451">
        <ele>673.4</ele>
        <time>2023-09-03T09:11:24Z</time>
      </trkpt>
      <trkpt lat="48.10622" lon="6.65454">
        <ele>673.8</ele>
        <time>2023-09-03T09:11:25Z</time>
      </trkpt>
      <trkpt lat="48.10624" lon="6.65457">
        <ele>674</ele>
        <time>2023-09-03T09:11:26Z</time>
      </trkpt>
      <trkpt lat="48.10627" lon="6.65459">
        <ele>674.4</ele>
        <time>2023-09-03T09:11:27Z</time>
      </trkpt>
      <trkpt lat="48.10629" lon="6.65459">
        <ele>674.6</ele>
        <time>2023-09-03T09:11:28Z</time>
      </trkpt>
      <trkpt lat="48.10631" lon="6.6546">
        <ele>674.8</ele>
        <time>2023-09-03T09:11:29Z</time>
      </trkpt>
      <trkpt lat="48.10635" lon="6.65463">
        <ele>675</ele>
        <time>2023-09-03T09:11:30Z</time>
      </trkpt>
      <trkpt lat="48.10636" lon="6.65464">
        <ele>675.2</ele>
        <time>2023-09-03T09:11:31Z</time>
      </trkpt>
      <trkpt lat="48.10638" lon="6.65467">
        <ele>675.4</ele>
        <time>2023-09-03T09:11:32Z</time>
      </trkpt>
      <trkpt lat="48.10639" lon="6.65467">
        <ele>676</ele>
        <time>2023-09-03T09:11:33Z</time>
      </trkpt>
      <trkpt lat="48.10639" lon="6.65467">
        <ele>676.4</ele>
        <time>2023-09-03T09:11:34Z</time>
      </trkpt>
      <trkpt lat="48.10641" lon="6.6547">
        <ele>676.4</ele>
        <time>2023-09-03T09:11:35Z</time>
      </trkpt>
      <trkpt lat="48.10645" lon="6.65473">
        <ele>676.8</ele>
        <time>2023-09-03T09:11:36Z</time>
      </trkpt>
      <trkpt lat="48.10649" lon="6.65477">
        <ele>677</ele>
        <time>2023-09-03T09:11:37Z</time>
      </trkpt>
      <trkpt lat="48.1065" lon="6.6548">
        <ele>677.2</ele>
        <time>2023-09-03T09:11:38Z</time>
      </trkpt>
      <trkpt lat="48.10652" lon="6.65481">
        <ele>677.2</ele>
        <time>2023-09-03T09:11:39Z</time>
      </trkpt>
      <trkpt lat="48.10654" lon="6.65483">
        <ele>677.4</ele>
        <time>2023-09-03T09:11:40Z</time>
      </trkpt>
      <trkpt lat="48.10655" lon="6.65485">
        <ele>677.6</ele>
        <time>2023-09-03T09:11:41Z</time>
      </trkpt>
      <trkpt lat="48.10657" lon="6.65488">
        <ele>677.8</ele>
        <time>2023-09-03T09:11:42Z</time>
      </trkpt>
      <trkpt lat="48.1066" lon="6.65493">
        <ele>678</ele>
        <time>2023-09-03T09:11:43Z</time>
      </trkpt>
      <trkpt lat="48.10662" lon="6.65494">
        <ele>678.2</ele>
        <time>2023-09-03T09:11:44Z</time>
      </trkpt>
      <trkpt lat="48.10665" lon="6.65496">
        <ele>678.4</ele>
        <time>2023-09-03T09:11:45Z</time>
      </trkpt>
      <trkpt lat="48.10668" lon="6.65497">
        <ele>678.8</ele>
        <time>2023-09-03T09:11:46Z</time>
      </trkpt>
      <trkpt lat="48.1067" lon="6.65499">
        <ele>679</ele>
        <time>2023-09-03T09:11:47Z</time>
      </trkpt>
      <trkpt lat="48.10672" lon="6.65501">
        <ele>679.2</ele>
        <time>2023-09-03T09:11:48Z</time>
      </trkpt>
      <trkpt lat="48.10673" lon="6.65502">
        <ele>679.2</ele>
        <time>2023-09-03T09:11:49Z</time>
      </trkpt>
      <trkpt lat="48.10676" lon="6.65506">
        <ele>679.4</ele>
        <time>2023-09-03T09:11:50Z</time>
      </trkpt>
      <trkpt lat="48.10678" lon="6.65506">
        <ele>679.4</ele>
        <time>2023-09-03T09:11:51Z</time>
      </trkpt>
      <trkpt lat="48.1068" lon="6.65506">
        <ele>679.6</ele>
        <time>2023-09-03T09:11:52Z</time>
      </trkpt>
      <trkpt lat="48.1068" lon="6.65506">
        <ele>679.8</ele>
        <time>2023-09-03T09:11:53Z</time>
      </trkpt>
      <trkpt lat="48.10681" lon="6.65505">
        <ele>680</ele>
        <time>2023-09-03T09:11:54Z</time>
      </trkpt>
      <trkpt lat="48.10683" lon="6.65506">
        <ele>680.4</ele>
        <time>2023-09-03T09:11:55Z</time>
      </trkpt>
      <trkpt lat="48.10684" lon="6.65507">
        <ele>680.4</ele>
        <time>2023-09-03T09:11:56Z</time>
      </trkpt>
      <trkpt lat="48.10686" lon="6.65507">
        <ele>680.8</ele>
        <time>2023-09-03T09:11:57Z</time>
      </trkpt>
      <trkpt lat="48.10687" lon="6.65507">
        <ele>680.8</ele>
        <time>2023-09-03T09:11:58Z</time>
      </trkpt>
      <trkpt lat="48.10688" lon="6.65508">
        <ele>681.2</ele>
        <time>2023-09-03T09:11:59Z</time>
      </trkpt>
      <trkpt lat="48.10689" lon="6.65509">
        <ele>681.6</ele>
        <time>2023-09-03T09:12:00Z</time>
      </trkpt>
      <trkpt lat="48.1069" lon="6.6551">
        <ele>681.6</ele>
        <time>2023-09-03T09:12:01Z</time>
      </trkpt>
      <trkpt lat="48.10691" lon="6.6551">
        <ele>681.8</ele>
        <time>2023-09-03T09:12:02Z</time>
      </trkpt>
      <trkpt lat="48.10692" lon="6.65511">
        <ele>681.8</ele>
        <time>2023-09-03T09:12:03Z</time>
      </trkpt>
      <trkpt lat="48.10693" lon="6.65512">
        <ele>682</ele>
        <time>2023-09-03T09:12:04Z</time>
      </trkpt>
      <trkpt lat="48.10694" lon="6.65513">
        <ele>682</ele>
        <time>2023-09-03T09:12:05Z</time>
      </trkpt>
      <trkpt lat="48.10695" lon="6.65513">
        <ele>682.4</ele>
        <time>2023-09-03T09:12:06Z</time>
      </trkpt>
      <trkpt lat="48.10695" lon="6.65513">
        <ele>682.4</ele>
        <time>2023-09-03T09:12:07Z</time>
      </trkpt>
      <trkpt lat="48.10695" lon="6.65513">
        <ele>682.6</ele>
        <time>2023-09-03T09:12:08Z</time>
      </trkpt>
      <trkpt lat="48.10695" lon="6.65513">
        <ele>683</ele>
        <time>2023-09-03T09:12:09Z</time>
      </trkpt>
      <trkpt lat="48.10695" lon="6.65513">
        <ele>683.6</ele>
        <time>2023-09-03T09:12:10Z</time>
      </trkpt>
      <trkpt lat="48.10695" lon="6.65513">
        <ele>683.8</ele>
        <time>2023-09-03T09:12:11Z</time>
      </trkpt>
      <trkpt lat="48.10695" lon="6.65513">
        <ele>683.8</ele>
        <time>2023-09-03T09:12:12Z</time>
      </trkpt>
      <trkpt lat="48.10695" lon="6.65513">
        <ele>684.4</ele>
        <time>2023-09-03T09:12:13Z</time>
      </trkpt>
      <trkpt lat="48.10695" lon="6.65513">
        <ele>684.6</ele>
        <time>2023-09-03T09:12:14Z</time>
      </trkpt>
      <trkpt lat="48.10695" lon="6.65513">
        <ele>685.2</ele>
        <time>2023-09-03T09:12:15Z</time>
      </trkpt>
      <trkpt lat="48.10696" lon="6.65513">
        <ele>685.4</ele>
        <time>2023-09-03T09:12:16Z</time>
      </trkpt>
      <trkpt lat="48.10698" lon="6.65515">
        <ele>685.8</ele>
        <time>2023-09-03T09:12:17Z</time>
      </trkpt>
      <trkpt lat="48.107" lon="6.65517">
        <ele>686</ele>
        <time>2023-09-03T09:12:18Z</time>
      </trkpt>
      <trkpt lat="48.10702" lon="6.65517">
        <ele>686.2</ele>
        <time>2023-09-03T09:12:19Z</time>
      </trkpt>
      <trkpt lat="48.10704" lon="6.65517">
        <ele>686.4</ele>
        <time>2023-09-03T09:12:20Z</time>
      </trkpt>
      <trkpt lat="48.10704" lon="6.65517">
        <ele>686.8</ele>
        <time>2023-09-03T09:12:21Z</time>
      </trkpt>
      <trkpt lat="48.10707" lon="6.65518">
        <ele>686.8</ele>
        <time>2023-09-03T09:12:22Z</time>
      </trkpt>
      <trkpt lat="48.1071" lon="6.65518">
        <ele>687.2</ele>
        <time>2023-09-03T09:12:23Z</time>
      </trkpt>
      <trkpt lat="48.10712" lon="6.65517">
        <ele>687.6</ele>
        <time>2023-09-03T09:12:24Z</time>
      </trkpt>
      <trkpt lat="48.10713" lon="6.65517">
        <ele>687.6</ele>
        <time>2023-09-03T09:12:25Z</time>
      </trkpt>
      <trkpt lat="48.10716" lon="6.65518">
        <ele>687.8</ele>
        <time>2023-09-03T09:12:26Z</time>
      </trkpt>
      <trkpt lat="48.10718" lon="6.65518">
        <ele>688</ele>
        <time>2023-09-03T09:12:27Z</time>
      </trkpt>
      <trkpt lat="48.10719" lon="6.65518">
        <ele>688.4</ele>
        <time>2023-09-03T09:12:28Z</time>
      </trkpt>
      <trkpt lat="48.1072" lon="6.65518">
        <ele>688.6</ele>
        <time>2023-09-03T09:12:29Z</time>
      </trkpt>
      <trkpt lat="48.10722" lon="6.65519">
        <ele>688.8</ele>
        <time>2023-09-03T09:12:30Z</time>
      </trkpt>
      <trkpt lat="48.10724" lon="6.65519">
        <ele>689</ele>
        <time>2023-09-03T09:12:31Z</time>
      </trkpt>
      <trkpt lat="48.10726" lon="6.6552">
        <ele>689.2</ele>
        <time>2023-09-03T09:12:32Z</time>
      </trkpt>
      <trkpt lat="48.10726" lon="6.6552">
        <ele>689.2</ele>
        <time>2023-09-03T09:12:33Z</time>
      </trkpt>
      <trkpt lat="48.10727" lon="6.6552">
        <ele>689.4</ele>
        <time>2023-09-03T09:12:34Z</time>
      </trkpt>
      <trkpt lat="48.10731" lon="6.65522">
        <ele>689.8</ele>
        <time>2023-09-03T09:12:35Z</time>
      </trkpt>
      <trkpt lat="48.10734" lon="6.65524">
        <ele>689.8</ele>
        <time>2023-09-03T09:12:36Z</time>
      </trkpt>
      <trkpt lat="48.10736" lon="6.65525">
        <ele>690.2</ele>
        <time>2023-09-03T09:12:37Z</time>
      </trkpt>
      <trkpt lat="48.10738" lon="6.65524">
        <ele>690.4</ele>
        <time>2023-09-03T09:12:38Z</time>
      </trkpt>
      <trkpt lat="48.10739" lon="6.65524">
        <ele>690.6</ele>
        <time>2023-09-03T09:12:39Z</time>
      </trkpt>
      <trkpt lat="48.10739" lon="6.65524">
        <ele>690.6</ele>
        <time>2023-09-03T09:12:40Z</time>
      </trkpt>
      <trkpt lat="48.10741" lon="6.65524">
        <ele>690.8</ele>
        <time>2023-09-03T09:12:41Z</time>
      </trkpt>
      <trkpt lat="48.10742" lon="6.65524">
        <ele>691</ele>
        <time>2023-09-03T09:12:42Z</time>
      </trkpt>
      <trkpt lat="48.10744" lon="6.65525">
        <ele>691</ele>
        <time>2023-09-03T09:12:43Z</time>
      </trkpt>
      <trkpt lat="48.10746" lon="6.65524">
        <ele>691.2</ele>
        <time>2023-09-03T09:12:44Z</time>
      </trkpt>
      <trkpt lat="48.10748" lon="6.65525">
        <ele>691.2</ele>
        <time>2023-09-03T09:12:45Z</time>
      </trkpt>
      <trkpt lat="48.10749" lon="6.65525">
        <ele>691.4</ele>
        <time>2023-09-03T09:12:46Z</time>
      </trkpt>
      <trkpt lat="48.1075" lon="6.65525">
        <ele>692</ele>
        <time>2023-09-03T09:12:47Z</time>
      </trkpt>
      <trkpt lat="48.10752" lon="6.65525">
        <ele>692.2</ele>
        <time>2023-09-03T09:12:48Z</time>
      </trkpt>
      <trkpt lat="48.10757" lon="6.65524">
        <ele>692.4</ele>
        <time>2023-09-03T09:12:49Z</time>
      </trkpt>
      <trkpt lat="48.10758" lon="6.65523">
        <ele>692.8</ele>
        <time>2023-09-03T09:12:50Z</time>
      </trkpt>
      <trkpt lat="48.10758" lon="6.65523">
        <ele>693</ele>
        <time>2023-09-03T09:12:51Z</time>
      </trkpt>
      <trkpt lat="48.10759" lon="6.65522">
        <ele>693.4</ele>
        <time>2023-09-03T09:12:52Z</time>
      </trkpt>
      <trkpt lat="48.1076" lon="6.65521">
        <ele>693.4</ele>
        <time>2023-09-03T09:12:53Z</time>
      </trkpt>
      <trkpt lat="48.10762" lon="6.65521">
        <ele>693.6</ele>
        <time>2023-09-03T09:12:54Z</time>
      </trkpt>
      <trkpt lat="48.10762" lon="6.65521">
        <ele>693.6</ele>
        <time>2023-09-03T09:12:55Z</time>
      </trkpt>
      <trkpt lat="48.10762" lon="6.65522">
        <ele>693.8</ele>
        <time>2023-09-03T09:12:56Z</time>
      </trkpt>
      <trkpt lat="48.10763" lon="6.65522">
        <ele>694</ele>
        <time>2023-09-03T09:12:57Z</time>
      </trkpt>
      <trkpt lat="48.10764" lon="6.65522">
        <ele>694.2</ele>
        <time>2023-09-03T09:12:58Z</time>
      </trkpt>
      <trkpt lat="48.10765" lon="6.65522">
        <ele>694.4</ele>
        <time>2023-09-03T09:12:59Z</time>
      </trkpt>
      <trkpt lat="48.10766" lon="6.65522">
        <ele>694.6</ele>
        <time>2023-09-03T09:13:00Z</time>
      </trkpt>
      <trkpt lat="48.10767" lon="6.65522">
        <ele>694.6</ele>
        <time>2023-09-03T09:13:01Z</time>
      </trkpt>
      <trkpt lat="48.10768" lon="6.65522">
        <ele>694.8</ele>
        <time>2023-09-03T09:13:02Z</time>
      </trkpt>
      <trkpt lat="48.10769" lon="6.65522">
        <ele>695</ele>
        <time>2023-09-03T09:13:03Z</time>
      </trkpt>
      <trkpt lat="48.10769" lon="6.65522">
        <ele>695</ele>
        <time>2023-09-03T09:13:04Z</time>
      </trkpt>
      <trkpt lat="48.10769" lon="6.65522">
        <ele>695.4</ele>
        <time>2023-09-03T09:13:05Z</time>
      </trkpt>
      <trkpt lat="48.1077" lon="6.65522">
        <ele>695.8</ele>
        <time>2023-09-03T09:13:06Z</time>
      </trkpt>
      <trkpt lat="48.1077" lon="6.65522">
        <ele>696</ele>
        <time>2023-09-03T09:13:07Z</time>
      </trkpt>
      <trkpt lat="48.10772" lon="6.65522">
        <ele>696.2</ele>
        <time>2023-09-03T09:13:08Z</time>
      </trkpt>
      <trkpt lat="48.10773" lon="6.65523">
        <ele>696.2</ele>
        <time>2023-09-03T09:13:09Z</time>
      </trkpt>
      <trkpt lat="48.10774" lon="6.65524">
        <ele>696.4</ele>
        <time>2023-09-03T09:13:10Z</time>
      </trkpt>
      <trkpt lat="48.10775" lon="6.65525">
        <ele>696.6</ele>
        <time>2023-09-03T09:13:11Z</time>
      </trkpt>
      <trkpt lat="48.10777" lon="6.65525">
        <ele>696.8</ele>
        <time>2023-09-03T09:13:12Z</time>
      </trkpt>
      <trkpt lat="48.10778" lon="6.65525">
        <ele>697</ele>
        <time>2023-09-03T09:13:13Z</time>
      </trkpt>
      <trkpt lat="48.10779" lon="6.65525">
        <ele>697.2</ele>
        <time>2023-09-03T09:13:14Z</time>
      </trkpt>
      <trkpt lat="48.10781" lon="6.65526">
        <ele>697.4</ele>
        <time>2023-09-03T09:13:15Z</time>
      </trkpt>
      <trkpt lat="48.10784" lon="6.65527">
        <ele>697.4</ele>
        <time>2023-09-03T09:13:16Z</time>
      </trkpt>
      <trkpt lat="48.10786" lon="6.65528">
        <ele>697.6</ele>
        <time>2023-09-03T09:13:17Z</time>
      </trkpt>
      <trkpt lat="48.10788" lon="6.6553">
        <ele>697.8</ele>
        <time>2023-09-03T09:13:18Z</time>
      </trkpt>
      <trkpt lat="48.10791" lon="6.65531">
        <ele>697.8</ele>
        <time>2023-09-03T09:13:19Z</time>
      </trkpt>
      <trkpt lat="48.10794" lon="6.65532">
        <ele>698.2</ele>
        <time>2023-09-03T09:13:20Z</time>
      </trkpt>
      <trkpt lat="48.10795" lon="6.65532">
        <ele>698.4</ele>
        <time>2023-09-03T09:13:21Z</time>
      </trkpt>
      <trkpt lat="48.10795" lon="6.65532">
        <ele>698.6</ele>
        <time>2023-09-03T09:13:22Z</time>
      </trkpt>
      <trkpt lat="48.10796" lon="6.65533">
        <ele>698.8</ele>
        <time>2023-09-03T09:13:23Z</time>
      </trkpt>
      <trkpt lat="48.10797" lon="6.65533">
        <ele>699</ele>
        <time>2023-09-03T09:13:24Z</time>
      </trkpt>
      <trkpt lat="48.10799" lon="6.65534">
        <ele>699.4</ele>
        <time>2023-09-03T09:13:25Z</time>
      </trkpt>
      <trkpt lat="48.108" lon="6.65535">
        <ele>699.6</ele>
        <time>2023-09-03T09:13:26Z</time>
      </trkpt>
      <trkpt lat="48.10802" lon="6.65536">
        <ele>699.8</ele>
        <time>2023-09-03T09:13:27Z</time>
      </trkpt>
      <trkpt lat="48.10805" lon="6.65537">
        <ele>699.8</ele>
        <time>2023-09-03T09:13:28Z</time>
      </trkpt>
      <trkpt lat="48.10807" lon="6.65538">
        <ele>700</ele>
        <time>2023-09-03T09:13:29Z</time>
      </trkpt>
      <trkpt lat="48.10808" lon="6.65538">
        <ele>700</ele>
        <time>2023-09-03T09:13:30Z</time>
      </trkpt>
      <trkpt lat="48.1081" lon="6.65537">
        <ele>700</ele>
        <time>2023-09-03T09:13:31Z</time>
      </trkpt>
      <trkpt lat="48.10811" lon="6.65536">
        <ele>700.2</ele>
        <time>2023-09-03T09:13:32Z</time>
      </trkpt>
      <trkpt lat="48.10813" lon="6.65535">
        <ele>700.4</ele>
        <time>2023-09-03T09:13:33Z</time>
      </trkpt>
      <trkpt lat="48.10816" lon="6.65534">
        <ele>700.4</ele>
        <time>2023-09-03T09:13:34Z</time>
      </trkpt>
      <trkpt lat="48.10819" lon="6.65533">
        <ele>700.6</ele>
        <time>2023-09-03T09:13:35Z</time>
      </trkpt>
      <trkpt lat="48.10821" lon="6.65532">
        <ele>700.8</ele>
        <time>2023-09-03T09:13:36Z</time>
      </trkpt>
      <trkpt lat="48.10822" lon="6.65529">
        <ele>700.8</ele>
        <time>2023-09-03T09:13:37Z</time>
      </trkpt>
      <trkpt lat="48.10823" lon="6.65526">
        <ele>701</ele>
        <time>2023-09-03T09:13:38Z</time>
      </trkpt>
      <trkpt lat="48.10824" lon="6.65523">
        <ele>701</ele>
        <time>2023-09-03T09:13:39Z</time>
      </trkpt>
      <trkpt lat="48.10824" lon="6.65521">
        <ele>701.2</ele>
        <time>2023-09-03T09:13:40Z</time>
      </trkpt>
      <trkpt lat="48.10826" lon="6.65519">
        <ele>701.4</ele>
        <time>2023-09-03T09:13:41Z</time>
      </trkpt>
      <trkpt lat="48.10826" lon="6.65517">
        <ele>701.6</ele>
        <time>2023-09-03T09:13:42Z</time>
      </trkpt>
      <trkpt lat="48.10825" lon="6.65515">
        <ele>701.6</ele>
        <time>2023-09-03T09:13:43Z</time>
      </trkpt>
      <trkpt lat="48.10825" lon="6.65513">
        <ele>702</ele>
        <time>2023-09-03T09:13:44Z</time>
      </trkpt>
      <trkpt lat="48.10825" lon="6.65511">
        <ele>702</ele>
        <time>2023-09-03T09:13:45Z</time>
      </trkpt>
      <trkpt lat="48.10825" lon="6.65509">
        <ele>702.2</ele>
        <time>2023-09-03T09:13:46Z</time>
      </trkpt>
      <trkpt lat="48.10825" lon="6.65507">
        <ele>702.4</ele>
        <time>2023-09-03T09:13:47Z</time>
      </trkpt>
      <trkpt lat="48.10825" lon="6.65505">
        <ele>702.4</ele>
        <time>2023-09-03T09:13:48Z</time>
      </trkpt>
      <trkpt lat="48.10824" lon="6.65502">
        <ele>702.6</ele>
        <time>2023-09-03T09:13:49Z</time>
      </trkpt>
      <trkpt lat="48.10823" lon="6.655">
        <ele>702.6</ele>
        <time>2023-09-03T09:13:50Z</time>
      </trkpt>
      <trkpt lat="48.10823" lon="6.65498">
        <ele>702.8</ele>
        <time>2023-09-03T09:13:51Z</time>
      </trkpt>
      <trkpt lat="48.10823" lon="6.65497">
        <ele>702.8</ele>
        <time>2023-09-03T09:13:52Z</time>
      </trkpt>
      <trkpt lat="48.10821" lon="6.65496">
        <ele>703</ele>
        <time>2023-09-03T09:13:53Z</time>
      </trkpt>
      <trkpt lat="48.10819" lon="6.65493">
        <ele>703</ele>
        <time>2023-09-03T09:13:54Z</time>
      </trkpt>
      <trkpt lat="48.10819" lon="6.65492">
        <ele>703.4</ele>
        <time>2023-09-03T09:13:55Z</time>
      </trkpt>
      <trkpt lat="48.10819" lon="6.65491">
        <ele>703.4</ele>
        <time>2023-09-03T09:13:56Z</time>
      </trkpt>
      <trkpt lat="48.10819" lon="6.65489">
        <ele>703.8</ele>
        <time>2023-09-03T09:13:57Z</time>
      </trkpt>
      <trkpt lat="48.10818" lon="6.65487">
        <ele>704</ele>
        <time>2023-09-03T09:13:58Z</time>
      </trkpt>
      <trkpt lat="48.10818" lon="6.65486">
        <ele>704.4</ele>
        <time>2023-09-03T09:13:59Z</time>
      </trkpt>
      <trkpt lat="48.10817" lon="6.65485">
        <ele>704.8</ele>
        <time>2023-09-03T09:14:00Z</time>
      </trkpt>
      <trkpt lat="48.10816" lon="6.65484">
        <ele>705</ele>
        <time>2023-09-03T09:14:01Z</time>
      </trkpt>
      <trkpt lat="48.10815" lon="6.65482">
        <ele>705.2</ele>
        <time>2023-09-03T09:14:02Z</time>
      </trkpt>
      <trkpt lat="48.10814" lon="6.6548">
        <ele>705.4</ele>
        <time>2023-09-03T09:14:03Z</time>
      </trkpt>
      <trkpt lat="48.10814" lon="6.65479">
        <ele>705.8</ele>
        <time>2023-09-03T09:14:04Z</time>
      </trkpt>
      <trkpt lat="48.10812" lon="6.65477">
        <ele>706</ele>
        <time>2023-09-03T09:14:05Z</time>
      </trkpt>
      <trkpt lat="48.10811" lon="6.65476">
        <ele>706.2</ele>
        <time>2023-09-03T09:14:06Z</time>
      </trkpt>
      <trkpt lat="48.10811" lon="6.65475">
        <ele>706.4</ele>
        <time>2023-09-03T09:14:07Z</time>
      </trkpt>
      <trkpt lat="48.10811" lon="6.65475">
        <ele>706.6</ele>
        <time>2023-09-03T09:14:08Z</time>
      </trkpt>
      <trkpt lat="48.10811" lon="6.65474">
        <ele>706.8</ele>
        <time>2023-09-03T09:14:09Z</time>
      </trkpt>
      <trkpt lat="48.10811" lon="6.65473">
        <ele>706.8</ele>
        <time>2023-09-03T09:14:10Z</time>
      </trkpt>
      <trkpt lat="48.10811" lon="6.65473">
        <ele>707</ele>
        <time>2023-09-03T09:14:11Z</time>
      </trkpt>
      <trkpt lat="48.1081" lon="6.65472">
        <ele>707.2</ele>
        <time>2023-09-03T09:14:12Z</time>
      </trkpt>
      <trkpt lat="48.10809" lon="6.65471">
        <ele>707.6</ele>
        <time>2023-09-03T09:14:13Z</time>
      </trkpt>
      <trkpt lat="48.10808" lon="6.6547">
        <ele>707.6</ele>
        <time>2023-09-03T09:14:14Z</time>
      </trkpt>
      <trkpt lat="48.10806" lon="6.65468">
        <ele>708</ele>
        <time>2023-09-03T09:14:15Z</time>
      </trkpt>
      <trkpt lat="48.10805" lon="6.65465">
        <ele>708.2</ele>
        <time>2023-09-03T09:14:16Z</time>
      </trkpt>
      <trkpt lat="48.10804" lon="6.65463">
        <ele>708.6</ele>
        <time>2023-09-03T09:14:17Z</time>
      </trkpt>
      <trkpt lat="48.10803" lon="6.65462">
        <ele>708.8</ele>
        <time>2023-09-03T09:14:18Z</time>
      </trkpt>
      <trkpt lat="48.10803" lon="6.65461">
        <ele>708.8</ele>
        <time>2023-09-03T09:14:19Z</time>
      </trkpt>
      <trkpt lat="48.10802" lon="6.6546">
        <ele>709</ele>
        <time>2023-09-03T09:14:20Z</time>
      </trkpt>
      <trkpt lat="48.10801" lon="6.65459">
        <ele>709.2</ele>
        <time>2023-09-03T09:14:21Z</time>
      </trkpt>
      <trkpt lat="48.108" lon="6.65457">
        <ele>709.4</ele>
        <time>2023-09-03T09:14:22Z</time>
      </trkpt>
      <trkpt lat="48.10799" lon="6.65454">
        <ele>709.4</ele>
        <time>2023-09-03T09:14:23Z</time>
      </trkpt>
      <trkpt lat="48.10798" lon="6.65452">
        <ele>709.8</ele>
        <time>2023-09-03T09:14:24Z</time>
      </trkpt>
      <trkpt lat="48.10797" lon="6.6545">
        <ele>710</ele>
        <time>2023-09-03T09:14:25Z</time>
      </trkpt>
      <trkpt lat="48.10796" lon="6.65449">
        <ele>710.4</ele>
        <time>2023-09-03T09:14:26Z</time>
      </trkpt>
      <trkpt lat="48.10795" lon="6.65448">
        <ele>710.6</ele>
        <time>2023-09-03T09:14:27Z</time>
      </trkpt>
      <trkpt lat="48.10794" lon="6.65446">
        <ele>710.8</ele>
        <time>2023-09-03T09:14:28Z</time>
      </trkpt>
      <trkpt lat="48.10792" lon="6.65443">
        <ele>710.8</ele>
        <time>2023-09-03T09:14:29Z</time>
      </trkpt>
      <trkpt lat="48.10792" lon="6.65441">
        <ele>711</ele>
        <time>2023-09-03T09:14:30Z</time>
      </trkpt>
      <trkpt lat="48.10792" lon="6.65441">
        <ele>711</ele>
        <time>2023-09-03T09:14:31Z</time>
      </trkpt>
      <trkpt lat="48.10791" lon="6.6544">
        <ele>711.4</ele>
        <time>2023-09-03T09:14:32Z</time>
      </trkpt>
      <trkpt lat="48.1079" lon="6.65439">
        <ele>711.4</ele>
        <time>2023-09-03T09:14:33Z</time>
      </trkpt>
      <trkpt lat="48.1079" lon="6.65438">
        <ele>711.8</ele>
        <time>2023-09-03T09:14:34Z</time>
      </trkpt>
      <trkpt lat="48.1079" lon="6.65437">
        <ele>712</ele>
        <time>2023-09-03T09:14:35Z</time>
      </trkpt>
      <trkpt lat="48.10789" lon="6.65435">
        <ele>712.2</ele>
        <time>2023-09-03T09:14:36Z</time>
      </trkpt>
      <trkpt lat="48.10789" lon="6.65435">
        <ele>712.4</ele>
        <time>2023-09-03T09:14:37Z</time>
      </trkpt>
      <trkpt lat="48.10788" lon="6.65433">
        <ele>712.4</ele>
        <time>2023-09-03T09:14:38Z</time>
      </trkpt>
      <trkpt lat="48.10786" lon="6.65431">
        <ele>712.4</ele>
        <time>2023-09-03T09:14:39Z</time>
      </trkpt>
      <trkpt lat="48.10785" lon="6.6543">
        <ele>712.6</ele>
        <time>2023-09-03T09:14:40Z</time>
      </trkpt>
      <trkpt lat="48.10784" lon="6.65428">
        <ele>713</ele>
        <time>2023-09-03T09:14:41Z</time>
      </trkpt>
      <trkpt lat="48.10783" lon="6.65425">
        <ele>713</ele>
        <time>2023-09-03T09:14:42Z</time>
      </trkpt>
      <trkpt lat="48.10782" lon="6.65423">
        <ele>713.2</ele>
        <time>2023-09-03T09:14:43Z</time>
      </trkpt>
      <trkpt lat="48.10782" lon="6.65421">
        <ele>713.4</ele>
        <time>2023-09-03T09:14:44Z</time>
      </trkpt>
      <trkpt lat="48.10781" lon="6.6542">
        <ele>713.8</ele>
        <time>2023-09-03T09:14:45Z</time>
      </trkpt>
      <trkpt lat="48.10781" lon="6.65419">
        <ele>714</ele>
        <time>2023-09-03T09:14:46Z</time>
      </trkpt>
      <trkpt lat="48.10779" lon="6.65414">
        <ele>714</ele>
        <time>2023-09-03T09:14:47Z</time>
      </trkpt>
      <trkpt lat="48.10778" lon="6.6541">
        <ele>714.2</ele>
        <time>2023-09-03T09:14:48Z</time>
      </trkpt>
      <trkpt lat="48.10777" lon="6.65406">
        <ele>714.2</ele>
        <time>2023-09-03T09:14:49Z</time>
      </trkpt>
      <trkpt lat="48.10776" lon="6.65403">
        <ele>714.4</ele>
        <time>2023-09-03T09:14:50Z</time>
      </trkpt>
      <trkpt lat="48.10773" lon="6.65398">
        <ele>714.4</ele>
        <time>2023-09-03T09:14:51Z</time>
      </trkpt>
      <trkpt lat="48.10769" lon="6.65393">
        <ele>714.8</ele>
        <time>2023-09-03T09:14:52Z</time>
      </trkpt>
      <trkpt lat="48.10768" lon="6.65392">
        <ele>714.8</ele>
        <time>2023-09-03T09:14:53Z</time>
      </trkpt>
      <trkpt lat="48.10768" lon="6.6539">
        <ele>715</ele>
        <time>2023-09-03T09:14:54Z</time>
      </trkpt>
      <trkpt lat="48.10767" lon="6.65385">
        <ele>715</ele>
        <time>2023-09-03T09:14:55Z</time>
      </trkpt>
      <trkpt lat="48.10766" lon="6.65382">
        <ele>715.2</ele>
        <time>2023-09-03T09:14:56Z</time>
      </trkpt>
      <trkpt lat="48.10766" lon="6.65379">
        <ele>715.2</ele>
        <time>2023-09-03T09:14:57Z</time>
      </trkpt>
      <trkpt lat="48.10765" lon="6.65375">
        <ele>715.4</ele>
        <time>2023-09-03T09:14:58Z</time>
      </trkpt>
      <trkpt lat="48.10764" lon="6.65372">
        <ele>715.6</ele>
        <time>2023-09-03T09:14:59Z</time>
      </trkpt>
      <trkpt lat="48.10762" lon="6.65368">
        <ele>715.6</ele>
        <time>2023-09-03T09:15:00Z</time>
      </trkpt>
      <trkpt lat="48.1076" lon="6.65364">
        <ele>715.8</ele>
        <time>2023-09-03T09:15:01Z</time>
      </trkpt>
      <trkpt lat="48.10757" lon="6.65361">
        <ele>716</ele>
        <time>2023-09-03T09:15:02Z</time>
      </trkpt>
      <trkpt lat="48.10756" lon="6.65358">
        <ele>716</ele>
        <time>2023-09-03T09:15:03Z</time>
      </trkpt>
      <trkpt lat="48.10755" lon="6.65356">
        <ele>716</ele>
        <time>2023-09-03T09:15:04Z</time>
      </trkpt>
      <trkpt lat="48.10754" lon="6.65352">
        <ele>716</ele>
        <time>2023-09-03T09:15:05Z</time>
      </trkpt>
      <trkpt lat="48.10753" lon="6.65349">
        <ele>716.2</ele>
        <time>2023-09-03T09:15:06Z</time>
      </trkpt>
      <trkpt lat="48.1075" lon="6.65345">
        <ele>716.2</ele>
        <time>2023-09-03T09:15:07Z</time>
      </trkpt>
      <trkpt lat="48.10748" lon="6.6534">
        <ele>716.4</ele>
        <time>2023-09-03T09:15:08Z</time>
      </trkpt>
      <trkpt lat="48.10746" lon="6.65338">
        <ele>716.4</ele>
        <time>2023-09-03T09:15:09Z</time>
      </trkpt>
      <trkpt lat="48.10743" lon="6.65335">
        <ele>716.4</ele>
        <time>2023-09-03T09:15:10Z</time>
      </trkpt>
      <trkpt lat="48.10739" lon="6.65333">
        <ele>716.6</ele>
        <time>2023-09-03T09:15:11Z</time>
      </trkpt>
      <trkpt lat="48.10736" lon="6.6533">
        <ele>716.6</ele>
        <time>2023-09-03T09:15:12Z</time>
      </trkpt>
      <trkpt lat="48.10735" lon="6.65326">
        <ele>716.6</ele>
        <time>2023-09-03T09:15:13Z</time>
      </trkpt>
      <trkpt lat="48.10734" lon="6.65325">
        <ele>716.6</ele>
        <time>2023-09-03T09:15:14Z</time>
      </trkpt>
      <trkpt lat="48.10733" lon="6.65324">
        <ele>716.6</ele>
        <time>2023-09-03T09:15:15Z</time>
      </trkpt>
      <trkpt lat="48.10729" lon="6.65323">
        <ele>716.8</ele>
        <time>2023-09-03T09:15:16Z</time>
      </trkpt>
      <trkpt lat="48.10726" lon="6.65321">
        <ele>717</ele>
        <time>2023-09-03T09:15:17Z</time>
      </trkpt>
      <trkpt lat="48.10724" lon="6.65319">
        <ele>717</ele>
        <time>2023-09-03T09:15:18Z</time>
      </trkpt>
      <trkpt lat="48.10724" lon="6.65319">
        <ele>717</ele>
        <time>2023-09-03T09:15:19Z</time>
      </trkpt>
      <trkpt lat="48.10722" lon="6.65316">
        <ele>717.2</ele>
        <time>2023-09-03T09:15:20Z</time>
      </trkpt>
      <trkpt lat="48.10722" lon="6.65314">
        <ele>717.2</ele>
        <time>2023-09-03T09:15:21Z</time>
      </trkpt>
      <trkpt lat="48.1072" lon="6.65312">
        <ele>717.2</ele>
        <time>2023-09-03T09:15:22Z</time>
      </trkpt>
      <trkpt lat="48.10718" lon="6.65311">
        <ele>717.2</ele>
        <time>2023-09-03T09:15:23Z</time>
      </trkpt>
      <trkpt lat="48.10716" lon="6.65309">
        <ele>717.2</ele>
        <time>2023-09-03T09:15:24Z</time>
      </trkpt>
      <trkpt lat="48.10714" lon="6.65307">
        <ele>717.2</ele>
        <time>2023-09-03T09:15:25Z</time>
      </trkpt>
      <trkpt lat="48.10711" lon="6.65305">
        <ele>717.4</ele>
        <time>2023-09-03T09:15:26Z</time>
      </trkpt>
      <trkpt lat="48.10706" lon="6.653">
        <ele>717.4</ele>
        <time>2023-09-03T09:15:27Z</time>
      </trkpt>
      <trkpt lat="48.10703" lon="6.65296">
        <ele>717.4</ele>
        <time>2023-09-03T09:15:28Z</time>
      </trkpt>
      <trkpt lat="48.10699" lon="6.65292">
        <ele>717.4</ele>
        <time>2023-09-03T09:15:29Z</time>
      </trkpt>
      <trkpt lat="48.10695" lon="6.65288">
        <ele>717.4</ele>
        <time>2023-09-03T09:15:30Z</time>
      </trkpt>
      <trkpt lat="48.10691" lon="6.65283">
        <ele>717.2</ele>
        <time>2023-09-03T09:15:31Z</time>
      </trkpt>
      <trkpt lat="48.10686" lon="6.65278">
        <ele>717.2</ele>
        <time>2023-09-03T09:15:32Z</time>
      </trkpt>
      <trkpt lat="48.10682" lon="6.65274">
        <ele>717</ele>
        <time>2023-09-03T09:15:33Z</time>
      </trkpt>
      <trkpt lat="48.10679" lon="6.6527">
        <ele>716.6</ele>
        <time>2023-09-03T09:15:34Z</time>
      </trkpt>
      <trkpt lat="48.10675" lon="6.65266">
        <ele>716.4</ele>
        <time>2023-09-03T09:15:35Z</time>
      </trkpt>
      <trkpt lat="48.1067" lon="6.65258">
        <ele>716</ele>
        <time>2023-09-03T09:15:36Z</time>
      </trkpt>
      <trkpt lat="48.10664" lon="6.6525">
        <ele>715.8</ele>
        <time>2023-09-03T09:15:37Z</time>
      </trkpt>
      <trkpt lat="48.10659" lon="6.65244">
        <ele>715.4</ele>
        <time>2023-09-03T09:15:38Z</time>
      </trkpt>
      <trkpt lat="48.10655" lon="6.6524">
        <ele>715.2</ele>
        <time>2023-09-03T09:15:39Z</time>
      </trkpt>
      <trkpt lat="48.1065" lon="6.65236">
        <ele>714.6</ele>
        <time>2023-09-03T09:15:40Z</time>
      </trkpt>
      <trkpt lat="48.10645" lon="6.65231">
        <ele>714.4</ele>
        <time>2023-09-03T09:15:41Z</time>
      </trkpt>
      <trkpt lat="48.1064" lon="6.65227">
        <ele>714</ele>
        <time>2023-09-03T09:15:42Z</time>
      </trkpt>
      <trkpt lat="48.10636" lon="6.65222">
        <ele>713.8</ele>
        <time>2023-09-03T09:15:43Z</time>
      </trkpt>
      <trkpt lat="48.10633" lon="6.65217">
        <ele>713.6</ele>
        <time>2023-09-03T09:15:44Z</time>
      </trkpt>
      <trkpt lat="48.1063" lon="6.6521">
        <ele>713.6</ele>
        <time>2023-09-03T09:15:45Z</time>
      </trkpt>
      <trkpt lat="48.1063" lon="6.65205">
        <ele>713.6</ele>
        <time>2023-09-03T09:15:46Z</time>
      </trkpt>
      <trkpt lat="48.1063" lon="6.652">
        <ele>713.8</ele>
        <time>2023-09-03T09:15:47Z</time>
      </trkpt>
      <trkpt lat="48.10631" lon="6.65196">
        <ele>714</ele>
        <time>2023-09-03T09:15:48Z</time>
      </trkpt>
      <trkpt lat="48.10631" lon="6.65189">
        <ele>714.4</ele>
        <time>2023-09-03T09:15:49Z</time>
      </trkpt>
      <trkpt lat="48.10631" lon="6.65183">
        <ele>714.4</ele>
        <time>2023-09-03T09:15:50Z</time>
      </trkpt>
      <trkpt lat="48.10632" lon="6.65179">
        <ele>714.4</ele>
        <time>2023-09-03T09:15:51Z</time>
      </trkpt>
      <trkpt lat="48.10632" lon="6.65173">
        <ele>714.4</ele>
        <time>2023-09-03T09:15:52Z</time>
      </trkpt>
      <trkpt lat="48.10632" lon="6.65167">
        <ele>714.6</ele>
        <time>2023-09-03T09:15:53Z</time>
      </trkpt>
      <trkpt lat="48.10634" lon="6.65159">
        <ele>714.6</ele>
        <time>2023-09-03T09:15:54Z</time>
      </trkpt>
      <trkpt lat="48.10635" lon="6.6515">
        <ele>714.6</ele>
        <time>2023-09-03T09:15:55Z</time>
      </trkpt>
      <trkpt lat="48.10636" lon="6.65142">
        <ele>714.6</ele>
        <time>2023-09-03T09:15:56Z</time>
      </trkpt>
      <trkpt lat="48.10637" lon="6.65133">
        <ele>714.4</ele>
        <time>2023-09-03T09:15:57Z</time>
      </trkpt>
      <trkpt lat="48.10637" lon="6.65127">
        <ele>714.2</ele>
        <time>2023-09-03T09:15:58Z</time>
      </trkpt>
      <trkpt lat="48.10637" lon="6.65119">
        <ele>714</ele>
        <time>2023-09-03T09:15:59Z</time>
      </trkpt>
      <trkpt lat="48.10637" lon="6.65111">
        <ele>713.6</ele>
        <time>2023-09-03T09:16:00Z</time>
      </trkpt>
      <trkpt lat="48.10636" lon="6.65102">
        <ele>713</ele>
        <time>2023-09-03T09:16:01Z</time>
      </trkpt>
      <trkpt lat="48.10636" lon="6.65092">
        <ele>712.2</ele>
        <time>2023-09-03T09:16:02Z</time>
      </trkpt>
      <trkpt lat="48.10635" lon="6.65083">
        <ele>711.6</ele>
        <time>2023-09-03T09:16:03Z</time>
      </trkpt>
      <trkpt lat="48.10634" lon="6.65075">
        <ele>711</ele>
        <time>2023-09-03T09:16:04Z</time>
      </trkpt>
      <trkpt lat="48.10631" lon="6.65068">
        <ele>710.6</ele>
        <time>2023-09-03T09:16:05Z</time>
      </trkpt>
      <trkpt lat="48.10629" lon="6.65063">
        <ele>710.2</ele>
        <time>2023-09-03T09:16:06Z</time>
      </trkpt>
      <trkpt lat="48.10627" lon="6.65058">
        <ele>710</ele>
        <time>2023-09-03T09:16:07Z</time>
      </trkpt>
      <trkpt lat="48.10623" lon="6.65053">
        <ele>709.8</ele>
        <time>2023-09-03T09:16:08Z</time>
      </trkpt>
      <trkpt lat="48.1062" lon="6.65049">
        <ele>709.6</ele>
        <time>2023-09-03T09:16:09Z</time>
      </trkpt>
      <trkpt lat="48.10618" lon="6.65046">
        <ele>709.4</ele>
        <time>2023-09-03T09:16:10Z</time>
      </trkpt>
      <trkpt lat="48.10615" lon="6.65043">
        <ele>709.2</ele>
        <time>2023-09-03T09:16:11Z</time>
      </trkpt>
      <trkpt lat="48.10612" lon="6.65039">
        <ele>708.8</ele>
        <time>2023-09-03T09:16:12Z</time>
      </trkpt>
      <trkpt lat="48.10609" lon="6.65035">
        <ele>708.6</ele>
        <time>2023-09-03T09:16:13Z</time>
      </trkpt>
      <trkpt lat="48.10606" lon="6.65031">
        <ele>708.4</ele>
        <time>2023-09-03T09:16:14Z</time>
      </trkpt>
      <trkpt lat="48.10603" lon="6.65028">
        <ele>708.4</ele>
        <time>2023-09-03T09:16:15Z</time>
      </trkpt>
      <trkpt lat="48.106" lon="6.65024">
        <ele>708.4</ele>
        <time>2023-09-03T09:16:16Z</time>
      </trkpt>
      <trkpt lat="48.10596" lon="6.6502">
        <ele>708.2</ele>
        <time>2023-09-03T09:16:17Z</time>
      </trkpt>
      <trkpt lat="48.10594" lon="6.65017">
        <ele>708.2</ele>
        <time>2023-09-03T09:16:18Z</time>
      </trkpt>
      <trkpt lat="48.10591" lon="6.65014">
        <ele>708.2</ele>
        <time>2023-09-03T09:16:19Z</time>
      </trkpt>
      <trkpt lat="48.10589" lon="6.65011">
        <ele>708.2</ele>
        <time>2023-09-03T09:16:20Z</time>
      </trkpt>
      <trkpt lat="48.10586" lon="6.65008">
        <ele>708.2</ele>
        <time>2023-09-03T09:16:21Z</time>
      </trkpt>
      <trkpt lat="48.10583" lon="6.65005">
        <ele>708.6</ele>
        <time>2023-09-03T09:16:22Z</time>
      </trkpt>
      <trkpt lat="48.1058" lon="6.65002">
        <ele>708.6</ele>
        <time>2023-09-03T09:16:23Z</time>
      </trkpt>
      <trkpt lat="48.10576" lon="6.64999">
        <ele>708.4</ele>
        <time>2023-09-03T09:16:24Z</time>
      </trkpt>
      <trkpt lat="48.10572" lon="6.64996">
        <ele>708.6</ele>
        <time>2023-09-03T09:16:25Z</time>
      </trkpt>
      <trkpt lat="48.10568" lon="6.64994">
        <ele>708.6</ele>
        <time>2023-09-03T09:16:26Z</time>
      </trkpt>
      <trkpt lat="48.10565" lon="6.64992">
        <ele>708.6</ele>
        <time>2023-09-03T09:16:27Z</time>
      </trkpt>
      <trkpt lat="48.10562" lon="6.6499">
        <ele>708.6</ele>
        <time>2023-09-03T09:16:28Z</time>
      </trkpt>
      <trkpt lat="48.10559" lon="6.64986">
        <ele>708.8</ele>
        <time>2023-09-03T09:16:29Z</time>
      </trkpt>
      <trkpt lat="48.10556" lon="6.64983">
        <ele>708.8</ele>
        <time>2023-09-03T09:16:30Z</time>
      </trkpt>
      <trkpt lat="48.10553" lon="6.64981">
        <ele>708.8</ele>
        <time>2023-09-03T09:16:31Z</time>
      </trkpt>
      <trkpt lat="48.1055" lon="6.64979">
        <ele>708.8</ele>
        <time>2023-09-03T09:16:32Z</time>
      </trkpt>
      <trkpt lat="48.10546" lon="6.64976">
        <ele>708.8</ele>
        <time>2023-09-03T09:16:33Z</time>
      </trkpt>
      <trkpt lat="48.10543" lon="6.64975">
        <ele>709</ele>
        <time>2023-09-03T09:16:34Z</time>
      </trkpt>
      <trkpt lat="48.1054" lon="6.64972">
        <ele>709.2</ele>
        <time>2023-09-03T09:16:35Z</time>
      </trkpt>
      <trkpt lat="48.10538" lon="6.6497">
        <ele>709.2</ele>
        <time>2023-09-03T09:16:36Z</time>
      </trkpt>
      <trkpt lat="48.10535" lon="6.64968">
        <ele>709.4</ele>
        <time>2023-09-03T09:16:37Z</time>
      </trkpt>
      <trkpt lat="48.10532" lon="6.64967">
        <ele>709.4</ele>
        <time>2023-09-03T09:16:38Z</time>
      </trkpt>
      <trkpt lat="48.10529" lon="6.64966">
        <ele>709.4</ele>
        <time>2023-09-03T09:16:39Z</time>
      </trkpt>
      <trkpt lat="48.10523" lon="6.64964">
        <ele>709.4</ele>
        <time>2023-09-03T09:16:40Z</time>
      </trkpt>
      <trkpt lat="48.10518" lon="6.64961">
        <ele>709.4</ele>
        <time>2023-09-03T09:16:41Z</time>
      </trkpt>
      <trkpt lat="48.10515" lon="6.64958">
        <ele>709.4</ele>
        <time>2023-09-03T09:16:42Z</time>
      </trkpt>
      <trkpt lat="48.10513" lon="6.64955">
        <ele>709.2</ele>
        <time>2023-09-03T09:16:43Z</time>
      </trkpt>
      <trkpt lat="48.1051" lon="6.64952">
        <ele>709.2</ele>
        <time>2023-09-03T09:16:44Z</time>
      </trkpt>
      <trkpt lat="48.10508" lon="6.6495">
        <ele>709.6</ele>
        <time>2023-09-03T09:16:45Z</time>
      </trkpt>
      <trkpt lat="48.10506" lon="6.64948">
        <ele>709.8</ele>
        <time>2023-09-03T09:16:46Z</time>
      </trkpt>
      <trkpt lat="48.10504" lon="6.64947">
        <ele>709.8</ele>
        <time>2023-09-03T09:16:47Z</time>
      </trkpt>
      <trkpt lat="48.105" lon="6.64944">
        <ele>710</ele>
        <time>2023-09-03T09:16:48Z</time>
      </trkpt>
      <trkpt lat="48.10497" lon="6.64941">
        <ele>710</ele>
        <time>2023-09-03T09:16:49Z</time>
      </trkpt>
      <trkpt lat="48.10495" lon="6.6494">
        <ele>710.2</ele>
        <time>2023-09-03T09:16:50Z</time>
      </trkpt>
      <trkpt lat="48.10493" lon="6.64937">
        <ele>710.4</ele>
        <time>2023-09-03T09:16:51Z</time>
      </trkpt>
      <trkpt lat="48.10492" lon="6.64936">
        <ele>710.8</ele>
        <time>2023-09-03T09:16:52Z</time>
      </trkpt>
      <trkpt lat="48.1049" lon="6.64935">
        <ele>711</ele>
        <time>2023-09-03T09:16:53Z</time>
      </trkpt>
      <trkpt lat="48.10488" lon="6.64933">
        <ele>711</ele>
        <time>2023-09-03T09:16:54Z</time>
      </trkpt>
      <trkpt lat="48.10486" lon="6.64931">
        <ele>711.2</ele>
        <time>2023-09-03T09:16:55Z</time>
      </trkpt>
      <trkpt lat="48.10484" lon="6.6493">
        <ele>711.6</ele>
        <time>2023-09-03T09:16:56Z</time>
      </trkpt>
      <trkpt lat="48.10482" lon="6.64927">
        <ele>711.8</ele>
        <time>2023-09-03T09:16:57Z</time>
      </trkpt>
      <trkpt lat="48.1048" lon="6.64925">
        <ele>712.2</ele>
        <time>2023-09-03T09:16:58Z</time>
      </trkpt>
      <trkpt lat="48.10478" lon="6.64923">
        <ele>712.4</ele>
        <time>2023-09-03T09:16:59Z</time>
      </trkpt>
      <trkpt lat="48.10477" lon="6.64922">
        <ele>712.4</ele>
        <time>2023-09-03T09:17:00Z</time>
      </trkpt>
      <trkpt lat="48.10477" lon="6.64922">
        <ele>712.6</ele>
        <time>2023-09-03T09:17:01Z</time>
      </trkpt>
      <trkpt lat="48.10477" lon="6.64922">
        <ele>712.8</ele>
        <time>2023-09-03T09:17:02Z</time>
      </trkpt>
      <trkpt lat="48.10476" lon="6.6492">
        <ele>712.8</ele>
        <time>2023-09-03T09:17:03Z</time>
      </trkpt>
      <trkpt lat="48.10475" lon="6.64919">
        <ele>713</ele>
        <time>2023-09-03T09:17:04Z</time>
      </trkpt>
      <trkpt lat="48.10474" lon="6.64918">
        <ele>713.2</ele>
        <time>2023-09-03T09:17:05Z</time>
      </trkpt>
      <trkpt lat="48.10473" lon="6.64917">
        <ele>713.2</ele>
        <time>2023-09-03T09:17:06Z</time>
      </trkpt>
      <trkpt lat="48.10472" lon="6.64916">
        <ele>713.2</ele>
        <time>2023-09-03T09:17:07Z</time>
      </trkpt>
      <trkpt lat="48.10468" lon="6.64914">
        <ele>713.4</ele>
        <time>2023-09-03T09:17:08Z</time>
      </trkpt>
      <trkpt lat="48.10466" lon="6.6491">
        <ele>713.4</ele>
        <time>2023-09-03T09:17:09Z</time>
      </trkpt>
      <trkpt lat="48.10465" lon="6.64907">
        <ele>713.6</ele>
        <time>2023-09-03T09:17:10Z</time>
      </trkpt>
      <trkpt lat="48.10463" lon="6.64905">
        <ele>713.6</ele>
        <time>2023-09-03T09:17:11Z</time>
      </trkpt>
      <trkpt lat="48.10461" lon="6.64902">
        <ele>713.8</ele>
        <time>2023-09-03T09:17:12Z</time>
      </trkpt>
      <trkpt lat="48.10458" lon="6.64899">
        <ele>714</ele>
        <time>2023-09-03T09:17:13Z</time>
      </trkpt>
      <trkpt lat="48.10456" lon="6.64897">
        <ele>714.2</ele>
        <time>2023-09-03T09:17:14Z</time>
      </trkpt>
      <trkpt lat="48.10454" lon="6.64894">
        <ele>714.2</ele>
        <time>2023-09-03T09:17:15Z</time>
      </trkpt>
      <trkpt lat="48.10451" lon="6.6489">
        <ele>714.4</ele>
        <time>2023-09-03T09:17:16Z</time>
      </trkpt>
      <trkpt lat="48.10451" lon="6.64886">
        <ele>714.6</ele>
        <time>2023-09-03T09:17:17Z</time>
      </trkpt>
      <trkpt lat="48.10449" lon="6.6488">
        <ele>714.8</ele>
        <time>2023-09-03T09:17:18Z</time>
      </trkpt>
      <trkpt lat="48.10447" lon="6.64876">
        <ele>714.8</ele>
        <time>2023-09-03T09:17:19Z</time>
      </trkpt>
      <trkpt lat="48.10447" lon="6.64873">
        <ele>715</ele>
        <time>2023-09-03T09:17:20Z</time>
      </trkpt>
      <trkpt lat="48.10447" lon="6.6487">
        <ele>715</ele>
        <time>2023-09-03T09:17:21Z</time>
      </trkpt>
      <trkpt lat="48.10444" lon="6.64867">
        <ele>715</ele>
        <time>2023-09-03T09:17:22Z</time>
      </trkpt>
      <trkpt lat="48.10442" lon="6.64863">
        <ele>715</ele>
        <time>2023-09-03T09:17:23Z</time>
      </trkpt>
      <trkpt lat="48.10438" lon="6.64858">
        <ele>715</ele>
        <time>2023-09-03T09:17:24Z</time>
      </trkpt>
      <trkpt lat="48.10436" lon="6.64852">
        <ele>715.2</ele>
        <time>2023-09-03T09:17:25Z</time>
      </trkpt>
      <trkpt lat="48.10434" lon="6.64845">
        <ele>715.4</ele>
        <time>2023-09-03T09:17:26Z</time>
      </trkpt>
      <trkpt lat="48.10436" lon="6.6484">
        <ele>715.2</ele>
        <time>2023-09-03T09:17:27Z</time>
      </trkpt>
      <trkpt lat="48.10434" lon="6.64836">
        <ele>715.4</ele>
        <time>2023-09-03T09:17:28Z</time>
      </trkpt>
      <trkpt lat="48.10434" lon="6.64832">
        <ele>715.6</ele>
        <time>2023-09-03T09:17:29Z</time>
      </trkpt>
      <trkpt lat="48.10432" lon="6.64829">
        <ele>715.6</ele>
        <time>2023-09-03T09:17:30Z</time>
      </trkpt>
      <trkpt lat="48.10431" lon="6.64825">
        <ele>715.8</ele>
        <time>2023-09-03T09:17:31Z</time>
      </trkpt>
      <trkpt lat="48.1043" lon="6.64821">
        <ele>715.8</ele>
        <time>2023-09-03T09:17:32Z</time>
      </trkpt>
      <trkpt lat="48.1043" lon="6.64819">
        <ele>716</ele>
        <time>2023-09-03T09:17:33Z</time>
      </trkpt>
      <trkpt lat="48.10431" lon="6.64818">
        <ele>716.2</ele>
        <time>2023-09-03T09:17:34Z</time>
      </trkpt>
      <trkpt lat="48.10431" lon="6.64815">
        <ele>716.2</ele>
        <time>2023-09-03T09:17:35Z</time>
      </trkpt>
      <trkpt lat="48.10429" lon="6.64811">
        <ele>716.2</ele>
        <time>2023-09-03T09:17:36Z</time>
      </trkpt>
      <trkpt lat="48.10426" lon="6.64806">
        <ele>716.4</ele>
        <time>2023-09-03T09:17:37Z</time>
      </trkpt>
      <trkpt lat="48.10425" lon="6.64803">
        <ele>716.4</ele>
        <time>2023-09-03T09:17:38Z</time>
      </trkpt>
      <trkpt lat="48.10423" lon="6.648">
        <ele>716.6</ele>
        <time>2023-09-03T09:17:39Z</time>
      </trkpt>
      <trkpt lat="48.10423" lon="6.64797">
        <ele>716.8</ele>
        <time>2023-09-03T09:17:40Z</time>
      </trkpt>
      <trkpt lat="48.10421" lon="6.64795">
        <ele>716.8</ele>
        <time>2023-09-03T09:17:41Z</time>
      </trkpt>
      <trkpt lat="48.1042" lon="6.64792">
        <ele>716.8</ele>
        <time>2023-09-03T09:17:42Z</time>
      </trkpt>
      <trkpt lat="48.1042" lon="6.6479">
        <ele>716.8</ele>
        <time>2023-09-03T09:17:43Z</time>
      </trkpt>
      <trkpt lat="48.10419" lon="6.64788">
        <ele>716.8</ele>
        <time>2023-09-03T09:17:44Z</time>
      </trkpt>
      <trkpt lat="48.10417" lon="6.64785">
        <ele>716.8</ele>
        <time>2023-09-03T09:17:45Z</time>
      </trkpt>
      <trkpt lat="48.10415" lon="6.6478">
        <ele>717</ele>
        <time>2023-09-03T09:17:46Z</time>
      </trkpt>
      <trkpt lat="48.10412" lon="6.64775">
        <ele>717</ele>
        <time>2023-09-03T09:17:47Z</time>
      </trkpt>
      <trkpt lat="48.10411" lon="6.64771">
        <ele>717</ele>
        <time>2023-09-03T09:17:48Z</time>
      </trkpt>
      <trkpt lat="48.10408" lon="6.64766">
        <ele>717.4</ele>
        <time>2023-09-03T09:17:49Z</time>
      </trkpt>
      <trkpt lat="48.10407" lon="6.64761">
        <ele>717.2</ele>
        <time>2023-09-03T09:17:50Z</time>
      </trkpt>
      <trkpt lat="48.10404" lon="6.64756">
        <ele>717.6</ele>
        <time>2023-09-03T09:17:51Z</time>
      </trkpt>
      <trkpt lat="48.10402" lon="6.6475">
        <ele>717.6</ele>
        <time>2023-09-03T09:17:52Z</time>
      </trkpt>
      <trkpt lat="48.104" lon="6.64743">
        <ele>717.6</ele>
        <time>2023-09-03T09:17:53Z</time>
      </trkpt>
      <trkpt lat="48.10398" lon="6.64736">
        <ele>717.4</ele>
        <time>2023-09-03T09:17:54Z</time>
      </trkpt>
      <trkpt lat="48.10395" lon="6.64728">
        <ele>717.2</ele>
        <time>2023-09-03T09:17:55Z</time>
      </trkpt>
      <trkpt lat="48.10392" lon="6.64722">
        <ele>717.2</ele>
        <time>2023-09-03T09:17:56Z</time>
      </trkpt>
      <trkpt lat="48.1039" lon="6.64715">
        <ele>717.2</ele>
        <time>2023-09-03T09:17:57Z</time>
      </trkpt>
      <trkpt lat="48.10387" lon="6.64709">
        <ele>717.2</ele>
        <time>2023-09-03T09:17:58Z</time>
      </trkpt>
      <trkpt lat="48.10384" lon="6.64704">
        <ele>717.2</ele>
        <time>2023-09-03T09:17:59Z</time>
      </trkpt>
      <trkpt lat="48.1038" lon="6.64699">
        <ele>717.2</ele>
        <time>2023-09-03T09:18:00Z</time>
      </trkpt>
      <trkpt lat="48.10377" lon="6.64693">
        <ele>717.2</ele>
        <time>2023-09-03T09:18:01Z</time>
      </trkpt>
      <trkpt lat="48.10376" lon="6.64688">
        <ele>717.2</ele>
        <time>2023-09-03T09:18:02Z</time>
      </trkpt>
      <trkpt lat="48.10375" lon="6.64683">
        <ele>717.2</ele>
        <time>2023-09-03T09:18:03Z</time>
      </trkpt>
      <trkpt lat="48.10374" lon="6.64677">
        <ele>717.2</ele>
        <time>2023-09-03T09:18:04Z</time>
      </trkpt>
      <trkpt lat="48.10375" lon="6.64674">
        <ele>717.2</ele>
        <time>2023-09-03T09:18:05Z</time>
      </trkpt>
      <trkpt lat="48.10372" lon="6.64669">
        <ele>717</ele>
        <time>2023-09-03T09:18:06Z</time>
      </trkpt>
      <trkpt lat="48.10368" lon="6.64662">
        <ele>717</ele>
        <time>2023-09-03T09:18:07Z</time>
      </trkpt>
      <trkpt lat="48.10366" lon="6.64656">
        <ele>716.8</ele>
        <time>2023-09-03T09:18:08Z</time>
      </trkpt>
      <trkpt lat="48.10364" lon="6.64651">
        <ele>716.8</ele>
        <time>2023-09-03T09:18:09Z</time>
      </trkpt>
      <trkpt lat="48.10361" lon="6.64644">
        <ele>716.8</ele>
        <time>2023-09-03T09:18:10Z</time>
      </trkpt>
      <trkpt lat="48.10357" lon="6.64638">
        <ele>716.6</ele>
        <time>2023-09-03T09:18:11Z</time>
      </trkpt>
      <trkpt lat="48.10354" lon="6.64631">
        <ele>716.6</ele>
        <time>2023-09-03T09:18:12Z</time>
      </trkpt>
      <trkpt lat="48.10352" lon="6.64624">
        <ele>716.2</ele>
        <time>2023-09-03T09:18:13Z</time>
      </trkpt>
      <trkpt lat="48.10349" lon="6.64616">
        <ele>716</ele>
        <time>2023-09-03T09:18:14Z</time>
      </trkpt>
      <trkpt lat="48.10349" lon="6.6461">
        <ele>715.8</ele>
        <time>2023-09-03T09:18:15Z</time>
      </trkpt>
      <trkpt lat="48.10348" lon="6.64604">
        <ele>715.6</ele>
        <time>2023-09-03T09:18:16Z</time>
      </trkpt>
      <trkpt lat="48.10347" lon="6.64599">
        <ele>715.6</ele>
        <time>2023-09-03T09:18:17Z</time>
      </trkpt>
      <trkpt lat="48.10346" lon="6.64593">
        <ele>715.6</ele>
        <time>2023-09-03T09:18:18Z</time>
      </trkpt>
      <trkpt lat="48.10344" lon="6.64586">
        <ele>715.4</ele>
        <time>2023-09-03T09:18:19Z</time>
      </trkpt>
      <trkpt lat="48.10341" lon="6.64582">
        <ele>715.4</ele>
        <time>2023-09-03T09:18:20Z</time>
      </trkpt>
      <trkpt lat="48.10338" lon="6.64577">
        <ele>715.4</ele>
        <time>2023-09-03T09:18:21Z</time>
      </trkpt>
      <trkpt lat="48.10335" lon="6.64571">
        <ele>715.4</ele>
        <time>2023-09-03T09:18:22Z</time>
      </trkpt>
      <trkpt lat="48.10334" lon="6.64567">
        <ele>715.4</ele>
        <time>2023-09-03T09:18:23Z</time>
      </trkpt>
      <trkpt lat="48.10332" lon="6.64562">
        <ele>715.6</ele>
        <time>2023-09-03T09:18:24Z</time>
      </trkpt>
      <trkpt lat="48.10331" lon="6.64558">
        <ele>715.6</ele>
        <time>2023-09-03T09:18:25Z</time>
      </trkpt>
      <trkpt lat="48.10329" lon="6.64554">
        <ele>715.6</ele>
        <time>2023-09-03T09:18:26Z</time>
      </trkpt>
      <trkpt lat="48.10326" lon="6.6455">
        <ele>715.6</ele>
        <time>2023-09-03T09:18:27Z</time>
      </trkpt>
      <trkpt lat="48.10325" lon="6.64546">
        <ele>715.8</ele>
        <time>2023-09-03T09:18:28Z</time>
      </trkpt>
      <trkpt lat="48.10323" lon="6.64542">
        <ele>715.8</ele>
        <time>2023-09-03T09:18:29Z</time>
      </trkpt>
      <trkpt lat="48.10321" lon="6.64539">
        <ele>715.8</ele>
        <time>2023-09-03T09:18:30Z</time>
      </trkpt>
      <trkpt lat="48.10319" lon="6.64535">
        <ele>715.8</ele>
        <time>2023-09-03T09:18:31Z</time>
      </trkpt>
      <trkpt lat="48.10315" lon="6.6453">
        <ele>715.8</ele>
        <time>2023-09-03T09:18:32Z</time>
      </trkpt>
      <trkpt lat="48.10314" lon="6.64525">
        <ele>715.8</ele>
        <time>2023-09-03T09:18:33Z</time>
      </trkpt>
      <trkpt lat="48.10313" lon="6.64521">
        <ele>715.8</ele>
        <time>2023-09-03T09:18:34Z</time>
      </trkpt>
      <trkpt lat="48.1031" lon="6.64515">
        <ele>715.8</ele>
        <time>2023-09-03T09:18:35Z</time>
      </trkpt>
      <trkpt lat="48.10307" lon="6.64508">
        <ele>715.8</ele>
        <time>2023-09-03T09:18:36Z</time>
      </trkpt>
      <trkpt lat="48.10305" lon="6.64503">
        <ele>715.8</ele>
        <time>2023-09-03T09:18:37Z</time>
      </trkpt>
      <trkpt lat="48.10303" lon="6.64497">
        <ele>715.8</ele>
        <time>2023-09-03T09:18:38Z</time>
      </trkpt>
      <trkpt lat="48.103" lon="6.64491">
        <ele>715.6</ele>
        <time>2023-09-03T09:18:39Z</time>
      </trkpt>
      <trkpt lat="48.10296" lon="6.64484">
        <ele>715.6</ele>
        <time>2023-09-03T09:18:40Z</time>
      </trkpt>
      <trkpt lat="48.10294" lon="6.64476">
        <ele>715.6</ele>
        <time>2023-09-03T09:18:41Z</time>
      </trkpt>
      <trkpt lat="48.10291" lon="6.64468">
        <ele>715.6</ele>
        <time>2023-09-03T09:18:42Z</time>
      </trkpt>
      <trkpt lat="48.10288" lon="6.64461">
        <ele>715.8</ele>
        <time>2023-09-03T09:18:43Z</time>
      </trkpt>
      <trkpt lat="48.10285" lon="6.64454">
        <ele>715.8</ele>
        <time>2023-09-03T09:18:44Z</time>
      </trkpt>
      <trkpt lat="48.10281" lon="6.64447">
        <ele>715.8</ele>
        <time>2023-09-03T09:18:45Z</time>
      </trkpt>
      <trkpt lat="48.10279" lon="6.6444">
        <ele>715.8</ele>
        <time>2023-09-03T09:18:46Z</time>
      </trkpt>
      <trkpt lat="48.10279" lon="6.64433">
        <ele>715.8</ele>
        <time>2023-09-03T09:18:47Z</time>
      </trkpt>
      <trkpt lat="48.10282" lon="6.64426">
        <ele>715.8</ele>
        <time>2023-09-03T09:18:48Z</time>
      </trkpt>
      <trkpt lat="48.10282" lon="6.64419">
        <ele>715.8</ele>
        <time>2023-09-03T09:18:49Z</time>
      </trkpt>
      <trkpt lat="48.10281" lon="6.64411">
        <ele>715.8</ele>
        <time>2023-09-03T09:18:50Z</time>
      </trkpt>
      <trkpt lat="48.10279" lon="6.64405">
        <ele>715.6</ele>
        <time>2023-09-03T09:18:51Z</time>
      </trkpt>
      <trkpt lat="48.10277" lon="6.64399">
        <ele>715.6</ele>
        <time>2023-09-03T09:18:52Z</time>
      </trkpt>
      <trkpt lat="48.10277" lon="6.64393">
        <ele>715.6</ele>
        <time>2023-09-03T09:18:53Z</time>
      </trkpt>
      <trkpt lat="48.10278" lon="6.64387">
        <ele>715.6</ele>
        <time>2023-09-03T09:18:54Z</time>
      </trkpt>
      <trkpt lat="48.10279" lon="6.6438">
        <ele>715.6</ele>
        <time>2023-09-03T09:18:55Z</time>
      </trkpt>
      <trkpt lat="48.10281" lon="6.64374">
        <ele>715.6</ele>
        <time>2023-09-03T09:18:56Z</time>
      </trkpt>
      <trkpt lat="48.10283" lon="6.64368">
        <ele>715.4</ele>
        <time>2023-09-03T09:18:57Z</time>
      </trkpt>
      <trkpt lat="48.10287" lon="6.64362">
        <ele>715.4</ele>
        <time>2023-09-03T09:18:58Z</time>
      </trkpt>
      <trkpt lat="48.1029" lon="6.64354">
        <ele>715.4</ele>
        <time>2023-09-03T09:18:59Z</time>
      </trkpt>
      <trkpt lat="48.10292" lon="6.64348">
        <ele>715.4</ele>
        <time>2023-09-03T09:19:00Z</time>
      </trkpt>
      <trkpt lat="48.10294" lon="6.64342">
        <ele>715.4</ele>
        <time>2023-09-03T09:19:01Z</time>
      </trkpt>
      <trkpt lat="48.10297" lon="6.64335">
        <ele>715.4</ele>
        <time>2023-09-03T09:19:02Z</time>
      </trkpt>
      <trkpt lat="48.10301" lon="6.64328">
        <ele>715.4</ele>
        <time>2023-09-03T09:19:03Z</time>
      </trkpt>
      <trkpt lat="48.10305" lon="6.64321">
        <ele>715.2</ele>
        <time>2023-09-03T09:19:04Z</time>
      </trkpt>
      <trkpt lat="48.10308" lon="6.64314">
        <ele>715.2</ele>
        <time>2023-09-03T09:19:05Z</time>
      </trkpt>
      <trkpt lat="48.10311" lon="6.64305">
        <ele>715.2</ele>
        <time>2023-09-03T09:19:06Z</time>
      </trkpt>
      <trkpt lat="48.10311" lon="6.64295">
        <ele>714.8</ele>
        <time>2023-09-03T09:19:07Z</time>
      </trkpt>
      <trkpt lat="48.10309" lon="6.64286">
        <ele>714.6</ele>
        <time>2023-09-03T09:19:08Z</time>
      </trkpt>
      <trkpt lat="48.10308" lon="6.64279">
        <ele>714.4</ele>
        <time>2023-09-03T09:19:09Z</time>
      </trkpt>
      <trkpt lat="48.10307" lon="6.64272">
        <ele>714</ele>
        <time>2023-09-03T09:19:10Z</time>
      </trkpt>
      <trkpt lat="48.10305" lon="6.64266">
        <ele>713.6</ele>
        <time>2023-09-03T09:19:11Z</time>
      </trkpt>
      <trkpt lat="48.10305" lon="6.6426">
        <ele>713</ele>
        <time>2023-09-03T09:19:12Z</time>
      </trkpt>
      <trkpt lat="48.10305" lon="6.64254">
        <ele>713</ele>
        <time>2023-09-03T09:19:13Z</time>
      </trkpt>
      <trkpt lat="48.10303" lon="6.64247">
        <ele>713</ele>
        <time>2023-09-03T09:19:14Z</time>
      </trkpt>
      <trkpt lat="48.10302" lon="6.64241">
        <ele>713.2</ele>
        <time>2023-09-03T09:19:15Z</time>
      </trkpt>
      <trkpt lat="48.10302" lon="6.64238">
        <ele>712.8</ele>
        <time>2023-09-03T09:19:16Z</time>
      </trkpt>
      <trkpt lat="48.10299" lon="6.64232">
        <ele>712.8</ele>
        <time>2023-09-03T09:19:17Z</time>
      </trkpt>
      <trkpt lat="48.10296" lon="6.64228">
        <ele>712.6</ele>
        <time>2023-09-03T09:19:18Z</time>
      </trkpt>
      <trkpt lat="48.10293" lon="6.64223">
        <ele>712.8</ele>
        <time>2023-09-03T09:19:19Z</time>
      </trkpt>
      <trkpt lat="48.1029" lon="6.64219">
        <ele>712.8</ele>
        <time>2023-09-03T09:19:20Z</time>
      </trkpt>
      <trkpt lat="48.10287" lon="6.64213">
        <ele>712.8</ele>
        <time>2023-09-03T09:19:21Z</time>
      </trkpt>
      <trkpt lat="48.10285" lon="6.64208">
        <ele>712.8</ele>
        <time>2023-09-03T09:19:22Z</time>
      </trkpt>
      <trkpt lat="48.10283" lon="6.64202">
        <ele>713</ele>
        <time>2023-09-03T09:19:23Z</time>
      </trkpt>
      <trkpt lat="48.10284" lon="6.64197">
        <ele>713</ele>
        <time>2023-09-03T09:19:24Z</time>
      </trkpt>
      <trkpt lat="48.10287" lon="6.64194">
        <ele>713.2</ele>
        <time>2023-09-03T09:19:25Z</time>
      </trkpt>
      <trkpt lat="48.1029" lon="6.64192">
        <ele>713</ele>
        <time>2023-09-03T09:19:26Z</time>
      </trkpt>
      <trkpt lat="48.10294" lon="6.6419">
        <ele>712.4</ele>
        <time>2023-09-03T09:19:27Z</time>
      </trkpt>
      <trkpt lat="48.10297" lon="6.64189">
        <ele>712.4</ele>
        <time>2023-09-03T09:19:28Z</time>
      </trkpt>
      <trkpt lat="48.10301" lon="6.64187">
        <ele>712.4</ele>
        <time>2023-09-03T09:19:29Z</time>
      </trkpt>
      <trkpt lat="48.10305" lon="6.64184">
        <ele>712.2</ele>
        <time>2023-09-03T09:19:30Z</time>
      </trkpt>
      <trkpt lat="48.1031" lon="6.64181">
        <ele>712.2</ele>
        <time>2023-09-03T09:19:31Z</time>
      </trkpt>
      <trkpt lat="48.10315" lon="6.64177">
        <ele>711.4</ele>
        <time>2023-09-03T09:19:32Z</time>
      </trkpt>
      <trkpt lat="48.10319" lon="6.64173">
        <ele>711.2</ele>
        <time>2023-09-03T09:19:33Z</time>
      </trkpt>
      <trkpt lat="48.10322" lon="6.64169">
        <ele>710.6</ele>
        <time>2023-09-03T09:19:34Z</time>
      </trkpt>
      <trkpt lat="48.10322" lon="6.64165">
        <ele>709.8</ele>
        <time>2023-09-03T09:19:35Z</time>
      </trkpt>
      <trkpt lat="48.10324" lon="6.6416">
        <ele>708.6</ele>
        <time>2023-09-03T09:19:36Z</time>
      </trkpt>
      <trkpt lat="48.10326" lon="6.64156">
        <ele>708.2</ele>
        <time>2023-09-03T09:19:37Z</time>
      </trkpt>
      <trkpt lat="48.10327" lon="6.64152">
        <ele>708</ele>
        <time>2023-09-03T09:19:38Z</time>
      </trkpt>
      <trkpt lat="48.10328" lon="6.64148">
        <ele>707.8</ele>
        <time>2023-09-03T09:19:39Z</time>
      </trkpt>
      <trkpt lat="48.10329" lon="6.64143">
        <ele>707.4</ele>
        <time>2023-09-03T09:19:40Z</time>
      </trkpt>
      <trkpt lat="48.10331" lon="6.64138">
        <ele>707.2</ele>
        <time>2023-09-03T09:19:41Z</time>
      </trkpt>
      <trkpt lat="48.10333" lon="6.64132">
        <ele>706.6</ele>
        <time>2023-09-03T09:19:42Z</time>
      </trkpt>
      <trkpt lat="48.10335" lon="6.64128">
        <ele>705.6</ele>
        <time>2023-09-03T09:19:43Z</time>
      </trkpt>
      <trkpt lat="48.10336" lon="6.64122">
        <ele>705</ele>
        <time>2023-09-03T09:19:44Z</time>
      </trkpt>
      <trkpt lat="48.10338" lon="6.64116">
        <ele>703.4</ele>
        <time>2023-09-03T09:19:45Z</time>
      </trkpt>
      <trkpt lat="48.1034" lon="6.6411">
        <ele>702.8</ele>
        <time>2023-09-03T09:19:46Z</time>
      </trkpt>
      <trkpt lat="48.10341" lon="6.64104">
        <ele>701</ele>
        <time>2023-09-03T09:19:47Z</time>
      </trkpt>
      <trkpt lat="48.1034" lon="6.64096">
        <ele>700.6</ele>
        <time>2023-09-03T09:19:48Z</time>
      </trkpt>
      <trkpt lat="48.10341" lon="6.6409">
        <ele>699.8</ele>
        <time>2023-09-03T09:19:49Z</time>
      </trkpt>
      <trkpt lat="48.10343" lon="6.64083">
        <ele>699</ele>
        <time>2023-09-03T09:19:50Z</time>
      </trkpt>
      <trkpt lat="48.10344" lon="6.64074">
        <ele>697.4</ele>
        <time>2023-09-03T09:19:51Z</time>
      </trkpt>
      <trkpt lat="48.10345" lon="6.64067">
        <ele>696.8</ele>
        <time>2023-09-03T09:19:52Z</time>
      </trkpt>
      <trkpt lat="48.10344" lon="6.6406">
        <ele>693.2</ele>
        <time>2023-09-03T09:19:53Z</time>
      </trkpt>
      <trkpt lat="48.10343" lon="6.64053">
        <ele>691.4</ele>
        <time>2023-09-03T09:19:54Z</time>
      </trkpt>
      <trkpt lat="48.10342" lon="6.64045">
        <ele>690.8</ele>
        <time>2023-09-03T09:19:55Z</time>
      </trkpt>
      <trkpt lat="48.10342" lon="6.64039">
        <ele>689.8</ele>
        <time>2023-09-03T09:19:56Z</time>
      </trkpt>
      <trkpt lat="48.1034" lon="6.6403">
        <ele>689.2</ele>
        <time>2023-09-03T09:19:57Z</time>
      </trkpt>
      <trkpt lat="48.10337" lon="6.64023">
        <ele>688</ele>
        <time>2023-09-03T09:19:58Z</time>
      </trkpt>
      <trkpt lat="48.10336" lon="6.64016">
        <ele>686.8</ele>
        <time>2023-09-03T09:19:59Z</time>
      </trkpt>
      <trkpt lat="48.10335" lon="6.6401">
        <ele>685</ele>
        <time>2023-09-03T09:20:00Z</time>
      </trkpt>
      <trkpt lat="48.10333" lon="6.64006">
        <ele>684.4</ele>
        <time>2023-09-03T09:20:01Z</time>
      </trkpt>
      <trkpt lat="48.10331" lon="6.64002">
        <ele>683.8</ele>
        <time>2023-09-03T09:20:02Z</time>
      </trkpt>
      <trkpt lat="48.10328" lon="6.63997">
        <ele>683.4</ele>
        <time>2023-09-03T09:20:03Z</time>
      </trkpt>
      <trkpt lat="48.10322" lon="6.63993">
        <ele>682.2</ele>
        <time>2023-09-03T09:20:04Z</time>
      </trkpt>
      <trkpt lat="48.10319" lon="6.63991">
        <ele>681.6</ele>
        <time>2023-09-03T09:20:05Z</time>
      </trkpt>
      <trkpt lat="48.10317" lon="6.63988">
        <ele>680.4</ele>
        <time>2023-09-03T09:20:06Z</time>
      </trkpt>
      <trkpt lat="48.10315" lon="6.63986">
        <ele>679.4</ele>
        <time>2023-09-03T09:20:07Z</time>
      </trkpt>
      <trkpt lat="48.10314" lon="6.63985">
        <ele>679.2</ele>
        <time>2023-09-03T09:20:08Z</time>
      </trkpt>
      <trkpt lat="48.10311" lon="6.63982">
        <ele>678.6</ele>
        <time>2023-09-03T09:20:09Z</time>
      </trkpt>
      <trkpt lat="48.10307" lon="6.6398">
        <ele>678.2</ele>
        <time>2023-09-03T09:20:10Z</time>
      </trkpt>
      <trkpt lat="48.10303" lon="6.63979">
        <ele>678</ele>
        <time>2023-09-03T09:20:11Z</time>
      </trkpt>
      <trkpt lat="48.10297" lon="6.63977">
        <ele>678</ele>
        <time>2023-09-03T09:20:12Z</time>
      </trkpt>
      <trkpt lat="48.10291" lon="6.63975">
        <ele>678</ele>
        <time>2023-09-03T09:20:13Z</time>
      </trkpt>
      <trkpt lat="48.10287" lon="6.63974">
        <ele>678</ele>
        <time>2023-09-03T09:20:14Z</time>
      </trkpt>
      <trkpt lat="48.10282" lon="6.63973">
        <ele>678</ele>
        <time>2023-09-03T09:20:15Z</time>
      </trkpt>
      <trkpt lat="48.10277" lon="6.63971">
        <ele>678</ele>
        <time>2023-09-03T09:20:16Z</time>
      </trkpt>
      <trkpt lat="48.10273" lon="6.6397">
        <ele>678</ele>
        <time>2023-09-03T09:20:17Z</time>
      </trkpt>
      <trkpt lat="48.10269" lon="6.63969">
        <ele>678.2</ele>
        <time>2023-09-03T09:20:18Z</time>
      </trkpt>
      <trkpt lat="48.10267" lon="6.6397">
        <ele>678.4</ele>
        <time>2023-09-03T09:20:19Z</time>
      </trkpt>
      <trkpt lat="48.10264" lon="6.6397">
        <ele>678.6</ele>
        <time>2023-09-03T09:20:20Z</time>
      </trkpt>
      <trkpt lat="48.10261" lon="6.6397">
        <ele>678.8</ele>
        <time>2023-09-03T09:20:21Z</time>
      </trkpt>
      <trkpt lat="48.10258" lon="6.63971">
        <ele>679</ele>
        <time>2023-09-03T09:20:22Z</time>
      </trkpt>
      <trkpt lat="48.10256" lon="6.63973">
        <ele>679.2</ele>
        <time>2023-09-03T09:20:23Z</time>
      </trkpt>
      <trkpt lat="48.10253" lon="6.63973">
        <ele>679.4</ele>
        <time>2023-09-03T09:20:24Z</time>
      </trkpt>
      <trkpt lat="48.1025" lon="6.63973">
        <ele>679.6</ele>
        <time>2023-09-03T09:20:25Z</time>
      </trkpt>
      <trkpt lat="48.10246" lon="6.63973">
        <ele>680</ele>
        <time>2023-09-03T09:20:26Z</time>
      </trkpt>
      <trkpt lat="48.10243" lon="6.63973">
        <ele>680.2</ele>
        <time>2023-09-03T09:20:27Z</time>
      </trkpt>
      <trkpt lat="48.1024" lon="6.63973">
        <ele>680.4</ele>
        <time>2023-09-03T09:20:28Z</time>
      </trkpt>
      <trkpt lat="48.10236" lon="6.63974">
        <ele>680.6</ele>
        <time>2023-09-03T09:20:29Z</time>
      </trkpt>
      <trkpt lat="48.10233" lon="6.63976">
        <ele>680.8</ele>
        <time>2023-09-03T09:20:30Z</time>
      </trkpt>
      <trkpt lat="48.10229" lon="6.63977">
        <ele>681</ele>
        <time>2023-09-03T09:20:31Z</time>
      </trkpt>
      <trkpt lat="48.10225" lon="6.63979">
        <ele>681.2</ele>
        <time>2023-09-03T09:20:32Z</time>
      </trkpt>
      <trkpt lat="48.1022" lon="6.63981">
        <ele>681.2</ele>
        <time>2023-09-03T09:20:33Z</time>
      </trkpt>
      <trkpt lat="48.10216" lon="6.63983">
        <ele>681.2</ele>
        <time>2023-09-03T09:20:34Z</time>
      </trkpt>
      <trkpt lat="48.10211" lon="6.63987">
        <ele>681.2</ele>
        <time>2023-09-03T09:20:35Z</time>
      </trkpt>
      <trkpt lat="48.10207" lon="6.63989">
        <ele>681.4</ele>
        <time>2023-09-03T09:20:36Z</time>
      </trkpt>
      <trkpt lat="48.10202" lon="6.63993">
        <ele>681.4</ele>
        <time>2023-09-03T09:20:37Z</time>
      </trkpt>
      <trkpt lat="48.10198" lon="6.63995">
        <ele>681.4</ele>
        <time>2023-09-03T09:20:38Z</time>
      </trkpt>
      <trkpt lat="48.10193" lon="6.63999">
        <ele>681.6</ele>
        <time>2023-09-03T09:20:39Z</time>
      </trkpt>
      <trkpt lat="48.10188" lon="6.64002">
        <ele>681.6</ele>
        <time>2023-09-03T09:20:40Z</time>
      </trkpt>
      <trkpt lat="48.10184" lon="6.64006">
        <ele>681.8</ele>
        <time>2023-09-03T09:20:41Z</time>
      </trkpt>
      <trkpt lat="48.1018" lon="6.6401">
        <ele>681.8</ele>
        <time>2023-09-03T09:20:42Z</time>
      </trkpt>
      <trkpt lat="48.10176" lon="6.64014">
        <ele>681.8</ele>
        <time>2023-09-03T09:20:43Z</time>
      </trkpt>
      <trkpt lat="48.10172" lon="6.64017">
        <ele>681.8</ele>
        <time>2023-09-03T09:20:44Z</time>
      </trkpt>
      <trkpt lat="48.10167" lon="6.64022">
        <ele>681.8</ele>
        <time>2023-09-03T09:20:45Z</time>
      </trkpt>
      <trkpt lat="48.10163" lon="6.64026">
        <ele>682</ele>
        <time>2023-09-03T09:20:46Z</time>
      </trkpt>
      <trkpt lat="48.10159" lon="6.64031">
        <ele>682.2</ele>
        <time>2023-09-03T09:20:47Z</time>
      </trkpt>
      <trkpt lat="48.10154" lon="6.64037">
        <ele>682.4</ele>
        <time>2023-09-03T09:20:48Z</time>
      </trkpt>
      <trkpt lat="48.10149" lon="6.64044">
        <ele>682.4</ele>
        <time>2023-09-03T09:20:49Z</time>
      </trkpt>
      <trkpt lat="48.10145" lon="6.64049">
        <ele>682.4</ele>
        <time>2023-09-03T09:20:50Z</time>
      </trkpt>
      <trkpt lat="48.10141" lon="6.64054">
        <ele>682.4</ele>
        <time>2023-09-03T09:20:51Z</time>
      </trkpt>
      <trkpt lat="48.10138" lon="6.64059">
        <ele>682.6</ele>
        <time>2023-09-03T09:20:52Z</time>
      </trkpt>
      <trkpt lat="48.10136" lon="6.64064">
        <ele>682.6</ele>
        <time>2023-09-03T09:20:53Z</time>
      </trkpt>
      <trkpt lat="48.10134" lon="6.64069">
        <ele>682.6</ele>
        <time>2023-09-03T09:20:54Z</time>
      </trkpt>
      <trkpt lat="48.10132" lon="6.64073">
        <ele>682.8</ele>
        <time>2023-09-03T09:20:55Z</time>
      </trkpt>
      <trkpt lat="48.1013" lon="6.64078">
        <ele>682.8</ele>
        <time>2023-09-03T09:20:56Z</time>
      </trkpt>
      <trkpt lat="48.10128" lon="6.64082">
        <ele>682.8</ele>
        <time>2023-09-03T09:20:57Z</time>
      </trkpt>
      <trkpt lat="48.10125" lon="6.64087">
        <ele>682.8</ele>
        <time>2023-09-03T09:20:58Z</time>
      </trkpt>
      <trkpt lat="48.10122" lon="6.64092">
        <ele>683</ele>
        <time>2023-09-03T09:20:59Z</time>
      </trkpt>
      <trkpt lat="48.10118" lon="6.64098">
        <ele>683</ele>
        <time>2023-09-03T09:21:00Z</time>
      </trkpt>
      <trkpt lat="48.10113" lon="6.64102">
        <ele>683.2</ele>
        <time>2023-09-03T09:21:01Z</time>
      </trkpt>
      <trkpt lat="48.10108" lon="6.64107">
        <ele>683.2</ele>
        <time>2023-09-03T09:21:02Z</time>
      </trkpt>
      <trkpt lat="48.10104" lon="6.64112">
        <ele>683.2</ele>
        <time>2023-09-03T09:21:03Z</time>
      </trkpt>
      <trkpt lat="48.10101" lon="6.64118">
        <ele>683.2</ele>
        <time>2023-09-03T09:21:04Z</time>
      </trkpt>
      <trkpt lat="48.10097" lon="6.64124">
        <ele>683.2</ele>
        <time>2023-09-03T09:21:05Z</time>
      </trkpt>
      <trkpt lat="48.10094" lon="6.64131">
        <ele>683.2</ele>
        <time>2023-09-03T09:21:06Z</time>
      </trkpt>
      <trkpt lat="48.10091" lon="6.64137">
        <ele>683.2</ele>
        <time>2023-09-03T09:21:07Z</time>
      </trkpt>
      <trkpt lat="48.10088" lon="6.64143">
        <ele>683.2</ele>
        <time>2023-09-03T09:21:08Z</time>
      </trkpt>
      <trkpt lat="48.10085" lon="6.64149">
        <ele>683.2</ele>
        <time>2023-09-03T09:21:09Z</time>
      </trkpt>
      <trkpt lat="48.10082" lon="6.64154">
        <ele>683.2</ele>
        <time>2023-09-03T09:21:10Z</time>
      </trkpt>
      <trkpt lat="48.10079" lon="6.64158">
        <ele>683.2</ele>
        <time>2023-09-03T09:21:11Z</time>
      </trkpt>
      <trkpt lat="48.10076" lon="6.64161">
        <ele>683.2</ele>
        <time>2023-09-03T09:21:12Z</time>
      </trkpt>
      <trkpt lat="48.10073" lon="6.64165">
        <ele>683.2</ele>
        <time>2023-09-03T09:21:13Z</time>
      </trkpt>
      <trkpt lat="48.10071" lon="6.64169">
        <ele>683</ele>
        <time>2023-09-03T09:21:14Z</time>
      </trkpt>
      <trkpt lat="48.10069" lon="6.64174">
        <ele>683</ele>
        <time>2023-09-03T09:21:15Z</time>
      </trkpt>
      <trkpt lat="48.10067" lon="6.64178">
        <ele>683.2</ele>
        <time>2023-09-03T09:21:16Z</time>
      </trkpt>
      <trkpt lat="48.10065" lon="6.64181">
        <ele>683.2</ele>
        <time>2023-09-03T09:21:17Z</time>
      </trkpt>
      <trkpt lat="48.10062" lon="6.64184">
        <ele>683</ele>
        <time>2023-09-03T09:21:18Z</time>
      </trkpt>
      <trkpt lat="48.1006" lon="6.64187">
        <ele>683</ele>
        <time>2023-09-03T09:21:19Z</time>
      </trkpt>
      <trkpt lat="48.10056" lon="6.64191">
        <ele>683</ele>
        <time>2023-09-03T09:21:20Z</time>
      </trkpt>
      <trkpt lat="48.10052" lon="6.64195">
        <ele>683</ele>
        <time>2023-09-03T09:21:21Z</time>
      </trkpt>
      <trkpt lat="48.10047" lon="6.64198">
        <ele>682.8</ele>
        <time>2023-09-03T09:21:22Z</time>
      </trkpt>
      <trkpt lat="48.10042" lon="6.64202">
        <ele>682.6</ele>
        <time>2023-09-03T09:21:23Z</time>
      </trkpt>
      <trkpt lat="48.10036" lon="6.64207">
        <ele>682.4</ele>
        <time>2023-09-03T09:21:24Z</time>
      </trkpt>
      <trkpt lat="48.10031" lon="6.64213">
        <ele>682.2</ele>
        <time>2023-09-03T09:21:25Z</time>
      </trkpt>
      <trkpt lat="48.10026" lon="6.64219">
        <ele>682</ele>
        <time>2023-09-03T09:21:26Z</time>
      </trkpt>
      <trkpt lat="48.10022" lon="6.64223">
        <ele>681.8</ele>
        <time>2023-09-03T09:21:27Z</time>
      </trkpt>
      <trkpt lat="48.10016" lon="6.6423">
        <ele>681.8</ele>
        <time>2023-09-03T09:21:28Z</time>
      </trkpt>
      <trkpt lat="48.1001" lon="6.64236">
        <ele>681.4</ele>
        <time>2023-09-03T09:21:29Z</time>
      </trkpt>
      <trkpt lat="48.10006" lon="6.64242">
        <ele>681.4</ele>
        <time>2023-09-03T09:21:30Z</time>
      </trkpt>
      <trkpt lat="48.09999" lon="6.64249">
        <ele>681.4</ele>
        <time>2023-09-03T09:21:31Z</time>
      </trkpt>
      <trkpt lat="48.09994" lon="6.64254">
        <ele>680.6</ele>
        <time>2023-09-03T09:21:32Z</time>
      </trkpt>
      <trkpt lat="48.09988" lon="6.64258">
        <ele>680.4</ele>
        <time>2023-09-03T09:21:33Z</time>
      </trkpt>
      <trkpt lat="48.09982" lon="6.64261">
        <ele>680</ele>
        <time>2023-09-03T09:21:34Z</time>
      </trkpt>
      <trkpt lat="48.09976" lon="6.64264">
        <ele>679.8</ele>
        <time>2023-09-03T09:21:35Z</time>
      </trkpt>
      <trkpt lat="48.0997" lon="6.64268">
        <ele>679</ele>
        <time>2023-09-03T09:21:36Z</time>
      </trkpt>
      <trkpt lat="48.09965" lon="6.64274">
        <ele>678.6</ele>
        <time>2023-09-03T09:21:37Z</time>
      </trkpt>
      <trkpt lat="48.0996" lon="6.64281">
        <ele>678.4</ele>
        <time>2023-09-03T09:21:38Z</time>
      </trkpt>
      <trkpt lat="48.09956" lon="6.64288">
        <ele>678.2</ele>
        <time>2023-09-03T09:21:39Z</time>
      </trkpt>
      <trkpt lat="48.09952" lon="6.64296">
        <ele>678</ele>
        <time>2023-09-03T09:21:40Z</time>
      </trkpt>
      <trkpt lat="48.09948" lon="6.64303">
        <ele>678</ele>
        <time>2023-09-03T09:21:41Z</time>
      </trkpt>
      <trkpt lat="48.09943" lon="6.64312">
        <ele>678</ele>
        <time>2023-09-03T09:21:42Z</time>
      </trkpt>
      <trkpt lat="48.09937" lon="6.64319">
        <ele>676.8</ele>
        <time>2023-09-03T09:21:43Z</time>
      </trkpt>
      <trkpt lat="48.09931" lon="6.64325">
        <ele>676.2</ele>
        <time>2023-09-03T09:21:44Z</time>
      </trkpt>
      <trkpt lat="48.09925" lon="6.64331">
        <ele>675.6</ele>
        <time>2023-09-03T09:21:45Z</time>
      </trkpt>
      <trkpt lat="48.0992" lon="6.64337">
        <ele>675</ele>
        <time>2023-09-03T09:21:46Z</time>
      </trkpt>
      <trkpt lat="48.09915" lon="6.64341">
        <ele>674.2</ele>
        <time>2023-09-03T09:21:47Z</time>
      </trkpt>
      <trkpt lat="48.09908" lon="6.64343">
        <ele>673.4</ele>
        <time>2023-09-03T09:21:48Z</time>
      </trkpt>
      <trkpt lat="48.099" lon="6.64343">
        <ele>671.8</ele>
        <time>2023-09-03T09:21:49Z</time>
      </trkpt>
      <trkpt lat="48.09895" lon="6.64341">
        <ele>671.4</ele>
        <time>2023-09-03T09:21:50Z</time>
      </trkpt>
      <trkpt lat="48.0989" lon="6.6434">
        <ele>670.8</ele>
        <time>2023-09-03T09:21:51Z</time>
      </trkpt>
      <trkpt lat="48.09886" lon="6.6434">
        <ele>670</ele>
        <time>2023-09-03T09:21:52Z</time>
      </trkpt>
      <trkpt lat="48.09881" lon="6.64341">
        <ele>669.2</ele>
        <time>2023-09-03T09:21:53Z</time>
      </trkpt>
      <trkpt lat="48.09877" lon="6.64341">
        <ele>667.8</ele>
        <time>2023-09-03T09:21:54Z</time>
      </trkpt>
      <trkpt lat="48.09872" lon="6.64342">
        <ele>667.4</ele>
        <time>2023-09-03T09:21:55Z</time>
      </trkpt>
      <trkpt lat="48.09868" lon="6.64344">
        <ele>665.8</ele>
        <time>2023-09-03T09:21:56Z</time>
      </trkpt>
      <trkpt lat="48.09863" lon="6.64345">
        <ele>665.4</ele>
        <time>2023-09-03T09:21:57Z</time>
      </trkpt>
      <trkpt lat="48.09858" lon="6.64346">
        <ele>664.4</ele>
        <time>2023-09-03T09:21:58Z</time>
      </trkpt>
      <trkpt lat="48.09853" lon="6.64348">
        <ele>663.4</ele>
        <time>2023-09-03T09:21:59Z</time>
      </trkpt>
      <trkpt lat="48.09846" lon="6.64349">
        <ele>661.6</ele>
        <time>2023-09-03T09:22:00Z</time>
      </trkpt>
      <trkpt lat="48.09839" lon="6.64351">
        <ele>661</ele>
        <time>2023-09-03T09:22:01Z</time>
      </trkpt>
      <trkpt lat="48.09834" lon="6.64354">
        <ele>659.4</ele>
        <time>2023-09-03T09:22:02Z</time>
      </trkpt>
      <trkpt lat="48.09832" lon="6.64357">
        <ele>658.6</ele>
        <time>2023-09-03T09:22:03Z</time>
      </trkpt>
      <trkpt lat="48.09829" lon="6.6436">
        <ele>656.2</ele>
        <time>2023-09-03T09:22:04Z</time>
      </trkpt>
      <trkpt lat="48.09825" lon="6.64362">
        <ele>653.6</ele>
        <time>2023-09-03T09:22:05Z</time>
      </trkpt>
      <trkpt lat="48.09821" lon="6.64365">
        <ele>652.6</ele>
        <time>2023-09-03T09:22:06Z</time>
      </trkpt>
      <trkpt lat="48.09815" lon="6.64369">
        <ele>651.4</ele>
        <time>2023-09-03T09:22:07Z</time>
      </trkpt>
      <trkpt lat="48.0981" lon="6.64374">
        <ele>649</ele>
        <time>2023-09-03T09:22:08Z</time>
      </trkpt>
      <trkpt lat="48.09806" lon="6.64376">
        <ele>646.4</ele>
        <time>2023-09-03T09:22:09Z</time>
      </trkpt>
      <trkpt lat="48.09802" lon="6.64377">
        <ele>645.2</ele>
        <time>2023-09-03T09:22:10Z</time>
      </trkpt>
      <trkpt lat="48.09799" lon="6.64377">
        <ele>643.4</ele>
        <time>2023-09-03T09:22:11Z</time>
      </trkpt>
      <trkpt lat="48.09797" lon="6.64378">
        <ele>642.6</ele>
        <time>2023-09-03T09:22:12Z</time>
      </trkpt>
      <trkpt lat="48.09792" lon="6.64379">
        <ele>640.6</ele>
        <time>2023-09-03T09:22:13Z</time>
      </trkpt>
      <trkpt lat="48.09788" lon="6.6438">
        <ele>640</ele>
        <time>2023-09-03T09:22:14Z</time>
      </trkpt>
      <trkpt lat="48.09783" lon="6.64383">
        <ele>638.6</ele>
        <time>2023-09-03T09:22:15Z</time>
      </trkpt>
      <trkpt lat="48.09779" lon="6.64386">
        <ele>636.8</ele>
        <time>2023-09-03T09:22:16Z</time>
      </trkpt>
      <trkpt lat="48.09774" lon="6.64388">
        <ele>636</ele>
        <time>2023-09-03T09:22:17Z</time>
      </trkpt>
      <trkpt lat="48.0977" lon="6.64389">
        <ele>635.2</ele>
        <time>2023-09-03T09:22:18Z</time>
      </trkpt>
      <trkpt lat="48.09766" lon="6.6439">
        <ele>634.8</ele>
        <time>2023-09-03T09:22:19Z</time>
      </trkpt>
      <trkpt lat="48.09763" lon="6.64391">
        <ele>634.2</ele>
        <time>2023-09-03T09:22:20Z</time>
      </trkpt>
      <trkpt lat="48.0976" lon="6.64391">
        <ele>632.8</ele>
        <time>2023-09-03T09:22:21Z</time>
      </trkpt>
      <trkpt lat="48.09758" lon="6.64391">
        <ele>630.4</ele>
        <time>2023-09-03T09:22:22Z</time>
      </trkpt>
      <trkpt lat="48.09756" lon="6.6439">
        <ele>629.4</ele>
        <time>2023-09-03T09:22:23Z</time>
      </trkpt>
      <trkpt lat="48.09754" lon="6.64388">
        <ele>627.8</ele>
        <time>2023-09-03T09:22:24Z</time>
      </trkpt>
      <trkpt lat="48.09753" lon="6.64385">
        <ele>627.2</ele>
        <time>2023-09-03T09:22:25Z</time>
      </trkpt>
      <trkpt lat="48.09753" lon="6.6438">
        <ele>625.8</ele>
        <time>2023-09-03T09:22:26Z</time>
      </trkpt>
      <trkpt lat="48.09752" lon="6.64373">
        <ele>625</ele>
        <time>2023-09-03T09:22:27Z</time>
      </trkpt>
      <trkpt lat="48.09752" lon="6.64363">
        <ele>624.2</ele>
        <time>2023-09-03T09:22:28Z</time>
      </trkpt>
      <trkpt lat="48.09752" lon="6.64354">
        <ele>623.2</ele>
        <time>2023-09-03T09:22:29Z</time>
      </trkpt>
      <trkpt lat="48.09752" lon="6.64346">
        <ele>622.8</ele>
        <time>2023-09-03T09:22:30Z</time>
      </trkpt>
      <trkpt lat="48.09752" lon="6.64335">
        <ele>622.6</ele>
        <time>2023-09-03T09:22:31Z</time>
      </trkpt>
      <trkpt lat="48.09751" lon="6.64324">
        <ele>622.4</ele>
        <time>2023-09-03T09:22:32Z</time>
      </trkpt>
      <trkpt lat="48.0975" lon="6.64312">
        <ele>622.2</ele>
        <time>2023-09-03T09:22:33Z</time>
      </trkpt>
      <trkpt lat="48.0975" lon="6.64301">
        <ele>622</ele>
        <time>2023-09-03T09:22:34Z</time>
      </trkpt>
      <trkpt lat="48.0975" lon="6.64289">
        <ele>621.4</ele>
        <time>2023-09-03T09:22:35Z</time>
      </trkpt>
      <trkpt lat="48.09751" lon="6.64277">
        <ele>620.6</ele>
        <time>2023-09-03T09:22:36Z</time>
      </trkpt>
      <trkpt lat="48.09753" lon="6.64268">
        <ele>620</ele>
        <time>2023-09-03T09:22:37Z</time>
      </trkpt>
      <trkpt lat="48.09757" lon="6.6426">
        <ele>619.6</ele>
        <time>2023-09-03T09:22:38Z</time>
      </trkpt>
      <trkpt lat="48.09759" lon="6.64253">
        <ele>619.2</ele>
        <time>2023-09-03T09:22:39Z</time>
      </trkpt>
      <trkpt lat="48.09764" lon="6.64242">
        <ele>618.6</ele>
        <time>2023-09-03T09:22:40Z</time>
      </trkpt>
      <trkpt lat="48.09768" lon="6.64233">
        <ele>618.6</ele>
        <time>2023-09-03T09:22:41Z</time>
      </trkpt>
      <trkpt lat="48.09772" lon="6.64225">
        <ele>618.4</ele>
        <time>2023-09-03T09:22:42Z</time>
      </trkpt>
      <trkpt lat="48.09775" lon="6.64219">
        <ele>618.2</ele>
        <time>2023-09-03T09:22:43Z</time>
      </trkpt>
      <trkpt lat="48.0978" lon="6.64212">
        <ele>618</ele>
        <time>2023-09-03T09:22:44Z</time>
      </trkpt>
      <trkpt lat="48.09786" lon="6.64203">
        <ele>618</ele>
        <time>2023-09-03T09:22:45Z</time>
      </trkpt>
      <trkpt lat="48.0979" lon="6.64195">
        <ele>617.6</ele>
        <time>2023-09-03T09:22:46Z</time>
      </trkpt>
      <trkpt lat="48.09795" lon="6.64187">
        <ele>617.6</ele>
        <time>2023-09-03T09:22:47Z</time>
      </trkpt>
      <trkpt lat="48.098" lon="6.64179">
        <ele>617</ele>
        <time>2023-09-03T09:22:48Z</time>
      </trkpt>
      <trkpt lat="48.09805" lon="6.64169">
        <ele>616.4</ele>
        <time>2023-09-03T09:22:49Z</time>
      </trkpt>
      <trkpt lat="48.09809" lon="6.64158">
        <ele>615.6</ele>
        <time>2023-09-03T09:22:50Z</time>
      </trkpt>
      <trkpt lat="48.09813" lon="6.6415">
        <ele>614.8</ele>
        <time>2023-09-03T09:22:51Z</time>
      </trkpt>
      <trkpt lat="48.09817" lon="6.64141">
        <ele>614.2</ele>
        <time>2023-09-03T09:22:52Z</time>
      </trkpt>
      <trkpt lat="48.09823" lon="6.64133">
        <ele>613.4</ele>
        <time>2023-09-03T09:22:53Z</time>
      </trkpt>
      <trkpt lat="48.09829" lon="6.64124">
        <ele>612.8</ele>
        <time>2023-09-03T09:22:54Z</time>
      </trkpt>
      <trkpt lat="48.09834" lon="6.64116">
        <ele>612.2</ele>
        <time>2023-09-03T09:22:55Z</time>
      </trkpt>
      <trkpt lat="48.09839" lon="6.64108">
        <ele>612</ele>
        <time>2023-09-03T09:22:56Z</time>
      </trkpt>
      <trkpt lat="48.09845" lon="6.641">
        <ele>611.6</ele>
        <time>2023-09-03T09:22:57Z</time>
      </trkpt>
      <trkpt lat="48.09852" lon="6.64091">
        <ele>611.4</ele>
        <time>2023-09-03T09:22:58Z</time>
      </trkpt>
      <trkpt lat="48.09859" lon="6.64084">
        <ele>610</ele>
        <time>2023-09-03T09:22:59Z</time>
      </trkpt>
      <trkpt lat="48.09863" lon="6.64077">
        <ele>609.2</ele>
        <time>2023-09-03T09:23:00Z</time>
      </trkpt>
      <trkpt lat="48.09868" lon="6.64071">
        <ele>608.2</ele>
        <time>2023-09-03T09:23:01Z</time>
      </trkpt>
      <trkpt lat="48.09872" lon="6.64064">
        <ele>607.4</ele>
        <time>2023-09-03T09:23:02Z</time>
      </trkpt>
      <trkpt lat="48.09875" lon="6.64056">
        <ele>606.8</ele>
        <time>2023-09-03T09:23:03Z</time>
      </trkpt>
      <trkpt lat="48.09877" lon="6.6405">
        <ele>605.6</ele>
        <time>2023-09-03T09:23:04Z</time>
      </trkpt>
      <trkpt lat="48.09881" lon="6.64045">
        <ele>605.2</ele>
        <time>2023-09-03T09:23:05Z</time>
      </trkpt>
      <trkpt lat="48.09883" lon="6.64042">
        <ele>604.4</ele>
        <time>2023-09-03T09:23:06Z</time>
      </trkpt>
      <trkpt lat="48.09885" lon="6.6404">
        <ele>603.6</ele>
        <time>2023-09-03T09:23:07Z</time>
      </trkpt>
      <trkpt lat="48.09888" lon="6.64038">
        <ele>602.2</ele>
        <time>2023-09-03T09:23:08Z</time>
      </trkpt>
      <trkpt lat="48.0989" lon="6.64036">
        <ele>602</ele>
        <time>2023-09-03T09:23:09Z</time>
      </trkpt>
      <trkpt lat="48.09895" lon="6.64032">
        <ele>601</ele>
        <time>2023-09-03T09:23:10Z</time>
      </trkpt>
      <trkpt lat="48.09899" lon="6.6403">
        <ele>600.8</ele>
        <time>2023-09-03T09:23:11Z</time>
      </trkpt>
      <trkpt lat="48.09901" lon="6.64029">
        <ele>600.6</ele>
        <time>2023-09-03T09:23:12Z</time>
      </trkpt>
      <trkpt lat="48.09904" lon="6.64027">
        <ele>600.6</ele>
        <time>2023-09-03T09:23:13Z</time>
      </trkpt>
      <trkpt lat="48.09907" lon="6.64026">
        <ele>600.6</ele>
        <time>2023-09-03T09:23:14Z</time>
      </trkpt>
      <trkpt lat="48.09909" lon="6.64024">
        <ele>601.2</ele>
        <time>2023-09-03T09:23:15Z</time>
      </trkpt>
      <trkpt lat="48.09911" lon="6.64023">
        <ele>601.2</ele>
        <time>2023-09-03T09:23:16Z</time>
      </trkpt>
      <trkpt lat="48.09915" lon="6.64021">
        <ele>601.4</ele>
        <time>2023-09-03T09:23:17Z</time>
      </trkpt>
      <trkpt lat="48.09917" lon="6.64019">
        <ele>601.6</ele>
        <time>2023-09-03T09:23:18Z</time>
      </trkpt>
      <trkpt lat="48.09919" lon="6.64016">
        <ele>601.6</ele>
        <time>2023-09-03T09:23:19Z</time>
      </trkpt>
      <trkpt lat="48.09921" lon="6.64013">
        <ele>601.8</ele>
        <time>2023-09-03T09:23:20Z</time>
      </trkpt>
      <trkpt lat="48.09922" lon="6.64011">
        <ele>602</ele>
        <time>2023-09-03T09:23:21Z</time>
      </trkpt>
      <trkpt lat="48.09924" lon="6.64009">
        <ele>602.2</ele>
        <time>2023-09-03T09:23:22Z</time>
      </trkpt>
      <trkpt lat="48.09926" lon="6.64008">
        <ele>602.6</ele>
        <time>2023-09-03T09:23:23Z</time>
      </trkpt>
      <trkpt lat="48.09928" lon="6.64006">
        <ele>602.6</ele>
        <time>2023-09-03T09:23:24Z</time>
      </trkpt>
      <trkpt lat="48.09929" lon="6.64004">
        <ele>602.8</ele>
        <time>2023-09-03T09:23:25Z</time>
      </trkpt>
      <trkpt lat="48.0993" lon="6.64002">
        <ele>603.4</ele>
        <time>2023-09-03T09:23:26Z</time>
      </trkpt>
      <trkpt lat="48.09931" lon="6.63999">
        <ele>603.6</ele>
        <time>2023-09-03T09:23:27Z</time>
      </trkpt>
      <trkpt lat="48.09933" lon="6.63999">
        <ele>604</ele>
        <time>2023-09-03T09:23:28Z</time>
      </trkpt>
      <trkpt lat="48.09935" lon="6.63998">
        <ele>604.2</ele>
        <time>2023-09-03T09:23:29Z</time>
      </trkpt>
      <trkpt lat="48.09936" lon="6.63996">
        <ele>604.6</ele>
        <time>2023-09-03T09:23:30Z</time>
      </trkpt>
      <trkpt lat="48.09938" lon="6.63994">
        <ele>604.6</ele>
        <time>2023-09-03T09:23:31Z</time>
      </trkpt>
      <trkpt lat="48.09942" lon="6.6399">
        <ele>604.8</ele>
        <time>2023-09-03T09:23:32Z</time>
      </trkpt>
      <trkpt lat="48.09945" lon="6.63988">
        <ele>605</ele>
        <time>2023-09-03T09:23:33Z</time>
      </trkpt>
      <trkpt lat="48.09945" lon="6.63987">
        <ele>605.4</ele>
        <time>2023-09-03T09:23:34Z</time>
      </trkpt>
      <trkpt lat="48.09947" lon="6.63984">
        <ele>605.4</ele>
        <time>2023-09-03T09:23:35Z</time>
      </trkpt>
      <trkpt lat="48.09948" lon="6.63982">
        <ele>605.8</ele>
        <time>2023-09-03T09:23:36Z</time>
      </trkpt>
      <trkpt lat="48.09949" lon="6.6398">
        <ele>606.2</ele>
        <time>2023-09-03T09:23:37Z</time>
      </trkpt>
      <trkpt lat="48.09952" lon="6.63977">
        <ele>606.2</ele>
        <time>2023-09-03T09:23:38Z</time>
      </trkpt>
      <trkpt lat="48.09955" lon="6.63975">
        <ele>606.4</ele>
        <time>2023-09-03T09:23:39Z</time>
      </trkpt>
      <trkpt lat="48.09958" lon="6.63973">
        <ele>606.6</ele>
        <time>2023-09-03T09:23:40Z</time>
      </trkpt>
      <trkpt lat="48.0996" lon="6.63973">
        <ele>606.8</ele>
        <time>2023-09-03T09:23:41Z</time>
      </trkpt>
      <trkpt lat="48.09962" lon="6.63973">
        <ele>606.8</ele>
        <time>2023-09-03T09:23:42Z</time>
      </trkpt>
      <trkpt lat="48.09965" lon="6.63971">
        <ele>607.2</ele>
        <time>2023-09-03T09:23:43Z</time>
      </trkpt>
      <trkpt lat="48.09967" lon="6.63971">
        <ele>607.4</ele>
        <time>2023-09-03T09:23:44Z</time>
      </trkpt>
      <trkpt lat="48.0997" lon="6.6397">
        <ele>607.6</ele>
        <time>2023-09-03T09:23:45Z</time>
      </trkpt>
      <trkpt lat="48.09971" lon="6.63969">
        <ele>607.6</ele>
        <time>2023-09-03T09:23:46Z</time>
      </trkpt>
      <trkpt lat="48.09972" lon="6.63968">
        <ele>607.8</ele>
        <time>2023-09-03T09:23:47Z</time>
      </trkpt>
      <trkpt lat="48.09973" lon="6.63968">
        <ele>608</ele>
        <time>2023-09-03T09:23:48Z</time>
      </trkpt>
      <trkpt lat="48.09975" lon="6.63967">
        <ele>608</ele>
        <time>2023-09-03T09:23:49Z</time>
      </trkpt>
      <trkpt lat="48.09977" lon="6.63966">
        <ele>608.2</ele>
        <time>2023-09-03T09:23:50Z</time>
      </trkpt>
      <trkpt lat="48.09979" lon="6.63965">
        <ele>608.2</ele>
        <time>2023-09-03T09:23:51Z</time>
      </trkpt>
      <trkpt lat="48.09982" lon="6.63964">
        <ele>608.4</ele>
        <time>2023-09-03T09:23:52Z</time>
      </trkpt>
      <trkpt lat="48.09983" lon="6.63962">
        <ele>608.4</ele>
        <time>2023-09-03T09:23:53Z</time>
      </trkpt>
      <trkpt lat="48.09983" lon="6.63962">
        <ele>608.4</ele>
        <time>2023-09-03T09:23:54Z</time>
      </trkpt>
      <trkpt lat="48.09986" lon="6.6396">
        <ele>608.6</ele>
        <time>2023-09-03T09:23:55Z</time>
      </trkpt>
      <trkpt lat="48.09988" lon="6.63957">
        <ele>608.8</ele>
        <time>2023-09-03T09:23:56Z</time>
      </trkpt>
      <trkpt lat="48.09988" lon="6.63955">
        <ele>609</ele>
        <time>2023-09-03T09:23:57Z</time>
      </trkpt>
      <trkpt lat="48.09989" lon="6.63955">
        <ele>609.2</ele>
        <time>2023-09-03T09:23:58Z</time>
      </trkpt>
      <trkpt lat="48.09992" lon="6.63953">
        <ele>609.2</ele>
        <time>2023-09-03T09:23:59Z</time>
      </trkpt>
      <trkpt lat="48.09994" lon="6.63953">
        <ele>609.8</ele>
        <time>2023-09-03T09:24:00Z</time>
      </trkpt>
      <trkpt lat="48.09994" lon="6.63951">
        <ele>610.2</ele>
        <time>2023-09-03T09:24:01Z</time>
      </trkpt>
      <trkpt lat="48.09995" lon="6.63951">
        <ele>610.2</ele>
        <time>2023-09-03T09:24:02Z</time>
      </trkpt>
      <trkpt lat="48.09995" lon="6.6395">
        <ele>610.4</ele>
        <time>2023-09-03T09:24:03Z</time>
      </trkpt>
      <trkpt lat="48.09996" lon="6.6395">
        <ele>610.4</ele>
        <time>2023-09-03T09:24:04Z</time>
      </trkpt>
      <trkpt lat="48.09996" lon="6.6395">
        <ele>610.4</ele>
        <time>2023-09-03T09:24:05Z</time>
      </trkpt>
      <trkpt lat="48.09997" lon="6.63949">
        <ele>610.6</ele>
        <time>2023-09-03T09:24:06Z</time>
      </trkpt>
      <trkpt lat="48.09999" lon="6.63948">
        <ele>611</ele>
        <time>2023-09-03T09:24:07Z</time>
      </trkpt>
      <trkpt lat="48.10001" lon="6.63946">
        <ele>611</ele>
        <time>2023-09-03T09:24:08Z</time>
      </trkpt>
      <trkpt lat="48.10003" lon="6.63944">
        <ele>611.4</ele>
        <time>2023-09-03T09:24:09Z</time>
      </trkpt>
      <trkpt lat="48.10006" lon="6.63942">
        <ele>611.4</ele>
        <time>2023-09-03T09:24:10Z</time>
      </trkpt>
      <trkpt lat="48.10008" lon="6.63941">
        <ele>611.8</ele>
        <time>2023-09-03T09:24:11Z</time>
      </trkpt>
      <trkpt lat="48.10008" lon="6.6394">
        <ele>612.2</ele>
        <time>2023-09-03T09:24:12Z</time>
      </trkpt>
      <trkpt lat="48.10009" lon="6.63939">
        <ele>612.2</ele>
        <time>2023-09-03T09:24:13Z</time>
      </trkpt>
      <trkpt lat="48.10011" lon="6.63938">
        <ele>612.4</ele>
        <time>2023-09-03T09:24:14Z</time>
      </trkpt>
      <trkpt lat="48.10012" lon="6.63937">
        <ele>612.6</ele>
        <time>2023-09-03T09:24:15Z</time>
      </trkpt>
      <trkpt lat="48.10015" lon="6.63936">
        <ele>612.8</ele>
        <time>2023-09-03T09:24:16Z</time>
      </trkpt>
      <trkpt lat="48.10016" lon="6.63935">
        <ele>613</ele>
        <time>2023-09-03T09:24:17Z</time>
      </trkpt>
      <trkpt lat="48.10018" lon="6.63934">
        <ele>613.4</ele>
        <time>2023-09-03T09:24:18Z</time>
      </trkpt>
      <trkpt lat="48.10019" lon="6.63933">
        <ele>613.4</ele>
        <time>2023-09-03T09:24:19Z</time>
      </trkpt>
      <trkpt lat="48.10021" lon="6.6393">
        <ele>613.6</ele>
        <time>2023-09-03T09:24:20Z</time>
      </trkpt>
      <trkpt lat="48.10024" lon="6.63929">
        <ele>613.8</ele>
        <time>2023-09-03T09:24:21Z</time>
      </trkpt>
      <trkpt lat="48.10028" lon="6.63925">
        <ele>614</ele>
        <time>2023-09-03T09:24:22Z</time>
      </trkpt>
      <trkpt lat="48.10032" lon="6.6392">
        <ele>614.2</ele>
        <time>2023-09-03T09:24:23Z</time>
      </trkpt>
      <trkpt lat="48.10034" lon="6.63918">
        <ele>614.4</ele>
        <time>2023-09-03T09:24:24Z</time>
      </trkpt>
      <trkpt lat="48.10036" lon="6.63916">
        <ele>614.8</ele>
        <time>2023-09-03T09:24:25Z</time>
      </trkpt>
      <trkpt lat="48.10039" lon="6.63912">
        <ele>614.8</ele>
        <time>2023-09-03T09:24:26Z</time>
      </trkpt>
      <trkpt lat="48.10041" lon="6.6391">
        <ele>615</ele>
        <time>2023-09-03T09:24:27Z</time>
      </trkpt>
      <trkpt lat="48.10042" lon="6.63909">
        <ele>615</ele>
        <time>2023-09-03T09:24:28Z</time>
      </trkpt>
      <trkpt lat="48.10042" lon="6.63908">
        <ele>615.2</ele>
        <time>2023-09-03T09:24:29Z</time>
      </trkpt>
      <trkpt lat="48.10044" lon="6.63908">
        <ele>615.4</ele>
        <time>2023-09-03T09:24:30Z</time>
      </trkpt>
      <trkpt lat="48.10046" lon="6.63904">
        <ele>615.4</ele>
        <time>2023-09-03T09:24:31Z</time>
      </trkpt>
      <trkpt lat="48.1005" lon="6.63901">
        <ele>615.4</ele>
        <time>2023-09-03T09:24:32Z</time>
      </trkpt>
      <trkpt lat="48.10052" lon="6.63898">
        <ele>615.6</ele>
        <time>2023-09-03T09:24:33Z</time>
      </trkpt>
      <trkpt lat="48.10054" lon="6.63897">
        <ele>615.6</ele>
        <time>2023-09-03T09:24:34Z</time>
      </trkpt>
      <trkpt lat="48.10056" lon="6.63895">
        <ele>615.4</ele>
        <time>2023-09-03T09:24:35Z</time>
      </trkpt>
      <trkpt lat="48.10058" lon="6.63894">
        <ele>615.6</ele>
        <time>2023-09-03T09:24:36Z</time>
      </trkpt>
      <trkpt lat="48.10062" lon="6.63892">
        <ele>615.6</ele>
        <time>2023-09-03T09:24:37Z</time>
      </trkpt>
      <trkpt lat="48.10064" lon="6.6389">
        <ele>615.6</ele>
        <time>2023-09-03T09:24:38Z</time>
      </trkpt>
      <trkpt lat="48.10065" lon="6.63888">
        <ele>615.6</ele>
        <time>2023-09-03T09:24:39Z</time>
      </trkpt>
      <trkpt lat="48.10066" lon="6.63885">
        <ele>615.8</ele>
        <time>2023-09-03T09:24:40Z</time>
      </trkpt>
      <trkpt lat="48.10068" lon="6.63882">
        <ele>615.8</ele>
        <time>2023-09-03T09:24:41Z</time>
      </trkpt>
      <trkpt lat="48.10071" lon="6.63879">
        <ele>616</ele>
        <time>2023-09-03T09:24:42Z</time>
      </trkpt>
      <trkpt lat="48.10072" lon="6.63874">
        <ele>616</ele>
        <time>2023-09-03T09:24:43Z</time>
      </trkpt>
      <trkpt lat="48.10074" lon="6.63872">
        <ele>616.2</ele>
        <time>2023-09-03T09:24:44Z</time>
      </trkpt>
      <trkpt lat="48.10075" lon="6.63869">
        <ele>616.2</ele>
        <time>2023-09-03T09:24:45Z</time>
      </trkpt>
      <trkpt lat="48.10076" lon="6.63867">
        <ele>616.2</ele>
        <time>2023-09-03T09:24:46Z</time>
      </trkpt>
      <trkpt lat="48.10078" lon="6.63864">
        <ele>616.4</ele>
        <time>2023-09-03T09:24:47Z</time>
      </trkpt>
      <trkpt lat="48.1008" lon="6.63859">
        <ele>616.8</ele>
        <time>2023-09-03T09:24:48Z</time>
      </trkpt>
      <trkpt lat="48.10083" lon="6.63854">
        <ele>617</ele>
        <time>2023-09-03T09:24:49Z</time>
      </trkpt>
      <trkpt lat="48.10085" lon="6.63848">
        <ele>617</ele>
        <time>2023-09-03T09:24:50Z</time>
      </trkpt>
      <trkpt lat="48.10089" lon="6.63842">
        <ele>617.2</ele>
        <time>2023-09-03T09:24:51Z</time>
      </trkpt>
      <trkpt lat="48.10093" lon="6.63835">
        <ele>617.2</ele>
        <time>2023-09-03T09:24:52Z</time>
      </trkpt>
      <trkpt lat="48.10098" lon="6.63829">
        <ele>616.6</ele>
        <time>2023-09-03T09:24:53Z</time>
      </trkpt>
      <trkpt lat="48.10103" lon="6.63824">
        <ele>616.6</ele>
        <time>2023-09-03T09:24:54Z</time>
      </trkpt>
      <trkpt lat="48.10108" lon="6.63819">
        <ele>616.2</ele>
        <time>2023-09-03T09:24:55Z</time>
      </trkpt>
      <trkpt lat="48.10112" lon="6.63814">
        <ele>616</ele>
        <time>2023-09-03T09:24:56Z</time>
      </trkpt>
      <trkpt lat="48.10115" lon="6.63809">
        <ele>615.6</ele>
        <time>2023-09-03T09:24:57Z</time>
      </trkpt>
      <trkpt lat="48.10118" lon="6.63805">
        <ele>615.4</ele>
        <time>2023-09-03T09:24:58Z</time>
      </trkpt>
      <trkpt lat="48.10122" lon="6.638">
        <ele>615.4</ele>
        <time>2023-09-03T09:24:59Z</time>
      </trkpt>
      <trkpt lat="48.10124" lon="6.63793">
        <ele>615.2</ele>
        <time>2023-09-03T09:25:00Z</time>
      </trkpt>
      <trkpt lat="48.10127" lon="6.63787">
        <ele>615.2</ele>
        <time>2023-09-03T09:25:01Z</time>
      </trkpt>
      <trkpt lat="48.10131" lon="6.6378">
        <ele>615</ele>
        <time>2023-09-03T09:25:02Z</time>
      </trkpt>
      <trkpt lat="48.10134" lon="6.63771">
        <ele>615</ele>
        <time>2023-09-03T09:25:03Z</time>
      </trkpt>
      <trkpt lat="48.10137" lon="6.63759">
        <ele>614.8</ele>
        <time>2023-09-03T09:25:04Z</time>
      </trkpt>
      <trkpt lat="48.10139" lon="6.63748">
        <ele>614.6</ele>
        <time>2023-09-03T09:25:05Z</time>
      </trkpt>
      <trkpt lat="48.10141" lon="6.63738">
        <ele>614</ele>
        <time>2023-09-03T09:25:06Z</time>
      </trkpt>
      <trkpt lat="48.10144" lon="6.63728">
        <ele>613.6</ele>
        <time>2023-09-03T09:25:07Z</time>
      </trkpt>
      <trkpt lat="48.10148" lon="6.63721">
        <ele>613</ele>
        <time>2023-09-03T09:25:08Z</time>
      </trkpt>
      <trkpt lat="48.10151" lon="6.63717">
        <ele>612.2</ele>
        <time>2023-09-03T09:25:09Z</time>
      </trkpt>
      <trkpt lat="48.10154" lon="6.63712">
        <ele>610.8</ele>
        <time>2023-09-03T09:25:10Z</time>
      </trkpt>
      <trkpt lat="48.10156" lon="6.63708">
        <ele>610.2</ele>
        <time>2023-09-03T09:25:11Z</time>
      </trkpt>
      <trkpt lat="48.10158" lon="6.63704">
        <ele>609.2</ele>
        <time>2023-09-03T09:25:12Z</time>
      </trkpt>
      <trkpt lat="48.10161" lon="6.63701">
        <ele>608.4</ele>
        <time>2023-09-03T09:25:13Z</time>
      </trkpt>
      <trkpt lat="48.10164" lon="6.63698">
        <ele>607.8</ele>
        <time>2023-09-03T09:25:14Z</time>
      </trkpt>
      <trkpt lat="48.10165" lon="6.63694">
        <ele>606.8</ele>
        <time>2023-09-03T09:25:15Z</time>
      </trkpt>
      <trkpt lat="48.10168" lon="6.6369">
        <ele>606.4</ele>
        <time>2023-09-03T09:25:16Z</time>
      </trkpt>
      <trkpt lat="48.10172" lon="6.63687">
        <ele>606</ele>
        <time>2023-09-03T09:25:17Z</time>
      </trkpt>
      <trkpt lat="48.10178" lon="6.63682">
        <ele>606</ele>
        <time>2023-09-03T09:25:18Z</time>
      </trkpt>
      <trkpt lat="48.10185" lon="6.63677">
        <ele>605.8</ele>
        <time>2023-09-03T09:25:19Z</time>
      </trkpt>
      <trkpt lat="48.10192" lon="6.63671">
        <ele>605.8</ele>
        <time>2023-09-03T09:25:20Z</time>
      </trkpt>
      <trkpt lat="48.10198" lon="6.63664">
        <ele>605.6</ele>
        <time>2023-09-03T09:25:21Z</time>
      </trkpt>
      <trkpt lat="48.102" lon="6.63658">
        <ele>605.4</ele>
        <time>2023-09-03T09:25:22Z</time>
      </trkpt>
      <trkpt lat="48.10204" lon="6.63652">
        <ele>604.2</ele>
        <time>2023-09-03T09:25:23Z</time>
      </trkpt>
      <trkpt lat="48.10209" lon="6.63648">
        <ele>603</ele>
        <time>2023-09-03T09:25:24Z</time>
      </trkpt>
      <trkpt lat="48.10214" lon="6.63646">
        <ele>602.2</ele>
        <time>2023-09-03T09:25:25Z</time>
      </trkpt>
      <trkpt lat="48.10219" lon="6.63644">
        <ele>601.4</ele>
        <time>2023-09-03T09:25:26Z</time>
      </trkpt>
      <trkpt lat="48.10225" lon="6.63644">
        <ele>601.2</ele>
        <time>2023-09-03T09:25:27Z</time>
      </trkpt>
      <trkpt lat="48.10231" lon="6.63644">
        <ele>600.8</ele>
        <time>2023-09-03T09:25:28Z</time>
      </trkpt>
      <trkpt lat="48.10236" lon="6.63646">
        <ele>600.8</ele>
        <time>2023-09-03T09:25:29Z</time>
      </trkpt>
      <trkpt lat="48.10242" lon="6.63646">
        <ele>600.8</ele>
        <time>2023-09-03T09:25:30Z</time>
      </trkpt>
      <trkpt lat="48.10246" lon="6.63646">
        <ele>600.4</ele>
        <time>2023-09-03T09:25:31Z</time>
      </trkpt>
      <trkpt lat="48.1025" lon="6.63648">
        <ele>600.2</ele>
        <time>2023-09-03T09:25:32Z</time>
      </trkpt>
      <trkpt lat="48.10254" lon="6.63649">
        <ele>600</ele>
        <time>2023-09-03T09:25:33Z</time>
      </trkpt>
      <trkpt lat="48.10258" lon="6.63651">
        <ele>599.8</ele>
        <time>2023-09-03T09:25:34Z</time>
      </trkpt>
      <trkpt lat="48.10261" lon="6.63652">
        <ele>599.6</ele>
        <time>2023-09-03T09:25:35Z</time>
      </trkpt>
      <trkpt lat="48.10264" lon="6.63653">
        <ele>599.6</ele>
        <time>2023-09-03T09:25:36Z</time>
      </trkpt>
      <trkpt lat="48.10265" lon="6.63656">
        <ele>599.6</ele>
        <time>2023-09-03T09:25:37Z</time>
      </trkpt>
      <trkpt lat="48.10268" lon="6.63657">
        <ele>599.8</ele>
        <time>2023-09-03T09:25:38Z</time>
      </trkpt>
      <trkpt lat="48.1027" lon="6.63657">
        <ele>600.2</ele>
        <time>2023-09-03T09:25:39Z</time>
      </trkpt>
      <trkpt lat="48.10275" lon="6.63657">
        <ele>600.6</ele>
        <time>2023-09-03T09:25:40Z</time>
      </trkpt>
      <trkpt lat="48.1028" lon="6.63654">
        <ele>601</ele>
        <time>2023-09-03T09:25:41Z</time>
      </trkpt>
      <trkpt lat="48.10284" lon="6.63652">
        <ele>601</ele>
        <time>2023-09-03T09:25:42Z</time>
      </trkpt>
      <trkpt lat="48.10288" lon="6.63651">
        <ele>601.4</ele>
        <time>2023-09-03T09:25:43Z</time>
      </trkpt>
      <trkpt lat="48.10294" lon="6.63649">
        <ele>601.6</ele>
        <time>2023-09-03T09:25:44Z</time>
      </trkpt>
      <trkpt lat="48.10299" lon="6.63648">
        <ele>602</ele>
        <time>2023-09-03T09:25:45Z</time>
      </trkpt>
      <trkpt lat="48.10305" lon="6.63647">
        <ele>602</ele>
        <time>2023-09-03T09:25:46Z</time>
      </trkpt>
      <trkpt lat="48.10312" lon="6.63644">
        <ele>602.2</ele>
        <time>2023-09-03T09:25:47Z</time>
      </trkpt>
      <trkpt lat="48.10318" lon="6.63644">
        <ele>602</ele>
        <time>2023-09-03T09:25:48Z</time>
      </trkpt>
      <trkpt lat="48.10322" lon="6.63649">
        <ele>602</ele>
        <time>2023-09-03T09:25:49Z</time>
      </trkpt>
      <trkpt lat="48.10327" lon="6.63651">
        <ele>602</ele>
        <time>2023-09-03T09:25:50Z</time>
      </trkpt>
      <trkpt lat="48.10334" lon="6.63651">
        <ele>601.8</ele>
        <time>2023-09-03T09:25:51Z</time>
      </trkpt>
      <trkpt lat="48.10339" lon="6.63651">
        <ele>601.6</ele>
        <time>2023-09-03T09:25:52Z</time>
      </trkpt>
      <trkpt lat="48.10343" lon="6.6365">
        <ele>601.6</ele>
        <time>2023-09-03T09:25:53Z</time>
      </trkpt>
      <trkpt lat="48.10348" lon="6.63651">
        <ele>601.6</ele>
        <time>2023-09-03T09:25:54Z</time>
      </trkpt>
      <trkpt lat="48.1035" lon="6.63652">
        <ele>601.6</ele>
        <time>2023-09-03T09:25:55Z</time>
      </trkpt>
      <trkpt lat="48.10353" lon="6.63654">
        <ele>601.6</ele>
        <time>2023-09-03T09:25:56Z</time>
      </trkpt>
      <trkpt lat="48.10355" lon="6.63656">
        <ele>601.6</ele>
        <time>2023-09-03T09:25:57Z</time>
      </trkpt>
      <trkpt lat="48.10355" lon="6.63656">
        <ele>601.8</ele>
        <time>2023-09-03T09:25:58Z</time>
      </trkpt>
      <trkpt lat="48.10357" lon="6.63657">
        <ele>602</ele>
        <time>2023-09-03T09:25:59Z</time>
      </trkpt>
      <trkpt lat="48.10361" lon="6.63658">
        <ele>602</ele>
        <time>2023-09-03T09:26:00Z</time>
      </trkpt>
      <trkpt lat="48.10364" lon="6.63659">
        <ele>602.2</ele>
        <time>2023-09-03T09:26:01Z</time>
      </trkpt>
      <trkpt lat="48.10367" lon="6.63661">
        <ele>602.2</ele>
        <time>2023-09-03T09:26:02Z</time>
      </trkpt>
      <trkpt lat="48.10372" lon="6.6366">
        <ele>602.2</ele>
        <time>2023-09-03T09:26:03Z</time>
      </trkpt>
      <trkpt lat="48.10377" lon="6.6366">
        <ele>602.2</ele>
        <time>2023-09-03T09:26:04Z</time>
      </trkpt>
      <trkpt lat="48.10384" lon="6.63659">
        <ele>602.2</ele>
        <time>2023-09-03T09:26:05Z</time>
      </trkpt>
      <trkpt lat="48.1039" lon="6.63659">
        <ele>602.2</ele>
        <time>2023-09-03T09:26:06Z</time>
      </trkpt>
      <trkpt lat="48.10395" lon="6.63658">
        <ele>602.2</ele>
        <time>2023-09-03T09:26:07Z</time>
      </trkpt>
      <trkpt lat="48.10398" lon="6.63656">
        <ele>602.2</ele>
        <time>2023-09-03T09:26:08Z</time>
      </trkpt>
      <trkpt lat="48.10402" lon="6.63655">
        <ele>602.2</ele>
        <time>2023-09-03T09:26:09Z</time>
      </trkpt>
      <trkpt lat="48.10407" lon="6.63654">
        <ele>602.2</ele>
        <time>2023-09-03T09:26:10Z</time>
      </trkpt>
      <trkpt lat="48.10413" lon="6.63652">
        <ele>602.2</ele>
        <time>2023-09-03T09:26:11Z</time>
      </trkpt>
      <trkpt lat="48.10421" lon="6.63648">
        <ele>602</ele>
        <time>2023-09-03T09:26:12Z</time>
      </trkpt>
      <trkpt lat="48.10427" lon="6.63645">
        <ele>601.8</ele>
        <time>2023-09-03T09:26:13Z</time>
      </trkpt>
      <trkpt lat="48.10433" lon="6.63641">
        <ele>601.2</ele>
        <time>2023-09-03T09:26:14Z</time>
      </trkpt>
      <trkpt lat="48.10439" lon="6.63636">
        <ele>601</ele>
        <time>2023-09-03T09:26:15Z</time>
      </trkpt>
      <trkpt lat="48.10444" lon="6.63631">
        <ele>600.6</ele>
        <time>2023-09-03T09:26:16Z</time>
      </trkpt>
      <trkpt lat="48.10448" lon="6.63627">
        <ele>600.4</ele>
        <time>2023-09-03T09:26:17Z</time>
      </trkpt>
      <trkpt lat="48.10454" lon="6.63622">
        <ele>599.8</ele>
        <time>2023-09-03T09:26:18Z</time>
      </trkpt>
      <trkpt lat="48.10458" lon="6.63618">
        <ele>599.4</ele>
        <time>2023-09-03T09:26:19Z</time>
      </trkpt>
      <trkpt lat="48.10462" lon="6.63615">
        <ele>598.6</ele>
        <time>2023-09-03T09:26:20Z</time>
      </trkpt>
      <trkpt lat="48.10465" lon="6.63615">
        <ele>598.4</ele>
        <time>2023-09-03T09:26:21Z</time>
      </trkpt>
      <trkpt lat="48.10467" lon="6.63615">
        <ele>598</ele>
        <time>2023-09-03T09:26:22Z</time>
      </trkpt>
      <trkpt lat="48.10471" lon="6.63614">
        <ele>596.8</ele>
        <time>2023-09-03T09:26:23Z</time>
      </trkpt>
      <trkpt lat="48.10475" lon="6.63611">
        <ele>596.2</ele>
        <time>2023-09-03T09:26:24Z</time>
      </trkpt>
      <trkpt lat="48.10479" lon="6.63609">
        <ele>594.6</ele>
        <time>2023-09-03T09:26:25Z</time>
      </trkpt>
      <trkpt lat="48.10484" lon="6.63608">
        <ele>594.2</ele>
        <time>2023-09-03T09:26:26Z</time>
      </trkpt>
      <trkpt lat="48.10488" lon="6.63607">
        <ele>593</ele>
        <time>2023-09-03T09:26:27Z</time>
      </trkpt>
      <trkpt lat="48.10494" lon="6.63605">
        <ele>592</ele>
        <time>2023-09-03T09:26:28Z</time>
      </trkpt>
      <trkpt lat="48.10499" lon="6.63604">
        <ele>590.2</ele>
        <time>2023-09-03T09:26:29Z</time>
      </trkpt>
      <trkpt lat="48.10503" lon="6.63603">
        <ele>589.6</ele>
        <time>2023-09-03T09:26:30Z</time>
      </trkpt>
      <trkpt lat="48.10506" lon="6.63602">
        <ele>588.6</ele>
        <time>2023-09-03T09:26:31Z</time>
      </trkpt>
      <trkpt lat="48.10509" lon="6.63602">
        <ele>587.8</ele>
        <time>2023-09-03T09:26:32Z</time>
      </trkpt>
      <trkpt lat="48.10514" lon="6.63601">
        <ele>587</ele>
        <time>2023-09-03T09:26:33Z</time>
      </trkpt>
      <trkpt lat="48.10519" lon="6.63602">
        <ele>586</ele>
        <time>2023-09-03T09:26:34Z</time>
      </trkpt>
      <trkpt lat="48.10524" lon="6.63604">
        <ele>585.6</ele>
        <time>2023-09-03T09:26:35Z</time>
      </trkpt>
      <trkpt lat="48.10528" lon="6.63605">
        <ele>584.8</ele>
        <time>2023-09-03T09:26:36Z</time>
      </trkpt>
      <trkpt lat="48.10532" lon="6.63605">
        <ele>584.4</ele>
        <time>2023-09-03T09:26:37Z</time>
      </trkpt>
      <trkpt lat="48.10537" lon="6.63607">
        <ele>583.2</ele>
        <time>2023-09-03T09:26:38Z</time>
      </trkpt>
      <trkpt lat="48.10541" lon="6.63609">
        <ele>582.6</ele>
        <time>2023-09-03T09:26:39Z</time>
      </trkpt>
      <trkpt lat="48.10545" lon="6.63609">
        <ele>581.4</ele>
        <time>2023-09-03T09:26:40Z</time>
      </trkpt>
      <trkpt lat="48.10546" lon="6.63609">
        <ele>581</ele>
        <time>2023-09-03T09:26:41Z</time>
      </trkpt>
      <trkpt lat="48.10546" lon="6.63609">
        <ele>580.6</ele>
        <time>2023-09-03T09:26:42Z</time>
      </trkpt>
      <trkpt lat="48.10548" lon="6.63611">
        <ele>580.6</ele>
        <time>2023-09-03T09:26:43Z</time>
      </trkpt>
      <trkpt lat="48.10551" lon="6.63614">
        <ele>580.4</ele>
        <time>2023-09-03T09:26:44Z</time>
      </trkpt>
      <trkpt lat="48.10553" lon="6.63619">
        <ele>580.4</ele>
        <time>2023-09-03T09:26:45Z</time>
      </trkpt>
      <trkpt lat="48.10556" lon="6.63622">
        <ele>580.2</ele>
        <time>2023-09-03T09:26:46Z</time>
      </trkpt>
      <trkpt lat="48.10558" lon="6.63624">
        <ele>580.2</ele>
        <time>2023-09-03T09:26:47Z</time>
      </trkpt>
      <trkpt lat="48.10559" lon="6.63625">
        <ele>580.2</ele>
        <time>2023-09-03T09:26:48Z</time>
      </trkpt>
      <trkpt lat="48.1056" lon="6.63627">
        <ele>580.4</ele>
        <time>2023-09-03T09:26:49Z</time>
      </trkpt>
      <trkpt lat="48.1056" lon="6.63628">
        <ele>580.4</ele>
        <time>2023-09-03T09:26:50Z</time>
      </trkpt>
      <trkpt lat="48.10561" lon="6.6363">
        <ele>580.6</ele>
        <time>2023-09-03T09:26:51Z</time>
      </trkpt>
      <trkpt lat="48.10562" lon="6.6363">
        <ele>580.8</ele>
        <time>2023-09-03T09:26:52Z</time>
      </trkpt>
      <trkpt lat="48.10562" lon="6.63631">
        <ele>580.8</ele>
        <time>2023-09-03T09:26:53Z</time>
      </trkpt>
      <trkpt lat="48.10562" lon="6.63631">
        <ele>581.2</ele>
        <time>2023-09-03T09:26:54Z</time>
      </trkpt>
      <trkpt lat="48.10562" lon="6.63631">
        <ele>581.4</ele>
        <time>2023-09-03T09:26:55Z</time>
      </trkpt>
      <trkpt lat="48.10562" lon="6.63631">
        <ele>581.6</ele>
        <time>2023-09-03T09:26:56Z</time>
      </trkpt>
      <trkpt lat="48.10562" lon="6.63632">
        <ele>581.8</ele>
        <time>2023-09-03T09:26:57Z</time>
      </trkpt>
      <trkpt lat="48.10564" lon="6.63633">
        <ele>581.8</ele>
        <time>2023-09-03T09:26:58Z</time>
      </trkpt>
      <trkpt lat="48.10565" lon="6.63634">
        <ele>581.8</ele>
        <time>2023-09-03T09:26:59Z</time>
      </trkpt>
      <trkpt lat="48.10565" lon="6.63634">
        <ele>582</ele>
        <time>2023-09-03T09:27:00Z</time>
      </trkpt>
      <trkpt lat="48.10566" lon="6.63634">
        <ele>582</ele>
        <time>2023-09-03T09:27:01Z</time>
      </trkpt>
      <trkpt lat="48.10567" lon="6.63635">
        <ele>582.2</ele>
        <time>2023-09-03T09:27:02Z</time>
      </trkpt>
      <trkpt lat="48.10568" lon="6.63636">
        <ele>582.4</ele>
        <time>2023-09-03T09:27:03Z</time>
      </trkpt>
      <trkpt lat="48.10569" lon="6.63637">
        <ele>582.6</ele>
        <time>2023-09-03T09:27:04Z</time>
      </trkpt>
      <trkpt lat="48.1057" lon="6.63638">
        <ele>582.8</ele>
        <time>2023-09-03T09:27:05Z</time>
      </trkpt>
      <trkpt lat="48.1057" lon="6.63638">
        <ele>583.2</ele>
        <time>2023-09-03T09:27:06Z</time>
      </trkpt>
      <trkpt lat="48.1057" lon="6.63638">
        <ele>583.2</ele>
        <time>2023-09-03T09:27:07Z</time>
      </trkpt>
      <trkpt lat="48.1057" lon="6.63639">
        <ele>583.6</ele>
        <time>2023-09-03T09:27:08Z</time>
      </trkpt>
      <trkpt lat="48.10571" lon="6.63641">
        <ele>583.8</ele>
        <time>2023-09-03T09:27:09Z</time>
      </trkpt>
      <trkpt lat="48.10572" lon="6.63643">
        <ele>584</ele>
        <time>2023-09-03T09:27:10Z</time>
      </trkpt>
      <trkpt lat="48.10574" lon="6.63644">
        <ele>584.2</ele>
        <time>2023-09-03T09:27:11Z</time>
      </trkpt>
      <trkpt lat="48.10575" lon="6.63646">
        <ele>584.4</ele>
        <time>2023-09-03T09:27:12Z</time>
      </trkpt>
      <trkpt lat="48.10576" lon="6.63646">
        <ele>584.6</ele>
        <time>2023-09-03T09:27:13Z</time>
      </trkpt>
      <trkpt lat="48.10577" lon="6.63648">
        <ele>584.8</ele>
        <time>2023-09-03T09:27:14Z</time>
      </trkpt>
      <trkpt lat="48.10577" lon="6.63648">
        <ele>585</ele>
        <time>2023-09-03T09:27:15Z</time>
      </trkpt>
      <trkpt lat="48.10577" lon="6.63648">
        <ele>585.2</ele>
        <time>2023-09-03T09:27:16Z</time>
      </trkpt>
      <trkpt lat="48.10577" lon="6.63648">
        <ele>585.4</ele>
        <time>2023-09-03T09:27:17Z</time>
      </trkpt>
      <trkpt lat="48.10577" lon="6.63648">
        <ele>585.6</ele>
        <time>2023-09-03T09:27:18Z</time>
      </trkpt>
      <trkpt lat="48.10577" lon="6.63648">
        <ele>585.6</ele>
        <time>2023-09-03T09:27:19Z</time>
      </trkpt>
      <trkpt lat="48.10579" lon="6.6365">
        <ele>586</ele>
        <time>2023-09-03T09:27:20Z</time>
      </trkpt>
      <trkpt lat="48.10583" lon="6.63653">
        <ele>586.2</ele>
        <time>2023-09-03T09:27:21Z</time>
      </trkpt>
      <trkpt lat="48.10585" lon="6.63655">
        <ele>586.4</ele>
        <time>2023-09-03T09:27:22Z</time>
      </trkpt>
      <trkpt lat="48.10586" lon="6.63656">
        <ele>586.6</ele>
        <time>2023-09-03T09:27:23Z</time>
      </trkpt>
      <trkpt lat="48.10588" lon="6.63658">
        <ele>586.6</ele>
        <time>2023-09-03T09:27:24Z</time>
      </trkpt>
      <trkpt lat="48.10592" lon="6.63662">
        <ele>586.8</ele>
        <time>2023-09-03T09:27:25Z</time>
      </trkpt>
      <trkpt lat="48.10595" lon="6.63665">
        <ele>587.2</ele>
        <time>2023-09-03T09:27:26Z</time>
      </trkpt>
      <trkpt lat="48.10598" lon="6.63668">
        <ele>587.4</ele>
        <time>2023-09-03T09:27:27Z</time>
      </trkpt>
      <trkpt lat="48.10601" lon="6.6367">
        <ele>587.6</ele>
        <time>2023-09-03T09:27:28Z</time>
      </trkpt>
      <trkpt lat="48.10602" lon="6.63672">
        <ele>587.8</ele>
        <time>2023-09-03T09:27:29Z</time>
      </trkpt>
      <trkpt lat="48.10603" lon="6.63673">
        <ele>588.2</ele>
        <time>2023-09-03T09:27:30Z</time>
      </trkpt>
      <trkpt lat="48.10604" lon="6.63674">
        <ele>588.6</ele>
        <time>2023-09-03T09:27:31Z</time>
      </trkpt>
      <trkpt lat="48.10606" lon="6.63677">
        <ele>588.8</ele>
        <time>2023-09-03T09:27:32Z</time>
      </trkpt>
      <trkpt lat="48.10609" lon="6.63681">
        <ele>589</ele>
        <time>2023-09-03T09:27:33Z</time>
      </trkpt>
      <trkpt lat="48.10609" lon="6.63681">
        <ele>589.2</ele>
        <time>2023-09-03T09:27:34Z</time>
      </trkpt>
      <trkpt lat="48.10612" lon="6.63681">
        <ele>589.4</ele>
        <time>2023-09-03T09:27:35Z</time>
      </trkpt>
      <trkpt lat="48.10615" lon="6.63681">
        <ele>589.4</ele>
        <time>2023-09-03T09:27:36Z</time>
      </trkpt>
      <trkpt lat="48.10618" lon="6.63681">
        <ele>589.6</ele>
        <time>2023-09-03T09:27:37Z</time>
      </trkpt>
      <trkpt lat="48.10619" lon="6.63679">
        <ele>589.6</ele>
        <time>2023-09-03T09:27:38Z</time>
      </trkpt>
      <trkpt lat="48.10622" lon="6.63678">
        <ele>590</ele>
        <time>2023-09-03T09:27:39Z</time>
      </trkpt>
      <trkpt lat="48.10624" lon="6.63677">
        <ele>590.2</ele>
        <time>2023-09-03T09:27:40Z</time>
      </trkpt>
      <trkpt lat="48.10624" lon="6.63676">
        <ele>590.6</ele>
        <time>2023-09-03T09:27:41Z</time>
      </trkpt>
      <trkpt lat="48.10624" lon="6.63676">
        <ele>590.8</ele>
        <time>2023-09-03T09:27:42Z</time>
      </trkpt>
      <trkpt lat="48.10624" lon="6.63676">
        <ele>591.2</ele>
        <time>2023-09-03T09:27:43Z</time>
      </trkpt>
      <trkpt lat="48.10624" lon="6.63676">
        <ele>591.4</ele>
        <time>2023-09-03T09:27:44Z</time>
      </trkpt>
      <trkpt lat="48.10624" lon="6.63676">
        <ele>591.6</ele>
        <time>2023-09-03T09:27:45Z</time>
      </trkpt>
      <trkpt lat="48.10625" lon="6.63676">
        <ele>591.8</ele>
        <time>2023-09-03T09:27:46Z</time>
      </trkpt>
      <trkpt lat="48.10625" lon="6.63674">
        <ele>592</ele>
        <time>2023-09-03T09:27:47Z</time>
      </trkpt>
      <trkpt lat="48.10625" lon="6.63674">
        <ele>592.2</ele>
        <time>2023-09-03T09:27:48Z</time>
      </trkpt>
      <trkpt lat="48.10625" lon="6.63674">
        <ele>592.4</ele>
        <time>2023-09-03T09:27:49Z</time>
      </trkpt>
      <trkpt lat="48.10625" lon="6.63674">
        <ele>592.6</ele>
        <time>2023-09-03T09:27:50Z</time>
      </trkpt>
      <trkpt lat="48.10625" lon="6.63674">
        <ele>592.8</ele>
        <time>2023-09-03T09:27:51Z</time>
      </trkpt>
      <trkpt lat="48.10625" lon="6.63674">
        <ele>593.4</ele>
        <time>2023-09-03T09:27:52Z</time>
      </trkpt>
      <trkpt lat="48.10625" lon="6.63674">
        <ele>593.4</ele>
        <time>2023-09-03T09:27:53Z</time>
      </trkpt>
      <trkpt lat="48.10625" lon="6.63674">
        <ele>593.6</ele>
        <time>2023-09-03T09:27:54Z</time>
      </trkpt>
      <trkpt lat="48.10625" lon="6.63674">
        <ele>593.8</ele>
        <time>2023-09-03T09:27:55Z</time>
      </trkpt>
      <trkpt lat="48.10625" lon="6.63674">
        <ele>594</ele>
        <time>2023-09-03T09:27:56Z</time>
      </trkpt>
      <trkpt lat="48.10625" lon="6.63674">
        <ele>594.2</ele>
        <time>2023-09-03T09:27:57Z</time>
      </trkpt>
      <trkpt lat="48.10625" lon="6.63674">
        <ele>594.2</ele>
        <time>2023-09-03T09:27:58Z</time>
      </trkpt>
      <trkpt lat="48.10625" lon="6.63674">
        <ele>594.4</ele>
        <time>2023-09-03T09:27:59Z</time>
      </trkpt>
      <trkpt lat="48.10625" lon="6.63674">
        <ele>594.4</ele>
        <time>2023-09-03T09:28:00Z</time>
      </trkpt>
      <trkpt lat="48.10626" lon="6.63672">
        <ele>594.6</ele>
        <time>2023-09-03T09:28:01Z</time>
      </trkpt>
      <trkpt lat="48.10626" lon="6.63672">
        <ele>594.8</ele>
        <time>2023-09-03T09:28:02Z</time>
      </trkpt>
      <trkpt lat="48.10626" lon="6.63672">
        <ele>594.8</ele>
        <time>2023-09-03T09:28:03Z</time>
      </trkpt>
      <trkpt lat="48.10626" lon="6.63672">
        <ele>595</ele>
        <time>2023-09-03T09:28:04Z</time>
      </trkpt>
      <trkpt lat="48.10626" lon="6.63669">
        <ele>595.2</ele>
        <time>2023-09-03T09:28:05Z</time>
      </trkpt>
      <trkpt lat="48.10627" lon="6.63667">
        <ele>595.2</ele>
        <time>2023-09-03T09:28:06Z</time>
      </trkpt>
      <trkpt lat="48.10627" lon="6.63666">
        <ele>595.4</ele>
        <time>2023-09-03T09:28:07Z</time>
      </trkpt>
      <trkpt lat="48.10627" lon="6.63666">
        <ele>595.6</ele>
        <time>2023-09-03T09:28:08Z</time>
      </trkpt>
      <trkpt lat="48.10627" lon="6.63666">
        <ele>595.8</ele>
        <time>2023-09-03T09:28:09Z</time>
      </trkpt>
      <trkpt lat="48.10627" lon="6.63666">
        <ele>596</ele>
        <time>2023-09-03T09:28:10Z</time>
      </trkpt>
      <trkpt lat="48.10627" lon="6.63666">
        <ele>596</ele>
        <time>2023-09-03T09:28:11Z</time>
      </trkpt>
      <trkpt lat="48.10627" lon="6.63665">
        <ele>596.2</ele>
        <time>2023-09-03T09:28:12Z</time>
      </trkpt>
      <trkpt lat="48.10627" lon="6.63662">
        <ele>596.2</ele>
        <time>2023-09-03T09:28:13Z</time>
      </trkpt>
      <trkpt lat="48.10627" lon="6.6366">
        <ele>596.8</ele>
        <time>2023-09-03T09:28:14Z</time>
      </trkpt>
      <trkpt lat="48.10627" lon="6.6366">
        <ele>597</ele>
        <time>2023-09-03T09:28:15Z</time>
      </trkpt>
      <trkpt lat="48.10627" lon="6.6366">
        <ele>597.2</ele>
        <time>2023-09-03T09:28:16Z</time>
      </trkpt>
      <trkpt lat="48.10627" lon="6.6366">
        <ele>597.4</ele>
        <time>2023-09-03T09:28:17Z</time>
      </trkpt>
      <trkpt lat="48.10627" lon="6.6366">
        <ele>597.4</ele>
        <time>2023-09-03T09:28:18Z</time>
      </trkpt>
      <trkpt lat="48.10627" lon="6.6366">
        <ele>597.6</ele>
        <time>2023-09-03T09:28:19Z</time>
      </trkpt>
      <trkpt lat="48.10627" lon="6.63658">
        <ele>597.6</ele>
        <time>2023-09-03T09:28:20Z</time>
      </trkpt>
      <trkpt lat="48.10628" lon="6.63655">
        <ele>597.8</ele>
        <time>2023-09-03T09:28:21Z</time>
      </trkpt>
      <trkpt lat="48.10628" lon="6.63653">
        <ele>598</ele>
        <time>2023-09-03T09:28:22Z</time>
      </trkpt>
      <trkpt lat="48.10628" lon="6.63651">
        <ele>598</ele>
        <time>2023-09-03T09:28:23Z</time>
      </trkpt>
      <trkpt lat="48.10629" lon="6.6365">
        <ele>598.2</ele>
        <time>2023-09-03T09:28:24Z</time>
      </trkpt>
      <trkpt lat="48.10629" lon="6.63647">
        <ele>598.6</ele>
        <time>2023-09-03T09:28:25Z</time>
      </trkpt>
      <trkpt lat="48.1063" lon="6.63642">
        <ele>598.6</ele>
        <time>2023-09-03T09:28:26Z</time>
      </trkpt>
      <trkpt lat="48.1063" lon="6.63637">
        <ele>599</ele>
        <time>2023-09-03T09:28:27Z</time>
      </trkpt>
      <trkpt lat="48.10631" lon="6.63635">
        <ele>599.2</ele>
        <time>2023-09-03T09:28:28Z</time>
      </trkpt>
      <trkpt lat="48.10631" lon="6.63631">
        <ele>599.4</ele>
        <time>2023-09-03T09:28:29Z</time>
      </trkpt>
      <trkpt lat="48.10631" lon="6.63631">
        <ele>599.8</ele>
        <time>2023-09-03T09:28:30Z</time>
      </trkpt>
      <trkpt lat="48.10631" lon="6.63629">
        <ele>600</ele>
        <time>2023-09-03T09:28:31Z</time>
      </trkpt>
      <trkpt lat="48.1063" lon="6.63626">
        <ele>600.2</ele>
        <time>2023-09-03T09:28:32Z</time>
      </trkpt>
      <trkpt lat="48.1063" lon="6.63622">
        <ele>600.4</ele>
        <time>2023-09-03T09:28:33Z</time>
      </trkpt>
      <trkpt lat="48.10632" lon="6.63619">
        <ele>600.6</ele>
        <time>2023-09-03T09:28:34Z</time>
      </trkpt>
      <trkpt lat="48.10632" lon="6.63618">
        <ele>600.6</ele>
        <time>2023-09-03T09:28:35Z</time>
      </trkpt>
      <trkpt lat="48.10635" lon="6.63611">
        <ele>600.8</ele>
        <time>2023-09-03T09:30:21Z</time>
      </trkpt>
      <trkpt lat="48.10635" lon="6.63611">
        <ele>600.8</ele>
        <time>2023-09-03T09:30:22Z</time>
      </trkpt>
      <trkpt lat="48.10635" lon="6.63611">
        <ele>600.8</ele>
        <time>2023-09-03T09:30:23Z</time>
      </trkpt>
      <trkpt lat="48.10635" lon="6.6361">
        <ele>601</ele>
        <time>2023-09-03T09:30:24Z</time>
      </trkpt>
      <trkpt lat="48.10635" lon="6.6361">
        <ele>601</ele>
        <time>2023-09-03T09:30:25Z</time>
      </trkpt>
      <trkpt lat="48.10635" lon="6.63609">
        <ele>601.2</ele>
        <time>2023-09-03T09:30:26Z</time>
      </trkpt>
      <trkpt lat="48.10635" lon="6.63606">
        <ele>601.2</ele>
        <time>2023-09-03T09:30:27Z</time>
      </trkpt>
      <trkpt lat="48.10635" lon="6.63603">
        <ele>601.2</ele>
        <time>2023-09-03T09:30:28Z</time>
      </trkpt>
      <trkpt lat="48.10635" lon="6.636">
        <ele>601.4</ele>
        <time>2023-09-03T09:30:29Z</time>
      </trkpt>
      <trkpt lat="48.10636" lon="6.63596">
        <ele>601.4</ele>
        <time>2023-09-03T09:30:30Z</time>
      </trkpt>
      <trkpt lat="48.10636" lon="6.63591">
        <ele>601.4</ele>
        <time>2023-09-03T09:30:31Z</time>
      </trkpt>
      <trkpt lat="48.10636" lon="6.63587">
        <ele>601.6</ele>
        <time>2023-09-03T09:30:32Z</time>
      </trkpt>
      <trkpt lat="48.10637" lon="6.63585">
        <ele>601.6</ele>
        <time>2023-09-03T09:30:33Z</time>
      </trkpt>
      <trkpt lat="48.10636" lon="6.63582">
        <ele>601.6</ele>
        <time>2023-09-03T09:30:34Z</time>
      </trkpt>
      <trkpt lat="48.10636" lon="6.63579">
        <ele>601.6</ele>
        <time>2023-09-03T09:30:35Z</time>
      </trkpt>
      <trkpt lat="48.10636" lon="6.63578">
        <ele>601.8</ele>
        <time>2023-09-03T09:30:36Z</time>
      </trkpt>
      <trkpt lat="48.10636" lon="6.63577">
        <ele>601.8</ele>
        <time>2023-09-03T09:30:37Z</time>
      </trkpt>
      <trkpt lat="48.10636" lon="6.63577">
        <ele>601.8</ele>
        <time>2023-09-03T09:30:38Z</time>
      </trkpt>
      <trkpt lat="48.10636" lon="6.63576">
        <ele>601.8</ele>
        <time>2023-09-03T09:30:39Z</time>
      </trkpt>
      <trkpt lat="48.10636" lon="6.63576">
        <ele>601.8</ele>
        <time>2023-09-03T09:30:40Z</time>
      </trkpt>
      <trkpt lat="48.10636" lon="6.63572">
        <ele>601.8</ele>
        <time>2023-09-03T09:30:41Z</time>
      </trkpt>
      <trkpt lat="48.10636" lon="6.63566">
        <ele>602</ele>
        <time>2023-09-03T09:30:42Z</time>
      </trkpt>
      <trkpt lat="48.10636" lon="6.6356">
        <ele>602</ele>
        <time>2023-09-03T09:30:43Z</time>
      </trkpt>
      <trkpt lat="48.10636" lon="6.63559">
        <ele>602.2</ele>
        <time>2023-09-03T09:30:44Z</time>
      </trkpt>
      <trkpt lat="48.10636" lon="6.63559">
        <ele>602.2</ele>
        <time>2023-09-03T09:30:45Z</time>
      </trkpt>
      <trkpt lat="48.10635" lon="6.63557">
        <ele>602.2</ele>
        <time>2023-09-03T09:30:46Z</time>
      </trkpt>
      <trkpt lat="48.10635" lon="6.63554">
        <ele>602.4</ele>
        <time>2023-09-03T09:30:47Z</time>
      </trkpt>
      <trkpt lat="48.10635" lon="6.63554">
        <ele>602.4</ele>
        <time>2023-09-03T09:30:48Z</time>
      </trkpt>
      <trkpt lat="48.10635" lon="6.63554">
        <ele>602.6</ele>
        <time>2023-09-03T09:30:49Z</time>
      </trkpt>
      <trkpt lat="48.10635" lon="6.63554">
        <ele>602.6</ele>
        <time>2023-09-03T09:30:50Z</time>
      </trkpt>
      <trkpt lat="48.10634" lon="6.63549">
        <ele>602.8</ele>
        <time>2023-09-03T09:30:51Z</time>
      </trkpt>
      <trkpt lat="48.10634" lon="6.63545">
        <ele>602.8</ele>
        <time>2023-09-03T09:30:52Z</time>
      </trkpt>
      <trkpt lat="48.10632" lon="6.6354">
        <ele>603</ele>
        <time>2023-09-03T09:30:53Z</time>
      </trkpt>
      <trkpt lat="48.10632" lon="6.63539">
        <ele>603</ele>
        <time>2023-09-03T09:30:54Z</time>
      </trkpt>
      <trkpt lat="48.10632" lon="6.63539">
        <ele>603.2</ele>
        <time>2023-09-03T09:30:55Z</time>
      </trkpt>
      <trkpt lat="48.10632" lon="6.63539">
        <ele>603.4</ele>
        <time>2023-09-03T09:30:56Z</time>
      </trkpt>
      <trkpt lat="48.10632" lon="6.63539">
        <ele>603.4</ele>
        <time>2023-09-03T09:30:58Z</time>
      </trkpt>
      <trkpt lat="48.10632" lon="6.63539">
        <ele>603.4</ele>
        <time>2023-09-03T09:30:59Z</time>
      </trkpt>
      <trkpt lat="48.10632" lon="6.63539">
        <ele>603.6</ele>
        <time>2023-09-03T09:31:00Z</time>
      </trkpt>
      <trkpt lat="48.1063" lon="6.63536">
        <ele>603.6</ele>
        <time>2023-09-03T09:31:01Z</time>
      </trkpt>
      <trkpt lat="48.10627" lon="6.6353">
        <ele>603.8</ele>
        <time>2023-09-03T09:31:02Z</time>
      </trkpt>
      <trkpt lat="48.10625" lon="6.63523">
        <ele>604</ele>
        <time>2023-09-03T09:31:03Z</time>
      </trkpt>
      <trkpt lat="48.10625" lon="6.63519">
        <ele>603.8</ele>
        <time>2023-09-03T09:31:04Z</time>
      </trkpt>
      <trkpt lat="48.10625" lon="6.63519">
        <ele>603.8</ele>
        <time>2023-09-03T09:31:05Z</time>
      </trkpt>
      <trkpt lat="48.10625" lon="6.63515">
        <ele>603.8</ele>
        <time>2023-09-03T09:31:06Z</time>
      </trkpt>
      <trkpt lat="48.10626" lon="6.6351">
        <ele>603.8</ele>
        <time>2023-09-03T09:31:07Z</time>
      </trkpt>
      <trkpt lat="48.10626" lon="6.63506">
        <ele>604</ele>
        <time>2023-09-03T09:31:08Z</time>
      </trkpt>
      <trkpt lat="48.10626" lon="6.63502">
        <ele>604</ele>
        <time>2023-09-03T09:31:09Z</time>
      </trkpt>
      <trkpt lat="48.10626" lon="6.63496">
        <ele>604</ele>
        <time>2023-09-03T09:31:10Z</time>
      </trkpt>
      <trkpt lat="48.10626" lon="6.63493">
        <ele>604</ele>
        <time>2023-09-03T09:31:11Z</time>
      </trkpt>
      <trkpt lat="48.10626" lon="6.6349">
        <ele>604</ele>
        <time>2023-09-03T09:31:12Z</time>
      </trkpt>
      <trkpt lat="48.10625" lon="6.63486">
        <ele>604</ele>
        <time>2023-09-03T09:31:13Z</time>
      </trkpt>
      <trkpt lat="48.10625" lon="6.63484">
        <ele>604</ele>
        <time>2023-09-03T09:31:14Z</time>
      </trkpt>
      <trkpt lat="48.10625" lon="6.6348">
        <ele>604.2</ele>
        <time>2023-09-03T09:31:15Z</time>
      </trkpt>
      <trkpt lat="48.10624" lon="6.63478">
        <ele>604.2</ele>
        <time>2023-09-03T09:31:16Z</time>
      </trkpt>
      <trkpt lat="48.10624" lon="6.63475">
        <ele>604.2</ele>
        <time>2023-09-03T09:31:17Z</time>
      </trkpt>
      <trkpt lat="48.10622" lon="6.63472">
        <ele>604.4</ele>
        <time>2023-09-03T09:31:18Z</time>
      </trkpt>
      <trkpt lat="48.10623" lon="6.6347">
        <ele>604.6</ele>
        <time>2023-09-03T09:31:19Z</time>
      </trkpt>
      <trkpt lat="48.10622" lon="6.63467">
        <ele>604.4</ele>
        <time>2023-09-03T09:31:20Z</time>
      </trkpt>
      <trkpt lat="48.10622" lon="6.63465">
        <ele>604.6</ele>
        <time>2023-09-03T09:31:21Z</time>
      </trkpt>
      <trkpt lat="48.10622" lon="6.63461">
        <ele>604.6</ele>
        <time>2023-09-03T09:31:22Z</time>
      </trkpt>
      <trkpt lat="48.10617" lon="6.63457">
        <ele>604.6</ele>
        <time>2023-09-03T09:31:23Z</time>
      </trkpt>
      <trkpt lat="48.1061" lon="6.63449">
        <ele>604.6</ele>
        <time>2023-09-03T09:31:24Z</time>
      </trkpt>
      <trkpt lat="48.10605" lon="6.6344">
        <ele>604.4</ele>
        <time>2023-09-03T09:31:25Z</time>
      </trkpt>
      <trkpt lat="48.10601" lon="6.63431">
        <ele>604</ele>
        <time>2023-09-03T09:31:26Z</time>
      </trkpt>
      <trkpt lat="48.10596" lon="6.63422">
        <ele>603.8</ele>
        <time>2023-09-03T09:31:27Z</time>
      </trkpt>
      <trkpt lat="48.10589" lon="6.63413">
        <ele>603.2</ele>
        <time>2023-09-03T09:31:28Z</time>
      </trkpt>
      <trkpt lat="48.10581" lon="6.63404">
        <ele>603</ele>
        <time>2023-09-03T09:31:29Z</time>
      </trkpt>
      <trkpt lat="48.10576" lon="6.63394">
        <ele>602.6</ele>
        <time>2023-09-03T09:31:30Z</time>
      </trkpt>
      <trkpt lat="48.10575" lon="6.63389">
        <ele>602.6</ele>
        <time>2023-09-03T09:31:31Z</time>
      </trkpt>
      <trkpt lat="48.10574" lon="6.63383">
        <ele>602.4</ele>
        <time>2023-09-03T09:31:32Z</time>
      </trkpt>
      <trkpt lat="48.10573" lon="6.63377">
        <ele>602.2</ele>
        <time>2023-09-03T09:31:33Z</time>
      </trkpt>
      <trkpt lat="48.10571" lon="6.6337">
        <ele>602</ele>
        <time>2023-09-03T09:31:34Z</time>
      </trkpt>
      <trkpt lat="48.10571" lon="6.63367">
        <ele>601.8</ele>
        <time>2023-09-03T09:31:35Z</time>
      </trkpt>
      <trkpt lat="48.10572" lon="6.63362">
        <ele>601.8</ele>
        <time>2023-09-03T09:31:36Z</time>
      </trkpt>
      <trkpt lat="48.10571" lon="6.63358">
        <ele>601.8</ele>
        <time>2023-09-03T09:31:37Z</time>
      </trkpt>
      <trkpt lat="48.1057" lon="6.63354">
        <ele>602</ele>
        <time>2023-09-03T09:31:38Z</time>
      </trkpt>
      <trkpt lat="48.10568" lon="6.63349">
        <ele>602</ele>
        <time>2023-09-03T09:31:39Z</time>
      </trkpt>
      <trkpt lat="48.10566" lon="6.63344">
        <ele>602</ele>
        <time>2023-09-03T09:31:40Z</time>
      </trkpt>
      <trkpt lat="48.10564" lon="6.63339">
        <ele>602</ele>
        <time>2023-09-03T09:31:41Z</time>
      </trkpt>
      <trkpt lat="48.10561" lon="6.63334">
        <ele>602</ele>
        <time>2023-09-03T09:31:42Z</time>
      </trkpt>
      <trkpt lat="48.1056" lon="6.6333">
        <ele>602</ele>
        <time>2023-09-03T09:31:43Z</time>
      </trkpt>
      <trkpt lat="48.10558" lon="6.63325">
        <ele>602</ele>
        <time>2023-09-03T09:31:44Z</time>
      </trkpt>
      <trkpt lat="48.10556" lon="6.6332">
        <ele>602</ele>
        <time>2023-09-03T09:31:45Z</time>
      </trkpt>
      <trkpt lat="48.10556" lon="6.63317">
        <ele>602.2</ele>
        <time>2023-09-03T09:31:46Z</time>
      </trkpt>
      <trkpt lat="48.10553" lon="6.63313">
        <ele>602.2</ele>
        <time>2023-09-03T09:31:47Z</time>
      </trkpt>
      <trkpt lat="48.10552" lon="6.63309">
        <ele>602.4</ele>
        <time>2023-09-03T09:31:48Z</time>
      </trkpt>
      <trkpt lat="48.1055" lon="6.63304">
        <ele>602.6</ele>
        <time>2023-09-03T09:31:49Z</time>
      </trkpt>
      <trkpt lat="48.10547" lon="6.633">
        <ele>602.8</ele>
        <time>2023-09-03T09:31:50Z</time>
      </trkpt>
      <trkpt lat="48.10543" lon="6.63294">
        <ele>603</ele>
        <time>2023-09-03T09:31:51Z</time>
      </trkpt>
      <trkpt lat="48.10538" lon="6.63288">
        <ele>603</ele>
        <time>2023-09-03T09:31:52Z</time>
      </trkpt>
      <trkpt lat="48.10533" lon="6.63282">
        <ele>603</ele>
        <time>2023-09-03T09:31:53Z</time>
      </trkpt>
      <trkpt lat="48.10529" lon="6.63278">
        <ele>603.4</ele>
        <time>2023-09-03T09:31:54Z</time>
      </trkpt>
      <trkpt lat="48.10526" lon="6.63273">
        <ele>603.6</ele>
        <time>2023-09-03T09:31:55Z</time>
      </trkpt>
      <trkpt lat="48.10524" lon="6.63268">
        <ele>603.6</ele>
        <time>2023-09-03T09:31:56Z</time>
      </trkpt>
      <trkpt lat="48.10522" lon="6.63263">
        <ele>603.8</ele>
        <time>2023-09-03T09:31:57Z</time>
      </trkpt>
      <trkpt lat="48.1052" lon="6.63258">
        <ele>603.8</ele>
        <time>2023-09-03T09:31:58Z</time>
      </trkpt>
      <trkpt lat="48.10518" lon="6.63254">
        <ele>604</ele>
        <time>2023-09-03T09:31:59Z</time>
      </trkpt>
      <trkpt lat="48.10516" lon="6.6325">
        <ele>604</ele>
        <time>2023-09-03T09:32:00Z</time>
      </trkpt>
      <trkpt lat="48.10513" lon="6.63245">
        <ele>604</ele>
        <time>2023-09-03T09:32:01Z</time>
      </trkpt>
      <trkpt lat="48.10511" lon="6.63242">
        <ele>604</ele>
        <time>2023-09-03T09:32:02Z</time>
      </trkpt>
      <trkpt lat="48.1051" lon="6.63238">
        <ele>604</ele>
        <time>2023-09-03T09:32:03Z</time>
      </trkpt>
      <trkpt lat="48.1051" lon="6.63235">
        <ele>604.2</ele>
        <time>2023-09-03T09:32:04Z</time>
      </trkpt>
      <trkpt lat="48.1051" lon="6.63232">
        <ele>604.4</ele>
        <time>2023-09-03T09:32:05Z</time>
      </trkpt>
      <trkpt lat="48.10509" lon="6.63227">
        <ele>604.4</ele>
        <time>2023-09-03T09:32:06Z</time>
      </trkpt>
      <trkpt lat="48.10506" lon="6.63222">
        <ele>604.6</ele>
        <time>2023-09-03T09:32:07Z</time>
      </trkpt>
      <trkpt lat="48.10503" lon="6.63217">
        <ele>604.8</ele>
        <time>2023-09-03T09:32:08Z</time>
      </trkpt>
      <trkpt lat="48.10501" lon="6.63212">
        <ele>604.8</ele>
        <time>2023-09-03T09:32:09Z</time>
      </trkpt>
      <trkpt lat="48.10499" lon="6.63208">
        <ele>605</ele>
        <time>2023-09-03T09:32:10Z</time>
      </trkpt>
      <trkpt lat="48.10498" lon="6.63204">
        <ele>605</ele>
        <time>2023-09-03T09:32:11Z</time>
      </trkpt>
      <trkpt lat="48.10496" lon="6.63201">
        <ele>605.2</ele>
        <time>2023-09-03T09:32:12Z</time>
      </trkpt>
      <trkpt lat="48.10493" lon="6.63196">
        <ele>605.2</ele>
        <time>2023-09-03T09:32:13Z</time>
      </trkpt>
      <trkpt lat="48.10493" lon="6.63191">
        <ele>605.2</ele>
        <time>2023-09-03T09:32:14Z</time>
      </trkpt>
      <trkpt lat="48.10493" lon="6.63187">
        <ele>605.4</ele>
        <time>2023-09-03T09:32:15Z</time>
      </trkpt>
      <trkpt lat="48.10492" lon="6.63183">
        <ele>605.4</ele>
        <time>2023-09-03T09:32:16Z</time>
      </trkpt>
      <trkpt lat="48.10492" lon="6.63179">
        <ele>605.4</ele>
        <time>2023-09-03T09:32:17Z</time>
      </trkpt>
      <trkpt lat="48.1049" lon="6.63174">
        <ele>605.8</ele>
        <time>2023-09-03T09:32:18Z</time>
      </trkpt>
      <trkpt lat="48.10488" lon="6.63171">
        <ele>605.6</ele>
        <time>2023-09-03T09:32:19Z</time>
      </trkpt>
      <trkpt lat="48.10486" lon="6.63166">
        <ele>605.6</ele>
        <time>2023-09-03T09:32:20Z</time>
      </trkpt>
      <trkpt lat="48.10483" lon="6.63161">
        <ele>605.6</ele>
        <time>2023-09-03T09:32:21Z</time>
      </trkpt>
      <trkpt lat="48.10479" lon="6.63156">
        <ele>605.6</ele>
        <time>2023-09-03T09:32:22Z</time>
      </trkpt>
      <trkpt lat="48.10478" lon="6.63153">
        <ele>605.8</ele>
        <time>2023-09-03T09:32:23Z</time>
      </trkpt>
      <trkpt lat="48.10478" lon="6.63149">
        <ele>605.8</ele>
        <time>2023-09-03T09:32:24Z</time>
      </trkpt>
      <trkpt lat="48.10477" lon="6.63144">
        <ele>605.8</ele>
        <time>2023-09-03T09:32:25Z</time>
      </trkpt>
      <trkpt lat="48.10477" lon="6.63139">
        <ele>605.8</ele>
        <time>2023-09-03T09:32:26Z</time>
      </trkpt>
      <trkpt lat="48.10475" lon="6.63134">
        <ele>605.8</ele>
        <time>2023-09-03T09:32:27Z</time>
      </trkpt>
      <trkpt lat="48.10473" lon="6.63129">
        <ele>605.8</ele>
        <time>2023-09-03T09:32:28Z</time>
      </trkpt>
      <trkpt lat="48.10471" lon="6.63125">
        <ele>606</ele>
        <time>2023-09-03T09:32:29Z</time>
      </trkpt>
      <trkpt lat="48.1047" lon="6.63122">
        <ele>606.2</ele>
        <time>2023-09-03T09:32:30Z</time>
      </trkpt>
      <trkpt lat="48.10468" lon="6.63118">
        <ele>606.2</ele>
        <time>2023-09-03T09:32:31Z</time>
      </trkpt>
      <trkpt lat="48.10465" lon="6.63114">
        <ele>606.4</ele>
        <time>2023-09-03T09:32:32Z</time>
      </trkpt>
      <trkpt lat="48.10463" lon="6.63109">
        <ele>606.6</ele>
        <time>2023-09-03T09:32:33Z</time>
      </trkpt>
      <trkpt lat="48.1046" lon="6.63103">
        <ele>606.4</ele>
        <time>2023-09-03T09:32:34Z</time>
      </trkpt>
      <trkpt lat="48.10455" lon="6.63098">
        <ele>606.6</ele>
        <time>2023-09-03T09:32:35Z</time>
      </trkpt>
      <trkpt lat="48.10447" lon="6.63092">
        <ele>606.8</ele>
        <time>2023-09-03T09:32:36Z</time>
      </trkpt>
      <trkpt lat="48.10446" lon="6.63088">
        <ele>606.8</ele>
        <time>2023-09-03T09:32:37Z</time>
      </trkpt>
      <trkpt lat="48.10448" lon="6.63085">
        <ele>606.8</ele>
        <time>2023-09-03T09:32:38Z</time>
      </trkpt>
      <trkpt lat="48.10446" lon="6.63079">
        <ele>606.8</ele>
        <time>2023-09-03T09:32:39Z</time>
      </trkpt>
      <trkpt lat="48.10444" lon="6.63073">
        <ele>606.8</ele>
        <time>2023-09-03T09:32:40Z</time>
      </trkpt>
      <trkpt lat="48.10441" lon="6.63067">
        <ele>606.8</ele>
        <time>2023-09-03T09:32:41Z</time>
      </trkpt>
      <trkpt lat="48.10439" lon="6.63061">
        <ele>606.8</ele>
        <time>2023-09-03T09:32:42Z</time>
      </trkpt>
      <trkpt lat="48.10437" lon="6.63056">
        <ele>606.8</ele>
        <time>2023-09-03T09:32:43Z</time>
      </trkpt>
      <trkpt lat="48.10434" lon="6.6305">
        <ele>606.8</ele>
        <time>2023-09-03T09:32:44Z</time>
      </trkpt>
      <trkpt lat="48.10431" lon="6.63044">
        <ele>606.8</ele>
        <time>2023-09-03T09:32:45Z</time>
      </trkpt>
      <trkpt lat="48.10428" lon="6.63037">
        <ele>606.8</ele>
        <time>2023-09-03T09:32:46Z</time>
      </trkpt>
      <trkpt lat="48.10425" lon="6.6303">
        <ele>606.6</ele>
        <time>2023-09-03T09:32:47Z</time>
      </trkpt>
      <trkpt lat="48.10421" lon="6.63023">
        <ele>606.4</ele>
        <time>2023-09-03T09:32:48Z</time>
      </trkpt>
      <trkpt lat="48.10412" lon="6.63009">
        <ele>606.2</ele>
        <time>2023-09-03T09:32:49Z</time>
      </trkpt>
      <trkpt lat="48.10407" lon="6.63002">
        <ele>606</ele>
        <time>2023-09-03T09:32:50Z</time>
      </trkpt>
      <trkpt lat="48.10404" lon="6.62996">
        <ele>605.8</ele>
        <time>2023-09-03T09:32:51Z</time>
      </trkpt>
      <trkpt lat="48.10403" lon="6.62991">
        <ele>605.6</ele>
        <time>2023-09-03T09:32:52Z</time>
      </trkpt>
      <trkpt lat="48.10399" lon="6.62983">
        <ele>605.4</ele>
        <time>2023-09-03T09:32:53Z</time>
      </trkpt>
      <trkpt lat="48.10396" lon="6.62978">
        <ele>605.2</ele>
        <time>2023-09-03T09:32:54Z</time>
      </trkpt>
      <trkpt lat="48.10393" lon="6.62972">
        <ele>604.6</ele>
        <time>2023-09-03T09:32:55Z</time>
      </trkpt>
      <trkpt lat="48.10393" lon="6.62972">
        <ele>604.8</ele>
        <time>2023-09-03T09:32:56Z</time>
      </trkpt>
      <trkpt lat="48.10387" lon="6.62961">
        <ele>604.6</ele>
        <time>2023-09-03T09:32:57Z</time>
      </trkpt>
      <trkpt lat="48.10384" lon="6.62954">
        <ele>604.6</ele>
        <time>2023-09-03T09:32:58Z</time>
      </trkpt>
      <trkpt lat="48.10384" lon="6.62948">
        <ele>604.6</ele>
        <time>2023-09-03T09:32:59Z</time>
      </trkpt>
      <trkpt lat="48.10381" lon="6.62942">
        <ele>604.6</ele>
        <time>2023-09-03T09:33:00Z</time>
      </trkpt>
      <trkpt lat="48.10378" lon="6.62936">
        <ele>604.6</ele>
        <time>2023-09-03T09:33:01Z</time>
      </trkpt>
      <trkpt lat="48.10376" lon="6.62932">
        <ele>604.6</ele>
        <time>2023-09-03T09:33:02Z</time>
      </trkpt>
      <trkpt lat="48.10376" lon="6.62928">
        <ele>604.6</ele>
        <time>2023-09-03T09:33:03Z</time>
      </trkpt>
      <trkpt lat="48.10375" lon="6.62923">
        <ele>604.4</ele>
        <time>2023-09-03T09:33:04Z</time>
      </trkpt>
      <trkpt lat="48.10371" lon="6.62918">
        <ele>604.4</ele>
        <time>2023-09-03T09:33:05Z</time>
      </trkpt>
      <trkpt lat="48.10368" lon="6.62913">
        <ele>604.4</ele>
        <time>2023-09-03T09:33:06Z</time>
      </trkpt>
      <trkpt lat="48.10365" lon="6.62907">
        <ele>604.4</ele>
        <time>2023-09-03T09:33:07Z</time>
      </trkpt>
      <trkpt lat="48.10362" lon="6.62901">
        <ele>604.4</ele>
        <time>2023-09-03T09:33:08Z</time>
      </trkpt>
      <trkpt lat="48.10359" lon="6.62895">
        <ele>604.4</ele>
        <time>2023-09-03T09:33:09Z</time>
      </trkpt>
      <trkpt lat="48.10357" lon="6.62889">
        <ele>604.4</ele>
        <time>2023-09-03T09:33:10Z</time>
      </trkpt>
      <trkpt lat="48.10353" lon="6.62883">
        <ele>604.4</ele>
        <time>2023-09-03T09:33:11Z</time>
      </trkpt>
      <trkpt lat="48.1035" lon="6.62876">
        <ele>604.4</ele>
        <time>2023-09-03T09:33:12Z</time>
      </trkpt>
      <trkpt lat="48.10348" lon="6.6287">
        <ele>604.4</ele>
        <time>2023-09-03T09:33:13Z</time>
      </trkpt>
      <trkpt lat="48.10348" lon="6.62865">
        <ele>604.4</ele>
        <time>2023-09-03T09:33:14Z</time>
      </trkpt>
      <trkpt lat="48.10348" lon="6.62865">
        <ele>604.4</ele>
        <time>2023-09-03T09:33:15Z</time>
      </trkpt>
      <trkpt lat="48.10347" lon="6.62853">
        <ele>604.6</ele>
        <time>2023-09-03T09:33:16Z</time>
      </trkpt>
      <trkpt lat="48.10346" lon="6.62848">
        <ele>604.6</ele>
        <time>2023-09-03T09:33:17Z</time>
      </trkpt>
      <trkpt lat="48.10345" lon="6.62842">
        <ele>604.6</ele>
        <time>2023-09-03T09:33:18Z</time>
      </trkpt>
      <trkpt lat="48.10344" lon="6.62836">
        <ele>604.6</ele>
        <time>2023-09-03T09:33:19Z</time>
      </trkpt>
      <trkpt lat="48.10342" lon="6.62831">
        <ele>604.8</ele>
        <time>2023-09-03T09:33:20Z</time>
      </trkpt>
      <trkpt lat="48.10342" lon="6.62825">
        <ele>605</ele>
        <time>2023-09-03T09:33:21Z</time>
      </trkpt>
      <trkpt lat="48.10342" lon="6.62819">
        <ele>605</ele>
        <time>2023-09-03T09:33:22Z</time>
      </trkpt>
      <trkpt lat="48.10341" lon="6.62814">
        <ele>605.2</ele>
        <time>2023-09-03T09:33:23Z</time>
      </trkpt>
      <trkpt lat="48.10341" lon="6.62814">
        <ele>605.4</ele>
        <time>2023-09-03T09:33:24Z</time>
      </trkpt>
      <trkpt lat="48.10339" lon="6.62808">
        <ele>605.6</ele>
        <time>2023-09-03T09:33:25Z</time>
      </trkpt>
      <trkpt lat="48.10336" lon="6.62795">
        <ele>605.8</ele>
        <time>2023-09-03T09:33:26Z</time>
      </trkpt>
      <trkpt lat="48.10336" lon="6.62795">
        <ele>606.2</ele>
        <time>2023-09-03T09:33:27Z</time>
      </trkpt>
      <trkpt lat="48.10333" lon="6.6279">
        <ele>606.2</ele>
        <time>2023-09-03T09:33:28Z</time>
      </trkpt>
      <trkpt lat="48.10327" lon="6.62778">
        <ele>606.4</ele>
        <time>2023-09-03T09:33:29Z</time>
      </trkpt>
      <trkpt lat="48.10326" lon="6.62774">
        <ele>606.4</ele>
        <time>2023-09-03T09:33:30Z</time>
      </trkpt>
      <trkpt lat="48.10326" lon="6.62774">
        <ele>606.6</ele>
        <time>2023-09-03T09:33:31Z</time>
      </trkpt>
      <trkpt lat="48.10325" lon="6.62769">
        <ele>606.6</ele>
        <time>2023-09-03T09:33:32Z</time>
      </trkpt>
      <trkpt lat="48.10325" lon="6.62766">
        <ele>606.6</ele>
        <time>2023-09-03T09:33:33Z</time>
      </trkpt>
      <trkpt lat="48.10323" lon="6.62761">
        <ele>606.6</ele>
        <time>2023-09-03T09:33:34Z</time>
      </trkpt>
      <trkpt lat="48.10324" lon="6.62757">
        <ele>606.6</ele>
        <time>2023-09-03T09:33:35Z</time>
      </trkpt>
      <trkpt lat="48.10325" lon="6.62752">
        <ele>606.6</ele>
        <time>2023-09-03T09:33:36Z</time>
      </trkpt>
      <trkpt lat="48.10325" lon="6.62748">
        <ele>606.8</ele>
        <time>2023-09-03T09:33:37Z</time>
      </trkpt>
      <trkpt lat="48.10324" lon="6.62744">
        <ele>606.8</ele>
        <time>2023-09-03T09:33:38Z</time>
      </trkpt>
      <trkpt lat="48.1032" lon="6.62737">
        <ele>606.8</ele>
        <time>2023-09-03T09:33:39Z</time>
      </trkpt>
      <trkpt lat="48.1032" lon="6.62737">
        <ele>607</ele>
        <time>2023-09-03T09:33:40Z</time>
      </trkpt>
      <trkpt lat="48.10321" lon="6.62733">
        <ele>607.2</ele>
        <time>2023-09-03T09:33:41Z</time>
      </trkpt>
      <trkpt lat="48.1032" lon="6.62729">
        <ele>607.4</ele>
        <time>2023-09-03T09:33:42Z</time>
      </trkpt>
      <trkpt lat="48.10319" lon="6.62721">
        <ele>607.4</ele>
        <time>2023-09-03T09:33:43Z</time>
      </trkpt>
      <trkpt lat="48.10317" lon="6.62716">
        <ele>607.4</ele>
        <time>2023-09-03T09:33:44Z</time>
      </trkpt>
      <trkpt lat="48.10316" lon="6.62711">
        <ele>607.4</ele>
        <time>2023-09-03T09:33:45Z</time>
      </trkpt>
      <trkpt lat="48.10316" lon="6.62707">
        <ele>607.4</ele>
        <time>2023-09-03T09:33:46Z</time>
      </trkpt>
      <trkpt lat="48.10316" lon="6.62702">
        <ele>607.6</ele>
        <time>2023-09-03T09:33:47Z</time>
      </trkpt>
      <trkpt lat="48.10315" lon="6.62697">
        <ele>607.8</ele>
        <time>2023-09-03T09:33:48Z</time>
      </trkpt>
      <trkpt lat="48.10313" lon="6.62692">
        <ele>608</ele>
        <time>2023-09-03T09:33:49Z</time>
      </trkpt>
      <trkpt lat="48.10311" lon="6.62687">
        <ele>608</ele>
        <time>2023-09-03T09:33:50Z</time>
      </trkpt>
      <trkpt lat="48.10311" lon="6.62687">
        <ele>608</ele>
        <time>2023-09-03T09:33:51Z</time>
      </trkpt>
      <trkpt lat="48.10305" lon="6.62675">
        <ele>608</ele>
        <time>2023-09-03T09:33:52Z</time>
      </trkpt>
      <trkpt lat="48.10301" lon="6.6267">
        <ele>607.8</ele>
        <time>2023-09-03T09:33:53Z</time>
      </trkpt>
      <trkpt lat="48.10297" lon="6.62664">
        <ele>608</ele>
        <time>2023-09-03T09:33:54Z</time>
      </trkpt>
      <trkpt lat="48.10293" lon="6.62658">
        <ele>607.8</ele>
        <time>2023-09-03T09:33:55Z</time>
      </trkpt>
      <trkpt lat="48.1029" lon="6.62651">
        <ele>607.8</ele>
        <time>2023-09-03T09:33:56Z</time>
      </trkpt>
      <trkpt lat="48.10287" lon="6.62645">
        <ele>607.8</ele>
        <time>2023-09-03T09:33:57Z</time>
      </trkpt>
      <trkpt lat="48.10283" lon="6.62638">
        <ele>607.8</ele>
        <time>2023-09-03T09:33:58Z</time>
      </trkpt>
      <trkpt lat="48.10277" lon="6.62631">
        <ele>607.6</ele>
        <time>2023-09-03T09:33:59Z</time>
      </trkpt>
      <trkpt lat="48.10277" lon="6.62631">
        <ele>607.4</ele>
        <time>2023-09-03T09:34:00Z</time>
      </trkpt>
      <trkpt lat="48.1027" lon="6.62619">
        <ele>607</ele>
        <time>2023-09-03T09:34:01Z</time>
      </trkpt>
      <trkpt lat="48.10268" lon="6.62615">
        <ele>607</ele>
        <time>2023-09-03T09:34:02Z</time>
      </trkpt>
      <trkpt lat="48.10266" lon="6.62611">
        <ele>607</ele>
        <time>2023-09-03T09:34:03Z</time>
      </trkpt>
      <trkpt lat="48.10266" lon="6.62607">
        <ele>606.8</ele>
        <time>2023-09-03T09:34:04Z</time>
      </trkpt>
      <trkpt lat="48.10263" lon="6.62603">
        <ele>606.8</ele>
        <time>2023-09-03T09:34:05Z</time>
      </trkpt>
      <trkpt lat="48.10261" lon="6.626">
        <ele>606.8</ele>
        <time>2023-09-03T09:34:06Z</time>
      </trkpt>
      <trkpt lat="48.10261" lon="6.62599">
        <ele>606.8</ele>
        <time>2023-09-03T09:34:07Z</time>
      </trkpt>
      <trkpt lat="48.1026" lon="6.62597">
        <ele>606.8</ele>
        <time>2023-09-03T09:34:08Z</time>
      </trkpt>
      <trkpt lat="48.1026" lon="6.62597">
        <ele>607</ele>
        <time>2023-09-03T09:34:09Z</time>
      </trkpt>
      <trkpt lat="48.10257" lon="6.62591">
        <ele>607.4</ele>
        <time>2023-09-03T09:34:10Z</time>
      </trkpt>
      <trkpt lat="48.10256" lon="6.62588">
        <ele>607.6</ele>
        <time>2023-09-03T09:34:11Z</time>
      </trkpt>
      <trkpt lat="48.10254" lon="6.62585">
        <ele>607.8</ele>
        <time>2023-09-03T09:34:12Z</time>
      </trkpt>
      <trkpt lat="48.10252" lon="6.62581">
        <ele>608.2</ele>
        <time>2023-09-03T09:34:13Z</time>
      </trkpt>
      <trkpt lat="48.10249" lon="6.62577">
        <ele>608.4</ele>
        <time>2023-09-03T09:34:14Z</time>
      </trkpt>
      <trkpt lat="48.10247" lon="6.62573">
        <ele>608.6</ele>
        <time>2023-09-03T09:34:15Z</time>
      </trkpt>
      <trkpt lat="48.10247" lon="6.62569">
        <ele>608.8</ele>
        <time>2023-09-03T09:34:16Z</time>
      </trkpt>
      <trkpt lat="48.10246" lon="6.62565">
        <ele>609.2</ele>
        <time>2023-09-03T09:34:17Z</time>
      </trkpt>
      <trkpt lat="48.10246" lon="6.62565">
        <ele>609.2</ele>
        <time>2023-09-03T09:34:18Z</time>
      </trkpt>
      <trkpt lat="48.10246" lon="6.62555">
        <ele>609.4</ele>
        <time>2023-09-03T09:34:19Z</time>
      </trkpt>
      <trkpt lat="48.10245" lon="6.62551">
        <ele>609.4</ele>
        <time>2023-09-03T09:34:20Z</time>
      </trkpt>
      <trkpt lat="48.10244" lon="6.62546">
        <ele>609.4</ele>
        <time>2023-09-03T09:34:21Z</time>
      </trkpt>
      <trkpt lat="48.10241" lon="6.62539">
        <ele>609.4</ele>
        <time>2023-09-03T09:34:22Z</time>
      </trkpt>
      <trkpt lat="48.1024" lon="6.62534">
        <ele>609.4</ele>
        <time>2023-09-03T09:34:23Z</time>
      </trkpt>
      <trkpt lat="48.10238" lon="6.62528">
        <ele>609.2</ele>
        <time>2023-09-03T09:34:24Z</time>
      </trkpt>
      <trkpt lat="48.10238" lon="6.62523">
        <ele>609.2</ele>
        <time>2023-09-03T09:34:25Z</time>
      </trkpt>
      <trkpt lat="48.10239" lon="6.62519">
        <ele>609.2</ele>
        <time>2023-09-03T09:34:26Z</time>
      </trkpt>
      <trkpt lat="48.10239" lon="6.62519">
        <ele>609</ele>
        <time>2023-09-03T09:34:27Z</time>
      </trkpt>
      <trkpt lat="48.10242" lon="6.62512">
        <ele>609</ele>
        <time>2023-09-03T09:34:28Z</time>
      </trkpt>
      <trkpt lat="48.10244" lon="6.62508">
        <ele>609</ele>
        <time>2023-09-03T09:34:29Z</time>
      </trkpt>
      <trkpt lat="48.10247" lon="6.62504">
        <ele>609</ele>
        <time>2023-09-03T09:34:30Z</time>
      </trkpt>
      <trkpt lat="48.1025" lon="6.62499">
        <ele>609</ele>
        <time>2023-09-03T09:34:31Z</time>
      </trkpt>
      <trkpt lat="48.10252" lon="6.62493">
        <ele>609</ele>
        <time>2023-09-03T09:34:32Z</time>
      </trkpt>
      <trkpt lat="48.10254" lon="6.62487">
        <ele>609</ele>
        <time>2023-09-03T09:34:33Z</time>
      </trkpt>
      <trkpt lat="48.10256" lon="6.62481">
        <ele>609.2</ele>
        <time>2023-09-03T09:34:34Z</time>
      </trkpt>
      <trkpt lat="48.10258" lon="6.62476">
        <ele>609.2</ele>
        <time>2023-09-03T09:34:35Z</time>
      </trkpt>
      <trkpt lat="48.10258" lon="6.62476">
        <ele>609.2</ele>
        <time>2023-09-03T09:34:36Z</time>
      </trkpt>
      <trkpt lat="48.10259" lon="6.62464">
        <ele>609.2</ele>
        <time>2023-09-03T09:34:37Z</time>
      </trkpt>
      <trkpt lat="48.10261" lon="6.62459">
        <ele>609.2</ele>
        <time>2023-09-03T09:34:38Z</time>
      </trkpt>
      <trkpt lat="48.10264" lon="6.62455">
        <ele>609.2</ele>
        <time>2023-09-03T09:34:39Z</time>
      </trkpt>
      <trkpt lat="48.10265" lon="6.62451">
        <ele>609.2</ele>
        <time>2023-09-03T09:34:40Z</time>
      </trkpt>
      <trkpt lat="48.10265" lon="6.62446">
        <ele>609.2</ele>
        <time>2023-09-03T09:34:41Z</time>
      </trkpt>
      <trkpt lat="48.10265" lon="6.62442">
        <ele>609.2</ele>
        <time>2023-09-03T09:34:42Z</time>
      </trkpt>
      <trkpt lat="48.10267" lon="6.62437">
        <ele>609.2</ele>
        <time>2023-09-03T09:34:43Z</time>
      </trkpt>
      <trkpt lat="48.10265" lon="6.62429">
        <ele>609.2</ele>
        <time>2023-09-03T09:34:44Z</time>
      </trkpt>
      <trkpt lat="48.10265" lon="6.62429">
        <ele>609</ele>
        <time>2023-09-03T09:34:45Z</time>
      </trkpt>
      <trkpt lat="48.10266" lon="6.62412">
        <ele>609.2</ele>
        <time>2023-09-03T09:34:46Z</time>
      </trkpt>
      <trkpt lat="48.10269" lon="6.62405">
        <ele>609</ele>
        <time>2023-09-03T09:34:47Z</time>
      </trkpt>
      <trkpt lat="48.10272" lon="6.62396">
        <ele>609</ele>
        <time>2023-09-03T09:34:48Z</time>
      </trkpt>
      <trkpt lat="48.10274" lon="6.62387">
        <ele>608.8</ele>
        <time>2023-09-03T09:34:49Z</time>
      </trkpt>
      <trkpt lat="48.10275" lon="6.62377">
        <ele>608.8</ele>
        <time>2023-09-03T09:34:50Z</time>
      </trkpt>
      <trkpt lat="48.10275" lon="6.62365">
        <ele>608.6</ele>
        <time>2023-09-03T09:34:51Z</time>
      </trkpt>
      <trkpt lat="48.10277" lon="6.62353">
        <ele>608.6</ele>
        <time>2023-09-03T09:34:52Z</time>
      </trkpt>
      <trkpt lat="48.10281" lon="6.62343">
        <ele>608.4</ele>
        <time>2023-09-03T09:34:53Z</time>
      </trkpt>
      <trkpt lat="48.10281" lon="6.62343">
        <ele>608.4</ele>
        <time>2023-09-03T09:34:54Z</time>
      </trkpt>
      <trkpt lat="48.10291" lon="6.62326">
        <ele>608.2</ele>
        <time>2023-09-03T09:34:55Z</time>
      </trkpt>
      <trkpt lat="48.10297" lon="6.62317">
        <ele>608</ele>
        <time>2023-09-03T09:34:56Z</time>
      </trkpt>
      <trkpt lat="48.10302" lon="6.62309">
        <ele>607.8</ele>
        <time>2023-09-03T09:34:57Z</time>
      </trkpt>
      <trkpt lat="48.10308" lon="6.62304">
        <ele>607.2</ele>
        <time>2023-09-03T09:34:58Z</time>
      </trkpt>
      <trkpt lat="48.10314" lon="6.62299">
        <ele>607</ele>
        <time>2023-09-03T09:34:59Z</time>
      </trkpt>
      <trkpt lat="48.1032" lon="6.62295">
        <ele>606.2</ele>
        <time>2023-09-03T09:35:00Z</time>
      </trkpt>
      <trkpt lat="48.10325" lon="6.62292">
        <ele>605.6</ele>
        <time>2023-09-03T09:35:01Z</time>
      </trkpt>
      <trkpt lat="48.10329" lon="6.62289">
        <ele>605</ele>
        <time>2023-09-03T09:35:02Z</time>
      </trkpt>
      <trkpt lat="48.10334" lon="6.62286">
        <ele>604.6</ele>
        <time>2023-09-03T09:35:03Z</time>
      </trkpt>
      <trkpt lat="48.10336" lon="6.62283">
        <ele>604.4</ele>
        <time>2023-09-03T09:35:04Z</time>
      </trkpt>
      <trkpt lat="48.10339" lon="6.6228">
        <ele>603.8</ele>
        <time>2023-09-03T09:35:05Z</time>
      </trkpt>
      <trkpt lat="48.10341" lon="6.62277">
        <ele>603.8</ele>
        <time>2023-09-03T09:35:06Z</time>
      </trkpt>
      <trkpt lat="48.10343" lon="6.62274">
        <ele>603.6</ele>
        <time>2023-09-03T09:35:07Z</time>
      </trkpt>
      <trkpt lat="48.10344" lon="6.62274">
        <ele>603.6</ele>
        <time>2023-09-03T09:35:08Z</time>
      </trkpt>
      <trkpt lat="48.10346" lon="6.62273">
        <ele>603.6</ele>
        <time>2023-09-03T09:35:09Z</time>
      </trkpt>
      <trkpt lat="48.1035" lon="6.62271">
        <ele>603.6</ele>
        <time>2023-09-03T09:35:10Z</time>
      </trkpt>
      <trkpt lat="48.10356" lon="6.62269">
        <ele>603.4</ele>
        <time>2023-09-03T09:35:11Z</time>
      </trkpt>
      <trkpt lat="48.10363" lon="6.62266">
        <ele>603.2</ele>
        <time>2023-09-03T09:35:12Z</time>
      </trkpt>
      <trkpt lat="48.1037" lon="6.62264">
        <ele>603.4</ele>
        <time>2023-09-03T09:35:13Z</time>
      </trkpt>
      <trkpt lat="48.10377" lon="6.62263">
        <ele>603.2</ele>
        <time>2023-09-03T09:35:14Z</time>
      </trkpt>
      <trkpt lat="48.10387" lon="6.62262">
        <ele>603.2</ele>
        <time>2023-09-03T09:35:15Z</time>
      </trkpt>
      <trkpt lat="48.10387" lon="6.62262">
        <ele>602.8</ele>
        <time>2023-09-03T09:35:16Z</time>
      </trkpt>
      <trkpt lat="48.10405" lon="6.62258">
        <ele>602.8</ele>
        <time>2023-09-03T09:35:17Z</time>
      </trkpt>
      <trkpt lat="48.10412" lon="6.62256">
        <ele>602.2</ele>
        <time>2023-09-03T09:35:18Z</time>
      </trkpt>
      <trkpt lat="48.10419" lon="6.62254">
        <ele>601.6</ele>
        <time>2023-09-03T09:35:19Z</time>
      </trkpt>
      <trkpt lat="48.10425" lon="6.62252">
        <ele>600.6</ele>
        <time>2023-09-03T09:35:20Z</time>
      </trkpt>
      <trkpt lat="48.10431" lon="6.62249">
        <ele>600.4</ele>
        <time>2023-09-03T09:35:21Z</time>
      </trkpt>
      <trkpt lat="48.10433" lon="6.62246">
        <ele>600.2</ele>
        <time>2023-09-03T09:35:22Z</time>
      </trkpt>
      <trkpt lat="48.10437" lon="6.62242">
        <ele>599.6</ele>
        <time>2023-09-03T09:35:23Z</time>
      </trkpt>
      <trkpt lat="48.10441" lon="6.62238">
        <ele>599.6</ele>
        <time>2023-09-03T09:35:24Z</time>
      </trkpt>
      <trkpt lat="48.10445" lon="6.62236">
        <ele>599.4</ele>
        <time>2023-09-03T09:35:25Z</time>
      </trkpt>
      <trkpt lat="48.10452" lon="6.62235">
        <ele>599.4</ele>
        <time>2023-09-03T09:35:26Z</time>
      </trkpt>
      <trkpt lat="48.10459" lon="6.62233">
        <ele>599.4</ele>
        <time>2023-09-03T09:35:27Z</time>
      </trkpt>
      <trkpt lat="48.10464" lon="6.62232">
        <ele>599.4</ele>
        <time>2023-09-03T09:35:28Z</time>
      </trkpt>
      <trkpt lat="48.1047" lon="6.62231">
        <ele>599.4</ele>
        <time>2023-09-03T09:35:29Z</time>
      </trkpt>
      <trkpt lat="48.10475" lon="6.62231">
        <ele>599.4</ele>
        <time>2023-09-03T09:35:30Z</time>
      </trkpt>
      <trkpt lat="48.10478" lon="6.62231">
        <ele>599.4</ele>
        <time>2023-09-03T09:35:31Z</time>
      </trkpt>
      <trkpt lat="48.10482" lon="6.62231">
        <ele>599.4</ele>
        <time>2023-09-03T09:35:32Z</time>
      </trkpt>
      <trkpt lat="48.10485" lon="6.62227">
        <ele>599.4</ele>
        <time>2023-09-03T09:35:33Z</time>
      </trkpt>
      <trkpt lat="48.10487" lon="6.62226">
        <ele>599.4</ele>
        <time>2023-09-03T09:35:34Z</time>
      </trkpt>
      <trkpt lat="48.10489" lon="6.62224">
        <ele>599.4</ele>
        <time>2023-09-03T09:35:35Z</time>
      </trkpt>
      <trkpt lat="48.10491" lon="6.62222">
        <ele>599.6</ele>
        <time>2023-09-03T09:35:36Z</time>
      </trkpt>
      <trkpt lat="48.10493" lon="6.6222">
        <ele>599.6</ele>
        <time>2023-09-03T09:35:37Z</time>
      </trkpt>
      <trkpt lat="48.10494" lon="6.6222">
        <ele>599.8</ele>
        <time>2023-09-03T09:35:38Z</time>
      </trkpt>
      <trkpt lat="48.10495" lon="6.62219">
        <ele>600.2</ele>
        <time>2023-09-03T09:35:39Z</time>
      </trkpt>
      <trkpt lat="48.10498" lon="6.62216">
        <ele>600.6</ele>
        <time>2023-09-03T09:35:40Z</time>
      </trkpt>
      <trkpt lat="48.10501" lon="6.62218">
        <ele>601</ele>
        <time>2023-09-03T09:35:41Z</time>
      </trkpt>
      <trkpt lat="48.10501" lon="6.62218">
        <ele>601.4</ele>
        <time>2023-09-03T09:35:42Z</time>
      </trkpt>
      <trkpt lat="48.10507" lon="6.62221">
        <ele>601.6</ele>
        <time>2023-09-03T09:35:43Z</time>
      </trkpt>
      <trkpt lat="48.10508" lon="6.62221">
        <ele>602.2</ele>
        <time>2023-09-03T09:35:44Z</time>
      </trkpt>
      <trkpt lat="48.10511" lon="6.62219">
        <ele>602.4</ele>
        <time>2023-09-03T09:35:45Z</time>
      </trkpt>
      <trkpt lat="48.10513" lon="6.62217">
        <ele>602.6</ele>
        <time>2023-09-03T09:35:46Z</time>
      </trkpt>
      <trkpt lat="48.10517" lon="6.62213">
        <ele>603</ele>
        <time>2023-09-03T09:35:47Z</time>
      </trkpt>
      <trkpt lat="48.10517" lon="6.62213">
        <ele>603.2</ele>
        <time>2023-09-03T09:35:48Z</time>
      </trkpt>
      <trkpt lat="48.10526" lon="6.6221">
        <ele>603.4</ele>
        <time>2023-09-03T09:35:49Z</time>
      </trkpt>
      <trkpt lat="48.10527" lon="6.62209">
        <ele>603.4</ele>
        <time>2023-09-03T09:35:50Z</time>
      </trkpt>
      <trkpt lat="48.10528" lon="6.62208">
        <ele>603.4</ele>
        <time>2023-09-03T09:35:51Z</time>
      </trkpt>
      <trkpt lat="48.10529" lon="6.62207">
        <ele>603.6</ele>
        <time>2023-09-03T09:35:52Z</time>
      </trkpt>
      <trkpt lat="48.10531" lon="6.62207">
        <ele>603.6</ele>
        <time>2023-09-03T09:35:53Z</time>
      </trkpt>
      <trkpt lat="48.10533" lon="6.62205">
        <ele>603.8</ele>
        <time>2023-09-03T09:35:54Z</time>
      </trkpt>
      <trkpt lat="48.10535" lon="6.62204">
        <ele>603.8</ele>
        <time>2023-09-03T09:35:55Z</time>
      </trkpt>
      <trkpt lat="48.10537" lon="6.62202">
        <ele>604</ele>
        <time>2023-09-03T09:35:56Z</time>
      </trkpt>
      <trkpt lat="48.10541" lon="6.62201">
        <ele>604</ele>
        <time>2023-09-03T09:35:57Z</time>
      </trkpt>
      <trkpt lat="48.10545" lon="6.62193">
        <ele>604.2</ele>
        <time>2023-09-03T09:35:58Z</time>
      </trkpt>
      <trkpt lat="48.10549" lon="6.62192">
        <ele>604.2</ele>
        <time>2023-09-03T09:35:59Z</time>
      </trkpt>
      <trkpt lat="48.10552" lon="6.62189">
        <ele>604.4</ele>
        <time>2023-09-03T09:36:00Z</time>
      </trkpt>
      <trkpt lat="48.10553" lon="6.62188">
        <ele>604.4</ele>
        <time>2023-09-03T09:36:01Z</time>
      </trkpt>
      <trkpt lat="48.10555" lon="6.62188">
        <ele>604.4</ele>
        <time>2023-09-03T09:36:02Z</time>
      </trkpt>
      <trkpt lat="48.10556" lon="6.62188">
        <ele>604.4</ele>
        <time>2023-09-03T09:36:03Z</time>
      </trkpt>
      <trkpt lat="48.10559" lon="6.62189">
        <ele>604.4</ele>
        <time>2023-09-03T09:36:04Z</time>
      </trkpt>
      <trkpt lat="48.10563" lon="6.62188">
        <ele>604.4</ele>
        <time>2023-09-03T09:36:05Z</time>
      </trkpt>
      <trkpt lat="48.10568" lon="6.62183">
        <ele>604.2</ele>
        <time>2023-09-03T09:36:06Z</time>
      </trkpt>
      <trkpt lat="48.10574" lon="6.62181">
        <ele>604.2</ele>
        <time>2023-09-03T09:36:07Z</time>
      </trkpt>
      <trkpt lat="48.10581" lon="6.62175">
        <ele>604</ele>
        <time>2023-09-03T09:36:08Z</time>
      </trkpt>
      <trkpt lat="48.10585" lon="6.62173">
        <ele>604</ele>
        <time>2023-09-03T09:36:09Z</time>
      </trkpt>
      <trkpt lat="48.10587" lon="6.62172">
        <ele>603.8</ele>
        <time>2023-09-03T09:36:10Z</time>
      </trkpt>
      <trkpt lat="48.10589" lon="6.62171">
        <ele>603.8</ele>
        <time>2023-09-03T09:36:11Z</time>
      </trkpt>
      <trkpt lat="48.10591" lon="6.62169">
        <ele>603.8</ele>
        <time>2023-09-03T09:36:12Z</time>
      </trkpt>
      <trkpt lat="48.10593" lon="6.62167">
        <ele>604.2</ele>
        <time>2023-09-03T09:36:13Z</time>
      </trkpt>
      <trkpt lat="48.10596" lon="6.62166">
        <ele>604.2</ele>
        <time>2023-09-03T09:36:14Z</time>
      </trkpt>
      <trkpt lat="48.10598" lon="6.62165">
        <ele>604.8</ele>
        <time>2023-09-03T09:36:15Z</time>
      </trkpt>
      <trkpt lat="48.106" lon="6.62164">
        <ele>605</ele>
        <time>2023-09-03T09:36:16Z</time>
      </trkpt>
      <trkpt lat="48.10604" lon="6.62162">
        <ele>605</ele>
        <time>2023-09-03T09:36:17Z</time>
      </trkpt>
      <trkpt lat="48.10606" lon="6.6216">
        <ele>605.2</ele>
        <time>2023-09-03T09:36:18Z</time>
      </trkpt>
      <trkpt lat="48.10609" lon="6.62157">
        <ele>605.2</ele>
        <time>2023-09-03T09:36:19Z</time>
      </trkpt>
      <trkpt lat="48.10611" lon="6.62152">
        <ele>605.4</ele>
        <time>2023-09-03T09:36:20Z</time>
      </trkpt>
      <trkpt lat="48.10613" lon="6.6215">
        <ele>605.6</ele>
        <time>2023-09-03T09:36:21Z</time>
      </trkpt>
      <trkpt lat="48.10615" lon="6.62148">
        <ele>605.8</ele>
        <time>2023-09-03T09:36:22Z</time>
      </trkpt>
      <trkpt lat="48.10617" lon="6.62145">
        <ele>605.8</ele>
        <time>2023-09-03T09:36:23Z</time>
      </trkpt>
      <trkpt lat="48.1062" lon="6.62142">
        <ele>606</ele>
        <time>2023-09-03T09:36:24Z</time>
      </trkpt>
      <trkpt lat="48.10624" lon="6.62138">
        <ele>606</ele>
        <time>2023-09-03T09:36:25Z</time>
      </trkpt>
      <trkpt lat="48.10626" lon="6.62133">
        <ele>606.4</ele>
        <time>2023-09-03T09:36:26Z</time>
      </trkpt>
      <trkpt lat="48.10629" lon="6.62129">
        <ele>606.4</ele>
        <time>2023-09-03T09:36:27Z</time>
      </trkpt>
      <trkpt lat="48.10633" lon="6.62119">
        <ele>606.6</ele>
        <time>2023-09-03T09:36:28Z</time>
      </trkpt>
      <trkpt lat="48.10633" lon="6.62119">
        <ele>606.6</ele>
        <time>2023-09-03T09:36:29Z</time>
      </trkpt>
      <trkpt lat="48.10638" lon="6.62111">
        <ele>606.6</ele>
        <time>2023-09-03T09:36:30Z</time>
      </trkpt>
      <trkpt lat="48.10641" lon="6.62107">
        <ele>606.6</ele>
        <time>2023-09-03T09:36:31Z</time>
      </trkpt>
      <trkpt lat="48.10646" lon="6.62098">
        <ele>606.6</ele>
        <time>2023-09-03T09:36:32Z</time>
      </trkpt>
      <trkpt lat="48.10649" lon="6.62094">
        <ele>606.4</ele>
        <time>2023-09-03T09:36:33Z</time>
      </trkpt>
      <trkpt lat="48.10649" lon="6.62094">
        <ele>606.4</ele>
        <time>2023-09-03T09:36:34Z</time>
      </trkpt>
      <trkpt lat="48.10655" lon="6.62087">
        <ele>606.2</ele>
        <time>2023-09-03T09:36:35Z</time>
      </trkpt>
      <trkpt lat="48.10658" lon="6.62082">
        <ele>606.2</ele>
        <time>2023-09-03T09:36:36Z</time>
      </trkpt>
      <trkpt lat="48.10659" lon="6.62077">
        <ele>606.2</ele>
        <time>2023-09-03T09:36:37Z</time>
      </trkpt>
      <trkpt lat="48.10659" lon="6.62077">
        <ele>606</ele>
        <time>2023-09-03T09:36:38Z</time>
      </trkpt>
      <trkpt lat="48.10659" lon="6.62064">
        <ele>605.8</ele>
        <time>2023-09-03T09:36:39Z</time>
      </trkpt>
      <trkpt lat="48.10659" lon="6.6206">
        <ele>605.8</ele>
        <time>2023-09-03T09:36:40Z</time>
      </trkpt>
      <trkpt lat="48.1066" lon="6.62055">
        <ele>605.6</ele>
        <time>2023-09-03T09:36:41Z</time>
      </trkpt>
      <trkpt lat="48.10662" lon="6.62051">
        <ele>605.6</ele>
        <time>2023-09-03T09:36:42Z</time>
      </trkpt>
      <trkpt lat="48.10663" lon="6.62047">
        <ele>605.4</ele>
        <time>2023-09-03T09:36:43Z</time>
      </trkpt>
      <trkpt lat="48.10666" lon="6.62042">
        <ele>605.4</ele>
        <time>2023-09-03T09:36:44Z</time>
      </trkpt>
      <trkpt lat="48.1067" lon="6.62038">
        <ele>605.4</ele>
        <time>2023-09-03T09:36:45Z</time>
      </trkpt>
      <trkpt lat="48.10673" lon="6.62034">
        <ele>605.4</ele>
        <time>2023-09-03T09:36:46Z</time>
      </trkpt>
      <trkpt lat="48.10676" lon="6.6203">
        <ele>605.6</ele>
        <time>2023-09-03T09:36:47Z</time>
      </trkpt>
      <trkpt lat="48.10678" lon="6.62026">
        <ele>605.6</ele>
        <time>2023-09-03T09:36:48Z</time>
      </trkpt>
      <trkpt lat="48.10679" lon="6.62026">
        <ele>605.6</ele>
        <time>2023-09-03T09:36:49Z</time>
      </trkpt>
      <trkpt lat="48.1068" lon="6.62024">
        <ele>605.6</ele>
        <time>2023-09-03T09:36:50Z</time>
      </trkpt>
      <trkpt lat="48.10682" lon="6.62021">
        <ele>605.6</ele>
        <time>2023-09-03T09:36:51Z</time>
      </trkpt>
      <trkpt lat="48.10684" lon="6.62019">
        <ele>605.8</ele>
        <time>2023-09-03T09:36:52Z</time>
      </trkpt>
      <trkpt lat="48.10687" lon="6.62017">
        <ele>606</ele>
        <time>2023-09-03T09:36:53Z</time>
      </trkpt>
      <trkpt lat="48.10693" lon="6.62017">
        <ele>606</ele>
        <time>2023-09-03T09:36:54Z</time>
      </trkpt>
      <trkpt lat="48.10699" lon="6.62018">
        <ele>606.2</ele>
        <time>2023-09-03T09:36:55Z</time>
      </trkpt>
      <trkpt lat="48.10704" lon="6.62019">
        <ele>606.2</ele>
        <time>2023-09-03T09:36:56Z</time>
      </trkpt>
      <trkpt lat="48.10708" lon="6.62019">
        <ele>606.2</ele>
        <time>2023-09-03T09:36:57Z</time>
      </trkpt>
      <trkpt lat="48.10713" lon="6.62012">
        <ele>606.2</ele>
        <time>2023-09-03T09:36:58Z</time>
      </trkpt>
      <trkpt lat="48.10718" lon="6.6201">
        <ele>606</ele>
        <time>2023-09-03T09:36:59Z</time>
      </trkpt>
      <trkpt lat="48.10721" lon="6.62013">
        <ele>606</ele>
        <time>2023-09-03T09:37:00Z</time>
      </trkpt>
      <trkpt lat="48.10724" lon="6.62016">
        <ele>606</ele>
        <time>2023-09-03T09:37:01Z</time>
      </trkpt>
      <trkpt lat="48.10729" lon="6.62018">
        <ele>606</ele>
        <time>2023-09-03T09:37:02Z</time>
      </trkpt>
      <trkpt lat="48.10733" lon="6.62019">
        <ele>606</ele>
        <time>2023-09-03T09:37:03Z</time>
      </trkpt>
      <trkpt lat="48.10736" lon="6.62019">
        <ele>606</ele>
        <time>2023-09-03T09:37:04Z</time>
      </trkpt>
      <trkpt lat="48.10739" lon="6.62019">
        <ele>605.8</ele>
        <time>2023-09-03T09:37:05Z</time>
      </trkpt>
      <trkpt lat="48.10741" lon="6.62019">
        <ele>605.6</ele>
        <time>2023-09-03T09:37:06Z</time>
      </trkpt>
      <trkpt lat="48.10743" lon="6.62021">
        <ele>605.6</ele>
        <time>2023-09-03T09:37:07Z</time>
      </trkpt>
      <trkpt lat="48.10748" lon="6.62016">
        <ele>605.6</ele>
        <time>2023-09-03T09:37:08Z</time>
      </trkpt>
      <trkpt lat="48.10752" lon="6.6201">
        <ele>605.6</ele>
        <time>2023-09-03T09:37:09Z</time>
      </trkpt>
      <trkpt lat="48.10755" lon="6.62005">
        <ele>605.8</ele>
        <time>2023-09-03T09:37:10Z</time>
      </trkpt>
      <trkpt lat="48.10758" lon="6.62">
        <ele>605.8</ele>
        <time>2023-09-03T09:37:11Z</time>
      </trkpt>
      <trkpt lat="48.10761" lon="6.61996">
        <ele>605.8</ele>
        <time>2023-09-03T09:37:12Z</time>
      </trkpt>
      <trkpt lat="48.10764" lon="6.6199">
        <ele>605.8</ele>
        <time>2023-09-03T09:37:13Z</time>
      </trkpt>
      <trkpt lat="48.10767" lon="6.61985">
        <ele>605.8</ele>
        <time>2023-09-03T09:37:14Z</time>
      </trkpt>
      <trkpt lat="48.1077" lon="6.61979">
        <ele>606</ele>
        <time>2023-09-03T09:37:15Z</time>
      </trkpt>
      <trkpt lat="48.10773" lon="6.61973">
        <ele>606</ele>
        <time>2023-09-03T09:37:16Z</time>
      </trkpt>
      <trkpt lat="48.10779" lon="6.61964">
        <ele>606.2</ele>
        <time>2023-09-03T09:37:17Z</time>
      </trkpt>
      <trkpt lat="48.10784" lon="6.61956">
        <ele>606.4</ele>
        <time>2023-09-03T09:37:18Z</time>
      </trkpt>
      <trkpt lat="48.1079" lon="6.61949">
        <ele>606.6</ele>
        <time>2023-09-03T09:37:19Z</time>
      </trkpt>
      <trkpt lat="48.10793" lon="6.61942">
        <ele>606.8</ele>
        <time>2023-09-03T09:37:20Z</time>
      </trkpt>
      <trkpt lat="48.10798" lon="6.61935">
        <ele>606.8</ele>
        <time>2023-09-03T09:37:21Z</time>
      </trkpt>
      <trkpt lat="48.10803" lon="6.6193">
        <ele>606.8</ele>
        <time>2023-09-03T09:37:22Z</time>
      </trkpt>
      <trkpt lat="48.10808" lon="6.61924">
        <ele>606.8</ele>
        <time>2023-09-03T09:37:23Z</time>
      </trkpt>
      <trkpt lat="48.10812" lon="6.61919">
        <ele>606.8</ele>
        <time>2023-09-03T09:37:24Z</time>
      </trkpt>
      <trkpt lat="48.10816" lon="6.61914">
        <ele>607</ele>
        <time>2023-09-03T09:37:25Z</time>
      </trkpt>
      <trkpt lat="48.10821" lon="6.61908">
        <ele>607</ele>
        <time>2023-09-03T09:37:26Z</time>
      </trkpt>
      <trkpt lat="48.10829" lon="6.61902">
        <ele>606.8</ele>
        <time>2023-09-03T09:37:27Z</time>
      </trkpt>
      <trkpt lat="48.10832" lon="6.61897">
        <ele>606.8</ele>
        <time>2023-09-03T09:37:28Z</time>
      </trkpt>
      <trkpt lat="48.10838" lon="6.61892">
        <ele>606.8</ele>
        <time>2023-09-03T09:37:29Z</time>
      </trkpt>
      <trkpt lat="48.10842" lon="6.61887">
        <ele>606.8</ele>
        <time>2023-09-03T09:37:30Z</time>
      </trkpt>
      <trkpt lat="48.10846" lon="6.61881">
        <ele>606.8</ele>
        <time>2023-09-03T09:37:31Z</time>
      </trkpt>
      <trkpt lat="48.10849" lon="6.61876">
        <ele>606.6</ele>
        <time>2023-09-03T09:37:32Z</time>
      </trkpt>
      <trkpt lat="48.10853" lon="6.6187">
        <ele>606.6</ele>
        <time>2023-09-03T09:37:33Z</time>
      </trkpt>
      <trkpt lat="48.10858" lon="6.61864">
        <ele>606.4</ele>
        <time>2023-09-03T09:37:34Z</time>
      </trkpt>
      <trkpt lat="48.10861" lon="6.61859">
        <ele>606.4</ele>
        <time>2023-09-03T09:37:35Z</time>
      </trkpt>
      <trkpt lat="48.10865" lon="6.61855">
        <ele>606.4</ele>
        <time>2023-09-03T09:37:36Z</time>
      </trkpt>
      <trkpt lat="48.10869" lon="6.61849">
        <ele>606.4</ele>
        <time>2023-09-03T09:37:37Z</time>
      </trkpt>
      <trkpt lat="48.10873" lon="6.61843">
        <ele>606.4</ele>
        <time>2023-09-03T09:37:38Z</time>
      </trkpt>
      <trkpt lat="48.10876" lon="6.6184">
        <ele>606.4</ele>
        <time>2023-09-03T09:37:39Z</time>
      </trkpt>
      <trkpt lat="48.10878" lon="6.61837">
        <ele>606.4</ele>
        <time>2023-09-03T09:37:40Z</time>
      </trkpt>
      <trkpt lat="48.10882" lon="6.61834">
        <ele>606.4</ele>
        <time>2023-09-03T09:37:41Z</time>
      </trkpt>
      <trkpt lat="48.10886" lon="6.61832">
        <ele>606</ele>
        <time>2023-09-03T09:37:42Z</time>
      </trkpt>
      <trkpt lat="48.10888" lon="6.61831">
        <ele>605.8</ele>
        <time>2023-09-03T09:37:43Z</time>
      </trkpt>
      <trkpt lat="48.10891" lon="6.6183">
        <ele>605.8</ele>
        <time>2023-09-03T09:37:44Z</time>
      </trkpt>
      <trkpt lat="48.10897" lon="6.61825">
        <ele>605.6</ele>
        <time>2023-09-03T09:37:45Z</time>
      </trkpt>
      <trkpt lat="48.10897" lon="6.61825">
        <ele>605.6</ele>
        <time>2023-09-03T09:37:46Z</time>
      </trkpt>
      <trkpt lat="48.10908" lon="6.61814">
        <ele>605.6</ele>
        <time>2023-09-03T09:37:47Z</time>
      </trkpt>
      <trkpt lat="48.10912" lon="6.6181">
        <ele>605.6</ele>
        <time>2023-09-03T09:37:48Z</time>
      </trkpt>
      <trkpt lat="48.10915" lon="6.61807">
        <ele>605.4</ele>
        <time>2023-09-03T09:37:49Z</time>
      </trkpt>
      <trkpt lat="48.10919" lon="6.61803">
        <ele>605.4</ele>
        <time>2023-09-03T09:37:50Z</time>
      </trkpt>
      <trkpt lat="48.10923" lon="6.61801">
        <ele>605.2</ele>
        <time>2023-09-03T09:37:51Z</time>
      </trkpt>
      <trkpt lat="48.10925" lon="6.618">
        <ele>605.2</ele>
        <time>2023-09-03T09:37:52Z</time>
      </trkpt>
      <trkpt lat="48.10929" lon="6.61799">
        <ele>605.4</ele>
        <time>2023-09-03T09:37:53Z</time>
      </trkpt>
      <trkpt lat="48.10931" lon="6.61797">
        <ele>605.4</ele>
        <time>2023-09-03T09:37:54Z</time>
      </trkpt>
      <trkpt lat="48.10935" lon="6.61794">
        <ele>605.4</ele>
        <time>2023-09-03T09:37:55Z</time>
      </trkpt>
      <trkpt lat="48.10941" lon="6.6179">
        <ele>605.4</ele>
        <time>2023-09-03T09:37:56Z</time>
      </trkpt>
      <trkpt lat="48.10945" lon="6.61787">
        <ele>605.4</ele>
        <time>2023-09-03T09:37:57Z</time>
      </trkpt>
      <trkpt lat="48.10951" lon="6.61782">
        <ele>605.2</ele>
        <time>2023-09-03T09:37:58Z</time>
      </trkpt>
      <trkpt lat="48.10956" lon="6.61776">
        <ele>605.2</ele>
        <time>2023-09-03T09:37:59Z</time>
      </trkpt>
      <trkpt lat="48.10967" lon="6.61771">
        <ele>605.2</ele>
        <time>2023-09-03T09:38:00Z</time>
      </trkpt>
      <trkpt lat="48.10976" lon="6.61763">
        <ele>605.2</ele>
        <time>2023-09-03T09:38:01Z</time>
      </trkpt>
      <trkpt lat="48.1098" lon="6.61758">
        <ele>605</ele>
        <time>2023-09-03T09:38:02Z</time>
      </trkpt>
      <trkpt lat="48.10984" lon="6.61753">
        <ele>604.8</ele>
        <time>2023-09-03T09:38:03Z</time>
      </trkpt>
      <trkpt lat="48.10988" lon="6.61748">
        <ele>604.6</ele>
        <time>2023-09-03T09:38:04Z</time>
      </trkpt>
      <trkpt lat="48.10992" lon="6.61744">
        <ele>604.6</ele>
        <time>2023-09-03T09:38:05Z</time>
      </trkpt>
      <trkpt lat="48.10996" lon="6.61738">
        <ele>604.6</ele>
        <time>2023-09-03T09:38:06Z</time>
      </trkpt>
      <trkpt lat="48.10998" lon="6.61733">
        <ele>604.4</ele>
        <time>2023-09-03T09:38:07Z</time>
      </trkpt>
      <trkpt lat="48.10998" lon="6.61729">
        <ele>604.2</ele>
        <time>2023-09-03T09:38:08Z</time>
      </trkpt>
      <trkpt lat="48.11" lon="6.61724">
        <ele>604.2</ele>
        <time>2023-09-03T09:38:09Z</time>
      </trkpt>
      <trkpt lat="48.11001" lon="6.61718">
        <ele>604.2</ele>
        <time>2023-09-03T09:38:10Z</time>
      </trkpt>
      <trkpt lat="48.11002" lon="6.61712">
        <ele>604.4</ele>
        <time>2023-09-03T09:38:11Z</time>
      </trkpt>
      <trkpt lat="48.11002" lon="6.61708">
        <ele>604.4</ele>
        <time>2023-09-03T09:38:12Z</time>
      </trkpt>
      <trkpt lat="48.11002" lon="6.61702">
        <ele>604.4</ele>
        <time>2023-09-03T09:38:13Z</time>
      </trkpt>
      <trkpt lat="48.11002" lon="6.61697">
        <ele>604.6</ele>
        <time>2023-09-03T09:38:14Z</time>
      </trkpt>
      <trkpt lat="48.11003" lon="6.61692">
        <ele>604.6</ele>
        <time>2023-09-03T09:38:15Z</time>
      </trkpt>
      <trkpt lat="48.11005" lon="6.61687">
        <ele>604.6</ele>
        <time>2023-09-03T09:38:16Z</time>
      </trkpt>
      <trkpt lat="48.11006" lon="6.61684">
        <ele>604.6</ele>
        <time>2023-09-03T09:38:17Z</time>
      </trkpt>
      <trkpt lat="48.11007" lon="6.61683">
        <ele>604.4</ele>
        <time>2023-09-03T09:38:18Z</time>
      </trkpt>
      <trkpt lat="48.11008" lon="6.61683">
        <ele>604.4</ele>
        <time>2023-09-03T09:38:19Z</time>
      </trkpt>
      <trkpt lat="48.11009" lon="6.61685">
        <ele>604.4</ele>
        <time>2023-09-03T09:38:20Z</time>
      </trkpt>
      <trkpt lat="48.1101" lon="6.61686">
        <ele>604.4</ele>
        <time>2023-09-03T09:38:21Z</time>
      </trkpt>
      <trkpt lat="48.11015" lon="6.61688">
        <ele>604.4</ele>
        <time>2023-09-03T09:38:22Z</time>
      </trkpt>
      <trkpt lat="48.11016" lon="6.61695">
        <ele>604.2</ele>
        <time>2023-09-03T09:38:23Z</time>
      </trkpt>
      <trkpt lat="48.11017" lon="6.617">
        <ele>604</ele>
        <time>2023-09-03T09:38:24Z</time>
      </trkpt>
      <trkpt lat="48.11019" lon="6.61705">
        <ele>603.8</ele>
        <time>2023-09-03T09:38:25Z</time>
      </trkpt>
      <trkpt lat="48.11021" lon="6.61713">
        <ele>603.6</ele>
        <time>2023-09-03T09:38:26Z</time>
      </trkpt>
      <trkpt lat="48.11022" lon="6.61722">
        <ele>603.6</ele>
        <time>2023-09-03T09:38:27Z</time>
      </trkpt>
      <trkpt lat="48.11025" lon="6.61731">
        <ele>603.6</ele>
        <time>2023-09-03T09:38:28Z</time>
      </trkpt>
      <trkpt lat="48.11028" lon="6.6174">
        <ele>603.6</ele>
        <time>2023-09-03T09:38:29Z</time>
      </trkpt>
      <trkpt lat="48.1103" lon="6.61747">
        <ele>603.6</ele>
        <time>2023-09-03T09:38:30Z</time>
      </trkpt>
      <trkpt lat="48.11032" lon="6.61755">
        <ele>603.4</ele>
        <time>2023-09-03T09:38:31Z</time>
      </trkpt>
      <trkpt lat="48.11036" lon="6.61763">
        <ele>603.4</ele>
        <time>2023-09-03T09:38:32Z</time>
      </trkpt>
      <trkpt lat="48.11038" lon="6.61771">
        <ele>603.4</ele>
        <time>2023-09-03T09:38:33Z</time>
      </trkpt>
      <trkpt lat="48.1104" lon="6.6178">
        <ele>603.4</ele>
        <time>2023-09-03T09:38:34Z</time>
      </trkpt>
      <trkpt lat="48.11041" lon="6.61788">
        <ele>603.2</ele>
        <time>2023-09-03T09:38:35Z</time>
      </trkpt>
      <trkpt lat="48.11042" lon="6.61798">
        <ele>603</ele>
        <time>2023-09-03T09:38:36Z</time>
      </trkpt>
      <trkpt lat="48.11044" lon="6.61806">
        <ele>603</ele>
        <time>2023-09-03T09:38:37Z</time>
      </trkpt>
      <trkpt lat="48.11046" lon="6.61815">
        <ele>602.8</ele>
        <time>2023-09-03T09:38:38Z</time>
      </trkpt>
      <trkpt lat="48.11048" lon="6.61823">
        <ele>602.8</ele>
        <time>2023-09-03T09:38:39Z</time>
      </trkpt>
      <trkpt lat="48.11049" lon="6.61829">
        <ele>602.6</ele>
        <time>2023-09-03T09:38:40Z</time>
      </trkpt>
      <trkpt lat="48.1105" lon="6.61834">
        <ele>602.6</ele>
        <time>2023-09-03T09:38:41Z</time>
      </trkpt>
      <trkpt lat="48.11049" lon="6.61841">
        <ele>602.6</ele>
        <time>2023-09-03T09:38:42Z</time>
      </trkpt>
      <trkpt lat="48.11051" lon="6.61849">
        <ele>602.6</ele>
        <time>2023-09-03T09:38:43Z</time>
      </trkpt>
      <trkpt lat="48.11051" lon="6.61857">
        <ele>602.6</ele>
        <time>2023-09-03T09:38:44Z</time>
      </trkpt>
      <trkpt lat="48.11051" lon="6.61865">
        <ele>602.6</ele>
        <time>2023-09-03T09:38:45Z</time>
      </trkpt>
      <trkpt lat="48.11052" lon="6.61875">
        <ele>602.6</ele>
        <time>2023-09-03T09:38:46Z</time>
      </trkpt>
      <trkpt lat="48.11054" lon="6.61884">
        <ele>602.6</ele>
        <time>2023-09-03T09:38:47Z</time>
      </trkpt>
      <trkpt lat="48.11057" lon="6.61893">
        <ele>602.6</ele>
        <time>2023-09-03T09:38:48Z</time>
      </trkpt>
      <trkpt lat="48.11059" lon="6.61902">
        <ele>602.6</ele>
        <time>2023-09-03T09:38:49Z</time>
      </trkpt>
      <trkpt lat="48.11059" lon="6.6191">
        <ele>602.8</ele>
        <time>2023-09-03T09:38:50Z</time>
      </trkpt>
      <trkpt lat="48.1106" lon="6.61917">
        <ele>602.8</ele>
        <time>2023-09-03T09:38:51Z</time>
      </trkpt>
      <trkpt lat="48.11061" lon="6.61925">
        <ele>602.8</ele>
        <time>2023-09-03T09:38:52Z</time>
      </trkpt>
      <trkpt lat="48.11061" lon="6.61931">
        <ele>603</ele>
        <time>2023-09-03T09:38:53Z</time>
      </trkpt>
      <trkpt lat="48.11059" lon="6.61936">
        <ele>603</ele>
        <time>2023-09-03T09:38:54Z</time>
      </trkpt>
      <trkpt lat="48.11059" lon="6.61941">
        <ele>603</ele>
        <time>2023-09-03T09:38:55Z</time>
      </trkpt>
      <trkpt lat="48.11061" lon="6.61945">
        <ele>603</ele>
        <time>2023-09-03T09:38:56Z</time>
      </trkpt>
      <trkpt lat="48.11059" lon="6.61949">
        <ele>603.2</ele>
        <time>2023-09-03T09:38:57Z</time>
      </trkpt>
      <trkpt lat="48.11055" lon="6.61953">
        <ele>603.2</ele>
        <time>2023-09-03T09:38:58Z</time>
      </trkpt>
      <trkpt lat="48.11054" lon="6.61955">
        <ele>603.4</ele>
        <time>2023-09-03T09:38:59Z</time>
      </trkpt>
      <trkpt lat="48.11054" lon="6.61956">
        <ele>603.6</ele>
        <time>2023-09-03T09:39:00Z</time>
      </trkpt>
      <trkpt lat="48.11056" lon="6.61959">
        <ele>603.8</ele>
        <time>2023-09-03T09:39:01Z</time>
      </trkpt>
      <trkpt lat="48.11056" lon="6.61962">
        <ele>604.4</ele>
        <time>2023-09-03T09:39:02Z</time>
      </trkpt>
      <trkpt lat="48.11056" lon="6.61964">
        <ele>604.4</ele>
        <time>2023-09-03T09:39:03Z</time>
      </trkpt>
      <trkpt lat="48.11056" lon="6.61966">
        <ele>604.8</ele>
        <time>2023-09-03T09:39:04Z</time>
      </trkpt>
      <trkpt lat="48.11057" lon="6.61969">
        <ele>605</ele>
        <time>2023-09-03T09:39:05Z</time>
      </trkpt>
      <trkpt lat="48.11057" lon="6.6197">
        <ele>605.2</ele>
        <time>2023-09-03T09:39:06Z</time>
      </trkpt>
      <trkpt lat="48.11057" lon="6.61972">
        <ele>605.2</ele>
        <time>2023-09-03T09:39:07Z</time>
      </trkpt>
      <trkpt lat="48.11056" lon="6.61974">
        <ele>605.4</ele>
        <time>2023-09-03T09:39:08Z</time>
      </trkpt>
      <trkpt lat="48.11056" lon="6.61976">
        <ele>605.6</ele>
        <time>2023-09-03T09:39:09Z</time>
      </trkpt>
      <trkpt lat="48.11055" lon="6.61978">
        <ele>605.8</ele>
        <time>2023-09-03T09:39:10Z</time>
      </trkpt>
      <trkpt lat="48.11055" lon="6.61981">
        <ele>605.8</ele>
        <time>2023-09-03T09:39:11Z</time>
      </trkpt>
      <trkpt lat="48.11055" lon="6.61983">
        <ele>606.2</ele>
        <time>2023-09-03T09:39:12Z</time>
      </trkpt>
      <trkpt lat="48.11055" lon="6.61985">
        <ele>606.4</ele>
        <time>2023-09-03T09:39:13Z</time>
      </trkpt>
      <trkpt lat="48.11055" lon="6.61988">
        <ele>606.6</ele>
        <time>2023-09-03T09:39:14Z</time>
      </trkpt>
      <trkpt lat="48.11056" lon="6.6199">
        <ele>606.8</ele>
        <time>2023-09-03T09:39:15Z</time>
      </trkpt>
      <trkpt lat="48.11056" lon="6.61993">
        <ele>607</ele>
        <time>2023-09-03T09:39:16Z</time>
      </trkpt>
      <trkpt lat="48.11057" lon="6.61996">
        <ele>607.2</ele>
        <time>2023-09-03T09:39:17Z</time>
      </trkpt>
      <trkpt lat="48.11058" lon="6.61998">
        <ele>607.4</ele>
        <time>2023-09-03T09:39:18Z</time>
      </trkpt>
      <trkpt lat="48.11058" lon="6.62001">
        <ele>607.6</ele>
        <time>2023-09-03T09:39:19Z</time>
      </trkpt>
      <trkpt lat="48.11058" lon="6.62004">
        <ele>607.8</ele>
        <time>2023-09-03T09:39:20Z</time>
      </trkpt>
      <trkpt lat="48.11059" lon="6.62007">
        <ele>608.2</ele>
        <time>2023-09-03T09:39:21Z</time>
      </trkpt>
      <trkpt lat="48.11058" lon="6.62011">
        <ele>608.4</ele>
        <time>2023-09-03T09:39:22Z</time>
      </trkpt>
      <trkpt lat="48.11058" lon="6.62015">
        <ele>608.6</ele>
        <time>2023-09-03T09:39:23Z</time>
      </trkpt>
      <trkpt lat="48.11058" lon="6.62018">
        <ele>608.6</ele>
        <time>2023-09-03T09:39:24Z</time>
      </trkpt>
      <trkpt lat="48.11058" lon="6.6202">
        <ele>608.8</ele>
        <time>2023-09-03T09:39:25Z</time>
      </trkpt>
      <trkpt lat="48.11058" lon="6.62023">
        <ele>609</ele>
        <time>2023-09-03T09:39:26Z</time>
      </trkpt>
      <trkpt lat="48.11057" lon="6.62027">
        <ele>609</ele>
        <time>2023-09-03T09:39:27Z</time>
      </trkpt>
      <trkpt lat="48.11057" lon="6.6203">
        <ele>609</ele>
        <time>2023-09-03T09:39:28Z</time>
      </trkpt>
      <trkpt lat="48.11056" lon="6.62034">
        <ele>609.2</ele>
        <time>2023-09-03T09:39:29Z</time>
      </trkpt>
      <trkpt lat="48.11055" lon="6.62037">
        <ele>609.2</ele>
        <time>2023-09-03T09:39:30Z</time>
      </trkpt>
      <trkpt lat="48.11052" lon="6.62041">
        <ele>609.2</ele>
        <time>2023-09-03T09:39:31Z</time>
      </trkpt>
      <trkpt lat="48.11051" lon="6.62044">
        <ele>609.2</ele>
        <time>2023-09-03T09:39:32Z</time>
      </trkpt>
      <trkpt lat="48.11053" lon="6.6205">
        <ele>609.4</ele>
        <time>2023-09-03T09:39:33Z</time>
      </trkpt>
      <trkpt lat="48.11056" lon="6.62055">
        <ele>609.6</ele>
        <time>2023-09-03T09:39:34Z</time>
      </trkpt>
      <trkpt lat="48.11058" lon="6.6206">
        <ele>609.4</ele>
        <time>2023-09-03T09:39:35Z</time>
      </trkpt>
      <trkpt lat="48.11061" lon="6.62065">
        <ele>609.6</ele>
        <time>2023-09-03T09:39:36Z</time>
      </trkpt>
      <trkpt lat="48.11063" lon="6.62071">
        <ele>609.6</ele>
        <time>2023-09-03T09:39:37Z</time>
      </trkpt>
      <trkpt lat="48.11063" lon="6.62075">
        <ele>609.6</ele>
        <time>2023-09-03T09:39:38Z</time>
      </trkpt>
      <trkpt lat="48.11062" lon="6.6208">
        <ele>609.8</ele>
        <time>2023-09-03T09:39:39Z</time>
      </trkpt>
      <trkpt lat="48.11062" lon="6.62084">
        <ele>609.8</ele>
        <time>2023-09-03T09:39:40Z</time>
      </trkpt>
      <trkpt lat="48.11062" lon="6.62088">
        <ele>609.8</ele>
        <time>2023-09-03T09:39:41Z</time>
      </trkpt>
      <trkpt lat="48.11062" lon="6.62091">
        <ele>609.8</ele>
        <time>2023-09-03T09:39:42Z</time>
      </trkpt>
      <trkpt lat="48.11062" lon="6.62095">
        <ele>610</ele>
        <time>2023-09-03T09:39:43Z</time>
      </trkpt>
      <trkpt lat="48.11062" lon="6.62099">
        <ele>610</ele>
        <time>2023-09-03T09:39:44Z</time>
      </trkpt>
      <trkpt lat="48.11063" lon="6.62103">
        <ele>610.2</ele>
        <time>2023-09-03T09:39:45Z</time>
      </trkpt>
      <trkpt lat="48.11066" lon="6.62108">
        <ele>610.2</ele>
        <time>2023-09-03T09:39:46Z</time>
      </trkpt>
      <trkpt lat="48.11066" lon="6.62111">
        <ele>610.2</ele>
        <time>2023-09-03T09:39:47Z</time>
      </trkpt>
      <trkpt lat="48.11066" lon="6.62115">
        <ele>610.2</ele>
        <time>2023-09-03T09:39:48Z</time>
      </trkpt>
      <trkpt lat="48.11066" lon="6.62119">
        <ele>610.4</ele>
        <time>2023-09-03T09:39:49Z</time>
      </trkpt>
      <trkpt lat="48.11066" lon="6.62123">
        <ele>610.4</ele>
        <time>2023-09-03T09:39:50Z</time>
      </trkpt>
      <trkpt lat="48.11066" lon="6.62127">
        <ele>610.4</ele>
        <time>2023-09-03T09:39:51Z</time>
      </trkpt>
      <trkpt lat="48.11066" lon="6.62131">
        <ele>610.6</ele>
        <time>2023-09-03T09:39:52Z</time>
      </trkpt>
      <trkpt lat="48.11067" lon="6.62135">
        <ele>610.6</ele>
        <time>2023-09-03T09:39:53Z</time>
      </trkpt>
      <trkpt lat="48.11066" lon="6.62138">
        <ele>610.8</ele>
        <time>2023-09-03T09:39:54Z</time>
      </trkpt>
      <trkpt lat="48.11064" lon="6.62141">
        <ele>610.8</ele>
        <time>2023-09-03T09:39:55Z</time>
      </trkpt>
      <trkpt lat="48.11064" lon="6.62143">
        <ele>611</ele>
        <time>2023-09-03T09:39:56Z</time>
      </trkpt>
      <trkpt lat="48.11063" lon="6.62146">
        <ele>611</ele>
        <time>2023-09-03T09:39:57Z</time>
      </trkpt>
      <trkpt lat="48.11063" lon="6.62149">
        <ele>611</ele>
        <time>2023-09-03T09:39:58Z</time>
      </trkpt>
      <trkpt lat="48.11063" lon="6.62153">
        <ele>611</ele>
        <time>2023-09-03T09:39:59Z</time>
      </trkpt>
      <trkpt lat="48.11064" lon="6.62156">
        <ele>611.2</ele>
        <time>2023-09-03T09:40:00Z</time>
      </trkpt>
      <trkpt lat="48.11064" lon="6.62159">
        <ele>611.2</ele>
        <time>2023-09-03T09:40:01Z</time>
      </trkpt>
      <trkpt lat="48.11065" lon="6.62162">
        <ele>611.2</ele>
        <time>2023-09-03T09:40:02Z</time>
      </trkpt>
      <trkpt lat="48.11066" lon="6.62167">
        <ele>611.2</ele>
        <time>2023-09-03T09:40:03Z</time>
      </trkpt>
      <trkpt lat="48.11066" lon="6.62171">
        <ele>611.2</ele>
        <time>2023-09-03T09:40:04Z</time>
      </trkpt>
      <trkpt lat="48.11068" lon="6.62174">
        <ele>611.2</ele>
        <time>2023-09-03T09:40:05Z</time>
      </trkpt>
      <trkpt lat="48.1107" lon="6.62177">
        <ele>611.2</ele>
        <time>2023-09-03T09:40:06Z</time>
      </trkpt>
      <trkpt lat="48.11072" lon="6.6218">
        <ele>611</ele>
        <time>2023-09-03T09:40:07Z</time>
      </trkpt>
      <trkpt lat="48.11074" lon="6.62182">
        <ele>611</ele>
        <time>2023-09-03T09:40:08Z</time>
      </trkpt>
      <trkpt lat="48.11074" lon="6.62185">
        <ele>611</ele>
        <time>2023-09-03T09:40:09Z</time>
      </trkpt>
      <trkpt lat="48.11075" lon="6.62188">
        <ele>611.2</ele>
        <time>2023-09-03T09:40:10Z</time>
      </trkpt>
      <trkpt lat="48.11076" lon="6.62192">
        <ele>611.4</ele>
        <time>2023-09-03T09:40:11Z</time>
      </trkpt>
      <trkpt lat="48.11079" lon="6.62195">
        <ele>611.4</ele>
        <time>2023-09-03T09:40:12Z</time>
      </trkpt>
      <trkpt lat="48.11081" lon="6.62198">
        <ele>611.4</ele>
        <time>2023-09-03T09:40:13Z</time>
      </trkpt>
      <trkpt lat="48.11082" lon="6.62201">
        <ele>611.4</ele>
        <time>2023-09-03T09:40:14Z</time>
      </trkpt>
      <trkpt lat="48.11084" lon="6.62203">
        <ele>611.6</ele>
        <time>2023-09-03T09:40:15Z</time>
      </trkpt>
      <trkpt lat="48.11086" lon="6.62206">
        <ele>611.8</ele>
        <time>2023-09-03T09:40:16Z</time>
      </trkpt>
      <trkpt lat="48.11086" lon="6.62209">
        <ele>611.8</ele>
        <time>2023-09-03T09:40:17Z</time>
      </trkpt>
      <trkpt lat="48.11087" lon="6.62212">
        <ele>611.8</ele>
        <time>2023-09-03T09:40:18Z</time>
      </trkpt>
      <trkpt lat="48.11089" lon="6.62216">
        <ele>612</ele>
        <time>2023-09-03T09:40:19Z</time>
      </trkpt>
      <trkpt lat="48.1109" lon="6.62219">
        <ele>612</ele>
        <time>2023-09-03T09:40:20Z</time>
      </trkpt>
      <trkpt lat="48.11093" lon="6.62224">
        <ele>612</ele>
        <time>2023-09-03T09:40:21Z</time>
      </trkpt>
      <trkpt lat="48.11094" lon="6.62227">
        <ele>612</ele>
        <time>2023-09-03T09:40:22Z</time>
      </trkpt>
      <trkpt lat="48.11097" lon="6.62231">
        <ele>612</ele>
        <time>2023-09-03T09:40:23Z</time>
      </trkpt>
      <trkpt lat="48.11099" lon="6.62235">
        <ele>612.2</ele>
        <time>2023-09-03T09:40:24Z</time>
      </trkpt>
      <trkpt lat="48.11101" lon="6.62238">
        <ele>612</ele>
        <time>2023-09-03T09:40:25Z</time>
      </trkpt>
      <trkpt lat="48.11103" lon="6.62241">
        <ele>612</ele>
        <time>2023-09-03T09:40:26Z</time>
      </trkpt>
      <trkpt lat="48.11104" lon="6.62244">
        <ele>611.8</ele>
        <time>2023-09-03T09:40:27Z</time>
      </trkpt>
      <trkpt lat="48.11106" lon="6.62247">
        <ele>611.8</ele>
        <time>2023-09-03T09:40:28Z</time>
      </trkpt>
      <trkpt lat="48.11107" lon="6.6225">
        <ele>611.8</ele>
        <time>2023-09-03T09:40:29Z</time>
      </trkpt>
      <trkpt lat="48.11107" lon="6.62253">
        <ele>611.6</ele>
        <time>2023-09-03T09:40:30Z</time>
      </trkpt>
      <trkpt lat="48.11108" lon="6.62256">
        <ele>612</ele>
        <time>2023-09-03T09:40:31Z</time>
      </trkpt>
      <trkpt lat="48.11108" lon="6.62259">
        <ele>612</ele>
        <time>2023-09-03T09:40:32Z</time>
      </trkpt>
      <trkpt lat="48.11107" lon="6.62262">
        <ele>612</ele>
        <time>2023-09-03T09:40:33Z</time>
      </trkpt>
      <trkpt lat="48.11111" lon="6.62265">
        <ele>612</ele>
        <time>2023-09-03T09:40:34Z</time>
      </trkpt>
      <trkpt lat="48.11112" lon="6.62266">
        <ele>612</ele>
        <time>2023-09-03T09:40:35Z</time>
      </trkpt>
      <trkpt lat="48.11113" lon="6.62268">
        <ele>612.2</ele>
        <time>2023-09-03T09:40:36Z</time>
      </trkpt>
      <trkpt lat="48.11115" lon="6.62269">
        <ele>612.2</ele>
        <time>2023-09-03T09:40:37Z</time>
      </trkpt>
      <trkpt lat="48.11116" lon="6.62269">
        <ele>612.2</ele>
        <time>2023-09-03T09:40:38Z</time>
      </trkpt>
      <trkpt lat="48.11117" lon="6.62269">
        <ele>612.2</ele>
        <time>2023-09-03T09:40:39Z</time>
      </trkpt>
      <trkpt lat="48.11118" lon="6.62272">
        <ele>612</ele>
        <time>2023-09-03T09:51:10Z</time>
      </trkpt>
      <trkpt lat="48.11119" lon="6.62274">
        <ele>612</ele>
        <time>2023-09-03T09:51:11Z</time>
      </trkpt>
      <trkpt lat="48.11121" lon="6.62275">
        <ele>612</ele>
        <time>2023-09-03T09:51:12Z</time>
      </trkpt>
      <trkpt lat="48.11122" lon="6.62276">
        <ele>612</ele>
        <time>2023-09-03T09:51:13Z</time>
      </trkpt>
      <trkpt lat="48.11124" lon="6.62277">
        <ele>612</ele>
        <time>2023-09-03T09:51:14Z</time>
      </trkpt>
      <trkpt lat="48.11125" lon="6.62277">
        <ele>612</ele>
        <time>2023-09-03T09:51:15Z</time>
      </trkpt>
      <trkpt lat="48.11127" lon="6.62277">
        <ele>612.4</ele>
        <time>2023-09-03T09:51:16Z</time>
      </trkpt>
      <trkpt lat="48.1113" lon="6.62277">
        <ele>612.4</ele>
        <time>2023-09-03T09:51:17Z</time>
      </trkpt>
      <trkpt lat="48.11132" lon="6.62276">
        <ele>612.6</ele>
        <time>2023-09-03T09:51:18Z</time>
      </trkpt>
      <trkpt lat="48.11134" lon="6.62273">
        <ele>612.6</ele>
        <time>2023-09-03T09:51:19Z</time>
      </trkpt>
      <trkpt lat="48.11135" lon="6.62271">
        <ele>612.8</ele>
        <time>2023-09-03T09:51:20Z</time>
      </trkpt>
      <trkpt lat="48.11136" lon="6.62268">
        <ele>612.8</ele>
        <time>2023-09-03T09:51:21Z</time>
      </trkpt>
      <trkpt lat="48.11136" lon="6.62266">
        <ele>612.8</ele>
        <time>2023-09-03T09:51:22Z</time>
      </trkpt>
      <trkpt lat="48.11138" lon="6.62262">
        <ele>612.8</ele>
        <time>2023-09-03T09:51:23Z</time>
      </trkpt>
      <trkpt lat="48.11139" lon="6.62259">
        <ele>612.8</ele>
        <time>2023-09-03T09:51:24Z</time>
      </trkpt>
      <trkpt lat="48.11141" lon="6.62256">
        <ele>612.8</ele>
        <time>2023-09-03T09:51:25Z</time>
      </trkpt>
      <trkpt lat="48.11142" lon="6.62252">
        <ele>612.8</ele>
        <time>2023-09-03T09:51:26Z</time>
      </trkpt>
      <trkpt lat="48.11144" lon="6.62247">
        <ele>612.8</ele>
        <time>2023-09-03T09:51:27Z</time>
      </trkpt>
      <trkpt lat="48.11145" lon="6.62243">
        <ele>612.8</ele>
        <time>2023-09-03T09:51:28Z</time>
      </trkpt>
      <trkpt lat="48.11147" lon="6.62237">
        <ele>612.8</ele>
        <time>2023-09-03T09:51:29Z</time>
      </trkpt>
      <trkpt lat="48.11149" lon="6.62233">
        <ele>612.8</ele>
        <time>2023-09-03T09:51:30Z</time>
      </trkpt>
      <trkpt lat="48.11151" lon="6.62228">
        <ele>612.8</ele>
        <time>2023-09-03T09:51:31Z</time>
      </trkpt>
      <trkpt lat="48.11152" lon="6.62221">
        <ele>612.6</ele>
        <time>2023-09-03T09:51:32Z</time>
      </trkpt>
      <trkpt lat="48.11153" lon="6.62216">
        <ele>612.2</ele>
        <time>2023-09-03T09:51:33Z</time>
      </trkpt>
      <trkpt lat="48.11155" lon="6.62209">
        <ele>612</ele>
        <time>2023-09-03T09:51:34Z</time>
      </trkpt>
      <trkpt lat="48.11157" lon="6.62201">
        <ele>611.6</ele>
        <time>2023-09-03T09:51:35Z</time>
      </trkpt>
      <trkpt lat="48.1116" lon="6.62194">
        <ele>611.4</ele>
        <time>2023-09-03T09:51:36Z</time>
      </trkpt>
      <trkpt lat="48.11164" lon="6.62187">
        <ele>611.4</ele>
        <time>2023-09-03T09:51:37Z</time>
      </trkpt>
      <trkpt lat="48.11168" lon="6.62184">
        <ele>611.6</ele>
        <time>2023-09-03T09:51:38Z</time>
      </trkpt>
      <trkpt lat="48.11172" lon="6.62181">
        <ele>611.6</ele>
        <time>2023-09-03T09:51:39Z</time>
      </trkpt>
      <trkpt lat="48.11181" lon="6.62174">
        <ele>612</ele>
        <time>2023-09-03T09:51:40Z</time>
      </trkpt>
      <trkpt lat="48.11186" lon="6.62172">
        <ele>611.4</ele>
        <time>2023-09-03T09:51:41Z</time>
      </trkpt>
      <trkpt lat="48.11191" lon="6.6217">
        <ele>611.4</ele>
        <time>2023-09-03T09:51:42Z</time>
      </trkpt>
      <trkpt lat="48.11196" lon="6.62168">
        <ele>611.4</ele>
        <time>2023-09-03T09:51:43Z</time>
      </trkpt>
      <trkpt lat="48.11202" lon="6.62166">
        <ele>611</ele>
        <time>2023-09-03T09:51:44Z</time>
      </trkpt>
      <trkpt lat="48.11207" lon="6.62164">
        <ele>611</ele>
        <time>2023-09-03T09:51:45Z</time>
      </trkpt>
      <trkpt lat="48.11213" lon="6.62162">
        <ele>611</ele>
        <time>2023-09-03T09:51:46Z</time>
      </trkpt>
      <trkpt lat="48.11218" lon="6.62161">
        <ele>610.8</ele>
        <time>2023-09-03T09:51:47Z</time>
      </trkpt>
      <trkpt lat="48.11225" lon="6.6216">
        <ele>610.8</ele>
        <time>2023-09-03T09:51:48Z</time>
      </trkpt>
      <trkpt lat="48.11231" lon="6.62157">
        <ele>610.8</ele>
        <time>2023-09-03T09:51:49Z</time>
      </trkpt>
      <trkpt lat="48.11237" lon="6.62155">
        <ele>610.4</ele>
        <time>2023-09-03T09:51:50Z</time>
      </trkpt>
      <trkpt lat="48.11242" lon="6.62154">
        <ele>610.2</ele>
        <time>2023-09-03T09:51:51Z</time>
      </trkpt>
      <trkpt lat="48.11248" lon="6.62152">
        <ele>609.6</ele>
        <time>2023-09-03T09:51:52Z</time>
      </trkpt>
      <trkpt lat="48.11252" lon="6.62151">
        <ele>609.4</ele>
        <time>2023-09-03T09:51:53Z</time>
      </trkpt>
      <trkpt lat="48.11255" lon="6.6215">
        <ele>608.6</ele>
        <time>2023-09-03T09:51:54Z</time>
      </trkpt>
      <trkpt lat="48.11258" lon="6.62148">
        <ele>608.4</ele>
        <time>2023-09-03T09:51:55Z</time>
      </trkpt>
      <trkpt lat="48.11263" lon="6.62148">
        <ele>608.4</ele>
        <time>2023-09-03T09:51:56Z</time>
      </trkpt>
      <trkpt lat="48.11267" lon="6.62148">
        <ele>608.4</ele>
        <time>2023-09-03T09:51:57Z</time>
      </trkpt>
      <trkpt lat="48.1127" lon="6.62145">
        <ele>607.8</ele>
        <time>2023-09-03T09:51:58Z</time>
      </trkpt>
      <trkpt lat="48.11272" lon="6.62141">
        <ele>607.2</ele>
        <time>2023-09-03T09:51:59Z</time>
      </trkpt>
      <trkpt lat="48.11273" lon="6.62138">
        <ele>607</ele>
        <time>2023-09-03T09:52:00Z</time>
      </trkpt>
      <trkpt lat="48.11274" lon="6.62135">
        <ele>606.6</ele>
        <time>2023-09-03T09:52:01Z</time>
      </trkpt>
      <trkpt lat="48.11276" lon="6.62133">
        <ele>606.4</ele>
        <time>2023-09-03T09:52:02Z</time>
      </trkpt>
      <trkpt lat="48.11277" lon="6.62131">
        <ele>606</ele>
        <time>2023-09-03T09:52:03Z</time>
      </trkpt>
      <trkpt lat="48.11279" lon="6.62127">
        <ele>605.8</ele>
        <time>2023-09-03T09:52:04Z</time>
      </trkpt>
      <trkpt lat="48.11279" lon="6.62122">
        <ele>605.6</ele>
        <time>2023-09-03T09:52:05Z</time>
      </trkpt>
      <trkpt lat="48.11282" lon="6.62119">
        <ele>605.4</ele>
        <time>2023-09-03T09:52:06Z</time>
      </trkpt>
      <trkpt lat="48.11285" lon="6.62112">
        <ele>605.2</ele>
        <time>2023-09-03T09:52:07Z</time>
      </trkpt>
      <trkpt lat="48.11288" lon="6.62108">
        <ele>605</ele>
        <time>2023-09-03T09:52:08Z</time>
      </trkpt>
      <trkpt lat="48.1129" lon="6.62106">
        <ele>604.6</ele>
        <time>2023-09-03T09:52:09Z</time>
      </trkpt>
      <trkpt lat="48.11295" lon="6.621">
        <ele>603.8</ele>
        <time>2023-09-03T09:52:10Z</time>
      </trkpt>
      <trkpt lat="48.11298" lon="6.62094">
        <ele>603.4</ele>
        <time>2023-09-03T09:52:11Z</time>
      </trkpt>
      <trkpt lat="48.11299" lon="6.62089">
        <ele>602.6</ele>
        <time>2023-09-03T09:52:12Z</time>
      </trkpt>
      <trkpt lat="48.11301" lon="6.6209">
        <ele>602.4</ele>
        <time>2023-09-03T09:52:13Z</time>
      </trkpt>
      <trkpt lat="48.11303" lon="6.62094">
        <ele>602</ele>
        <time>2023-09-03T09:52:14Z</time>
      </trkpt>
      <trkpt lat="48.11305" lon="6.62099">
        <ele>601.8</ele>
        <time>2023-09-03T09:52:15Z</time>
      </trkpt>
      <trkpt lat="48.11308" lon="6.62106">
        <ele>601.4</ele>
        <time>2023-09-03T09:52:16Z</time>
      </trkpt>
      <trkpt lat="48.11311" lon="6.62111">
        <ele>601</ele>
        <time>2023-09-03T09:52:17Z</time>
      </trkpt>
      <trkpt lat="48.11314" lon="6.62117">
        <ele>600.6</ele>
        <time>2023-09-03T09:52:18Z</time>
      </trkpt>
      <trkpt lat="48.11318" lon="6.62124">
        <ele>600.4</ele>
        <time>2023-09-03T09:52:19Z</time>
      </trkpt>
      <trkpt lat="48.11321" lon="6.62128">
        <ele>600.4</ele>
        <time>2023-09-03T09:52:20Z</time>
      </trkpt>
      <trkpt lat="48.11324" lon="6.6213">
        <ele>600.4</ele>
        <time>2023-09-03T09:52:21Z</time>
      </trkpt>
      <trkpt lat="48.11329" lon="6.62134">
        <ele>600.4</ele>
        <time>2023-09-03T09:52:22Z</time>
      </trkpt>
      <trkpt lat="48.11334" lon="6.62138">
        <ele>600.4</ele>
        <time>2023-09-03T09:52:23Z</time>
      </trkpt>
      <trkpt lat="48.11339" lon="6.62143">
        <ele>600.4</ele>
        <time>2023-09-03T09:52:24Z</time>
      </trkpt>
      <trkpt lat="48.11345" lon="6.62148">
        <ele>600.2</ele>
        <time>2023-09-03T09:52:25Z</time>
      </trkpt>
      <trkpt lat="48.11349" lon="6.62151">
        <ele>600</ele>
        <time>2023-09-03T09:52:26Z</time>
      </trkpt>
      <trkpt lat="48.11353" lon="6.62153">
        <ele>599.8</ele>
        <time>2023-09-03T09:52:27Z</time>
      </trkpt>
      <trkpt lat="48.11356" lon="6.62153">
        <ele>599.8</ele>
        <time>2023-09-03T09:52:28Z</time>
      </trkpt>
      <trkpt lat="48.11362" lon="6.62153">
        <ele>599.8</ele>
        <time>2023-09-03T09:52:29Z</time>
      </trkpt>
      <trkpt lat="48.11366" lon="6.62156">
        <ele>599.6</ele>
        <time>2023-09-03T09:52:30Z</time>
      </trkpt>
      <trkpt lat="48.11368" lon="6.62159">
        <ele>599.6</ele>
        <time>2023-09-03T09:52:31Z</time>
      </trkpt>
      <trkpt lat="48.11372" lon="6.62168">
        <ele>599.4</ele>
        <time>2023-09-03T09:52:32Z</time>
      </trkpt>
      <trkpt lat="48.11376" lon="6.62177">
        <ele>599.2</ele>
        <time>2023-09-03T09:52:33Z</time>
      </trkpt>
      <trkpt lat="48.1138" lon="6.62185">
        <ele>599</ele>
        <time>2023-09-03T09:52:34Z</time>
      </trkpt>
      <trkpt lat="48.11383" lon="6.62192">
        <ele>598.8</ele>
        <time>2023-09-03T09:52:35Z</time>
      </trkpt>
      <trkpt lat="48.11386" lon="6.62197">
        <ele>598.8</ele>
        <time>2023-09-03T09:52:36Z</time>
      </trkpt>
      <trkpt lat="48.11391" lon="6.62203">
        <ele>598.6</ele>
        <time>2023-09-03T09:52:37Z</time>
      </trkpt>
      <trkpt lat="48.11396" lon="6.62208">
        <ele>598.6</ele>
        <time>2023-09-03T09:52:38Z</time>
      </trkpt>
      <trkpt lat="48.114" lon="6.62212">
        <ele>598.6</ele>
        <time>2023-09-03T09:52:39Z</time>
      </trkpt>
      <trkpt lat="48.11406" lon="6.62217">
        <ele>598.6</ele>
        <time>2023-09-03T09:52:40Z</time>
      </trkpt>
      <trkpt lat="48.1141" lon="6.62219">
        <ele>598.4</ele>
        <time>2023-09-03T09:52:41Z</time>
      </trkpt>
      <trkpt lat="48.11416" lon="6.6222">
        <ele>598.4</ele>
        <time>2023-09-03T09:52:42Z</time>
      </trkpt>
      <trkpt lat="48.1142" lon="6.6222">
        <ele>598.4</ele>
        <time>2023-09-03T09:52:43Z</time>
      </trkpt>
      <trkpt lat="48.11426" lon="6.62219">
        <ele>598.4</ele>
        <time>2023-09-03T09:52:44Z</time>
      </trkpt>
      <trkpt lat="48.11433" lon="6.62218">
        <ele>598.4</ele>
        <time>2023-09-03T09:52:45Z</time>
      </trkpt>
      <trkpt lat="48.11438" lon="6.62219">
        <ele>598.4</ele>
        <time>2023-09-03T09:52:46Z</time>
      </trkpt>
      <trkpt lat="48.11444" lon="6.6222">
        <ele>598.6</ele>
        <time>2023-09-03T09:52:47Z</time>
      </trkpt>
      <trkpt lat="48.11452" lon="6.62222">
        <ele>598.8</ele>
        <time>2023-09-03T09:52:48Z</time>
      </trkpt>
      <trkpt lat="48.11457" lon="6.62223">
        <ele>598.8</ele>
        <time>2023-09-03T09:52:49Z</time>
      </trkpt>
      <trkpt lat="48.11463" lon="6.62221">
        <ele>598.8</ele>
        <time>2023-09-03T09:52:50Z</time>
      </trkpt>
      <trkpt lat="48.11469" lon="6.62219">
        <ele>598.8</ele>
        <time>2023-09-03T09:52:51Z</time>
      </trkpt>
      <trkpt lat="48.11473" lon="6.62216">
        <ele>598.8</ele>
        <time>2023-09-03T09:52:52Z</time>
      </trkpt>
      <trkpt lat="48.11479" lon="6.62214">
        <ele>598.8</ele>
        <time>2023-09-03T09:52:53Z</time>
      </trkpt>
      <trkpt lat="48.11484" lon="6.62213">
        <ele>599</ele>
        <time>2023-09-03T09:52:54Z</time>
      </trkpt>
      <trkpt lat="48.11489" lon="6.62212">
        <ele>599</ele>
        <time>2023-09-03T09:52:55Z</time>
      </trkpt>
      <trkpt lat="48.11494" lon="6.62212">
        <ele>599.2</ele>
        <time>2023-09-03T09:52:56Z</time>
      </trkpt>
      <trkpt lat="48.11499" lon="6.62212">
        <ele>599.2</ele>
        <time>2023-09-03T09:52:57Z</time>
      </trkpt>
      <trkpt lat="48.11506" lon="6.62211">
        <ele>599.4</ele>
        <time>2023-09-03T09:52:58Z</time>
      </trkpt>
      <trkpt lat="48.1151" lon="6.62209">
        <ele>599.4</ele>
        <time>2023-09-03T09:52:59Z</time>
      </trkpt>
      <trkpt lat="48.11513" lon="6.62207">
        <ele>599.4</ele>
        <time>2023-09-03T09:53:00Z</time>
      </trkpt>
      <trkpt lat="48.11517" lon="6.62204">
        <ele>599.4</ele>
        <time>2023-09-03T09:53:01Z</time>
      </trkpt>
      <trkpt lat="48.11521" lon="6.62202">
        <ele>599.4</ele>
        <time>2023-09-03T09:53:02Z</time>
      </trkpt>
      <trkpt lat="48.11524" lon="6.62199">
        <ele>599.4</ele>
        <time>2023-09-03T09:53:03Z</time>
      </trkpt>
      <trkpt lat="48.11526" lon="6.62194">
        <ele>599.4</ele>
        <time>2023-09-03T09:53:04Z</time>
      </trkpt>
      <trkpt lat="48.1153" lon="6.62188">
        <ele>599.4</ele>
        <time>2023-09-03T09:53:05Z</time>
      </trkpt>
      <trkpt lat="48.11534" lon="6.62184">
        <ele>599.4</ele>
        <time>2023-09-03T09:53:06Z</time>
      </trkpt>
      <trkpt lat="48.11538" lon="6.6218">
        <ele>599.4</ele>
        <time>2023-09-03T09:53:07Z</time>
      </trkpt>
      <trkpt lat="48.11542" lon="6.62175">
        <ele>599.2</ele>
        <time>2023-09-03T09:53:08Z</time>
      </trkpt>
      <trkpt lat="48.11544" lon="6.6217">
        <ele>599.2</ele>
        <time>2023-09-03T09:53:09Z</time>
      </trkpt>
      <trkpt lat="48.11546" lon="6.62165">
        <ele>599.2</ele>
        <time>2023-09-03T09:53:10Z</time>
      </trkpt>
      <trkpt lat="48.11549" lon="6.62157">
        <ele>599.2</ele>
        <time>2023-09-03T09:53:11Z</time>
      </trkpt>
      <trkpt lat="48.11553" lon="6.62149">
        <ele>599</ele>
        <time>2023-09-03T09:53:12Z</time>
      </trkpt>
      <trkpt lat="48.11556" lon="6.62142">
        <ele>598.8</ele>
        <time>2023-09-03T09:53:13Z</time>
      </trkpt>
      <trkpt lat="48.1156" lon="6.62134">
        <ele>598.6</ele>
        <time>2023-09-03T09:53:14Z</time>
      </trkpt>
      <trkpt lat="48.11563" lon="6.62127">
        <ele>598.6</ele>
        <time>2023-09-03T09:53:15Z</time>
      </trkpt>
      <trkpt lat="48.11567" lon="6.62119">
        <ele>598.6</ele>
        <time>2023-09-03T09:53:16Z</time>
      </trkpt>
      <trkpt lat="48.11571" lon="6.62112">
        <ele>598.4</ele>
        <time>2023-09-03T09:53:17Z</time>
      </trkpt>
      <trkpt lat="48.11575" lon="6.62107">
        <ele>598.2</ele>
        <time>2023-09-03T09:53:18Z</time>
      </trkpt>
      <trkpt lat="48.1158" lon="6.62101">
        <ele>597.8</ele>
        <time>2023-09-03T09:53:19Z</time>
      </trkpt>
      <trkpt lat="48.11585" lon="6.62096">
        <ele>597.8</ele>
        <time>2023-09-03T09:53:20Z</time>
      </trkpt>
      <trkpt lat="48.11591" lon="6.62091">
        <ele>597.8</ele>
        <time>2023-09-03T09:53:21Z</time>
      </trkpt>
      <trkpt lat="48.11597" lon="6.62087">
        <ele>597.6</ele>
        <time>2023-09-03T09:53:22Z</time>
      </trkpt>
      <trkpt lat="48.11602" lon="6.62083">
        <ele>597.6</ele>
        <time>2023-09-03T09:53:23Z</time>
      </trkpt>
      <trkpt lat="48.11606" lon="6.62075">
        <ele>597.6</ele>
        <time>2023-09-03T09:53:24Z</time>
      </trkpt>
      <trkpt lat="48.11611" lon="6.62067">
        <ele>597.6</ele>
        <time>2023-09-03T09:53:25Z</time>
      </trkpt>
      <trkpt lat="48.11615" lon="6.62058">
        <ele>597.6</ele>
        <time>2023-09-03T09:53:26Z</time>
      </trkpt>
      <trkpt lat="48.1162" lon="6.62051">
        <ele>597.6</ele>
        <time>2023-09-03T09:53:27Z</time>
      </trkpt>
      <trkpt lat="48.11624" lon="6.62043">
        <ele>597.4</ele>
        <time>2023-09-03T09:53:28Z</time>
      </trkpt>
      <trkpt lat="48.11628" lon="6.62035">
        <ele>597.6</ele>
        <time>2023-09-03T09:53:29Z</time>
      </trkpt>
      <trkpt lat="48.11632" lon="6.62027">
        <ele>597.4</ele>
        <time>2023-09-03T09:53:30Z</time>
      </trkpt>
      <trkpt lat="48.11637" lon="6.62024">
        <ele>597.4</ele>
        <time>2023-09-03T09:53:31Z</time>
      </trkpt>
      <trkpt lat="48.1164" lon="6.62021">
        <ele>597.6</ele>
        <time>2023-09-03T09:53:32Z</time>
      </trkpt>
      <trkpt lat="48.11645" lon="6.62018">
        <ele>597.4</ele>
        <time>2023-09-03T09:53:33Z</time>
      </trkpt>
      <trkpt lat="48.11649" lon="6.62015">
        <ele>597.6</ele>
        <time>2023-09-03T09:53:34Z</time>
      </trkpt>
      <trkpt lat="48.11653" lon="6.62013">
        <ele>597.8</ele>
        <time>2023-09-03T09:53:35Z</time>
      </trkpt>
      <trkpt lat="48.11658" lon="6.62011">
        <ele>597.8</ele>
        <time>2023-09-03T09:53:36Z</time>
      </trkpt>
      <trkpt lat="48.11661" lon="6.62008">
        <ele>597.8</ele>
        <time>2023-09-03T09:53:37Z</time>
      </trkpt>
      <trkpt lat="48.11666" lon="6.62008">
        <ele>597.8</ele>
        <time>2023-09-03T09:53:38Z</time>
      </trkpt>
      <trkpt lat="48.11671" lon="6.62008">
        <ele>598</ele>
        <time>2023-09-03T09:53:39Z</time>
      </trkpt>
      <trkpt lat="48.11675" lon="6.62007">
        <ele>598.2</ele>
        <time>2023-09-03T09:53:40Z</time>
      </trkpt>
      <trkpt lat="48.11678" lon="6.62006">
        <ele>598.2</ele>
        <time>2023-09-03T09:53:41Z</time>
      </trkpt>
      <trkpt lat="48.11682" lon="6.62005">
        <ele>598.2</ele>
        <time>2023-09-03T09:53:42Z</time>
      </trkpt>
      <trkpt lat="48.11684" lon="6.62005">
        <ele>598.4</ele>
        <time>2023-09-03T09:53:43Z</time>
      </trkpt>
      <trkpt lat="48.11686" lon="6.62004">
        <ele>598.4</ele>
        <time>2023-09-03T09:53:44Z</time>
      </trkpt>
      <trkpt lat="48.11689" lon="6.62005">
        <ele>598.4</ele>
        <time>2023-09-03T09:53:45Z</time>
      </trkpt>
      <trkpt lat="48.11693" lon="6.62004">
        <ele>598.6</ele>
        <time>2023-09-03T09:53:46Z</time>
      </trkpt>
      <trkpt lat="48.11697" lon="6.62002">
        <ele>598.6</ele>
        <time>2023-09-03T09:53:47Z</time>
      </trkpt>
      <trkpt lat="48.11703" lon="6.61997">
        <ele>599</ele>
        <time>2023-09-03T09:53:48Z</time>
      </trkpt>
      <trkpt lat="48.11709" lon="6.61994">
        <ele>599.2</ele>
        <time>2023-09-03T09:53:49Z</time>
      </trkpt>
      <trkpt lat="48.11713" lon="6.61992">
        <ele>599.4</ele>
        <time>2023-09-03T09:53:50Z</time>
      </trkpt>
      <trkpt lat="48.11717" lon="6.61988">
        <ele>599.4</ele>
        <time>2023-09-03T09:53:51Z</time>
      </trkpt>
      <trkpt lat="48.1172" lon="6.61983">
        <ele>599.4</ele>
        <time>2023-09-03T09:53:52Z</time>
      </trkpt>
      <trkpt lat="48.11723" lon="6.61977">
        <ele>599.6</ele>
        <time>2023-09-03T09:53:53Z</time>
      </trkpt>
      <trkpt lat="48.11726" lon="6.61969">
        <ele>599.6</ele>
        <time>2023-09-03T09:53:54Z</time>
      </trkpt>
      <trkpt lat="48.1173" lon="6.61962">
        <ele>599.8</ele>
        <time>2023-09-03T09:53:55Z</time>
      </trkpt>
      <trkpt lat="48.11735" lon="6.61957">
        <ele>599.8</ele>
        <time>2023-09-03T09:53:56Z</time>
      </trkpt>
      <trkpt lat="48.11739" lon="6.61951">
        <ele>599.8</ele>
        <time>2023-09-03T09:53:57Z</time>
      </trkpt>
      <trkpt lat="48.11741" lon="6.61945">
        <ele>600</ele>
        <time>2023-09-03T09:53:58Z</time>
      </trkpt>
      <trkpt lat="48.11745" lon="6.6194">
        <ele>600</ele>
        <time>2023-09-03T09:53:59Z</time>
      </trkpt>
      <trkpt lat="48.1175" lon="6.61937">
        <ele>600</ele>
        <time>2023-09-03T09:54:00Z</time>
      </trkpt>
      <trkpt lat="48.11754" lon="6.61934">
        <ele>599.6</ele>
        <time>2023-09-03T09:54:01Z</time>
      </trkpt>
      <trkpt lat="48.11759" lon="6.61931">
        <ele>599.4</ele>
        <time>2023-09-03T09:54:02Z</time>
      </trkpt>
      <trkpt lat="48.11764" lon="6.61926">
        <ele>599.2</ele>
        <time>2023-09-03T09:54:03Z</time>
      </trkpt>
      <trkpt lat="48.1177" lon="6.61924">
        <ele>598.6</ele>
        <time>2023-09-03T09:54:04Z</time>
      </trkpt>
      <trkpt lat="48.11777" lon="6.61921">
        <ele>598.4</ele>
        <time>2023-09-03T09:54:05Z</time>
      </trkpt>
      <trkpt lat="48.1179" lon="6.61919">
        <ele>598</ele>
        <time>2023-09-03T09:54:06Z</time>
      </trkpt>
      <trkpt lat="48.11796" lon="6.61919">
        <ele>597.8</ele>
        <time>2023-09-03T09:54:07Z</time>
      </trkpt>
      <trkpt lat="48.11801" lon="6.61918">
        <ele>597.6</ele>
        <time>2023-09-03T09:54:08Z</time>
      </trkpt>
      <trkpt lat="48.11805" lon="6.61918">
        <ele>597.4</ele>
        <time>2023-09-03T09:54:09Z</time>
      </trkpt>
      <trkpt lat="48.11808" lon="6.61918">
        <ele>596.8</ele>
        <time>2023-09-03T09:54:10Z</time>
      </trkpt>
      <trkpt lat="48.11813" lon="6.61918">
        <ele>596.6</ele>
        <time>2023-09-03T09:54:11Z</time>
      </trkpt>
      <trkpt lat="48.11816" lon="6.61918">
        <ele>596.2</ele>
        <time>2023-09-03T09:54:12Z</time>
      </trkpt>
      <trkpt lat="48.1182" lon="6.61918">
        <ele>596</ele>
        <time>2023-09-03T09:54:13Z</time>
      </trkpt>
      <trkpt lat="48.11823" lon="6.61917">
        <ele>596</ele>
        <time>2023-09-03T09:54:14Z</time>
      </trkpt>
      <trkpt lat="48.11829" lon="6.61917">
        <ele>596.4</ele>
        <time>2023-09-03T09:54:15Z</time>
      </trkpt>
      <trkpt lat="48.11834" lon="6.61917">
        <ele>596.4</ele>
        <time>2023-09-03T09:54:16Z</time>
      </trkpt>
      <trkpt lat="48.11839" lon="6.61916">
        <ele>596.6</ele>
        <time>2023-09-03T09:54:17Z</time>
      </trkpt>
      <trkpt lat="48.11845" lon="6.61915">
        <ele>596.8</ele>
        <time>2023-09-03T09:54:18Z</time>
      </trkpt>
      <trkpt lat="48.11851" lon="6.61914">
        <ele>596.8</ele>
        <time>2023-09-03T09:54:19Z</time>
      </trkpt>
      <trkpt lat="48.11858" lon="6.61914">
        <ele>596.8</ele>
        <time>2023-09-03T09:54:20Z</time>
      </trkpt>
      <trkpt lat="48.11864" lon="6.61913">
        <ele>597</ele>
        <time>2023-09-03T09:54:21Z</time>
      </trkpt>
      <trkpt lat="48.1187" lon="6.61914">
        <ele>597</ele>
        <time>2023-09-03T09:54:22Z</time>
      </trkpt>
      <trkpt lat="48.11875" lon="6.61914">
        <ele>597</ele>
        <time>2023-09-03T09:54:23Z</time>
      </trkpt>
      <trkpt lat="48.11879" lon="6.61915">
        <ele>597</ele>
        <time>2023-09-03T09:54:24Z</time>
      </trkpt>
      <trkpt lat="48.11883" lon="6.61914">
        <ele>597</ele>
        <time>2023-09-03T09:54:25Z</time>
      </trkpt>
      <trkpt lat="48.11887" lon="6.61912">
        <ele>596.8</ele>
        <time>2023-09-03T09:54:26Z</time>
      </trkpt>
      <trkpt lat="48.11893" lon="6.61912">
        <ele>596.4</ele>
        <time>2023-09-03T09:54:27Z</time>
      </trkpt>
      <trkpt lat="48.11898" lon="6.61912">
        <ele>596.4</ele>
        <time>2023-09-03T09:54:28Z</time>
      </trkpt>
      <trkpt lat="48.11902" lon="6.61911">
        <ele>596.2</ele>
        <time>2023-09-03T09:54:29Z</time>
      </trkpt>
      <trkpt lat="48.11904" lon="6.61911">
        <ele>596</ele>
        <time>2023-09-03T09:54:30Z</time>
      </trkpt>
      <trkpt lat="48.11907" lon="6.61911">
        <ele>595.8</ele>
        <time>2023-09-03T09:54:31Z</time>
      </trkpt>
      <trkpt lat="48.11909" lon="6.6191">
        <ele>595.8</ele>
        <time>2023-09-03T09:54:32Z</time>
      </trkpt>
      <trkpt lat="48.11911" lon="6.6191">
        <ele>596.2</ele>
        <time>2023-09-03T09:54:33Z</time>
      </trkpt>
      <trkpt lat="48.11912" lon="6.61909">
        <ele>596.4</ele>
        <time>2023-09-03T09:54:34Z</time>
      </trkpt>
      <trkpt lat="48.11913" lon="6.6191">
        <ele>596.6</ele>
        <time>2023-09-03T09:54:35Z</time>
      </trkpt>
      <trkpt lat="48.11917" lon="6.61911">
        <ele>596.6</ele>
        <time>2023-09-03T09:54:36Z</time>
      </trkpt>
      <trkpt lat="48.11919" lon="6.6191">
        <ele>596.6</ele>
        <time>2023-09-03T09:54:37Z</time>
      </trkpt>
      <trkpt lat="48.1192" lon="6.61909">
        <ele>596.8</ele>
        <time>2023-09-03T09:54:38Z</time>
      </trkpt>
      <trkpt lat="48.11922" lon="6.61908">
        <ele>596.8</ele>
        <time>2023-09-03T09:54:39Z</time>
      </trkpt>
      <trkpt lat="48.11924" lon="6.61907">
        <ele>597</ele>
        <time>2023-09-03T09:54:40Z</time>
      </trkpt>
      <trkpt lat="48.11926" lon="6.61907">
        <ele>597</ele>
        <time>2023-09-03T09:54:41Z</time>
      </trkpt>
      <trkpt lat="48.11927" lon="6.61907">
        <ele>597.2</ele>
        <time>2023-09-03T09:54:42Z</time>
      </trkpt>
      <trkpt lat="48.11929" lon="6.61907">
        <ele>597.4</ele>
        <time>2023-09-03T09:54:43Z</time>
      </trkpt>
      <trkpt lat="48.1193" lon="6.61907">
        <ele>598</ele>
        <time>2023-09-03T09:54:44Z</time>
      </trkpt>
      <trkpt lat="48.11933" lon="6.61907">
        <ele>598.2</ele>
        <time>2023-09-03T09:54:45Z</time>
      </trkpt>
      <trkpt lat="48.11935" lon="6.61908">
        <ele>598.4</ele>
        <time>2023-09-03T09:54:46Z</time>
      </trkpt>
      <trkpt lat="48.11938" lon="6.61908">
        <ele>598.6</ele>
        <time>2023-09-03T09:54:47Z</time>
      </trkpt>
      <trkpt lat="48.11941" lon="6.61909">
        <ele>599</ele>
        <time>2023-09-03T09:54:48Z</time>
      </trkpt>
      <trkpt lat="48.11946" lon="6.61909">
        <ele>599</ele>
        <time>2023-09-03T09:54:49Z</time>
      </trkpt>
      <trkpt lat="48.11949" lon="6.61908">
        <ele>599.2</ele>
        <time>2023-09-03T09:54:50Z</time>
      </trkpt>
      <trkpt lat="48.11951" lon="6.61908">
        <ele>599.4</ele>
        <time>2023-09-03T09:54:51Z</time>
      </trkpt>
      <trkpt lat="48.11954" lon="6.61907">
        <ele>599.6</ele>
        <time>2023-09-03T09:54:52Z</time>
      </trkpt>
      <trkpt lat="48.11957" lon="6.61906">
        <ele>599.8</ele>
        <time>2023-09-03T09:54:53Z</time>
      </trkpt>
      <trkpt lat="48.11959" lon="6.61905">
        <ele>599.8</ele>
        <time>2023-09-03T09:54:54Z</time>
      </trkpt>
      <trkpt lat="48.11962" lon="6.61904">
        <ele>600</ele>
        <time>2023-09-03T09:54:55Z</time>
      </trkpt>
      <trkpt lat="48.11966" lon="6.61903">
        <ele>600.2</ele>
        <time>2023-09-03T09:54:56Z</time>
      </trkpt>
      <trkpt lat="48.11969" lon="6.61902">
        <ele>600.6</ele>
        <time>2023-09-03T09:54:57Z</time>
      </trkpt>
      <trkpt lat="48.11972" lon="6.61901">
        <ele>600.8</ele>
        <time>2023-09-03T09:54:58Z</time>
      </trkpt>
      <trkpt lat="48.11976" lon="6.619">
        <ele>601</ele>
        <time>2023-09-03T09:54:59Z</time>
      </trkpt>
      <trkpt lat="48.11979" lon="6.61899">
        <ele>601</ele>
        <time>2023-09-03T09:55:00Z</time>
      </trkpt>
      <trkpt lat="48.11982" lon="6.61897">
        <ele>601.2</ele>
        <time>2023-09-03T09:55:01Z</time>
      </trkpt>
      <trkpt lat="48.11986" lon="6.61895">
        <ele>601.4</ele>
        <time>2023-09-03T09:55:02Z</time>
      </trkpt>
      <trkpt lat="48.11989" lon="6.61894">
        <ele>601.4</ele>
        <time>2023-09-03T09:55:03Z</time>
      </trkpt>
      <trkpt lat="48.11992" lon="6.61893">
        <ele>601.8</ele>
        <time>2023-09-03T09:55:04Z</time>
      </trkpt>
      <trkpt lat="48.11993" lon="6.61892">
        <ele>601.8</ele>
        <time>2023-09-03T09:55:05Z</time>
      </trkpt>
      <trkpt lat="48.11994" lon="6.61891">
        <ele>602.2</ele>
        <time>2023-09-03T09:55:06Z</time>
      </trkpt>
      <trkpt lat="48.11994" lon="6.61891">
        <ele>602.2</ele>
        <time>2023-09-03T09:55:07Z</time>
      </trkpt>
      <trkpt lat="48.11995" lon="6.61891">
        <ele>602.2</ele>
        <time>2023-09-03T09:55:08Z</time>
      </trkpt>
      <trkpt lat="48.11995" lon="6.61891">
        <ele>602.2</ele>
        <time>2023-09-03T09:55:09Z</time>
      </trkpt>
      <trkpt lat="48.11996" lon="6.61891">
        <ele>602.2</ele>
        <time>2023-09-03T09:55:10Z</time>
      </trkpt>
      <trkpt lat="48.11996" lon="6.6189">
        <ele>602.2</ele>
        <time>2023-09-03T09:55:11Z</time>
      </trkpt>
      <trkpt lat="48.11998" lon="6.6189">
        <ele>602.2</ele>
        <time>2023-09-03T09:55:12Z</time>
      </trkpt>
      <trkpt lat="48.11999" lon="6.61889">
        <ele>602.2</ele>
        <time>2023-09-03T09:55:13Z</time>
      </trkpt>
      <trkpt lat="48.11999" lon="6.61889">
        <ele>602.2</ele>
        <time>2023-09-03T09:55:14Z</time>
      </trkpt>
      <trkpt lat="48.12001" lon="6.6189">
        <ele>602.2</ele>
        <time>2023-09-03T09:55:15Z</time>
      </trkpt>
      <trkpt lat="48.12001" lon="6.6189">
        <ele>602.2</ele>
        <time>2023-09-03T09:55:16Z</time>
      </trkpt>
      <trkpt lat="48.12003" lon="6.61889">
        <ele>602.2</ele>
        <time>2023-09-03T09:55:17Z</time>
      </trkpt>
      <trkpt lat="48.12003" lon="6.61889">
        <ele>602.2</ele>
        <time>2023-09-03T09:55:18Z</time>
      </trkpt>
      <trkpt lat="48.12005" lon="6.61889">
        <ele>602.2</ele>
        <time>2023-09-03T09:55:19Z</time>
      </trkpt>
      <trkpt lat="48.12007" lon="6.61889">
        <ele>602.2</ele>
        <time>2023-09-03T09:55:20Z</time>
      </trkpt>
      <trkpt lat="48.12011" lon="6.6189">
        <ele>602.2</ele>
        <time>2023-09-03T09:55:21Z</time>
      </trkpt>
      <trkpt lat="48.12015" lon="6.61891">
        <ele>602.2</ele>
        <time>2023-09-03T09:55:22Z</time>
      </trkpt>
      <trkpt lat="48.12022" lon="6.61893">
        <ele>602.4</ele>
        <time>2023-09-03T09:55:23Z</time>
      </trkpt>
      <trkpt lat="48.12023" lon="6.61895">
        <ele>602.4</ele>
        <time>2023-09-03T09:55:24Z</time>
      </trkpt>
      <trkpt lat="48.12024" lon="6.61896">
        <ele>602.4</ele>
        <time>2023-09-03T09:55:25Z</time>
      </trkpt>
      <trkpt lat="48.12026" lon="6.61898">
        <ele>602.6</ele>
        <time>2023-09-03T09:55:26Z</time>
      </trkpt>
      <trkpt lat="48.12028" lon="6.61902">
        <ele>602.6</ele>
        <time>2023-09-03T09:55:27Z</time>
      </trkpt>
      <trkpt lat="48.1203" lon="6.61906">
        <ele>602.6</ele>
        <time>2023-09-03T09:55:28Z</time>
      </trkpt>
      <trkpt lat="48.12033" lon="6.61911">
        <ele>602.8</ele>
        <time>2023-09-03T09:55:29Z</time>
      </trkpt>
      <trkpt lat="48.12036" lon="6.61913">
        <ele>602.8</ele>
        <time>2023-09-03T09:55:30Z</time>
      </trkpt>
      <trkpt lat="48.12037" lon="6.61915">
        <ele>603</ele>
        <time>2023-09-03T09:55:31Z</time>
      </trkpt>
      <trkpt lat="48.1204" lon="6.61918">
        <ele>603.2</ele>
        <time>2023-09-03T09:55:32Z</time>
      </trkpt>
      <trkpt lat="48.12042" lon="6.61922">
        <ele>603.4</ele>
        <time>2023-09-03T09:55:33Z</time>
      </trkpt>
      <trkpt lat="48.12045" lon="6.61927">
        <ele>603.6</ele>
        <time>2023-09-03T09:55:34Z</time>
      </trkpt>
      <trkpt lat="48.12048" lon="6.61931">
        <ele>603.8</ele>
        <time>2023-09-03T09:55:35Z</time>
      </trkpt>
      <trkpt lat="48.1205" lon="6.61934">
        <ele>604</ele>
        <time>2023-09-03T09:55:36Z</time>
      </trkpt>
      <trkpt lat="48.12052" lon="6.61937">
        <ele>604.2</ele>
        <time>2023-09-03T09:55:37Z</time>
      </trkpt>
      <trkpt lat="48.12054" lon="6.6194">
        <ele>604.2</ele>
        <time>2023-09-03T09:55:38Z</time>
      </trkpt>
      <trkpt lat="48.12056" lon="6.61942">
        <ele>604.4</ele>
        <time>2023-09-03T09:55:39Z</time>
      </trkpt>
      <trkpt lat="48.12058" lon="6.61944">
        <ele>604.4</ele>
        <time>2023-09-03T09:55:40Z</time>
      </trkpt>
      <trkpt lat="48.12061" lon="6.61948">
        <ele>604.6</ele>
        <time>2023-09-03T09:55:41Z</time>
      </trkpt>
      <trkpt lat="48.12063" lon="6.61951">
        <ele>604.6</ele>
        <time>2023-09-03T09:55:42Z</time>
      </trkpt>
      <trkpt lat="48.12065" lon="6.61953">
        <ele>604.8</ele>
        <time>2023-09-03T09:55:43Z</time>
      </trkpt>
      <trkpt lat="48.12066" lon="6.61954">
        <ele>604.8</ele>
        <time>2023-09-03T09:55:44Z</time>
      </trkpt>
      <trkpt lat="48.12068" lon="6.61955">
        <ele>605</ele>
        <time>2023-09-03T09:55:45Z</time>
      </trkpt>
      <trkpt lat="48.12069" lon="6.61958">
        <ele>605.2</ele>
        <time>2023-09-03T09:55:46Z</time>
      </trkpt>
      <trkpt lat="48.12072" lon="6.61962">
        <ele>605.2</ele>
        <time>2023-09-03T09:55:47Z</time>
      </trkpt>
      <trkpt lat="48.12075" lon="6.61967">
        <ele>605.6</ele>
        <time>2023-09-03T09:55:48Z</time>
      </trkpt>
      <trkpt lat="48.12078" lon="6.61973">
        <ele>605.8</ele>
        <time>2023-09-03T09:55:49Z</time>
      </trkpt>
      <trkpt lat="48.12081" lon="6.61978">
        <ele>605.8</ele>
        <time>2023-09-03T09:55:50Z</time>
      </trkpt>
      <trkpt lat="48.12084" lon="6.61984">
        <ele>606</ele>
        <time>2023-09-03T09:55:51Z</time>
      </trkpt>
      <trkpt lat="48.12087" lon="6.61989">
        <ele>606</ele>
        <time>2023-09-03T09:55:52Z</time>
      </trkpt>
      <trkpt lat="48.12089" lon="6.61993">
        <ele>606</ele>
        <time>2023-09-03T09:55:53Z</time>
      </trkpt>
      <trkpt lat="48.12091" lon="6.61997">
        <ele>606.4</ele>
        <time>2023-09-03T09:55:54Z</time>
      </trkpt>
      <trkpt lat="48.12092" lon="6.62">
        <ele>606.8</ele>
        <time>2023-09-03T09:55:55Z</time>
      </trkpt>
      <trkpt lat="48.12094" lon="6.62005">
        <ele>606.8</ele>
        <time>2023-09-03T09:55:56Z</time>
      </trkpt>
      <trkpt lat="48.12096" lon="6.62009">
        <ele>606.8</ele>
        <time>2023-09-03T09:55:57Z</time>
      </trkpt>
      <trkpt lat="48.12097" lon="6.62014">
        <ele>606.8</ele>
        <time>2023-09-03T09:55:58Z</time>
      </trkpt>
      <trkpt lat="48.12098" lon="6.62018">
        <ele>607</ele>
        <time>2023-09-03T09:55:59Z</time>
      </trkpt>
      <trkpt lat="48.12099" lon="6.62023">
        <ele>607.2</ele>
        <time>2023-09-03T09:56:00Z</time>
      </trkpt>
      <trkpt lat="48.121" lon="6.62028">
        <ele>607.4</ele>
        <time>2023-09-03T09:56:01Z</time>
      </trkpt>
      <trkpt lat="48.12101" lon="6.62032">
        <ele>607.6</ele>
        <time>2023-09-03T09:56:02Z</time>
      </trkpt>
      <trkpt lat="48.12102" lon="6.62034">
        <ele>607.6</ele>
        <time>2023-09-03T09:56:03Z</time>
      </trkpt>
      <trkpt lat="48.12103" lon="6.62038">
        <ele>607.8</ele>
        <time>2023-09-03T09:56:04Z</time>
      </trkpt>
      <trkpt lat="48.12103" lon="6.62042">
        <ele>608.2</ele>
        <time>2023-09-03T09:56:05Z</time>
      </trkpt>
      <trkpt lat="48.12105" lon="6.62046">
        <ele>608.4</ele>
        <time>2023-09-03T09:56:06Z</time>
      </trkpt>
      <trkpt lat="48.12106" lon="6.6205">
        <ele>608.6</ele>
        <time>2023-09-03T09:56:07Z</time>
      </trkpt>
      <trkpt lat="48.12108" lon="6.62053">
        <ele>608.6</ele>
        <time>2023-09-03T09:56:08Z</time>
      </trkpt>
      <trkpt lat="48.12109" lon="6.62055">
        <ele>608.8</ele>
        <time>2023-09-03T09:56:09Z</time>
      </trkpt>
      <trkpt lat="48.12111" lon="6.62057">
        <ele>608.8</ele>
        <time>2023-09-03T09:56:10Z</time>
      </trkpt>
      <trkpt lat="48.12113" lon="6.62059">
        <ele>608.8</ele>
        <time>2023-09-03T09:56:11Z</time>
      </trkpt>
      <trkpt lat="48.12115" lon="6.62062">
        <ele>609</ele>
        <time>2023-09-03T09:56:12Z</time>
      </trkpt>
      <trkpt lat="48.12118" lon="6.62066">
        <ele>609.2</ele>
        <time>2023-09-03T09:56:13Z</time>
      </trkpt>
      <trkpt lat="48.12121" lon="6.6207">
        <ele>609.2</ele>
        <time>2023-09-03T09:56:14Z</time>
      </trkpt>
      <trkpt lat="48.12123" lon="6.62073">
        <ele>609.2</ele>
        <time>2023-09-03T09:56:15Z</time>
      </trkpt>
      <trkpt lat="48.12125" lon="6.62076">
        <ele>609.2</ele>
        <time>2023-09-03T09:56:16Z</time>
      </trkpt>
      <trkpt lat="48.12128" lon="6.6208">
        <ele>609.4</ele>
        <time>2023-09-03T09:56:17Z</time>
      </trkpt>
      <trkpt lat="48.12131" lon="6.62083">
        <ele>609.4</ele>
        <time>2023-09-03T09:56:18Z</time>
      </trkpt>
      <trkpt lat="48.12134" lon="6.62088">
        <ele>609.6</ele>
        <time>2023-09-03T09:56:19Z</time>
      </trkpt>
      <trkpt lat="48.12137" lon="6.62093">
        <ele>609.6</ele>
        <time>2023-09-03T09:56:20Z</time>
      </trkpt>
      <trkpt lat="48.1214" lon="6.62097">
        <ele>609.8</ele>
        <time>2023-09-03T09:56:21Z</time>
      </trkpt>
      <trkpt lat="48.12143" lon="6.62101">
        <ele>609.8</ele>
        <time>2023-09-03T09:56:22Z</time>
      </trkpt>
      <trkpt lat="48.12147" lon="6.62106">
        <ele>610</ele>
        <time>2023-09-03T09:56:23Z</time>
      </trkpt>
      <trkpt lat="48.12152" lon="6.62111">
        <ele>610</ele>
        <time>2023-09-03T09:56:24Z</time>
      </trkpt>
      <trkpt lat="48.12156" lon="6.62115">
        <ele>610.2</ele>
        <time>2023-09-03T09:56:25Z</time>
      </trkpt>
      <trkpt lat="48.12161" lon="6.62118">
        <ele>610.2</ele>
        <time>2023-09-03T09:56:26Z</time>
      </trkpt>
      <trkpt lat="48.12165" lon="6.62122">
        <ele>610.2</ele>
        <time>2023-09-03T09:56:27Z</time>
      </trkpt>
      <trkpt lat="48.12169" lon="6.62125">
        <ele>610</ele>
        <time>2023-09-03T09:56:28Z</time>
      </trkpt>
      <trkpt lat="48.12172" lon="6.62126">
        <ele>609.8</ele>
        <time>2023-09-03T09:56:29Z</time>
      </trkpt>
      <trkpt lat="48.12174" lon="6.62127">
        <ele>609.4</ele>
        <time>2023-09-03T09:56:30Z</time>
      </trkpt>
      <trkpt lat="48.12176" lon="6.62127">
        <ele>609.2</ele>
        <time>2023-09-03T09:56:31Z</time>
      </trkpt>
      <trkpt lat="48.1218" lon="6.62128">
        <ele>609</ele>
        <time>2023-09-03T09:56:32Z</time>
      </trkpt>
      <trkpt lat="48.12184" lon="6.62131">
        <ele>608.8</ele>
        <time>2023-09-03T09:56:33Z</time>
      </trkpt>
      <trkpt lat="48.12188" lon="6.62134">
        <ele>608.6</ele>
        <time>2023-09-03T09:56:34Z</time>
      </trkpt>
      <trkpt lat="48.12191" lon="6.62137">
        <ele>608.6</ele>
        <time>2023-09-03T09:56:35Z</time>
      </trkpt>
      <trkpt lat="48.12195" lon="6.62139">
        <ele>608.4</ele>
        <time>2023-09-03T09:56:36Z</time>
      </trkpt>
      <trkpt lat="48.122" lon="6.62141">
        <ele>608.4</ele>
        <time>2023-09-03T09:56:37Z</time>
      </trkpt>
      <trkpt lat="48.12207" lon="6.62143">
        <ele>608.2</ele>
        <time>2023-09-03T09:56:38Z</time>
      </trkpt>
      <trkpt lat="48.12213" lon="6.62146">
        <ele>608.2</ele>
        <time>2023-09-03T09:56:39Z</time>
      </trkpt>
      <trkpt lat="48.12218" lon="6.62149">
        <ele>608.2</ele>
        <time>2023-09-03T09:56:40Z</time>
      </trkpt>
      <trkpt lat="48.12222" lon="6.62152">
        <ele>608</ele>
        <time>2023-09-03T09:56:41Z</time>
      </trkpt>
      <trkpt lat="48.12225" lon="6.62154">
        <ele>608</ele>
        <time>2023-09-03T09:56:42Z</time>
      </trkpt>
      <trkpt lat="48.12228" lon="6.62154">
        <ele>608</ele>
        <time>2023-09-03T09:56:43Z</time>
      </trkpt>
      <trkpt lat="48.12231" lon="6.62152">
        <ele>607.8</ele>
        <time>2023-09-03T09:56:44Z</time>
      </trkpt>
      <trkpt lat="48.12235" lon="6.6215">
        <ele>607.4</ele>
        <time>2023-09-03T09:56:45Z</time>
      </trkpt>
      <trkpt lat="48.12239" lon="6.62148">
        <ele>607</ele>
        <time>2023-09-03T09:56:46Z</time>
      </trkpt>
      <trkpt lat="48.12243" lon="6.62147">
        <ele>606.8</ele>
        <time>2023-09-03T09:56:47Z</time>
      </trkpt>
      <trkpt lat="48.12249" lon="6.62147">
        <ele>606.6</ele>
        <time>2023-09-03T09:56:48Z</time>
      </trkpt>
      <trkpt lat="48.12257" lon="6.62149">
        <ele>606.4</ele>
        <time>2023-09-03T09:56:49Z</time>
      </trkpt>
      <trkpt lat="48.12264" lon="6.6215">
        <ele>606</ele>
        <time>2023-09-03T09:56:50Z</time>
      </trkpt>
      <trkpt lat="48.1227" lon="6.6215">
        <ele>606</ele>
        <time>2023-09-03T09:56:51Z</time>
      </trkpt>
      <trkpt lat="48.12277" lon="6.62148">
        <ele>606</ele>
        <time>2023-09-03T09:56:52Z</time>
      </trkpt>
      <trkpt lat="48.12284" lon="6.62146">
        <ele>606.2</ele>
        <time>2023-09-03T09:56:53Z</time>
      </trkpt>
      <trkpt lat="48.12288" lon="6.62145">
        <ele>606</ele>
        <time>2023-09-03T09:56:54Z</time>
      </trkpt>
      <trkpt lat="48.12291" lon="6.62144">
        <ele>606</ele>
        <time>2023-09-03T09:56:55Z</time>
      </trkpt>
      <trkpt lat="48.12293" lon="6.62145">
        <ele>605.6</ele>
        <time>2023-09-03T09:56:56Z</time>
      </trkpt>
      <trkpt lat="48.12294" lon="6.62148">
        <ele>605.4</ele>
        <time>2023-09-03T09:56:57Z</time>
      </trkpt>
      <trkpt lat="48.12296" lon="6.62153">
        <ele>605.2</ele>
        <time>2023-09-03T09:56:58Z</time>
      </trkpt>
      <trkpt lat="48.12299" lon="6.62161">
        <ele>604.8</ele>
        <time>2023-09-03T09:56:59Z</time>
      </trkpt>
      <trkpt lat="48.12302" lon="6.6217">
        <ele>604.4</ele>
        <time>2023-09-03T09:57:00Z</time>
      </trkpt>
      <trkpt lat="48.12306" lon="6.62179">
        <ele>603.8</ele>
        <time>2023-09-03T09:57:01Z</time>
      </trkpt>
      <trkpt lat="48.1231" lon="6.62188">
        <ele>603.6</ele>
        <time>2023-09-03T09:57:02Z</time>
      </trkpt>
      <trkpt lat="48.12314" lon="6.62197">
        <ele>603</ele>
        <time>2023-09-03T09:57:03Z</time>
      </trkpt>
      <trkpt lat="48.12319" lon="6.62206">
        <ele>602.6</ele>
        <time>2023-09-03T09:57:04Z</time>
      </trkpt>
      <trkpt lat="48.12323" lon="6.62214">
        <ele>602.4</ele>
        <time>2023-09-03T09:57:05Z</time>
      </trkpt>
      <trkpt lat="48.12328" lon="6.6222">
        <ele>601.2</ele>
        <time>2023-09-03T09:57:06Z</time>
      </trkpt>
      <trkpt lat="48.12331" lon="6.62223">
        <ele>600.4</ele>
        <time>2023-09-03T09:57:07Z</time>
      </trkpt>
      <trkpt lat="48.12335" lon="6.62224">
        <ele>599.2</ele>
        <time>2023-09-03T09:57:08Z</time>
      </trkpt>
      <trkpt lat="48.12338" lon="6.62225">
        <ele>598.6</ele>
        <time>2023-09-03T09:57:09Z</time>
      </trkpt>
      <trkpt lat="48.12342" lon="6.62227">
        <ele>597.8</ele>
        <time>2023-09-03T09:57:10Z</time>
      </trkpt>
      <trkpt lat="48.12347" lon="6.62229">
        <ele>597.2</ele>
        <time>2023-09-03T09:57:11Z</time>
      </trkpt>
      <trkpt lat="48.12353" lon="6.62231">
        <ele>596.6</ele>
        <time>2023-09-03T09:57:12Z</time>
      </trkpt>
      <trkpt lat="48.12357" lon="6.62232">
        <ele>596.4</ele>
        <time>2023-09-03T09:57:13Z</time>
      </trkpt>
      <trkpt lat="48.12362" lon="6.62234">
        <ele>595.8</ele>
        <time>2023-09-03T09:57:14Z</time>
      </trkpt>
      <trkpt lat="48.12367" lon="6.62237">
        <ele>595.4</ele>
        <time>2023-09-03T09:57:15Z</time>
      </trkpt>
      <trkpt lat="48.12373" lon="6.6224">
        <ele>595</ele>
        <time>2023-09-03T09:57:16Z</time>
      </trkpt>
      <trkpt lat="48.12378" lon="6.62242">
        <ele>594.8</ele>
        <time>2023-09-03T09:57:17Z</time>
      </trkpt>
      <trkpt lat="48.12384" lon="6.62244">
        <ele>594.6</ele>
        <time>2023-09-03T09:57:18Z</time>
      </trkpt>
      <trkpt lat="48.12391" lon="6.62247">
        <ele>594.4</ele>
        <time>2023-09-03T09:57:19Z</time>
      </trkpt>
      <trkpt lat="48.12397" lon="6.6225">
        <ele>594.4</ele>
        <time>2023-09-03T09:57:20Z</time>
      </trkpt>
      <trkpt lat="48.12401" lon="6.62251">
        <ele>594.2</ele>
        <time>2023-09-03T09:57:21Z</time>
      </trkpt>
      <trkpt lat="48.12405" lon="6.62253">
        <ele>594.2</ele>
        <time>2023-09-03T09:57:22Z</time>
      </trkpt>
      <trkpt lat="48.12411" lon="6.62255">
        <ele>594</ele>
        <time>2023-09-03T09:57:23Z</time>
      </trkpt>
      <trkpt lat="48.12417" lon="6.62258">
        <ele>593.8</ele>
        <time>2023-09-03T09:57:24Z</time>
      </trkpt>
      <trkpt lat="48.12423" lon="6.62262">
        <ele>593.4</ele>
        <time>2023-09-03T09:57:25Z</time>
      </trkpt>
      <trkpt lat="48.12428" lon="6.62265">
        <ele>593</ele>
        <time>2023-09-03T09:57:26Z</time>
      </trkpt>
      <trkpt lat="48.12433" lon="6.6227">
        <ele>593</ele>
        <time>2023-09-03T09:57:27Z</time>
      </trkpt>
      <trkpt lat="48.12438" lon="6.62273">
        <ele>593</ele>
        <time>2023-09-03T09:57:28Z</time>
      </trkpt>
      <trkpt lat="48.12442" lon="6.62276">
        <ele>592.8</ele>
        <time>2023-09-03T09:57:29Z</time>
      </trkpt>
      <trkpt lat="48.12446" lon="6.62279">
        <ele>592.8</ele>
        <time>2023-09-03T09:57:30Z</time>
      </trkpt>
      <trkpt lat="48.1245" lon="6.62281">
        <ele>592.8</ele>
        <time>2023-09-03T09:57:31Z</time>
      </trkpt>
      <trkpt lat="48.12455" lon="6.62283">
        <ele>592.8</ele>
        <time>2023-09-03T09:57:32Z</time>
      </trkpt>
      <trkpt lat="48.12463" lon="6.62287">
        <ele>592.8</ele>
        <time>2023-09-03T09:57:33Z</time>
      </trkpt>
      <trkpt lat="48.12467" lon="6.6229">
        <ele>592.6</ele>
        <time>2023-09-03T09:57:34Z</time>
      </trkpt>
      <trkpt lat="48.12472" lon="6.62293">
        <ele>592.6</ele>
        <time>2023-09-03T09:57:35Z</time>
      </trkpt>
      <trkpt lat="48.12475" lon="6.62297">
        <ele>592.4</ele>
        <time>2023-09-03T09:57:36Z</time>
      </trkpt>
      <trkpt lat="48.12479" lon="6.62301">
        <ele>592.2</ele>
        <time>2023-09-03T09:57:37Z</time>
      </trkpt>
      <trkpt lat="48.12483" lon="6.62307">
        <ele>592.2</ele>
        <time>2023-09-03T09:57:38Z</time>
      </trkpt>
      <trkpt lat="48.12489" lon="6.62314">
        <ele>592.2</ele>
        <time>2023-09-03T09:57:39Z</time>
      </trkpt>
      <trkpt lat="48.12498" lon="6.62324">
        <ele>592.2</ele>
        <time>2023-09-03T09:57:40Z</time>
      </trkpt>
      <trkpt lat="48.12503" lon="6.62329">
        <ele>592.2</ele>
        <time>2023-09-03T09:57:41Z</time>
      </trkpt>
      <trkpt lat="48.12508" lon="6.62333">
        <ele>592.2</ele>
        <time>2023-09-03T09:57:42Z</time>
      </trkpt>
      <trkpt lat="48.12512" lon="6.62336">
        <ele>592.2</ele>
        <time>2023-09-03T09:57:43Z</time>
      </trkpt>
      <trkpt lat="48.12516" lon="6.62339">
        <ele>592.2</ele>
        <time>2023-09-03T09:57:44Z</time>
      </trkpt>
      <trkpt lat="48.12522" lon="6.62343">
        <ele>592.2</ele>
        <time>2023-09-03T09:57:45Z</time>
      </trkpt>
      <trkpt lat="48.12528" lon="6.6235">
        <ele>592.2</ele>
        <time>2023-09-03T09:57:46Z</time>
      </trkpt>
      <trkpt lat="48.12534" lon="6.62357">
        <ele>592</ele>
        <time>2023-09-03T09:57:47Z</time>
      </trkpt>
      <trkpt lat="48.12539" lon="6.62363">
        <ele>591.8</ele>
        <time>2023-09-03T09:57:48Z</time>
      </trkpt>
      <trkpt lat="48.12543" lon="6.62369">
        <ele>591.8</ele>
        <time>2023-09-03T09:57:49Z</time>
      </trkpt>
      <trkpt lat="48.12547" lon="6.62375">
        <ele>591.6</ele>
        <time>2023-09-03T09:57:50Z</time>
      </trkpt>
      <trkpt lat="48.12552" lon="6.62382">
        <ele>591.6</ele>
        <time>2023-09-03T09:57:51Z</time>
      </trkpt>
      <trkpt lat="48.12557" lon="6.62387">
        <ele>591.4</ele>
        <time>2023-09-03T09:57:52Z</time>
      </trkpt>
      <trkpt lat="48.1256" lon="6.62389">
        <ele>591</ele>
        <time>2023-09-03T09:57:53Z</time>
      </trkpt>
      <trkpt lat="48.12563" lon="6.62391">
        <ele>590.4</ele>
        <time>2023-09-03T09:57:54Z</time>
      </trkpt>
      <trkpt lat="48.12567" lon="6.62392">
        <ele>590.4</ele>
        <time>2023-09-03T09:57:55Z</time>
      </trkpt>
      <trkpt lat="48.12571" lon="6.62393">
        <ele>590</ele>
        <time>2023-09-03T09:57:56Z</time>
      </trkpt>
      <trkpt lat="48.12576" lon="6.62395">
        <ele>589.6</ele>
        <time>2023-09-03T09:57:57Z</time>
      </trkpt>
      <trkpt lat="48.12581" lon="6.62396">
        <ele>589.4</ele>
        <time>2023-09-03T09:57:58Z</time>
      </trkpt>
      <trkpt lat="48.12587" lon="6.62398">
        <ele>589.2</ele>
        <time>2023-09-03T09:57:59Z</time>
      </trkpt>
      <trkpt lat="48.12592" lon="6.62399">
        <ele>589</ele>
        <time>2023-09-03T09:58:00Z</time>
      </trkpt>
      <trkpt lat="48.12598" lon="6.62399">
        <ele>589</ele>
        <time>2023-09-03T09:58:01Z</time>
      </trkpt>
      <trkpt lat="48.12604" lon="6.62399">
        <ele>589</ele>
        <time>2023-09-03T09:58:02Z</time>
      </trkpt>
      <trkpt lat="48.1261" lon="6.62399">
        <ele>589</ele>
        <time>2023-09-03T09:58:03Z</time>
      </trkpt>
      <trkpt lat="48.12615" lon="6.624">
        <ele>589.2</ele>
        <time>2023-09-03T09:58:04Z</time>
      </trkpt>
      <trkpt lat="48.1262" lon="6.62402">
        <ele>589.4</ele>
        <time>2023-09-03T09:58:05Z</time>
      </trkpt>
      <trkpt lat="48.12626" lon="6.62404">
        <ele>589.4</ele>
        <time>2023-09-03T09:58:06Z</time>
      </trkpt>
      <trkpt lat="48.12632" lon="6.62406">
        <ele>589.2</ele>
        <time>2023-09-03T09:58:07Z</time>
      </trkpt>
      <trkpt lat="48.12636" lon="6.62407">
        <ele>589.2</ele>
        <time>2023-09-03T09:58:08Z</time>
      </trkpt>
      <trkpt lat="48.12639" lon="6.62407">
        <ele>589.4</ele>
        <time>2023-09-03T09:58:09Z</time>
      </trkpt>
      <trkpt lat="48.12641" lon="6.62408">
        <ele>589.4</ele>
        <time>2023-09-03T09:58:10Z</time>
      </trkpt>
      <trkpt lat="48.12644" lon="6.62407">
        <ele>589.4</ele>
        <time>2023-09-03T09:58:11Z</time>
      </trkpt>
      <trkpt lat="48.12647" lon="6.62405">
        <ele>589.4</ele>
        <time>2023-09-03T09:58:12Z</time>
      </trkpt>
      <trkpt lat="48.12649" lon="6.62405">
        <ele>589.4</ele>
        <time>2023-09-03T09:58:13Z</time>
      </trkpt>
      <trkpt lat="48.12654" lon="6.62407">
        <ele>589.4</ele>
        <time>2023-09-03T09:58:14Z</time>
      </trkpt>
      <trkpt lat="48.12662" lon="6.6241">
        <ele>589.2</ele>
        <time>2023-09-03T09:58:15Z</time>
      </trkpt>
      <trkpt lat="48.12666" lon="6.6241">
        <ele>589</ele>
        <time>2023-09-03T09:58:16Z</time>
      </trkpt>
      <trkpt lat="48.1267" lon="6.6241">
        <ele>589.2</ele>
        <time>2023-09-03T09:58:17Z</time>
      </trkpt>
      <trkpt lat="48.12675" lon="6.62409">
        <ele>589.4</ele>
        <time>2023-09-03T09:58:18Z</time>
      </trkpt>
      <trkpt lat="48.12682" lon="6.62408">
        <ele>589.6</ele>
        <time>2023-09-03T09:58:19Z</time>
      </trkpt>
      <trkpt lat="48.12688" lon="6.62408">
        <ele>589.6</ele>
        <time>2023-09-03T09:58:20Z</time>
      </trkpt>
      <trkpt lat="48.12695" lon="6.62407">
        <ele>589.6</ele>
        <time>2023-09-03T09:58:21Z</time>
      </trkpt>
      <trkpt lat="48.12703" lon="6.62408">
        <ele>589.8</ele>
        <time>2023-09-03T09:58:22Z</time>
      </trkpt>
      <trkpt lat="48.1271" lon="6.62407">
        <ele>589.8</ele>
        <time>2023-09-03T09:58:23Z</time>
      </trkpt>
      <trkpt lat="48.12721" lon="6.62409">
        <ele>589.8</ele>
        <time>2023-09-03T09:58:24Z</time>
      </trkpt>
      <trkpt lat="48.12735" lon="6.62409">
        <ele>589.8</ele>
        <time>2023-09-03T09:58:25Z</time>
      </trkpt>
      <trkpt lat="48.12742" lon="6.62409">
        <ele>589.8</ele>
        <time>2023-09-03T09:58:26Z</time>
      </trkpt>
      <trkpt lat="48.12747" lon="6.62409">
        <ele>589.8</ele>
        <time>2023-09-03T09:58:27Z</time>
      </trkpt>
      <trkpt lat="48.12754" lon="6.62407">
        <ele>589.8</ele>
        <time>2023-09-03T09:58:28Z</time>
      </trkpt>
      <trkpt lat="48.12759" lon="6.62405">
        <ele>589.8</ele>
        <time>2023-09-03T09:58:29Z</time>
      </trkpt>
      <trkpt lat="48.12764" lon="6.62406">
        <ele>589.4</ele>
        <time>2023-09-03T09:58:30Z</time>
      </trkpt>
      <trkpt lat="48.12768" lon="6.62407">
        <ele>589.2</ele>
        <time>2023-09-03T09:58:31Z</time>
      </trkpt>
      <trkpt lat="48.12775" lon="6.62409">
        <ele>588.8</ele>
        <time>2023-09-03T09:58:32Z</time>
      </trkpt>
      <trkpt lat="48.12779" lon="6.62409">
        <ele>588.8</ele>
        <time>2023-09-03T09:58:33Z</time>
      </trkpt>
      <trkpt lat="48.12781" lon="6.62407">
        <ele>588.4</ele>
        <time>2023-09-03T09:58:34Z</time>
      </trkpt>
      <trkpt lat="48.12785" lon="6.62403">
        <ele>588.4</ele>
        <time>2023-09-03T09:58:35Z</time>
      </trkpt>
      <trkpt lat="48.1279" lon="6.62401">
        <ele>587.4</ele>
        <time>2023-09-03T09:58:36Z</time>
      </trkpt>
      <trkpt lat="48.12797" lon="6.62396">
        <ele>587</ele>
        <time>2023-09-03T09:58:37Z</time>
      </trkpt>
      <trkpt lat="48.12805" lon="6.62389">
        <ele>586.6</ele>
        <time>2023-09-03T09:58:38Z</time>
      </trkpt>
      <trkpt lat="48.12811" lon="6.62379">
        <ele>586</ele>
        <time>2023-09-03T09:58:39Z</time>
      </trkpt>
      <trkpt lat="48.12816" lon="6.62366">
        <ele>585.4</ele>
        <time>2023-09-03T09:58:40Z</time>
      </trkpt>
      <trkpt lat="48.12821" lon="6.62357">
        <ele>585</ele>
        <time>2023-09-03T09:58:41Z</time>
      </trkpt>
      <trkpt lat="48.12826" lon="6.62347">
        <ele>584.8</ele>
        <time>2023-09-03T09:58:42Z</time>
      </trkpt>
      <trkpt lat="48.12831" lon="6.6234">
        <ele>583.8</ele>
        <time>2023-09-03T09:58:43Z</time>
      </trkpt>
      <trkpt lat="48.12835" lon="6.6233">
        <ele>583</ele>
        <time>2023-09-03T09:58:44Z</time>
      </trkpt>
      <trkpt lat="48.12842" lon="6.62323">
        <ele>582</ele>
        <time>2023-09-03T09:58:45Z</time>
      </trkpt>
      <trkpt lat="48.12846" lon="6.62317">
        <ele>581.2</ele>
        <time>2023-09-03T09:58:46Z</time>
      </trkpt>
      <trkpt lat="48.12845" lon="6.62311">
        <ele>580.2</ele>
        <time>2023-09-03T09:58:47Z</time>
      </trkpt>
      <trkpt lat="48.12842" lon="6.62306">
        <ele>579.8</ele>
        <time>2023-09-03T09:58:48Z</time>
      </trkpt>
      <trkpt lat="48.1284" lon="6.62304">
        <ele>577.6</ele>
        <time>2023-09-03T09:58:49Z</time>
      </trkpt>
      <trkpt lat="48.12838" lon="6.62302">
        <ele>576.2</ele>
        <time>2023-09-03T09:58:50Z</time>
      </trkpt>
      <trkpt lat="48.12835" lon="6.62297">
        <ele>575.8</ele>
        <time>2023-09-03T09:58:51Z</time>
      </trkpt>
      <trkpt lat="48.12831" lon="6.62292">
        <ele>575</ele>
        <time>2023-09-03T09:58:52Z</time>
      </trkpt>
      <trkpt lat="48.12829" lon="6.62289">
        <ele>574.6</ele>
        <time>2023-09-03T09:58:53Z</time>
      </trkpt>
      <trkpt lat="48.12828" lon="6.62286">
        <ele>574.4</ele>
        <time>2023-09-03T09:58:54Z</time>
      </trkpt>
      <trkpt lat="48.12827" lon="6.62281">
        <ele>574.2</ele>
        <time>2023-09-03T09:58:55Z</time>
      </trkpt>
      <trkpt lat="48.12826" lon="6.62279">
        <ele>573.8</ele>
        <time>2023-09-03T09:58:56Z</time>
      </trkpt>
      <trkpt lat="48.12822" lon="6.6227">
        <ele>573.6</ele>
        <time>2023-09-03T09:58:57Z</time>
      </trkpt>
      <trkpt lat="48.12818" lon="6.62262">
        <ele>573.2</ele>
        <time>2023-09-03T09:58:58Z</time>
      </trkpt>
      <trkpt lat="48.12813" lon="6.62251">
        <ele>573.2</ele>
        <time>2023-09-03T09:58:59Z</time>
      </trkpt>
      <trkpt lat="48.12811" lon="6.62245">
        <ele>573</ele>
        <time>2023-09-03T09:59:00Z</time>
      </trkpt>
      <trkpt lat="48.12807" lon="6.62238">
        <ele>573</ele>
        <time>2023-09-03T09:59:01Z</time>
      </trkpt>
      <trkpt lat="48.12804" lon="6.62231">
        <ele>573</ele>
        <time>2023-09-03T09:59:02Z</time>
      </trkpt>
      <trkpt lat="48.128" lon="6.62228">
        <ele>573</ele>
        <time>2023-09-03T09:59:03Z</time>
      </trkpt>
      <trkpt lat="48.12796" lon="6.62224">
        <ele>573</ele>
        <time>2023-09-03T09:59:04Z</time>
      </trkpt>
      <trkpt lat="48.12792" lon="6.62219">
        <ele>572.6</ele>
        <time>2023-09-03T09:59:05Z</time>
      </trkpt>
      <trkpt lat="48.12787" lon="6.62215">
        <ele>572.6</ele>
        <time>2023-09-03T09:59:06Z</time>
      </trkpt>
      <trkpt lat="48.12782" lon="6.6221">
        <ele>572.6</ele>
        <time>2023-09-03T09:59:07Z</time>
      </trkpt>
      <trkpt lat="48.12777" lon="6.62206">
        <ele>572.6</ele>
        <time>2023-09-03T09:59:08Z</time>
      </trkpt>
      <trkpt lat="48.12772" lon="6.62198">
        <ele>572</ele>
        <time>2023-09-03T09:59:09Z</time>
      </trkpt>
      <trkpt lat="48.12768" lon="6.62194">
        <ele>571.8</ele>
        <time>2023-09-03T09:59:10Z</time>
      </trkpt>
      <trkpt lat="48.12767" lon="6.62193">
        <ele>571.8</ele>
        <time>2023-09-03T09:59:11Z</time>
      </trkpt>
      <trkpt lat="48.12767" lon="6.62193">
        <ele>571.8</ele>
        <time>2023-09-03T09:59:12Z</time>
      </trkpt>
      <trkpt lat="48.12767" lon="6.62192">
        <ele>571.8</ele>
        <time>2023-09-03T09:59:13Z</time>
      </trkpt>
      <trkpt lat="48.12765" lon="6.62188">
        <ele>571.6</ele>
        <time>2023-09-03T09:59:14Z</time>
      </trkpt>
      <trkpt lat="48.12762" lon="6.62182">
        <ele>571.6</ele>
        <time>2023-09-03T09:59:15Z</time>
      </trkpt>
      <trkpt lat="48.12757" lon="6.62174">
        <ele>571.4</ele>
        <time>2023-09-03T09:59:16Z</time>
      </trkpt>
      <trkpt lat="48.12753" lon="6.62169">
        <ele>571.4</ele>
        <time>2023-09-03T09:59:17Z</time>
      </trkpt>
      <trkpt lat="48.12749" lon="6.62166">
        <ele>571.4</ele>
        <time>2023-09-03T09:59:18Z</time>
      </trkpt>
      <trkpt lat="48.12746" lon="6.62161">
        <ele>571.4</ele>
        <time>2023-09-03T09:59:19Z</time>
      </trkpt>
      <trkpt lat="48.12743" lon="6.62158">
        <ele>571.4</ele>
        <time>2023-09-03T09:59:20Z</time>
      </trkpt>
      <trkpt lat="48.12736" lon="6.62147">
        <ele>571.4</ele>
        <time>2023-09-03T09:59:21Z</time>
      </trkpt>
      <trkpt lat="48.12735" lon="6.62142">
        <ele>571.4</ele>
        <time>2023-09-03T09:59:22Z</time>
      </trkpt>
      <trkpt lat="48.12733" lon="6.62136">
        <ele>571.2</ele>
        <time>2023-09-03T09:59:23Z</time>
      </trkpt>
      <trkpt lat="48.12731" lon="6.62126">
        <ele>571.2</ele>
        <time>2023-09-03T09:59:24Z</time>
      </trkpt>
      <trkpt lat="48.12729" lon="6.62116">
        <ele>571</ele>
        <time>2023-09-03T09:59:25Z</time>
      </trkpt>
      <trkpt lat="48.1272" lon="6.62101">
        <ele>571</ele>
        <time>2023-09-03T09:59:26Z</time>
      </trkpt>
      <trkpt lat="48.12714" lon="6.62089">
        <ele>570.8</ele>
        <time>2023-09-03T09:59:27Z</time>
      </trkpt>
      <trkpt lat="48.12708" lon="6.6208">
        <ele>570.8</ele>
        <time>2023-09-03T09:59:28Z</time>
      </trkpt>
      <trkpt lat="48.12701" lon="6.62071">
        <ele>570.8</ele>
        <time>2023-09-03T09:59:29Z</time>
      </trkpt>
      <trkpt lat="48.12696" lon="6.62067">
        <ele>570.8</ele>
        <time>2023-09-03T09:59:30Z</time>
      </trkpt>
      <trkpt lat="48.12693" lon="6.62065">
        <ele>570.8</ele>
        <time>2023-09-03T09:59:31Z</time>
      </trkpt>
      <trkpt lat="48.12692" lon="6.62064">
        <ele>570.6</ele>
        <time>2023-09-03T09:59:32Z</time>
      </trkpt>
      <trkpt lat="48.12689" lon="6.6206">
        <ele>570.8</ele>
        <time>2023-09-03T09:59:33Z</time>
      </trkpt>
      <trkpt lat="48.12687" lon="6.62056">
        <ele>571</ele>
        <time>2023-09-03T09:59:34Z</time>
      </trkpt>
      <trkpt lat="48.12683" lon="6.62052">
        <ele>571</ele>
        <time>2023-09-03T09:59:35Z</time>
      </trkpt>
      <trkpt lat="48.12681" lon="6.62049">
        <ele>571</ele>
        <time>2023-09-03T09:59:36Z</time>
      </trkpt>
      <trkpt lat="48.12678" lon="6.62048">
        <ele>571</ele>
        <time>2023-09-03T09:59:37Z</time>
      </trkpt>
      <trkpt lat="48.12676" lon="6.62046">
        <ele>571.2</ele>
        <time>2023-09-03T09:59:38Z</time>
      </trkpt>
      <trkpt lat="48.12671" lon="6.62041">
        <ele>571.2</ele>
        <time>2023-09-03T09:59:39Z</time>
      </trkpt>
      <trkpt lat="48.12665" lon="6.62034">
        <ele>571.2</ele>
        <time>2023-09-03T09:59:40Z</time>
      </trkpt>
      <trkpt lat="48.12661" lon="6.62031">
        <ele>571.2</ele>
        <time>2023-09-03T09:59:41Z</time>
      </trkpt>
      <trkpt lat="48.12658" lon="6.62028">
        <ele>571.2</ele>
        <time>2023-09-03T09:59:42Z</time>
      </trkpt>
      <trkpt lat="48.12655" lon="6.62025">
        <ele>571.4</ele>
        <time>2023-09-03T09:59:43Z</time>
      </trkpt>
      <trkpt lat="48.12655" lon="6.62025">
        <ele>571.4</ele>
        <time>2023-09-03T09:59:44Z</time>
      </trkpt>
      <trkpt lat="48.12653" lon="6.62023">
        <ele>572</ele>
        <time>2023-09-03T09:59:45Z</time>
      </trkpt>
      <trkpt lat="48.1265" lon="6.62022">
        <ele>572</ele>
        <time>2023-09-03T09:59:46Z</time>
      </trkpt>
      <trkpt lat="48.12648" lon="6.62021">
        <ele>572.2</ele>
        <time>2023-09-03T09:59:47Z</time>
      </trkpt>
      <trkpt lat="48.12645" lon="6.6202">
        <ele>572.2</ele>
        <time>2023-09-03T09:59:48Z</time>
      </trkpt>
      <trkpt lat="48.12641" lon="6.62017">
        <ele>572.4</ele>
        <time>2023-09-03T09:59:49Z</time>
      </trkpt>
      <trkpt lat="48.12638" lon="6.62013">
        <ele>572.4</ele>
        <time>2023-09-03T09:59:50Z</time>
      </trkpt>
      <trkpt lat="48.12635" lon="6.62012">
        <ele>572.8</ele>
        <time>2023-09-03T09:59:51Z</time>
      </trkpt>
      <trkpt lat="48.12633" lon="6.6201">
        <ele>572.8</ele>
        <time>2023-09-03T09:59:52Z</time>
      </trkpt>
      <trkpt lat="48.1263" lon="6.62009">
        <ele>573</ele>
        <time>2023-09-03T09:59:53Z</time>
      </trkpt>
      <trkpt lat="48.12627" lon="6.62008">
        <ele>573</ele>
        <time>2023-09-03T09:59:54Z</time>
      </trkpt>
      <trkpt lat="48.12625" lon="6.62006">
        <ele>573.2</ele>
        <time>2023-09-03T09:59:55Z</time>
      </trkpt>
      <trkpt lat="48.12623" lon="6.62003">
        <ele>573.2</ele>
        <time>2023-09-03T09:59:56Z</time>
      </trkpt>
      <trkpt lat="48.1262" lon="6.62002">
        <ele>573.4</ele>
        <time>2023-09-03T09:59:57Z</time>
      </trkpt>
      <trkpt lat="48.12614" lon="6.61997">
        <ele>573.4</ele>
        <time>2023-09-03T09:59:58Z</time>
      </trkpt>
      <trkpt lat="48.12611" lon="6.61994">
        <ele>573.4</ele>
        <time>2023-09-03T09:59:59Z</time>
      </trkpt>
      <trkpt lat="48.12607" lon="6.6199">
        <ele>573.6</ele>
        <time>2023-09-03T10:00:00Z</time>
      </trkpt>
      <trkpt lat="48.12603" lon="6.61987">
        <ele>573.6</ele>
        <time>2023-09-03T10:00:01Z</time>
      </trkpt>
      <trkpt lat="48.126" lon="6.61984">
        <ele>574</ele>
        <time>2023-09-03T10:00:02Z</time>
      </trkpt>
      <trkpt lat="48.12596" lon="6.61981">
        <ele>574</ele>
        <time>2023-09-03T10:00:03Z</time>
      </trkpt>
      <trkpt lat="48.12592" lon="6.61977">
        <ele>574.4</ele>
        <time>2023-09-03T10:00:04Z</time>
      </trkpt>
      <trkpt lat="48.12588" lon="6.61974">
        <ele>574.6</ele>
        <time>2023-09-03T10:00:05Z</time>
      </trkpt>
      <trkpt lat="48.12585" lon="6.61971">
        <ele>574.6</ele>
        <time>2023-09-03T10:00:06Z</time>
      </trkpt>
      <trkpt lat="48.12583" lon="6.61972">
        <ele>574.8</ele>
        <time>2023-09-03T10:00:07Z</time>
      </trkpt>
      <trkpt lat="48.12581" lon="6.61971">
        <ele>575</ele>
        <time>2023-09-03T10:00:08Z</time>
      </trkpt>
      <trkpt lat="48.12579" lon="6.61969">
        <ele>575.2</ele>
        <time>2023-09-03T10:00:09Z</time>
      </trkpt>
      <trkpt lat="48.12577" lon="6.61968">
        <ele>575.2</ele>
        <time>2023-09-03T10:00:10Z</time>
      </trkpt>
      <trkpt lat="48.12574" lon="6.61965">
        <ele>575.2</ele>
        <time>2023-09-03T10:00:11Z</time>
      </trkpt>
      <trkpt lat="48.1257" lon="6.61962">
        <ele>575.2</ele>
        <time>2023-09-03T10:00:12Z</time>
      </trkpt>
      <trkpt lat="48.12568" lon="6.6196">
        <ele>575.4</ele>
        <time>2023-09-03T10:00:13Z</time>
      </trkpt>
      <trkpt lat="48.12564" lon="6.61958">
        <ele>575.4</ele>
        <time>2023-09-03T10:00:14Z</time>
      </trkpt>
      <trkpt lat="48.12562" lon="6.61957">
        <ele>575.6</ele>
        <time>2023-09-03T10:00:15Z</time>
      </trkpt>
      <trkpt lat="48.12561" lon="6.61955">
        <ele>575.8</ele>
        <time>2023-09-03T10:00:16Z</time>
      </trkpt>
      <trkpt lat="48.1256" lon="6.61954">
        <ele>576</ele>
        <time>2023-09-03T10:00:17Z</time>
      </trkpt>
      <trkpt lat="48.12559" lon="6.61953">
        <ele>576</ele>
        <time>2023-09-03T10:00:18Z</time>
      </trkpt>
      <trkpt lat="48.12555" lon="6.6195">
        <ele>576.2</ele>
        <time>2023-09-03T10:00:19Z</time>
      </trkpt>
      <trkpt lat="48.12552" lon="6.61948">
        <ele>576.2</ele>
        <time>2023-09-03T10:00:20Z</time>
      </trkpt>
      <trkpt lat="48.12548" lon="6.61946">
        <ele>576.2</ele>
        <time>2023-09-03T10:00:21Z</time>
      </trkpt>
      <trkpt lat="48.12546" lon="6.61945">
        <ele>576.2</ele>
        <time>2023-09-03T10:00:22Z</time>
      </trkpt>
      <trkpt lat="48.12544" lon="6.61945">
        <ele>576.2</ele>
        <time>2023-09-03T10:00:23Z</time>
      </trkpt>
      <trkpt lat="48.12542" lon="6.61944">
        <ele>576.2</ele>
        <time>2023-09-03T10:00:24Z</time>
      </trkpt>
      <trkpt lat="48.12538" lon="6.61942">
        <ele>576.2</ele>
        <time>2023-09-03T10:00:25Z</time>
      </trkpt>
      <trkpt lat="48.12535" lon="6.6194">
        <ele>576.2</ele>
        <time>2023-09-03T10:00:26Z</time>
      </trkpt>
      <trkpt lat="48.12532" lon="6.61937">
        <ele>576.2</ele>
        <time>2023-09-03T10:00:27Z</time>
      </trkpt>
      <trkpt lat="48.1253" lon="6.61936">
        <ele>576.2</ele>
        <time>2023-09-03T10:00:28Z</time>
      </trkpt>
      <trkpt lat="48.12526" lon="6.61933">
        <ele>576.2</ele>
        <time>2023-09-03T10:00:29Z</time>
      </trkpt>
      <trkpt lat="48.12522" lon="6.61933">
        <ele>576.2</ele>
        <time>2023-09-03T10:00:30Z</time>
      </trkpt>
      <trkpt lat="48.12518" lon="6.61931">
        <ele>576.2</ele>
        <time>2023-09-03T10:00:31Z</time>
      </trkpt>
      <trkpt lat="48.12515" lon="6.61928">
        <ele>576.2</ele>
        <time>2023-09-03T10:00:32Z</time>
      </trkpt>
      <trkpt lat="48.12512" lon="6.61924">
        <ele>576.2</ele>
        <time>2023-09-03T10:00:33Z</time>
      </trkpt>
      <trkpt lat="48.12507" lon="6.6192">
        <ele>576.4</ele>
        <time>2023-09-03T10:00:34Z</time>
      </trkpt>
      <trkpt lat="48.12503" lon="6.61917">
        <ele>576.4</ele>
        <time>2023-09-03T10:00:35Z</time>
      </trkpt>
      <trkpt lat="48.125" lon="6.61913">
        <ele>576.6</ele>
        <time>2023-09-03T10:00:36Z</time>
      </trkpt>
      <trkpt lat="48.12498" lon="6.61911">
        <ele>576.6</ele>
        <time>2023-09-03T10:00:37Z</time>
      </trkpt>
      <trkpt lat="48.12497" lon="6.61907">
        <ele>576.6</ele>
        <time>2023-09-03T10:00:38Z</time>
      </trkpt>
      <trkpt lat="48.12496" lon="6.61904">
        <ele>576.6</ele>
        <time>2023-09-03T10:00:39Z</time>
      </trkpt>
      <trkpt lat="48.12497" lon="6.61898">
        <ele>576.4</ele>
        <time>2023-09-03T10:00:40Z</time>
      </trkpt>
      <trkpt lat="48.12501" lon="6.61892">
        <ele>576.4</ele>
        <time>2023-09-03T10:00:41Z</time>
      </trkpt>
      <trkpt lat="48.12504" lon="6.61886">
        <ele>576.2</ele>
        <time>2023-09-03T10:00:42Z</time>
      </trkpt>
      <trkpt lat="48.12506" lon="6.61881">
        <ele>576</ele>
        <time>2023-09-03T10:00:43Z</time>
      </trkpt>
      <trkpt lat="48.12508" lon="6.61874">
        <ele>575.8</ele>
        <time>2023-09-03T10:00:44Z</time>
      </trkpt>
      <trkpt lat="48.1251" lon="6.61866">
        <ele>575.6</ele>
        <time>2023-09-03T10:00:45Z</time>
      </trkpt>
      <trkpt lat="48.12513" lon="6.61857">
        <ele>575.4</ele>
        <time>2023-09-03T10:00:46Z</time>
      </trkpt>
      <trkpt lat="48.12516" lon="6.61844">
        <ele>575.4</ele>
        <time>2023-09-03T10:00:47Z</time>
      </trkpt>
      <trkpt lat="48.12519" lon="6.61834">
        <ele>575.2</ele>
        <time>2023-09-03T10:00:48Z</time>
      </trkpt>
      <trkpt lat="48.12522" lon="6.61819">
        <ele>573.8</ele>
        <time>2023-09-03T10:00:49Z</time>
      </trkpt>
      <trkpt lat="48.12522" lon="6.61801">
        <ele>573.2</ele>
        <time>2023-09-03T10:00:50Z</time>
      </trkpt>
      <trkpt lat="48.1252" lon="6.61784">
        <ele>572.2</ele>
        <time>2023-09-03T10:00:51Z</time>
      </trkpt>
      <trkpt lat="48.1252" lon="6.6177">
        <ele>571.8</ele>
        <time>2023-09-03T10:00:52Z</time>
      </trkpt>
      <trkpt lat="48.12521" lon="6.61755">
        <ele>570.6</ele>
        <time>2023-09-03T10:00:53Z</time>
      </trkpt>
      <trkpt lat="48.12522" lon="6.61739">
        <ele>570</ele>
        <time>2023-09-03T10:00:54Z</time>
      </trkpt>
      <trkpt lat="48.12522" lon="6.61723">
        <ele>568.6</ele>
        <time>2023-09-03T10:00:55Z</time>
      </trkpt>
      <trkpt lat="48.12521" lon="6.61708">
        <ele>567.6</ele>
        <time>2023-09-03T10:00:56Z</time>
      </trkpt>
      <trkpt lat="48.12521" lon="6.617">
        <ele>566</ele>
        <time>2023-09-03T10:00:57Z</time>
      </trkpt>
      <trkpt lat="48.12521" lon="6.61693">
        <ele>565</ele>
        <time>2023-09-03T10:00:58Z</time>
      </trkpt>
      <trkpt lat="48.12521" lon="6.61688">
        <ele>563</ele>
        <time>2023-09-03T10:00:59Z</time>
      </trkpt>
      <trkpt lat="48.12517" lon="6.61683">
        <ele>561.8</ele>
        <time>2023-09-03T10:01:00Z</time>
      </trkpt>
      <trkpt lat="48.12514" lon="6.6168">
        <ele>561.4</ele>
        <time>2023-09-03T10:01:01Z</time>
      </trkpt>
      <trkpt lat="48.12508" lon="6.61679">
        <ele>561.2</ele>
        <time>2023-09-03T10:01:02Z</time>
      </trkpt>
      <trkpt lat="48.12504" lon="6.61678">
        <ele>561</ele>
        <time>2023-09-03T10:01:03Z</time>
      </trkpt>
      <trkpt lat="48.12504" lon="6.61678">
        <ele>561</ele>
        <time>2023-09-03T10:01:04Z</time>
      </trkpt>
      <trkpt lat="48.12502" lon="6.61676">
        <ele>561</ele>
        <time>2023-09-03T10:01:05Z</time>
      </trkpt>
      <trkpt lat="48.12501" lon="6.61674">
        <ele>561</ele>
        <time>2023-09-03T10:01:06Z</time>
      </trkpt>
      <trkpt lat="48.125" lon="6.61673">
        <ele>561</ele>
        <time>2023-09-03T10:01:07Z</time>
      </trkpt>
      <trkpt lat="48.12499" lon="6.61672">
        <ele>561</ele>
        <time>2023-09-03T10:01:08Z</time>
      </trkpt>
      <trkpt lat="48.12499" lon="6.61668">
        <ele>561</ele>
        <time>2023-09-03T10:01:09Z</time>
      </trkpt>
      <trkpt lat="48.12499" lon="6.61666">
        <ele>561</ele>
        <time>2023-09-03T10:01:10Z</time>
      </trkpt>
      <trkpt lat="48.12497" lon="6.61661">
        <ele>561.2</ele>
        <time>2023-09-03T10:01:11Z</time>
      </trkpt>
      <trkpt lat="48.12494" lon="6.61655">
        <ele>561.2</ele>
        <time>2023-09-03T10:01:12Z</time>
      </trkpt>
      <trkpt lat="48.12495" lon="6.61654">
        <ele>561.4</ele>
        <time>2023-09-03T10:01:13Z</time>
      </trkpt>
      <trkpt lat="48.12496" lon="6.61653">
        <ele>561.4</ele>
        <time>2023-09-03T10:01:14Z</time>
      </trkpt>
      <trkpt lat="48.12496" lon="6.61652">
        <ele>561.6</ele>
        <time>2023-09-03T10:01:15Z</time>
      </trkpt>
      <trkpt lat="48.12496" lon="6.61652">
        <ele>561.8</ele>
        <time>2023-09-03T10:01:16Z</time>
      </trkpt>
      <trkpt lat="48.12496" lon="6.61652">
        <ele>562</ele>
        <time>2023-09-03T10:01:17Z</time>
      </trkpt>
      <trkpt lat="48.12496" lon="6.61652">
        <ele>562.2</ele>
        <time>2023-09-03T10:01:18Z</time>
      </trkpt>
      <trkpt lat="48.12496" lon="6.61651">
        <ele>562.2</ele>
        <time>2023-09-03T10:01:19Z</time>
      </trkpt>
      <trkpt lat="48.12495" lon="6.61649">
        <ele>562.4</ele>
        <time>2023-09-03T10:01:20Z</time>
      </trkpt>
      <trkpt lat="48.12495" lon="6.61646">
        <ele>562.6</ele>
        <time>2023-09-03T10:01:21Z</time>
      </trkpt>
      <trkpt lat="48.12494" lon="6.61643">
        <ele>562.8</ele>
        <time>2023-09-03T10:01:22Z</time>
      </trkpt>
      <trkpt lat="48.12493" lon="6.61641">
        <ele>562.8</ele>
        <time>2023-09-03T10:01:23Z</time>
      </trkpt>
      <trkpt lat="48.12491" lon="6.61639">
        <ele>563</ele>
        <time>2023-09-03T10:01:24Z</time>
      </trkpt>
      <trkpt lat="48.1249" lon="6.61635">
        <ele>563</ele>
        <time>2023-09-03T10:01:25Z</time>
      </trkpt>
      <trkpt lat="48.12489" lon="6.61633">
        <ele>563.2</ele>
        <time>2023-09-03T10:01:26Z</time>
      </trkpt>
      <trkpt lat="48.12486" lon="6.61627">
        <ele>563.2</ele>
        <time>2023-09-03T10:01:27Z</time>
      </trkpt>
      <trkpt lat="48.12485" lon="6.61624">
        <ele>563.6</ele>
        <time>2023-09-03T10:01:28Z</time>
      </trkpt>
      <trkpt lat="48.12484" lon="6.6162">
        <ele>563.8</ele>
        <time>2023-09-03T10:01:29Z</time>
      </trkpt>
      <trkpt lat="48.12483" lon="6.61615">
        <ele>563.8</ele>
        <time>2023-09-03T10:01:30Z</time>
      </trkpt>
      <trkpt lat="48.12482" lon="6.6161">
        <ele>564</ele>
        <time>2023-09-03T10:01:31Z</time>
      </trkpt>
      <trkpt lat="48.12481" lon="6.61605">
        <ele>564</ele>
        <time>2023-09-03T10:01:32Z</time>
      </trkpt>
      <trkpt lat="48.12479" lon="6.61599">
        <ele>564</ele>
        <time>2023-09-03T10:01:33Z</time>
      </trkpt>
      <trkpt lat="48.12478" lon="6.6159">
        <ele>564</ele>
        <time>2023-09-03T10:01:34Z</time>
      </trkpt>
      <trkpt lat="48.12478" lon="6.61582">
        <ele>564</ele>
        <time>2023-09-03T10:01:35Z</time>
      </trkpt>
      <trkpt lat="48.12478" lon="6.61572">
        <ele>564</ele>
        <time>2023-09-03T10:01:36Z</time>
      </trkpt>
      <trkpt lat="48.12476" lon="6.61559">
        <ele>564</ele>
        <time>2023-09-03T10:01:37Z</time>
      </trkpt>
      <trkpt lat="48.12476" lon="6.6155">
        <ele>564</ele>
        <time>2023-09-03T10:01:38Z</time>
      </trkpt>
      <trkpt lat="48.12475" lon="6.6154">
        <ele>564</ele>
        <time>2023-09-03T10:01:39Z</time>
      </trkpt>
      <trkpt lat="48.12472" lon="6.61529">
        <ele>563.8</ele>
        <time>2023-09-03T10:01:40Z</time>
      </trkpt>
      <trkpt lat="48.12471" lon="6.6152">
        <ele>563.8</ele>
        <time>2023-09-03T10:01:41Z</time>
      </trkpt>
      <trkpt lat="48.12471" lon="6.61513">
        <ele>563.8</ele>
        <time>2023-09-03T10:01:42Z</time>
      </trkpt>
      <trkpt lat="48.12471" lon="6.61505">
        <ele>563.6</ele>
        <time>2023-09-03T10:01:43Z</time>
      </trkpt>
      <trkpt lat="48.12471" lon="6.61498">
        <ele>562.6</ele>
        <time>2023-09-03T10:01:44Z</time>
      </trkpt>
      <trkpt lat="48.12471" lon="6.6149">
        <ele>562.4</ele>
        <time>2023-09-03T10:01:45Z</time>
      </trkpt>
      <trkpt lat="48.1247" lon="6.61481">
        <ele>561.8</ele>
        <time>2023-09-03T10:01:46Z</time>
      </trkpt>
      <trkpt lat="48.12469" lon="6.61472">
        <ele>561.6</ele>
        <time>2023-09-03T10:01:47Z</time>
      </trkpt>
      <trkpt lat="48.1247" lon="6.61464">
        <ele>561.2</ele>
        <time>2023-09-03T10:01:48Z</time>
      </trkpt>
      <trkpt lat="48.1247" lon="6.61457">
        <ele>561.2</ele>
        <time>2023-09-03T10:01:49Z</time>
      </trkpt>
      <trkpt lat="48.1247" lon="6.61452">
        <ele>561</ele>
        <time>2023-09-03T10:01:50Z</time>
      </trkpt>
      <trkpt lat="48.1247" lon="6.61443">
        <ele>561</ele>
        <time>2023-09-03T10:01:51Z</time>
      </trkpt>
      <trkpt lat="48.1247" lon="6.61437">
        <ele>560.6</ele>
        <time>2023-09-03T10:01:52Z</time>
      </trkpt>
      <trkpt lat="48.12471" lon="6.61432">
        <ele>560.2</ele>
        <time>2023-09-03T10:01:53Z</time>
      </trkpt>
      <trkpt lat="48.12472" lon="6.61427">
        <ele>559.2</ele>
        <time>2023-09-03T10:01:54Z</time>
      </trkpt>
      <trkpt lat="48.12472" lon="6.61421">
        <ele>558.4</ele>
        <time>2023-09-03T10:01:55Z</time>
      </trkpt>
      <trkpt lat="48.12472" lon="6.61416">
        <ele>558.2</ele>
        <time>2023-09-03T10:01:56Z</time>
      </trkpt>
      <trkpt lat="48.12471" lon="6.61407">
        <ele>557</ele>
        <time>2023-09-03T10:01:57Z</time>
      </trkpt>
      <trkpt lat="48.12471" lon="6.61398">
        <ele>556.2</ele>
        <time>2023-09-03T10:01:58Z</time>
      </trkpt>
      <trkpt lat="48.12473" lon="6.61395">
        <ele>555.2</ele>
        <time>2023-09-03T10:01:59Z</time>
      </trkpt>
      <trkpt lat="48.12475" lon="6.61393">
        <ele>554.4</ele>
        <time>2023-09-03T10:02:00Z</time>
      </trkpt>
      <trkpt lat="48.12475" lon="6.61389">
        <ele>553.6</ele>
        <time>2023-09-03T10:02:01Z</time>
      </trkpt>
      <trkpt lat="48.12476" lon="6.61389">
        <ele>553.4</ele>
        <time>2023-09-03T10:02:02Z</time>
      </trkpt>
      <trkpt lat="48.12476" lon="6.61389">
        <ele>552.8</ele>
        <time>2023-09-03T10:02:03Z</time>
      </trkpt>
      <trkpt lat="48.12476" lon="6.61389">
        <ele>550.6</ele>
        <time>2023-09-03T10:02:08Z</time>
      </trkpt>
      <trkpt lat="48.12476" lon="6.61389">
        <ele>550.4</ele>
        <time>2023-09-03T10:02:09Z</time>
      </trkpt>
      <trkpt lat="48.12476" lon="6.61389">
        <ele>550.4</ele>
        <time>2023-09-03T10:02:10Z</time>
      </trkpt>
      <trkpt lat="48.12476" lon="6.61389">
        <ele>550.2</ele>
        <time>2023-09-03T10:02:11Z</time>
      </trkpt>
      <trkpt lat="48.12476" lon="6.61389">
        <ele>550.2</ele>
        <time>2023-09-03T10:02:12Z</time>
      </trkpt>
      <trkpt lat="48.12476" lon="6.61387">
        <ele>550.2</ele>
        <time>2023-09-03T10:02:13Z</time>
      </trkpt>
      <trkpt lat="48.12476" lon="6.61385">
        <ele>550.2</ele>
        <time>2023-09-03T10:02:14Z</time>
      </trkpt>
      <trkpt lat="48.12477" lon="6.61382">
        <ele>550</ele>
        <time>2023-09-03T10:02:15Z</time>
      </trkpt>
      <trkpt lat="48.12478" lon="6.61378">
        <ele>550</ele>
        <time>2023-09-03T10:02:16Z</time>
      </trkpt>
      <trkpt lat="48.12478" lon="6.61371">
        <ele>550</ele>
        <time>2023-09-03T10:02:17Z</time>
      </trkpt>
      <trkpt lat="48.12478" lon="6.61366">
        <ele>549.8</ele>
        <time>2023-09-03T10:02:18Z</time>
      </trkpt>
      <trkpt lat="48.12479" lon="6.61362">
        <ele>549.4</ele>
        <time>2023-09-03T10:02:19Z</time>
      </trkpt>
      <trkpt lat="48.12477" lon="6.61354">
        <ele>549.2</ele>
        <time>2023-09-03T10:02:20Z</time>
      </trkpt>
      <trkpt lat="48.12477" lon="6.61342">
        <ele>549</ele>
        <time>2023-09-03T10:02:21Z</time>
      </trkpt>
      <trkpt lat="48.12479" lon="6.61329">
        <ele>548.8</ele>
        <time>2023-09-03T10:02:22Z</time>
      </trkpt>
      <trkpt lat="48.12481" lon="6.61318">
        <ele>548.6</ele>
        <time>2023-09-03T10:02:23Z</time>
      </trkpt>
      <trkpt lat="48.12482" lon="6.61308">
        <ele>548.2</ele>
        <time>2023-09-03T10:02:24Z</time>
      </trkpt>
      <trkpt lat="48.12481" lon="6.61296">
        <ele>547.8</ele>
        <time>2023-09-03T10:02:25Z</time>
      </trkpt>
      <trkpt lat="48.12481" lon="6.61284">
        <ele>547.4</ele>
        <time>2023-09-03T10:02:26Z</time>
      </trkpt>
      <trkpt lat="48.12482" lon="6.61276">
        <ele>546.8</ele>
        <time>2023-09-03T10:02:27Z</time>
      </trkpt>
      <trkpt lat="48.12482" lon="6.61266">
        <ele>546.6</ele>
        <time>2023-09-03T10:02:28Z</time>
      </trkpt>
      <trkpt lat="48.12483" lon="6.61256">
        <ele>546.4</ele>
        <time>2023-09-03T10:02:29Z</time>
      </trkpt>
      <trkpt lat="48.12484" lon="6.61247">
        <ele>546.2</ele>
        <time>2023-09-03T10:02:30Z</time>
      </trkpt>
      <trkpt lat="48.12485" lon="6.6124">
        <ele>546</ele>
        <time>2023-09-03T10:02:31Z</time>
      </trkpt>
      <trkpt lat="48.12485" lon="6.61231">
        <ele>545.6</ele>
        <time>2023-09-03T10:02:32Z</time>
      </trkpt>
      <trkpt lat="48.12486" lon="6.61222">
        <ele>545.2</ele>
        <time>2023-09-03T10:02:33Z</time>
      </trkpt>
      <trkpt lat="48.12485" lon="6.61213">
        <ele>545</ele>
        <time>2023-09-03T10:02:34Z</time>
      </trkpt>
      <trkpt lat="48.12486" lon="6.61206">
        <ele>544.8</ele>
        <time>2023-09-03T10:02:35Z</time>
      </trkpt>
      <trkpt lat="48.12488" lon="6.61202">
        <ele>544.4</ele>
        <time>2023-09-03T10:02:36Z</time>
      </trkpt>
      <trkpt lat="48.12491" lon="6.61199">
        <ele>544.4</ele>
        <time>2023-09-03T10:02:37Z</time>
      </trkpt>
      <trkpt lat="48.12496" lon="6.61197">
        <ele>544</ele>
        <time>2023-09-03T10:02:38Z</time>
      </trkpt>
      <trkpt lat="48.12502" lon="6.61193">
        <ele>543.8</ele>
        <time>2023-09-03T10:02:39Z</time>
      </trkpt>
      <trkpt lat="48.12506" lon="6.61188">
        <ele>543.6</ele>
        <time>2023-09-03T10:02:40Z</time>
      </trkpt>
      <trkpt lat="48.12509" lon="6.61178">
        <ele>543.2</ele>
        <time>2023-09-03T10:02:41Z</time>
      </trkpt>
      <trkpt lat="48.12512" lon="6.61172">
        <ele>543.2</ele>
        <time>2023-09-03T10:02:42Z</time>
      </trkpt>
      <trkpt lat="48.12513" lon="6.61162">
        <ele>543</ele>
        <time>2023-09-03T10:02:43Z</time>
      </trkpt>
      <trkpt lat="48.12515" lon="6.61152">
        <ele>542.8</ele>
        <time>2023-09-03T10:02:44Z</time>
      </trkpt>
      <trkpt lat="48.12516" lon="6.61142">
        <ele>542.6</ele>
        <time>2023-09-03T10:02:45Z</time>
      </trkpt>
      <trkpt lat="48.12517" lon="6.61136">
        <ele>542.4</ele>
        <time>2023-09-03T10:02:46Z</time>
      </trkpt>
      <trkpt lat="48.12518" lon="6.61133">
        <ele>542</ele>
        <time>2023-09-03T10:02:47Z</time>
      </trkpt>
      <trkpt lat="48.12518" lon="6.61129">
        <ele>541.8</ele>
        <time>2023-09-03T10:02:48Z</time>
      </trkpt>
      <trkpt lat="48.12517" lon="6.61126">
        <ele>541.2</ele>
        <time>2023-09-03T10:02:49Z</time>
      </trkpt>
      <trkpt lat="48.12518" lon="6.61125">
        <ele>540.8</ele>
        <time>2023-09-03T10:02:50Z</time>
      </trkpt>
      <trkpt lat="48.12517" lon="6.61122">
        <ele>540.8</ele>
        <time>2023-09-03T10:02:51Z</time>
      </trkpt>
      <trkpt lat="48.12518" lon="6.61122">
        <ele>540</ele>
        <time>2023-09-03T10:02:52Z</time>
      </trkpt>
      <trkpt lat="48.12519" lon="6.61121">
        <ele>539.6</ele>
        <time>2023-09-03T10:02:53Z</time>
      </trkpt>
      <trkpt lat="48.12521" lon="6.61122">
        <ele>539.2</ele>
        <time>2023-09-03T10:02:54Z</time>
      </trkpt>
      <trkpt lat="48.12522" lon="6.61122">
        <ele>538.8</ele>
        <time>2023-09-03T10:02:55Z</time>
      </trkpt>
      <trkpt lat="48.12523" lon="6.61122">
        <ele>538.6</ele>
        <time>2023-09-03T10:02:56Z</time>
      </trkpt>
      <trkpt lat="48.12524" lon="6.6112">
        <ele>538.4</ele>
        <time>2023-09-03T10:02:57Z</time>
      </trkpt>
      <trkpt lat="48.12526" lon="6.61119">
        <ele>537.8</ele>
        <time>2023-09-03T10:02:58Z</time>
      </trkpt>
      <trkpt lat="48.12528" lon="6.61119">
        <ele>537.6</ele>
        <time>2023-09-03T10:02:59Z</time>
      </trkpt>
      <trkpt lat="48.12528" lon="6.61117">
        <ele>537</ele>
        <time>2023-09-03T10:03:00Z</time>
      </trkpt>
      <trkpt lat="48.12528" lon="6.61115">
        <ele>536.4</ele>
        <time>2023-09-03T10:03:01Z</time>
      </trkpt>
      <trkpt lat="48.12528" lon="6.61114">
        <ele>536.2</ele>
        <time>2023-09-03T10:03:02Z</time>
      </trkpt>
      <trkpt lat="48.12528" lon="6.61113">
        <ele>535.2</ele>
        <time>2023-09-03T10:03:03Z</time>
      </trkpt>
      <trkpt lat="48.12528" lon="6.61111">
        <ele>534.4</ele>
        <time>2023-09-03T10:03:04Z</time>
      </trkpt>
      <trkpt lat="48.12528" lon="6.61109">
        <ele>533.2</ele>
        <time>2023-09-03T10:03:05Z</time>
      </trkpt>
      <trkpt lat="48.1253" lon="6.61106">
        <ele>532.6</ele>
        <time>2023-09-03T10:03:06Z</time>
      </trkpt>
      <trkpt lat="48.12532" lon="6.61105">
        <ele>531.6</ele>
        <time>2023-09-03T10:03:07Z</time>
      </trkpt>
      <trkpt lat="48.12533" lon="6.61107">
        <ele>531</ele>
        <time>2023-09-03T10:03:08Z</time>
      </trkpt>
      <trkpt lat="48.12534" lon="6.6111">
        <ele>530.4</ele>
        <time>2023-09-03T10:03:09Z</time>
      </trkpt>
      <trkpt lat="48.12535" lon="6.61114">
        <ele>530</ele>
        <time>2023-09-03T10:03:10Z</time>
      </trkpt>
      <trkpt lat="48.12536" lon="6.61117">
        <ele>529</ele>
        <time>2023-09-03T10:03:11Z</time>
      </trkpt>
      <trkpt lat="48.12536" lon="6.61121">
        <ele>528.2</ele>
        <time>2023-09-03T10:03:12Z</time>
      </trkpt>
      <trkpt lat="48.12537" lon="6.61124">
        <ele>527.8</ele>
        <time>2023-09-03T10:03:13Z</time>
      </trkpt>
      <trkpt lat="48.12538" lon="6.61127">
        <ele>527.6</ele>
        <time>2023-09-03T10:03:14Z</time>
      </trkpt>
      <trkpt lat="48.12538" lon="6.6113">
        <ele>527.4</ele>
        <time>2023-09-03T10:03:15Z</time>
      </trkpt>
      <trkpt lat="48.12539" lon="6.61133">
        <ele>527.2</ele>
        <time>2023-09-03T10:03:16Z</time>
      </trkpt>
      <trkpt lat="48.1254" lon="6.61135">
        <ele>527.2</ele>
        <time>2023-09-03T10:03:17Z</time>
      </trkpt>
      <trkpt lat="48.1254" lon="6.61138">
        <ele>527</ele>
        <time>2023-09-03T10:03:18Z</time>
      </trkpt>
      <trkpt lat="48.12541" lon="6.61141">
        <ele>526.8</ele>
        <time>2023-09-03T10:03:19Z</time>
      </trkpt>
      <trkpt lat="48.12541" lon="6.61144">
        <ele>527.2</ele>
        <time>2023-09-03T10:03:20Z</time>
      </trkpt>
      <trkpt lat="48.12542" lon="6.61147">
        <ele>527.2</ele>
        <time>2023-09-03T10:03:21Z</time>
      </trkpt>
      <trkpt lat="48.12541" lon="6.61151">
        <ele>527.4</ele>
        <time>2023-09-03T10:03:22Z</time>
      </trkpt>
      <trkpt lat="48.12542" lon="6.61154">
        <ele>527.8</ele>
        <time>2023-09-03T10:03:23Z</time>
      </trkpt>
      <trkpt lat="48.12541" lon="6.61158">
        <ele>527.8</ele>
        <time>2023-09-03T10:03:24Z</time>
      </trkpt>
      <trkpt lat="48.12541" lon="6.61162">
        <ele>528.2</ele>
        <time>2023-09-03T10:03:25Z</time>
      </trkpt>
      <trkpt lat="48.1254" lon="6.61166">
        <ele>528.2</ele>
        <time>2023-09-03T10:03:26Z</time>
      </trkpt>
      <trkpt lat="48.12539" lon="6.61172">
        <ele>528.4</ele>
        <time>2023-09-03T10:03:27Z</time>
      </trkpt>
      <trkpt lat="48.12538" lon="6.61178">
        <ele>528.4</ele>
        <time>2023-09-03T10:03:28Z</time>
      </trkpt>
      <trkpt lat="48.12536" lon="6.61184">
        <ele>528.6</ele>
        <time>2023-09-03T10:03:29Z</time>
      </trkpt>
      <trkpt lat="48.12533" lon="6.6119">
        <ele>528.6</ele>
        <time>2023-09-03T10:03:30Z</time>
      </trkpt>
      <trkpt lat="48.12529" lon="6.61197">
        <ele>528.6</ele>
        <time>2023-09-03T10:03:31Z</time>
      </trkpt>
      <trkpt lat="48.12527" lon="6.61203">
        <ele>528.6</ele>
        <time>2023-09-03T10:03:32Z</time>
      </trkpt>
      <trkpt lat="48.12526" lon="6.61209">
        <ele>528.8</ele>
        <time>2023-09-03T10:03:33Z</time>
      </trkpt>
      <trkpt lat="48.12524" lon="6.61216">
        <ele>528.6</ele>
        <time>2023-09-03T10:03:34Z</time>
      </trkpt>
      <trkpt lat="48.12523" lon="6.61222">
        <ele>528.6</ele>
        <time>2023-09-03T10:03:35Z</time>
      </trkpt>
      <trkpt lat="48.12521" lon="6.61234">
        <ele>528.6</ele>
        <time>2023-09-03T10:03:36Z</time>
      </trkpt>
      <trkpt lat="48.12518" lon="6.61246">
        <ele>528.4</ele>
        <time>2023-09-03T10:03:37Z</time>
      </trkpt>
      <trkpt lat="48.12517" lon="6.61253">
        <ele>528.2</ele>
        <time>2023-09-03T10:03:38Z</time>
      </trkpt>
      <trkpt lat="48.12517" lon="6.61262">
        <ele>528.2</ele>
        <time>2023-09-03T10:03:39Z</time>
      </trkpt>
      <trkpt lat="48.12517" lon="6.6127">
        <ele>528.2</ele>
        <time>2023-09-03T10:03:40Z</time>
      </trkpt>
      <trkpt lat="48.12517" lon="6.61277">
        <ele>528.2</ele>
        <time>2023-09-03T10:03:41Z</time>
      </trkpt>
      <trkpt lat="48.12516" lon="6.61282">
        <ele>528.2</ele>
        <time>2023-09-03T10:03:42Z</time>
      </trkpt>
      <trkpt lat="48.12515" lon="6.61288">
        <ele>528.2</ele>
        <time>2023-09-03T10:03:43Z</time>
      </trkpt>
      <trkpt lat="48.12515" lon="6.61292">
        <ele>528</ele>
        <time>2023-09-03T10:03:44Z</time>
      </trkpt>
      <trkpt lat="48.12516" lon="6.613">
        <ele>527.8</ele>
        <time>2023-09-03T10:03:45Z</time>
      </trkpt>
      <trkpt lat="48.12517" lon="6.61307">
        <ele>527.8</ele>
        <time>2023-09-03T10:03:46Z</time>
      </trkpt>
      <trkpt lat="48.12519" lon="6.61315">
        <ele>527.8</ele>
        <time>2023-09-03T10:03:47Z</time>
      </trkpt>
      <trkpt lat="48.12522" lon="6.61323">
        <ele>527.8</ele>
        <time>2023-09-03T10:03:48Z</time>
      </trkpt>
      <trkpt lat="48.12524" lon="6.61331">
        <ele>527.8</ele>
        <time>2023-09-03T10:03:49Z</time>
      </trkpt>
      <trkpt lat="48.12525" lon="6.61337">
        <ele>527.8</ele>
        <time>2023-09-03T10:03:50Z</time>
      </trkpt>
      <trkpt lat="48.12527" lon="6.61346">
        <ele>527.8</ele>
        <time>2023-09-03T10:03:51Z</time>
      </trkpt>
      <trkpt lat="48.1253" lon="6.61355">
        <ele>527.8</ele>
        <time>2023-09-03T10:03:52Z</time>
      </trkpt>
      <trkpt lat="48.12532" lon="6.61364">
        <ele>527.8</ele>
        <time>2023-09-03T10:03:53Z</time>
      </trkpt>
      <trkpt lat="48.12534" lon="6.61372">
        <ele>527.6</ele>
        <time>2023-09-03T10:03:54Z</time>
      </trkpt>
      <trkpt lat="48.12536" lon="6.61379">
        <ele>527.2</ele>
        <time>2023-09-03T10:03:55Z</time>
      </trkpt>
      <trkpt lat="48.12537" lon="6.61386">
        <ele>526.4</ele>
        <time>2023-09-03T10:03:56Z</time>
      </trkpt>
      <trkpt lat="48.12538" lon="6.61391">
        <ele>526</ele>
        <time>2023-09-03T10:03:57Z</time>
      </trkpt>
      <trkpt lat="48.12539" lon="6.61397">
        <ele>525.6</ele>
        <time>2023-09-03T10:03:58Z</time>
      </trkpt>
      <trkpt lat="48.12539" lon="6.61402">
        <ele>525.6</ele>
        <time>2023-09-03T10:03:59Z</time>
      </trkpt>
      <trkpt lat="48.1254" lon="6.61407">
        <ele>525.2</ele>
        <time>2023-09-03T10:04:00Z</time>
      </trkpt>
      <trkpt lat="48.12541" lon="6.61412">
        <ele>525</ele>
        <time>2023-09-03T10:04:01Z</time>
      </trkpt>
      <trkpt lat="48.12542" lon="6.61418">
        <ele>524.8</ele>
        <time>2023-09-03T10:04:02Z</time>
      </trkpt>
      <trkpt lat="48.12543" lon="6.61423">
        <ele>524.8</ele>
        <time>2023-09-03T10:04:03Z</time>
      </trkpt>
      <trkpt lat="48.12544" lon="6.61429">
        <ele>524.6</ele>
        <time>2023-09-03T10:04:04Z</time>
      </trkpt>
      <trkpt lat="48.12546" lon="6.61434">
        <ele>524.4</ele>
        <time>2023-09-03T10:04:05Z</time>
      </trkpt>
      <trkpt lat="48.12547" lon="6.61439">
        <ele>524</ele>
        <time>2023-09-03T10:04:06Z</time>
      </trkpt>
      <trkpt lat="48.12549" lon="6.61444">
        <ele>523.8</ele>
        <time>2023-09-03T10:04:07Z</time>
      </trkpt>
      <trkpt lat="48.12549" lon="6.61448">
        <ele>523.4</ele>
        <time>2023-09-03T10:04:08Z</time>
      </trkpt>
      <trkpt lat="48.1255" lon="6.61451">
        <ele>523.2</ele>
        <time>2023-09-03T10:04:09Z</time>
      </trkpt>
      <trkpt lat="48.12551" lon="6.61455">
        <ele>523</ele>
        <time>2023-09-03T10:04:10Z</time>
      </trkpt>
      <trkpt lat="48.12551" lon="6.6146">
        <ele>523</ele>
        <time>2023-09-03T10:04:11Z</time>
      </trkpt>
      <trkpt lat="48.12553" lon="6.61465">
        <ele>523</ele>
        <time>2023-09-03T10:04:12Z</time>
      </trkpt>
      <trkpt lat="48.12554" lon="6.6147">
        <ele>523</ele>
        <time>2023-09-03T10:04:13Z</time>
      </trkpt>
      <trkpt lat="48.12556" lon="6.61475">
        <ele>523</ele>
        <time>2023-09-03T10:04:14Z</time>
      </trkpt>
      <trkpt lat="48.12557" lon="6.61479">
        <ele>522.8</ele>
        <time>2023-09-03T10:04:15Z</time>
      </trkpt>
      <trkpt lat="48.12559" lon="6.61484">
        <ele>522.8</ele>
        <time>2023-09-03T10:04:16Z</time>
      </trkpt>
      <trkpt lat="48.12562" lon="6.6149">
        <ele>523</ele>
        <time>2023-09-03T10:04:17Z</time>
      </trkpt>
      <trkpt lat="48.12564" lon="6.61495">
        <ele>523</ele>
        <time>2023-09-03T10:04:18Z</time>
      </trkpt>
      <trkpt lat="48.12565" lon="6.61499">
        <ele>523.2</ele>
        <time>2023-09-03T10:04:19Z</time>
      </trkpt>
      <trkpt lat="48.12566" lon="6.61502">
        <ele>523.6</ele>
        <time>2023-09-03T10:04:20Z</time>
      </trkpt>
      <trkpt lat="48.12568" lon="6.61505">
        <ele>523.6</ele>
        <time>2023-09-03T10:04:21Z</time>
      </trkpt>
      <trkpt lat="48.12569" lon="6.61507">
        <ele>523.8</ele>
        <time>2023-09-03T10:04:22Z</time>
      </trkpt>
      <trkpt lat="48.12571" lon="6.61509">
        <ele>524</ele>
        <time>2023-09-03T10:04:23Z</time>
      </trkpt>
      <trkpt lat="48.12575" lon="6.61511">
        <ele>524</ele>
        <time>2023-09-03T10:04:24Z</time>
      </trkpt>
      <trkpt lat="48.12578" lon="6.61512">
        <ele>524</ele>
        <time>2023-09-03T10:04:25Z</time>
      </trkpt>
      <trkpt lat="48.12581" lon="6.61512">
        <ele>524.2</ele>
        <time>2023-09-03T10:04:26Z</time>
      </trkpt>
      <trkpt lat="48.12584" lon="6.61511">
        <ele>524.4</ele>
        <time>2023-09-03T10:04:27Z</time>
      </trkpt>
      <trkpt lat="48.12588" lon="6.6151">
        <ele>524.4</ele>
        <time>2023-09-03T10:04:28Z</time>
      </trkpt>
      <trkpt lat="48.12592" lon="6.61509">
        <ele>524.4</ele>
        <time>2023-09-03T10:04:29Z</time>
      </trkpt>
      <trkpt lat="48.12597" lon="6.61508">
        <ele>524.4</ele>
        <time>2023-09-03T10:04:30Z</time>
      </trkpt>
      <trkpt lat="48.12603" lon="6.61506">
        <ele>524.4</ele>
        <time>2023-09-03T10:04:31Z</time>
      </trkpt>
      <trkpt lat="48.12609" lon="6.61503">
        <ele>524.4</ele>
        <time>2023-09-03T10:04:32Z</time>
      </trkpt>
      <trkpt lat="48.12613" lon="6.61499">
        <ele>524.4</ele>
        <time>2023-09-03T10:04:33Z</time>
      </trkpt>
      <trkpt lat="48.12618" lon="6.61495">
        <ele>524.2</ele>
        <time>2023-09-03T10:04:34Z</time>
      </trkpt>
      <trkpt lat="48.12622" lon="6.61492">
        <ele>524.2</ele>
        <time>2023-09-03T10:04:35Z</time>
      </trkpt>
      <trkpt lat="48.12625" lon="6.6149">
        <ele>524</ele>
        <time>2023-09-03T10:04:36Z</time>
      </trkpt>
      <trkpt lat="48.12628" lon="6.61488">
        <ele>523.6</ele>
        <time>2023-09-03T10:04:37Z</time>
      </trkpt>
      <trkpt lat="48.12631" lon="6.61486">
        <ele>523</ele>
        <time>2023-09-03T10:04:38Z</time>
      </trkpt>
      <trkpt lat="48.12633" lon="6.61485">
        <ele>521.8</ele>
        <time>2023-09-03T10:04:39Z</time>
      </trkpt>
      <trkpt lat="48.12635" lon="6.61483">
        <ele>521.4</ele>
        <time>2023-09-03T10:04:40Z</time>
      </trkpt>
      <trkpt lat="48.12635" lon="6.61481">
        <ele>520.2</ele>
        <time>2023-09-03T10:04:41Z</time>
      </trkpt>
      <trkpt lat="48.12636" lon="6.61478">
        <ele>519.2</ele>
        <time>2023-09-03T10:04:42Z</time>
      </trkpt>
      <trkpt lat="48.12638" lon="6.61474">
        <ele>519</ele>
        <time>2023-09-03T10:04:43Z</time>
      </trkpt>
      <trkpt lat="48.12639" lon="6.61469">
        <ele>518.4</ele>
        <time>2023-09-03T10:04:44Z</time>
      </trkpt>
      <trkpt lat="48.12642" lon="6.61464">
        <ele>518.2</ele>
        <time>2023-09-03T10:04:45Z</time>
      </trkpt>
      <trkpt lat="48.12645" lon="6.61459">
        <ele>517.8</ele>
        <time>2023-09-03T10:04:46Z</time>
      </trkpt>
      <trkpt lat="48.1265" lon="6.61454">
        <ele>517.4</ele>
        <time>2023-09-03T10:04:47Z</time>
      </trkpt>
      <trkpt lat="48.12654" lon="6.61449">
        <ele>516.8</ele>
        <time>2023-09-03T10:04:48Z</time>
      </trkpt>
      <trkpt lat="48.12658" lon="6.61444">
        <ele>516.6</ele>
        <time>2023-09-03T10:04:49Z</time>
      </trkpt>
      <trkpt lat="48.12662" lon="6.61439">
        <ele>516</ele>
        <time>2023-09-03T10:04:50Z</time>
      </trkpt>
      <trkpt lat="48.12664" lon="6.61434">
        <ele>516</ele>
        <time>2023-09-03T10:04:51Z</time>
      </trkpt>
      <trkpt lat="48.12668" lon="6.61429">
        <ele>515.4</ele>
        <time>2023-09-03T10:04:52Z</time>
      </trkpt>
      <trkpt lat="48.12672" lon="6.61423">
        <ele>514</ele>
        <time>2023-09-03T10:04:53Z</time>
      </trkpt>
      <trkpt lat="48.12677" lon="6.61418">
        <ele>512.6</ele>
        <time>2023-09-03T10:04:54Z</time>
      </trkpt>
      <trkpt lat="48.12683" lon="6.61414">
        <ele>511.2</ele>
        <time>2023-09-03T10:04:55Z</time>
      </trkpt>
      <trkpt lat="48.12688" lon="6.61407">
        <ele>510.8</ele>
        <time>2023-09-03T10:04:56Z</time>
      </trkpt>
      <trkpt lat="48.12693" lon="6.61399">
        <ele>509.2</ele>
        <time>2023-09-03T10:04:57Z</time>
      </trkpt>
      <trkpt lat="48.12698" lon="6.61394">
        <ele>508.4</ele>
        <time>2023-09-03T10:04:58Z</time>
      </trkpt>
      <trkpt lat="48.12703" lon="6.61389">
        <ele>507.4</ele>
        <time>2023-09-03T10:04:59Z</time>
      </trkpt>
      <trkpt lat="48.12706" lon="6.61381">
        <ele>506.2</ele>
        <time>2023-09-03T10:05:00Z</time>
      </trkpt>
      <trkpt lat="48.12709" lon="6.61376">
        <ele>505</ele>
        <time>2023-09-03T10:05:01Z</time>
      </trkpt>
      <trkpt lat="48.12712" lon="6.61373">
        <ele>504.6</ele>
        <time>2023-09-03T10:05:02Z</time>
      </trkpt>
      <trkpt lat="48.12715" lon="6.61369">
        <ele>503.2</ele>
        <time>2023-09-03T10:05:03Z</time>
      </trkpt>
      <trkpt lat="48.12718" lon="6.61367">
        <ele>502.6</ele>
        <time>2023-09-03T10:05:04Z</time>
      </trkpt>
      <trkpt lat="48.12722" lon="6.61366">
        <ele>502</ele>
        <time>2023-09-03T10:05:05Z</time>
      </trkpt>
      <trkpt lat="48.12726" lon="6.61362">
        <ele>501.6</ele>
        <time>2023-09-03T10:05:06Z</time>
      </trkpt>
      <trkpt lat="48.12728" lon="6.61359">
        <ele>501.2</ele>
        <time>2023-09-03T10:05:07Z</time>
      </trkpt>
      <trkpt lat="48.12731" lon="6.61356">
        <ele>500</ele>
        <time>2023-09-03T10:05:08Z</time>
      </trkpt>
      <trkpt lat="48.12734" lon="6.61353">
        <ele>499.2</ele>
        <time>2023-09-03T10:05:09Z</time>
      </trkpt>
      <trkpt lat="48.12736" lon="6.61345">
        <ele>498.4</ele>
        <time>2023-09-03T10:05:10Z</time>
      </trkpt>
      <trkpt lat="48.12738" lon="6.61338">
        <ele>498</ele>
        <time>2023-09-03T10:05:11Z</time>
      </trkpt>
      <trkpt lat="48.12741" lon="6.61334">
        <ele>497.6</ele>
        <time>2023-09-03T10:05:12Z</time>
      </trkpt>
      <trkpt lat="48.12744" lon="6.6133">
        <ele>497</ele>
        <time>2023-09-03T10:05:13Z</time>
      </trkpt>
      <trkpt lat="48.12748" lon="6.61329">
        <ele>495.2</ele>
        <time>2023-09-03T10:05:14Z</time>
      </trkpt>
      <trkpt lat="48.12752" lon="6.61328">
        <ele>494</ele>
        <time>2023-09-03T10:05:15Z</time>
      </trkpt>
      <trkpt lat="48.12755" lon="6.6133">
        <ele>492.2</ele>
        <time>2023-09-03T10:05:16Z</time>
      </trkpt>
      <trkpt lat="48.12758" lon="6.6133">
        <ele>491</ele>
        <time>2023-09-03T10:05:17Z</time>
      </trkpt>
      <trkpt lat="48.1276" lon="6.61328">
        <ele>490.6</ele>
        <time>2023-09-03T10:05:18Z</time>
      </trkpt>
      <trkpt lat="48.12762" lon="6.61325">
        <ele>490.2</ele>
        <time>2023-09-03T10:05:19Z</time>
      </trkpt>
      <trkpt lat="48.12765" lon="6.61322">
        <ele>490</ele>
        <time>2023-09-03T10:05:20Z</time>
      </trkpt>
      <trkpt lat="48.12766" lon="6.61319">
        <ele>489.8</ele>
        <time>2023-09-03T10:05:21Z</time>
      </trkpt>
      <trkpt lat="48.12767" lon="6.61319">
        <ele>489.8</ele>
        <time>2023-09-03T10:05:22Z</time>
      </trkpt>
      <trkpt lat="48.12767" lon="6.61319">
        <ele>489.8</ele>
        <time>2023-09-03T10:05:23Z</time>
      </trkpt>
      <trkpt lat="48.12771" lon="6.61319">
        <ele>489.8</ele>
        <time>2023-09-03T10:05:24Z</time>
      </trkpt>
      <trkpt lat="48.12776" lon="6.61317">
        <ele>489.8</ele>
        <time>2023-09-03T10:05:25Z</time>
      </trkpt>
      <trkpt lat="48.12782" lon="6.61316">
        <ele>489.6</ele>
        <time>2023-09-03T10:05:26Z</time>
      </trkpt>
      <trkpt lat="48.12786" lon="6.61313">
        <ele>489.8</ele>
        <time>2023-09-03T10:05:27Z</time>
      </trkpt>
      <trkpt lat="48.12792" lon="6.61311">
        <ele>489.8</ele>
        <time>2023-09-03T10:05:28Z</time>
      </trkpt>
      <trkpt lat="48.128" lon="6.61306">
        <ele>489.8</ele>
        <time>2023-09-03T10:05:29Z</time>
      </trkpt>
      <trkpt lat="48.12808" lon="6.61302">
        <ele>490</ele>
        <time>2023-09-03T10:05:30Z</time>
      </trkpt>
      <trkpt lat="48.12814" lon="6.61297">
        <ele>490</ele>
        <time>2023-09-03T10:05:31Z</time>
      </trkpt>
      <trkpt lat="48.12818" lon="6.61293">
        <ele>490</ele>
        <time>2023-09-03T10:05:32Z</time>
      </trkpt>
      <trkpt lat="48.12822" lon="6.61291">
        <ele>489.8</ele>
        <time>2023-09-03T10:05:33Z</time>
      </trkpt>
      <trkpt lat="48.12827" lon="6.61286">
        <ele>489.8</ele>
        <time>2023-09-03T10:05:34Z</time>
      </trkpt>
      <trkpt lat="48.12831" lon="6.6128">
        <ele>489.6</ele>
        <time>2023-09-03T10:05:35Z</time>
      </trkpt>
      <trkpt lat="48.12835" lon="6.61277">
        <ele>489.6</ele>
        <time>2023-09-03T10:05:36Z</time>
      </trkpt>
      <trkpt lat="48.12838" lon="6.61276">
        <ele>489.6</ele>
        <time>2023-09-03T10:05:37Z</time>
      </trkpt>
      <trkpt lat="48.12842" lon="6.61275">
        <ele>489.6</ele>
        <time>2023-09-03T10:05:38Z</time>
      </trkpt>
      <trkpt lat="48.12847" lon="6.61275">
        <ele>489.6</ele>
        <time>2023-09-03T10:05:39Z</time>
      </trkpt>
      <trkpt lat="48.12855" lon="6.61275">
        <ele>489.6</ele>
        <time>2023-09-03T10:05:40Z</time>
      </trkpt>
      <trkpt lat="48.12863" lon="6.61276">
        <ele>489.4</ele>
        <time>2023-09-03T10:05:41Z</time>
      </trkpt>
      <trkpt lat="48.12871" lon="6.61275">
        <ele>489.4</ele>
        <time>2023-09-03T10:05:42Z</time>
      </trkpt>
      <trkpt lat="48.12878" lon="6.61273">
        <ele>489</ele>
        <time>2023-09-03T10:05:43Z</time>
      </trkpt>
      <trkpt lat="48.12887" lon="6.6127">
        <ele>488.6</ele>
        <time>2023-09-03T10:05:44Z</time>
      </trkpt>
      <trkpt lat="48.12893" lon="6.61263">
        <ele>488.6</ele>
        <time>2023-09-03T10:05:45Z</time>
      </trkpt>
      <trkpt lat="48.129" lon="6.6126">
        <ele>488.4</ele>
        <time>2023-09-03T10:05:46Z</time>
      </trkpt>
      <trkpt lat="48.12905" lon="6.61255">
        <ele>487.6</ele>
        <time>2023-09-03T10:05:47Z</time>
      </trkpt>
      <trkpt lat="48.12911" lon="6.61251">
        <ele>487.4</ele>
        <time>2023-09-03T10:05:48Z</time>
      </trkpt>
      <trkpt lat="48.12917" lon="6.61248">
        <ele>487</ele>
        <time>2023-09-03T10:05:49Z</time>
      </trkpt>
      <trkpt lat="48.12924" lon="6.61247">
        <ele>486.6</ele>
        <time>2023-09-03T10:05:50Z</time>
      </trkpt>
      <trkpt lat="48.12929" lon="6.61245">
        <ele>486.2</ele>
        <time>2023-09-03T10:05:51Z</time>
      </trkpt>
      <trkpt lat="48.12934" lon="6.61243">
        <ele>486</ele>
        <time>2023-09-03T10:05:52Z</time>
      </trkpt>
      <trkpt lat="48.12938" lon="6.61242">
        <ele>486</ele>
        <time>2023-09-03T10:05:53Z</time>
      </trkpt>
      <trkpt lat="48.12942" lon="6.61241">
        <ele>485.6</ele>
        <time>2023-09-03T10:05:54Z</time>
      </trkpt>
      <trkpt lat="48.12945" lon="6.61238">
        <ele>485.6</ele>
        <time>2023-09-03T10:05:55Z</time>
      </trkpt>
      <trkpt lat="48.12948" lon="6.61235">
        <ele>485.6</ele>
        <time>2023-09-03T10:05:56Z</time>
      </trkpt>
      <trkpt lat="48.12952" lon="6.61235">
        <ele>485.6</ele>
        <time>2023-09-03T10:05:57Z</time>
      </trkpt>
      <trkpt lat="48.12958" lon="6.61235">
        <ele>485.6</ele>
        <time>2023-09-03T10:05:58Z</time>
      </trkpt>
      <trkpt lat="48.12962" lon="6.61234">
        <ele>485.6</ele>
        <time>2023-09-03T10:05:59Z</time>
      </trkpt>
      <trkpt lat="48.12966" lon="6.61232">
        <ele>485.6</ele>
        <time>2023-09-03T10:06:00Z</time>
      </trkpt>
      <trkpt lat="48.12971" lon="6.6123">
        <ele>485.4</ele>
        <time>2023-09-03T10:06:01Z</time>
      </trkpt>
      <trkpt lat="48.12976" lon="6.61232">
        <ele>485.4</ele>
        <time>2023-09-03T10:06:02Z</time>
      </trkpt>
      <trkpt lat="48.12979" lon="6.61232">
        <ele>485.4</ele>
        <time>2023-09-03T10:06:03Z</time>
      </trkpt>
      <trkpt lat="48.12983" lon="6.61231">
        <ele>485.4</ele>
        <time>2023-09-03T10:06:04Z</time>
      </trkpt>
      <trkpt lat="48.12985" lon="6.6123">
        <ele>485.4</ele>
        <time>2023-09-03T10:06:05Z</time>
      </trkpt>
      <trkpt lat="48.12987" lon="6.61227">
        <ele>485.6</ele>
        <time>2023-09-03T10:06:06Z</time>
      </trkpt>
      <trkpt lat="48.12989" lon="6.61224">
        <ele>485.4</ele>
        <time>2023-09-03T10:06:07Z</time>
      </trkpt>
      <trkpt lat="48.12992" lon="6.61221">
        <ele>485.2</ele>
        <time>2023-09-03T10:06:08Z</time>
      </trkpt>
      <trkpt lat="48.12993" lon="6.6122">
        <ele>485.6</ele>
        <time>2023-09-03T10:06:09Z</time>
      </trkpt>
      <trkpt lat="48.12993" lon="6.6122">
        <ele>485.6</ele>
        <time>2023-09-03T10:06:10Z</time>
      </trkpt>
      <trkpt lat="48.12998" lon="6.61215">
        <ele>485.8</ele>
        <time>2023-09-03T10:06:11Z</time>
      </trkpt>
      <trkpt lat="48.13003" lon="6.6121">
        <ele>485.6</ele>
        <time>2023-09-03T10:06:12Z</time>
      </trkpt>
      <trkpt lat="48.13009" lon="6.61205">
        <ele>485.4</ele>
        <time>2023-09-03T10:06:13Z</time>
      </trkpt>
      <trkpt lat="48.13014" lon="6.61198">
        <ele>485.2</ele>
        <time>2023-09-03T10:06:14Z</time>
      </trkpt>
      <trkpt lat="48.13018" lon="6.61191">
        <ele>485</ele>
        <time>2023-09-03T10:06:15Z</time>
      </trkpt>
      <trkpt lat="48.13025" lon="6.61182">
        <ele>485</ele>
        <time>2023-09-03T10:06:16Z</time>
      </trkpt>
      <trkpt lat="48.13033" lon="6.61169">
        <ele>484.8</ele>
        <time>2023-09-03T10:06:17Z</time>
      </trkpt>
      <trkpt lat="48.1304" lon="6.61159">
        <ele>484.6</ele>
        <time>2023-09-03T10:06:18Z</time>
      </trkpt>
      <trkpt lat="48.13048" lon="6.61151">
        <ele>484.6</ele>
        <time>2023-09-03T10:06:19Z</time>
      </trkpt>
      <trkpt lat="48.13056" lon="6.61143">
        <ele>483.6</ele>
        <time>2023-09-03T10:06:20Z</time>
      </trkpt>
      <trkpt lat="48.1306" lon="6.61136">
        <ele>483.4</ele>
        <time>2023-09-03T10:06:21Z</time>
      </trkpt>
      <trkpt lat="48.13062" lon="6.61128">
        <ele>481.4</ele>
        <time>2023-09-03T10:06:22Z</time>
      </trkpt>
      <trkpt lat="48.13061" lon="6.6112">
        <ele>480.2</ele>
        <time>2023-09-03T10:06:23Z</time>
      </trkpt>
      <trkpt lat="48.13058" lon="6.61113">
        <ele>477.8</ele>
        <time>2023-09-03T10:06:24Z</time>
      </trkpt>
      <trkpt lat="48.13054" lon="6.61107">
        <ele>476.6</ele>
        <time>2023-09-03T10:06:25Z</time>
      </trkpt>
      <trkpt lat="48.13049" lon="6.611">
        <ele>476.2</ele>
        <time>2023-09-03T10:06:26Z</time>
      </trkpt>
      <trkpt lat="48.13042" lon="6.61095">
        <ele>475.6</ele>
        <time>2023-09-03T10:06:27Z</time>
      </trkpt>
      <trkpt lat="48.13036" lon="6.61091">
        <ele>475.4</ele>
        <time>2023-09-03T10:06:28Z</time>
      </trkpt>
      <trkpt lat="48.13029" lon="6.61089">
        <ele>474.2</ele>
        <time>2023-09-03T10:06:29Z</time>
      </trkpt>
      <trkpt lat="48.13022" lon="6.61086">
        <ele>473.6</ele>
        <time>2023-09-03T10:06:30Z</time>
      </trkpt>
      <trkpt lat="48.13016" lon="6.61083">
        <ele>472.6</ele>
        <time>2023-09-03T10:06:31Z</time>
      </trkpt>
      <trkpt lat="48.13009" lon="6.61081">
        <ele>471.4</ele>
        <time>2023-09-03T10:06:32Z</time>
      </trkpt>
      <trkpt lat="48.13003" lon="6.6108">
        <ele>469.6</ele>
        <time>2023-09-03T10:06:33Z</time>
      </trkpt>
      <trkpt lat="48.12997" lon="6.6108">
        <ele>469</ele>
        <time>2023-09-03T10:06:34Z</time>
      </trkpt>
      <trkpt lat="48.12992" lon="6.6108">
        <ele>468</ele>
        <time>2023-09-03T10:06:35Z</time>
      </trkpt>
      <trkpt lat="48.12987" lon="6.6108">
        <ele>466.6</ele>
        <time>2023-09-03T10:06:36Z</time>
      </trkpt>
      <trkpt lat="48.12982" lon="6.61081">
        <ele>466</ele>
        <time>2023-09-03T10:06:37Z</time>
      </trkpt>
      <trkpt lat="48.12976" lon="6.61081">
        <ele>465</ele>
        <time>2023-09-03T10:06:38Z</time>
      </trkpt>
      <trkpt lat="48.1297" lon="6.61081">
        <ele>464.8</ele>
        <time>2023-09-03T10:06:39Z</time>
      </trkpt>
      <trkpt lat="48.12964" lon="6.61082">
        <ele>464.4</ele>
        <time>2023-09-03T10:06:40Z</time>
      </trkpt>
      <trkpt lat="48.12959" lon="6.61082">
        <ele>463.8</ele>
        <time>2023-09-03T10:06:41Z</time>
      </trkpt>
      <trkpt lat="48.12951" lon="6.61085">
        <ele>463.2</ele>
        <time>2023-09-03T10:06:42Z</time>
      </trkpt>
      <trkpt lat="48.12945" lon="6.61088">
        <ele>462.8</ele>
        <time>2023-09-03T10:06:43Z</time>
      </trkpt>
      <trkpt lat="48.12939" lon="6.61092">
        <ele>462.4</ele>
        <time>2023-09-03T10:06:44Z</time>
      </trkpt>
      <trkpt lat="48.12934" lon="6.61094">
        <ele>462</ele>
        <time>2023-09-03T10:06:45Z</time>
      </trkpt>
      <trkpt lat="48.12927" lon="6.61095">
        <ele>461.4</ele>
        <time>2023-09-03T10:06:46Z</time>
      </trkpt>
      <trkpt lat="48.12921" lon="6.61096">
        <ele>460.4</ele>
        <time>2023-09-03T10:06:47Z</time>
      </trkpt>
      <trkpt lat="48.12916" lon="6.61095">
        <ele>459.6</ele>
        <time>2023-09-03T10:06:48Z</time>
      </trkpt>
      <trkpt lat="48.12911" lon="6.61094">
        <ele>458.8</ele>
        <time>2023-09-03T10:06:49Z</time>
      </trkpt>
      <trkpt lat="48.12907" lon="6.61093">
        <ele>458.2</ele>
        <time>2023-09-03T10:06:50Z</time>
      </trkpt>
      <trkpt lat="48.12902" lon="6.6109">
        <ele>457.2</ele>
        <time>2023-09-03T10:06:51Z</time>
      </trkpt>
      <trkpt lat="48.12898" lon="6.61085">
        <ele>456.8</ele>
        <time>2023-09-03T10:06:52Z</time>
      </trkpt>
      <trkpt lat="48.12895" lon="6.6108">
        <ele>455.8</ele>
        <time>2023-09-03T10:06:53Z</time>
      </trkpt>
      <trkpt lat="48.12893" lon="6.61075">
        <ele>455.2</ele>
        <time>2023-09-03T10:06:54Z</time>
      </trkpt>
      <trkpt lat="48.12892" lon="6.61068">
        <ele>454</ele>
        <time>2023-09-03T10:06:55Z</time>
      </trkpt>
      <trkpt lat="48.12894" lon="6.61062">
        <ele>453</ele>
        <time>2023-09-03T10:06:56Z</time>
      </trkpt>
      <trkpt lat="48.12899" lon="6.61057">
        <ele>451</ele>
        <time>2023-09-03T10:06:57Z</time>
      </trkpt>
      <trkpt lat="48.12904" lon="6.61052">
        <ele>449.2</ele>
        <time>2023-09-03T10:06:58Z</time>
      </trkpt>
      <trkpt lat="48.12909" lon="6.61046">
        <ele>448.2</ele>
        <time>2023-09-03T10:06:59Z</time>
      </trkpt>
      <trkpt lat="48.12915" lon="6.61039">
        <ele>447</ele>
        <time>2023-09-03T10:07:00Z</time>
      </trkpt>
      <trkpt lat="48.12919" lon="6.6103">
        <ele>446.4</ele>
        <time>2023-09-03T10:07:01Z</time>
      </trkpt>
      <trkpt lat="48.12925" lon="6.61023">
        <ele>444.8</ele>
        <time>2023-09-03T10:07:02Z</time>
      </trkpt>
      <trkpt lat="48.12931" lon="6.61015">
        <ele>444</ele>
        <time>2023-09-03T10:07:03Z</time>
      </trkpt>
      <trkpt lat="48.12937" lon="6.61006">
        <ele>442.8</ele>
        <time>2023-09-03T10:07:04Z</time>
      </trkpt>
      <trkpt lat="48.12943" lon="6.60998">
        <ele>442.4</ele>
        <time>2023-09-03T10:07:05Z</time>
      </trkpt>
      <trkpt lat="48.1295" lon="6.60988">
        <ele>441</ele>
        <time>2023-09-03T10:07:06Z</time>
      </trkpt>
      <trkpt lat="48.12958" lon="6.6098">
        <ele>440</ele>
        <time>2023-09-03T10:07:07Z</time>
      </trkpt>
      <trkpt lat="48.12966" lon="6.60973">
        <ele>438.8</ele>
        <time>2023-09-03T10:07:08Z</time>
      </trkpt>
      <trkpt lat="48.12974" lon="6.60964">
        <ele>438</ele>
        <time>2023-09-03T10:07:09Z</time>
      </trkpt>
      <trkpt lat="48.1298" lon="6.60952">
        <ele>437.8</ele>
        <time>2023-09-03T10:07:10Z</time>
      </trkpt>
      <trkpt lat="48.12986" lon="6.6094">
        <ele>437.4</ele>
        <time>2023-09-03T10:07:11Z</time>
      </trkpt>
      <trkpt lat="48.12992" lon="6.60926">
        <ele>437.2</ele>
        <time>2023-09-03T10:07:12Z</time>
      </trkpt>
      <trkpt lat="48.12996" lon="6.60911">
        <ele>436.6</ele>
        <time>2023-09-03T10:07:13Z</time>
      </trkpt>
      <trkpt lat="48.12999" lon="6.60895">
        <ele>436.4</ele>
        <time>2023-09-03T10:07:14Z</time>
      </trkpt>
      <trkpt lat="48.13003" lon="6.60877">
        <ele>435.4</ele>
        <time>2023-09-03T10:07:15Z</time>
      </trkpt>
      <trkpt lat="48.13006" lon="6.60859">
        <ele>435.2</ele>
        <time>2023-09-03T10:07:16Z</time>
      </trkpt>
      <trkpt lat="48.13011" lon="6.60842">
        <ele>433.6</ele>
        <time>2023-09-03T10:07:17Z</time>
      </trkpt>
      <trkpt lat="48.13016" lon="6.60824">
        <ele>432.8</ele>
        <time>2023-09-03T10:07:18Z</time>
      </trkpt>
      <trkpt lat="48.13021" lon="6.60807">
        <ele>431.4</ele>
        <time>2023-09-03T10:07:19Z</time>
      </trkpt>
      <trkpt lat="48.13028" lon="6.6079">
        <ele>430.2</ele>
        <time>2023-09-03T10:07:20Z</time>
      </trkpt>
      <trkpt lat="48.13035" lon="6.60773">
        <ele>429.8</ele>
        <time>2023-09-03T10:07:21Z</time>
      </trkpt>
      <trkpt lat="48.13042" lon="6.60756">
        <ele>427.8</ele>
        <time>2023-09-03T10:07:22Z</time>
      </trkpt>
      <trkpt lat="48.1305" lon="6.60741">
        <ele>427</ele>
        <time>2023-09-03T10:07:23Z</time>
      </trkpt>
      <trkpt lat="48.13059" lon="6.60726">
        <ele>424.8</ele>
        <time>2023-09-03T10:07:24Z</time>
      </trkpt>
      <trkpt lat="48.13068" lon="6.60713">
        <ele>424</ele>
        <time>2023-09-03T10:07:25Z</time>
      </trkpt>
      <trkpt lat="48.13078" lon="6.60701">
        <ele>422.4</ele>
        <time>2023-09-03T10:07:26Z</time>
      </trkpt>
      <trkpt lat="48.13088" lon="6.60689">
        <ele>421.8</ele>
        <time>2023-09-03T10:07:27Z</time>
      </trkpt>
      <trkpt lat="48.13097" lon="6.60677">
        <ele>420.4</ele>
        <time>2023-09-03T10:07:28Z</time>
      </trkpt>
      <trkpt lat="48.13107" lon="6.60666">
        <ele>419.4</ele>
        <time>2023-09-03T10:07:29Z</time>
      </trkpt>
      <trkpt lat="48.13117" lon="6.60656">
        <ele>418.2</ele>
        <time>2023-09-03T10:07:30Z</time>
      </trkpt>
      <trkpt lat="48.13127" lon="6.60644">
        <ele>417.2</ele>
        <time>2023-09-03T10:07:31Z</time>
      </trkpt>
      <trkpt lat="48.13136" lon="6.60631">
        <ele>416.6</ele>
        <time>2023-09-03T10:07:32Z</time>
      </trkpt>
      <trkpt lat="48.13144" lon="6.60619">
        <ele>415.2</ele>
        <time>2023-09-03T10:07:33Z</time>
      </trkpt>
      <trkpt lat="48.13151" lon="6.60608">
        <ele>414.6</ele>
        <time>2023-09-03T10:07:34Z</time>
      </trkpt>
      <trkpt lat="48.13157" lon="6.60596">
        <ele>413.4</ele>
        <time>2023-09-03T10:07:35Z</time>
      </trkpt>
      <trkpt lat="48.13162" lon="6.60583">
        <ele>413</ele>
        <time>2023-09-03T10:07:36Z</time>
      </trkpt>
      <trkpt lat="48.13164" lon="6.6057">
        <ele>411.6</ele>
        <time>2023-09-03T10:07:37Z</time>
      </trkpt>
      <trkpt lat="48.13165" lon="6.60559">
        <ele>410.8</ele>
        <time>2023-09-03T10:07:38Z</time>
      </trkpt>
      <trkpt lat="48.13166" lon="6.60549">
        <ele>409.2</ele>
        <time>2023-09-03T10:07:39Z</time>
      </trkpt>
      <trkpt lat="48.13169" lon="6.60543">
        <ele>408.6</ele>
        <time>2023-09-03T10:07:40Z</time>
      </trkpt>
      <trkpt lat="48.13173" lon="6.60539">
        <ele>407.6</ele>
        <time>2023-09-03T10:07:41Z</time>
      </trkpt>
      <trkpt lat="48.13178" lon="6.60538">
        <ele>406.4</ele>
        <time>2023-09-03T10:07:42Z</time>
      </trkpt>
      <trkpt lat="48.13182" lon="6.60538">
        <ele>405.8</ele>
        <time>2023-09-03T10:07:43Z</time>
      </trkpt>
      <trkpt lat="48.13186" lon="6.60538">
        <ele>403.8</ele>
        <time>2023-09-03T10:07:44Z</time>
      </trkpt>
      <trkpt lat="48.1319" lon="6.60539">
        <ele>403.2</ele>
        <time>2023-09-03T10:07:45Z</time>
      </trkpt>
      <trkpt lat="48.13194" lon="6.60539">
        <ele>402.6</ele>
        <time>2023-09-03T10:07:46Z</time>
      </trkpt>
      <trkpt lat="48.13197" lon="6.60539">
        <ele>402.4</ele>
        <time>2023-09-03T10:07:47Z</time>
      </trkpt>
      <trkpt lat="48.13201" lon="6.60539">
        <ele>402</ele>
        <time>2023-09-03T10:07:48Z</time>
      </trkpt>
      <trkpt lat="48.13204" lon="6.60539">
        <ele>401.8</ele>
        <time>2023-09-03T10:07:49Z</time>
      </trkpt>
      <trkpt lat="48.13208" lon="6.60539">
        <ele>401.6</ele>
        <time>2023-09-03T10:07:50Z</time>
      </trkpt>
      <trkpt lat="48.13213" lon="6.60538">
        <ele>401.4</ele>
        <time>2023-09-03T10:07:51Z</time>
      </trkpt>
      <trkpt lat="48.13217" lon="6.60538">
        <ele>401.4</ele>
        <time>2023-09-03T10:07:52Z</time>
      </trkpt>
      <trkpt lat="48.13221" lon="6.60537">
        <ele>401.4</ele>
        <time>2023-09-03T10:07:53Z</time>
      </trkpt>
      <trkpt lat="48.13225" lon="6.60537">
        <ele>401.2</ele>
        <time>2023-09-03T10:07:54Z</time>
      </trkpt>
      <trkpt lat="48.1323" lon="6.60536">
        <ele>401.2</ele>
        <time>2023-09-03T10:07:55Z</time>
      </trkpt>
      <trkpt lat="48.13234" lon="6.60535">
        <ele>401.2</ele>
        <time>2023-09-03T10:07:56Z</time>
      </trkpt>
      <trkpt lat="48.13237" lon="6.60535">
        <ele>401.2</ele>
        <time>2023-09-03T10:07:57Z</time>
      </trkpt>
      <trkpt lat="48.1324" lon="6.60532">
        <ele>401</ele>
        <time>2023-09-03T10:07:58Z</time>
      </trkpt>
      <trkpt lat="48.13243" lon="6.60528">
        <ele>401</ele>
        <time>2023-09-03T10:07:59Z</time>
      </trkpt>
      <trkpt lat="48.13244" lon="6.60523">
        <ele>401</ele>
        <time>2023-09-03T10:08:00Z</time>
      </trkpt>
      <trkpt lat="48.13246" lon="6.60516">
        <ele>400.8</ele>
        <time>2023-09-03T10:08:01Z</time>
      </trkpt>
      <trkpt lat="48.13246" lon="6.60509">
        <ele>400.6</ele>
        <time>2023-09-03T10:08:02Z</time>
      </trkpt>
      <trkpt lat="48.13247" lon="6.60503">
        <ele>400.2</ele>
        <time>2023-09-03T10:08:03Z</time>
      </trkpt>
      <trkpt lat="48.13249" lon="6.60497">
        <ele>398.8</ele>
        <time>2023-09-03T10:08:04Z</time>
      </trkpt>
      <trkpt lat="48.13251" lon="6.6049">
        <ele>398.6</ele>
        <time>2023-09-03T10:08:05Z</time>
      </trkpt>
      <trkpt lat="48.13253" lon="6.60483">
        <ele>398.2</ele>
        <time>2023-09-03T10:08:06Z</time>
      </trkpt>
      <trkpt lat="48.13255" lon="6.60476">
        <ele>397.6</ele>
        <time>2023-09-03T10:08:07Z</time>
      </trkpt>
      <trkpt lat="48.13258" lon="6.6047">
        <ele>396.4</ele>
        <time>2023-09-03T10:08:08Z</time>
      </trkpt>
      <trkpt lat="48.13261" lon="6.60466">
        <ele>395.8</ele>
        <time>2023-09-03T10:08:09Z</time>
      </trkpt>
      <trkpt lat="48.13267" lon="6.60462">
        <ele>394.8</ele>
        <time>2023-09-03T10:08:10Z</time>
      </trkpt>
      <trkpt lat="48.13272" lon="6.60461">
        <ele>394.4</ele>
        <time>2023-09-03T10:08:11Z</time>
      </trkpt>
      <trkpt lat="48.13279" lon="6.6046">
        <ele>393.6</ele>
        <time>2023-09-03T10:08:12Z</time>
      </trkpt>
      <trkpt lat="48.13284" lon="6.60458">
        <ele>392.6</ele>
        <time>2023-09-03T10:08:13Z</time>
      </trkpt>
      <trkpt lat="48.13292" lon="6.60456">
        <ele>392.2</ele>
        <time>2023-09-03T10:08:14Z</time>
      </trkpt>
      <trkpt lat="48.13297" lon="6.60453">
        <ele>391.8</ele>
        <time>2023-09-03T10:08:15Z</time>
      </trkpt>
      <trkpt lat="48.13301" lon="6.6045">
        <ele>391.6</ele>
        <time>2023-09-03T10:08:16Z</time>
      </trkpt>
      <trkpt lat="48.13305" lon="6.60447">
        <ele>391.2</ele>
        <time>2023-09-03T10:08:17Z</time>
      </trkpt>
      <trkpt lat="48.13308" lon="6.60445">
        <ele>390.6</ele>
        <time>2023-09-03T10:08:18Z</time>
      </trkpt>
      <trkpt lat="48.13312" lon="6.60444">
        <ele>389.6</ele>
        <time>2023-09-03T10:08:19Z</time>
      </trkpt>
      <trkpt lat="48.13316" lon="6.60444">
        <ele>388.6</ele>
        <time>2023-09-03T10:08:20Z</time>
      </trkpt>
      <trkpt lat="48.13319" lon="6.60443">
        <ele>386.6</ele>
        <time>2023-09-03T10:08:21Z</time>
      </trkpt>
      <trkpt lat="48.13324" lon="6.60439">
        <ele>385.8</ele>
        <time>2023-09-03T10:08:22Z</time>
      </trkpt>
      <trkpt lat="48.13326" lon="6.60435">
        <ele>384.8</ele>
        <time>2023-09-03T10:08:23Z</time>
      </trkpt>
      <trkpt lat="48.13328" lon="6.60432">
        <ele>383.2</ele>
        <time>2023-09-03T10:08:24Z</time>
      </trkpt>
      <trkpt lat="48.1333" lon="6.60431">
        <ele>382.6</ele>
        <time>2023-09-03T10:08:25Z</time>
      </trkpt>
      <trkpt lat="48.13333" lon="6.60433">
        <ele>381.6</ele>
        <time>2023-09-03T10:08:26Z</time>
      </trkpt>
      <trkpt lat="48.13337" lon="6.60436">
        <ele>381.2</ele>
        <time>2023-09-03T10:08:27Z</time>
      </trkpt>
      <trkpt lat="48.1334" lon="6.60437">
        <ele>380.6</ele>
        <time>2023-09-03T10:08:28Z</time>
      </trkpt>
      <trkpt lat="48.13345" lon="6.60438">
        <ele>380.4</ele>
        <time>2023-09-03T10:08:29Z</time>
      </trkpt>
      <trkpt lat="48.1335" lon="6.60439">
        <ele>380</ele>
        <time>2023-09-03T10:08:30Z</time>
      </trkpt>
      <trkpt lat="48.13357" lon="6.60438">
        <ele>379.8</ele>
        <time>2023-09-03T10:08:31Z</time>
      </trkpt>
      <trkpt lat="48.13362" lon="6.60435">
        <ele>379.4</ele>
        <time>2023-09-03T10:08:32Z</time>
      </trkpt>
      <trkpt lat="48.13366" lon="6.6043">
        <ele>379.4</ele>
        <time>2023-09-03T10:08:33Z</time>
      </trkpt>
      <trkpt lat="48.13369" lon="6.60426">
        <ele>378.8</ele>
        <time>2023-09-03T10:08:34Z</time>
      </trkpt>
      <trkpt lat="48.13373" lon="6.60419">
        <ele>378.4</ele>
        <time>2023-09-03T10:08:35Z</time>
      </trkpt>
      <trkpt lat="48.13376" lon="6.60416">
        <ele>378.2</ele>
        <time>2023-09-03T10:08:36Z</time>
      </trkpt>
      <trkpt lat="48.1338" lon="6.6041">
        <ele>377.8</ele>
        <time>2023-09-03T10:08:37Z</time>
      </trkpt>
      <trkpt lat="48.13383" lon="6.60405">
        <ele>377.8</ele>
        <time>2023-09-03T10:08:38Z</time>
      </trkpt>
      <trkpt lat="48.13385" lon="6.60401">
        <ele>377.6</ele>
        <time>2023-09-03T10:08:39Z</time>
      </trkpt>
      <trkpt lat="48.13389" lon="6.60396">
        <ele>377.4</ele>
        <time>2023-09-03T10:08:40Z</time>
      </trkpt>
      <trkpt lat="48.13391" lon="6.60391">
        <ele>377.4</ele>
        <time>2023-09-03T10:08:41Z</time>
      </trkpt>
      <trkpt lat="48.13393" lon="6.60387">
        <ele>377.4</ele>
        <time>2023-09-03T10:08:42Z</time>
      </trkpt>
      <trkpt lat="48.13395" lon="6.60383">
        <ele>377.2</ele>
        <time>2023-09-03T10:08:43Z</time>
      </trkpt>
      <trkpt lat="48.13397" lon="6.6038">
        <ele>377.2</ele>
        <time>2023-09-03T10:08:44Z</time>
      </trkpt>
      <trkpt lat="48.134" lon="6.60377">
        <ele>377</ele>
        <time>2023-09-03T10:08:45Z</time>
      </trkpt>
      <trkpt lat="48.13402" lon="6.60373">
        <ele>376.8</ele>
        <time>2023-09-03T10:08:46Z</time>
      </trkpt>
      <trkpt lat="48.13404" lon="6.60369">
        <ele>376.8</ele>
        <time>2023-09-03T10:08:47Z</time>
      </trkpt>
      <trkpt lat="48.13406" lon="6.60365">
        <ele>376.6</ele>
        <time>2023-09-03T10:08:48Z</time>
      </trkpt>
      <trkpt lat="48.13408" lon="6.6036">
        <ele>376.6</ele>
        <time>2023-09-03T10:08:49Z</time>
      </trkpt>
      <trkpt lat="48.1341" lon="6.60357">
        <ele>376.4</ele>
        <time>2023-09-03T10:08:50Z</time>
      </trkpt>
      <trkpt lat="48.13411" lon="6.60353">
        <ele>376.4</ele>
        <time>2023-09-03T10:08:51Z</time>
      </trkpt>
      <trkpt lat="48.13412" lon="6.6035">
        <ele>376.2</ele>
        <time>2023-09-03T10:08:52Z</time>
      </trkpt>
      <trkpt lat="48.13413" lon="6.60349">
        <ele>376</ele>
        <time>2023-09-03T10:08:53Z</time>
      </trkpt>
      <trkpt lat="48.13415" lon="6.60347">
        <ele>375.8</ele>
        <time>2023-09-03T10:08:54Z</time>
      </trkpt>
      <trkpt lat="48.13415" lon="6.60347">
        <ele>375.8</ele>
        <time>2023-09-03T10:08:55Z</time>
      </trkpt>
      <trkpt lat="48.13418" lon="6.60347">
        <ele>375</ele>
        <time>2023-09-03T10:09:27Z</time>
      </trkpt>
      <trkpt lat="48.13422" lon="6.60348">
        <ele>375</ele>
        <time>2023-09-03T10:09:28Z</time>
      </trkpt>
      <trkpt lat="48.13426" lon="6.60348">
        <ele>375</ele>
        <time>2023-09-03T10:09:29Z</time>
      </trkpt>
      <trkpt lat="48.1343" lon="6.60349">
        <ele>375.2</ele>
        <time>2023-09-03T10:09:30Z</time>
      </trkpt>
      <trkpt lat="48.13434" lon="6.60349">
        <ele>375.2</ele>
        <time>2023-09-03T10:09:31Z</time>
      </trkpt>
      <trkpt lat="48.13439" lon="6.6035">
        <ele>375.2</ele>
        <time>2023-09-03T10:09:32Z</time>
      </trkpt>
      <trkpt lat="48.13444" lon="6.60349">
        <ele>375.2</ele>
        <time>2023-09-03T10:09:33Z</time>
      </trkpt>
      <trkpt lat="48.13448" lon="6.60347">
        <ele>375.6</ele>
        <time>2023-09-03T10:09:34Z</time>
      </trkpt>
      <trkpt lat="48.13454" lon="6.60347">
        <ele>375.6</ele>
        <time>2023-09-03T10:09:35Z</time>
      </trkpt>
      <trkpt lat="48.13459" lon="6.60346">
        <ele>375.8</ele>
        <time>2023-09-03T10:09:36Z</time>
      </trkpt>
      <trkpt lat="48.13463" lon="6.60344">
        <ele>375.8</ele>
        <time>2023-09-03T10:09:37Z</time>
      </trkpt>
      <trkpt lat="48.13468" lon="6.60342">
        <ele>375.8</ele>
        <time>2023-09-03T10:09:38Z</time>
      </trkpt>
      <trkpt lat="48.13472" lon="6.60339">
        <ele>375.8</ele>
        <time>2023-09-03T10:09:39Z</time>
      </trkpt>
      <trkpt lat="48.13476" lon="6.60334">
        <ele>376</ele>
        <time>2023-09-03T10:09:40Z</time>
      </trkpt>
      <trkpt lat="48.13479" lon="6.60329">
        <ele>376</ele>
        <time>2023-09-03T10:09:41Z</time>
      </trkpt>
      <trkpt lat="48.13482" lon="6.60323">
        <ele>376</ele>
        <time>2023-09-03T10:09:42Z</time>
      </trkpt>
      <trkpt lat="48.13484" lon="6.60317">
        <ele>376.2</ele>
        <time>2023-09-03T10:09:43Z</time>
      </trkpt>
      <trkpt lat="48.13485" lon="6.6031">
        <ele>376.2</ele>
        <time>2023-09-03T10:09:44Z</time>
      </trkpt>
      <trkpt lat="48.13485" lon="6.60302">
        <ele>376.2</ele>
        <time>2023-09-03T10:09:45Z</time>
      </trkpt>
      <trkpt lat="48.13485" lon="6.60295">
        <ele>376.2</ele>
        <time>2023-09-03T10:09:46Z</time>
      </trkpt>
      <trkpt lat="48.13484" lon="6.60288">
        <ele>376.2</ele>
        <time>2023-09-03T10:09:47Z</time>
      </trkpt>
      <trkpt lat="48.13483" lon="6.60281">
        <ele>376.2</ele>
        <time>2023-09-03T10:09:48Z</time>
      </trkpt>
      <trkpt lat="48.13481" lon="6.60273">
        <ele>376</ele>
        <time>2023-09-03T10:09:49Z</time>
      </trkpt>
      <trkpt lat="48.13479" lon="6.60266">
        <ele>376</ele>
        <time>2023-09-03T10:09:50Z</time>
      </trkpt>
      <trkpt lat="48.13478" lon="6.60259">
        <ele>376</ele>
        <time>2023-09-03T10:09:51Z</time>
      </trkpt>
      <trkpt lat="48.13476" lon="6.60252">
        <ele>376.2</ele>
        <time>2023-09-03T10:09:52Z</time>
      </trkpt>
      <trkpt lat="48.13475" lon="6.60245">
        <ele>376.4</ele>
        <time>2023-09-03T10:09:53Z</time>
      </trkpt>
      <trkpt lat="48.13474" lon="6.60238">
        <ele>376.4</ele>
        <time>2023-09-03T10:09:54Z</time>
      </trkpt>
      <trkpt lat="48.13473" lon="6.60231">
        <ele>376.2</ele>
        <time>2023-09-03T10:09:55Z</time>
      </trkpt>
      <trkpt lat="48.13473" lon="6.60224">
        <ele>376.2</ele>
        <time>2023-09-03T10:09:56Z</time>
      </trkpt>
      <trkpt lat="48.13473" lon="6.60217">
        <ele>376.2</ele>
        <time>2023-09-03T10:09:57Z</time>
      </trkpt>
      <trkpt lat="48.13473" lon="6.6021">
        <ele>376.2</ele>
        <time>2023-09-03T10:09:58Z</time>
      </trkpt>
      <trkpt lat="48.13473" lon="6.60202">
        <ele>376.2</ele>
        <time>2023-09-03T10:09:59Z</time>
      </trkpt>
      <trkpt lat="48.13473" lon="6.60196">
        <ele>376.2</ele>
        <time>2023-09-03T10:10:00Z</time>
      </trkpt>
      <trkpt lat="48.13471" lon="6.60191">
        <ele>376.2</ele>
        <time>2023-09-03T10:10:01Z</time>
      </trkpt>
      <trkpt lat="48.13469" lon="6.60187">
        <ele>376.2</ele>
        <time>2023-09-03T10:10:02Z</time>
      </trkpt>
      <trkpt lat="48.13466" lon="6.60183">
        <ele>376</ele>
        <time>2023-09-03T10:10:03Z</time>
      </trkpt>
      <trkpt lat="48.13463" lon="6.60178">
        <ele>376</ele>
        <time>2023-09-03T10:10:04Z</time>
      </trkpt>
      <trkpt lat="48.1346" lon="6.60173">
        <ele>375.8</ele>
        <time>2023-09-03T10:10:05Z</time>
      </trkpt>
      <trkpt lat="48.13457" lon="6.60167">
        <ele>375.8</ele>
        <time>2023-09-03T10:10:06Z</time>
      </trkpt>
      <trkpt lat="48.13454" lon="6.60162">
        <ele>375.8</ele>
        <time>2023-09-03T10:10:07Z</time>
      </trkpt>
      <trkpt lat="48.13451" lon="6.60156">
        <ele>375.8</ele>
        <time>2023-09-03T10:10:08Z</time>
      </trkpt>
      <trkpt lat="48.13447" lon="6.6015">
        <ele>375.8</ele>
        <time>2023-09-03T10:10:09Z</time>
      </trkpt>
      <trkpt lat="48.13444" lon="6.60145">
        <ele>375.6</ele>
        <time>2023-09-03T10:10:10Z</time>
      </trkpt>
      <trkpt lat="48.1344" lon="6.60139">
        <ele>375.6</ele>
        <time>2023-09-03T10:10:11Z</time>
      </trkpt>
      <trkpt lat="48.13436" lon="6.60134">
        <ele>375.6</ele>
        <time>2023-09-03T10:10:12Z</time>
      </trkpt>
      <trkpt lat="48.13432" lon="6.60128">
        <ele>375.6</ele>
        <time>2023-09-03T10:10:13Z</time>
      </trkpt>
      <trkpt lat="48.13428" lon="6.60123">
        <ele>375.4</ele>
        <time>2023-09-03T10:10:14Z</time>
      </trkpt>
      <trkpt lat="48.13424" lon="6.60118">
        <ele>375.8</ele>
        <time>2023-09-03T10:10:15Z</time>
      </trkpt>
      <trkpt lat="48.13419" lon="6.60113">
        <ele>376</ele>
        <time>2023-09-03T10:10:16Z</time>
      </trkpt>
      <trkpt lat="48.13414" lon="6.60107">
        <ele>376</ele>
        <time>2023-09-03T10:10:17Z</time>
      </trkpt>
      <trkpt lat="48.13409" lon="6.60102">
        <ele>376</ele>
        <time>2023-09-03T10:10:18Z</time>
      </trkpt>
      <trkpt lat="48.13404" lon="6.60096">
        <ele>376.2</ele>
        <time>2023-09-03T10:10:19Z</time>
      </trkpt>
      <trkpt lat="48.13399" lon="6.60091">
        <ele>376.2</ele>
        <time>2023-09-03T10:10:20Z</time>
      </trkpt>
      <trkpt lat="48.13395" lon="6.60086">
        <ele>376.2</ele>
        <time>2023-09-03T10:10:21Z</time>
      </trkpt>
      <trkpt lat="48.13383" lon="6.60076">
        <ele>375.8</ele>
        <time>2023-09-03T10:10:23Z</time>
      </trkpt>
      <trkpt lat="48.13377" lon="6.60072">
        <ele>375.8</ele>
        <time>2023-09-03T10:10:24Z</time>
      </trkpt>
      <trkpt lat="48.13371" lon="6.60067">
        <ele>375.8</ele>
        <time>2023-09-03T10:10:25Z</time>
      </trkpt>
      <trkpt lat="48.13365" lon="6.60063">
        <ele>375.8</ele>
        <time>2023-09-03T10:10:26Z</time>
      </trkpt>
      <trkpt lat="48.1336" lon="6.60059">
        <ele>375.8</ele>
        <time>2023-09-03T10:10:27Z</time>
      </trkpt>
      <trkpt lat="48.13354" lon="6.60055">
        <ele>375.6</ele>
        <time>2023-09-03T10:10:28Z</time>
      </trkpt>
      <trkpt lat="48.13348" lon="6.6005">
        <ele>375.8</ele>
        <time>2023-09-03T10:10:29Z</time>
      </trkpt>
      <trkpt lat="48.13342" lon="6.60046">
        <ele>375.8</ele>
        <time>2023-09-03T10:10:30Z</time>
      </trkpt>
      <trkpt lat="48.13337" lon="6.60041">
        <ele>375.6</ele>
        <time>2023-09-03T10:10:31Z</time>
      </trkpt>
      <trkpt lat="48.13331" lon="6.60037">
        <ele>375.6</ele>
        <time>2023-09-03T10:10:32Z</time>
      </trkpt>
      <trkpt lat="48.13326" lon="6.60031">
        <ele>375.4</ele>
        <time>2023-09-03T10:10:33Z</time>
      </trkpt>
      <trkpt lat="48.1332" lon="6.60026">
        <ele>375.4</ele>
        <time>2023-09-03T10:10:34Z</time>
      </trkpt>
      <trkpt lat="48.13314" lon="6.60021">
        <ele>375.4</ele>
        <time>2023-09-03T10:10:35Z</time>
      </trkpt>
      <trkpt lat="48.13309" lon="6.60016">
        <ele>375.4</ele>
        <time>2023-09-03T10:10:36Z</time>
      </trkpt>
      <trkpt lat="48.13303" lon="6.60011">
        <ele>375.2</ele>
        <time>2023-09-03T10:10:37Z</time>
      </trkpt>
      <trkpt lat="48.13297" lon="6.60006">
        <ele>375.2</ele>
        <time>2023-09-03T10:10:38Z</time>
      </trkpt>
      <trkpt lat="48.13291" lon="6.60002">
        <ele>375.2</ele>
        <time>2023-09-03T10:10:39Z</time>
      </trkpt>
      <trkpt lat="48.13285" lon="6.59997">
        <ele>375</ele>
        <time>2023-09-03T10:10:40Z</time>
      </trkpt>
      <trkpt lat="48.1328" lon="6.59992">
        <ele>374.8</ele>
        <time>2023-09-03T10:10:41Z</time>
      </trkpt>
      <trkpt lat="48.13274" lon="6.59986">
        <ele>375</ele>
        <time>2023-09-03T10:10:42Z</time>
      </trkpt>
      <trkpt lat="48.13268" lon="6.59981">
        <ele>374.8</ele>
        <time>2023-09-03T10:10:43Z</time>
      </trkpt>
      <trkpt lat="48.13263" lon="6.59976">
        <ele>374.6</ele>
        <time>2023-09-03T10:10:44Z</time>
      </trkpt>
      <trkpt lat="48.13257" lon="6.59971">
        <ele>374.6</ele>
        <time>2023-09-03T10:10:45Z</time>
      </trkpt>
      <trkpt lat="48.13252" lon="6.59966">
        <ele>374.6</ele>
        <time>2023-09-03T10:10:46Z</time>
      </trkpt>
      <trkpt lat="48.13247" lon="6.59961">
        <ele>374.4</ele>
        <time>2023-09-03T10:10:47Z</time>
      </trkpt>
      <trkpt lat="48.13241" lon="6.59957">
        <ele>374.4</ele>
        <time>2023-09-03T10:10:48Z</time>
      </trkpt>
      <trkpt lat="48.13236" lon="6.59953">
        <ele>374.4</ele>
        <time>2023-09-03T10:10:49Z</time>
      </trkpt>
      <trkpt lat="48.1323" lon="6.59949">
        <ele>374.6</ele>
        <time>2023-09-03T10:10:50Z</time>
      </trkpt>
      <trkpt lat="48.13225" lon="6.59944">
        <ele>374.6</ele>
        <time>2023-09-03T10:10:51Z</time>
      </trkpt>
      <trkpt lat="48.1322" lon="6.5994">
        <ele>374.6</ele>
        <time>2023-09-03T10:10:52Z</time>
      </trkpt>
      <trkpt lat="48.13214" lon="6.59935">
        <ele>374.6</ele>
        <time>2023-09-03T10:10:53Z</time>
      </trkpt>
      <trkpt lat="48.13208" lon="6.59931">
        <ele>374.6</ele>
        <time>2023-09-03T10:10:54Z</time>
      </trkpt>
      <trkpt lat="48.13203" lon="6.59926">
        <ele>374.6</ele>
        <time>2023-09-03T10:10:55Z</time>
      </trkpt>
      <trkpt lat="48.13198" lon="6.59922">
        <ele>374.6</ele>
        <time>2023-09-03T10:10:56Z</time>
      </trkpt>
      <trkpt lat="48.13192" lon="6.59917">
        <ele>374.6</ele>
        <time>2023-09-03T10:10:57Z</time>
      </trkpt>
      <trkpt lat="48.13187" lon="6.59912">
        <ele>374.6</ele>
        <time>2023-09-03T10:10:58Z</time>
      </trkpt>
      <trkpt lat="48.13182" lon="6.59907">
        <ele>374.6</ele>
        <time>2023-09-03T10:10:59Z</time>
      </trkpt>
      <trkpt lat="48.13177" lon="6.59901">
        <ele>374.6</ele>
        <time>2023-09-03T10:11:00Z</time>
      </trkpt>
      <trkpt lat="48.13172" lon="6.59897">
        <ele>374.6</ele>
        <time>2023-09-03T10:11:01Z</time>
      </trkpt>
      <trkpt lat="48.13166" lon="6.59892">
        <ele>374.6</ele>
        <time>2023-09-03T10:11:02Z</time>
      </trkpt>
      <trkpt lat="48.13161" lon="6.59888">
        <ele>374.6</ele>
        <time>2023-09-03T10:11:03Z</time>
      </trkpt>
      <trkpt lat="48.13155" lon="6.59883">
        <ele>374.6</ele>
        <time>2023-09-03T10:11:04Z</time>
      </trkpt>
      <trkpt lat="48.1315" lon="6.59879">
        <ele>374.6</ele>
        <time>2023-09-03T10:11:05Z</time>
      </trkpt>
      <trkpt lat="48.13145" lon="6.59874">
        <ele>374.8</ele>
        <time>2023-09-03T10:11:06Z</time>
      </trkpt>
      <trkpt lat="48.1314" lon="6.59869">
        <ele>374.8</ele>
        <time>2023-09-03T10:11:07Z</time>
      </trkpt>
      <trkpt lat="48.13135" lon="6.59864">
        <ele>374.8</ele>
        <time>2023-09-03T10:11:08Z</time>
      </trkpt>
      <trkpt lat="48.13131" lon="6.59859">
        <ele>374.6</ele>
        <time>2023-09-03T10:11:09Z</time>
      </trkpt>
      <trkpt lat="48.13128" lon="6.59852">
        <ele>374.4</ele>
        <time>2023-09-03T10:11:10Z</time>
      </trkpt>
      <trkpt lat="48.13125" lon="6.59846">
        <ele>374.2</ele>
        <time>2023-09-03T10:11:11Z</time>
      </trkpt>
      <trkpt lat="48.13121" lon="6.5984">
        <ele>374.2</ele>
        <time>2023-09-03T10:11:12Z</time>
      </trkpt>
      <trkpt lat="48.13118" lon="6.59836">
        <ele>374.2</ele>
        <time>2023-09-03T10:11:13Z</time>
      </trkpt>
      <trkpt lat="48.13114" lon="6.59831">
        <ele>374</ele>
        <time>2023-09-03T10:11:14Z</time>
      </trkpt>
      <trkpt lat="48.13111" lon="6.59827">
        <ele>373.8</ele>
        <time>2023-09-03T10:11:15Z</time>
      </trkpt>
      <trkpt lat="48.13109" lon="6.59821">
        <ele>373.6</ele>
        <time>2023-09-03T10:11:16Z</time>
      </trkpt>
      <trkpt lat="48.1311" lon="6.59815">
        <ele>373.6</ele>
        <time>2023-09-03T10:11:17Z</time>
      </trkpt>
      <trkpt lat="48.13111" lon="6.5981">
        <ele>373.6</ele>
        <time>2023-09-03T10:11:18Z</time>
      </trkpt>
      <trkpt lat="48.13113" lon="6.59804">
        <ele>373.6</ele>
        <time>2023-09-03T10:11:19Z</time>
      </trkpt>
      <trkpt lat="48.13115" lon="6.59801">
        <ele>373.6</ele>
        <time>2023-09-03T10:11:20Z</time>
      </trkpt>
      <trkpt lat="48.13116" lon="6.59797">
        <ele>373.6</ele>
        <time>2023-09-03T10:11:21Z</time>
      </trkpt>
      <trkpt lat="48.13118" lon="6.59794">
        <ele>373.8</ele>
        <time>2023-09-03T10:11:22Z</time>
      </trkpt>
      <trkpt lat="48.1312" lon="6.59792">
        <ele>373.8</ele>
        <time>2023-09-03T10:11:23Z</time>
      </trkpt>
      <trkpt lat="48.13122" lon="6.5979">
        <ele>373.8</ele>
        <time>2023-09-03T10:11:24Z</time>
      </trkpt>
      <trkpt lat="48.13125" lon="6.59787">
        <ele>373.8</ele>
        <time>2023-09-03T10:11:25Z</time>
      </trkpt>
      <trkpt lat="48.13128" lon="6.59783">
        <ele>373.8</ele>
        <time>2023-09-03T10:11:26Z</time>
      </trkpt>
      <trkpt lat="48.1313" lon="6.59779">
        <ele>373.8</ele>
        <time>2023-09-03T10:11:27Z</time>
      </trkpt>
      <trkpt lat="48.13132" lon="6.59775">
        <ele>373.8</ele>
        <time>2023-09-03T10:11:28Z</time>
      </trkpt>
      <trkpt lat="48.13135" lon="6.59768">
        <ele>373.8</ele>
        <time>2023-09-03T10:11:29Z</time>
      </trkpt>
      <trkpt lat="48.13137" lon="6.59764">
        <ele>373.8</ele>
        <time>2023-09-03T10:11:30Z</time>
      </trkpt>
      <trkpt lat="48.13139" lon="6.59757">
        <ele>373.8</ele>
        <time>2023-09-03T10:11:31Z</time>
      </trkpt>
      <trkpt lat="48.13141" lon="6.59751">
        <ele>373.8</ele>
        <time>2023-09-03T10:11:32Z</time>
      </trkpt>
      <trkpt lat="48.13143" lon="6.59747">
        <ele>373.8</ele>
        <time>2023-09-03T10:11:33Z</time>
      </trkpt>
      <trkpt lat="48.13146" lon="6.59739">
        <ele>373.8</ele>
        <time>2023-09-03T10:11:34Z</time>
      </trkpt>
      <trkpt lat="48.13148" lon="6.59734">
        <ele>373.8</ele>
        <time>2023-09-03T10:11:35Z</time>
      </trkpt>
      <trkpt lat="48.1315" lon="6.59728">
        <ele>373.8</ele>
        <time>2023-09-03T10:11:36Z</time>
      </trkpt>
      <trkpt lat="48.13153" lon="6.59723">
        <ele>373.8</ele>
        <time>2023-09-03T10:11:37Z</time>
      </trkpt>
      <trkpt lat="48.13155" lon="6.59718">
        <ele>373.8</ele>
        <time>2023-09-03T10:11:38Z</time>
      </trkpt>
      <trkpt lat="48.13157" lon="6.59714">
        <ele>373.8</ele>
        <time>2023-09-03T10:11:39Z</time>
      </trkpt>
      <trkpt lat="48.13159" lon="6.59708">
        <ele>373.8</ele>
        <time>2023-09-03T10:11:40Z</time>
      </trkpt>
      <trkpt lat="48.1316" lon="6.59704">
        <ele>373.8</ele>
        <time>2023-09-03T10:11:41Z</time>
      </trkpt>
      <trkpt lat="48.13162" lon="6.59698">
        <ele>374</ele>
        <time>2023-09-03T10:11:42Z</time>
      </trkpt>
      <trkpt lat="48.13164" lon="6.59693">
        <ele>374.2</ele>
        <time>2023-09-03T10:11:43Z</time>
      </trkpt>
      <trkpt lat="48.13166" lon="6.59688">
        <ele>374.4</ele>
        <time>2023-09-03T10:11:44Z</time>
      </trkpt>
      <trkpt lat="48.13167" lon="6.59683">
        <ele>374.4</ele>
        <time>2023-09-03T10:11:45Z</time>
      </trkpt>
      <trkpt lat="48.13169" lon="6.59678">
        <ele>374.4</ele>
        <time>2023-09-03T10:11:46Z</time>
      </trkpt>
      <trkpt lat="48.13171" lon="6.59673">
        <ele>374.4</ele>
        <time>2023-09-03T10:11:47Z</time>
      </trkpt>
      <trkpt lat="48.13173" lon="6.59668">
        <ele>374.6</ele>
        <time>2023-09-03T10:11:48Z</time>
      </trkpt>
      <trkpt lat="48.13175" lon="6.59663">
        <ele>374.4</ele>
        <time>2023-09-03T10:11:49Z</time>
      </trkpt>
      <trkpt lat="48.13178" lon="6.59658">
        <ele>374.4</ele>
        <time>2023-09-03T10:11:50Z</time>
      </trkpt>
      <trkpt lat="48.1318" lon="6.59654">
        <ele>374.6</ele>
        <time>2023-09-03T10:11:51Z</time>
      </trkpt>
      <trkpt lat="48.13182" lon="6.59649">
        <ele>374.4</ele>
        <time>2023-09-03T10:11:52Z</time>
      </trkpt>
      <trkpt lat="48.13184" lon="6.59644">
        <ele>374.4</ele>
        <time>2023-09-03T10:11:53Z</time>
      </trkpt>
      <trkpt lat="48.13186" lon="6.5964">
        <ele>374.4</ele>
        <time>2023-09-03T10:11:54Z</time>
      </trkpt>
      <trkpt lat="48.13188" lon="6.59635">
        <ele>374.4</ele>
        <time>2023-09-03T10:11:55Z</time>
      </trkpt>
      <trkpt lat="48.1319" lon="6.59629">
        <ele>374.4</ele>
        <time>2023-09-03T10:11:56Z</time>
      </trkpt>
      <trkpt lat="48.13192" lon="6.59625">
        <ele>374.4</ele>
        <time>2023-09-03T10:11:57Z</time>
      </trkpt>
      <trkpt lat="48.13194" lon="6.59619">
        <ele>374.4</ele>
        <time>2023-09-03T10:11:58Z</time>
      </trkpt>
      <trkpt lat="48.13195" lon="6.59615">
        <ele>374.6</ele>
        <time>2023-09-03T10:11:59Z</time>
      </trkpt>
      <trkpt lat="48.13197" lon="6.5961">
        <ele>374.6</ele>
        <time>2023-09-03T10:12:00Z</time>
      </trkpt>
      <trkpt lat="48.132" lon="6.59605">
        <ele>374.6</ele>
        <time>2023-09-03T10:12:01Z</time>
      </trkpt>
      <trkpt lat="48.13202" lon="6.596">
        <ele>374.6</ele>
        <time>2023-09-03T10:12:02Z</time>
      </trkpt>
      <trkpt lat="48.13204" lon="6.59596">
        <ele>374.6</ele>
        <time>2023-09-03T10:12:03Z</time>
      </trkpt>
      <trkpt lat="48.13207" lon="6.59592">
        <ele>374.6</ele>
        <time>2023-09-03T10:12:04Z</time>
      </trkpt>
      <trkpt lat="48.13209" lon="6.59588">
        <ele>374.6</ele>
        <time>2023-09-03T10:12:05Z</time>
      </trkpt>
      <trkpt lat="48.1321" lon="6.59583">
        <ele>374.6</ele>
        <time>2023-09-03T10:12:06Z</time>
      </trkpt>
      <trkpt lat="48.1321" lon="6.59579">
        <ele>374.6</ele>
        <time>2023-09-03T10:12:07Z</time>
      </trkpt>
      <trkpt lat="48.13208" lon="6.59575">
        <ele>374.6</ele>
        <time>2023-09-03T10:12:08Z</time>
      </trkpt>
      <trkpt lat="48.13205" lon="6.59573">
        <ele>374.4</ele>
        <time>2023-09-03T10:12:09Z</time>
      </trkpt>
      <trkpt lat="48.13202" lon="6.5957">
        <ele>374.6</ele>
        <time>2023-09-03T10:12:10Z</time>
      </trkpt>
      <trkpt lat="48.13199" lon="6.59568">
        <ele>374.4</ele>
        <time>2023-09-03T10:12:11Z</time>
      </trkpt>
      <trkpt lat="48.13196" lon="6.59565">
        <ele>374.4</ele>
        <time>2023-09-03T10:12:12Z</time>
      </trkpt>
      <trkpt lat="48.13194" lon="6.59562">
        <ele>374.4</ele>
        <time>2023-09-03T10:12:13Z</time>
      </trkpt>
      <trkpt lat="48.13191" lon="6.5956">
        <ele>374.4</ele>
        <time>2023-09-03T10:12:14Z</time>
      </trkpt>
      <trkpt lat="48.13188" lon="6.59559">
        <ele>374.2</ele>
        <time>2023-09-03T10:12:15Z</time>
      </trkpt>
      <trkpt lat="48.13185" lon="6.59557">
        <ele>374.2</ele>
        <time>2023-09-03T10:12:16Z</time>
      </trkpt>
      <trkpt lat="48.13182" lon="6.59554">
        <ele>374</ele>
        <time>2023-09-03T10:12:17Z</time>
      </trkpt>
      <trkpt lat="48.13179" lon="6.59552">
        <ele>374</ele>
        <time>2023-09-03T10:12:18Z</time>
      </trkpt>
      <trkpt lat="48.13176" lon="6.59549">
        <ele>374</ele>
        <time>2023-09-03T10:12:19Z</time>
      </trkpt>
      <trkpt lat="48.13173" lon="6.59546">
        <ele>373.8</ele>
        <time>2023-09-03T10:12:20Z</time>
      </trkpt>
      <trkpt lat="48.13171" lon="6.59544">
        <ele>373.8</ele>
        <time>2023-09-03T10:12:21Z</time>
      </trkpt>
      <trkpt lat="48.13168" lon="6.59542">
        <ele>373.8</ele>
        <time>2023-09-03T10:12:22Z</time>
      </trkpt>
      <trkpt lat="48.13166" lon="6.5954">
        <ele>373.8</ele>
        <time>2023-09-03T10:12:23Z</time>
      </trkpt>
      <trkpt lat="48.13164" lon="6.59538">
        <ele>373.8</ele>
        <time>2023-09-03T10:12:24Z</time>
      </trkpt>
      <trkpt lat="48.13161" lon="6.59536">
        <ele>373.8</ele>
        <time>2023-09-03T10:12:25Z</time>
      </trkpt>
      <trkpt lat="48.1316" lon="6.59535">
        <ele>373.6</ele>
        <time>2023-09-03T10:12:26Z</time>
      </trkpt>
      <trkpt lat="48.13158" lon="6.59533">
        <ele>373.6</ele>
        <time>2023-09-03T10:12:27Z</time>
      </trkpt>
      <trkpt lat="48.13156" lon="6.59531">
        <ele>373.6</ele>
        <time>2023-09-03T10:12:28Z</time>
      </trkpt>
      <trkpt lat="48.13156" lon="6.59529">
        <ele>373.4</ele>
        <time>2023-09-03T10:12:29Z</time>
      </trkpt>
      <trkpt lat="48.13155" lon="6.59528">
        <ele>373.4</ele>
        <time>2023-09-03T10:12:30Z</time>
      </trkpt>
      <trkpt lat="48.13154" lon="6.59527">
        <ele>373.2</ele>
        <time>2023-09-03T10:12:31Z</time>
      </trkpt>
      <trkpt lat="48.13153" lon="6.59525">
        <ele>373.2</ele>
        <time>2023-09-03T10:12:32Z</time>
      </trkpt>
      <trkpt lat="48.13152" lon="6.59524">
        <ele>373.2</ele>
        <time>2023-09-03T10:12:33Z</time>
      </trkpt>
      <trkpt lat="48.13152" lon="6.59524">
        <ele>373</ele>
        <time>2023-09-03T10:12:34Z</time>
      </trkpt>
    </trkseg>
  </trk>
</gpx>